<?xml version="1.0" encoding="UTF-8" standalone="no" ?>
<gpx xmlns="http://www.topografix.com/GPX/1/1" xmlns:xsi="http://www.w3.org/2001/XMLSchema-instance" xsi:schemaLocation="http://www.topografix.com/GPX/1/1 http://www.topografix.com/GPX/1/1/gpx.xsd" version="1.1" creator="VisuGPX - https://www.visugpx.com">
  <metadata>
    <name>Trièves-Devoluy</name>
    <desc><![CDATA[3 jours Entre Mens et St Etienne en Devoluy]]></desc>
  </metadata>
  <trk>
    <name><![CDATA[Trièves-Devoluy_1]]></name>
    <trkseg>
      <trkpt lat="44.78895" lon="5.76042">
        <ele>811</ele>
        <time>2015-01-26T13:57:32+01:00</time>
      </trkpt>
      <trkpt lat="44.79051" lon="5.75922">
        <ele>797</ele>
        <time>2015-01-26T13:57:37+01:00</time>
      </trkpt>
      <trkpt lat="44.78822" lon="5.75901">
        <ele>812</ele>
        <time>2015-01-26T13:57:42+01:00</time>
      </trkpt>
      <trkpt lat="44.7892" lon="5.75725">
        <ele>817</ele>
        <time>2015-01-26T13:57:47+01:00</time>
      </trkpt>
      <trkpt lat="44.78706" lon="5.75845">
        <ele>844</ele>
        <time>2015-01-26T13:57:52+01:00</time>
      </trkpt>
      <trkpt lat="44.786" lon="5.76046">
        <ele>840</ele>
        <time>2015-01-26T13:57:57+01:00</time>
      </trkpt>
      <trkpt lat="44.78366" lon="5.76321">
        <ele>834</ele>
        <time>2015-01-26T13:58:02+01:00</time>
      </trkpt>
      <trkpt lat="44.78289" lon="5.76497">
        <ele>839</ele>
        <time>2015-01-26T13:58:07+01:00</time>
      </trkpt>
      <trkpt lat="44.78162" lon="5.76604">
        <ele>842</ele>
        <time>2015-01-26T13:58:12+01:00</time>
      </trkpt>
      <trkpt lat="44.78122" lon="5.76733">
        <ele>849</ele>
        <time>2015-01-26T13:58:17+01:00</time>
      </trkpt>
      <trkpt lat="44.77878" lon="5.76823">
        <ele>856</ele>
        <time>2015-01-26T13:58:22+01:00</time>
      </trkpt>
      <trkpt lat="44.77829" lon="5.76883">
        <ele>860</ele>
        <time>2015-01-26T13:58:27+01:00</time>
      </trkpt>
      <trkpt lat="44.77784" lon="5.7687">
        <ele>864</ele>
        <time>2015-01-26T13:58:32+01:00</time>
      </trkpt>
      <trkpt lat="44.77369" lon="5.77076">
        <ele>885</ele>
        <time>2015-01-26T13:58:37+01:00</time>
      </trkpt>
      <trkpt lat="44.77098" lon="5.76995">
        <ele>903</ele>
        <time>2015-01-26T13:58:42+01:00</time>
      </trkpt>
      <trkpt lat="44.76562" lon="5.76978">
        <ele>954</ele>
        <time>2015-01-26T13:58:47+01:00</time>
      </trkpt>
      <trkpt lat="44.76462" lon="5.77068">
        <ele>986</ele>
        <time>2015-01-26T13:58:52+01:00</time>
      </trkpt>
      <trkpt lat="44.76443" lon="5.77235">
        <ele>984</ele>
        <time>2015-01-26T13:58:57+01:00</time>
      </trkpt>
      <trkpt lat="44.76358" lon="5.77291">
        <ele>1005</ele>
        <time>2015-01-26T13:59:02+01:00</time>
      </trkpt>
      <trkpt lat="44.76358" lon="5.77167">
        <ele>1021</ele>
        <time>2015-01-26T13:59:07+01:00</time>
      </trkpt>
      <trkpt lat="44.76263" lon="5.77102">
        <ele>1064</ele>
        <time>2015-01-26T13:59:12+01:00</time>
      </trkpt>
      <trkpt lat="44.76254" lon="5.77038">
        <ele>1069</ele>
        <time>2015-01-26T13:59:17+01:00</time>
      </trkpt>
      <trkpt lat="44.7612" lon="5.77128">
        <ele>1121</ele>
        <time>2015-01-26T13:59:22+01:00</time>
      </trkpt>
      <trkpt lat="44.76093" lon="5.77222">
        <ele>1110</ele>
        <time>2015-01-26T13:59:27+01:00</time>
      </trkpt>
      <trkpt lat="44.76023" lon="5.77145">
        <ele>1104</ele>
        <time>2015-01-26T13:59:32+01:00</time>
      </trkpt>
      <trkpt lat="44.7588" lon="5.77282">
        <ele>1073</ele>
        <time>2015-01-26T13:59:37+01:00</time>
      </trkpt>
      <trkpt lat="44.75809" lon="5.77244">
        <ele>1050</ele>
        <time>2015-01-26T13:59:42+01:00</time>
      </trkpt>
      <trkpt lat="44.75739" lon="5.77312">
        <ele>1050</ele>
        <time>2015-01-26T13:59:47+01:00</time>
      </trkpt>
      <trkpt lat="44.75584" lon="5.76952">
        <ele>994</ele>
        <time>2015-01-26T13:59:52+01:00</time>
      </trkpt>
      <trkpt lat="44.7538" lon="5.7678">
        <ele>964</ele>
        <time>2015-01-26T13:59:57+01:00</time>
      </trkpt>
      <trkpt lat="44.75142" lon="5.76634">
        <ele>940</ele>
        <time>2015-01-26T14:00:02+01:00</time>
      </trkpt>
      <trkpt lat="44.74825" lon="5.76815">
        <ele>927</ele>
        <time>2015-01-26T14:00:07+01:00</time>
      </trkpt>
      <trkpt lat="44.74758" lon="5.76896">
        <ele>940</ele>
        <time>2015-01-26T14:00:12+01:00</time>
      </trkpt>
      <trkpt lat="44.7475" lon="5.76882">
        <ele>940</ele>
      </trkpt>
      <trkpt lat="44.74652" lon="5.77196">
        <ele>937</ele>
      </trkpt>
      <trkpt lat="44.7418" lon="5.78084">
        <ele>981</ele>
      </trkpt>
      <trkpt lat="44.74015" lon="5.78067">
        <ele>982</ele>
      </trkpt>
      <trkpt lat="44.73906" lon="5.77968">
        <ele>974</ele>
      </trkpt>
      <trkpt lat="44.73823" lon="5.77839">
        <ele>967</ele>
      </trkpt>
      <trkpt lat="44.73738" lon="5.77691">
        <ele>959</ele>
      </trkpt>
      <trkpt lat="44.73577" lon="5.77537">
        <ele>963</ele>
      </trkpt>
      <trkpt lat="44.73446" lon="5.77357">
        <ele>964</ele>
      </trkpt>
      <trkpt lat="44.7336" lon="5.77211">
        <ele>958</ele>
      </trkpt>
      <trkpt lat="44.73299" lon="5.77155">
        <ele>953</ele>
      </trkpt>
      <trkpt lat="44.73281" lon="5.77065">
        <ele>946</ele>
      </trkpt>
      <trkpt lat="44.7319" lon="5.7703">
        <ele>939</ele>
      </trkpt>
      <trkpt lat="44.7308" lon="5.77108">
        <ele>936</ele>
      </trkpt>
      <trkpt lat="44.72979" lon="5.76966">
        <ele>934</ele>
      </trkpt>
      <trkpt lat="44.7293" lon="5.77005">
        <ele>944</ele>
      </trkpt>
      <trkpt lat="44.72854" lon="5.76893">
        <ele>947</ele>
      </trkpt>
      <trkpt lat="44.72766" lon="5.76889">
        <ele>954</ele>
      </trkpt>
      <trkpt lat="44.72702" lon="5.76945">
        <ele>959</ele>
      </trkpt>
      <trkpt lat="44.72622" lon="5.76949">
        <ele>958</ele>
      </trkpt>
      <trkpt lat="44.7268" lon="5.76859">
        <ele>956</ele>
      </trkpt>
      <trkpt lat="44.72653" lon="5.7676">
        <ele>956</ele>
      </trkpt>
      <trkpt lat="44.72394" lon="5.76752">
        <ele>959</ele>
      </trkpt>
      <trkpt lat="44.7225" lon="5.7664">
        <ele>984</ele>
      </trkpt>
      <trkpt lat="44.71915" lon="5.76541">
        <ele>1005</ele>
      </trkpt>
      <trkpt lat="44.71827" lon="5.76584">
        <ele>1000</ele>
      </trkpt>
      <trkpt lat="44.71741" lon="5.76619">
        <ele>1005</ele>
      </trkpt>
      <trkpt lat="44.71653" lon="5.76657">
        <ele>1012</ele>
      </trkpt>
      <trkpt lat="44.71564" lon="5.76644">
        <ele>1023</ele>
      </trkpt>
      <trkpt lat="44.71442" lon="5.76777">
        <ele>1032</ele>
      </trkpt>
      <trkpt lat="44.71348" lon="5.7691">
        <ele>1062</ele>
      </trkpt>
      <trkpt lat="44.71299" lon="5.77052">
        <ele>1079</ele>
      </trkpt>
      <trkpt lat="44.71232" lon="5.77172">
        <ele>1096</ele>
      </trkpt>
      <trkpt lat="44.71146" lon="5.77241">
        <ele>1125</ele>
      </trkpt>
      <trkpt lat="44.71156" lon="5.77344">
        <ele>1117</ele>
      </trkpt>
      <trkpt lat="44.7114" lon="5.77438">
        <ele>1131</ele>
      </trkpt>
      <trkpt lat="44.71183" lon="5.7755">
        <ele>1143</ele>
      </trkpt>
      <trkpt lat="44.71204" lon="5.7767">
        <ele>1166</ele>
      </trkpt>
      <trkpt lat="44.71122" lon="5.77648">
        <ele>1188</ele>
      </trkpt>
      <trkpt lat="44.71156" lon="5.77773">
        <ele>1199</ele>
      </trkpt>
      <trkpt lat="44.71082" lon="5.777">
        <ele>1225</ele>
      </trkpt>
      <trkpt lat="44.7096" lon="5.77915">
        <ele>1314</ele>
      </trkpt>
      <trkpt lat="44.70875" lon="5.77893">
        <ele>1330</ele>
      </trkpt>
      <trkpt lat="44.70796" lon="5.77936">
        <ele>1350</ele>
      </trkpt>
      <trkpt lat="44.7075" lon="5.77983">
        <ele>1360</ele>
      </trkpt>
      <trkpt lat="44.70796" lon="5.78073">
        <ele>1373</ele>
      </trkpt>
      <trkpt lat="44.70779" lon="5.7823">
        <ele>1392</ele>
      </trkpt>
      <trkpt lat="44.70728" lon="5.78284">
        <ele>1394</ele>
      </trkpt>
      <trkpt lat="44.70708" lon="5.7835">
        <ele>1403</ele>
      </trkpt>
      <trkpt lat="44.70608" lon="5.78447">
        <ele>1440</ele>
      </trkpt>
      <trkpt lat="44.705" lon="5.78322">
        <ele>1462</ele>
      </trkpt>
      <trkpt lat="44.70428" lon="5.78194">
        <ele>1463</ele>
      </trkpt>
      <trkpt lat="44.70346" lon="5.78101">
        <ele>1464</ele>
      </trkpt>
      <trkpt lat="44.70236" lon="5.78097">
        <ele>1471</ele>
      </trkpt>
      <trkpt lat="44.70155" lon="5.78118">
        <ele>1482</ele>
      </trkpt>
      <trkpt lat="44.70088" lon="5.78099">
        <ele>1484</ele>
      </trkpt>
      <trkpt lat="44.70021" lon="5.78037">
        <ele>1480</ele>
      </trkpt>
      <trkpt lat="44.69887" lon="5.77882">
        <ele>1433</ele>
      </trkpt>
      <trkpt lat="44.69847" lon="5.77829">
        <ele>1433</ele>
      </trkpt>
      <trkpt lat="44.69769" lon="5.77807">
        <ele>1403</ele>
      </trkpt>
      <trkpt lat="44.69777" lon="5.779">
        <ele>1384</ele>
      </trkpt>
      <trkpt lat="44.69719" lon="5.77865">
        <ele>1357</ele>
      </trkpt>
      <trkpt lat="44.69664" lon="5.77861">
        <ele>1338</ele>
      </trkpt>
      <trkpt lat="44.69591" lon="5.77977">
        <ele>1298</ele>
      </trkpt>
      <trkpt lat="44.69456" lon="5.78045">
        <ele>1248</ele>
      </trkpt>
      <trkpt lat="44.69438" lon="5.77985">
        <ele>1247</ele>
      </trkpt>
      <trkpt lat="44.69069" lon="5.775">
        <ele>1214</ele>
      </trkpt>
      <trkpt lat="44.68965" lon="5.772">
        <ele>1207</ele>
      </trkpt>
      <trkpt lat="44.68782" lon="5.77217">
        <ele>1198</ele>
      </trkpt>
      <trkpt lat="44.68517" lon="5.7717">
        <ele>1200</ele>
      </trkpt>
      <trkpt lat="44.67964" lon="5.76402">
        <ele>1161</ele>
      </trkpt>
      <trkpt lat="44.67824" lon="5.76181">
        <ele>1160</ele>
      </trkpt>
      <trkpt lat="44.67751" lon="5.76104">
        <ele>1160</ele>
      </trkpt>
      <trkpt lat="44.67736" lon="5.75988">
        <ele>1159</ele>
      </trkpt>
      <trkpt lat="44.67693" lon="5.7582">
        <ele>1157</ele>
      </trkpt>
      <trkpt lat="44.67663" lon="5.75704">
        <ele>1156</ele>
      </trkpt>
      <trkpt lat="44.67635" lon="5.75619">
        <ele>1160</ele>
      </trkpt>
      <trkpt lat="44.67666" lon="5.75486">
        <ele>1172</ele>
      </trkpt>
      <trkpt lat="44.67547" lon="5.75353">
        <ele>1157</ele>
      </trkpt>
      <trkpt lat="44.67373" lon="5.75241">
        <ele>1145</ele>
      </trkpt>
      <trkpt lat="44.67367" lon="5.75138">
        <ele>1156</ele>
      </trkpt>
      <trkpt lat="44.67165" lon="5.74902">
        <ele>1134</ele>
      </trkpt>
      <trkpt lat="44.67022" lon="5.74777">
        <ele>1117</ele>
      </trkpt>
      <trkpt lat="44.66817" lon="5.74563">
        <ele>1106</ele>
      </trkpt>
      <trkpt lat="44.66723" lon="5.74378">
        <ele>1099</ele>
      </trkpt>
      <trkpt lat="44.66631" lon="5.73911">
        <ele>1087</ele>
      </trkpt>
      <trkpt lat="44.66582" lon="5.73447">
        <ele>1088</ele>
      </trkpt>
      <trkpt lat="44.66335" lon="5.73267">
        <ele>1094</ele>
      </trkpt>
      <trkpt lat="44.66228" lon="5.73263">
        <ele>1079</ele>
      </trkpt>
      <trkpt lat="44.66155" lon="5.73194">
        <ele>1074</ele>
      </trkpt>
      <trkpt lat="44.66155" lon="5.72542">
        <ele>1047</ele>
      </trkpt>
      <trkpt lat="44.66124" lon="5.7228">
        <ele>1040</ele>
      </trkpt>
      <trkpt lat="44.66051" lon="5.71992">
        <ele>1034</ele>
      </trkpt>
      <trkpt lat="44.66091" lon="5.71821">
        <ele>1032</ele>
      </trkpt>
      <trkpt lat="44.66057" lon="5.71555">
        <ele>1027</ele>
      </trkpt>
      <trkpt lat="44.66158" lon="5.71456">
        <ele>1025</ele>
      </trkpt>
      <trkpt lat="44.66259" lon="5.71168">
        <ele>1022</ele>
      </trkpt>
      <trkpt lat="44.66271" lon="5.71022">
        <ele>1021</ele>
      </trkpt>
      <trkpt lat="44.66472" lon="5.70713">
        <ele>1030</ele>
      </trkpt>
      <trkpt lat="44.66597" lon="5.70649">
        <ele>1033</ele>
      </trkpt>
      <trkpt lat="44.66573" lon="5.7058">
        <ele>1036</ele>
      </trkpt>
      <trkpt lat="44.66521" lon="5.70529">
        <ele>1040</ele>
      </trkpt>
      <trkpt lat="44.66396" lon="5.7046">
        <ele>1055</ele>
      </trkpt>
      <trkpt lat="44.66141" lon="5.70586">
        <ele>1026.2</ele>
        <time>2015-06-30T06:02:32Z</time>
      </trkpt>
      <trkpt lat="44.66139" lon="5.7059">
        <ele>1026.2</ele>
        <time>2015-06-30T06:02:36Z</time>
      </trkpt>
      <trkpt lat="44.66131" lon="5.70577">
        <ele>1026.2</ele>
        <time>2015-06-30T06:02:41Z</time>
      </trkpt>
      <trkpt lat="44.66127" lon="5.7058">
        <ele>1026.2</ele>
        <time>2015-06-30T06:02:46Z</time>
      </trkpt>
      <trkpt lat="44.66126" lon="5.70581">
        <ele>1026.2</ele>
        <time>2015-06-30T06:02:51Z</time>
      </trkpt>
      <trkpt lat="44.66125" lon="5.706">
        <ele>1026.2</ele>
        <time>2015-06-30T06:02:56Z</time>
      </trkpt>
      <trkpt lat="44.66118" lon="5.70588">
        <ele>1026.2</ele>
        <time>2015-06-30T06:03:01Z</time>
      </trkpt>
      <trkpt lat="44.66118" lon="5.70603">
        <ele>1026.2</ele>
        <time>2015-06-30T06:03:06Z</time>
      </trkpt>
      <trkpt lat="44.66104" lon="5.70581">
        <ele>1026.2</ele>
        <time>2015-06-30T06:03:11Z</time>
      </trkpt>
      <trkpt lat="44.66101" lon="5.70593">
        <ele>1026.2</ele>
        <time>2015-06-30T06:03:16Z</time>
      </trkpt>
      <trkpt lat="44.66089" lon="5.70562">
        <ele>1026.2</ele>
        <time>2015-06-30T06:03:21Z</time>
      </trkpt>
      <trkpt lat="44.66096" lon="5.70598">
        <ele>1109.8</ele>
        <time>2015-06-30T06:03:26Z</time>
      </trkpt>
      <trkpt lat="44.66098" lon="5.70601">
        <ele>1102.2</ele>
        <time>2015-06-30T06:03:31Z</time>
      </trkpt>
      <trkpt lat="44.66095" lon="5.70601">
        <ele>1108.7</ele>
        <time>2015-06-30T06:03:36Z</time>
      </trkpt>
      <trkpt lat="44.66092" lon="5.70603">
        <ele>1107.6</ele>
        <time>2015-06-30T06:03:41Z</time>
      </trkpt>
      <trkpt lat="44.66088" lon="5.70604">
        <ele>1107.6</ele>
        <time>2015-06-30T06:03:46Z</time>
      </trkpt>
      <trkpt lat="44.66083" lon="5.70605">
        <ele>1108.3</ele>
        <time>2015-06-30T06:03:51Z</time>
      </trkpt>
      <trkpt lat="44.66079" lon="5.70609">
        <ele>1107.5</ele>
        <time>2015-06-30T06:03:56Z</time>
      </trkpt>
      <trkpt lat="44.66074" lon="5.70615">
        <ele>1105.4</ele>
        <time>2015-06-30T06:04:01Z</time>
      </trkpt>
      <trkpt lat="44.66068" lon="5.70614">
        <ele>1109.4</ele>
        <time>2015-06-30T06:04:06Z</time>
      </trkpt>
      <trkpt lat="44.66063" lon="5.70614">
        <ele>1112.2</ele>
        <time>2015-06-30T06:04:11Z</time>
      </trkpt>
      <trkpt lat="44.66058" lon="5.70617">
        <ele>1112.6</ele>
        <time>2015-06-30T06:04:16Z</time>
      </trkpt>
      <trkpt lat="44.66054" lon="5.70621">
        <ele>1114.2</ele>
        <time>2015-06-30T06:04:21Z</time>
      </trkpt>
      <trkpt lat="44.66052" lon="5.70627">
        <ele>1112.5</ele>
        <time>2015-06-30T06:04:26Z</time>
      </trkpt>
      <trkpt lat="44.66049" lon="5.7063">
        <ele>1113</ele>
        <time>2015-06-30T06:04:31Z</time>
      </trkpt>
      <trkpt lat="44.66043" lon="5.70633">
        <ele>1113.5</ele>
        <time>2015-06-30T06:04:36Z</time>
      </trkpt>
      <trkpt lat="44.66038" lon="5.70637">
        <ele>1112.2</ele>
        <time>2015-06-30T06:04:41Z</time>
      </trkpt>
      <trkpt lat="44.66037" lon="5.7065">
        <ele>1104.8</ele>
        <time>2015-06-30T06:04:46Z</time>
      </trkpt>
      <trkpt lat="44.66037" lon="5.70656">
        <ele>1103.6</ele>
        <time>2015-06-30T06:04:51Z</time>
      </trkpt>
      <trkpt lat="44.6604" lon="5.70662">
        <ele>1102.3</ele>
        <time>2015-06-30T06:04:56Z</time>
      </trkpt>
      <trkpt lat="44.66044" lon="5.70668">
        <ele>1105.5</ele>
        <time>2015-06-30T06:05:01Z</time>
      </trkpt>
      <trkpt lat="44.66049" lon="5.70669">
        <ele>1106.1</ele>
        <time>2015-06-30T06:05:06Z</time>
      </trkpt>
      <trkpt lat="44.66052" lon="5.70672">
        <ele>1105.1</ele>
        <time>2015-06-30T06:05:11Z</time>
      </trkpt>
      <trkpt lat="44.66052" lon="5.70669">
        <ele>1108.4</ele>
        <time>2015-06-30T06:05:16Z</time>
      </trkpt>
      <trkpt lat="44.66049" lon="5.70661">
        <ele>1110.4</ele>
        <time>2015-06-30T06:05:21Z</time>
      </trkpt>
      <trkpt lat="44.66044" lon="5.70655">
        <ele>1111.2</ele>
        <time>2015-06-30T06:05:26Z</time>
      </trkpt>
      <trkpt lat="44.66038" lon="5.70656">
        <ele>1111.9</ele>
        <time>2015-06-30T06:05:31Z</time>
      </trkpt>
      <trkpt lat="44.66034" lon="5.70658">
        <ele>1112.3</ele>
        <time>2015-06-30T06:05:36Z</time>
      </trkpt>
      <trkpt lat="44.6603" lon="5.70661">
        <ele>1115.2</ele>
        <time>2015-06-30T06:05:41Z</time>
      </trkpt>
      <trkpt lat="44.66029" lon="5.70669">
        <ele>1113.6</ele>
        <time>2015-06-30T06:05:46Z</time>
      </trkpt>
      <trkpt lat="44.66026" lon="5.70673">
        <ele>1115.1</ele>
        <time>2015-06-30T06:05:51Z</time>
      </trkpt>
      <trkpt lat="44.66022" lon="5.70676">
        <ele>1116.7</ele>
        <time>2015-06-30T06:05:56Z</time>
      </trkpt>
      <trkpt lat="44.66018" lon="5.70677">
        <ele>1115.9</ele>
        <time>2015-06-30T06:06:01Z</time>
      </trkpt>
      <trkpt lat="44.66013" lon="5.70679">
        <ele>1117.9</ele>
        <time>2015-06-30T06:06:06Z</time>
      </trkpt>
      <trkpt lat="44.6601" lon="5.7068">
        <ele>1118.3</ele>
        <time>2015-06-30T06:06:11Z</time>
      </trkpt>
      <trkpt lat="44.66005" lon="5.70679">
        <ele>1121.4</ele>
        <time>2015-06-30T06:06:16Z</time>
      </trkpt>
      <trkpt lat="44.66001" lon="5.70677">
        <ele>1121.1</ele>
        <time>2015-06-30T06:06:21Z</time>
      </trkpt>
      <trkpt lat="44.65997" lon="5.70673">
        <ele>1120.2</ele>
        <time>2015-06-30T06:06:26Z</time>
      </trkpt>
      <trkpt lat="44.65993" lon="5.70675">
        <ele>1124.5</ele>
        <time>2015-06-30T06:06:31Z</time>
      </trkpt>
      <trkpt lat="44.65989" lon="5.70674">
        <ele>1126.5</ele>
        <time>2015-06-30T06:06:36Z</time>
      </trkpt>
      <trkpt lat="44.65989" lon="5.70678">
        <ele>1123.1</ele>
        <time>2015-06-30T06:06:41Z</time>
      </trkpt>
      <trkpt lat="44.65987" lon="5.70684">
        <ele>1122.4</ele>
        <time>2015-06-30T06:06:46Z</time>
      </trkpt>
      <trkpt lat="44.65984" lon="5.70685">
        <ele>1125</ele>
        <time>2015-06-30T06:06:51Z</time>
      </trkpt>
      <trkpt lat="44.65979" lon="5.70687">
        <ele>1123.6</ele>
        <time>2015-06-30T06:06:56Z</time>
      </trkpt>
      <trkpt lat="44.65974" lon="5.70686">
        <ele>1127.8</ele>
        <time>2015-06-30T06:07:01Z</time>
      </trkpt>
      <trkpt lat="44.6597" lon="5.7069">
        <ele>1129.5</ele>
        <time>2015-06-30T06:07:06Z</time>
      </trkpt>
      <trkpt lat="44.65967" lon="5.70699">
        <ele>1124.8</ele>
        <time>2015-06-30T06:07:11Z</time>
      </trkpt>
      <trkpt lat="44.65963" lon="5.70703">
        <ele>1119.5</ele>
        <time>2015-06-30T06:07:16Z</time>
      </trkpt>
      <trkpt lat="44.6596" lon="5.70702">
        <ele>1112.2</ele>
        <time>2015-06-30T06:07:21Z</time>
      </trkpt>
      <trkpt lat="44.65955" lon="5.70701">
        <ele>1114.8</ele>
        <time>2015-06-30T06:07:26Z</time>
      </trkpt>
      <trkpt lat="44.65951" lon="5.70708">
        <ele>1118.3</ele>
        <time>2015-06-30T06:07:31Z</time>
      </trkpt>
      <trkpt lat="44.65947" lon="5.70712">
        <ele>1114.8</ele>
        <time>2015-06-30T06:07:36Z</time>
      </trkpt>
      <trkpt lat="44.6594" lon="5.70711">
        <ele>1116.7</ele>
        <time>2015-06-30T06:07:41Z</time>
      </trkpt>
      <trkpt lat="44.65934" lon="5.70711">
        <ele>1119.3</ele>
        <time>2015-06-30T06:07:46Z</time>
      </trkpt>
      <trkpt lat="44.65929" lon="5.70712">
        <ele>1118.7</ele>
        <time>2015-06-30T06:07:51Z</time>
      </trkpt>
      <trkpt lat="44.65927" lon="5.7071">
        <ele>1116.7</ele>
        <time>2015-06-30T06:07:56Z</time>
      </trkpt>
      <trkpt lat="44.65931" lon="5.70715">
        <ele>1116</ele>
        <time>2015-06-30T06:08:01Z</time>
      </trkpt>
      <trkpt lat="44.65929" lon="5.7071">
        <ele>1118.1</ele>
        <time>2015-06-30T06:08:06Z</time>
      </trkpt>
      <trkpt lat="44.65932" lon="5.70711">
        <ele>1123.7</ele>
        <time>2015-06-30T06:08:11Z</time>
      </trkpt>
      <trkpt lat="44.65929" lon="5.70718">
        <ele>1120.4</ele>
        <time>2015-06-30T06:08:16Z</time>
      </trkpt>
      <trkpt lat="44.65929" lon="5.70721">
        <ele>1119.2</ele>
        <time>2015-06-30T06:08:21Z</time>
      </trkpt>
      <trkpt lat="44.65931" lon="5.70725">
        <ele>1117.6</ele>
        <time>2015-06-30T06:08:26Z</time>
      </trkpt>
      <trkpt lat="44.65938" lon="5.70727">
        <ele>1115.1</ele>
        <time>2015-06-30T06:08:33Z</time>
      </trkpt>
      <trkpt lat="44.6594" lon="5.70725">
        <ele>1113.2</ele>
        <time>2015-06-30T06:08:38Z</time>
      </trkpt>
      <trkpt lat="44.65938" lon="5.70727">
        <ele>1113.3</ele>
        <time>2015-06-30T06:08:43Z</time>
      </trkpt>
      <trkpt lat="44.6593" lon="5.70712">
        <ele>1114.7</ele>
        <time>2015-06-30T06:08:50Z</time>
      </trkpt>
      <trkpt lat="44.65927" lon="5.70713">
        <ele>1114.8</ele>
        <time>2015-06-30T06:08:55Z</time>
      </trkpt>
      <trkpt lat="44.65928" lon="5.70711">
        <ele>1124.4</ele>
        <time>2015-06-30T06:09:00Z</time>
      </trkpt>
      <trkpt lat="44.65927" lon="5.70711">
        <ele>1131</ele>
        <time>2015-06-30T06:09:05Z</time>
      </trkpt>
      <trkpt lat="44.65929" lon="5.70712">
        <ele>1137.6</ele>
        <time>2015-06-30T06:09:10Z</time>
      </trkpt>
      <trkpt lat="44.65931" lon="5.70711">
        <ele>1138.1</ele>
        <time>2015-06-30T06:09:15Z</time>
      </trkpt>
      <trkpt lat="44.65935" lon="5.70711">
        <ele>1137.3</ele>
        <time>2015-06-30T06:09:20Z</time>
      </trkpt>
      <trkpt lat="44.65935" lon="5.70708">
        <ele>1140.6</ele>
        <time>2015-06-30T06:09:25Z</time>
      </trkpt>
      <trkpt lat="44.65932" lon="5.70707">
        <ele>1140.5</ele>
        <time>2015-06-30T06:09:30Z</time>
      </trkpt>
      <trkpt lat="44.65931" lon="5.70707">
        <ele>1140.9</ele>
        <time>2015-06-30T06:09:35Z</time>
      </trkpt>
      <trkpt lat="44.65933" lon="5.70712">
        <ele>1140</ele>
        <time>2015-06-30T06:09:43Z</time>
      </trkpt>
      <trkpt lat="44.65932" lon="5.70709">
        <ele>1138.2</ele>
        <time>2015-06-30T06:09:48Z</time>
      </trkpt>
      <trkpt lat="44.6593" lon="5.70704">
        <ele>1138.4</ele>
        <time>2015-06-30T06:09:53Z</time>
      </trkpt>
      <trkpt lat="44.65931" lon="5.70703">
        <ele>1141</ele>
        <time>2015-06-30T06:09:58Z</time>
      </trkpt>
      <trkpt lat="44.6593" lon="5.70702">
        <ele>1144.4</ele>
        <time>2015-06-30T06:10:03Z</time>
      </trkpt>
      <trkpt lat="44.65927" lon="5.70701">
        <ele>1147.1</ele>
        <time>2015-06-30T06:10:08Z</time>
      </trkpt>
      <trkpt lat="44.65929" lon="5.70704">
        <ele>1147.6</ele>
        <time>2015-06-30T06:10:13Z</time>
      </trkpt>
      <trkpt lat="44.65927" lon="5.70701">
        <ele>1148.8</ele>
        <time>2015-06-30T06:10:18Z</time>
      </trkpt>
      <trkpt lat="44.65928" lon="5.70704">
        <ele>1149.1</ele>
        <time>2015-06-30T06:10:23Z</time>
      </trkpt>
      <trkpt lat="44.65926" lon="5.70706">
        <ele>1147.5</ele>
        <time>2015-06-30T06:10:28Z</time>
      </trkpt>
      <trkpt lat="44.65929" lon="5.70703">
        <ele>1151.6</ele>
        <time>2015-06-30T06:10:37Z</time>
      </trkpt>
      <trkpt lat="44.65929" lon="5.70698">
        <ele>1141.7</ele>
        <time>2015-06-30T06:10:42Z</time>
      </trkpt>
      <trkpt lat="44.65927" lon="5.707">
        <ele>1145.2</ele>
        <time>2015-06-30T06:10:47Z</time>
      </trkpt>
      <trkpt lat="44.65925" lon="5.70702">
        <ele>1145.3</ele>
        <time>2015-06-30T06:10:52Z</time>
      </trkpt>
      <trkpt lat="44.65925" lon="5.70706">
        <ele>1141.7</ele>
        <time>2015-06-30T06:10:57Z</time>
      </trkpt>
      <trkpt lat="44.65928" lon="5.7071">
        <ele>1136.7</ele>
        <time>2015-06-30T06:11:02Z</time>
      </trkpt>
      <trkpt lat="44.6593" lon="5.70714">
        <ele>1128.4</ele>
        <time>2015-06-30T06:11:07Z</time>
      </trkpt>
      <trkpt lat="44.65926" lon="5.70714">
        <ele>1133.7</ele>
        <time>2015-06-30T06:11:12Z</time>
      </trkpt>
      <trkpt lat="44.65925" lon="5.70712">
        <ele>1137.1</ele>
        <time>2015-06-30T06:11:17Z</time>
      </trkpt>
      <trkpt lat="44.65925" lon="5.70707">
        <ele>1139.4</ele>
        <time>2015-06-30T06:11:24Z</time>
      </trkpt>
      <trkpt lat="44.65929" lon="5.70707">
        <ele>1140</ele>
        <time>2015-06-30T06:11:29Z</time>
      </trkpt>
      <trkpt lat="44.6593" lon="5.70703">
        <ele>1141.7</ele>
        <time>2015-06-30T06:11:34Z</time>
      </trkpt>
      <trkpt lat="44.65932" lon="5.70701">
        <ele>1143.9</ele>
        <time>2015-06-30T06:11:39Z</time>
      </trkpt>
      <trkpt lat="44.65929" lon="5.70693">
        <ele>1140.4</ele>
        <time>2015-06-30T06:11:46Z</time>
      </trkpt>
      <trkpt lat="44.65925" lon="5.70692">
        <ele>1141.8</ele>
        <time>2015-06-30T06:11:51Z</time>
      </trkpt>
      <trkpt lat="44.65924" lon="5.70695">
        <ele>1141.7</ele>
        <time>2015-06-30T06:11:56Z</time>
      </trkpt>
      <trkpt lat="44.65926" lon="5.70697">
        <ele>1141</ele>
        <time>2015-06-30T06:12:01Z</time>
      </trkpt>
      <trkpt lat="44.65932" lon="5.70708">
        <ele>1120.5</ele>
        <time>2015-06-30T06:12:06Z</time>
      </trkpt>
      <trkpt lat="44.65932" lon="5.70712">
        <ele>1122</ele>
        <time>2015-06-30T06:12:11Z</time>
      </trkpt>
      <trkpt lat="44.65929" lon="5.70715">
        <ele>1125.3</ele>
        <time>2015-06-30T06:12:16Z</time>
      </trkpt>
      <trkpt lat="44.65928" lon="5.70713">
        <ele>1127.9</ele>
        <time>2015-06-30T06:12:21Z</time>
      </trkpt>
      <trkpt lat="44.65927" lon="5.70708">
        <ele>1129.1</ele>
        <time>2015-06-30T06:12:26Z</time>
      </trkpt>
      <trkpt lat="44.65923" lon="5.70709">
        <ele>1128.5</ele>
        <time>2015-06-30T06:12:31Z</time>
      </trkpt>
      <trkpt lat="44.65918" lon="5.7071">
        <ele>1128.6</ele>
        <time>2015-06-30T06:12:36Z</time>
      </trkpt>
      <trkpt lat="44.65915" lon="5.70714">
        <ele>1128.1</ele>
        <time>2015-06-30T06:12:41Z</time>
      </trkpt>
      <trkpt lat="44.6591" lon="5.70717">
        <ele>1128</ele>
        <time>2015-06-30T06:12:46Z</time>
      </trkpt>
      <trkpt lat="44.65907" lon="5.70721">
        <ele>1127.2</ele>
        <time>2015-06-30T06:12:51Z</time>
      </trkpt>
      <trkpt lat="44.65902" lon="5.70726">
        <ele>1122.6</ele>
        <time>2015-06-30T06:12:56Z</time>
      </trkpt>
      <trkpt lat="44.65896" lon="5.7073">
        <ele>1125</ele>
        <time>2015-06-30T06:13:01Z</time>
      </trkpt>
      <trkpt lat="44.65892" lon="5.70734">
        <ele>1118.5</ele>
        <time>2015-06-30T06:13:06Z</time>
      </trkpt>
      <trkpt lat="44.65886" lon="5.70738">
        <ele>1121.1</ele>
        <time>2015-06-30T06:13:11Z</time>
      </trkpt>
      <trkpt lat="44.65884" lon="5.7074">
        <ele>1123.5</ele>
        <time>2015-06-30T06:13:16Z</time>
      </trkpt>
      <trkpt lat="44.65902" lon="5.70742">
        <ele>1122.8</ele>
        <time>2015-06-30T06:13:25Z</time>
      </trkpt>
      <trkpt lat="44.65895" lon="5.70745">
        <ele>1125.1</ele>
        <time>2015-06-30T06:13:32Z</time>
      </trkpt>
      <trkpt lat="44.65884" lon="5.70742">
        <ele>1125.8</ele>
        <time>2015-06-30T06:13:37Z</time>
      </trkpt>
      <trkpt lat="44.65877" lon="5.70747">
        <ele>1123.2</ele>
        <time>2015-06-30T06:13:42Z</time>
      </trkpt>
      <trkpt lat="44.65872" lon="5.70753">
        <ele>1125.2</ele>
        <time>2015-06-30T06:13:47Z</time>
      </trkpt>
      <trkpt lat="44.65867" lon="5.70757">
        <ele>1122.7</ele>
        <time>2015-06-30T06:13:52Z</time>
      </trkpt>
      <trkpt lat="44.65863" lon="5.70761">
        <ele>1120.1</ele>
        <time>2015-06-30T06:13:57Z</time>
      </trkpt>
      <trkpt lat="44.65859" lon="5.70762">
        <ele>1117.9</ele>
        <time>2015-06-30T06:14:02Z</time>
      </trkpt>
      <trkpt lat="44.65857" lon="5.70763">
        <ele>1120</ele>
        <time>2015-06-30T06:14:07Z</time>
      </trkpt>
      <trkpt lat="44.65856" lon="5.70766">
        <ele>1121.7</ele>
        <time>2015-06-30T06:14:12Z</time>
      </trkpt>
      <trkpt lat="44.65851" lon="5.70771">
        <ele>1117.4</ele>
        <time>2015-06-30T06:14:17Z</time>
      </trkpt>
      <trkpt lat="44.6585" lon="5.70771">
        <ele>1113.3</ele>
        <time>2015-06-30T06:14:22Z</time>
      </trkpt>
      <trkpt lat="44.65846" lon="5.70772">
        <ele>1106.5</ele>
        <time>2015-06-30T06:14:27Z</time>
      </trkpt>
      <trkpt lat="44.65848" lon="5.70776">
        <ele>1108.8</ele>
        <time>2015-06-30T06:14:32Z</time>
      </trkpt>
      <trkpt lat="44.6585" lon="5.7078">
        <ele>1114.6</ele>
        <time>2015-06-30T06:14:37Z</time>
      </trkpt>
      <trkpt lat="44.65845" lon="5.70784">
        <ele>1113.3</ele>
        <time>2015-06-30T06:14:42Z</time>
      </trkpt>
      <trkpt lat="44.65842" lon="5.70787">
        <ele>1112.2</ele>
        <time>2015-06-30T06:14:47Z</time>
      </trkpt>
      <trkpt lat="44.65839" lon="5.7079">
        <ele>1110.2</ele>
        <time>2015-06-30T06:14:52Z</time>
      </trkpt>
      <trkpt lat="44.65838" lon="5.70796">
        <ele>1110.7</ele>
        <time>2015-06-30T06:14:57Z</time>
      </trkpt>
      <trkpt lat="44.65839" lon="5.708">
        <ele>1108.3</ele>
        <time>2015-06-30T06:15:02Z</time>
      </trkpt>
      <trkpt lat="44.65837" lon="5.70801">
        <ele>1102.4</ele>
        <time>2015-06-30T06:15:07Z</time>
      </trkpt>
      <trkpt lat="44.65843" lon="5.70799">
        <ele>1102.9</ele>
        <time>2015-06-30T06:15:12Z</time>
      </trkpt>
      <trkpt lat="44.65847" lon="5.70802">
        <ele>1101.7</ele>
        <time>2015-06-30T06:15:17Z</time>
      </trkpt>
      <trkpt lat="44.65841" lon="5.70805">
        <ele>1103.3</ele>
        <time>2015-06-30T06:15:22Z</time>
      </trkpt>
      <trkpt lat="44.65837" lon="5.7081">
        <ele>1105.8</ele>
        <time>2015-06-30T06:15:27Z</time>
      </trkpt>
      <trkpt lat="44.65834" lon="5.70815">
        <ele>1107.4</ele>
        <time>2015-06-30T06:15:32Z</time>
      </trkpt>
      <trkpt lat="44.6583" lon="5.70819">
        <ele>1103.7</ele>
        <time>2015-06-30T06:15:37Z</time>
      </trkpt>
      <trkpt lat="44.65828" lon="5.70825">
        <ele>1107.2</ele>
        <time>2015-06-30T06:15:42Z</time>
      </trkpt>
      <trkpt lat="44.65826" lon="5.70829">
        <ele>1106.6</ele>
        <time>2015-06-30T06:15:47Z</time>
      </trkpt>
      <trkpt lat="44.65825" lon="5.70832">
        <ele>1101.5</ele>
        <time>2015-06-30T06:15:52Z</time>
      </trkpt>
      <trkpt lat="44.65823" lon="5.70832">
        <ele>1096.3</ele>
        <time>2015-06-30T06:15:57Z</time>
      </trkpt>
      <trkpt lat="44.65819" lon="5.70838">
        <ele>1096.2</ele>
        <time>2015-06-30T06:16:02Z</time>
      </trkpt>
      <trkpt lat="44.65816" lon="5.70844">
        <ele>1095.6</ele>
        <time>2015-06-30T06:16:07Z</time>
      </trkpt>
      <trkpt lat="44.65814" lon="5.70848">
        <ele>1091.5</ele>
        <time>2015-06-30T06:16:12Z</time>
      </trkpt>
      <trkpt lat="44.65811" lon="5.70852">
        <ele>1087.7</ele>
        <time>2015-06-30T06:16:17Z</time>
      </trkpt>
      <trkpt lat="44.65808" lon="5.70859">
        <ele>1088.5</ele>
        <time>2015-06-30T06:16:22Z</time>
      </trkpt>
      <trkpt lat="44.65805" lon="5.70864">
        <ele>1089.4</ele>
        <time>2015-06-30T06:16:27Z</time>
      </trkpt>
      <trkpt lat="44.65801" lon="5.7087">
        <ele>1085.9</ele>
        <time>2015-06-30T06:16:32Z</time>
      </trkpt>
      <trkpt lat="44.65807" lon="5.70868">
        <ele>1085.7</ele>
        <time>2015-06-30T06:16:37Z</time>
      </trkpt>
      <trkpt lat="44.65813" lon="5.70869">
        <ele>1083.9</ele>
        <time>2015-06-30T06:16:42Z</time>
      </trkpt>
      <trkpt lat="44.65816" lon="5.70867">
        <ele>1083.5</ele>
        <time>2015-06-30T06:16:47Z</time>
      </trkpt>
      <trkpt lat="44.6582" lon="5.70869">
        <ele>1089.1</ele>
        <time>2015-06-30T06:16:52Z</time>
      </trkpt>
      <trkpt lat="44.65824" lon="5.70869">
        <ele>1088.1</ele>
        <time>2015-06-30T06:16:57Z</time>
      </trkpt>
      <trkpt lat="44.65826" lon="5.70871">
        <ele>1089.1</ele>
        <time>2015-06-30T06:17:02Z</time>
      </trkpt>
      <trkpt lat="44.65825" lon="5.70865">
        <ele>1079.9</ele>
        <time>2015-06-30T06:17:07Z</time>
      </trkpt>
      <trkpt lat="44.65828" lon="5.70863">
        <ele>1075.8</ele>
        <time>2015-06-30T06:17:12Z</time>
      </trkpt>
      <trkpt lat="44.6583" lon="5.70867">
        <ele>1075</ele>
        <time>2015-06-30T06:17:17Z</time>
      </trkpt>
      <trkpt lat="44.65832" lon="5.70863">
        <ele>1075.8</ele>
        <time>2015-06-30T06:17:24Z</time>
      </trkpt>
      <trkpt lat="44.65823" lon="5.70865">
        <ele>1074.6</ele>
        <time>2015-06-30T06:17:29Z</time>
      </trkpt>
      <trkpt lat="44.65818" lon="5.70872">
        <ele>1076.7</ele>
        <time>2015-06-30T06:17:34Z</time>
      </trkpt>
      <trkpt lat="44.65814" lon="5.70879">
        <ele>1078.4</ele>
        <time>2015-06-30T06:17:39Z</time>
      </trkpt>
      <trkpt lat="44.65815" lon="5.70886">
        <ele>1082.9</ele>
        <time>2015-06-30T06:17:44Z</time>
      </trkpt>
      <trkpt lat="44.65814" lon="5.70889">
        <ele>1079.7</ele>
        <time>2015-06-30T06:17:49Z</time>
      </trkpt>
      <trkpt lat="44.65811" lon="5.70894">
        <ele>1078.4</ele>
        <time>2015-06-30T06:17:54Z</time>
      </trkpt>
      <trkpt lat="44.65811" lon="5.70896">
        <ele>1074.1</ele>
        <time>2015-06-30T06:17:59Z</time>
      </trkpt>
      <trkpt lat="44.65807" lon="5.70903">
        <ele>1074.9</ele>
        <time>2015-06-30T06:18:04Z</time>
      </trkpt>
      <trkpt lat="44.65805" lon="5.70908">
        <ele>1071.8</ele>
        <time>2015-06-30T06:18:09Z</time>
      </trkpt>
      <trkpt lat="44.65798" lon="5.70914">
        <ele>1073.6</ele>
        <time>2015-06-30T06:18:14Z</time>
      </trkpt>
      <trkpt lat="44.65792" lon="5.70922">
        <ele>1072.1</ele>
        <time>2015-06-30T06:18:19Z</time>
      </trkpt>
      <trkpt lat="44.65791" lon="5.70926">
        <ele>1068.5</ele>
        <time>2015-06-30T06:18:24Z</time>
      </trkpt>
      <trkpt lat="44.65792" lon="5.7093">
        <ele>1070</ele>
        <time>2015-06-30T06:18:29Z</time>
      </trkpt>
      <trkpt lat="44.65795" lon="5.70935">
        <ele>1070.6</ele>
        <time>2015-06-30T06:18:34Z</time>
      </trkpt>
      <trkpt lat="44.65792" lon="5.70945">
        <ele>1068.4</ele>
        <time>2015-06-30T06:18:39Z</time>
      </trkpt>
      <trkpt lat="44.65785" lon="5.70951">
        <ele>1061</ele>
        <time>2015-06-30T06:18:44Z</time>
      </trkpt>
      <trkpt lat="44.65783" lon="5.70956">
        <ele>1058.9</ele>
        <time>2015-06-30T06:18:49Z</time>
      </trkpt>
      <trkpt lat="44.65782" lon="5.7096">
        <ele>1055.8</ele>
        <time>2015-06-30T06:18:54Z</time>
      </trkpt>
      <trkpt lat="44.65777" lon="5.70965">
        <ele>1055.3</ele>
        <time>2015-06-30T06:18:59Z</time>
      </trkpt>
      <trkpt lat="44.65775" lon="5.70972">
        <ele>1056.1</ele>
        <time>2015-06-30T06:19:04Z</time>
      </trkpt>
      <trkpt lat="44.65776" lon="5.70977">
        <ele>1055.5</ele>
        <time>2015-06-30T06:19:09Z</time>
      </trkpt>
      <trkpt lat="44.65774" lon="5.7098">
        <ele>1054.3</ele>
        <time>2015-06-30T06:19:14Z</time>
      </trkpt>
      <trkpt lat="44.65769" lon="5.70986">
        <ele>1053.6</ele>
        <time>2015-06-30T06:19:19Z</time>
      </trkpt>
      <trkpt lat="44.6577" lon="5.70991">
        <ele>1054.3</ele>
        <time>2015-06-30T06:19:24Z</time>
      </trkpt>
      <trkpt lat="44.65771" lon="5.70997">
        <ele>1056.8</ele>
        <time>2015-06-30T06:19:29Z</time>
      </trkpt>
      <trkpt lat="44.65766" lon="5.71003">
        <ele>1053.7</ele>
        <time>2015-06-30T06:19:34Z</time>
      </trkpt>
      <trkpt lat="44.65765" lon="5.71007">
        <ele>1051.9</ele>
        <time>2015-06-30T06:19:39Z</time>
      </trkpt>
      <trkpt lat="44.65764" lon="5.7101">
        <ele>1043.2</ele>
        <time>2015-06-30T06:19:44Z</time>
      </trkpt>
      <trkpt lat="44.65764" lon="5.71014">
        <ele>1040.3</ele>
        <time>2015-06-30T06:19:49Z</time>
      </trkpt>
      <trkpt lat="44.65761" lon="5.7102">
        <ele>1039.6</ele>
        <time>2015-06-30T06:19:54Z</time>
      </trkpt>
      <trkpt lat="44.6576" lon="5.71024">
        <ele>1037.4</ele>
        <time>2015-06-30T06:19:59Z</time>
      </trkpt>
      <trkpt lat="44.65755" lon="5.71032">
        <ele>1041.6</ele>
        <time>2015-06-30T06:20:04Z</time>
      </trkpt>
      <trkpt lat="44.65751" lon="5.71036">
        <ele>1041.8</ele>
        <time>2015-06-30T06:20:09Z</time>
      </trkpt>
      <trkpt lat="44.65749" lon="5.71041">
        <ele>1039.8</ele>
        <time>2015-06-30T06:20:14Z</time>
      </trkpt>
      <trkpt lat="44.65747" lon="5.71046">
        <ele>1039</ele>
        <time>2015-06-30T06:20:19Z</time>
      </trkpt>
      <trkpt lat="44.65746" lon="5.71054">
        <ele>1035.5</ele>
        <time>2015-06-30T06:20:24Z</time>
      </trkpt>
      <trkpt lat="44.65742" lon="5.71057">
        <ele>1034.2</ele>
        <time>2015-06-30T06:20:29Z</time>
      </trkpt>
      <trkpt lat="44.65743" lon="5.71059">
        <ele>1033.3</ele>
        <time>2015-06-30T06:20:34Z</time>
      </trkpt>
      <trkpt lat="44.6574" lon="5.71061">
        <ele>1030.2</ele>
        <time>2015-06-30T06:20:39Z</time>
      </trkpt>
      <trkpt lat="44.65735" lon="5.7107">
        <ele>1031.8</ele>
        <time>2015-06-30T06:20:44Z</time>
      </trkpt>
      <trkpt lat="44.65737" lon="5.71077">
        <ele>1026.2</ele>
        <time>2015-06-30T06:20:49Z</time>
      </trkpt>
      <trkpt lat="44.65736" lon="5.71083">
        <ele>1023</ele>
        <time>2015-06-30T06:20:54Z</time>
      </trkpt>
      <trkpt lat="44.65736" lon="5.71086">
        <ele>1017.2</ele>
        <time>2015-06-30T06:20:59Z</time>
      </trkpt>
      <trkpt lat="44.65736" lon="5.71092">
        <ele>1017.6</ele>
        <time>2015-06-30T06:21:04Z</time>
      </trkpt>
      <trkpt lat="44.65738" lon="5.71094">
        <ele>1019.6</ele>
        <time>2015-06-30T06:21:09Z</time>
      </trkpt>
      <trkpt lat="44.6574" lon="5.71091">
        <ele>1015.7</ele>
        <time>2015-06-30T06:21:14Z</time>
      </trkpt>
      <trkpt lat="44.65739" lon="5.71096">
        <ele>1014.1</ele>
        <time>2015-06-30T06:21:19Z</time>
      </trkpt>
      <trkpt lat="44.6574" lon="5.71103">
        <ele>1013.1</ele>
        <time>2015-06-30T06:21:24Z</time>
      </trkpt>
      <trkpt lat="44.65741" lon="5.71112">
        <ele>1015.9</ele>
        <time>2015-06-30T06:21:29Z</time>
      </trkpt>
      <trkpt lat="44.65744" lon="5.71121">
        <ele>1018.8</ele>
        <time>2015-06-30T06:21:34Z</time>
      </trkpt>
      <trkpt lat="44.65748" lon="5.71128">
        <ele>1020.2</ele>
        <time>2015-06-30T06:21:39Z</time>
      </trkpt>
      <trkpt lat="44.6575" lon="5.71137">
        <ele>1021</ele>
        <time>2015-06-30T06:21:44Z</time>
      </trkpt>
      <trkpt lat="44.65753" lon="5.7114">
        <ele>1022.1</ele>
        <time>2015-06-30T06:21:49Z</time>
      </trkpt>
      <trkpt lat="44.65753" lon="5.71139">
        <ele>1020.7</ele>
        <time>2015-06-30T06:21:54Z</time>
      </trkpt>
      <trkpt lat="44.65757" lon="5.71139">
        <ele>1020.4</ele>
        <time>2015-06-30T06:21:59Z</time>
      </trkpt>
      <trkpt lat="44.65762" lon="5.71143">
        <ele>1019.2</ele>
        <time>2015-06-30T06:22:04Z</time>
      </trkpt>
      <trkpt lat="44.65759" lon="5.71149">
        <ele>1017.7</ele>
        <time>2015-06-30T06:22:09Z</time>
      </trkpt>
      <trkpt lat="44.65758" lon="5.71148">
        <ele>1018.1</ele>
        <time>2015-06-30T06:22:14Z</time>
      </trkpt>
      <trkpt lat="44.65759" lon="5.71146">
        <ele>1018.8</ele>
        <time>2015-06-30T06:22:19Z</time>
      </trkpt>
      <trkpt lat="44.65759" lon="5.71145">
        <ele>1018</ele>
        <time>2015-06-30T06:22:24Z</time>
      </trkpt>
      <trkpt lat="44.65759" lon="5.71143">
        <ele>1017.5</ele>
        <time>2015-06-30T06:22:29Z</time>
      </trkpt>
      <trkpt lat="44.65759" lon="5.71142">
        <ele>1013.3</ele>
        <time>2015-06-30T06:22:34Z</time>
      </trkpt>
      <trkpt lat="44.6576" lon="5.71141">
        <ele>1003.4</ele>
        <time>2015-06-30T06:22:39Z</time>
      </trkpt>
      <trkpt lat="44.6576" lon="5.7114">
        <ele>1003.9</ele>
        <time>2015-06-30T06:22:44Z</time>
      </trkpt>
      <trkpt lat="44.65757" lon="5.71143">
        <ele>1007.5</ele>
        <time>2015-06-30T06:22:49Z</time>
      </trkpt>
      <trkpt lat="44.65758" lon="5.71141">
        <ele>1014.4</ele>
        <time>2015-06-30T06:22:54Z</time>
      </trkpt>
      <trkpt lat="44.65758" lon="5.71146">
        <ele>1022.4</ele>
        <time>2015-06-30T06:22:59Z</time>
      </trkpt>
      <trkpt lat="44.65761" lon="5.71147">
        <ele>1024.2</ele>
        <time>2015-06-30T06:23:04Z</time>
      </trkpt>
      <trkpt lat="44.65759" lon="5.71146">
        <ele>1028.3</ele>
        <time>2015-06-30T06:23:09Z</time>
      </trkpt>
      <trkpt lat="44.65759" lon="5.71142">
        <ele>1026.5</ele>
        <time>2015-06-30T06:23:14Z</time>
      </trkpt>
      <trkpt lat="44.65756" lon="5.71144">
        <ele>1024.4</ele>
        <time>2015-06-30T06:23:19Z</time>
      </trkpt>
      <trkpt lat="44.65757" lon="5.71146">
        <ele>1020.8</ele>
        <time>2015-06-30T06:23:24Z</time>
      </trkpt>
      <trkpt lat="44.65757" lon="5.7115">
        <ele>1023.6</ele>
        <time>2015-06-30T06:23:29Z</time>
      </trkpt>
      <trkpt lat="44.65754" lon="5.71147">
        <ele>1023.2</ele>
        <time>2015-06-30T06:23:34Z</time>
      </trkpt>
      <trkpt lat="44.65756" lon="5.71146">
        <ele>1021.8</ele>
        <time>2015-06-30T06:23:39Z</time>
      </trkpt>
      <trkpt lat="44.65754" lon="5.71149">
        <ele>1020</ele>
        <time>2015-06-30T06:23:44Z</time>
      </trkpt>
      <trkpt lat="44.65751" lon="5.71152">
        <ele>1022.4</ele>
        <time>2015-06-30T06:23:49Z</time>
      </trkpt>
      <trkpt lat="44.65753" lon="5.71148">
        <ele>1019.9</ele>
        <time>2015-06-30T06:23:54Z</time>
      </trkpt>
      <trkpt lat="44.65752" lon="5.71145">
        <ele>1025</ele>
        <time>2015-06-30T06:23:59Z</time>
      </trkpt>
      <trkpt lat="44.65752" lon="5.71144">
        <ele>1027</ele>
        <time>2015-06-30T06:24:04Z</time>
      </trkpt>
      <trkpt lat="44.65752" lon="5.71141">
        <ele>1032.3</ele>
        <time>2015-06-30T06:24:09Z</time>
      </trkpt>
      <trkpt lat="44.65752" lon="5.71137">
        <ele>1029.5</ele>
        <time>2015-06-30T06:24:14Z</time>
      </trkpt>
      <trkpt lat="44.6575" lon="5.71132">
        <ele>1032.6</ele>
        <time>2015-06-30T06:24:19Z</time>
      </trkpt>
      <trkpt lat="44.65749" lon="5.71127">
        <ele>1033.8</ele>
        <time>2015-06-30T06:24:24Z</time>
      </trkpt>
      <trkpt lat="44.65748" lon="5.71136">
        <ele>1049.5</ele>
        <time>2015-06-30T06:24:31Z</time>
      </trkpt>
      <trkpt lat="44.65752" lon="5.71145">
        <ele>1047.2</ele>
        <time>2015-06-30T06:24:36Z</time>
      </trkpt>
      <trkpt lat="44.65754" lon="5.71148">
        <ele>1045.1</ele>
        <time>2015-06-30T06:24:41Z</time>
      </trkpt>
      <trkpt lat="44.65758" lon="5.71152">
        <ele>1030.3</ele>
        <time>2015-06-30T06:24:46Z</time>
      </trkpt>
      <trkpt lat="44.65758" lon="5.71151">
        <ele>1022.7</ele>
        <time>2015-06-30T06:24:51Z</time>
      </trkpt>
      <trkpt lat="44.65759" lon="5.71149">
        <ele>1016.2</ele>
        <time>2015-06-30T06:24:56Z</time>
      </trkpt>
      <trkpt lat="44.65759" lon="5.7115">
        <ele>1017.1</ele>
        <time>2015-06-30T06:25:01Z</time>
      </trkpt>
      <trkpt lat="44.6576" lon="5.71151">
        <ele>1020.9</ele>
        <time>2015-06-30T06:25:06Z</time>
      </trkpt>
      <trkpt lat="44.65759" lon="5.71148">
        <ele>1019.9</ele>
        <time>2015-06-30T06:25:11Z</time>
      </trkpt>
      <trkpt lat="44.65758" lon="5.7115">
        <ele>1016.1</ele>
        <time>2015-06-30T06:25:16Z</time>
      </trkpt>
      <trkpt lat="44.65761" lon="5.71147">
        <ele>1014.4</ele>
        <time>2015-06-30T06:25:21Z</time>
      </trkpt>
      <trkpt lat="44.65762" lon="5.71144">
        <ele>1015.3</ele>
        <time>2015-06-30T06:25:26Z</time>
      </trkpt>
      <trkpt lat="44.65763" lon="5.71145">
        <ele>1017.7</ele>
        <time>2015-06-30T06:25:31Z</time>
      </trkpt>
      <trkpt lat="44.6576" lon="5.71146">
        <ele>1018</ele>
        <time>2015-06-30T06:25:36Z</time>
      </trkpt>
      <trkpt lat="44.65762" lon="5.71146">
        <ele>1014.7</ele>
        <time>2015-06-30T06:25:43Z</time>
      </trkpt>
      <trkpt lat="44.65762" lon="5.71145">
        <ele>1014.7</ele>
        <time>2015-06-30T06:25:48Z</time>
      </trkpt>
      <trkpt lat="44.65761" lon="5.71146">
        <ele>1017.9</ele>
        <time>2015-06-30T06:25:53Z</time>
      </trkpt>
      <trkpt lat="44.65757" lon="5.71146">
        <ele>1022.1</ele>
        <time>2015-06-30T06:25:58Z</time>
      </trkpt>
      <trkpt lat="44.65756" lon="5.71148">
        <ele>1028.5</ele>
        <time>2015-06-30T06:26:03Z</time>
      </trkpt>
      <trkpt lat="44.65756" lon="5.71147">
        <ele>1029.3</ele>
        <time>2015-06-30T06:26:08Z</time>
      </trkpt>
      <trkpt lat="44.65757" lon="5.71147">
        <ele>1026.9</ele>
        <time>2015-06-30T06:26:13Z</time>
      </trkpt>
      <trkpt lat="44.65758" lon="5.71146">
        <ele>1020.2</ele>
        <time>2015-06-30T06:26:18Z</time>
      </trkpt>
      <trkpt lat="44.65759" lon="5.71144">
        <ele>1016.1</ele>
        <time>2015-06-30T06:26:23Z</time>
      </trkpt>
      <trkpt lat="44.65761" lon="5.71145">
        <ele>1018.4</ele>
        <time>2015-06-30T06:26:28Z</time>
      </trkpt>
      <trkpt lat="44.65762" lon="5.71146">
        <ele>1015.1</ele>
        <time>2015-06-30T06:26:33Z</time>
      </trkpt>
      <trkpt lat="44.65764" lon="5.71146">
        <ele>1012.3</ele>
        <time>2015-06-30T06:26:38Z</time>
      </trkpt>
      <trkpt lat="44.65764" lon="5.71145">
        <ele>1010.1</ele>
        <time>2015-06-30T06:26:43Z</time>
      </trkpt>
      <trkpt lat="44.65762" lon="5.71146">
        <ele>1018.6</ele>
        <time>2015-06-30T06:26:48Z</time>
      </trkpt>
      <trkpt lat="44.65759" lon="5.71147">
        <ele>1018.1</ele>
        <time>2015-06-30T06:26:53Z</time>
      </trkpt>
      <trkpt lat="44.65759" lon="5.71147">
        <ele>1015.6</ele>
        <time>2015-06-30T06:26:58Z</time>
      </trkpt>
      <trkpt lat="44.65759" lon="5.71147">
        <ele>1019.1</ele>
        <time>2015-06-30T06:27:03Z</time>
      </trkpt>
      <trkpt lat="44.65759" lon="5.71148">
        <ele>1026.6</ele>
        <time>2015-06-30T06:27:08Z</time>
      </trkpt>
      <trkpt lat="44.65759" lon="5.71149">
        <ele>1024.2</ele>
        <time>2015-06-30T06:27:13Z</time>
      </trkpt>
      <trkpt lat="44.65758" lon="5.71147">
        <ele>1025.9</ele>
        <time>2015-06-30T06:27:18Z</time>
      </trkpt>
      <trkpt lat="44.65756" lon="5.71147">
        <ele>1025.7</ele>
        <time>2015-06-30T06:27:23Z</time>
      </trkpt>
      <trkpt lat="44.65756" lon="5.71149">
        <ele>1027.9</ele>
        <time>2015-06-30T06:27:28Z</time>
      </trkpt>
      <trkpt lat="44.65756" lon="5.71144">
        <ele>1026.6</ele>
        <time>2015-06-30T06:27:33Z</time>
      </trkpt>
      <trkpt lat="44.65758" lon="5.71145">
        <ele>1031.1</ele>
        <time>2015-06-30T06:27:38Z</time>
      </trkpt>
      <trkpt lat="44.65759" lon="5.71145">
        <ele>1031.4</ele>
        <time>2015-06-30T06:27:43Z</time>
      </trkpt>
      <trkpt lat="44.65762" lon="5.71143">
        <ele>1026.6</ele>
        <time>2015-06-30T06:27:48Z</time>
      </trkpt>
      <trkpt lat="44.65764" lon="5.71142">
        <ele>1013</ele>
        <time>2015-06-30T06:27:53Z</time>
      </trkpt>
      <trkpt lat="44.65762" lon="5.7114">
        <ele>1015.5</ele>
        <time>2015-06-30T06:27:58Z</time>
      </trkpt>
      <trkpt lat="44.65764" lon="5.71136">
        <ele>1012.7</ele>
        <time>2015-06-30T06:28:03Z</time>
      </trkpt>
      <trkpt lat="44.65765" lon="5.71137">
        <ele>1012.8</ele>
        <time>2015-06-30T06:28:08Z</time>
      </trkpt>
      <trkpt lat="44.65765" lon="5.71138">
        <ele>1015.8</ele>
        <time>2015-06-30T06:28:13Z</time>
      </trkpt>
      <trkpt lat="44.65765" lon="5.71138">
        <ele>1013.6</ele>
        <time>2015-06-30T06:28:18Z</time>
      </trkpt>
      <trkpt lat="44.65763" lon="5.7114">
        <ele>1016</ele>
        <time>2015-06-30T06:28:23Z</time>
      </trkpt>
      <trkpt lat="44.65762" lon="5.71141">
        <ele>1019</ele>
        <time>2015-06-30T06:28:28Z</time>
      </trkpt>
      <trkpt lat="44.65757" lon="5.71144">
        <ele>1026.4</ele>
        <time>2015-06-30T06:28:33Z</time>
      </trkpt>
      <trkpt lat="44.65754" lon="5.7115">
        <ele>1031.2</ele>
        <time>2015-06-30T06:28:38Z</time>
      </trkpt>
      <trkpt lat="44.65753" lon="5.71152">
        <ele>1031.9</ele>
        <time>2015-06-30T06:28:43Z</time>
      </trkpt>
      <trkpt lat="44.65752" lon="5.71152">
        <ele>1028.9</ele>
        <time>2015-06-30T06:28:48Z</time>
      </trkpt>
      <trkpt lat="44.65752" lon="5.71151">
        <ele>1030.3</ele>
        <time>2015-06-30T06:28:53Z</time>
      </trkpt>
      <trkpt lat="44.65754" lon="5.71149">
        <ele>1024.1</ele>
        <time>2015-06-30T06:28:58Z</time>
      </trkpt>
      <trkpt lat="44.65755" lon="5.71149">
        <ele>1017.5</ele>
        <time>2015-06-30T06:29:03Z</time>
      </trkpt>
      <trkpt lat="44.65756" lon="5.7115">
        <ele>1014.4</ele>
        <time>2015-06-30T06:29:08Z</time>
      </trkpt>
      <trkpt lat="44.65754" lon="5.71153">
        <ele>1019</ele>
        <time>2015-06-30T06:29:13Z</time>
      </trkpt>
      <trkpt lat="44.65756" lon="5.71153">
        <ele>1016.9</ele>
        <time>2015-06-30T06:29:18Z</time>
      </trkpt>
      <trkpt lat="44.65756" lon="5.71154">
        <ele>1013.9</ele>
        <time>2015-06-30T06:29:23Z</time>
      </trkpt>
      <trkpt lat="44.65757" lon="5.71151">
        <ele>1011.1</ele>
        <time>2015-06-30T06:29:28Z</time>
      </trkpt>
      <trkpt lat="44.65759" lon="5.71148">
        <ele>1009.5</ele>
        <time>2015-06-30T06:29:33Z</time>
      </trkpt>
      <trkpt lat="44.65761" lon="5.71145">
        <ele>1008.6</ele>
        <time>2015-06-30T06:29:38Z</time>
      </trkpt>
      <trkpt lat="44.65761" lon="5.71145">
        <ele>1010.5</ele>
        <time>2015-06-30T06:29:43Z</time>
      </trkpt>
      <trkpt lat="44.65762" lon="5.71147">
        <ele>1013.3</ele>
        <time>2015-06-30T06:29:48Z</time>
      </trkpt>
      <trkpt lat="44.65762" lon="5.71146">
        <ele>1014.7</ele>
        <time>2015-06-30T06:29:53Z</time>
      </trkpt>
      <trkpt lat="44.65762" lon="5.71147">
        <ele>1017.4</ele>
        <time>2015-06-30T06:29:58Z</time>
      </trkpt>
      <trkpt lat="44.6576" lon="5.71148">
        <ele>1018.4</ele>
        <time>2015-06-30T06:30:03Z</time>
      </trkpt>
      <trkpt lat="44.6576" lon="5.71146">
        <ele>1019.4</ele>
        <time>2015-06-30T06:30:08Z</time>
      </trkpt>
      <trkpt lat="44.65759" lon="5.71146">
        <ele>1020.2</ele>
        <time>2015-06-30T06:30:13Z</time>
      </trkpt>
      <trkpt lat="44.65761" lon="5.71146">
        <ele>1021.2</ele>
        <time>2015-06-30T06:30:18Z</time>
      </trkpt>
      <trkpt lat="44.65763" lon="5.71146">
        <ele>1027</ele>
        <time>2015-06-30T06:30:23Z</time>
      </trkpt>
      <trkpt lat="44.65769" lon="5.71148">
        <ele>1024.7</ele>
        <time>2015-06-30T06:30:28Z</time>
      </trkpt>
      <trkpt lat="44.65773" lon="5.71151">
        <ele>1023.3</ele>
        <time>2015-06-30T06:30:33Z</time>
      </trkpt>
      <trkpt lat="44.65775" lon="5.71151">
        <ele>1021.4</ele>
        <time>2015-06-30T06:30:38Z</time>
      </trkpt>
      <trkpt lat="44.65775" lon="5.7115">
        <ele>1019.5</ele>
        <time>2015-06-30T06:30:43Z</time>
      </trkpt>
      <trkpt lat="44.65776" lon="5.71145">
        <ele>1015.4</ele>
        <time>2015-06-30T06:30:48Z</time>
      </trkpt>
      <trkpt lat="44.65775" lon="5.71144">
        <ele>1013.1</ele>
        <time>2015-06-30T06:30:53Z</time>
      </trkpt>
      <trkpt lat="44.65776" lon="5.71146">
        <ele>1008.9</ele>
        <time>2015-06-30T06:30:58Z</time>
      </trkpt>
      <trkpt lat="44.65778" lon="5.71149">
        <ele>1010.7</ele>
        <time>2015-06-30T06:31:03Z</time>
      </trkpt>
      <trkpt lat="44.65782" lon="5.71159">
        <ele>1013.3</ele>
        <time>2015-06-30T06:31:08Z</time>
      </trkpt>
      <trkpt lat="44.65786" lon="5.71167">
        <ele>1016.4</ele>
        <time>2015-06-30T06:31:13Z</time>
      </trkpt>
      <trkpt lat="44.65791" lon="5.71173">
        <ele>1017.9</ele>
        <time>2015-06-30T06:31:18Z</time>
      </trkpt>
      <trkpt lat="44.65795" lon="5.71181">
        <ele>1020.8</ele>
        <time>2015-06-30T06:31:23Z</time>
      </trkpt>
      <trkpt lat="44.65799" lon="5.71188">
        <ele>1023</ele>
        <time>2015-06-30T06:31:28Z</time>
      </trkpt>
      <trkpt lat="44.65805" lon="5.7119">
        <ele>1023.4</ele>
        <time>2015-06-30T06:31:33Z</time>
      </trkpt>
      <trkpt lat="44.6581" lon="5.71192">
        <ele>1024.4</ele>
        <time>2015-06-30T06:31:38Z</time>
      </trkpt>
      <trkpt lat="44.65817" lon="5.71192">
        <ele>1024.8</ele>
        <time>2015-06-30T06:31:43Z</time>
      </trkpt>
      <trkpt lat="44.65823" lon="5.71192">
        <ele>1024.9</ele>
        <time>2015-06-30T06:31:48Z</time>
      </trkpt>
      <trkpt lat="44.65831" lon="5.7119">
        <ele>1024.3</ele>
        <time>2015-06-30T06:31:53Z</time>
      </trkpt>
      <trkpt lat="44.65836" lon="5.7119">
        <ele>1025.1</ele>
        <time>2015-06-30T06:31:58Z</time>
      </trkpt>
      <trkpt lat="44.65844" lon="5.71188">
        <ele>1024</ele>
        <time>2015-06-30T06:32:03Z</time>
      </trkpt>
      <trkpt lat="44.6585" lon="5.71184">
        <ele>1023.6</ele>
        <time>2015-06-30T06:32:08Z</time>
      </trkpt>
      <trkpt lat="44.65857" lon="5.71182">
        <ele>1023.2</ele>
        <time>2015-06-30T06:32:13Z</time>
      </trkpt>
      <trkpt lat="44.65863" lon="5.71179">
        <ele>1023.2</ele>
        <time>2015-06-30T06:32:18Z</time>
      </trkpt>
      <trkpt lat="44.65869" lon="5.71177">
        <ele>1023.8</ele>
        <time>2015-06-30T06:32:23Z</time>
      </trkpt>
      <trkpt lat="44.65875" lon="5.71174">
        <ele>1024.1</ele>
        <time>2015-06-30T06:32:28Z</time>
      </trkpt>
      <trkpt lat="44.6588" lon="5.71171">
        <ele>1024.3</ele>
        <time>2015-06-30T06:32:33Z</time>
      </trkpt>
      <trkpt lat="44.65886" lon="5.71168">
        <ele>1024.8</ele>
        <time>2015-06-30T06:32:38Z</time>
      </trkpt>
      <trkpt lat="44.65889" lon="5.71165">
        <ele>1025.3</ele>
        <time>2015-06-30T06:32:43Z</time>
      </trkpt>
      <trkpt lat="44.65891" lon="5.71163">
        <ele>1025.2</ele>
        <time>2015-06-30T06:32:48Z</time>
      </trkpt>
      <trkpt lat="44.65894" lon="5.71162">
        <ele>1025</ele>
        <time>2015-06-30T06:32:53Z</time>
      </trkpt>
      <trkpt lat="44.65896" lon="5.7116">
        <ele>1025.1</ele>
        <time>2015-06-30T06:32:58Z</time>
      </trkpt>
      <trkpt lat="44.65901" lon="5.71156">
        <ele>1025.1</ele>
        <time>2015-06-30T06:33:03Z</time>
      </trkpt>
      <trkpt lat="44.65907" lon="5.71154">
        <ele>1024.5</ele>
        <time>2015-06-30T06:33:08Z</time>
      </trkpt>
      <trkpt lat="44.65913" lon="5.71151">
        <ele>1024.7</ele>
        <time>2015-06-30T06:33:13Z</time>
      </trkpt>
      <trkpt lat="44.65919" lon="5.71147">
        <ele>1025.1</ele>
        <time>2015-06-30T06:33:18Z</time>
      </trkpt>
      <trkpt lat="44.65925" lon="5.71144">
        <ele>1025.4</ele>
        <time>2015-06-30T06:33:23Z</time>
      </trkpt>
      <trkpt lat="44.65932" lon="5.71141">
        <ele>1025.7</ele>
        <time>2015-06-30T06:33:28Z</time>
      </trkpt>
      <trkpt lat="44.65938" lon="5.71138">
        <ele>1026.1</ele>
        <time>2015-06-30T06:33:33Z</time>
      </trkpt>
      <trkpt lat="44.65944" lon="5.71135">
        <ele>1026.8</ele>
        <time>2015-06-30T06:33:38Z</time>
      </trkpt>
      <trkpt lat="44.6595" lon="5.71131">
        <ele>1027</ele>
        <time>2015-06-30T06:33:43Z</time>
      </trkpt>
      <trkpt lat="44.65955" lon="5.71127">
        <ele>1027.3</ele>
        <time>2015-06-30T06:33:48Z</time>
      </trkpt>
      <trkpt lat="44.65961" lon="5.71123">
        <ele>1027.3</ele>
        <time>2015-06-30T06:33:53Z</time>
      </trkpt>
      <trkpt lat="44.65966" lon="5.7112">
        <ele>1027.4</ele>
        <time>2015-06-30T06:33:58Z</time>
      </trkpt>
      <trkpt lat="44.65971" lon="5.71117">
        <ele>1027.5</ele>
        <time>2015-06-30T06:34:03Z</time>
      </trkpt>
      <trkpt lat="44.65977" lon="5.71113">
        <ele>1027.1</ele>
        <time>2015-06-30T06:34:08Z</time>
      </trkpt>
      <trkpt lat="44.65982" lon="5.71109">
        <ele>1026.9</ele>
        <time>2015-06-30T06:34:13Z</time>
      </trkpt>
      <trkpt lat="44.65988" lon="5.71106">
        <ele>1027</ele>
        <time>2015-06-30T06:34:18Z</time>
      </trkpt>
      <trkpt lat="44.65994" lon="5.71103">
        <ele>1027</ele>
        <time>2015-06-30T06:34:23Z</time>
      </trkpt>
      <trkpt lat="44.65999" lon="5.71099">
        <ele>1027</ele>
        <time>2015-06-30T06:34:28Z</time>
      </trkpt>
      <trkpt lat="44.66005" lon="5.71095">
        <ele>1027.4</ele>
        <time>2015-06-30T06:34:33Z</time>
      </trkpt>
      <trkpt lat="44.6601" lon="5.71092">
        <ele>1027.8</ele>
        <time>2015-06-30T06:34:38Z</time>
      </trkpt>
      <trkpt lat="44.66016" lon="5.71089">
        <ele>1027.8</ele>
        <time>2015-06-30T06:34:43Z</time>
      </trkpt>
      <trkpt lat="44.66023" lon="5.71087">
        <ele>1028.2</ele>
        <time>2015-06-30T06:34:48Z</time>
      </trkpt>
      <trkpt lat="44.66029" lon="5.71085">
        <ele>1028</ele>
        <time>2015-06-30T06:34:53Z</time>
      </trkpt>
      <trkpt lat="44.66035" lon="5.71083">
        <ele>1028</ele>
        <time>2015-06-30T06:34:58Z</time>
      </trkpt>
      <trkpt lat="44.66041" lon="5.71082">
        <ele>1028.1</ele>
        <time>2015-06-30T06:35:03Z</time>
      </trkpt>
      <trkpt lat="44.66047" lon="5.7108">
        <ele>1028.3</ele>
        <time>2015-06-30T06:35:08Z</time>
      </trkpt>
      <trkpt lat="44.66053" lon="5.7108">
        <ele>1028.4</ele>
        <time>2015-06-30T06:35:13Z</time>
      </trkpt>
      <trkpt lat="44.6606" lon="5.7108">
        <ele>1028.8</ele>
        <time>2015-06-30T06:35:18Z</time>
      </trkpt>
      <trkpt lat="44.66066" lon="5.71081">
        <ele>1029.1</ele>
        <time>2015-06-30T06:35:23Z</time>
      </trkpt>
      <trkpt lat="44.66072" lon="5.71081">
        <ele>1028.9</ele>
        <time>2015-06-30T06:35:28Z</time>
      </trkpt>
      <trkpt lat="44.66079" lon="5.71082">
        <ele>1028.6</ele>
        <time>2015-06-30T06:35:33Z</time>
      </trkpt>
      <trkpt lat="44.66085" lon="5.71081">
        <ele>1028.9</ele>
        <time>2015-06-30T06:35:38Z</time>
      </trkpt>
      <trkpt lat="44.66091" lon="5.71079">
        <ele>1029.2</ele>
        <time>2015-06-30T06:35:43Z</time>
      </trkpt>
      <trkpt lat="44.66097" lon="5.71079">
        <ele>1029.2</ele>
        <time>2015-06-30T06:35:48Z</time>
      </trkpt>
      <trkpt lat="44.66103" lon="5.71078">
        <ele>1029.5</ele>
        <time>2015-06-30T06:35:53Z</time>
      </trkpt>
      <trkpt lat="44.6611" lon="5.71077">
        <ele>1029.9</ele>
        <time>2015-06-30T06:35:58Z</time>
      </trkpt>
      <trkpt lat="44.66115" lon="5.71075">
        <ele>1030.3</ele>
        <time>2015-06-30T06:36:03Z</time>
      </trkpt>
      <trkpt lat="44.66122" lon="5.71073">
        <ele>1030.4</ele>
        <time>2015-06-30T06:36:08Z</time>
      </trkpt>
      <trkpt lat="44.66127" lon="5.71071">
        <ele>1030.5</ele>
        <time>2015-06-30T06:36:13Z</time>
      </trkpt>
      <trkpt lat="44.66134" lon="5.71068">
        <ele>1030.6</ele>
        <time>2015-06-30T06:36:18Z</time>
      </trkpt>
      <trkpt lat="44.6614" lon="5.71066">
        <ele>1030.8</ele>
        <time>2015-06-30T06:36:23Z</time>
      </trkpt>
      <trkpt lat="44.66146" lon="5.71064">
        <ele>1030.5</ele>
        <time>2015-06-30T06:36:28Z</time>
      </trkpt>
      <trkpt lat="44.66152" lon="5.71061">
        <ele>1030.3</ele>
        <time>2015-06-30T06:36:33Z</time>
      </trkpt>
      <trkpt lat="44.66158" lon="5.71058">
        <ele>1030.3</ele>
        <time>2015-06-30T06:36:38Z</time>
      </trkpt>
      <trkpt lat="44.66164" lon="5.71057">
        <ele>1029.9</ele>
        <time>2015-06-30T06:36:43Z</time>
      </trkpt>
      <trkpt lat="44.66171" lon="5.71055">
        <ele>1029.5</ele>
        <time>2015-06-30T06:36:48Z</time>
      </trkpt>
      <trkpt lat="44.66177" lon="5.71055">
        <ele>1029.1</ele>
        <time>2015-06-30T06:36:53Z</time>
      </trkpt>
      <trkpt lat="44.66184" lon="5.71053">
        <ele>1028.8</ele>
        <time>2015-06-30T06:36:58Z</time>
      </trkpt>
      <trkpt lat="44.66189" lon="5.71051">
        <ele>1029</ele>
        <time>2015-06-30T06:37:03Z</time>
      </trkpt>
      <trkpt lat="44.66195" lon="5.7105">
        <ele>1028.9</ele>
        <time>2015-06-30T06:37:08Z</time>
      </trkpt>
      <trkpt lat="44.66201" lon="5.7105">
        <ele>1028.6</ele>
        <time>2015-06-30T06:37:13Z</time>
      </trkpt>
      <trkpt lat="44.66207" lon="5.7105">
        <ele>1027.7</ele>
        <time>2015-06-30T06:37:18Z</time>
      </trkpt>
      <trkpt lat="44.66213" lon="5.71049">
        <ele>1027.3</ele>
        <time>2015-06-30T06:37:23Z</time>
      </trkpt>
      <trkpt lat="44.66219" lon="5.71048">
        <ele>1027.1</ele>
        <time>2015-06-30T06:37:28Z</time>
      </trkpt>
      <trkpt lat="44.66225" lon="5.71047">
        <ele>1027.3</ele>
        <time>2015-06-30T06:37:33Z</time>
      </trkpt>
      <trkpt lat="44.66232" lon="5.71045">
        <ele>1027.3</ele>
        <time>2015-06-30T06:37:38Z</time>
      </trkpt>
      <trkpt lat="44.66237" lon="5.71042">
        <ele>1027.2</ele>
        <time>2015-06-30T06:37:43Z</time>
      </trkpt>
      <trkpt lat="44.66243" lon="5.7104">
        <ele>1027.4</ele>
        <time>2015-06-30T06:37:48Z</time>
      </trkpt>
      <trkpt lat="44.6625" lon="5.71038">
        <ele>1027.3</ele>
        <time>2015-06-30T06:37:53Z</time>
      </trkpt>
      <trkpt lat="44.66255" lon="5.71038">
        <ele>1027.5</ele>
        <time>2015-06-30T06:37:58Z</time>
      </trkpt>
      <trkpt lat="44.66262" lon="5.71038">
        <ele>1027.6</ele>
        <time>2015-06-30T06:38:03Z</time>
      </trkpt>
      <trkpt lat="44.66267" lon="5.71042">
        <ele>1027.7</ele>
        <time>2015-06-30T06:38:08Z</time>
      </trkpt>
      <trkpt lat="44.66267" lon="5.71051">
        <ele>1027.7</ele>
        <time>2015-06-30T06:38:13Z</time>
      </trkpt>
      <trkpt lat="44.66268" lon="5.71059">
        <ele>1027.1</ele>
        <time>2015-06-30T06:38:18Z</time>
      </trkpt>
      <trkpt lat="44.66268" lon="5.71068">
        <ele>1026.7</ele>
        <time>2015-06-30T06:38:23Z</time>
      </trkpt>
      <trkpt lat="44.66267" lon="5.71077">
        <ele>1026.3</ele>
        <time>2015-06-30T06:38:28Z</time>
      </trkpt>
      <trkpt lat="44.66267" lon="5.71086">
        <ele>1026.5</ele>
        <time>2015-06-30T06:38:33Z</time>
      </trkpt>
      <trkpt lat="44.66266" lon="5.71095">
        <ele>1026.2</ele>
        <time>2015-06-30T06:38:38Z</time>
      </trkpt>
      <trkpt lat="44.66265" lon="5.71104">
        <ele>1026.1</ele>
        <time>2015-06-30T06:38:43Z</time>
      </trkpt>
      <trkpt lat="44.66263" lon="5.71113">
        <ele>1026</ele>
        <time>2015-06-30T06:38:48Z</time>
      </trkpt>
      <trkpt lat="44.66261" lon="5.71121">
        <ele>1026.1</ele>
        <time>2015-06-30T06:38:53Z</time>
      </trkpt>
      <trkpt lat="44.66259" lon="5.7113">
        <ele>1026.2</ele>
        <time>2015-06-30T06:38:58Z</time>
      </trkpt>
      <trkpt lat="44.66257" lon="5.71139">
        <ele>1026.3</ele>
        <time>2015-06-30T06:39:03Z</time>
      </trkpt>
      <trkpt lat="44.66254" lon="5.71147">
        <ele>1026.4</ele>
        <time>2015-06-30T06:39:08Z</time>
      </trkpt>
      <trkpt lat="44.66251" lon="5.71155">
        <ele>1027.2</ele>
        <time>2015-06-30T06:39:13Z</time>
      </trkpt>
      <trkpt lat="44.66249" lon="5.71163">
        <ele>1027.6</ele>
        <time>2015-06-30T06:39:18Z</time>
      </trkpt>
      <trkpt lat="44.66246" lon="5.71171">
        <ele>1028</ele>
        <time>2015-06-30T06:39:23Z</time>
      </trkpt>
      <trkpt lat="44.66243" lon="5.71179">
        <ele>1028.1</ele>
        <time>2015-06-30T06:39:28Z</time>
      </trkpt>
      <trkpt lat="44.66241" lon="5.71187">
        <ele>1027.6</ele>
        <time>2015-06-30T06:39:33Z</time>
      </trkpt>
      <trkpt lat="44.66238" lon="5.71195">
        <ele>1027.4</ele>
        <time>2015-06-30T06:39:38Z</time>
      </trkpt>
      <trkpt lat="44.66235" lon="5.71203">
        <ele>1027.4</ele>
        <time>2015-06-30T06:39:43Z</time>
      </trkpt>
      <trkpt lat="44.66232" lon="5.71212">
        <ele>1027.3</ele>
        <time>2015-06-30T06:39:48Z</time>
      </trkpt>
      <trkpt lat="44.6623" lon="5.7122">
        <ele>1027.2</ele>
        <time>2015-06-30T06:39:53Z</time>
      </trkpt>
      <trkpt lat="44.66227" lon="5.71228">
        <ele>1027.4</ele>
        <time>2015-06-30T06:39:58Z</time>
      </trkpt>
      <trkpt lat="44.66224" lon="5.71237">
        <ele>1027.6</ele>
        <time>2015-06-30T06:40:03Z</time>
      </trkpt>
      <trkpt lat="44.66221" lon="5.71245">
        <ele>1027.8</ele>
        <time>2015-06-30T06:40:08Z</time>
      </trkpt>
      <trkpt lat="44.66219" lon="5.71253">
        <ele>1028</ele>
        <time>2015-06-30T06:40:13Z</time>
      </trkpt>
      <trkpt lat="44.66216" lon="5.71262">
        <ele>1028</ele>
        <time>2015-06-30T06:40:18Z</time>
      </trkpt>
      <trkpt lat="44.66213" lon="5.7127">
        <ele>1028.1</ele>
        <time>2015-06-30T06:40:23Z</time>
      </trkpt>
      <trkpt lat="44.66211" lon="5.71278">
        <ele>1028.2</ele>
        <time>2015-06-30T06:40:28Z</time>
      </trkpt>
      <trkpt lat="44.66208" lon="5.71287">
        <ele>1028.4</ele>
        <time>2015-06-30T06:40:33Z</time>
      </trkpt>
      <trkpt lat="44.66205" lon="5.71295">
        <ele>1028.7</ele>
        <time>2015-06-30T06:40:38Z</time>
      </trkpt>
      <trkpt lat="44.66202" lon="5.71303">
        <ele>1028.8</ele>
        <time>2015-06-30T06:40:43Z</time>
      </trkpt>
      <trkpt lat="44.662" lon="5.71311">
        <ele>1028.7</ele>
        <time>2015-06-30T06:40:48Z</time>
      </trkpt>
      <trkpt lat="44.66198" lon="5.7132">
        <ele>1028.6</ele>
        <time>2015-06-30T06:40:53Z</time>
      </trkpt>
      <trkpt lat="44.66196" lon="5.71329">
        <ele>1028.8</ele>
        <time>2015-06-30T06:40:58Z</time>
      </trkpt>
      <trkpt lat="44.66193" lon="5.71337">
        <ele>1028.9</ele>
        <time>2015-06-30T06:41:03Z</time>
      </trkpt>
      <trkpt lat="44.66191" lon="5.71346">
        <ele>1029.1</ele>
        <time>2015-06-30T06:41:08Z</time>
      </trkpt>
      <trkpt lat="44.66189" lon="5.71356">
        <ele>1029.3</ele>
        <time>2015-06-30T06:41:13Z</time>
      </trkpt>
      <trkpt lat="44.66186" lon="5.71364">
        <ele>1029.4</ele>
        <time>2015-06-30T06:41:18Z</time>
      </trkpt>
      <trkpt lat="44.66184" lon="5.71373">
        <ele>1029.5</ele>
        <time>2015-06-30T06:41:23Z</time>
      </trkpt>
      <trkpt lat="44.66182" lon="5.71381">
        <ele>1029.9</ele>
        <time>2015-06-30T06:41:28Z</time>
      </trkpt>
      <trkpt lat="44.66179" lon="5.7139">
        <ele>1029.9</ele>
        <time>2015-06-30T06:41:33Z</time>
      </trkpt>
      <trkpt lat="44.66176" lon="5.71398">
        <ele>1029.6</ele>
        <time>2015-06-30T06:41:38Z</time>
      </trkpt>
      <trkpt lat="44.66173" lon="5.71406">
        <ele>1029.3</ele>
        <time>2015-06-30T06:41:43Z</time>
      </trkpt>
      <trkpt lat="44.6617" lon="5.71414">
        <ele>1029.2</ele>
        <time>2015-06-30T06:41:48Z</time>
      </trkpt>
      <trkpt lat="44.66166" lon="5.71422">
        <ele>1029.3</ele>
        <time>2015-06-30T06:41:53Z</time>
      </trkpt>
      <trkpt lat="44.66161" lon="5.71428">
        <ele>1030.1</ele>
        <time>2015-06-30T06:41:58Z</time>
      </trkpt>
      <trkpt lat="44.66155" lon="5.71435">
        <ele>1030.2</ele>
        <time>2015-06-30T06:42:03Z</time>
      </trkpt>
      <trkpt lat="44.6615" lon="5.7144">
        <ele>1030.9</ele>
        <time>2015-06-30T06:42:08Z</time>
      </trkpt>
      <trkpt lat="44.66145" lon="5.71446">
        <ele>1031.4</ele>
        <time>2015-06-30T06:42:13Z</time>
      </trkpt>
      <trkpt lat="44.66139" lon="5.7145">
        <ele>1032</ele>
        <time>2015-06-30T06:42:18Z</time>
      </trkpt>
      <trkpt lat="44.66133" lon="5.71455">
        <ele>1032.4</ele>
        <time>2015-06-30T06:42:23Z</time>
      </trkpt>
      <trkpt lat="44.66127" lon="5.7146">
        <ele>1032.8</ele>
        <time>2015-06-30T06:42:28Z</time>
      </trkpt>
      <trkpt lat="44.66121" lon="5.71465">
        <ele>1033.1</ele>
        <time>2015-06-30T06:42:33Z</time>
      </trkpt>
      <trkpt lat="44.66115" lon="5.7147">
        <ele>1033.5</ele>
        <time>2015-06-30T06:42:38Z</time>
      </trkpt>
      <trkpt lat="44.6611" lon="5.71475">
        <ele>1033.5</ele>
        <time>2015-06-30T06:42:43Z</time>
      </trkpt>
      <trkpt lat="44.66104" lon="5.71479">
        <ele>1032.9</ele>
        <time>2015-06-30T06:42:48Z</time>
      </trkpt>
      <trkpt lat="44.66098" lon="5.71483">
        <ele>1032.9</ele>
        <time>2015-06-30T06:42:53Z</time>
      </trkpt>
      <trkpt lat="44.66092" lon="5.71488">
        <ele>1032.9</ele>
        <time>2015-06-30T06:42:58Z</time>
      </trkpt>
      <trkpt lat="44.66086" lon="5.71493">
        <ele>1033.2</ele>
        <time>2015-06-30T06:43:03Z</time>
      </trkpt>
      <trkpt lat="44.66079" lon="5.71498">
        <ele>1033.4</ele>
        <time>2015-06-30T06:43:08Z</time>
      </trkpt>
      <trkpt lat="44.66073" lon="5.71504">
        <ele>1033.7</ele>
        <time>2015-06-30T06:43:13Z</time>
      </trkpt>
      <trkpt lat="44.66068" lon="5.7151">
        <ele>1034.2</ele>
        <time>2015-06-30T06:43:18Z</time>
      </trkpt>
      <trkpt lat="44.66064" lon="5.71517">
        <ele>1034.9</ele>
        <time>2015-06-30T06:43:23Z</time>
      </trkpt>
      <trkpt lat="44.66061" lon="5.71526">
        <ele>1035.6</ele>
        <time>2015-06-30T06:43:28Z</time>
      </trkpt>
      <trkpt lat="44.66059" lon="5.71535">
        <ele>1035.7</ele>
        <time>2015-06-30T06:43:33Z</time>
      </trkpt>
      <trkpt lat="44.66058" lon="5.71544">
        <ele>1035.1</ele>
        <time>2015-06-30T06:43:38Z</time>
      </trkpt>
      <trkpt lat="44.66057" lon="5.71554">
        <ele>1035</ele>
        <time>2015-06-30T06:43:43Z</time>
      </trkpt>
      <trkpt lat="44.66058" lon="5.71564">
        <ele>1034.8</ele>
        <time>2015-06-30T06:43:48Z</time>
      </trkpt>
      <trkpt lat="44.66059" lon="5.71573">
        <ele>1034.6</ele>
        <time>2015-06-30T06:43:53Z</time>
      </trkpt>
      <trkpt lat="44.66061" lon="5.71582">
        <ele>1034.3</ele>
        <time>2015-06-30T06:43:58Z</time>
      </trkpt>
      <trkpt lat="44.66062" lon="5.71591">
        <ele>1034.3</ele>
        <time>2015-06-30T06:44:03Z</time>
      </trkpt>
      <trkpt lat="44.66063" lon="5.716">
        <ele>1034.1</ele>
        <time>2015-06-30T06:44:08Z</time>
      </trkpt>
      <trkpt lat="44.66065" lon="5.71609">
        <ele>1033.3</ele>
        <time>2015-06-30T06:44:13Z</time>
      </trkpt>
      <trkpt lat="44.66066" lon="5.71618">
        <ele>1032.5</ele>
        <time>2015-06-30T06:44:18Z</time>
      </trkpt>
      <trkpt lat="44.66067" lon="5.71627">
        <ele>1032.7</ele>
        <time>2015-06-30T06:44:23Z</time>
      </trkpt>
      <trkpt lat="44.66068" lon="5.71636">
        <ele>1033.2</ele>
        <time>2015-06-30T06:44:28Z</time>
      </trkpt>
      <trkpt lat="44.66069" lon="5.71645">
        <ele>1032.9</ele>
        <time>2015-06-30T06:44:33Z</time>
      </trkpt>
      <trkpt lat="44.66071" lon="5.71654">
        <ele>1032.9</ele>
        <time>2015-06-30T06:44:38Z</time>
      </trkpt>
      <trkpt lat="44.66071" lon="5.71663">
        <ele>1032.7</ele>
        <time>2015-06-30T06:44:43Z</time>
      </trkpt>
      <trkpt lat="44.66072" lon="5.71672">
        <ele>1033.2</ele>
        <time>2015-06-30T06:44:48Z</time>
      </trkpt>
      <trkpt lat="44.66073" lon="5.71681">
        <ele>1032.9</ele>
        <time>2015-06-30T06:44:53Z</time>
      </trkpt>
      <trkpt lat="44.66075" lon="5.7169">
        <ele>1031.9</ele>
        <time>2015-06-30T06:44:58Z</time>
      </trkpt>
      <trkpt lat="44.66076" lon="5.71699">
        <ele>1032.5</ele>
        <time>2015-06-30T06:45:03Z</time>
      </trkpt>
      <trkpt lat="44.66077" lon="5.71708">
        <ele>1032.2</ele>
        <time>2015-06-30T06:45:08Z</time>
      </trkpt>
      <trkpt lat="44.66079" lon="5.71717">
        <ele>1032.1</ele>
        <time>2015-06-30T06:45:13Z</time>
      </trkpt>
      <trkpt lat="44.6608" lon="5.71725">
        <ele>1031.9</ele>
        <time>2015-06-30T06:45:18Z</time>
      </trkpt>
      <trkpt lat="44.66082" lon="5.71733">
        <ele>1031.7</ele>
        <time>2015-06-30T06:45:23Z</time>
      </trkpt>
      <trkpt lat="44.66082" lon="5.71742">
        <ele>1032.7</ele>
        <time>2015-06-30T06:45:28Z</time>
      </trkpt>
      <trkpt lat="44.66083" lon="5.71751">
        <ele>1033.9</ele>
        <time>2015-06-30T06:45:33Z</time>
      </trkpt>
      <trkpt lat="44.66085" lon="5.71761">
        <ele>1034.5</ele>
        <time>2015-06-30T06:45:38Z</time>
      </trkpt>
      <trkpt lat="44.66087" lon="5.71769">
        <ele>1034.2</ele>
        <time>2015-06-30T06:45:43Z</time>
      </trkpt>
      <trkpt lat="44.66088" lon="5.71778">
        <ele>1034.6</ele>
        <time>2015-06-30T06:45:48Z</time>
      </trkpt>
      <trkpt lat="44.66089" lon="5.71786">
        <ele>1034.2</ele>
        <time>2015-06-30T06:45:53Z</time>
      </trkpt>
      <trkpt lat="44.6609" lon="5.71795">
        <ele>1034.1</ele>
        <time>2015-06-30T06:45:58Z</time>
      </trkpt>
      <trkpt lat="44.6609" lon="5.71805">
        <ele>1034.1</ele>
        <time>2015-06-30T06:46:03Z</time>
      </trkpt>
      <trkpt lat="44.6609" lon="5.71814">
        <ele>1034.7</ele>
        <time>2015-06-30T06:46:08Z</time>
      </trkpt>
      <trkpt lat="44.6609" lon="5.71823">
        <ele>1036</ele>
        <time>2015-06-30T06:46:13Z</time>
      </trkpt>
      <trkpt lat="44.66088" lon="5.71833">
        <ele>1037.2</ele>
        <time>2015-06-30T06:46:18Z</time>
      </trkpt>
      <trkpt lat="44.66085" lon="5.71841">
        <ele>1037.5</ele>
        <time>2015-06-30T06:46:23Z</time>
      </trkpt>
      <trkpt lat="44.66082" lon="5.7185">
        <ele>1038</ele>
        <time>2015-06-30T06:46:28Z</time>
      </trkpt>
      <trkpt lat="44.66079" lon="5.71857">
        <ele>1037.9</ele>
        <time>2015-06-30T06:46:33Z</time>
      </trkpt>
      <trkpt lat="44.66075" lon="5.71865">
        <ele>1037.6</ele>
        <time>2015-06-30T06:46:38Z</time>
      </trkpt>
      <trkpt lat="44.66072" lon="5.71873">
        <ele>1037.8</ele>
        <time>2015-06-30T06:46:43Z</time>
      </trkpt>
      <trkpt lat="44.66069" lon="5.71881">
        <ele>1037.5</ele>
        <time>2015-06-30T06:46:48Z</time>
      </trkpt>
      <trkpt lat="44.66066" lon="5.71889">
        <ele>1037.2</ele>
        <time>2015-06-30T06:46:53Z</time>
      </trkpt>
      <trkpt lat="44.66063" lon="5.71897">
        <ele>1037.5</ele>
        <time>2015-06-30T06:46:58Z</time>
      </trkpt>
      <trkpt lat="44.66062" lon="5.71906">
        <ele>1037.2</ele>
        <time>2015-06-30T06:47:03Z</time>
      </trkpt>
      <trkpt lat="44.6606" lon="5.71914">
        <ele>1037.5</ele>
        <time>2015-06-30T06:47:08Z</time>
      </trkpt>
      <trkpt lat="44.66058" lon="5.71923">
        <ele>1036.9</ele>
        <time>2015-06-30T06:47:13Z</time>
      </trkpt>
      <trkpt lat="44.66055" lon="5.71931">
        <ele>1036.9</ele>
        <time>2015-06-30T06:47:18Z</time>
      </trkpt>
      <trkpt lat="44.66053" lon="5.71939">
        <ele>1036.8</ele>
        <time>2015-06-30T06:47:23Z</time>
      </trkpt>
      <trkpt lat="44.66051" lon="5.71947">
        <ele>1036.8</ele>
        <time>2015-06-30T06:47:28Z</time>
      </trkpt>
      <trkpt lat="44.66048" lon="5.71955">
        <ele>1036.7</ele>
        <time>2015-06-30T06:47:33Z</time>
      </trkpt>
      <trkpt lat="44.66045" lon="5.71962">
        <ele>1037</ele>
        <time>2015-06-30T06:47:38Z</time>
      </trkpt>
      <trkpt lat="44.66042" lon="5.7197">
        <ele>1037.4</ele>
        <time>2015-06-30T06:47:43Z</time>
      </trkpt>
      <trkpt lat="44.66039" lon="5.71977">
        <ele>1038</ele>
        <time>2015-06-30T06:47:48Z</time>
      </trkpt>
      <trkpt lat="44.66036" lon="5.71985">
        <ele>1038.7</ele>
        <time>2015-06-30T06:47:53Z</time>
      </trkpt>
      <trkpt lat="44.66033" lon="5.71992">
        <ele>1039.2</ele>
        <time>2015-06-30T06:47:58Z</time>
      </trkpt>
      <trkpt lat="44.66029" lon="5.71998">
        <ele>1041.3</ele>
        <time>2015-06-30T06:48:03Z</time>
      </trkpt>
      <trkpt lat="44.66024" lon="5.72004">
        <ele>1041.6</ele>
        <time>2015-06-30T06:48:08Z</time>
      </trkpt>
      <trkpt lat="44.66019" lon="5.7201">
        <ele>1041.1</ele>
        <time>2015-06-30T06:48:13Z</time>
      </trkpt>
      <trkpt lat="44.66013" lon="5.72016">
        <ele>1040.8</ele>
        <time>2015-06-30T06:48:18Z</time>
      </trkpt>
      <trkpt lat="44.66008" lon="5.7202">
        <ele>1041.8</ele>
        <time>2015-06-30T06:48:23Z</time>
      </trkpt>
      <trkpt lat="44.66004" lon="5.72025">
        <ele>1042.6</ele>
        <time>2015-06-30T06:48:28Z</time>
      </trkpt>
      <trkpt lat="44.65997" lon="5.72029">
        <ele>1043.1</ele>
        <time>2015-06-30T06:48:33Z</time>
      </trkpt>
      <trkpt lat="44.65992" lon="5.72033">
        <ele>1043.6</ele>
        <time>2015-06-30T06:48:38Z</time>
      </trkpt>
      <trkpt lat="44.65986" lon="5.72036">
        <ele>1042.6</ele>
        <time>2015-06-30T06:48:43Z</time>
      </trkpt>
      <trkpt lat="44.6598" lon="5.7204">
        <ele>1042.4</ele>
        <time>2015-06-30T06:48:48Z</time>
      </trkpt>
      <trkpt lat="44.65975" lon="5.72042">
        <ele>1042.9</ele>
        <time>2015-06-30T06:48:53Z</time>
      </trkpt>
      <trkpt lat="44.65971" lon="5.72043">
        <ele>1042.6</ele>
        <time>2015-06-30T06:48:58Z</time>
      </trkpt>
      <trkpt lat="44.6597" lon="5.72044">
        <ele>1042.2</ele>
        <time>2015-06-30T06:49:03Z</time>
      </trkpt>
      <trkpt lat="44.65965" lon="5.72048">
        <ele>1042.6</ele>
        <time>2015-06-30T06:49:08Z</time>
      </trkpt>
      <trkpt lat="44.6596" lon="5.72052">
        <ele>1043.4</ele>
        <time>2015-06-30T06:49:13Z</time>
      </trkpt>
      <trkpt lat="44.65955" lon="5.72056">
        <ele>1043.3</ele>
        <time>2015-06-30T06:49:18Z</time>
      </trkpt>
      <trkpt lat="44.65949" lon="5.7206">
        <ele>1042.7</ele>
        <time>2015-06-30T06:49:23Z</time>
      </trkpt>
      <trkpt lat="44.65944" lon="5.72063">
        <ele>1043.3</ele>
        <time>2015-06-30T06:49:28Z</time>
      </trkpt>
      <trkpt lat="44.65938" lon="5.72066">
        <ele>1043.6</ele>
        <time>2015-06-30T06:49:33Z</time>
      </trkpt>
      <trkpt lat="44.65933" lon="5.7207">
        <ele>1042.6</ele>
        <time>2015-06-30T06:49:38Z</time>
      </trkpt>
      <trkpt lat="44.65928" lon="5.72073">
        <ele>1041.4</ele>
        <time>2015-06-30T06:49:43Z</time>
      </trkpt>
      <trkpt lat="44.65922" lon="5.72077">
        <ele>1040</ele>
        <time>2015-06-30T06:49:48Z</time>
      </trkpt>
      <trkpt lat="44.65917" lon="5.72081">
        <ele>1040.3</ele>
        <time>2015-06-30T06:49:53Z</time>
      </trkpt>
      <trkpt lat="44.65911" lon="5.72086">
        <ele>1041.2</ele>
        <time>2015-06-30T06:49:58Z</time>
      </trkpt>
      <trkpt lat="44.65906" lon="5.7209">
        <ele>1040.7</ele>
        <time>2015-06-30T06:50:03Z</time>
      </trkpt>
      <trkpt lat="44.65901" lon="5.72094">
        <ele>1042.7</ele>
        <time>2015-06-30T06:50:08Z</time>
      </trkpt>
      <trkpt lat="44.65896" lon="5.72099">
        <ele>1042.7</ele>
        <time>2015-06-30T06:50:13Z</time>
      </trkpt>
      <trkpt lat="44.65891" lon="5.72103">
        <ele>1042</ele>
        <time>2015-06-30T06:50:18Z</time>
      </trkpt>
      <trkpt lat="44.65886" lon="5.72108">
        <ele>1040.6</ele>
        <time>2015-06-30T06:50:23Z</time>
      </trkpt>
      <trkpt lat="44.65883" lon="5.72113">
        <ele>1040.4</ele>
        <time>2015-06-30T06:50:28Z</time>
      </trkpt>
      <trkpt lat="44.65878" lon="5.72118">
        <ele>1041</ele>
        <time>2015-06-30T06:50:33Z</time>
      </trkpt>
      <trkpt lat="44.65873" lon="5.72126">
        <ele>1042.7</ele>
        <time>2015-06-30T06:50:38Z</time>
      </trkpt>
      <trkpt lat="44.65868" lon="5.72132">
        <ele>1043.3</ele>
        <time>2015-06-30T06:50:43Z</time>
      </trkpt>
      <trkpt lat="44.65862" lon="5.72136">
        <ele>1044.1</ele>
        <time>2015-06-30T06:50:48Z</time>
      </trkpt>
      <trkpt lat="44.65857" lon="5.7214">
        <ele>1044.7</ele>
        <time>2015-06-30T06:50:53Z</time>
      </trkpt>
      <trkpt lat="44.65852" lon="5.72145">
        <ele>1045</ele>
        <time>2015-06-30T06:50:58Z</time>
      </trkpt>
      <trkpt lat="44.65847" lon="5.72149">
        <ele>1045.9</ele>
        <time>2015-06-30T06:51:03Z</time>
      </trkpt>
      <trkpt lat="44.65843" lon="5.72153">
        <ele>1046.8</ele>
        <time>2015-06-30T06:51:08Z</time>
      </trkpt>
      <trkpt lat="44.65836" lon="5.72157">
        <ele>1048.5</ele>
        <time>2015-06-30T06:51:13Z</time>
      </trkpt>
      <trkpt lat="44.65831" lon="5.72161">
        <ele>1049</ele>
        <time>2015-06-30T06:51:18Z</time>
      </trkpt>
      <trkpt lat="44.65825" lon="5.72165">
        <ele>1049.2</ele>
        <time>2015-06-30T06:51:23Z</time>
      </trkpt>
      <trkpt lat="44.65821" lon="5.72169">
        <ele>1048.9</ele>
        <time>2015-06-30T06:51:28Z</time>
      </trkpt>
      <trkpt lat="44.65817" lon="5.72173">
        <ele>1048.8</ele>
        <time>2015-06-30T06:51:33Z</time>
      </trkpt>
      <trkpt lat="44.65811" lon="5.72177">
        <ele>1049.6</ele>
        <time>2015-06-30T06:51:38Z</time>
      </trkpt>
      <trkpt lat="44.65806" lon="5.72183">
        <ele>1051.8</ele>
        <time>2015-06-30T06:51:43Z</time>
      </trkpt>
      <trkpt lat="44.65801" lon="5.72187">
        <ele>1051.6</ele>
        <time>2015-06-30T06:51:48Z</time>
      </trkpt>
      <trkpt lat="44.65796" lon="5.7219">
        <ele>1051.5</ele>
        <time>2015-06-30T06:51:53Z</time>
      </trkpt>
      <trkpt lat="44.65791" lon="5.72194">
        <ele>1052</ele>
        <time>2015-06-30T06:51:58Z</time>
      </trkpt>
      <trkpt lat="44.65785" lon="5.72196">
        <ele>1051.5</ele>
        <time>2015-06-30T06:52:03Z</time>
      </trkpt>
      <trkpt lat="44.65779" lon="5.72197">
        <ele>1051.8</ele>
        <time>2015-06-30T06:52:08Z</time>
      </trkpt>
      <trkpt lat="44.65772" lon="5.72198">
        <ele>1054.9</ele>
        <time>2015-06-30T06:52:13Z</time>
      </trkpt>
      <trkpt lat="44.65765" lon="5.72199">
        <ele>1054.3</ele>
        <time>2015-06-30T06:52:18Z</time>
      </trkpt>
      <trkpt lat="44.65758" lon="5.72199">
        <ele>1053</ele>
        <time>2015-06-30T06:52:23Z</time>
      </trkpt>
      <trkpt lat="44.65751" lon="5.72198">
        <ele>1051.3</ele>
        <time>2015-06-30T06:52:28Z</time>
      </trkpt>
      <trkpt lat="44.65746" lon="5.72198">
        <ele>1049.1</ele>
        <time>2015-06-30T06:52:33Z</time>
      </trkpt>
      <trkpt lat="44.65741" lon="5.722">
        <ele>1048.8</ele>
        <time>2015-06-30T06:52:38Z</time>
      </trkpt>
      <trkpt lat="44.65734" lon="5.722">
        <ele>1050.1</ele>
        <time>2015-06-30T06:52:43Z</time>
      </trkpt>
      <trkpt lat="44.6573" lon="5.722">
        <ele>1050.6</ele>
        <time>2015-06-30T06:52:48Z</time>
      </trkpt>
      <trkpt lat="44.65723" lon="5.722">
        <ele>1051.8</ele>
        <time>2015-06-30T06:52:53Z</time>
      </trkpt>
      <trkpt lat="44.65717" lon="5.722">
        <ele>1054.2</ele>
        <time>2015-06-30T06:52:58Z</time>
      </trkpt>
      <trkpt lat="44.65711" lon="5.72201">
        <ele>1055.6</ele>
        <time>2015-06-30T06:53:03Z</time>
      </trkpt>
      <trkpt lat="44.65705" lon="5.72203">
        <ele>1058</ele>
        <time>2015-06-30T06:53:08Z</time>
      </trkpt>
      <trkpt lat="44.657" lon="5.72205">
        <ele>1058.8</ele>
        <time>2015-06-30T06:53:13Z</time>
      </trkpt>
      <trkpt lat="44.65695" lon="5.72205">
        <ele>1060</ele>
        <time>2015-06-30T06:53:18Z</time>
      </trkpt>
      <trkpt lat="44.65689" lon="5.72207">
        <ele>1059.1</ele>
        <time>2015-06-30T06:53:23Z</time>
      </trkpt>
      <trkpt lat="44.65684" lon="5.7221">
        <ele>1056.6</ele>
        <time>2015-06-30T06:53:28Z</time>
      </trkpt>
      <trkpt lat="44.6568" lon="5.72212">
        <ele>1054.3</ele>
        <time>2015-06-30T06:53:33Z</time>
      </trkpt>
      <trkpt lat="44.65675" lon="5.72214">
        <ele>1054.1</ele>
        <time>2015-06-30T06:53:38Z</time>
      </trkpt>
      <trkpt lat="44.6567" lon="5.72215">
        <ele>1053.9</ele>
        <time>2015-06-30T06:53:43Z</time>
      </trkpt>
      <trkpt lat="44.65664" lon="5.72217">
        <ele>1053.3</ele>
        <time>2015-06-30T06:53:48Z</time>
      </trkpt>
      <trkpt lat="44.65659" lon="5.72218">
        <ele>1053.4</ele>
        <time>2015-06-30T06:53:53Z</time>
      </trkpt>
      <trkpt lat="44.65654" lon="5.7222">
        <ele>1053.7</ele>
        <time>2015-06-30T06:53:58Z</time>
      </trkpt>
      <trkpt lat="44.65648" lon="5.72221">
        <ele>1053.6</ele>
        <time>2015-06-30T06:54:03Z</time>
      </trkpt>
      <trkpt lat="44.65641" lon="5.72222">
        <ele>1054</ele>
        <time>2015-06-30T06:54:08Z</time>
      </trkpt>
      <trkpt lat="44.65636" lon="5.72223">
        <ele>1053.4</ele>
        <time>2015-06-30T06:54:13Z</time>
      </trkpt>
      <trkpt lat="44.6563" lon="5.72224">
        <ele>1053.2</ele>
        <time>2015-06-30T06:54:18Z</time>
      </trkpt>
      <trkpt lat="44.65624" lon="5.72225">
        <ele>1053.9</ele>
        <time>2015-06-30T06:54:23Z</time>
      </trkpt>
      <trkpt lat="44.65619" lon="5.72226">
        <ele>1054.3</ele>
        <time>2015-06-30T06:54:28Z</time>
      </trkpt>
      <trkpt lat="44.65613" lon="5.72228">
        <ele>1055.1</ele>
        <time>2015-06-30T06:54:33Z</time>
      </trkpt>
      <trkpt lat="44.65608" lon="5.7223">
        <ele>1055.9</ele>
        <time>2015-06-30T06:54:38Z</time>
      </trkpt>
      <trkpt lat="44.65601" lon="5.72232">
        <ele>1057.4</ele>
        <time>2015-06-30T06:54:43Z</time>
      </trkpt>
      <trkpt lat="44.65596" lon="5.72235">
        <ele>1058.9</ele>
        <time>2015-06-30T06:54:48Z</time>
      </trkpt>
      <trkpt lat="44.6559" lon="5.72237">
        <ele>1060.4</ele>
        <time>2015-06-30T06:54:53Z</time>
      </trkpt>
      <trkpt lat="44.65585" lon="5.7224">
        <ele>1061.1</ele>
        <time>2015-06-30T06:54:58Z</time>
      </trkpt>
      <trkpt lat="44.6558" lon="5.72244">
        <ele>1062.4</ele>
        <time>2015-06-30T06:55:03Z</time>
      </trkpt>
      <trkpt lat="44.65575" lon="5.72247">
        <ele>1063.3</ele>
        <time>2015-06-30T06:55:08Z</time>
      </trkpt>
      <trkpt lat="44.6557" lon="5.7225">
        <ele>1063.9</ele>
        <time>2015-06-30T06:55:13Z</time>
      </trkpt>
      <trkpt lat="44.65566" lon="5.72254">
        <ele>1064</ele>
        <time>2015-06-30T06:55:18Z</time>
      </trkpt>
      <trkpt lat="44.65563" lon="5.72259">
        <ele>1064</ele>
        <time>2015-06-30T06:55:23Z</time>
      </trkpt>
      <trkpt lat="44.65559" lon="5.72264">
        <ele>1063.3</ele>
        <time>2015-06-30T06:55:28Z</time>
      </trkpt>
      <trkpt lat="44.65555" lon="5.7227">
        <ele>1063.6</ele>
        <time>2015-06-30T06:55:33Z</time>
      </trkpt>
      <trkpt lat="44.6555" lon="5.72276">
        <ele>1064.5</ele>
        <time>2015-06-30T06:55:38Z</time>
      </trkpt>
      <trkpt lat="44.65545" lon="5.72281">
        <ele>1064.8</ele>
        <time>2015-06-30T06:55:43Z</time>
      </trkpt>
      <trkpt lat="44.65541" lon="5.72287">
        <ele>1064.7</ele>
        <time>2015-06-30T06:55:48Z</time>
      </trkpt>
      <trkpt lat="44.65537" lon="5.72291">
        <ele>1064.5</ele>
        <time>2015-06-30T06:55:53Z</time>
      </trkpt>
      <trkpt lat="44.65534" lon="5.72296">
        <ele>1063.6</ele>
        <time>2015-06-30T06:55:58Z</time>
      </trkpt>
      <trkpt lat="44.65529" lon="5.72299">
        <ele>1063.1</ele>
        <time>2015-06-30T06:56:03Z</time>
      </trkpt>
      <trkpt lat="44.65526" lon="5.72302">
        <ele>1062.5</ele>
        <time>2015-06-30T06:56:08Z</time>
      </trkpt>
      <trkpt lat="44.65521" lon="5.72307">
        <ele>1063.5</ele>
        <time>2015-06-30T06:56:13Z</time>
      </trkpt>
      <trkpt lat="44.65514" lon="5.7231">
        <ele>1066.5</ele>
        <time>2015-06-30T06:56:18Z</time>
      </trkpt>
      <trkpt lat="44.65509" lon="5.72312">
        <ele>1067.2</ele>
        <time>2015-06-30T06:56:23Z</time>
      </trkpt>
      <trkpt lat="44.65504" lon="5.72316">
        <ele>1067.4</ele>
        <time>2015-06-30T06:56:28Z</time>
      </trkpt>
      <trkpt lat="44.65498" lon="5.72319">
        <ele>1070</ele>
        <time>2015-06-30T06:56:33Z</time>
      </trkpt>
      <trkpt lat="44.65493" lon="5.72323">
        <ele>1070.5</ele>
        <time>2015-06-30T06:56:38Z</time>
      </trkpt>
      <trkpt lat="44.65488" lon="5.72327">
        <ele>1070.9</ele>
        <time>2015-06-30T06:56:43Z</time>
      </trkpt>
      <trkpt lat="44.65484" lon="5.72331">
        <ele>1070.6</ele>
        <time>2015-06-30T06:56:48Z</time>
      </trkpt>
      <trkpt lat="44.65479" lon="5.72336">
        <ele>1071</ele>
        <time>2015-06-30T06:56:53Z</time>
      </trkpt>
      <trkpt lat="44.65474" lon="5.7234">
        <ele>1069.7</ele>
        <time>2015-06-30T06:56:58Z</time>
      </trkpt>
      <trkpt lat="44.6547" lon="5.72344">
        <ele>1068.2</ele>
        <time>2015-06-30T06:57:03Z</time>
      </trkpt>
      <trkpt lat="44.65465" lon="5.72348">
        <ele>1069.4</ele>
        <time>2015-06-30T06:57:08Z</time>
      </trkpt>
      <trkpt lat="44.65462" lon="5.72352">
        <ele>1070.6</ele>
        <time>2015-06-30T06:57:13Z</time>
      </trkpt>
      <trkpt lat="44.65456" lon="5.72357">
        <ele>1069.6</ele>
        <time>2015-06-30T06:57:18Z</time>
      </trkpt>
      <trkpt lat="44.65449" lon="5.72361">
        <ele>1070.2</ele>
        <time>2015-06-30T06:57:23Z</time>
      </trkpt>
      <trkpt lat="44.65444" lon="5.72366">
        <ele>1071.3</ele>
        <time>2015-06-30T06:57:28Z</time>
      </trkpt>
      <trkpt lat="44.65437" lon="5.72371">
        <ele>1072.8</ele>
        <time>2015-06-30T06:57:33Z</time>
      </trkpt>
      <trkpt lat="44.65432" lon="5.72377">
        <ele>1073.5</ele>
        <time>2015-06-30T06:57:38Z</time>
      </trkpt>
      <trkpt lat="44.65427" lon="5.72381">
        <ele>1072.1</ele>
        <time>2015-06-30T06:57:43Z</time>
      </trkpt>
      <trkpt lat="44.65424" lon="5.72386">
        <ele>1070.7</ele>
        <time>2015-06-30T06:57:48Z</time>
      </trkpt>
      <trkpt lat="44.65422" lon="5.72391">
        <ele>1069.3</ele>
        <time>2015-06-30T06:57:53Z</time>
      </trkpt>
      <trkpt lat="44.65419" lon="5.72396">
        <ele>1068.4</ele>
        <time>2015-06-30T06:57:58Z</time>
      </trkpt>
      <trkpt lat="44.65417" lon="5.72403">
        <ele>1067.9</ele>
        <time>2015-06-30T06:58:03Z</time>
      </trkpt>
      <trkpt lat="44.65413" lon="5.7241">
        <ele>1069.2</ele>
        <time>2015-06-30T06:58:08Z</time>
      </trkpt>
      <trkpt lat="44.6541" lon="5.72418">
        <ele>1070.6</ele>
        <time>2015-06-30T06:58:13Z</time>
      </trkpt>
      <trkpt lat="44.65407" lon="5.72425">
        <ele>1071.2</ele>
        <time>2015-06-30T06:58:18Z</time>
      </trkpt>
      <trkpt lat="44.65404" lon="5.72432">
        <ele>1071.8</ele>
        <time>2015-06-30T06:58:23Z</time>
      </trkpt>
      <trkpt lat="44.65401" lon="5.7244">
        <ele>1072.2</ele>
        <time>2015-06-30T06:58:28Z</time>
      </trkpt>
      <trkpt lat="44.65398" lon="5.72447">
        <ele>1072.1</ele>
        <time>2015-06-30T06:58:33Z</time>
      </trkpt>
      <trkpt lat="44.65395" lon="5.72453">
        <ele>1071.8</ele>
        <time>2015-06-30T06:58:38Z</time>
      </trkpt>
      <trkpt lat="44.65388" lon="5.72454">
        <ele>1071.8</ele>
        <time>2015-06-30T06:58:43Z</time>
      </trkpt>
      <trkpt lat="44.65384" lon="5.72449">
        <ele>1070.1</ele>
        <time>2015-06-30T06:58:48Z</time>
      </trkpt>
      <trkpt lat="44.65381" lon="5.72444">
        <ele>1068.6</ele>
        <time>2015-06-30T06:58:53Z</time>
      </trkpt>
      <trkpt lat="44.65379" lon="5.72437">
        <ele>1068</ele>
        <time>2015-06-30T06:58:58Z</time>
      </trkpt>
      <trkpt lat="44.65379" lon="5.7243">
        <ele>1068.2</ele>
        <time>2015-06-30T06:59:03Z</time>
      </trkpt>
      <trkpt lat="44.6538" lon="5.72423">
        <ele>1068.8</ele>
        <time>2015-06-30T06:59:08Z</time>
      </trkpt>
      <trkpt lat="44.65381" lon="5.72414">
        <ele>1070.3</ele>
        <time>2015-06-30T06:59:13Z</time>
      </trkpt>
      <trkpt lat="44.65382" lon="5.72408">
        <ele>1069.6</ele>
        <time>2015-06-30T06:59:18Z</time>
      </trkpt>
      <trkpt lat="44.65383" lon="5.72398">
        <ele>1069</ele>
        <time>2015-06-30T06:59:23Z</time>
      </trkpt>
      <trkpt lat="44.65385" lon="5.72391">
        <ele>1069.7</ele>
        <time>2015-06-30T06:59:28Z</time>
      </trkpt>
      <trkpt lat="44.65387" lon="5.72383">
        <ele>1070</ele>
        <time>2015-06-30T06:59:33Z</time>
      </trkpt>
      <trkpt lat="44.65388" lon="5.72376">
        <ele>1069.9</ele>
        <time>2015-06-30T06:59:38Z</time>
      </trkpt>
      <trkpt lat="44.65389" lon="5.72369">
        <ele>1069.9</ele>
        <time>2015-06-30T06:59:43Z</time>
      </trkpt>
      <trkpt lat="44.65391" lon="5.7236">
        <ele>1070.4</ele>
        <time>2015-06-30T06:59:48Z</time>
      </trkpt>
      <trkpt lat="44.65392" lon="5.72351">
        <ele>1070.4</ele>
        <time>2015-06-30T06:59:53Z</time>
      </trkpt>
      <trkpt lat="44.65393" lon="5.72342">
        <ele>1071.4</ele>
        <time>2015-06-30T06:59:58Z</time>
      </trkpt>
      <trkpt lat="44.65395" lon="5.72336">
        <ele>1069.9</ele>
        <time>2015-06-30T07:00:03Z</time>
      </trkpt>
      <trkpt lat="44.65397" lon="5.72334">
        <ele>1072.4</ele>
        <time>2015-06-30T07:00:08Z</time>
      </trkpt>
      <trkpt lat="44.65399" lon="5.72334">
        <ele>1070.3</ele>
        <time>2015-06-30T07:00:13Z</time>
      </trkpt>
      <trkpt lat="44.65401" lon="5.72333">
        <ele>1072.6</ele>
        <time>2015-06-30T07:00:18Z</time>
      </trkpt>
      <trkpt lat="44.65401" lon="5.72331">
        <ele>1074.3</ele>
        <time>2015-06-30T07:00:23Z</time>
      </trkpt>
      <trkpt lat="44.65398" lon="5.72329">
        <ele>1077.2</ele>
        <time>2015-06-30T07:00:28Z</time>
      </trkpt>
      <trkpt lat="44.65402" lon="5.72328">
        <ele>1077.4</ele>
        <time>2015-06-30T07:00:33Z</time>
      </trkpt>
      <trkpt lat="44.65404" lon="5.72326">
        <ele>1080.9</ele>
        <time>2015-06-30T07:00:38Z</time>
      </trkpt>
      <trkpt lat="44.65406" lon="5.72325">
        <ele>1080.4</ele>
        <time>2015-06-30T07:00:43Z</time>
      </trkpt>
      <trkpt lat="44.65406" lon="5.72326">
        <ele>1078.7</ele>
        <time>2015-06-30T07:00:48Z</time>
      </trkpt>
      <trkpt lat="44.65405" lon="5.72328">
        <ele>1075.1</ele>
        <time>2015-06-30T07:00:53Z</time>
      </trkpt>
      <trkpt lat="44.65408" lon="5.72326">
        <ele>1076.7</ele>
        <time>2015-06-30T07:00:58Z</time>
      </trkpt>
      <trkpt lat="44.65406" lon="5.72328">
        <ele>1076.1</ele>
        <time>2015-06-30T07:01:03Z</time>
      </trkpt>
      <trkpt lat="44.65403" lon="5.72333">
        <ele>1076.5</ele>
        <time>2015-06-30T07:01:08Z</time>
      </trkpt>
      <trkpt lat="44.65402" lon="5.72332">
        <ele>1080.2</ele>
        <time>2015-06-30T07:01:13Z</time>
      </trkpt>
      <trkpt lat="44.65396" lon="5.72334">
        <ele>1078.8</ele>
        <time>2015-06-30T07:01:18Z</time>
      </trkpt>
      <trkpt lat="44.65393" lon="5.72335">
        <ele>1074.3</ele>
        <time>2015-06-30T07:01:23Z</time>
      </trkpt>
      <trkpt lat="44.65393" lon="5.72336">
        <ele>1068.7</ele>
        <time>2015-06-30T07:01:28Z</time>
      </trkpt>
      <trkpt lat="44.65393" lon="5.72337">
        <ele>1067.1</ele>
        <time>2015-06-30T07:01:33Z</time>
      </trkpt>
      <trkpt lat="44.65397" lon="5.72338">
        <ele>1071.9</ele>
        <time>2015-06-30T07:01:38Z</time>
      </trkpt>
      <trkpt lat="44.65398" lon="5.72338">
        <ele>1072.8</ele>
        <time>2015-06-30T07:01:43Z</time>
      </trkpt>
      <trkpt lat="44.65398" lon="5.72338">
        <ele>1073</ele>
        <time>2015-06-30T07:01:48Z</time>
      </trkpt>
      <trkpt lat="44.65399" lon="5.72337">
        <ele>1073.4</ele>
        <time>2015-06-30T07:01:53Z</time>
      </trkpt>
      <trkpt lat="44.65401" lon="5.72336">
        <ele>1074.3</ele>
        <time>2015-06-30T07:01:58Z</time>
      </trkpt>
      <trkpt lat="44.65401" lon="5.72337">
        <ele>1075.7</ele>
        <time>2015-06-30T07:02:03Z</time>
      </trkpt>
      <trkpt lat="44.65402" lon="5.72336">
        <ele>1072.9</ele>
        <time>2015-06-30T07:02:08Z</time>
      </trkpt>
      <trkpt lat="44.65402" lon="5.72337">
        <ele>1073.1</ele>
        <time>2015-06-30T07:02:13Z</time>
      </trkpt>
      <trkpt lat="44.65402" lon="5.72338">
        <ele>1072</ele>
        <time>2015-06-30T07:02:18Z</time>
      </trkpt>
      <trkpt lat="44.654" lon="5.72337">
        <ele>1074.2</ele>
        <time>2015-06-30T07:02:23Z</time>
      </trkpt>
      <trkpt lat="44.65397" lon="5.72336">
        <ele>1076.3</ele>
        <time>2015-06-30T07:02:28Z</time>
      </trkpt>
      <trkpt lat="44.65396" lon="5.72337">
        <ele>1077.9</ele>
        <time>2015-06-30T07:02:33Z</time>
      </trkpt>
      <trkpt lat="44.65395" lon="5.72336">
        <ele>1074.7</ele>
        <time>2015-06-30T07:02:38Z</time>
      </trkpt>
      <trkpt lat="44.65395" lon="5.72337">
        <ele>1073.8</ele>
        <time>2015-06-30T07:02:43Z</time>
      </trkpt>
      <trkpt lat="44.65397" lon="5.72336">
        <ele>1073.7</ele>
        <time>2015-06-30T07:02:48Z</time>
      </trkpt>
      <trkpt lat="44.65397" lon="5.7233">
        <ele>1071.9</ele>
        <time>2015-06-30T07:02:53Z</time>
      </trkpt>
      <trkpt lat="44.65396" lon="5.72322">
        <ele>1070.8</ele>
        <time>2015-06-30T07:02:58Z</time>
      </trkpt>
      <trkpt lat="44.65397" lon="5.72316">
        <ele>1069.8</ele>
        <time>2015-06-30T07:03:03Z</time>
      </trkpt>
      <trkpt lat="44.65397" lon="5.72308">
        <ele>1069.3</ele>
        <time>2015-06-30T07:03:08Z</time>
      </trkpt>
      <trkpt lat="44.65397" lon="5.72299">
        <ele>1067.7</ele>
        <time>2015-06-30T07:03:13Z</time>
      </trkpt>
      <trkpt lat="44.65397" lon="5.72291">
        <ele>1066.6</ele>
        <time>2015-06-30T07:03:18Z</time>
      </trkpt>
      <trkpt lat="44.65398" lon="5.72282">
        <ele>1065.9</ele>
        <time>2015-06-30T07:03:23Z</time>
      </trkpt>
      <trkpt lat="44.654" lon="5.72274">
        <ele>1065.6</ele>
        <time>2015-06-30T07:03:28Z</time>
      </trkpt>
      <trkpt lat="44.65401" lon="5.72267">
        <ele>1064.7</ele>
        <time>2015-06-30T07:03:33Z</time>
      </trkpt>
      <trkpt lat="44.65404" lon="5.72261">
        <ele>1064.3</ele>
        <time>2015-06-30T07:03:38Z</time>
      </trkpt>
      <trkpt lat="44.65406" lon="5.72253">
        <ele>1063.4</ele>
        <time>2015-06-30T07:03:43Z</time>
      </trkpt>
      <trkpt lat="44.65407" lon="5.72245">
        <ele>1063</ele>
        <time>2015-06-30T07:03:48Z</time>
      </trkpt>
      <trkpt lat="44.65407" lon="5.72239">
        <ele>1062.7</ele>
        <time>2015-06-30T07:03:53Z</time>
      </trkpt>
      <trkpt lat="44.65409" lon="5.72231">
        <ele>1062.2</ele>
        <time>2015-06-30T07:03:58Z</time>
      </trkpt>
      <trkpt lat="44.65409" lon="5.72225">
        <ele>1060.8</ele>
        <time>2015-06-30T07:04:03Z</time>
      </trkpt>
      <trkpt lat="44.65409" lon="5.72218">
        <ele>1058.6</ele>
        <time>2015-06-30T07:04:08Z</time>
      </trkpt>
      <trkpt lat="44.6541" lon="5.7221">
        <ele>1056.7</ele>
        <time>2015-06-30T07:04:13Z</time>
      </trkpt>
      <trkpt lat="44.65409" lon="5.72202">
        <ele>1055.6</ele>
        <time>2015-06-30T07:04:18Z</time>
      </trkpt>
      <trkpt lat="44.65408" lon="5.72195">
        <ele>1054.5</ele>
        <time>2015-06-30T07:04:23Z</time>
      </trkpt>
      <trkpt lat="44.65407" lon="5.72187">
        <ele>1053.2</ele>
        <time>2015-06-30T07:04:28Z</time>
      </trkpt>
      <trkpt lat="44.65407" lon="5.7218">
        <ele>1051.7</ele>
        <time>2015-06-30T07:04:33Z</time>
      </trkpt>
      <trkpt lat="44.65407" lon="5.72172">
        <ele>1050.2</ele>
        <time>2015-06-30T07:04:38Z</time>
      </trkpt>
      <trkpt lat="44.65408" lon="5.72165">
        <ele>1049</ele>
        <time>2015-06-30T07:04:43Z</time>
      </trkpt>
      <trkpt lat="44.6541" lon="5.72158">
        <ele>1047.9</ele>
        <time>2015-06-30T07:04:48Z</time>
      </trkpt>
      <trkpt lat="44.65413" lon="5.7215">
        <ele>1047.5</ele>
        <time>2015-06-30T07:04:53Z</time>
      </trkpt>
      <trkpt lat="44.65414" lon="5.72142">
        <ele>1045.5</ele>
        <time>2015-06-30T07:04:58Z</time>
      </trkpt>
      <trkpt lat="44.65415" lon="5.72134">
        <ele>1044.3</ele>
        <time>2015-06-30T07:05:03Z</time>
      </trkpt>
      <trkpt lat="44.65415" lon="5.72126">
        <ele>1043.6</ele>
        <time>2015-06-30T07:05:08Z</time>
      </trkpt>
      <trkpt lat="44.65415" lon="5.72118">
        <ele>1043</ele>
        <time>2015-06-30T07:05:13Z</time>
      </trkpt>
      <trkpt lat="44.65416" lon="5.72109">
        <ele>1042.5</ele>
        <time>2015-06-30T07:05:18Z</time>
      </trkpt>
      <trkpt lat="44.65417" lon="5.721">
        <ele>1042.3</ele>
        <time>2015-06-30T07:05:23Z</time>
      </trkpt>
      <trkpt lat="44.6542" lon="5.7209">
        <ele>1043.7</ele>
        <time>2015-06-30T07:05:28Z</time>
      </trkpt>
      <trkpt lat="44.65421" lon="5.72081">
        <ele>1043</ele>
        <time>2015-06-30T07:05:33Z</time>
      </trkpt>
      <trkpt lat="44.65423" lon="5.72072">
        <ele>1042.1</ele>
        <time>2015-06-30T07:05:38Z</time>
      </trkpt>
      <trkpt lat="44.65423" lon="5.72064">
        <ele>1041.7</ele>
        <time>2015-06-30T07:05:43Z</time>
      </trkpt>
      <trkpt lat="44.65426" lon="5.72055">
        <ele>1040.7</ele>
        <time>2015-06-30T07:05:48Z</time>
      </trkpt>
      <trkpt lat="44.65428" lon="5.72045">
        <ele>1041.5</ele>
        <time>2015-06-30T07:05:53Z</time>
      </trkpt>
      <trkpt lat="44.65429" lon="5.72035">
        <ele>1041</ele>
        <time>2015-06-30T07:05:58Z</time>
      </trkpt>
      <trkpt lat="44.6543" lon="5.72026">
        <ele>1040.2</ele>
        <time>2015-06-30T07:06:03Z</time>
      </trkpt>
      <trkpt lat="44.6543" lon="5.72016">
        <ele>1039.6</ele>
        <time>2015-06-30T07:06:08Z</time>
      </trkpt>
      <trkpt lat="44.6543" lon="5.72007">
        <ele>1038.9</ele>
        <time>2015-06-30T07:06:13Z</time>
      </trkpt>
      <trkpt lat="44.6543" lon="5.71997">
        <ele>1038.4</ele>
        <time>2015-06-30T07:06:18Z</time>
      </trkpt>
      <trkpt lat="44.65431" lon="5.71989">
        <ele>1038</ele>
        <time>2015-06-30T07:06:23Z</time>
      </trkpt>
      <trkpt lat="44.65431" lon="5.71979">
        <ele>1037.4</ele>
        <time>2015-06-30T07:06:28Z</time>
      </trkpt>
      <trkpt lat="44.65431" lon="5.7197">
        <ele>1037.2</ele>
        <time>2015-06-30T07:06:33Z</time>
      </trkpt>
      <trkpt lat="44.6543" lon="5.71961">
        <ele>1037.1</ele>
        <time>2015-06-30T07:06:38Z</time>
      </trkpt>
      <trkpt lat="44.65429" lon="5.71952">
        <ele>1036.9</ele>
        <time>2015-06-30T07:06:43Z</time>
      </trkpt>
      <trkpt lat="44.65426" lon="5.71943">
        <ele>1036.7</ele>
        <time>2015-06-30T07:06:48Z</time>
      </trkpt>
      <trkpt lat="44.65423" lon="5.71934">
        <ele>1036.3</ele>
        <time>2015-06-30T07:06:53Z</time>
      </trkpt>
      <trkpt lat="44.6542" lon="5.71926">
        <ele>1036.1</ele>
        <time>2015-06-30T07:06:58Z</time>
      </trkpt>
      <trkpt lat="44.65418" lon="5.71918">
        <ele>1035.3</ele>
        <time>2015-06-30T07:07:03Z</time>
      </trkpt>
      <trkpt lat="44.65417" lon="5.71908">
        <ele>1034.9</ele>
        <time>2015-06-30T07:07:08Z</time>
      </trkpt>
      <trkpt lat="44.65416" lon="5.71899">
        <ele>1034.5</ele>
        <time>2015-06-30T07:07:13Z</time>
      </trkpt>
      <trkpt lat="44.65416" lon="5.71889">
        <ele>1034.6</ele>
        <time>2015-06-30T07:07:18Z</time>
      </trkpt>
      <trkpt lat="44.65417" lon="5.7188">
        <ele>1034.9</ele>
        <time>2015-06-30T07:07:23Z</time>
      </trkpt>
      <trkpt lat="44.65418" lon="5.7187">
        <ele>1034.6</ele>
        <time>2015-06-30T07:07:28Z</time>
      </trkpt>
      <trkpt lat="44.6542" lon="5.71861">
        <ele>1033.9</ele>
        <time>2015-06-30T07:07:33Z</time>
      </trkpt>
      <trkpt lat="44.65423" lon="5.71853">
        <ele>1033.6</ele>
        <time>2015-06-30T07:07:38Z</time>
      </trkpt>
      <trkpt lat="44.65426" lon="5.71845">
        <ele>1033.7</ele>
        <time>2015-06-30T07:07:43Z</time>
      </trkpt>
      <trkpt lat="44.65429" lon="5.71837">
        <ele>1033.1</ele>
        <time>2015-06-30T07:07:48Z</time>
      </trkpt>
      <trkpt lat="44.65431" lon="5.7183">
        <ele>1032.9</ele>
        <time>2015-06-30T07:07:53Z</time>
      </trkpt>
      <trkpt lat="44.65432" lon="5.71828">
        <ele>1032.6</ele>
        <time>2015-06-30T07:07:58Z</time>
      </trkpt>
      <trkpt lat="44.65432" lon="5.71828">
        <ele>1032.2</ele>
        <time>2015-06-30T07:08:03Z</time>
      </trkpt>
      <trkpt lat="44.65432" lon="5.71827">
        <ele>1032.4</ele>
        <time>2015-06-30T07:08:08Z</time>
      </trkpt>
      <trkpt lat="44.65432" lon="5.71826">
        <ele>1034</ele>
        <time>2015-06-30T07:08:13Z</time>
      </trkpt>
      <trkpt lat="44.65431" lon="5.71826">
        <ele>1034.2</ele>
        <time>2015-06-30T07:08:18Z</time>
      </trkpt>
      <trkpt lat="44.65431" lon="5.71825">
        <ele>1033.5</ele>
        <time>2015-06-30T07:08:23Z</time>
      </trkpt>
      <trkpt lat="44.6543" lon="5.71824">
        <ele>1033.2</ele>
        <time>2015-06-30T07:08:28Z</time>
      </trkpt>
      <trkpt lat="44.65428" lon="5.71823">
        <ele>1034</ele>
        <time>2015-06-30T07:08:33Z</time>
      </trkpt>
      <trkpt lat="44.65427" lon="5.71823">
        <ele>1034.1</ele>
        <time>2015-06-30T07:08:38Z</time>
      </trkpt>
      <trkpt lat="44.65427" lon="5.71824">
        <ele>1033.6</ele>
        <time>2015-06-30T07:08:43Z</time>
      </trkpt>
      <trkpt lat="44.65428" lon="5.71822">
        <ele>1033.5</ele>
        <time>2015-06-30T07:08:48Z</time>
      </trkpt>
      <trkpt lat="44.6543" lon="5.71819">
        <ele>1032.9</ele>
        <time>2015-06-30T07:08:53Z</time>
      </trkpt>
      <trkpt lat="44.65431" lon="5.71819">
        <ele>1032.4</ele>
        <time>2015-06-30T07:08:58Z</time>
      </trkpt>
      <trkpt lat="44.65432" lon="5.71821">
        <ele>1033.7</ele>
        <time>2015-06-30T07:09:03Z</time>
      </trkpt>
      <trkpt lat="44.65432" lon="5.71827">
        <ele>1033</ele>
        <time>2015-06-30T07:09:08Z</time>
      </trkpt>
      <trkpt lat="44.6543" lon="5.71834">
        <ele>1032.8</ele>
        <time>2015-06-30T07:09:13Z</time>
      </trkpt>
      <trkpt lat="44.65428" lon="5.71841">
        <ele>1032.2</ele>
        <time>2015-06-30T07:09:18Z</time>
      </trkpt>
      <trkpt lat="44.65427" lon="5.71848">
        <ele>1031.6</ele>
        <time>2015-06-30T07:09:23Z</time>
      </trkpt>
      <trkpt lat="44.65426" lon="5.71855">
        <ele>1030.6</ele>
        <time>2015-06-30T07:09:28Z</time>
      </trkpt>
      <trkpt lat="44.65424" lon="5.71863">
        <ele>1030.1</ele>
        <time>2015-06-30T07:09:33Z</time>
      </trkpt>
      <trkpt lat="44.65423" lon="5.7187">
        <ele>1029.5</ele>
        <time>2015-06-30T07:09:38Z</time>
      </trkpt>
      <trkpt lat="44.65421" lon="5.71878">
        <ele>1028.2</ele>
        <time>2015-06-30T07:09:43Z</time>
      </trkpt>
      <trkpt lat="44.6542" lon="5.71886">
        <ele>1027.5</ele>
        <time>2015-06-30T07:09:48Z</time>
      </trkpt>
      <trkpt lat="44.6542" lon="5.71894">
        <ele>1028</ele>
        <time>2015-06-30T07:09:53Z</time>
      </trkpt>
      <trkpt lat="44.6542" lon="5.71903">
        <ele>1030.6</ele>
        <time>2015-06-30T07:09:58Z</time>
      </trkpt>
      <trkpt lat="44.65421" lon="5.71912">
        <ele>1030.7</ele>
        <time>2015-06-30T07:10:03Z</time>
      </trkpt>
      <trkpt lat="44.65423" lon="5.7192">
        <ele>1031.4</ele>
        <time>2015-06-30T07:10:08Z</time>
      </trkpt>
      <trkpt lat="44.65424" lon="5.71929">
        <ele>1032.1</ele>
        <time>2015-06-30T07:10:13Z</time>
      </trkpt>
      <trkpt lat="44.65427" lon="5.71936">
        <ele>1032.7</ele>
        <time>2015-06-30T07:10:18Z</time>
      </trkpt>
      <trkpt lat="44.65431" lon="5.71944">
        <ele>1033.1</ele>
        <time>2015-06-30T07:10:23Z</time>
      </trkpt>
      <trkpt lat="44.65433" lon="5.71952">
        <ele>1033.5</ele>
        <time>2015-06-30T07:10:28Z</time>
      </trkpt>
      <trkpt lat="44.65434" lon="5.71961">
        <ele>1034</ele>
        <time>2015-06-30T07:10:33Z</time>
      </trkpt>
      <trkpt lat="44.65435" lon="5.7197">
        <ele>1034.5</ele>
        <time>2015-06-30T07:10:38Z</time>
      </trkpt>
      <trkpt lat="44.65435" lon="5.71979">
        <ele>1035.3</ele>
        <time>2015-06-30T07:10:43Z</time>
      </trkpt>
      <trkpt lat="44.65435" lon="5.71987">
        <ele>1035.9</ele>
        <time>2015-06-30T07:10:48Z</time>
      </trkpt>
      <trkpt lat="44.65435" lon="5.71996">
        <ele>1036.5</ele>
        <time>2015-06-30T07:10:53Z</time>
      </trkpt>
      <trkpt lat="44.65435" lon="5.72004">
        <ele>1037.2</ele>
        <time>2015-06-30T07:10:58Z</time>
      </trkpt>
      <trkpt lat="44.65435" lon="5.72012">
        <ele>1037.9</ele>
        <time>2015-06-30T07:11:03Z</time>
      </trkpt>
      <trkpt lat="44.65435" lon="5.7202">
        <ele>1038.5</ele>
        <time>2015-06-30T07:11:08Z</time>
      </trkpt>
      <trkpt lat="44.65434" lon="5.72028">
        <ele>1039</ele>
        <time>2015-06-30T07:11:13Z</time>
      </trkpt>
      <trkpt lat="44.65434" lon="5.72036">
        <ele>1038.7</ele>
        <time>2015-06-30T07:11:18Z</time>
      </trkpt>
      <trkpt lat="44.65433" lon="5.72044">
        <ele>1039</ele>
        <time>2015-06-30T07:11:23Z</time>
      </trkpt>
      <trkpt lat="44.65432" lon="5.72053">
        <ele>1040.2</ele>
        <time>2015-06-30T07:11:28Z</time>
      </trkpt>
      <trkpt lat="44.6543" lon="5.72061">
        <ele>1041.1</ele>
        <time>2015-06-30T07:11:33Z</time>
      </trkpt>
      <trkpt lat="44.65428" lon="5.72069">
        <ele>1042.6</ele>
        <time>2015-06-30T07:11:38Z</time>
      </trkpt>
      <trkpt lat="44.65426" lon="5.72077">
        <ele>1043.7</ele>
        <time>2015-06-30T07:11:43Z</time>
      </trkpt>
      <trkpt lat="44.65425" lon="5.72084">
        <ele>1044.8</ele>
        <time>2015-06-30T07:11:48Z</time>
      </trkpt>
      <trkpt lat="44.65424" lon="5.72092">
        <ele>1045.5</ele>
        <time>2015-06-30T07:11:53Z</time>
      </trkpt>
      <trkpt lat="44.65423" lon="5.721">
        <ele>1045.5</ele>
        <time>2015-06-30T07:11:58Z</time>
      </trkpt>
      <trkpt lat="44.65423" lon="5.72108">
        <ele>1045.9</ele>
        <time>2015-06-30T07:12:03Z</time>
      </trkpt>
      <trkpt lat="44.65422" lon="5.72115">
        <ele>1046.4</ele>
        <time>2015-06-30T07:12:08Z</time>
      </trkpt>
      <trkpt lat="44.65421" lon="5.7212">
        <ele>1046.4</ele>
        <time>2015-06-30T07:12:13Z</time>
      </trkpt>
      <trkpt lat="44.6542" lon="5.7212">
        <ele>1045.8</ele>
        <time>2015-06-30T07:12:18Z</time>
      </trkpt>
      <trkpt lat="44.6542" lon="5.72118">
        <ele>1045.9</ele>
        <time>2015-06-30T07:12:23Z</time>
      </trkpt>
      <trkpt lat="44.6542" lon="5.7212">
        <ele>1046.6</ele>
        <time>2015-06-30T07:12:28Z</time>
      </trkpt>
      <trkpt lat="44.65422" lon="5.72121">
        <ele>1047.7</ele>
        <time>2015-06-30T07:12:33Z</time>
      </trkpt>
      <trkpt lat="44.65421" lon="5.72122">
        <ele>1048.2</ele>
        <time>2015-06-30T07:12:38Z</time>
      </trkpt>
      <trkpt lat="44.65421" lon="5.72124">
        <ele>1047.4</ele>
        <time>2015-06-30T07:12:43Z</time>
      </trkpt>
      <trkpt lat="44.65421" lon="5.72125">
        <ele>1046.8</ele>
        <time>2015-06-30T07:12:48Z</time>
      </trkpt>
      <trkpt lat="44.65421" lon="5.72125">
        <ele>1046.2</ele>
        <time>2015-06-30T07:12:53Z</time>
      </trkpt>
      <trkpt lat="44.65421" lon="5.72126">
        <ele>1045.4</ele>
        <time>2015-06-30T07:12:58Z</time>
      </trkpt>
      <trkpt lat="44.65419" lon="5.72125">
        <ele>1044</ele>
        <time>2015-06-30T07:13:03Z</time>
      </trkpt>
      <trkpt lat="44.65418" lon="5.72126">
        <ele>1043.4</ele>
        <time>2015-06-30T07:13:08Z</time>
      </trkpt>
      <trkpt lat="44.65419" lon="5.72128">
        <ele>1045.2</ele>
        <time>2015-06-30T07:13:13Z</time>
      </trkpt>
      <trkpt lat="44.6542" lon="5.72128">
        <ele>1045.5</ele>
        <time>2015-06-30T07:13:18Z</time>
      </trkpt>
      <trkpt lat="44.65419" lon="5.72128">
        <ele>1045.4</ele>
        <time>2015-06-30T07:13:23Z</time>
      </trkpt>
      <trkpt lat="44.65419" lon="5.72128">
        <ele>1046</ele>
        <time>2015-06-30T07:13:28Z</time>
      </trkpt>
      <trkpt lat="44.6542" lon="5.72127">
        <ele>1047.4</ele>
        <time>2015-06-30T07:13:33Z</time>
      </trkpt>
      <trkpt lat="44.65419" lon="5.72136">
        <ele>1046.2</ele>
        <time>2015-06-30T07:13:38Z</time>
      </trkpt>
      <trkpt lat="44.65417" lon="5.72144">
        <ele>1046.3</ele>
        <time>2015-06-30T07:13:43Z</time>
      </trkpt>
      <trkpt lat="44.65415" lon="5.72152">
        <ele>1046.5</ele>
        <time>2015-06-30T07:13:48Z</time>
      </trkpt>
      <trkpt lat="44.65413" lon="5.72155">
        <ele>1048.8</ele>
        <time>2015-06-30T07:13:53Z</time>
      </trkpt>
      <trkpt lat="44.65414" lon="5.72153">
        <ele>1050.7</ele>
        <time>2015-06-30T07:13:58Z</time>
      </trkpt>
      <trkpt lat="44.65415" lon="5.72152">
        <ele>1052.3</ele>
        <time>2015-06-30T07:14:03Z</time>
      </trkpt>
      <trkpt lat="44.65416" lon="5.72153">
        <ele>1052.6</ele>
        <time>2015-06-30T07:14:08Z</time>
      </trkpt>
      <trkpt lat="44.65414" lon="5.72152">
        <ele>1052.3</ele>
        <time>2015-06-30T07:14:13Z</time>
      </trkpt>
      <trkpt lat="44.65413" lon="5.7216">
        <ele>1049.9</ele>
        <time>2015-06-30T07:14:18Z</time>
      </trkpt>
      <trkpt lat="44.6541" lon="5.72167">
        <ele>1051</ele>
        <time>2015-06-30T07:14:23Z</time>
      </trkpt>
      <trkpt lat="44.6541" lon="5.72174">
        <ele>1052.2</ele>
        <time>2015-06-30T07:14:28Z</time>
      </trkpt>
      <trkpt lat="44.65413" lon="5.72181">
        <ele>1052.4</ele>
        <time>2015-06-30T07:14:33Z</time>
      </trkpt>
      <trkpt lat="44.65413" lon="5.7219">
        <ele>1051.8</ele>
        <time>2015-06-30T07:14:38Z</time>
      </trkpt>
      <trkpt lat="44.65413" lon="5.72199">
        <ele>1054.1</ele>
        <time>2015-06-30T07:14:43Z</time>
      </trkpt>
      <trkpt lat="44.65413" lon="5.72208">
        <ele>1054.2</ele>
        <time>2015-06-30T07:14:48Z</time>
      </trkpt>
      <trkpt lat="44.65414" lon="5.72218">
        <ele>1057</ele>
        <time>2015-06-30T07:14:53Z</time>
      </trkpt>
      <trkpt lat="44.65413" lon="5.72226">
        <ele>1058.6</ele>
        <time>2015-06-30T07:14:58Z</time>
      </trkpt>
      <trkpt lat="44.65413" lon="5.72234">
        <ele>1060.7</ele>
        <time>2015-06-30T07:15:03Z</time>
      </trkpt>
      <trkpt lat="44.65412" lon="5.72243">
        <ele>1062.7</ele>
        <time>2015-06-30T07:15:08Z</time>
      </trkpt>
      <trkpt lat="44.6541" lon="5.72251">
        <ele>1064.6</ele>
        <time>2015-06-30T07:15:13Z</time>
      </trkpt>
      <trkpt lat="44.65409" lon="5.7226">
        <ele>1066</ele>
        <time>2015-06-30T07:15:18Z</time>
      </trkpt>
      <trkpt lat="44.65406" lon="5.72267">
        <ele>1067.4</ele>
        <time>2015-06-30T07:15:23Z</time>
      </trkpt>
      <trkpt lat="44.65404" lon="5.72275">
        <ele>1068.6</ele>
        <time>2015-06-30T07:15:28Z</time>
      </trkpt>
      <trkpt lat="44.65402" lon="5.72283">
        <ele>1069.4</ele>
        <time>2015-06-30T07:15:33Z</time>
      </trkpt>
      <trkpt lat="44.65402" lon="5.72291">
        <ele>1070.2</ele>
        <time>2015-06-30T07:15:38Z</time>
      </trkpt>
      <trkpt lat="44.65402" lon="5.72298">
        <ele>1071</ele>
        <time>2015-06-30T07:15:43Z</time>
      </trkpt>
      <trkpt lat="44.65401" lon="5.72306">
        <ele>1071</ele>
        <time>2015-06-30T07:15:48Z</time>
      </trkpt>
      <trkpt lat="44.65401" lon="5.72313">
        <ele>1069.7</ele>
        <time>2015-06-30T07:15:53Z</time>
      </trkpt>
      <trkpt lat="44.65401" lon="5.72321">
        <ele>1069</ele>
        <time>2015-06-30T07:15:58Z</time>
      </trkpt>
      <trkpt lat="44.654" lon="5.7233">
        <ele>1068.9</ele>
        <time>2015-06-30T07:16:03Z</time>
      </trkpt>
      <trkpt lat="44.65399" lon="5.7234">
        <ele>1068.6</ele>
        <time>2015-06-30T07:16:08Z</time>
      </trkpt>
      <trkpt lat="44.65398" lon="5.7235">
        <ele>1068.7</ele>
        <time>2015-06-30T07:16:13Z</time>
      </trkpt>
      <trkpt lat="44.65397" lon="5.72359">
        <ele>1068.8</ele>
        <time>2015-06-30T07:16:18Z</time>
      </trkpt>
      <trkpt lat="44.65395" lon="5.72368">
        <ele>1069</ele>
        <time>2015-06-30T07:16:23Z</time>
      </trkpt>
      <trkpt lat="44.65389" lon="5.72378">
        <ele>1070.6</ele>
        <time>2015-06-30T07:16:28Z</time>
      </trkpt>
      <trkpt lat="44.65385" lon="5.72387">
        <ele>1069.4</ele>
        <time>2015-06-30T07:16:33Z</time>
      </trkpt>
      <trkpt lat="44.65385" lon="5.72397">
        <ele>1069.7</ele>
        <time>2015-06-30T07:16:38Z</time>
      </trkpt>
      <trkpt lat="44.65382" lon="5.72407">
        <ele>1070.1</ele>
        <time>2015-06-30T07:16:43Z</time>
      </trkpt>
      <trkpt lat="44.65382" lon="5.72416">
        <ele>1070.3</ele>
        <time>2015-06-30T07:16:48Z</time>
      </trkpt>
      <trkpt lat="44.65383" lon="5.72427">
        <ele>1072.1</ele>
        <time>2015-06-30T07:16:53Z</time>
      </trkpt>
      <trkpt lat="44.65384" lon="5.72435">
        <ele>1072.4</ele>
        <time>2015-06-30T07:16:58Z</time>
      </trkpt>
      <trkpt lat="44.65385" lon="5.72445">
        <ele>1073.6</ele>
        <time>2015-06-30T07:17:03Z</time>
      </trkpt>
      <trkpt lat="44.65388" lon="5.72455">
        <ele>1074.4</ele>
        <time>2015-06-30T07:17:08Z</time>
      </trkpt>
      <trkpt lat="44.6539" lon="5.72462">
        <ele>1073.3</ele>
        <time>2015-06-30T07:17:13Z</time>
      </trkpt>
      <trkpt lat="44.6539" lon="5.72464">
        <ele>1073.4</ele>
        <time>2015-06-30T07:17:18Z</time>
      </trkpt>
      <trkpt lat="44.65391" lon="5.72465">
        <ele>1073.2</ele>
        <time>2015-06-30T07:17:23Z</time>
      </trkpt>
      <trkpt lat="44.6539" lon="5.72465">
        <ele>1073.6</ele>
        <time>2015-06-30T07:17:28Z</time>
      </trkpt>
      <trkpt lat="44.65389" lon="5.72471">
        <ele>1074.5</ele>
        <time>2015-06-30T07:17:33Z</time>
      </trkpt>
      <trkpt lat="44.65388" lon="5.72479">
        <ele>1073.4</ele>
        <time>2015-06-30T07:17:38Z</time>
      </trkpt>
      <trkpt lat="44.65387" lon="5.72487">
        <ele>1072.6</ele>
        <time>2015-06-30T07:17:43Z</time>
      </trkpt>
      <trkpt lat="44.65388" lon="5.72495">
        <ele>1073.5</ele>
        <time>2015-06-30T07:17:48Z</time>
      </trkpt>
      <trkpt lat="44.6539" lon="5.72503">
        <ele>1076.4</ele>
        <time>2015-06-30T07:17:53Z</time>
      </trkpt>
      <trkpt lat="44.65389" lon="5.72511">
        <ele>1076</ele>
        <time>2015-06-30T07:17:58Z</time>
      </trkpt>
      <trkpt lat="44.65388" lon="5.7252">
        <ele>1076.6</ele>
        <time>2015-06-30T07:18:03Z</time>
      </trkpt>
      <trkpt lat="44.65389" lon="5.72529">
        <ele>1077.9</ele>
        <time>2015-06-30T07:18:08Z</time>
      </trkpt>
      <trkpt lat="44.65388" lon="5.72538">
        <ele>1076.1</ele>
        <time>2015-06-30T07:18:13Z</time>
      </trkpt>
      <trkpt lat="44.65388" lon="5.72548">
        <ele>1077.5</ele>
        <time>2015-06-30T07:18:18Z</time>
      </trkpt>
      <trkpt lat="44.65387" lon="5.72557">
        <ele>1078.1</ele>
        <time>2015-06-30T07:18:23Z</time>
      </trkpt>
      <trkpt lat="44.65385" lon="5.72565">
        <ele>1076.2</ele>
        <time>2015-06-30T07:18:28Z</time>
      </trkpt>
      <trkpt lat="44.65386" lon="5.72574">
        <ele>1077.6</ele>
        <time>2015-06-30T07:18:33Z</time>
      </trkpt>
      <trkpt lat="44.65384" lon="5.72582">
        <ele>1077.6</ele>
        <time>2015-06-30T07:18:38Z</time>
      </trkpt>
      <trkpt lat="44.65382" lon="5.72591">
        <ele>1078.6</ele>
        <time>2015-06-30T07:18:43Z</time>
      </trkpt>
      <trkpt lat="44.6538" lon="5.726">
        <ele>1078.9</ele>
        <time>2015-06-30T07:18:48Z</time>
      </trkpt>
      <trkpt lat="44.65379" lon="5.72609">
        <ele>1079.8</ele>
        <time>2015-06-30T07:18:53Z</time>
      </trkpt>
      <trkpt lat="44.65377" lon="5.72619">
        <ele>1079.7</ele>
        <time>2015-06-30T07:18:58Z</time>
      </trkpt>
      <trkpt lat="44.65377" lon="5.72628">
        <ele>1079.7</ele>
        <time>2015-06-30T07:19:03Z</time>
      </trkpt>
      <trkpt lat="44.65376" lon="5.72636">
        <ele>1080</ele>
        <time>2015-06-30T07:19:08Z</time>
      </trkpt>
      <trkpt lat="44.65373" lon="5.72643">
        <ele>1080.4</ele>
        <time>2015-06-30T07:19:13Z</time>
      </trkpt>
      <trkpt lat="44.65368" lon="5.72649">
        <ele>1079.1</ele>
        <time>2015-06-30T07:19:18Z</time>
      </trkpt>
      <trkpt lat="44.65365" lon="5.72655">
        <ele>1078.5</ele>
        <time>2015-06-30T07:19:23Z</time>
      </trkpt>
      <trkpt lat="44.65361" lon="5.72661">
        <ele>1078.6</ele>
        <time>2015-06-30T07:19:28Z</time>
      </trkpt>
      <trkpt lat="44.65356" lon="5.72665">
        <ele>1078.3</ele>
        <time>2015-06-30T07:19:33Z</time>
      </trkpt>
      <trkpt lat="44.65352" lon="5.7267">
        <ele>1077.2</ele>
        <time>2015-06-30T07:19:38Z</time>
      </trkpt>
      <trkpt lat="44.65348" lon="5.72675">
        <ele>1076.2</ele>
        <time>2015-06-30T07:19:43Z</time>
      </trkpt>
      <trkpt lat="44.65343" lon="5.72679">
        <ele>1075.5</ele>
        <time>2015-06-30T07:19:48Z</time>
      </trkpt>
      <trkpt lat="44.65337" lon="5.72683">
        <ele>1074.4</ele>
        <time>2015-06-30T07:19:53Z</time>
      </trkpt>
      <trkpt lat="44.65331" lon="5.72687">
        <ele>1074.4</ele>
        <time>2015-06-30T07:19:58Z</time>
      </trkpt>
      <trkpt lat="44.65325" lon="5.72692">
        <ele>1074</ele>
        <time>2015-06-30T07:20:03Z</time>
      </trkpt>
      <trkpt lat="44.65318" lon="5.72696">
        <ele>1073.9</ele>
        <time>2015-06-30T07:20:08Z</time>
      </trkpt>
      <trkpt lat="44.65315" lon="5.72701">
        <ele>1074.4</ele>
        <time>2015-06-30T07:20:13Z</time>
      </trkpt>
      <trkpt lat="44.65308" lon="5.72703">
        <ele>1075.1</ele>
        <time>2015-06-30T07:20:18Z</time>
      </trkpt>
      <trkpt lat="44.653" lon="5.72707">
        <ele>1075.4</ele>
        <time>2015-06-30T07:20:23Z</time>
      </trkpt>
      <trkpt lat="44.65295" lon="5.72711">
        <ele>1072.9</ele>
        <time>2015-06-30T07:20:28Z</time>
      </trkpt>
      <trkpt lat="44.6529" lon="5.72714">
        <ele>1071.3</ele>
        <time>2015-06-30T07:20:33Z</time>
      </trkpt>
      <trkpt lat="44.65287" lon="5.72718">
        <ele>1069.5</ele>
        <time>2015-06-30T07:20:38Z</time>
      </trkpt>
      <trkpt lat="44.65283" lon="5.72721">
        <ele>1068.6</ele>
        <time>2015-06-30T07:20:43Z</time>
      </trkpt>
      <trkpt lat="44.65276" lon="5.72725">
        <ele>1067.4</ele>
        <time>2015-06-30T07:20:48Z</time>
      </trkpt>
      <trkpt lat="44.65272" lon="5.72729">
        <ele>1065.4</ele>
        <time>2015-06-30T07:20:53Z</time>
      </trkpt>
      <trkpt lat="44.65267" lon="5.72733">
        <ele>1066.7</ele>
        <time>2015-06-30T07:20:58Z</time>
      </trkpt>
      <trkpt lat="44.65258" lon="5.72737">
        <ele>1067.1</ele>
        <time>2015-06-30T07:21:03Z</time>
      </trkpt>
      <trkpt lat="44.65252" lon="5.72742">
        <ele>1067.2</ele>
        <time>2015-06-30T07:21:08Z</time>
      </trkpt>
      <trkpt lat="44.65246" lon="5.72746">
        <ele>1068</ele>
        <time>2015-06-30T07:21:13Z</time>
      </trkpt>
      <trkpt lat="44.65241" lon="5.72752">
        <ele>1067.4</ele>
        <time>2015-06-30T07:21:18Z</time>
      </trkpt>
      <trkpt lat="44.65236" lon="5.72758">
        <ele>1066</ele>
        <time>2015-06-30T07:21:23Z</time>
      </trkpt>
      <trkpt lat="44.65235" lon="5.72766">
        <ele>1067</ele>
        <time>2015-06-30T07:21:28Z</time>
      </trkpt>
      <trkpt lat="44.65235" lon="5.72773">
        <ele>1069.4</ele>
        <time>2015-06-30T07:21:33Z</time>
      </trkpt>
      <trkpt lat="44.65236" lon="5.72782">
        <ele>1071.7</ele>
        <time>2015-06-30T07:21:38Z</time>
      </trkpt>
      <trkpt lat="44.65234" lon="5.72791">
        <ele>1070.6</ele>
        <time>2015-06-30T07:21:43Z</time>
      </trkpt>
      <trkpt lat="44.65232" lon="5.728">
        <ele>1072</ele>
        <time>2015-06-30T07:21:48Z</time>
      </trkpt>
      <trkpt lat="44.6523" lon="5.72809">
        <ele>1070.1</ele>
        <time>2015-06-30T07:21:53Z</time>
      </trkpt>
      <trkpt lat="44.65228" lon="5.72818">
        <ele>1069.3</ele>
        <time>2015-06-30T07:21:58Z</time>
      </trkpt>
      <trkpt lat="44.65225" lon="5.72827">
        <ele>1069.4</ele>
        <time>2015-06-30T07:22:03Z</time>
      </trkpt>
      <trkpt lat="44.65225" lon="5.72836">
        <ele>1070.9</ele>
        <time>2015-06-30T07:22:08Z</time>
      </trkpt>
      <trkpt lat="44.65222" lon="5.72845">
        <ele>1070.2</ele>
        <time>2015-06-30T07:22:13Z</time>
      </trkpt>
      <trkpt lat="44.65218" lon="5.72852">
        <ele>1069.5</ele>
        <time>2015-06-30T07:22:18Z</time>
      </trkpt>
      <trkpt lat="44.65214" lon="5.72859">
        <ele>1069.6</ele>
        <time>2015-06-30T07:22:23Z</time>
      </trkpt>
      <trkpt lat="44.65209" lon="5.72864">
        <ele>1069.6</ele>
        <time>2015-06-30T07:22:28Z</time>
      </trkpt>
      <trkpt lat="44.65205" lon="5.72871">
        <ele>1070.1</ele>
        <time>2015-06-30T07:22:33Z</time>
      </trkpt>
      <trkpt lat="44.65199" lon="5.72877">
        <ele>1069.7</ele>
        <time>2015-06-30T07:22:38Z</time>
      </trkpt>
      <trkpt lat="44.65195" lon="5.72883">
        <ele>1069.5</ele>
        <time>2015-06-30T07:22:43Z</time>
      </trkpt>
      <trkpt lat="44.65192" lon="5.72889">
        <ele>1068.9</ele>
        <time>2015-06-30T07:22:48Z</time>
      </trkpt>
      <trkpt lat="44.65187" lon="5.72896">
        <ele>1067.2</ele>
        <time>2015-06-30T07:22:53Z</time>
      </trkpt>
      <trkpt lat="44.65183" lon="5.72902">
        <ele>1066.9</ele>
        <time>2015-06-30T07:22:58Z</time>
      </trkpt>
      <trkpt lat="44.65179" lon="5.72908">
        <ele>1067.1</ele>
        <time>2015-06-30T07:23:03Z</time>
      </trkpt>
      <trkpt lat="44.65175" lon="5.72912">
        <ele>1069.1</ele>
        <time>2015-06-30T07:23:08Z</time>
      </trkpt>
      <trkpt lat="44.65172" lon="5.72915">
        <ele>1068.6</ele>
        <time>2015-06-30T07:23:13Z</time>
      </trkpt>
      <trkpt lat="44.65168" lon="5.72921">
        <ele>1068</ele>
        <time>2015-06-30T07:23:18Z</time>
      </trkpt>
      <trkpt lat="44.65165" lon="5.72927">
        <ele>1068.1</ele>
        <time>2015-06-30T07:23:23Z</time>
      </trkpt>
      <trkpt lat="44.65159" lon="5.72933">
        <ele>1067.7</ele>
        <time>2015-06-30T07:23:28Z</time>
      </trkpt>
      <trkpt lat="44.65154" lon="5.7294">
        <ele>1067.8</ele>
        <time>2015-06-30T07:23:33Z</time>
      </trkpt>
      <trkpt lat="44.65149" lon="5.72947">
        <ele>1068.1</ele>
        <time>2015-06-30T07:23:38Z</time>
      </trkpt>
      <trkpt lat="44.65145" lon="5.72953">
        <ele>1068.2</ele>
        <time>2015-06-30T07:23:43Z</time>
      </trkpt>
      <trkpt lat="44.65143" lon="5.72961">
        <ele>1068.4</ele>
        <time>2015-06-30T07:23:48Z</time>
      </trkpt>
      <trkpt lat="44.6514" lon="5.72968">
        <ele>1069.3</ele>
        <time>2015-06-30T07:23:53Z</time>
      </trkpt>
      <trkpt lat="44.65138" lon="5.72976">
        <ele>1070.7</ele>
        <time>2015-06-30T07:23:58Z</time>
      </trkpt>
      <trkpt lat="44.65136" lon="5.72985">
        <ele>1072.1</ele>
        <time>2015-06-30T07:24:03Z</time>
      </trkpt>
      <trkpt lat="44.65136" lon="5.72994">
        <ele>1073</ele>
        <time>2015-06-30T07:24:08Z</time>
      </trkpt>
      <trkpt lat="44.65135" lon="5.73002">
        <ele>1073.6</ele>
        <time>2015-06-30T07:24:13Z</time>
      </trkpt>
      <trkpt lat="44.65133" lon="5.73012">
        <ele>1074.5</ele>
        <time>2015-06-30T07:24:18Z</time>
      </trkpt>
      <trkpt lat="44.65132" lon="5.73021">
        <ele>1072.4</ele>
        <time>2015-06-30T07:24:23Z</time>
      </trkpt>
      <trkpt lat="44.6513" lon="5.73029">
        <ele>1072.4</ele>
        <time>2015-06-30T07:24:28Z</time>
      </trkpt>
      <trkpt lat="44.6513" lon="5.73039">
        <ele>1074.4</ele>
        <time>2015-06-30T07:24:33Z</time>
      </trkpt>
      <trkpt lat="44.65128" lon="5.73047">
        <ele>1074.9</ele>
        <time>2015-06-30T07:24:38Z</time>
      </trkpt>
      <trkpt lat="44.65127" lon="5.73056">
        <ele>1075.7</ele>
        <time>2015-06-30T07:24:43Z</time>
      </trkpt>
      <trkpt lat="44.65125" lon="5.73064">
        <ele>1075.9</ele>
        <time>2015-06-30T07:24:48Z</time>
      </trkpt>
      <trkpt lat="44.65123" lon="5.73071">
        <ele>1076.7</ele>
        <time>2015-06-30T07:24:53Z</time>
      </trkpt>
      <trkpt lat="44.65121" lon="5.7308">
        <ele>1077.6</ele>
        <time>2015-06-30T07:24:58Z</time>
      </trkpt>
      <trkpt lat="44.65119" lon="5.73088">
        <ele>1078.8</ele>
        <time>2015-06-30T07:25:03Z</time>
      </trkpt>
      <trkpt lat="44.65117" lon="5.73097">
        <ele>1079.4</ele>
        <time>2015-06-30T07:25:08Z</time>
      </trkpt>
      <trkpt lat="44.65116" lon="5.73105">
        <ele>1079.7</ele>
        <time>2015-06-30T07:25:13Z</time>
      </trkpt>
      <trkpt lat="44.65115" lon="5.73112">
        <ele>1076.5</ele>
        <time>2015-06-30T07:25:18Z</time>
      </trkpt>
      <trkpt lat="44.65112" lon="5.7312">
        <ele>1075.6</ele>
        <time>2015-06-30T07:25:23Z</time>
      </trkpt>
      <trkpt lat="44.6511" lon="5.73127">
        <ele>1075.5</ele>
        <time>2015-06-30T07:25:28Z</time>
      </trkpt>
      <trkpt lat="44.6511" lon="5.73136">
        <ele>1078.2</ele>
        <time>2015-06-30T07:25:33Z</time>
      </trkpt>
      <trkpt lat="44.6511" lon="5.73144">
        <ele>1077.3</ele>
        <time>2015-06-30T07:25:38Z</time>
      </trkpt>
      <trkpt lat="44.6511" lon="5.73152">
        <ele>1075.5</ele>
        <time>2015-06-30T07:25:43Z</time>
      </trkpt>
      <trkpt lat="44.65108" lon="5.7316">
        <ele>1075.6</ele>
        <time>2015-06-30T07:25:48Z</time>
      </trkpt>
      <trkpt lat="44.65107" lon="5.73168">
        <ele>1075.5</ele>
        <time>2015-06-30T07:25:53Z</time>
      </trkpt>
      <trkpt lat="44.65106" lon="5.73175">
        <ele>1078.5</ele>
        <time>2015-06-30T07:25:58Z</time>
      </trkpt>
      <trkpt lat="44.65107" lon="5.73183">
        <ele>1078.1</ele>
        <time>2015-06-30T07:26:03Z</time>
      </trkpt>
      <trkpt lat="44.65106" lon="5.73189">
        <ele>1077.4</ele>
        <time>2015-06-30T07:26:08Z</time>
      </trkpt>
      <trkpt lat="44.65106" lon="5.73193">
        <ele>1078</ele>
        <time>2015-06-30T07:26:13Z</time>
      </trkpt>
      <trkpt lat="44.65104" lon="5.732">
        <ele>1076.8</ele>
        <time>2015-06-30T07:26:18Z</time>
      </trkpt>
      <trkpt lat="44.65104" lon="5.73209">
        <ele>1077.1</ele>
        <time>2015-06-30T07:26:23Z</time>
      </trkpt>
      <trkpt lat="44.65102" lon="5.73217">
        <ele>1076.6</ele>
        <time>2015-06-30T07:26:28Z</time>
      </trkpt>
      <trkpt lat="44.65101" lon="5.73225">
        <ele>1076</ele>
        <time>2015-06-30T07:26:33Z</time>
      </trkpt>
      <trkpt lat="44.65101" lon="5.73233">
        <ele>1075.9</ele>
        <time>2015-06-30T07:26:38Z</time>
      </trkpt>
      <trkpt lat="44.65099" lon="5.7324">
        <ele>1076.6</ele>
        <time>2015-06-30T07:26:43Z</time>
      </trkpt>
      <trkpt lat="44.651" lon="5.73248">
        <ele>1082</ele>
        <time>2015-06-30T07:26:48Z</time>
      </trkpt>
      <trkpt lat="44.65098" lon="5.73254">
        <ele>1084</ele>
        <time>2015-06-30T07:26:53Z</time>
      </trkpt>
      <trkpt lat="44.65094" lon="5.73261">
        <ele>1085.3</ele>
        <time>2015-06-30T07:26:58Z</time>
      </trkpt>
      <trkpt lat="44.65089" lon="5.73266">
        <ele>1088.1</ele>
        <time>2015-06-30T07:27:03Z</time>
      </trkpt>
      <trkpt lat="44.65085" lon="5.73271">
        <ele>1085.8</ele>
        <time>2015-06-30T07:27:08Z</time>
      </trkpt>
      <trkpt lat="44.65082" lon="5.73278">
        <ele>1085.3</ele>
        <time>2015-06-30T07:27:13Z</time>
      </trkpt>
      <trkpt lat="44.65079" lon="5.73284">
        <ele>1083.9</ele>
        <time>2015-06-30T07:27:18Z</time>
      </trkpt>
      <trkpt lat="44.65079" lon="5.7329">
        <ele>1083.6</ele>
        <time>2015-06-30T07:27:23Z</time>
      </trkpt>
      <trkpt lat="44.65076" lon="5.73294">
        <ele>1082.4</ele>
        <time>2015-06-30T07:27:28Z</time>
      </trkpt>
      <trkpt lat="44.65074" lon="5.73301">
        <ele>1083.8</ele>
        <time>2015-06-30T07:27:33Z</time>
      </trkpt>
      <trkpt lat="44.65071" lon="5.7331">
        <ele>1085</ele>
        <time>2015-06-30T07:27:38Z</time>
      </trkpt>
      <trkpt lat="44.65069" lon="5.73318">
        <ele>1087.3</ele>
        <time>2015-06-30T07:27:43Z</time>
      </trkpt>
      <trkpt lat="44.65066" lon="5.73326">
        <ele>1086.8</ele>
        <time>2015-06-30T07:27:48Z</time>
      </trkpt>
      <trkpt lat="44.65063" lon="5.73334">
        <ele>1087</ele>
        <time>2015-06-30T07:27:53Z</time>
      </trkpt>
      <trkpt lat="44.65059" lon="5.73341">
        <ele>1086.9</ele>
        <time>2015-06-30T07:27:58Z</time>
      </trkpt>
      <trkpt lat="44.65057" lon="5.73349">
        <ele>1086.6</ele>
        <time>2015-06-30T07:28:03Z</time>
      </trkpt>
      <trkpt lat="44.65056" lon="5.73359">
        <ele>1086.8</ele>
        <time>2015-06-30T07:28:08Z</time>
      </trkpt>
      <trkpt lat="44.65055" lon="5.73368">
        <ele>1087.5</ele>
        <time>2015-06-30T07:28:13Z</time>
      </trkpt>
      <trkpt lat="44.65054" lon="5.73377">
        <ele>1086.6</ele>
        <time>2015-06-30T07:28:18Z</time>
      </trkpt>
      <trkpt lat="44.65052" lon="5.73386">
        <ele>1086.3</ele>
        <time>2015-06-30T07:28:23Z</time>
      </trkpt>
      <trkpt lat="44.65052" lon="5.73395">
        <ele>1086.4</ele>
        <time>2015-06-30T07:28:28Z</time>
      </trkpt>
      <trkpt lat="44.65051" lon="5.73404">
        <ele>1086.2</ele>
        <time>2015-06-30T07:28:33Z</time>
      </trkpt>
      <trkpt lat="44.65049" lon="5.73413">
        <ele>1086.1</ele>
        <time>2015-06-30T07:28:38Z</time>
      </trkpt>
      <trkpt lat="44.65048" lon="5.73421">
        <ele>1086</ele>
        <time>2015-06-30T07:28:43Z</time>
      </trkpt>
      <trkpt lat="44.65046" lon="5.7343">
        <ele>1086.3</ele>
        <time>2015-06-30T07:28:48Z</time>
      </trkpt>
      <trkpt lat="44.65047" lon="5.73439">
        <ele>1086.2</ele>
        <time>2015-06-30T07:28:53Z</time>
      </trkpt>
      <trkpt lat="44.65046" lon="5.73447">
        <ele>1086.6</ele>
        <time>2015-06-30T07:28:58Z</time>
      </trkpt>
      <trkpt lat="44.65044" lon="5.73457">
        <ele>1087.8</ele>
        <time>2015-06-30T07:29:03Z</time>
      </trkpt>
      <trkpt lat="44.65042" lon="5.73465">
        <ele>1089.1</ele>
        <time>2015-06-30T07:29:08Z</time>
      </trkpt>
      <trkpt lat="44.65039" lon="5.73472">
        <ele>1092.3</ele>
        <time>2015-06-30T07:29:13Z</time>
      </trkpt>
      <trkpt lat="44.65036" lon="5.73475">
        <ele>1097.4</ele>
        <time>2015-06-30T07:29:18Z</time>
      </trkpt>
      <trkpt lat="44.65033" lon="5.7348">
        <ele>1105.9</ele>
        <time>2015-06-30T07:29:23Z</time>
      </trkpt>
      <trkpt lat="44.65027" lon="5.73485">
        <ele>1113.4</ele>
        <time>2015-06-30T07:29:28Z</time>
      </trkpt>
      <trkpt lat="44.65024" lon="5.73488">
        <ele>1115.4</ele>
        <time>2015-06-30T07:29:33Z</time>
      </trkpt>
      <trkpt lat="44.65029" lon="5.73486">
        <ele>1111.4</ele>
        <time>2015-06-30T07:29:38Z</time>
      </trkpt>
      <trkpt lat="44.65024" lon="5.73486">
        <ele>1113</ele>
        <time>2015-06-30T07:29:43Z</time>
      </trkpt>
      <trkpt lat="44.65017" lon="5.7349">
        <ele>1115.3</ele>
        <time>2015-06-30T07:29:48Z</time>
      </trkpt>
      <trkpt lat="44.65015" lon="5.73496">
        <ele>1118.4</ele>
        <time>2015-06-30T07:29:53Z</time>
      </trkpt>
      <trkpt lat="44.65012" lon="5.73507">
        <ele>1115.6</ele>
        <time>2015-06-30T07:29:58Z</time>
      </trkpt>
      <trkpt lat="44.65009" lon="5.73515">
        <ele>1107.8</ele>
        <time>2015-06-30T07:30:03Z</time>
      </trkpt>
      <trkpt lat="44.65005" lon="5.73521">
        <ele>1103</ele>
        <time>2015-06-30T07:30:08Z</time>
      </trkpt>
      <trkpt lat="44.65" lon="5.73528">
        <ele>1097.6</ele>
        <time>2015-06-30T07:30:13Z</time>
      </trkpt>
      <trkpt lat="44.64994" lon="5.73534">
        <ele>1092.8</ele>
        <time>2015-06-30T07:30:18Z</time>
      </trkpt>
      <trkpt lat="44.6499" lon="5.73542">
        <ele>1087.2</ele>
        <time>2015-06-30T07:30:23Z</time>
      </trkpt>
      <trkpt lat="44.6499" lon="5.73553">
        <ele>1087.2</ele>
        <time>2015-06-30T07:30:28Z</time>
      </trkpt>
      <trkpt lat="44.64988" lon="5.73562">
        <ele>1084.9</ele>
        <time>2015-06-30T07:30:33Z</time>
      </trkpt>
      <trkpt lat="44.64989" lon="5.73572">
        <ele>1083</ele>
        <time>2015-06-30T07:30:38Z</time>
      </trkpt>
      <trkpt lat="44.64981" lon="5.73577">
        <ele>1082</ele>
        <time>2015-06-30T07:30:43Z</time>
      </trkpt>
      <trkpt lat="44.64983" lon="5.73589">
        <ele>1086.2</ele>
        <time>2015-06-30T07:30:48Z</time>
      </trkpt>
      <trkpt lat="44.64979" lon="5.73596">
        <ele>1090.1</ele>
        <time>2015-06-30T07:30:53Z</time>
      </trkpt>
      <trkpt lat="44.64967" lon="5.736">
        <ele>1093.9</ele>
        <time>2015-06-30T07:30:58Z</time>
      </trkpt>
      <trkpt lat="44.64951" lon="5.73599">
        <ele>1096.3</ele>
        <time>2015-06-30T07:31:03Z</time>
      </trkpt>
      <trkpt lat="44.64941" lon="5.73603">
        <ele>1102.5</ele>
        <time>2015-06-30T07:31:08Z</time>
      </trkpt>
      <trkpt lat="44.64934" lon="5.73604">
        <ele>1106</ele>
        <time>2015-06-30T07:31:13Z</time>
      </trkpt>
      <trkpt lat="44.64935" lon="5.73613">
        <ele>1104.2</ele>
        <time>2015-06-30T07:31:18Z</time>
      </trkpt>
      <trkpt lat="44.64942" lon="5.73626">
        <ele>1104.1</ele>
        <time>2015-06-30T07:31:23Z</time>
      </trkpt>
      <trkpt lat="44.64932" lon="5.73628">
        <ele>1098.1</ele>
        <time>2015-06-30T07:31:28Z</time>
      </trkpt>
      <trkpt lat="44.64927" lon="5.73632">
        <ele>1097.9</ele>
        <time>2015-06-30T07:31:33Z</time>
      </trkpt>
      <trkpt lat="44.64921" lon="5.7364">
        <ele>1097.3</ele>
        <time>2015-06-30T07:31:38Z</time>
      </trkpt>
      <trkpt lat="44.6492" lon="5.73651">
        <ele>1099.4</ele>
        <time>2015-06-30T07:31:43Z</time>
      </trkpt>
      <trkpt lat="44.64916" lon="5.73656">
        <ele>1100.6</ele>
        <time>2015-06-30T07:31:48Z</time>
      </trkpt>
      <trkpt lat="44.64912" lon="5.73662">
        <ele>1099.4</ele>
        <time>2015-06-30T07:31:53Z</time>
      </trkpt>
      <trkpt lat="44.64909" lon="5.73669">
        <ele>1096.9</ele>
        <time>2015-06-30T07:31:58Z</time>
      </trkpt>
      <trkpt lat="44.64902" lon="5.73671">
        <ele>1096.6</ele>
        <time>2015-06-30T07:32:03Z</time>
      </trkpt>
      <trkpt lat="44.64889" lon="5.73673">
        <ele>1089.7</ele>
        <time>2015-06-30T07:32:08Z</time>
      </trkpt>
      <trkpt lat="44.64881" lon="5.73677">
        <ele>1082.3</ele>
        <time>2015-06-30T07:32:13Z</time>
      </trkpt>
      <trkpt lat="44.64875" lon="5.73682">
        <ele>1077.8</ele>
        <time>2015-06-30T07:32:18Z</time>
      </trkpt>
      <trkpt lat="44.64877" lon="5.73692">
        <ele>1078.3</ele>
        <time>2015-06-30T07:32:23Z</time>
      </trkpt>
      <trkpt lat="44.64877" lon="5.73703">
        <ele>1080</ele>
        <time>2015-06-30T07:32:28Z</time>
      </trkpt>
      <trkpt lat="44.64876" lon="5.73713">
        <ele>1086</ele>
        <time>2015-06-30T07:32:33Z</time>
      </trkpt>
      <trkpt lat="44.64877" lon="5.73725">
        <ele>1092.3</ele>
        <time>2015-06-30T07:32:38Z</time>
      </trkpt>
      <trkpt lat="44.64878" lon="5.73733">
        <ele>1092.5</ele>
        <time>2015-06-30T07:32:43Z</time>
      </trkpt>
      <trkpt lat="44.64875" lon="5.7374">
        <ele>1085.2</ele>
        <time>2015-06-30T07:32:48Z</time>
      </trkpt>
      <trkpt lat="44.6488" lon="5.73752">
        <ele>1087.3</ele>
        <time>2015-06-30T07:32:53Z</time>
      </trkpt>
      <trkpt lat="44.64887" lon="5.73766">
        <ele>1092.1</ele>
        <time>2015-06-30T07:32:58Z</time>
      </trkpt>
      <trkpt lat="44.64886" lon="5.73775">
        <ele>1091.8</ele>
        <time>2015-06-30T07:33:03Z</time>
      </trkpt>
      <trkpt lat="44.64883" lon="5.73778">
        <ele>1096.2</ele>
        <time>2015-06-30T07:33:08Z</time>
      </trkpt>
      <trkpt lat="44.64866" lon="5.73776">
        <ele>1101.2</ele>
        <time>2015-06-30T07:33:13Z</time>
      </trkpt>
      <trkpt lat="44.64846" lon="5.73768">
        <ele>1100.8</ele>
        <time>2015-06-30T07:33:18Z</time>
      </trkpt>
      <trkpt lat="44.64839" lon="5.73771">
        <ele>1098.1</ele>
        <time>2015-06-30T07:33:23Z</time>
      </trkpt>
      <trkpt lat="44.64831" lon="5.73773">
        <ele>1096.6</ele>
        <time>2015-06-30T07:33:28Z</time>
      </trkpt>
      <trkpt lat="44.64824" lon="5.73776">
        <ele>1095.2</ele>
        <time>2015-06-30T07:33:33Z</time>
      </trkpt>
      <trkpt lat="44.64818" lon="5.73779">
        <ele>1095</ele>
        <time>2015-06-30T07:33:38Z</time>
      </trkpt>
      <trkpt lat="44.64817" lon="5.73787">
        <ele>1096.9</ele>
        <time>2015-06-30T07:33:43Z</time>
      </trkpt>
      <trkpt lat="44.64833" lon="5.73808">
        <ele>1102.6</ele>
        <time>2015-06-30T07:33:48Z</time>
      </trkpt>
      <trkpt lat="44.64847" lon="5.7383">
        <ele>1105.7</ele>
        <time>2015-06-30T07:33:53Z</time>
      </trkpt>
      <trkpt lat="44.64845" lon="5.73835">
        <ele>1108.2</ele>
        <time>2015-06-30T07:33:58Z</time>
      </trkpt>
      <trkpt lat="44.64855" lon="5.73856">
        <ele>1112.9</ele>
        <time>2015-06-30T07:34:03Z</time>
      </trkpt>
      <trkpt lat="44.64863" lon="5.73868">
        <ele>1116.5</ele>
        <time>2015-06-30T07:34:08Z</time>
      </trkpt>
      <trkpt lat="44.64861" lon="5.73874">
        <ele>1115.5</ele>
        <time>2015-06-30T07:34:13Z</time>
      </trkpt>
      <trkpt lat="44.64856" lon="5.7388">
        <ele>1115.4</ele>
        <time>2015-06-30T07:34:18Z</time>
      </trkpt>
      <trkpt lat="44.64855" lon="5.73885">
        <ele>1112.9</ele>
        <time>2015-06-30T07:34:23Z</time>
      </trkpt>
      <trkpt lat="44.64837" lon="5.73878">
        <ele>1111.5</ele>
        <time>2015-06-30T07:34:28Z</time>
      </trkpt>
      <trkpt lat="44.64827" lon="5.73876">
        <ele>1113.4</ele>
        <time>2015-06-30T07:34:33Z</time>
      </trkpt>
      <trkpt lat="44.64803" lon="5.73863">
        <ele>1114.9</ele>
        <time>2015-06-30T07:34:38Z</time>
      </trkpt>
      <trkpt lat="44.64784" lon="5.73855">
        <ele>1115.7</ele>
        <time>2015-06-30T07:34:43Z</time>
      </trkpt>
      <trkpt lat="44.64778" lon="5.7386">
        <ele>1116.1</ele>
        <time>2015-06-30T07:34:48Z</time>
      </trkpt>
      <trkpt lat="44.64782" lon="5.73873">
        <ele>1114.1</ele>
        <time>2015-06-30T07:34:53Z</time>
      </trkpt>
      <trkpt lat="44.64795" lon="5.73892">
        <ele>1115.7</ele>
        <time>2015-06-30T07:34:58Z</time>
      </trkpt>
      <trkpt lat="44.64787" lon="5.73892">
        <ele>1114.2</ele>
        <time>2015-06-30T07:35:03Z</time>
      </trkpt>
      <trkpt lat="44.64786" lon="5.739">
        <ele>1113.1</ele>
        <time>2015-06-30T07:35:10Z</time>
      </trkpt>
      <trkpt lat="44.64787" lon="5.7392">
        <ele>1108.7</ele>
        <time>2015-06-30T07:35:17Z</time>
      </trkpt>
      <trkpt lat="44.64786" lon="5.73931">
        <ele>1113.2</ele>
        <time>2015-06-30T07:35:22Z</time>
      </trkpt>
      <trkpt lat="44.64784" lon="5.73939">
        <ele>1114.6</ele>
        <time>2015-06-30T07:35:27Z</time>
      </trkpt>
      <trkpt lat="44.64787" lon="5.7395">
        <ele>1115</ele>
        <time>2015-06-30T07:35:32Z</time>
      </trkpt>
      <trkpt lat="44.64784" lon="5.73956">
        <ele>1116.5</ele>
        <time>2015-06-30T07:35:37Z</time>
      </trkpt>
      <trkpt lat="44.64782" lon="5.73962">
        <ele>1115.1</ele>
        <time>2015-06-30T07:35:42Z</time>
      </trkpt>
      <trkpt lat="44.64768" lon="5.7396">
        <ele>1115.6</ele>
        <time>2015-06-30T07:35:47Z</time>
      </trkpt>
      <trkpt lat="44.64761" lon="5.73962">
        <ele>1116.9</ele>
        <time>2015-06-30T07:35:52Z</time>
      </trkpt>
      <trkpt lat="44.64751" lon="5.73963">
        <ele>1113.5</ele>
        <time>2015-06-30T07:35:57Z</time>
      </trkpt>
      <trkpt lat="44.64741" lon="5.73965">
        <ele>1112.3</ele>
        <time>2015-06-30T07:36:02Z</time>
      </trkpt>
      <trkpt lat="44.64716" lon="5.73955">
        <ele>1109.1</ele>
        <time>2015-06-30T07:36:07Z</time>
      </trkpt>
      <trkpt lat="44.64711" lon="5.73962">
        <ele>1106.6</ele>
        <time>2015-06-30T07:36:12Z</time>
      </trkpt>
      <trkpt lat="44.64698" lon="5.73961">
        <ele>1110.9</ele>
        <time>2015-06-30T07:36:17Z</time>
      </trkpt>
      <trkpt lat="44.64696" lon="5.73968">
        <ele>1111.6</ele>
        <time>2015-06-30T07:36:22Z</time>
      </trkpt>
      <trkpt lat="44.64689" lon="5.73971">
        <ele>1108.9</ele>
        <time>2015-06-30T07:36:27Z</time>
      </trkpt>
      <trkpt lat="44.64684" lon="5.73977">
        <ele>1109.5</ele>
        <time>2015-06-30T07:36:32Z</time>
      </trkpt>
      <trkpt lat="44.64685" lon="5.73985">
        <ele>1111.2</ele>
        <time>2015-06-30T07:36:37Z</time>
      </trkpt>
      <trkpt lat="44.64673" lon="5.73983">
        <ele>1104.4</ele>
        <time>2015-06-30T07:36:42Z</time>
      </trkpt>
      <trkpt lat="44.64661" lon="5.73984">
        <ele>1096.3</ele>
        <time>2015-06-30T07:36:47Z</time>
      </trkpt>
      <trkpt lat="44.64644" lon="5.73981">
        <ele>1096.2</ele>
        <time>2015-06-30T07:36:52Z</time>
      </trkpt>
      <trkpt lat="44.64641" lon="5.73988">
        <ele>1097.3</ele>
        <time>2015-06-30T07:36:57Z</time>
      </trkpt>
      <trkpt lat="44.64644" lon="5.73998">
        <ele>1097</ele>
        <time>2015-06-30T07:37:02Z</time>
      </trkpt>
      <trkpt lat="44.6465" lon="5.74014">
        <ele>1098.6</ele>
        <time>2015-06-30T07:37:07Z</time>
      </trkpt>
      <trkpt lat="44.64644" lon="5.74019">
        <ele>1094.5</ele>
        <time>2015-06-30T07:37:12Z</time>
      </trkpt>
      <trkpt lat="44.64634" lon="5.74017">
        <ele>1091.6</ele>
        <time>2015-06-30T07:37:17Z</time>
      </trkpt>
      <trkpt lat="44.64625" lon="5.7402">
        <ele>1091</ele>
        <time>2015-06-30T07:37:22Z</time>
      </trkpt>
      <trkpt lat="44.64619" lon="5.74026">
        <ele>1092.6</ele>
        <time>2015-06-30T07:37:27Z</time>
      </trkpt>
      <trkpt lat="44.6462" lon="5.74038">
        <ele>1092.3</ele>
        <time>2015-06-30T07:37:32Z</time>
      </trkpt>
      <trkpt lat="44.6462" lon="5.74047">
        <ele>1092.5</ele>
        <time>2015-06-30T07:37:37Z</time>
      </trkpt>
      <trkpt lat="44.64626" lon="5.7406">
        <ele>1099.3</ele>
        <time>2015-06-30T07:37:42Z</time>
      </trkpt>
      <trkpt lat="44.6462" lon="5.74065">
        <ele>1106</ele>
        <time>2015-06-30T07:37:47Z</time>
      </trkpt>
      <trkpt lat="44.6462" lon="5.74073">
        <ele>1109.7</ele>
        <time>2015-06-30T07:37:52Z</time>
      </trkpt>
      <trkpt lat="44.6461" lon="5.74072">
        <ele>1100</ele>
        <time>2015-06-30T07:37:57Z</time>
      </trkpt>
      <trkpt lat="44.64592" lon="5.74067">
        <ele>1092.6</ele>
        <time>2015-06-30T07:38:02Z</time>
      </trkpt>
      <trkpt lat="44.64589" lon="5.74073">
        <ele>1096.3</ele>
        <time>2015-06-30T07:38:07Z</time>
      </trkpt>
      <trkpt lat="44.64587" lon="5.74082">
        <ele>1102.8</ele>
        <time>2015-06-30T07:38:12Z</time>
      </trkpt>
      <trkpt lat="44.64586" lon="5.7409">
        <ele>1106.2</ele>
        <time>2015-06-30T07:38:17Z</time>
      </trkpt>
      <trkpt lat="44.64579" lon="5.74093">
        <ele>1103.4</ele>
        <time>2015-06-30T07:38:22Z</time>
      </trkpt>
      <trkpt lat="44.64579" lon="5.74101">
        <ele>1103.3</ele>
        <time>2015-06-30T07:38:27Z</time>
      </trkpt>
      <trkpt lat="44.64582" lon="5.74114">
        <ele>1105.8</ele>
        <time>2015-06-30T07:38:32Z</time>
      </trkpt>
      <trkpt lat="44.64588" lon="5.74126">
        <ele>1109.7</ele>
        <time>2015-06-30T07:38:37Z</time>
      </trkpt>
      <trkpt lat="44.64584" lon="5.7413">
        <ele>1111.8</ele>
        <time>2015-06-30T07:38:42Z</time>
      </trkpt>
      <trkpt lat="44.64585" lon="5.74139">
        <ele>1110</ele>
        <time>2015-06-30T07:38:47Z</time>
      </trkpt>
      <trkpt lat="44.64576" lon="5.74141">
        <ele>1110.1</ele>
        <time>2015-06-30T07:38:52Z</time>
      </trkpt>
      <trkpt lat="44.64569" lon="5.74145">
        <ele>1107.8</ele>
        <time>2015-06-30T07:38:57Z</time>
      </trkpt>
      <trkpt lat="44.64559" lon="5.74147">
        <ele>1108.3</ele>
        <time>2015-06-30T07:39:02Z</time>
      </trkpt>
      <trkpt lat="44.64559" lon="5.74155">
        <ele>1111.2</ele>
        <time>2015-06-30T07:39:07Z</time>
      </trkpt>
      <trkpt lat="44.64561" lon="5.74161">
        <ele>1115.9</ele>
        <time>2015-06-30T07:39:12Z</time>
      </trkpt>
      <trkpt lat="44.6457" lon="5.74168">
        <ele>1115.7</ele>
        <time>2015-06-30T07:39:17Z</time>
      </trkpt>
      <trkpt lat="44.64566" lon="5.74168">
        <ele>1114.7</ele>
        <time>2015-06-30T07:39:22Z</time>
      </trkpt>
      <trkpt lat="44.64559" lon="5.74173">
        <ele>1114.6</ele>
        <time>2015-06-30T07:39:27Z</time>
      </trkpt>
      <trkpt lat="44.64557" lon="5.7418">
        <ele>1114.5</ele>
        <time>2015-06-30T07:39:32Z</time>
      </trkpt>
      <trkpt lat="44.64543" lon="5.74182">
        <ele>1116.3</ele>
        <time>2015-06-30T07:39:37Z</time>
      </trkpt>
      <trkpt lat="44.64533" lon="5.74184">
        <ele>1114.2</ele>
        <time>2015-06-30T07:39:42Z</time>
      </trkpt>
      <trkpt lat="44.64523" lon="5.74185">
        <ele>1099.5</ele>
        <time>2015-06-30T07:39:47Z</time>
      </trkpt>
      <trkpt lat="44.64503" lon="5.74178">
        <ele>1086.4</ele>
        <time>2015-06-30T07:39:52Z</time>
      </trkpt>
      <trkpt lat="44.64493" lon="5.74172">
        <ele>1082.8</ele>
        <time>2015-06-30T07:39:57Z</time>
      </trkpt>
      <trkpt lat="44.64488" lon="5.74174">
        <ele>1085.2</ele>
        <time>2015-06-30T07:40:02Z</time>
      </trkpt>
      <trkpt lat="44.64475" lon="5.74174">
        <ele>1081.5</ele>
        <time>2015-06-30T07:40:07Z</time>
      </trkpt>
      <trkpt lat="44.64454" lon="5.74167">
        <ele>1071.7</ele>
        <time>2015-06-30T07:40:12Z</time>
      </trkpt>
      <trkpt lat="44.64443" lon="5.74168">
        <ele>1071.4</ele>
        <time>2015-06-30T07:40:17Z</time>
      </trkpt>
      <trkpt lat="44.64427" lon="5.74164">
        <ele>1070.9</ele>
        <time>2015-06-30T07:40:22Z</time>
      </trkpt>
      <trkpt lat="44.64414" lon="5.74164">
        <ele>1066.5</ele>
        <time>2015-06-30T07:40:27Z</time>
      </trkpt>
      <trkpt lat="44.64407" lon="5.74163">
        <ele>1065.8</ele>
        <time>2015-06-30T07:40:32Z</time>
      </trkpt>
      <trkpt lat="44.64394" lon="5.74163">
        <ele>1057.1</ele>
        <time>2015-06-30T07:40:37Z</time>
      </trkpt>
      <trkpt lat="44.64388" lon="5.74169">
        <ele>1055.9</ele>
        <time>2015-06-30T07:40:42Z</time>
      </trkpt>
      <trkpt lat="44.64388" lon="5.7418">
        <ele>1059.9</ele>
        <time>2015-06-30T07:40:47Z</time>
      </trkpt>
      <trkpt lat="44.6441" lon="5.74209">
        <ele>1067.6</ele>
        <time>2015-06-30T07:40:52Z</time>
      </trkpt>
      <trkpt lat="44.64462" lon="5.74262">
        <ele>1088.6</ele>
        <time>2015-06-30T07:40:57Z</time>
      </trkpt>
      <trkpt lat="44.64486" lon="5.74289">
        <ele>1096.6</ele>
        <time>2015-06-30T07:41:02Z</time>
      </trkpt>
      <trkpt lat="44.64494" lon="5.74302">
        <ele>1109.1</ele>
        <time>2015-06-30T07:41:07Z</time>
      </trkpt>
      <trkpt lat="44.64517" lon="5.74332">
        <ele>1120.5</ele>
        <time>2015-06-30T07:41:12Z</time>
      </trkpt>
      <trkpt lat="44.64532" lon="5.74353">
        <ele>1128.9</ele>
        <time>2015-06-30T07:41:17Z</time>
      </trkpt>
      <trkpt lat="44.64539" lon="5.74366">
        <ele>1129.2</ele>
        <time>2015-06-30T07:41:22Z</time>
      </trkpt>
      <trkpt lat="44.64549" lon="5.74376">
        <ele>1133.6</ele>
        <time>2015-06-30T07:41:27Z</time>
      </trkpt>
      <trkpt lat="44.64547" lon="5.74385">
        <ele>1134.5</ele>
        <time>2015-06-30T07:41:32Z</time>
      </trkpt>
      <trkpt lat="44.64546" lon="5.74394">
        <ele>1132</ele>
        <time>2015-06-30T07:41:39Z</time>
      </trkpt>
      <trkpt lat="44.6455" lon="5.74408">
        <ele>1131.9</ele>
        <time>2015-06-30T07:41:44Z</time>
      </trkpt>
      <trkpt lat="44.64544" lon="5.74414">
        <ele>1126</ele>
        <time>2015-06-30T07:41:49Z</time>
      </trkpt>
      <trkpt lat="44.64539" lon="5.74421">
        <ele>1119.6</ele>
        <time>2015-06-30T07:41:54Z</time>
      </trkpt>
      <trkpt lat="44.64536" lon="5.74427">
        <ele>1110.1</ele>
        <time>2015-06-30T07:41:59Z</time>
      </trkpt>
      <trkpt lat="44.64529" lon="5.74433">
        <ele>1103</ele>
        <time>2015-06-30T07:42:04Z</time>
      </trkpt>
      <trkpt lat="44.64535" lon="5.74441">
        <ele>1113.6</ele>
        <time>2015-06-30T07:42:09Z</time>
      </trkpt>
      <trkpt lat="44.64536" lon="5.74459">
        <ele>1123</ele>
        <time>2015-06-30T07:42:16Z</time>
      </trkpt>
      <trkpt lat="44.64536" lon="5.74471">
        <ele>1127</ele>
        <time>2015-06-30T07:42:22Z</time>
      </trkpt>
      <trkpt lat="44.64536" lon="5.7448">
        <ele>1121</ele>
        <time>2015-06-30T07:42:27Z</time>
      </trkpt>
      <trkpt lat="44.6453" lon="5.74488">
        <ele>1116.6</ele>
        <time>2015-06-30T07:42:32Z</time>
      </trkpt>
      <trkpt lat="44.64539" lon="5.74496">
        <ele>1125.6</ele>
        <time>2015-06-30T07:42:37Z</time>
      </trkpt>
      <trkpt lat="44.64537" lon="5.74503">
        <ele>1120.7</ele>
        <time>2015-06-30T07:42:42Z</time>
      </trkpt>
      <trkpt lat="44.64532" lon="5.74511">
        <ele>1115.5</ele>
        <time>2015-06-30T07:42:47Z</time>
      </trkpt>
      <trkpt lat="44.64534" lon="5.7452">
        <ele>1124.7</ele>
        <time>2015-06-30T07:42:52Z</time>
      </trkpt>
      <trkpt lat="44.64533" lon="5.74534">
        <ele>1127.9</ele>
        <time>2015-06-30T07:42:57Z</time>
      </trkpt>
      <trkpt lat="44.64534" lon="5.74545">
        <ele>1132.2</ele>
        <time>2015-06-30T07:43:02Z</time>
      </trkpt>
      <trkpt lat="44.64538" lon="5.74555">
        <ele>1135.4</ele>
        <time>2015-06-30T07:43:07Z</time>
      </trkpt>
      <trkpt lat="44.64542" lon="5.74564">
        <ele>1147.9</ele>
        <time>2015-06-30T07:43:12Z</time>
      </trkpt>
      <trkpt lat="44.64549" lon="5.74576">
        <ele>1145.6</ele>
        <time>2015-06-30T07:43:17Z</time>
      </trkpt>
      <trkpt lat="44.64546" lon="5.74578">
        <ele>1133.2</ele>
        <time>2015-06-30T07:43:22Z</time>
      </trkpt>
      <trkpt lat="44.64539" lon="5.74576">
        <ele>1116.6</ele>
        <time>2015-06-30T07:43:27Z</time>
      </trkpt>
      <trkpt lat="44.64543" lon="5.74583">
        <ele>1117.3</ele>
        <time>2015-06-30T07:43:32Z</time>
      </trkpt>
      <trkpt lat="44.64549" lon="5.74585">
        <ele>1127.2</ele>
        <time>2015-06-30T07:43:37Z</time>
      </trkpt>
      <trkpt lat="44.64546" lon="5.7459">
        <ele>1121.4</ele>
        <time>2015-06-30T07:43:42Z</time>
      </trkpt>
      <trkpt lat="44.6455" lon="5.746">
        <ele>1122.9</ele>
        <time>2015-06-30T07:43:47Z</time>
      </trkpt>
      <trkpt lat="44.64547" lon="5.74609">
        <ele>1117.6</ele>
        <time>2015-06-30T07:43:52Z</time>
      </trkpt>
      <trkpt lat="44.64547" lon="5.74615">
        <ele>1118.2</ele>
        <time>2015-06-30T07:43:57Z</time>
      </trkpt>
      <trkpt lat="44.64544" lon="5.7462">
        <ele>1107.7</ele>
        <time>2015-06-30T07:44:02Z</time>
      </trkpt>
      <trkpt lat="44.64538" lon="5.74627">
        <ele>1103.5</ele>
        <time>2015-06-30T07:44:07Z</time>
      </trkpt>
      <trkpt lat="44.64538" lon="5.74634">
        <ele>1105.5</ele>
        <time>2015-06-30T07:44:12Z</time>
      </trkpt>
      <trkpt lat="44.64533" lon="5.7464">
        <ele>1104.5</ele>
        <time>2015-06-30T07:44:17Z</time>
      </trkpt>
      <trkpt lat="44.64531" lon="5.74648">
        <ele>1105</ele>
        <time>2015-06-30T07:44:22Z</time>
      </trkpt>
      <trkpt lat="44.6452" lon="5.74653">
        <ele>1107.4</ele>
        <time>2015-06-30T07:44:28Z</time>
      </trkpt>
      <trkpt lat="44.64497" lon="5.74651">
        <ele>1110.3</ele>
        <time>2015-06-30T07:44:33Z</time>
      </trkpt>
      <trkpt lat="44.64499" lon="5.74668">
        <ele>1119</ele>
        <time>2015-06-30T07:44:39Z</time>
      </trkpt>
      <trkpt lat="44.64508" lon="5.74683">
        <ele>1130.1</ele>
        <time>2015-06-30T07:44:45Z</time>
      </trkpt>
      <trkpt lat="44.64514" lon="5.74703">
        <ele>1132.7</ele>
        <time>2015-06-30T07:44:51Z</time>
      </trkpt>
      <trkpt lat="44.64515" lon="5.74713">
        <ele>1133.1</ele>
        <time>2015-06-30T07:44:56Z</time>
      </trkpt>
      <trkpt lat="44.64512" lon="5.7472">
        <ele>1135.6</ele>
        <time>2015-06-30T07:45:01Z</time>
      </trkpt>
      <trkpt lat="44.64515" lon="5.74731">
        <ele>1140.2</ele>
        <time>2015-06-30T07:45:06Z</time>
      </trkpt>
      <trkpt lat="44.64526" lon="5.74748">
        <ele>1147.6</ele>
        <time>2015-06-30T07:45:15Z</time>
      </trkpt>
      <trkpt lat="44.64522" lon="5.74762">
        <ele>1146.1</ele>
        <time>2015-06-30T07:45:22Z</time>
      </trkpt>
      <trkpt lat="44.64523" lon="5.74769">
        <ele>1150.1</ele>
        <time>2015-06-30T07:45:27Z</time>
      </trkpt>
      <trkpt lat="44.64521" lon="5.74774">
        <ele>1144.7</ele>
        <time>2015-06-30T07:45:32Z</time>
      </trkpt>
      <trkpt lat="44.64533" lon="5.7479">
        <ele>1154.3</ele>
        <time>2015-06-30T07:45:39Z</time>
      </trkpt>
      <trkpt lat="44.64536" lon="5.74798">
        <ele>1152.3</ele>
        <time>2015-06-30T07:45:44Z</time>
      </trkpt>
      <trkpt lat="44.64533" lon="5.74802">
        <ele>1144.3</ele>
        <time>2015-06-30T07:45:49Z</time>
      </trkpt>
      <trkpt lat="44.64526" lon="5.74808">
        <ele>1139.7</ele>
        <time>2015-06-30T07:45:54Z</time>
      </trkpt>
      <trkpt lat="44.64521" lon="5.74817">
        <ele>1139</ele>
        <time>2015-06-30T07:45:59Z</time>
      </trkpt>
      <trkpt lat="44.64519" lon="5.74824">
        <ele>1132.3</ele>
        <time>2015-06-30T07:46:04Z</time>
      </trkpt>
      <trkpt lat="44.64514" lon="5.74829">
        <ele>1126.9</ele>
        <time>2015-06-30T07:46:09Z</time>
      </trkpt>
      <trkpt lat="44.64513" lon="5.74836">
        <ele>1126.7</ele>
        <time>2015-06-30T07:46:14Z</time>
      </trkpt>
      <trkpt lat="44.64517" lon="5.74841">
        <ele>1124.8</ele>
        <time>2015-06-30T07:46:19Z</time>
      </trkpt>
      <trkpt lat="44.64521" lon="5.74844">
        <ele>1131.2</ele>
        <time>2015-06-30T07:46:24Z</time>
      </trkpt>
      <trkpt lat="44.6452" lon="5.74852">
        <ele>1131.7</ele>
        <time>2015-06-30T07:46:29Z</time>
      </trkpt>
      <trkpt lat="44.6452" lon="5.74862">
        <ele>1139</ele>
        <time>2015-06-30T07:46:34Z</time>
      </trkpt>
      <trkpt lat="44.64518" lon="5.74872">
        <ele>1146.5</ele>
        <time>2015-06-30T07:46:39Z</time>
      </trkpt>
      <trkpt lat="44.64517" lon="5.74882">
        <ele>1151.4</ele>
        <time>2015-06-30T07:46:44Z</time>
      </trkpt>
      <trkpt lat="44.64509" lon="5.74893">
        <ele>1153.8</ele>
        <time>2015-06-30T07:46:51Z</time>
      </trkpt>
      <trkpt lat="44.64504" lon="5.74899">
        <ele>1149.8</ele>
        <time>2015-06-30T07:46:56Z</time>
      </trkpt>
      <trkpt lat="44.64499" lon="5.74902">
        <ele>1151.1</ele>
        <time>2015-06-30T07:47:01Z</time>
      </trkpt>
      <trkpt lat="44.64495" lon="5.74911">
        <ele>1153.3</ele>
        <time>2015-06-30T07:47:06Z</time>
      </trkpt>
      <trkpt lat="44.64494" lon="5.74918">
        <ele>1154.6</ele>
        <time>2015-06-30T07:47:11Z</time>
      </trkpt>
      <trkpt lat="44.64488" lon="5.74925">
        <ele>1144.7</ele>
        <time>2015-06-30T07:47:16Z</time>
      </trkpt>
      <trkpt lat="44.64482" lon="5.74931">
        <ele>1142.9</ele>
        <time>2015-06-30T07:47:21Z</time>
      </trkpt>
      <trkpt lat="44.64481" lon="5.74939">
        <ele>1142.9</ele>
        <time>2015-06-30T07:47:26Z</time>
      </trkpt>
      <trkpt lat="44.64478" lon="5.74946">
        <ele>1139.4</ele>
        <time>2015-06-30T07:47:31Z</time>
      </trkpt>
      <trkpt lat="44.64475" lon="5.74952">
        <ele>1134.4</ele>
        <time>2015-06-30T07:47:36Z</time>
      </trkpt>
      <trkpt lat="44.64473" lon="5.7496">
        <ele>1133.9</ele>
        <time>2015-06-30T07:47:41Z</time>
      </trkpt>
      <trkpt lat="44.64468" lon="5.74968">
        <ele>1137.7</ele>
        <time>2015-06-30T07:47:46Z</time>
      </trkpt>
      <trkpt lat="44.64471" lon="5.74977">
        <ele>1141</ele>
        <time>2015-06-30T07:47:51Z</time>
      </trkpt>
      <trkpt lat="44.6447" lon="5.74982">
        <ele>1154</ele>
        <time>2015-06-30T07:47:56Z</time>
      </trkpt>
      <trkpt lat="44.6447" lon="5.7499">
        <ele>1164.4</ele>
        <time>2015-06-30T07:48:01Z</time>
      </trkpt>
      <trkpt lat="44.64466" lon="5.74997">
        <ele>1169.8</ele>
        <time>2015-06-30T07:48:06Z</time>
      </trkpt>
      <trkpt lat="44.64462" lon="5.75003">
        <ele>1172</ele>
        <time>2015-06-30T07:48:11Z</time>
      </trkpt>
      <trkpt lat="44.64462" lon="5.75012">
        <ele>1175.1</ele>
        <time>2015-06-30T07:48:16Z</time>
      </trkpt>
      <trkpt lat="44.64457" lon="5.75017">
        <ele>1181.6</ele>
        <time>2015-06-30T07:48:21Z</time>
      </trkpt>
      <trkpt lat="44.64447" lon="5.75022">
        <ele>1187.7</ele>
        <time>2015-06-30T07:48:28Z</time>
      </trkpt>
      <trkpt lat="44.64443" lon="5.75021">
        <ele>1186</ele>
        <time>2015-06-30T07:48:33Z</time>
      </trkpt>
      <trkpt lat="44.64437" lon="5.75028">
        <ele>1179.9</ele>
        <time>2015-06-30T07:48:38Z</time>
      </trkpt>
      <trkpt lat="44.64431" lon="5.75036">
        <ele>1177.8</ele>
        <time>2015-06-30T07:48:45Z</time>
      </trkpt>
      <trkpt lat="44.64431" lon="5.75053">
        <ele>1172.9</ele>
        <time>2015-06-30T07:48:50Z</time>
      </trkpt>
      <trkpt lat="44.64439" lon="5.7507">
        <ele>1167.7</ele>
        <time>2015-06-30T07:48:55Z</time>
      </trkpt>
      <trkpt lat="44.64439" lon="5.75081">
        <ele>1163</ele>
        <time>2015-06-30T07:49:00Z</time>
      </trkpt>
      <trkpt lat="44.64431" lon="5.75087">
        <ele>1159.5</ele>
        <time>2015-06-30T07:49:05Z</time>
      </trkpt>
      <trkpt lat="44.64415" lon="5.75082">
        <ele>1163.2</ele>
        <time>2015-06-30T07:49:10Z</time>
      </trkpt>
      <trkpt lat="44.64386" lon="5.75066">
        <ele>1162.5</ele>
        <time>2015-06-30T07:49:15Z</time>
      </trkpt>
      <trkpt lat="44.64365" lon="5.75056">
        <ele>1162.4</ele>
        <time>2015-06-30T07:49:20Z</time>
      </trkpt>
      <trkpt lat="44.64351" lon="5.75047">
        <ele>1162.4</ele>
        <time>2015-06-30T07:49:25Z</time>
      </trkpt>
      <trkpt lat="44.64356" lon="5.75058">
        <ele>1160.8</ele>
        <time>2015-06-30T07:49:30Z</time>
      </trkpt>
      <trkpt lat="44.64346" lon="5.75058">
        <ele>1156.7</ele>
        <time>2015-06-30T07:49:35Z</time>
      </trkpt>
      <trkpt lat="44.64343" lon="5.75072">
        <ele>1151.2</ele>
        <time>2015-06-30T07:49:42Z</time>
      </trkpt>
      <trkpt lat="44.64356" lon="5.75094">
        <ele>1147.9</ele>
        <time>2015-06-30T07:49:47Z</time>
      </trkpt>
      <trkpt lat="44.64352" lon="5.75103">
        <ele>1154.8</ele>
        <time>2015-06-30T07:49:55Z</time>
      </trkpt>
      <trkpt lat="44.64351" lon="5.75111">
        <ele>1154.5</ele>
        <time>2015-06-30T07:50:00Z</time>
      </trkpt>
      <trkpt lat="44.64337" lon="5.75113">
        <ele>1140.7</ele>
        <time>2015-06-30T07:50:05Z</time>
      </trkpt>
      <trkpt lat="44.64327" lon="5.75115">
        <ele>1140.1</ele>
        <time>2015-06-30T07:50:11Z</time>
      </trkpt>
      <trkpt lat="44.64323" lon="5.75123">
        <ele>1144.1</ele>
        <time>2015-06-30T07:50:16Z</time>
      </trkpt>
      <trkpt lat="44.64321" lon="5.75131">
        <ele>1144.2</ele>
        <time>2015-06-30T07:50:21Z</time>
      </trkpt>
      <trkpt lat="44.64327" lon="5.75146">
        <ele>1145.6</ele>
        <time>2015-06-30T07:50:26Z</time>
      </trkpt>
      <trkpt lat="44.64333" lon="5.75161">
        <ele>1148.8</ele>
        <time>2015-06-30T07:50:31Z</time>
      </trkpt>
      <trkpt lat="44.64323" lon="5.75164">
        <ele>1151.5</ele>
        <time>2015-06-30T07:50:36Z</time>
      </trkpt>
      <trkpt lat="44.64316" lon="5.75163">
        <ele>1154.4</ele>
        <time>2015-06-30T07:50:41Z</time>
      </trkpt>
      <trkpt lat="44.6433" lon="5.75185">
        <ele>1156.6</ele>
        <time>2015-06-30T07:50:46Z</time>
      </trkpt>
      <trkpt lat="44.64334" lon="5.752">
        <ele>1168.2</ele>
        <time>2015-06-30T07:50:51Z</time>
      </trkpt>
      <trkpt lat="44.6433" lon="5.75204">
        <ele>1170.7</ele>
        <time>2015-06-30T07:50:56Z</time>
      </trkpt>
      <trkpt lat="44.64334" lon="5.75217">
        <ele>1170.4</ele>
        <time>2015-06-30T07:51:01Z</time>
      </trkpt>
      <trkpt lat="44.64335" lon="5.75227">
        <ele>1172.2</ele>
        <time>2015-06-30T07:51:06Z</time>
      </trkpt>
      <trkpt lat="44.64331" lon="5.75231">
        <ele>1172.5</ele>
        <time>2015-06-30T07:51:11Z</time>
      </trkpt>
      <trkpt lat="44.64332" lon="5.7524">
        <ele>1172</ele>
        <time>2015-06-30T07:51:16Z</time>
      </trkpt>
      <trkpt lat="44.64331" lon="5.75251">
        <ele>1170.7</ele>
        <time>2015-06-30T07:51:21Z</time>
      </trkpt>
      <trkpt lat="44.64338" lon="5.75263">
        <ele>1176.5</ele>
        <time>2015-06-30T07:51:26Z</time>
      </trkpt>
      <trkpt lat="44.64336" lon="5.75269">
        <ele>1178.1</ele>
        <time>2015-06-30T07:51:31Z</time>
      </trkpt>
      <trkpt lat="44.64336" lon="5.75278">
        <ele>1176.9</ele>
        <time>2015-06-30T07:51:36Z</time>
      </trkpt>
      <trkpt lat="44.64335" lon="5.75287">
        <ele>1176.6</ele>
        <time>2015-06-30T07:51:41Z</time>
      </trkpt>
      <trkpt lat="44.64328" lon="5.75295">
        <ele>1182</ele>
        <time>2015-06-30T07:51:48Z</time>
      </trkpt>
      <trkpt lat="44.64327" lon="5.75304">
        <ele>1186.8</ele>
        <time>2015-06-30T07:51:53Z</time>
      </trkpt>
      <trkpt lat="44.64324" lon="5.75308">
        <ele>1193.8</ele>
        <time>2015-06-30T07:51:58Z</time>
      </trkpt>
      <trkpt lat="44.64313" lon="5.75307">
        <ele>1197.3</ele>
        <time>2015-06-30T07:52:03Z</time>
      </trkpt>
      <trkpt lat="44.64315" lon="5.75317">
        <ele>1196.3</ele>
        <time>2015-06-30T07:52:08Z</time>
      </trkpt>
      <trkpt lat="44.64309" lon="5.75321">
        <ele>1195.5</ele>
        <time>2015-06-30T07:52:13Z</time>
      </trkpt>
      <trkpt lat="44.64301" lon="5.75325">
        <ele>1182.1</ele>
        <time>2015-06-30T07:52:18Z</time>
      </trkpt>
      <trkpt lat="44.64296" lon="5.75327">
        <ele>1177.9</ele>
        <time>2015-06-30T07:52:23Z</time>
      </trkpt>
      <trkpt lat="44.64289" lon="5.75333">
        <ele>1171.7</ele>
        <time>2015-06-30T07:52:28Z</time>
      </trkpt>
      <trkpt lat="44.64282" lon="5.75339">
        <ele>1176.4</ele>
        <time>2015-06-30T07:52:33Z</time>
      </trkpt>
      <trkpt lat="44.64277" lon="5.7534">
        <ele>1170.7</ele>
        <time>2015-06-30T07:52:38Z</time>
      </trkpt>
      <trkpt lat="44.64274" lon="5.75342">
        <ele>1173.9</ele>
        <time>2015-06-30T07:52:43Z</time>
      </trkpt>
      <trkpt lat="44.64268" lon="5.75344">
        <ele>1176.3</ele>
        <time>2015-06-30T07:52:48Z</time>
      </trkpt>
      <trkpt lat="44.64258" lon="5.75345">
        <ele>1182.7</ele>
        <time>2015-06-30T07:52:53Z</time>
      </trkpt>
      <trkpt lat="44.64256" lon="5.75349">
        <ele>1181.8</ele>
        <time>2015-06-30T07:52:58Z</time>
      </trkpt>
      <trkpt lat="44.64256" lon="5.75357">
        <ele>1183.3</ele>
        <time>2015-06-30T07:53:03Z</time>
      </trkpt>
      <trkpt lat="44.64251" lon="5.75367">
        <ele>1185.5</ele>
        <time>2015-06-30T07:53:09Z</time>
      </trkpt>
      <trkpt lat="44.64251" lon="5.75377">
        <ele>1179.9</ele>
        <time>2015-06-30T07:53:14Z</time>
      </trkpt>
      <trkpt lat="44.64253" lon="5.75385">
        <ele>1172.3</ele>
        <time>2015-06-30T07:53:19Z</time>
      </trkpt>
      <trkpt lat="44.6425" lon="5.75391">
        <ele>1171.6</ele>
        <time>2015-06-30T07:53:24Z</time>
      </trkpt>
      <trkpt lat="44.64246" lon="5.75399">
        <ele>1169.1</ele>
        <time>2015-06-30T07:53:29Z</time>
      </trkpt>
      <trkpt lat="44.6424" lon="5.75408">
        <ele>1170.8</ele>
        <time>2015-06-30T07:53:34Z</time>
      </trkpt>
      <trkpt lat="44.64234" lon="5.75412">
        <ele>1173.1</ele>
        <time>2015-06-30T07:53:39Z</time>
      </trkpt>
      <trkpt lat="44.64229" lon="5.75414">
        <ele>1180.5</ele>
        <time>2015-06-30T07:53:44Z</time>
      </trkpt>
      <trkpt lat="44.64222" lon="5.75415">
        <ele>1180.4</ele>
        <time>2015-06-30T07:53:49Z</time>
      </trkpt>
      <trkpt lat="44.64224" lon="5.75426">
        <ele>1179</ele>
        <time>2015-06-30T07:53:54Z</time>
      </trkpt>
      <trkpt lat="44.64217" lon="5.7543">
        <ele>1183.3</ele>
        <time>2015-06-30T07:53:59Z</time>
      </trkpt>
      <trkpt lat="44.64211" lon="5.75433">
        <ele>1181.9</ele>
        <time>2015-06-30T07:54:04Z</time>
      </trkpt>
      <trkpt lat="44.64207" lon="5.75437">
        <ele>1183.6</ele>
        <time>2015-06-30T07:54:09Z</time>
      </trkpt>
      <trkpt lat="44.64209" lon="5.75442">
        <ele>1182.4</ele>
        <time>2015-06-30T07:54:14Z</time>
      </trkpt>
      <trkpt lat="44.64211" lon="5.7545">
        <ele>1182.2</ele>
        <time>2015-06-30T07:54:19Z</time>
      </trkpt>
      <trkpt lat="44.64211" lon="5.75458">
        <ele>1177</ele>
        <time>2015-06-30T07:54:24Z</time>
      </trkpt>
      <trkpt lat="44.64207" lon="5.75467">
        <ele>1166.4</ele>
        <time>2015-06-30T07:54:29Z</time>
      </trkpt>
      <trkpt lat="44.64205" lon="5.75475">
        <ele>1167.9</ele>
        <time>2015-06-30T07:54:34Z</time>
      </trkpt>
      <trkpt lat="44.64203" lon="5.75481">
        <ele>1171</ele>
        <time>2015-06-30T07:54:39Z</time>
      </trkpt>
      <trkpt lat="44.64202" lon="5.75488">
        <ele>1172.2</ele>
        <time>2015-06-30T07:54:44Z</time>
      </trkpt>
      <trkpt lat="44.64199" lon="5.75491">
        <ele>1180.9</ele>
        <time>2015-06-30T07:54:49Z</time>
      </trkpt>
      <trkpt lat="44.64197" lon="5.75498">
        <ele>1185</ele>
        <time>2015-06-30T07:54:54Z</time>
      </trkpt>
      <trkpt lat="44.642" lon="5.75506">
        <ele>1191</ele>
        <time>2015-06-30T07:54:59Z</time>
      </trkpt>
      <trkpt lat="44.64196" lon="5.75515">
        <ele>1193.1</ele>
        <time>2015-06-30T07:55:04Z</time>
      </trkpt>
      <trkpt lat="44.64193" lon="5.75519">
        <ele>1195.6</ele>
        <time>2015-06-30T07:55:09Z</time>
      </trkpt>
      <trkpt lat="44.64191" lon="5.7553">
        <ele>1197.1</ele>
        <time>2015-06-30T07:55:16Z</time>
      </trkpt>
      <trkpt lat="44.6419" lon="5.75541">
        <ele>1192</ele>
        <time>2015-06-30T07:55:21Z</time>
      </trkpt>
      <trkpt lat="44.64187" lon="5.75551">
        <ele>1187.3</ele>
        <time>2015-06-30T07:55:28Z</time>
      </trkpt>
      <trkpt lat="44.64182" lon="5.75557">
        <ele>1185.6</ele>
        <time>2015-06-30T07:55:33Z</time>
      </trkpt>
      <trkpt lat="44.64184" lon="5.75567">
        <ele>1185.2</ele>
        <time>2015-06-30T07:55:38Z</time>
      </trkpt>
      <trkpt lat="44.64186" lon="5.75573">
        <ele>1181.6</ele>
        <time>2015-06-30T07:55:43Z</time>
      </trkpt>
      <trkpt lat="44.6418" lon="5.75577">
        <ele>1181.5</ele>
        <time>2015-06-30T07:55:48Z</time>
      </trkpt>
      <trkpt lat="44.64174" lon="5.75585">
        <ele>1181.3</ele>
        <time>2015-06-30T07:55:55Z</time>
      </trkpt>
      <trkpt lat="44.64164" lon="5.75594">
        <ele>1179.2</ele>
        <time>2015-06-30T07:56:00Z</time>
      </trkpt>
      <trkpt lat="44.64163" lon="5.75606">
        <ele>1181.5</ele>
        <time>2015-06-30T07:56:05Z</time>
      </trkpt>
      <trkpt lat="44.64164" lon="5.75615">
        <ele>1180.9</ele>
        <time>2015-06-30T07:56:10Z</time>
      </trkpt>
      <trkpt lat="44.64167" lon="5.75624">
        <ele>1179.8</ele>
        <time>2015-06-30T07:56:15Z</time>
      </trkpt>
      <trkpt lat="44.64164" lon="5.75631">
        <ele>1178.2</ele>
        <time>2015-06-30T07:56:20Z</time>
      </trkpt>
      <trkpt lat="44.64165" lon="5.75636">
        <ele>1180.6</ele>
        <time>2015-06-30T07:56:25Z</time>
      </trkpt>
      <trkpt lat="44.64166" lon="5.75643">
        <ele>1185.8</ele>
        <time>2015-06-30T07:56:30Z</time>
      </trkpt>
      <trkpt lat="44.64167" lon="5.75651">
        <ele>1186</ele>
        <time>2015-06-30T07:56:35Z</time>
      </trkpt>
      <trkpt lat="44.64165" lon="5.75659">
        <ele>1186.9</ele>
        <time>2015-06-30T07:56:40Z</time>
      </trkpt>
      <trkpt lat="44.64164" lon="5.75666">
        <ele>1189.1</ele>
        <time>2015-06-30T07:56:45Z</time>
      </trkpt>
      <trkpt lat="44.64167" lon="5.75673">
        <ele>1189.4</ele>
        <time>2015-06-30T07:56:50Z</time>
      </trkpt>
      <trkpt lat="44.64163" lon="5.75686">
        <ele>1189.1</ele>
        <time>2015-06-30T07:56:55Z</time>
      </trkpt>
      <trkpt lat="44.64159" lon="5.75692">
        <ele>1186</ele>
        <time>2015-06-30T07:57:00Z</time>
      </trkpt>
      <trkpt lat="44.64157" lon="5.757">
        <ele>1186.2</ele>
        <time>2015-06-30T07:57:05Z</time>
      </trkpt>
      <trkpt lat="44.64157" lon="5.75708">
        <ele>1186.4</ele>
        <time>2015-06-30T07:57:10Z</time>
      </trkpt>
      <trkpt lat="44.64159" lon="5.75717">
        <ele>1182.2</ele>
        <time>2015-06-30T07:57:15Z</time>
      </trkpt>
      <trkpt lat="44.64156" lon="5.75725">
        <ele>1179</ele>
        <time>2015-06-30T07:57:20Z</time>
      </trkpt>
      <trkpt lat="44.64156" lon="5.75732">
        <ele>1181.5</ele>
        <time>2015-06-30T07:57:25Z</time>
      </trkpt>
      <trkpt lat="44.64155" lon="5.75738">
        <ele>1176.3</ele>
        <time>2015-06-30T07:57:30Z</time>
      </trkpt>
      <trkpt lat="44.64152" lon="5.75746">
        <ele>1174.3</ele>
        <time>2015-06-30T07:57:35Z</time>
      </trkpt>
      <trkpt lat="44.6415" lon="5.75753">
        <ele>1176.8</ele>
        <time>2015-06-30T07:57:40Z</time>
      </trkpt>
      <trkpt lat="44.64147" lon="5.75762">
        <ele>1172.3</ele>
        <time>2015-06-30T07:57:45Z</time>
      </trkpt>
      <trkpt lat="44.64143" lon="5.7577">
        <ele>1174.6</ele>
        <time>2015-06-30T07:57:50Z</time>
      </trkpt>
      <trkpt lat="44.64145" lon="5.7578">
        <ele>1167.7</ele>
        <time>2015-06-30T07:57:55Z</time>
      </trkpt>
      <trkpt lat="44.6415" lon="5.75786">
        <ele>1176</ele>
        <time>2015-06-30T07:58:00Z</time>
      </trkpt>
      <trkpt lat="44.64153" lon="5.75792">
        <ele>1187.9</ele>
        <time>2015-06-30T07:58:05Z</time>
      </trkpt>
      <trkpt lat="44.64157" lon="5.75798">
        <ele>1192.9</ele>
        <time>2015-06-30T07:58:10Z</time>
      </trkpt>
      <trkpt lat="44.64158" lon="5.75803">
        <ele>1198.3</ele>
        <time>2015-06-30T07:58:15Z</time>
      </trkpt>
      <trkpt lat="44.64163" lon="5.75819">
        <ele>1203.9</ele>
        <time>2015-06-30T07:58:22Z</time>
      </trkpt>
      <trkpt lat="44.64161" lon="5.75831">
        <ele>1204.5</ele>
        <time>2015-06-30T07:58:27Z</time>
      </trkpt>
      <trkpt lat="44.64159" lon="5.7584">
        <ele>1206.1</ele>
        <time>2015-06-30T07:58:32Z</time>
      </trkpt>
      <trkpt lat="44.64156" lon="5.75847">
        <ele>1200.2</ele>
        <time>2015-06-30T07:58:37Z</time>
      </trkpt>
      <trkpt lat="44.64145" lon="5.75848">
        <ele>1197.7</ele>
        <time>2015-06-30T07:58:42Z</time>
      </trkpt>
      <trkpt lat="44.64138" lon="5.7585">
        <ele>1198.3</ele>
        <time>2015-06-30T07:58:47Z</time>
      </trkpt>
      <trkpt lat="44.64135" lon="5.75858">
        <ele>1193.8</ele>
        <time>2015-06-30T07:58:52Z</time>
      </trkpt>
      <trkpt lat="44.64131" lon="5.75864">
        <ele>1194.7</ele>
        <time>2015-06-30T07:58:57Z</time>
      </trkpt>
      <trkpt lat="44.64121" lon="5.75865">
        <ele>1198.6</ele>
        <time>2015-06-30T07:59:02Z</time>
      </trkpt>
      <trkpt lat="44.64111" lon="5.75866">
        <ele>1205.2</ele>
        <time>2015-06-30T07:59:07Z</time>
      </trkpt>
      <trkpt lat="44.64103" lon="5.75865">
        <ele>1207.2</ele>
        <time>2015-06-30T07:59:12Z</time>
      </trkpt>
      <trkpt lat="44.64093" lon="5.75864">
        <ele>1209.2</ele>
        <time>2015-06-30T07:59:17Z</time>
      </trkpt>
      <trkpt lat="44.64096" lon="5.75869">
        <ele>1214.3</ele>
        <time>2015-06-30T07:59:22Z</time>
      </trkpt>
      <trkpt lat="44.64093" lon="5.75875">
        <ele>1215.8</ele>
        <time>2015-06-30T07:59:27Z</time>
      </trkpt>
      <trkpt lat="44.6409" lon="5.75881">
        <ele>1216.7</ele>
        <time>2015-06-30T07:59:32Z</time>
      </trkpt>
      <trkpt lat="44.64088" lon="5.75887">
        <ele>1214.3</ele>
        <time>2015-06-30T07:59:37Z</time>
      </trkpt>
      <trkpt lat="44.64085" lon="5.75893">
        <ele>1209.4</ele>
        <time>2015-06-30T07:59:42Z</time>
      </trkpt>
      <trkpt lat="44.64083" lon="5.759">
        <ele>1207.8</ele>
        <time>2015-06-30T07:59:47Z</time>
      </trkpt>
      <trkpt lat="44.6408" lon="5.75909">
        <ele>1206.4</ele>
        <time>2015-06-30T07:59:52Z</time>
      </trkpt>
      <trkpt lat="44.64076" lon="5.75913">
        <ele>1209.7</ele>
        <time>2015-06-30T07:59:57Z</time>
      </trkpt>
      <trkpt lat="44.64074" lon="5.7592">
        <ele>1209.9</ele>
        <time>2015-06-30T08:00:02Z</time>
      </trkpt>
      <trkpt lat="44.6407" lon="5.75926">
        <ele>1211.4</ele>
        <time>2015-06-30T08:00:07Z</time>
      </trkpt>
      <trkpt lat="44.64065" lon="5.75932">
        <ele>1209.5</ele>
        <time>2015-06-30T08:00:12Z</time>
      </trkpt>
      <trkpt lat="44.64063" lon="5.75944">
        <ele>1202.6</ele>
        <time>2015-06-30T08:00:17Z</time>
      </trkpt>
      <trkpt lat="44.6406" lon="5.75947">
        <ele>1208.3</ele>
        <time>2015-06-30T08:00:22Z</time>
      </trkpt>
      <trkpt lat="44.64057" lon="5.75956">
        <ele>1206.8</ele>
        <time>2015-06-30T08:00:27Z</time>
      </trkpt>
      <trkpt lat="44.6405" lon="5.75958">
        <ele>1210.3</ele>
        <time>2015-06-30T08:00:32Z</time>
      </trkpt>
      <trkpt lat="44.64043" lon="5.75962">
        <ele>1216</ele>
        <time>2015-06-30T08:00:39Z</time>
      </trkpt>
      <trkpt lat="44.64045" lon="5.7598">
        <ele>1217.1</ele>
        <time>2015-06-30T08:00:44Z</time>
      </trkpt>
      <trkpt lat="44.64042" lon="5.75986">
        <ele>1215.6</ele>
        <time>2015-06-30T08:00:49Z</time>
      </trkpt>
      <trkpt lat="44.64039" lon="5.75992">
        <ele>1221.9</ele>
        <time>2015-06-30T08:00:54Z</time>
      </trkpt>
      <trkpt lat="44.64033" lon="5.75995">
        <ele>1213.8</ele>
        <time>2015-06-30T08:00:59Z</time>
      </trkpt>
      <trkpt lat="44.64026" lon="5.75997">
        <ele>1210.9</ele>
        <time>2015-06-30T08:01:06Z</time>
      </trkpt>
      <trkpt lat="44.64019" lon="5.76005">
        <ele>1201.2</ele>
        <time>2015-06-30T08:01:11Z</time>
      </trkpt>
      <trkpt lat="44.64014" lon="5.76009">
        <ele>1200.9</ele>
        <time>2015-06-30T08:01:16Z</time>
      </trkpt>
      <trkpt lat="44.64015" lon="5.76016">
        <ele>1204.3</ele>
        <time>2015-06-30T08:01:21Z</time>
      </trkpt>
      <trkpt lat="44.6401" lon="5.76018">
        <ele>1202.5</ele>
        <time>2015-06-30T08:01:26Z</time>
      </trkpt>
      <trkpt lat="44.64005" lon="5.76024">
        <ele>1201.7</ele>
        <time>2015-06-30T08:01:31Z</time>
      </trkpt>
      <trkpt lat="44.64003" lon="5.7603">
        <ele>1195.2</ele>
        <time>2015-06-30T08:01:36Z</time>
      </trkpt>
      <trkpt lat="44.63995" lon="5.76028">
        <ele>1194.3</ele>
        <time>2015-06-30T08:01:41Z</time>
      </trkpt>
      <trkpt lat="44.63996" lon="5.76036">
        <ele>1197.6</ele>
        <time>2015-06-30T08:01:46Z</time>
      </trkpt>
      <trkpt lat="44.63992" lon="5.76043">
        <ele>1202.3</ele>
        <time>2015-06-30T08:01:51Z</time>
      </trkpt>
      <trkpt lat="44.63986" lon="5.76044">
        <ele>1210.4</ele>
        <time>2015-06-30T08:01:56Z</time>
      </trkpt>
      <trkpt lat="44.63987" lon="5.76052">
        <ele>1213.5</ele>
        <time>2015-06-30T08:02:01Z</time>
      </trkpt>
      <trkpt lat="44.63982" lon="5.76052">
        <ele>1215.9</ele>
        <time>2015-06-30T08:02:06Z</time>
      </trkpt>
      <trkpt lat="44.63981" lon="5.76063">
        <ele>1207.2</ele>
        <time>2015-06-30T08:02:11Z</time>
      </trkpt>
      <trkpt lat="44.63978" lon="5.76064">
        <ele>1208.6</ele>
        <time>2015-06-30T08:02:16Z</time>
      </trkpt>
      <trkpt lat="44.63973" lon="5.7607">
        <ele>1206.7</ele>
        <time>2015-06-30T08:02:21Z</time>
      </trkpt>
      <trkpt lat="44.63973" lon="5.76081">
        <ele>1213.6</ele>
        <time>2015-06-30T08:02:26Z</time>
      </trkpt>
      <trkpt lat="44.63963" lon="5.76079">
        <ele>1222.1</ele>
        <time>2015-06-30T08:02:31Z</time>
      </trkpt>
      <trkpt lat="44.63958" lon="5.76085">
        <ele>1220.4</ele>
        <time>2015-06-30T08:02:36Z</time>
      </trkpt>
      <trkpt lat="44.6395" lon="5.7609">
        <ele>1210.1</ele>
        <time>2015-06-30T08:02:43Z</time>
      </trkpt>
      <trkpt lat="44.63943" lon="5.76095">
        <ele>1203.8</ele>
        <time>2015-06-30T08:02:48Z</time>
      </trkpt>
      <trkpt lat="44.6394" lon="5.76102">
        <ele>1200.9</ele>
        <time>2015-06-30T08:02:53Z</time>
      </trkpt>
      <trkpt lat="44.6394" lon="5.76112">
        <ele>1208.8</ele>
        <time>2015-06-30T08:02:58Z</time>
      </trkpt>
      <trkpt lat="44.63929" lon="5.7611">
        <ele>1212.4</ele>
        <time>2015-06-30T08:03:04Z</time>
      </trkpt>
      <trkpt lat="44.63921" lon="5.7611">
        <ele>1216.8</ele>
        <time>2015-06-30T08:03:09Z</time>
      </trkpt>
      <trkpt lat="44.63915" lon="5.76112">
        <ele>1222.6</ele>
        <time>2015-06-30T08:03:14Z</time>
      </trkpt>
      <trkpt lat="44.63913" lon="5.76121">
        <ele>1229.6</ele>
        <time>2015-06-30T08:03:19Z</time>
      </trkpt>
      <trkpt lat="44.63923" lon="5.76138">
        <ele>1235.8</ele>
        <time>2015-06-30T08:03:24Z</time>
      </trkpt>
      <trkpt lat="44.63921" lon="5.76152">
        <ele>1240.2</ele>
        <time>2015-06-30T08:03:31Z</time>
      </trkpt>
      <trkpt lat="44.63914" lon="5.76155">
        <ele>1237</ele>
        <time>2015-06-30T08:03:38Z</time>
      </trkpt>
      <trkpt lat="44.63909" lon="5.76148">
        <ele>1243.3</ele>
        <time>2015-06-30T08:03:43Z</time>
      </trkpt>
      <trkpt lat="44.63905" lon="5.76156">
        <ele>1237.8</ele>
        <time>2015-06-30T08:03:48Z</time>
      </trkpt>
      <trkpt lat="44.63907" lon="5.76169">
        <ele>1229.6</ele>
        <time>2015-06-30T08:03:55Z</time>
      </trkpt>
      <trkpt lat="44.63908" lon="5.76177">
        <ele>1225.7</ele>
        <time>2015-06-30T08:04:00Z</time>
      </trkpt>
      <trkpt lat="44.63908" lon="5.76182">
        <ele>1228.8</ele>
        <time>2015-06-30T08:04:06Z</time>
      </trkpt>
      <trkpt lat="44.63907" lon="5.76177">
        <ele>1238.8</ele>
        <time>2015-06-30T08:04:11Z</time>
      </trkpt>
      <trkpt lat="44.63891" lon="5.76184">
        <ele>1237.1</ele>
        <time>2015-06-30T08:04:18Z</time>
      </trkpt>
      <trkpt lat="44.63888" lon="5.76195">
        <ele>1234.8</ele>
        <time>2015-06-30T08:04:23Z</time>
      </trkpt>
      <trkpt lat="44.63889" lon="5.762">
        <ele>1236.3</ele>
        <time>2015-06-30T08:04:28Z</time>
      </trkpt>
      <trkpt lat="44.63884" lon="5.76207">
        <ele>1232.7</ele>
        <time>2015-06-30T08:04:33Z</time>
      </trkpt>
      <trkpt lat="44.63881" lon="5.76214">
        <ele>1233.6</ele>
        <time>2015-06-30T08:04:38Z</time>
      </trkpt>
      <trkpt lat="44.63878" lon="5.76222">
        <ele>1234.3</ele>
        <time>2015-06-30T08:04:43Z</time>
      </trkpt>
      <trkpt lat="44.63874" lon="5.7623">
        <ele>1239.4</ele>
        <time>2015-06-30T08:04:48Z</time>
      </trkpt>
      <trkpt lat="44.63871" lon="5.7624">
        <ele>1247.4</ele>
        <time>2015-06-30T08:04:53Z</time>
      </trkpt>
      <trkpt lat="44.63867" lon="5.76246">
        <ele>1249</ele>
        <time>2015-06-30T08:04:58Z</time>
      </trkpt>
      <trkpt lat="44.63859" lon="5.76242">
        <ele>1245.8</ele>
        <time>2015-06-30T08:05:03Z</time>
      </trkpt>
      <trkpt lat="44.63854" lon="5.76247">
        <ele>1240.9</ele>
        <time>2015-06-30T08:05:08Z</time>
      </trkpt>
      <trkpt lat="44.63847" lon="5.76247">
        <ele>1234.3</ele>
        <time>2015-06-30T08:05:13Z</time>
      </trkpt>
      <trkpt lat="44.63846" lon="5.76251">
        <ele>1221.4</ele>
        <time>2015-06-30T08:05:18Z</time>
      </trkpt>
      <trkpt lat="44.63844" lon="5.76258">
        <ele>1214.3</ele>
        <time>2015-06-30T08:05:23Z</time>
      </trkpt>
      <trkpt lat="44.63841" lon="5.7626">
        <ele>1215.8</ele>
        <time>2015-06-30T08:05:28Z</time>
      </trkpt>
      <trkpt lat="44.63835" lon="5.76264">
        <ele>1222</ele>
        <time>2015-06-30T08:05:33Z</time>
      </trkpt>
      <trkpt lat="44.63833" lon="5.76272">
        <ele>1229.9</ele>
        <time>2015-06-30T08:05:38Z</time>
      </trkpt>
      <trkpt lat="44.63826" lon="5.76273">
        <ele>1233.1</ele>
        <time>2015-06-30T08:05:43Z</time>
      </trkpt>
      <trkpt lat="44.63819" lon="5.76277">
        <ele>1239.6</ele>
        <time>2015-06-30T08:05:48Z</time>
      </trkpt>
      <trkpt lat="44.63815" lon="5.76279">
        <ele>1238.1</ele>
        <time>2015-06-30T08:05:53Z</time>
      </trkpt>
      <trkpt lat="44.63819" lon="5.76281">
        <ele>1235.4</ele>
        <time>2015-06-30T08:05:59Z</time>
      </trkpt>
      <trkpt lat="44.63817" lon="5.76281">
        <ele>1236.4</ele>
        <time>2015-06-30T08:06:04Z</time>
      </trkpt>
      <trkpt lat="44.6381" lon="5.76284">
        <ele>1239.7</ele>
        <time>2015-06-30T08:06:09Z</time>
      </trkpt>
      <trkpt lat="44.6381" lon="5.76292">
        <ele>1249.7</ele>
        <time>2015-06-30T08:06:14Z</time>
      </trkpt>
      <trkpt lat="44.63806" lon="5.76301">
        <ele>1251.1</ele>
        <time>2015-06-30T08:06:19Z</time>
      </trkpt>
      <trkpt lat="44.63804" lon="5.7631">
        <ele>1251.2</ele>
        <time>2015-06-30T08:06:24Z</time>
      </trkpt>
      <trkpt lat="44.63801" lon="5.76319">
        <ele>1249.5</ele>
        <time>2015-06-30T08:06:29Z</time>
      </trkpt>
      <trkpt lat="44.638" lon="5.76325">
        <ele>1249.8</ele>
        <time>2015-06-30T08:06:34Z</time>
      </trkpt>
      <trkpt lat="44.638" lon="5.76331">
        <ele>1256</ele>
        <time>2015-06-30T08:06:39Z</time>
      </trkpt>
      <trkpt lat="44.638" lon="5.7635">
        <ele>1268.1</ele>
        <time>2015-06-30T08:06:46Z</time>
      </trkpt>
      <trkpt lat="44.63802" lon="5.76363">
        <ele>1279.7</ele>
        <time>2015-06-30T08:06:51Z</time>
      </trkpt>
      <trkpt lat="44.63805" lon="5.76368">
        <ele>1277.7</ele>
        <time>2015-06-30T08:06:56Z</time>
      </trkpt>
      <trkpt lat="44.6381" lon="5.76377">
        <ele>1278.1</ele>
        <time>2015-06-30T08:07:01Z</time>
      </trkpt>
      <trkpt lat="44.63814" lon="5.76386">
        <ele>1285.9</ele>
        <time>2015-06-30T08:07:06Z</time>
      </trkpt>
      <trkpt lat="44.63821" lon="5.76392">
        <ele>1292.1</ele>
        <time>2015-06-30T08:07:11Z</time>
      </trkpt>
      <trkpt lat="44.63825" lon="5.76399">
        <ele>1296.3</ele>
        <time>2015-06-30T08:07:16Z</time>
      </trkpt>
      <trkpt lat="44.63825" lon="5.76406">
        <ele>1293</ele>
        <time>2015-06-30T08:07:21Z</time>
      </trkpt>
      <trkpt lat="44.63826" lon="5.76412">
        <ele>1291</ele>
        <time>2015-06-30T08:07:26Z</time>
      </trkpt>
      <trkpt lat="44.63833" lon="5.7642">
        <ele>1297.8</ele>
        <time>2015-06-30T08:07:31Z</time>
      </trkpt>
      <trkpt lat="44.63836" lon="5.76425">
        <ele>1297.9</ele>
        <time>2015-06-30T08:07:36Z</time>
      </trkpt>
      <trkpt lat="44.63836" lon="5.76433">
        <ele>1296.4</ele>
        <time>2015-06-30T08:07:41Z</time>
      </trkpt>
      <trkpt lat="44.63834" lon="5.7644">
        <ele>1297</ele>
        <time>2015-06-30T08:07:46Z</time>
      </trkpt>
      <trkpt lat="44.63836" lon="5.76451">
        <ele>1302.7</ele>
        <time>2015-06-30T08:07:51Z</time>
      </trkpt>
      <trkpt lat="44.63833" lon="5.76459">
        <ele>1304.3</ele>
        <time>2015-06-30T08:07:56Z</time>
      </trkpt>
      <trkpt lat="44.63835" lon="5.76468">
        <ele>1309.4</ele>
        <time>2015-06-30T08:08:01Z</time>
      </trkpt>
      <trkpt lat="44.63832" lon="5.76473">
        <ele>1302</ele>
        <time>2015-06-30T08:08:06Z</time>
      </trkpt>
      <trkpt lat="44.63829" lon="5.76481">
        <ele>1294.1</ele>
        <time>2015-06-30T08:08:11Z</time>
      </trkpt>
      <trkpt lat="44.63829" lon="5.76489">
        <ele>1288.4</ele>
        <time>2015-06-30T08:08:16Z</time>
      </trkpt>
      <trkpt lat="44.6383" lon="5.76496">
        <ele>1281.8</ele>
        <time>2015-06-30T08:08:21Z</time>
      </trkpt>
      <trkpt lat="44.6383" lon="5.76511">
        <ele>1275.7</ele>
        <time>2015-06-30T08:08:30Z</time>
      </trkpt>
      <trkpt lat="44.63821" lon="5.76529">
        <ele>1270</ele>
        <time>2015-06-30T08:08:36Z</time>
      </trkpt>
      <trkpt lat="44.63823" lon="5.76537">
        <ele>1272.3</ele>
        <time>2015-06-30T08:08:41Z</time>
      </trkpt>
      <trkpt lat="44.63816" lon="5.76543">
        <ele>1265.1</ele>
        <time>2015-06-30T08:08:46Z</time>
      </trkpt>
      <trkpt lat="44.6381" lon="5.76548">
        <ele>1253.6</ele>
        <time>2015-06-30T08:08:51Z</time>
      </trkpt>
      <trkpt lat="44.63808" lon="5.76553">
        <ele>1250.5</ele>
        <time>2015-06-30T08:08:56Z</time>
      </trkpt>
      <trkpt lat="44.63808" lon="5.76559">
        <ele>1247.2</ele>
        <time>2015-06-30T08:09:01Z</time>
      </trkpt>
      <trkpt lat="44.63809" lon="5.76565">
        <ele>1247</ele>
        <time>2015-06-30T08:09:06Z</time>
      </trkpt>
      <trkpt lat="44.6381" lon="5.76572">
        <ele>1245</ele>
        <time>2015-06-30T08:09:11Z</time>
      </trkpt>
      <trkpt lat="44.63812" lon="5.7658">
        <ele>1243.8</ele>
        <time>2015-06-30T08:09:16Z</time>
      </trkpt>
      <trkpt lat="44.63815" lon="5.7659">
        <ele>1247.7</ele>
        <time>2015-06-30T08:09:21Z</time>
      </trkpt>
      <trkpt lat="44.63818" lon="5.76598">
        <ele>1252.2</ele>
        <time>2015-06-30T08:09:26Z</time>
      </trkpt>
      <trkpt lat="44.63821" lon="5.76605">
        <ele>1257</ele>
        <time>2015-06-30T08:09:31Z</time>
      </trkpt>
      <trkpt lat="44.63824" lon="5.76611">
        <ele>1263.3</ele>
        <time>2015-06-30T08:09:36Z</time>
      </trkpt>
      <trkpt lat="44.63824" lon="5.76617">
        <ele>1263</ele>
        <time>2015-06-30T08:09:41Z</time>
      </trkpt>
      <trkpt lat="44.63829" lon="5.76624">
        <ele>1266.9</ele>
        <time>2015-06-30T08:09:46Z</time>
      </trkpt>
      <trkpt lat="44.63833" lon="5.76632">
        <ele>1264</ele>
        <time>2015-06-30T08:09:51Z</time>
      </trkpt>
      <trkpt lat="44.63838" lon="5.76642">
        <ele>1264</ele>
        <time>2015-06-30T08:09:56Z</time>
      </trkpt>
      <trkpt lat="44.63848" lon="5.7665">
        <ele>1269.6</ele>
        <time>2015-06-30T08:10:01Z</time>
      </trkpt>
      <trkpt lat="44.63849" lon="5.76659">
        <ele>1274.8</ele>
        <time>2015-06-30T08:10:06Z</time>
      </trkpt>
      <trkpt lat="44.63851" lon="5.76663">
        <ele>1268.8</ele>
        <time>2015-06-30T08:10:11Z</time>
      </trkpt>
      <trkpt lat="44.63851" lon="5.76669">
        <ele>1267.8</ele>
        <time>2015-06-30T08:10:16Z</time>
      </trkpt>
      <trkpt lat="44.63851" lon="5.76675">
        <ele>1268</ele>
        <time>2015-06-30T08:10:21Z</time>
      </trkpt>
      <trkpt lat="44.63845" lon="5.76681">
        <ele>1262.3</ele>
        <time>2015-06-30T08:10:26Z</time>
      </trkpt>
      <trkpt lat="44.63845" lon="5.76688">
        <ele>1260.3</ele>
        <time>2015-06-30T08:10:31Z</time>
      </trkpt>
      <trkpt lat="44.63846" lon="5.76695">
        <ele>1261</ele>
        <time>2015-06-30T08:10:36Z</time>
      </trkpt>
      <trkpt lat="44.63845" lon="5.76703">
        <ele>1260.7</ele>
        <time>2015-06-30T08:10:41Z</time>
      </trkpt>
      <trkpt lat="44.63846" lon="5.7671">
        <ele>1262.3</ele>
        <time>2015-06-30T08:10:46Z</time>
      </trkpt>
      <trkpt lat="44.63846" lon="5.76716">
        <ele>1263.9</ele>
        <time>2015-06-30T08:10:51Z</time>
      </trkpt>
      <trkpt lat="44.63844" lon="5.7672">
        <ele>1263.4</ele>
        <time>2015-06-30T08:10:56Z</time>
      </trkpt>
      <trkpt lat="44.63841" lon="5.76722">
        <ele>1261.2</ele>
        <time>2015-06-30T08:11:01Z</time>
      </trkpt>
      <trkpt lat="44.63839" lon="5.76724">
        <ele>1257.3</ele>
        <time>2015-06-30T08:11:06Z</time>
      </trkpt>
      <trkpt lat="44.63837" lon="5.7673">
        <ele>1254.1</ele>
        <time>2015-06-30T08:11:11Z</time>
      </trkpt>
      <trkpt lat="44.63833" lon="5.7673">
        <ele>1257.5</ele>
        <time>2015-06-30T08:11:16Z</time>
      </trkpt>
      <trkpt lat="44.63832" lon="5.76737">
        <ele>1263.1</ele>
        <time>2015-06-30T08:11:21Z</time>
      </trkpt>
      <trkpt lat="44.63833" lon="5.76746">
        <ele>1268.1</ele>
        <time>2015-06-30T08:11:26Z</time>
      </trkpt>
      <trkpt lat="44.63831" lon="5.76754">
        <ele>1275.8</ele>
        <time>2015-06-30T08:11:31Z</time>
      </trkpt>
      <trkpt lat="44.63831" lon="5.76764">
        <ele>1288.3</ele>
        <time>2015-06-30T08:11:36Z</time>
      </trkpt>
      <trkpt lat="44.63834" lon="5.76771">
        <ele>1292.2</ele>
        <time>2015-06-30T08:11:41Z</time>
      </trkpt>
      <trkpt lat="44.63834" lon="5.76784">
        <ele>1295.1</ele>
        <time>2015-06-30T08:11:46Z</time>
      </trkpt>
      <trkpt lat="44.63835" lon="5.76793">
        <ele>1295.2</ele>
        <time>2015-06-30T08:11:51Z</time>
      </trkpt>
      <trkpt lat="44.63839" lon="5.76799">
        <ele>1297</ele>
        <time>2015-06-30T08:11:56Z</time>
      </trkpt>
      <trkpt lat="44.63838" lon="5.76806">
        <ele>1288.3</ele>
        <time>2015-06-30T08:12:01Z</time>
      </trkpt>
      <trkpt lat="44.63837" lon="5.76813">
        <ele>1285.4</ele>
        <time>2015-06-30T08:12:06Z</time>
      </trkpt>
      <trkpt lat="44.63835" lon="5.76822">
        <ele>1283.7</ele>
        <time>2015-06-30T08:12:11Z</time>
      </trkpt>
      <trkpt lat="44.63832" lon="5.7683">
        <ele>1277.5</ele>
        <time>2015-06-30T08:12:16Z</time>
      </trkpt>
      <trkpt lat="44.63839" lon="5.76838">
        <ele>1286.8</ele>
        <time>2015-06-30T08:12:21Z</time>
      </trkpt>
      <trkpt lat="44.63844" lon="5.76845">
        <ele>1293.3</ele>
        <time>2015-06-30T08:12:26Z</time>
      </trkpt>
      <trkpt lat="44.63838" lon="5.76857">
        <ele>1290.9</ele>
        <time>2015-06-30T08:12:31Z</time>
      </trkpt>
      <trkpt lat="44.63837" lon="5.76868">
        <ele>1292.7</ele>
        <time>2015-06-30T08:12:36Z</time>
      </trkpt>
      <trkpt lat="44.63845" lon="5.76876">
        <ele>1303.4</ele>
        <time>2015-06-30T08:12:41Z</time>
      </trkpt>
      <trkpt lat="44.6385" lon="5.76884">
        <ele>1307.9</ele>
        <time>2015-06-30T08:12:46Z</time>
      </trkpt>
      <trkpt lat="44.63853" lon="5.76893">
        <ele>1316.1</ele>
        <time>2015-06-30T08:12:51Z</time>
      </trkpt>
      <trkpt lat="44.63851" lon="5.76901">
        <ele>1310.8</ele>
        <time>2015-06-30T08:12:56Z</time>
      </trkpt>
      <trkpt lat="44.6385" lon="5.76906">
        <ele>1305.3</ele>
        <time>2015-06-30T08:13:01Z</time>
      </trkpt>
      <trkpt lat="44.63846" lon="5.7691">
        <ele>1296.8</ele>
        <time>2015-06-30T08:13:06Z</time>
      </trkpt>
      <trkpt lat="44.63842" lon="5.7691">
        <ele>1284.7</ele>
        <time>2015-06-30T08:13:11Z</time>
      </trkpt>
      <trkpt lat="44.63837" lon="5.76912">
        <ele>1283.1</ele>
        <time>2015-06-30T08:13:16Z</time>
      </trkpt>
      <trkpt lat="44.63833" lon="5.76915">
        <ele>1283.8</ele>
        <time>2015-06-30T08:13:21Z</time>
      </trkpt>
      <trkpt lat="44.63831" lon="5.76919">
        <ele>1278.5</ele>
        <time>2015-06-30T08:13:26Z</time>
      </trkpt>
      <trkpt lat="44.63826" lon="5.76921">
        <ele>1279.2</ele>
        <time>2015-06-30T08:13:31Z</time>
      </trkpt>
      <trkpt lat="44.63828" lon="5.76927">
        <ele>1278</ele>
        <time>2015-06-30T08:13:36Z</time>
      </trkpt>
      <trkpt lat="44.63825" lon="5.76934">
        <ele>1274.8</ele>
        <time>2015-06-30T08:13:41Z</time>
      </trkpt>
      <trkpt lat="44.63826" lon="5.76942">
        <ele>1272</ele>
        <time>2015-06-30T08:13:46Z</time>
      </trkpt>
      <trkpt lat="44.63828" lon="5.7695">
        <ele>1274.2</ele>
        <time>2015-06-30T08:13:51Z</time>
      </trkpt>
      <trkpt lat="44.6383" lon="5.76961">
        <ele>1273.5</ele>
        <time>2015-06-30T08:13:56Z</time>
      </trkpt>
      <trkpt lat="44.63831" lon="5.76971">
        <ele>1278.5</ele>
        <time>2015-06-30T08:14:01Z</time>
      </trkpt>
      <trkpt lat="44.63832" lon="5.76979">
        <ele>1287.6</ele>
        <time>2015-06-30T08:14:06Z</time>
      </trkpt>
      <trkpt lat="44.63828" lon="5.76989">
        <ele>1290.8</ele>
        <time>2015-06-30T08:14:12Z</time>
      </trkpt>
      <trkpt lat="44.63829" lon="5.76997">
        <ele>1300.1</ele>
        <time>2015-06-30T08:14:17Z</time>
      </trkpt>
      <trkpt lat="44.63826" lon="5.77002">
        <ele>1300.3</ele>
        <time>2015-06-30T08:14:23Z</time>
      </trkpt>
      <trkpt lat="44.63823" lon="5.77007">
        <ele>1297.6</ele>
        <time>2015-06-30T08:14:28Z</time>
      </trkpt>
      <trkpt lat="44.6382" lon="5.7701">
        <ele>1294.1</ele>
        <time>2015-06-30T08:14:33Z</time>
      </trkpt>
      <trkpt lat="44.63813" lon="5.77014">
        <ele>1289.1</ele>
        <time>2015-06-30T08:14:39Z</time>
      </trkpt>
      <trkpt lat="44.6381" lon="5.7702">
        <ele>1284.4</ele>
        <time>2015-06-30T08:14:44Z</time>
      </trkpt>
      <trkpt lat="44.6381" lon="5.77029">
        <ele>1280.8</ele>
        <time>2015-06-30T08:14:49Z</time>
      </trkpt>
      <trkpt lat="44.63812" lon="5.77037">
        <ele>1285.1</ele>
        <time>2015-06-30T08:14:54Z</time>
      </trkpt>
      <trkpt lat="44.6381" lon="5.77045">
        <ele>1286.1</ele>
        <time>2015-06-30T08:15:01Z</time>
      </trkpt>
      <trkpt lat="44.63813" lon="5.77061">
        <ele>1294.3</ele>
        <time>2015-06-30T08:15:07Z</time>
      </trkpt>
      <trkpt lat="44.63813" lon="5.77067">
        <ele>1298.9</ele>
        <time>2015-06-30T08:15:12Z</time>
      </trkpt>
      <trkpt lat="44.63813" lon="5.77076">
        <ele>1296.1</ele>
        <time>2015-06-30T08:15:17Z</time>
      </trkpt>
      <trkpt lat="44.63807" lon="5.77082">
        <ele>1291.9</ele>
        <time>2015-06-30T08:15:23Z</time>
      </trkpt>
      <trkpt lat="44.63807" lon="5.77086">
        <ele>1288.4</ele>
        <time>2015-06-30T08:15:28Z</time>
      </trkpt>
      <trkpt lat="44.63806" lon="5.7709">
        <ele>1287.7</ele>
        <time>2015-06-30T08:15:33Z</time>
      </trkpt>
      <trkpt lat="44.63803" lon="5.77095">
        <ele>1286.7</ele>
        <time>2015-06-30T08:15:39Z</time>
      </trkpt>
      <trkpt lat="44.63797" lon="5.771">
        <ele>1286.1</ele>
        <time>2015-06-30T08:15:44Z</time>
      </trkpt>
      <trkpt lat="44.63798" lon="5.77105">
        <ele>1289.1</ele>
        <time>2015-06-30T08:15:49Z</time>
      </trkpt>
      <trkpt lat="44.638" lon="5.77113">
        <ele>1288.8</ele>
        <time>2015-06-30T08:15:54Z</time>
      </trkpt>
      <trkpt lat="44.63803" lon="5.77121">
        <ele>1292.4</ele>
        <time>2015-06-30T08:15:59Z</time>
      </trkpt>
      <trkpt lat="44.63803" lon="5.77132">
        <ele>1302.1</ele>
        <time>2015-06-30T08:16:04Z</time>
      </trkpt>
      <trkpt lat="44.63801" lon="5.77141">
        <ele>1296.3</ele>
        <time>2015-06-30T08:16:09Z</time>
      </trkpt>
      <trkpt lat="44.638" lon="5.77152">
        <ele>1296.6</ele>
        <time>2015-06-30T08:16:14Z</time>
      </trkpt>
      <trkpt lat="44.63797" lon="5.77159">
        <ele>1295</ele>
        <time>2015-06-30T08:16:19Z</time>
      </trkpt>
      <trkpt lat="44.63791" lon="5.77159">
        <ele>1294</ele>
        <time>2015-06-30T08:16:24Z</time>
      </trkpt>
      <trkpt lat="44.63788" lon="5.77159">
        <ele>1294.3</ele>
        <time>2015-06-30T08:16:29Z</time>
      </trkpt>
      <trkpt lat="44.63784" lon="5.77163">
        <ele>1299.4</ele>
        <time>2015-06-30T08:16:34Z</time>
      </trkpt>
      <trkpt lat="44.63781" lon="5.77169">
        <ele>1305.9</ele>
        <time>2015-06-30T08:16:39Z</time>
      </trkpt>
      <trkpt lat="44.63779" lon="5.77178">
        <ele>1317.4</ele>
        <time>2015-06-30T08:16:44Z</time>
      </trkpt>
      <trkpt lat="44.6378" lon="5.77187">
        <ele>1321.2</ele>
        <time>2015-06-30T08:16:49Z</time>
      </trkpt>
      <trkpt lat="44.63777" lon="5.77197">
        <ele>1326.3</ele>
        <time>2015-06-30T08:16:54Z</time>
      </trkpt>
      <trkpt lat="44.63775" lon="5.77204">
        <ele>1324.2</ele>
        <time>2015-06-30T08:16:59Z</time>
      </trkpt>
      <trkpt lat="44.63771" lon="5.77205">
        <ele>1312.9</ele>
        <time>2015-06-30T08:17:04Z</time>
      </trkpt>
      <trkpt lat="44.63768" lon="5.77212">
        <ele>1310.4</ele>
        <time>2015-06-30T08:17:09Z</time>
      </trkpt>
      <trkpt lat="44.63764" lon="5.77215">
        <ele>1304.6</ele>
        <time>2015-06-30T08:17:14Z</time>
      </trkpt>
      <trkpt lat="44.63764" lon="5.77221">
        <ele>1304.6</ele>
        <time>2015-06-30T08:17:19Z</time>
      </trkpt>
      <trkpt lat="44.63764" lon="5.77228">
        <ele>1306.4</ele>
        <time>2015-06-30T08:17:24Z</time>
      </trkpt>
      <trkpt lat="44.63762" lon="5.77235">
        <ele>1301.2</ele>
        <time>2015-06-30T08:17:29Z</time>
      </trkpt>
      <trkpt lat="44.63758" lon="5.77244">
        <ele>1301.9</ele>
        <time>2015-06-30T08:17:34Z</time>
      </trkpt>
      <trkpt lat="44.63755" lon="5.77253">
        <ele>1310.5</ele>
        <time>2015-06-30T08:17:39Z</time>
      </trkpt>
      <trkpt lat="44.63752" lon="5.77263">
        <ele>1323.5</ele>
        <time>2015-06-30T08:17:44Z</time>
      </trkpt>
      <trkpt lat="44.63751" lon="5.77272">
        <ele>1334.6</ele>
        <time>2015-06-30T08:17:49Z</time>
      </trkpt>
      <trkpt lat="44.63749" lon="5.77278">
        <ele>1333.6</ele>
        <time>2015-06-30T08:17:54Z</time>
      </trkpt>
      <trkpt lat="44.6375" lon="5.77275">
        <ele>1324</ele>
        <time>2015-06-30T08:17:59Z</time>
      </trkpt>
      <trkpt lat="44.63748" lon="5.77278">
        <ele>1316.6</ele>
        <time>2015-06-30T08:18:04Z</time>
      </trkpt>
      <trkpt lat="44.63746" lon="5.77282">
        <ele>1308.8</ele>
        <time>2015-06-30T08:18:09Z</time>
      </trkpt>
      <trkpt lat="44.63743" lon="5.77287">
        <ele>1303.9</ele>
        <time>2015-06-30T08:18:14Z</time>
      </trkpt>
      <trkpt lat="44.63741" lon="5.77292">
        <ele>1304.1</ele>
        <time>2015-06-30T08:18:19Z</time>
      </trkpt>
      <trkpt lat="44.63738" lon="5.77299">
        <ele>1303.1</ele>
        <time>2015-06-30T08:18:24Z</time>
      </trkpt>
      <trkpt lat="44.63735" lon="5.77307">
        <ele>1304.8</ele>
        <time>2015-06-30T08:18:29Z</time>
      </trkpt>
      <trkpt lat="44.63736" lon="5.77314">
        <ele>1309.1</ele>
        <time>2015-06-30T08:18:34Z</time>
      </trkpt>
      <trkpt lat="44.63735" lon="5.77323">
        <ele>1313.4</ele>
        <time>2015-06-30T08:18:39Z</time>
      </trkpt>
      <trkpt lat="44.63728" lon="5.77332">
        <ele>1316.1</ele>
        <time>2015-06-30T08:18:44Z</time>
      </trkpt>
      <trkpt lat="44.63725" lon="5.77341">
        <ele>1324.5</ele>
        <time>2015-06-30T08:18:49Z</time>
      </trkpt>
      <trkpt lat="44.6372" lon="5.77349">
        <ele>1325.8</ele>
        <time>2015-06-30T08:18:54Z</time>
      </trkpt>
      <trkpt lat="44.63716" lon="5.77357">
        <ele>1333.6</ele>
        <time>2015-06-30T08:18:59Z</time>
      </trkpt>
      <trkpt lat="44.63713" lon="5.77361">
        <ele>1331.3</ele>
        <time>2015-06-30T08:19:04Z</time>
      </trkpt>
      <trkpt lat="44.6371" lon="5.77363">
        <ele>1325.5</ele>
        <time>2015-06-30T08:19:09Z</time>
      </trkpt>
      <trkpt lat="44.63707" lon="5.77368">
        <ele>1324.3</ele>
        <time>2015-06-30T08:19:14Z</time>
      </trkpt>
      <trkpt lat="44.63704" lon="5.77375">
        <ele>1328.9</ele>
        <time>2015-06-30T08:19:19Z</time>
      </trkpt>
      <trkpt lat="44.63699" lon="5.77375">
        <ele>1328.7</ele>
        <time>2015-06-30T08:19:24Z</time>
      </trkpt>
      <trkpt lat="44.63694" lon="5.77371">
        <ele>1325.9</ele>
        <time>2015-06-30T08:19:29Z</time>
      </trkpt>
      <trkpt lat="44.63693" lon="5.77367">
        <ele>1323.5</ele>
        <time>2015-06-30T08:19:34Z</time>
      </trkpt>
      <trkpt lat="44.63695" lon="5.77365">
        <ele>1320.9</ele>
        <time>2015-06-30T08:19:39Z</time>
      </trkpt>
      <trkpt lat="44.63699" lon="5.77361">
        <ele>1320.4</ele>
        <time>2015-06-30T08:19:44Z</time>
      </trkpt>
      <trkpt lat="44.63694" lon="5.77357">
        <ele>1326.8</ele>
        <time>2015-06-30T08:19:49Z</time>
      </trkpt>
      <trkpt lat="44.63694" lon="5.77361">
        <ele>1326.8</ele>
        <time>2015-06-30T08:19:54Z</time>
      </trkpt>
      <trkpt lat="44.63697" lon="5.77361">
        <ele>1327.7</ele>
        <time>2015-06-30T08:19:59Z</time>
      </trkpt>
      <trkpt lat="44.63698" lon="5.77357">
        <ele>1331.9</ele>
        <time>2015-06-30T08:20:04Z</time>
      </trkpt>
      <trkpt lat="44.63693" lon="5.77353">
        <ele>1333.9</ele>
        <time>2015-06-30T08:20:09Z</time>
      </trkpt>
      <trkpt lat="44.63693" lon="5.77356">
        <ele>1334.4</ele>
        <time>2015-06-30T08:20:14Z</time>
      </trkpt>
      <trkpt lat="44.63691" lon="5.77354">
        <ele>1333.1</ele>
        <time>2015-06-30T08:20:19Z</time>
      </trkpt>
      <trkpt lat="44.63687" lon="5.77356">
        <ele>1335.3</ele>
        <time>2015-06-30T08:20:26Z</time>
      </trkpt>
      <trkpt lat="44.63689" lon="5.77356">
        <ele>1329.8</ele>
        <time>2015-06-30T08:20:31Z</time>
      </trkpt>
      <trkpt lat="44.63688" lon="5.77354">
        <ele>1327.2</ele>
        <time>2015-06-30T08:20:36Z</time>
      </trkpt>
      <trkpt lat="44.6369" lon="5.77357">
        <ele>1333.3</ele>
        <time>2015-06-30T08:20:41Z</time>
      </trkpt>
      <trkpt lat="44.63694" lon="5.77354">
        <ele>1340.7</ele>
        <time>2015-06-30T08:20:46Z</time>
      </trkpt>
      <trkpt lat="44.63696" lon="5.77353">
        <ele>1350.6</ele>
        <time>2015-06-30T08:20:51Z</time>
      </trkpt>
      <trkpt lat="44.63697" lon="5.77354">
        <ele>1348.8</ele>
        <time>2015-06-30T08:20:56Z</time>
      </trkpt>
      <trkpt lat="44.63699" lon="5.77353">
        <ele>1347.6</ele>
        <time>2015-06-30T08:21:01Z</time>
      </trkpt>
      <trkpt lat="44.63695" lon="5.77353">
        <ele>1343.2</ele>
        <time>2015-06-30T08:21:08Z</time>
      </trkpt>
      <trkpt lat="44.63697" lon="5.77363">
        <ele>1345.6</ele>
        <time>2015-06-30T08:21:13Z</time>
      </trkpt>
      <trkpt lat="44.63699" lon="5.77368">
        <ele>1345.7</ele>
        <time>2015-06-30T08:21:18Z</time>
      </trkpt>
      <trkpt lat="44.63699" lon="5.77374">
        <ele>1350.4</ele>
        <time>2015-06-30T08:21:23Z</time>
      </trkpt>
      <trkpt lat="44.63698" lon="5.77377">
        <ele>1348.3</ele>
        <time>2015-06-30T08:21:28Z</time>
      </trkpt>
      <trkpt lat="44.63695" lon="5.77368">
        <ele>1348</ele>
        <time>2015-06-30T08:21:33Z</time>
      </trkpt>
      <trkpt lat="44.63696" lon="5.77366">
        <ele>1344.2</ele>
        <time>2015-06-30T08:21:38Z</time>
      </trkpt>
      <trkpt lat="44.63697" lon="5.77366">
        <ele>1340.8</ele>
        <time>2015-06-30T08:21:43Z</time>
      </trkpt>
      <trkpt lat="44.63693" lon="5.77359">
        <ele>1333.9</ele>
        <time>2015-06-30T08:21:48Z</time>
      </trkpt>
      <trkpt lat="44.63693" lon="5.77364">
        <ele>1339</ele>
        <time>2015-06-30T08:21:54Z</time>
      </trkpt>
      <trkpt lat="44.63694" lon="5.77356">
        <ele>1335.3</ele>
        <time>2015-06-30T08:21:59Z</time>
      </trkpt>
      <trkpt lat="44.63693" lon="5.77349">
        <ele>1332.7</ele>
        <time>2015-06-30T08:22:04Z</time>
      </trkpt>
      <trkpt lat="44.63696" lon="5.7735">
        <ele>1330.4</ele>
        <time>2015-06-30T08:22:09Z</time>
      </trkpt>
      <trkpt lat="44.63699" lon="5.77353">
        <ele>1330.5</ele>
        <time>2015-06-30T08:22:14Z</time>
      </trkpt>
      <trkpt lat="44.63706" lon="5.7736">
        <ele>1331</ele>
        <time>2015-06-30T08:22:19Z</time>
      </trkpt>
      <trkpt lat="44.63708" lon="5.77356">
        <ele>1333.5</ele>
        <time>2015-06-30T08:22:24Z</time>
      </trkpt>
      <trkpt lat="44.63708" lon="5.7735">
        <ele>1339.3</ele>
        <time>2015-06-30T08:22:29Z</time>
      </trkpt>
      <trkpt lat="44.63705" lon="5.77347">
        <ele>1336.1</ele>
        <time>2015-06-30T08:22:34Z</time>
      </trkpt>
      <trkpt lat="44.63703" lon="5.77347">
        <ele>1333.2</ele>
        <time>2015-06-30T08:22:39Z</time>
      </trkpt>
      <trkpt lat="44.63702" lon="5.77348">
        <ele>1328.6</ele>
        <time>2015-06-30T08:22:44Z</time>
      </trkpt>
      <trkpt lat="44.63701" lon="5.7735">
        <ele>1325.6</ele>
        <time>2015-06-30T08:22:49Z</time>
      </trkpt>
      <trkpt lat="44.63701" lon="5.77353">
        <ele>1321.6</ele>
        <time>2015-06-30T08:22:54Z</time>
      </trkpt>
      <trkpt lat="44.637" lon="5.77355">
        <ele>1318.4</ele>
        <time>2015-06-30T08:22:59Z</time>
      </trkpt>
      <trkpt lat="44.63699" lon="5.77357">
        <ele>1316.8</ele>
        <time>2015-06-30T08:23:04Z</time>
      </trkpt>
      <trkpt lat="44.63699" lon="5.77358">
        <ele>1315.3</ele>
        <time>2015-06-30T08:23:09Z</time>
      </trkpt>
      <trkpt lat="44.63701" lon="5.77358">
        <ele>1319.9</ele>
        <time>2015-06-30T08:23:14Z</time>
      </trkpt>
      <trkpt lat="44.63702" lon="5.77359">
        <ele>1326.6</ele>
        <time>2015-06-30T08:23:19Z</time>
      </trkpt>
      <trkpt lat="44.63706" lon="5.77359">
        <ele>1334.2</ele>
        <time>2015-06-30T08:23:24Z</time>
      </trkpt>
      <trkpt lat="44.63705" lon="5.77364">
        <ele>1333.2</ele>
        <time>2015-06-30T08:23:29Z</time>
      </trkpt>
      <trkpt lat="44.63704" lon="5.77369">
        <ele>1331.6</ele>
        <time>2015-06-30T08:23:34Z</time>
      </trkpt>
      <trkpt lat="44.63703" lon="5.77372">
        <ele>1329</ele>
        <time>2015-06-30T08:23:39Z</time>
      </trkpt>
      <trkpt lat="44.63704" lon="5.77371">
        <ele>1328.9</ele>
        <time>2015-06-30T08:23:44Z</time>
      </trkpt>
      <trkpt lat="44.63701" lon="5.77368">
        <ele>1327</ele>
        <time>2015-06-30T08:23:49Z</time>
      </trkpt>
      <trkpt lat="44.63701" lon="5.77362">
        <ele>1331.3</ele>
        <time>2015-06-30T08:23:54Z</time>
      </trkpt>
      <trkpt lat="44.63702" lon="5.77366">
        <ele>1333.2</ele>
        <time>2015-06-30T08:23:59Z</time>
      </trkpt>
      <trkpt lat="44.63701" lon="5.77366">
        <ele>1327.7</ele>
        <time>2015-06-30T08:24:04Z</time>
      </trkpt>
      <trkpt lat="44.63703" lon="5.77366">
        <ele>1330.3</ele>
        <time>2015-06-30T08:24:09Z</time>
      </trkpt>
      <trkpt lat="44.63701" lon="5.77366">
        <ele>1328.5</ele>
        <time>2015-06-30T08:24:14Z</time>
      </trkpt>
      <trkpt lat="44.63701" lon="5.77366">
        <ele>1328.3</ele>
        <time>2015-06-30T08:24:19Z</time>
      </trkpt>
      <trkpt lat="44.63699" lon="5.77361">
        <ele>1328.9</ele>
        <time>2015-06-30T08:24:24Z</time>
      </trkpt>
      <trkpt lat="44.63699" lon="5.77363">
        <ele>1329.3</ele>
        <time>2015-06-30T08:24:29Z</time>
      </trkpt>
      <trkpt lat="44.63699" lon="5.77364">
        <ele>1329</ele>
        <time>2015-06-30T08:24:34Z</time>
      </trkpt>
      <trkpt lat="44.63699" lon="5.77362">
        <ele>1329.5</ele>
        <time>2015-06-30T08:24:39Z</time>
      </trkpt>
      <trkpt lat="44.63697" lon="5.7736">
        <ele>1330.3</ele>
        <time>2015-06-30T08:24:44Z</time>
      </trkpt>
      <trkpt lat="44.63696" lon="5.77359">
        <ele>1330.5</ele>
        <time>2015-06-30T08:24:49Z</time>
      </trkpt>
      <trkpt lat="44.63696" lon="5.77359">
        <ele>1329.8</ele>
        <time>2015-06-30T08:24:54Z</time>
      </trkpt>
      <trkpt lat="44.63696" lon="5.77359">
        <ele>1328.3</ele>
        <time>2015-06-30T08:24:59Z</time>
      </trkpt>
      <trkpt lat="44.63697" lon="5.77354">
        <ele>1328.4</ele>
        <time>2015-06-30T08:25:04Z</time>
      </trkpt>
      <trkpt lat="44.63699" lon="5.77353">
        <ele>1331.2</ele>
        <time>2015-06-30T08:25:09Z</time>
      </trkpt>
      <trkpt lat="44.637" lon="5.77355">
        <ele>1331</ele>
        <time>2015-06-30T08:25:14Z</time>
      </trkpt>
      <trkpt lat="44.63698" lon="5.7735">
        <ele>1333</ele>
        <time>2015-06-30T08:25:19Z</time>
      </trkpt>
      <trkpt lat="44.637" lon="5.77348">
        <ele>1335</ele>
        <time>2015-06-30T08:25:24Z</time>
      </trkpt>
      <trkpt lat="44.63699" lon="5.77346">
        <ele>1334.6</ele>
        <time>2015-06-30T08:25:29Z</time>
      </trkpt>
      <trkpt lat="44.63698" lon="5.77347">
        <ele>1333.8</ele>
        <time>2015-06-30T08:25:34Z</time>
      </trkpt>
      <trkpt lat="44.63697" lon="5.77342">
        <ele>1335.6</ele>
        <time>2015-06-30T08:25:39Z</time>
      </trkpt>
      <trkpt lat="44.63697" lon="5.77341">
        <ele>1337</ele>
        <time>2015-06-30T08:25:44Z</time>
      </trkpt>
      <trkpt lat="44.63697" lon="5.77342">
        <ele>1336.7</ele>
        <time>2015-06-30T08:25:49Z</time>
      </trkpt>
      <trkpt lat="44.63696" lon="5.77346">
        <ele>1334.6</ele>
        <time>2015-06-30T08:25:54Z</time>
      </trkpt>
      <trkpt lat="44.63697" lon="5.77349">
        <ele>1332.2</ele>
        <time>2015-06-30T08:25:59Z</time>
      </trkpt>
      <trkpt lat="44.63696" lon="5.77351">
        <ele>1330.9</ele>
        <time>2015-06-30T08:26:04Z</time>
      </trkpt>
      <trkpt lat="44.63694" lon="5.77348">
        <ele>1328.5</ele>
        <time>2015-06-30T08:26:09Z</time>
      </trkpt>
      <trkpt lat="44.63692" lon="5.77352">
        <ele>1323.4</ele>
        <time>2015-06-30T08:26:14Z</time>
      </trkpt>
      <trkpt lat="44.63694" lon="5.77355">
        <ele>1319.7</ele>
        <time>2015-06-30T08:26:19Z</time>
      </trkpt>
      <trkpt lat="44.63692" lon="5.77346">
        <ele>1319.5</ele>
        <time>2015-06-30T08:26:24Z</time>
      </trkpt>
      <trkpt lat="44.63693" lon="5.77341">
        <ele>1322</ele>
        <time>2015-06-30T08:26:29Z</time>
      </trkpt>
      <trkpt lat="44.63693" lon="5.77345">
        <ele>1322.7</ele>
        <time>2015-06-30T08:26:34Z</time>
      </trkpt>
      <trkpt lat="44.63693" lon="5.7735">
        <ele>1323.4</ele>
        <time>2015-06-30T08:26:39Z</time>
      </trkpt>
      <trkpt lat="44.63692" lon="5.77353">
        <ele>1322.3</ele>
        <time>2015-06-30T08:26:44Z</time>
      </trkpt>
      <trkpt lat="44.63691" lon="5.77355">
        <ele>1323.3</ele>
        <time>2015-06-30T08:26:49Z</time>
      </trkpt>
      <trkpt lat="44.63691" lon="5.77354">
        <ele>1323.9</ele>
        <time>2015-06-30T08:26:54Z</time>
      </trkpt>
      <trkpt lat="44.63692" lon="5.77356">
        <ele>1322.8</ele>
        <time>2015-06-30T08:26:59Z</time>
      </trkpt>
      <trkpt lat="44.63694" lon="5.77357">
        <ele>1321.5</ele>
        <time>2015-06-30T08:27:04Z</time>
      </trkpt>
      <trkpt lat="44.63694" lon="5.77357">
        <ele>1320.4</ele>
        <time>2015-06-30T08:27:09Z</time>
      </trkpt>
      <trkpt lat="44.63693" lon="5.77357">
        <ele>1317.5</ele>
        <time>2015-06-30T08:27:14Z</time>
      </trkpt>
      <trkpt lat="44.63692" lon="5.77358">
        <ele>1314.2</ele>
        <time>2015-06-30T08:27:19Z</time>
      </trkpt>
      <trkpt lat="44.63691" lon="5.77357">
        <ele>1312.1</ele>
        <time>2015-06-30T08:27:24Z</time>
      </trkpt>
      <trkpt lat="44.63693" lon="5.77357">
        <ele>1317.6</ele>
        <time>2015-06-30T08:27:29Z</time>
      </trkpt>
      <trkpt lat="44.63695" lon="5.77357">
        <ele>1318.1</ele>
        <time>2015-06-30T08:27:34Z</time>
      </trkpt>
      <trkpt lat="44.63695" lon="5.77358">
        <ele>1320.9</ele>
        <time>2015-06-30T08:27:39Z</time>
      </trkpt>
      <trkpt lat="44.63698" lon="5.77357">
        <ele>1326.8</ele>
        <time>2015-06-30T08:27:44Z</time>
      </trkpt>
      <trkpt lat="44.63699" lon="5.77354">
        <ele>1333.5</ele>
        <time>2015-06-30T08:27:49Z</time>
      </trkpt>
      <trkpt lat="44.63701" lon="5.77352">
        <ele>1334.7</ele>
        <time>2015-06-30T08:27:54Z</time>
      </trkpt>
      <trkpt lat="44.63699" lon="5.7735">
        <ele>1334</ele>
        <time>2015-06-30T08:27:59Z</time>
      </trkpt>
      <trkpt lat="44.63699" lon="5.77353">
        <ele>1334.7</ele>
        <time>2015-06-30T08:28:04Z</time>
      </trkpt>
      <trkpt lat="44.63705" lon="5.77355">
        <ele>1335.3</ele>
        <time>2015-06-30T08:28:09Z</time>
      </trkpt>
      <trkpt lat="44.63704" lon="5.7735">
        <ele>1336.2</ele>
        <time>2015-06-30T08:28:14Z</time>
      </trkpt>
      <trkpt lat="44.637" lon="5.77357">
        <ele>1328.3</ele>
        <time>2015-06-30T08:28:19Z</time>
      </trkpt>
      <trkpt lat="44.63704" lon="5.7736">
        <ele>1326.6</ele>
        <time>2015-06-30T08:28:24Z</time>
      </trkpt>
      <trkpt lat="44.637" lon="5.77358">
        <ele>1325</ele>
        <time>2015-06-30T08:28:29Z</time>
      </trkpt>
      <trkpt lat="44.63699" lon="5.7736">
        <ele>1322.9</ele>
        <time>2015-06-30T08:28:34Z</time>
      </trkpt>
      <trkpt lat="44.63695" lon="5.77363">
        <ele>1319.7</ele>
        <time>2015-06-30T08:28:39Z</time>
      </trkpt>
      <trkpt lat="44.63692" lon="5.77366">
        <ele>1316.3</ele>
        <time>2015-06-30T08:28:44Z</time>
      </trkpt>
      <trkpt lat="44.63686" lon="5.77368">
        <ele>1314.1</ele>
        <time>2015-06-30T08:28:49Z</time>
      </trkpt>
      <trkpt lat="44.63681" lon="5.77371">
        <ele>1312.2</ele>
        <time>2015-06-30T08:28:54Z</time>
      </trkpt>
      <trkpt lat="44.63679" lon="5.77373">
        <ele>1309.9</ele>
        <time>2015-06-30T08:28:59Z</time>
      </trkpt>
      <trkpt lat="44.63676" lon="5.77378">
        <ele>1311.7</ele>
        <time>2015-06-30T08:29:04Z</time>
      </trkpt>
      <trkpt lat="44.63673" lon="5.77378">
        <ele>1319.1</ele>
        <time>2015-06-30T08:29:09Z</time>
      </trkpt>
      <trkpt lat="44.63672" lon="5.7738">
        <ele>1323</ele>
        <time>2015-06-30T08:29:14Z</time>
      </trkpt>
      <trkpt lat="44.63669" lon="5.77383">
        <ele>1323.2</ele>
        <time>2015-06-30T08:29:19Z</time>
      </trkpt>
      <trkpt lat="44.63665" lon="5.77387">
        <ele>1323.5</ele>
        <time>2015-06-30T08:29:24Z</time>
      </trkpt>
      <trkpt lat="44.63668" lon="5.77396">
        <ele>1322.5</ele>
        <time>2015-06-30T08:29:29Z</time>
      </trkpt>
      <trkpt lat="44.63668" lon="5.77407">
        <ele>1320.6</ele>
        <time>2015-06-30T08:29:34Z</time>
      </trkpt>
      <trkpt lat="44.63666" lon="5.77417">
        <ele>1320.4</ele>
        <time>2015-06-30T08:29:39Z</time>
      </trkpt>
      <trkpt lat="44.63664" lon="5.77423">
        <ele>1317</ele>
        <time>2015-06-30T08:29:44Z</time>
      </trkpt>
      <trkpt lat="44.63659" lon="5.77429">
        <ele>1320.6</ele>
        <time>2015-06-30T08:29:49Z</time>
      </trkpt>
      <trkpt lat="44.63654" lon="5.77433">
        <ele>1322.2</ele>
        <time>2015-06-30T08:29:54Z</time>
      </trkpt>
      <trkpt lat="44.63651" lon="5.77441">
        <ele>1322.3</ele>
        <time>2015-06-30T08:29:59Z</time>
      </trkpt>
      <trkpt lat="44.63647" lon="5.77445">
        <ele>1323.3</ele>
        <time>2015-06-30T08:30:04Z</time>
      </trkpt>
      <trkpt lat="44.63643" lon="5.77448">
        <ele>1318.9</ele>
        <time>2015-06-30T08:30:09Z</time>
      </trkpt>
      <trkpt lat="44.63637" lon="5.7745">
        <ele>1315.1</ele>
        <time>2015-06-30T08:30:14Z</time>
      </trkpt>
      <trkpt lat="44.63632" lon="5.77452">
        <ele>1320.3</ele>
        <time>2015-06-30T08:30:19Z</time>
      </trkpt>
      <trkpt lat="44.63628" lon="5.77456">
        <ele>1324.4</ele>
        <time>2015-06-30T08:30:24Z</time>
      </trkpt>
      <trkpt lat="44.63623" lon="5.77458">
        <ele>1328.3</ele>
        <time>2015-06-30T08:30:29Z</time>
      </trkpt>
      <trkpt lat="44.63614" lon="5.77461">
        <ele>1332.3</ele>
        <time>2015-06-30T08:30:34Z</time>
      </trkpt>
      <trkpt lat="44.63609" lon="5.77465">
        <ele>1334.7</ele>
        <time>2015-06-30T08:30:39Z</time>
      </trkpt>
      <trkpt lat="44.63603" lon="5.77466">
        <ele>1335.4</ele>
        <time>2015-06-30T08:30:44Z</time>
      </trkpt>
      <trkpt lat="44.63601" lon="5.77471">
        <ele>1335.9</ele>
        <time>2015-06-30T08:30:49Z</time>
      </trkpt>
      <trkpt lat="44.63595" lon="5.77475">
        <ele>1333.6</ele>
        <time>2015-06-30T08:30:54Z</time>
      </trkpt>
      <trkpt lat="44.6359" lon="5.77481">
        <ele>1331.8</ele>
        <time>2015-06-30T08:30:59Z</time>
      </trkpt>
      <trkpt lat="44.63584" lon="5.77488">
        <ele>1331.4</ele>
        <time>2015-06-30T08:31:04Z</time>
      </trkpt>
      <trkpt lat="44.6358" lon="5.77494">
        <ele>1330.6</ele>
        <time>2015-06-30T08:31:09Z</time>
      </trkpt>
      <trkpt lat="44.63575" lon="5.77499">
        <ele>1333.6</ele>
        <time>2015-06-30T08:31:14Z</time>
      </trkpt>
      <trkpt lat="44.63572" lon="5.77505">
        <ele>1337.8</ele>
        <time>2015-06-30T08:31:19Z</time>
      </trkpt>
      <trkpt lat="44.63569" lon="5.77509">
        <ele>1343.8</ele>
        <time>2015-06-30T08:31:24Z</time>
      </trkpt>
      <trkpt lat="44.63569" lon="5.77517">
        <ele>1343.2</ele>
        <time>2015-06-30T08:31:29Z</time>
      </trkpt>
      <trkpt lat="44.63567" lon="5.77519">
        <ele>1342.6</ele>
        <time>2015-06-30T08:31:34Z</time>
      </trkpt>
      <trkpt lat="44.63564" lon="5.77516">
        <ele>1344.7</ele>
        <time>2015-06-30T08:31:39Z</time>
      </trkpt>
      <trkpt lat="44.6356" lon="5.77513">
        <ele>1351.1</ele>
        <time>2015-06-30T08:31:44Z</time>
      </trkpt>
      <trkpt lat="44.63562" lon="5.77517">
        <ele>1350.9</ele>
        <time>2015-06-30T08:31:49Z</time>
      </trkpt>
      <trkpt lat="44.63562" lon="5.77526">
        <ele>1347.8</ele>
        <time>2015-06-30T08:31:54Z</time>
      </trkpt>
      <trkpt lat="44.63559" lon="5.77531">
        <ele>1346.6</ele>
        <time>2015-06-30T08:31:59Z</time>
      </trkpt>
      <trkpt lat="44.63558" lon="5.77531">
        <ele>1350.2</ele>
        <time>2015-06-30T08:32:04Z</time>
      </trkpt>
      <trkpt lat="44.63557" lon="5.77532">
        <ele>1356.7</ele>
        <time>2015-06-30T08:32:09Z</time>
      </trkpt>
      <trkpt lat="44.63558" lon="5.77535">
        <ele>1359.6</ele>
        <time>2015-06-30T08:32:14Z</time>
      </trkpt>
      <trkpt lat="44.63558" lon="5.77536">
        <ele>1364.7</ele>
        <time>2015-06-30T08:32:19Z</time>
      </trkpt>
      <trkpt lat="44.63554" lon="5.77535">
        <ele>1366.6</ele>
        <time>2015-06-30T08:32:24Z</time>
      </trkpt>
      <trkpt lat="44.63552" lon="5.77538">
        <ele>1363.2</ele>
        <time>2015-06-30T08:32:29Z</time>
      </trkpt>
      <trkpt lat="44.63552" lon="5.77542">
        <ele>1362.1</ele>
        <time>2015-06-30T08:32:34Z</time>
      </trkpt>
      <trkpt lat="44.63547" lon="5.77545">
        <ele>1358.1</ele>
        <time>2015-06-30T08:32:39Z</time>
      </trkpt>
      <trkpt lat="44.63544" lon="5.77548">
        <ele>1356.4</ele>
        <time>2015-06-30T08:32:46Z</time>
      </trkpt>
      <trkpt lat="44.63536" lon="5.7755">
        <ele>1352.5</ele>
        <time>2015-06-30T08:32:51Z</time>
      </trkpt>
      <trkpt lat="44.63531" lon="5.77548">
        <ele>1348.3</ele>
        <time>2015-06-30T08:32:56Z</time>
      </trkpt>
      <trkpt lat="44.63533" lon="5.7755">
        <ele>1347.1</ele>
        <time>2015-06-30T08:33:01Z</time>
      </trkpt>
      <trkpt lat="44.6354" lon="5.77549">
        <ele>1347.6</ele>
        <time>2015-06-30T08:33:06Z</time>
      </trkpt>
      <trkpt lat="44.63548" lon="5.77548">
        <ele>1348.2</ele>
        <time>2015-06-30T08:33:11Z</time>
      </trkpt>
      <trkpt lat="44.63556" lon="5.77546">
        <ele>1348</ele>
        <time>2015-06-30T08:33:16Z</time>
      </trkpt>
      <trkpt lat="44.6356" lon="5.77537">
        <ele>1350.5</ele>
        <time>2015-06-30T08:33:21Z</time>
      </trkpt>
      <trkpt lat="44.63563" lon="5.77529">
        <ele>1354.2</ele>
        <time>2015-06-30T08:33:26Z</time>
      </trkpt>
      <trkpt lat="44.63565" lon="5.77521">
        <ele>1357.3</ele>
        <time>2015-06-30T08:33:31Z</time>
      </trkpt>
      <trkpt lat="44.63568" lon="5.77518">
        <ele>1358.1</ele>
        <time>2015-06-30T08:33:36Z</time>
      </trkpt>
      <trkpt lat="44.63572" lon="5.77518">
        <ele>1356.2</ele>
        <time>2015-06-30T08:33:41Z</time>
      </trkpt>
      <trkpt lat="44.63573" lon="5.77509">
        <ele>1356.4</ele>
        <time>2015-06-30T08:33:46Z</time>
      </trkpt>
      <trkpt lat="44.63577" lon="5.77504">
        <ele>1355.7</ele>
        <time>2015-06-30T08:33:51Z</time>
      </trkpt>
      <trkpt lat="44.6358" lon="5.77502">
        <ele>1351.8</ele>
        <time>2015-06-30T08:33:56Z</time>
      </trkpt>
      <trkpt lat="44.63583" lon="5.77499">
        <ele>1349.5</ele>
        <time>2015-06-30T08:34:01Z</time>
      </trkpt>
      <trkpt lat="44.63591" lon="5.77497">
        <ele>1346.1</ele>
        <time>2015-06-30T08:34:06Z</time>
      </trkpt>
      <trkpt lat="44.63596" lon="5.77491">
        <ele>1344.4</ele>
        <time>2015-06-30T08:34:11Z</time>
      </trkpt>
      <trkpt lat="44.63604" lon="5.77486">
        <ele>1345.6</ele>
        <time>2015-06-30T08:34:16Z</time>
      </trkpt>
      <trkpt lat="44.63607" lon="5.77476">
        <ele>1346.7</ele>
        <time>2015-06-30T08:34:21Z</time>
      </trkpt>
      <trkpt lat="44.63611" lon="5.77471">
        <ele>1343.5</ele>
        <time>2015-06-30T08:34:26Z</time>
      </trkpt>
      <trkpt lat="44.63619" lon="5.7747">
        <ele>1341.2</ele>
        <time>2015-06-30T08:34:33Z</time>
      </trkpt>
      <trkpt lat="44.63625" lon="5.77464">
        <ele>1341</ele>
        <time>2015-06-30T08:34:38Z</time>
      </trkpt>
      <trkpt lat="44.63631" lon="5.7746">
        <ele>1342.7</ele>
        <time>2015-06-30T08:34:43Z</time>
      </trkpt>
      <trkpt lat="44.63634" lon="5.77459">
        <ele>1346.8</ele>
        <time>2015-06-30T08:34:48Z</time>
      </trkpt>
      <trkpt lat="44.63639" lon="5.77456">
        <ele>1348.4</ele>
        <time>2015-06-30T08:34:53Z</time>
      </trkpt>
      <trkpt lat="44.63649" lon="5.7745">
        <ele>1352</ele>
        <time>2015-06-30T08:35:00Z</time>
      </trkpt>
      <trkpt lat="44.63656" lon="5.77442">
        <ele>1345.5</ele>
        <time>2015-06-30T08:35:05Z</time>
      </trkpt>
      <trkpt lat="44.63661" lon="5.77433">
        <ele>1341.1</ele>
        <time>2015-06-30T08:35:10Z</time>
      </trkpt>
      <trkpt lat="44.63666" lon="5.77427">
        <ele>1336.9</ele>
        <time>2015-06-30T08:35:15Z</time>
      </trkpt>
      <trkpt lat="44.63671" lon="5.77419">
        <ele>1334.2</ele>
        <time>2015-06-30T08:35:20Z</time>
      </trkpt>
      <trkpt lat="44.63673" lon="5.7741">
        <ele>1332.7</ele>
        <time>2015-06-30T08:35:25Z</time>
      </trkpt>
      <trkpt lat="44.63674" lon="5.774">
        <ele>1330.4</ele>
        <time>2015-06-30T08:35:30Z</time>
      </trkpt>
      <trkpt lat="44.63681" lon="5.77392">
        <ele>1329.1</ele>
        <time>2015-06-30T08:35:35Z</time>
      </trkpt>
      <trkpt lat="44.63686" lon="5.77382">
        <ele>1331.5</ele>
        <time>2015-06-30T08:35:40Z</time>
      </trkpt>
      <trkpt lat="44.63689" lon="5.77376">
        <ele>1330.7</ele>
        <time>2015-06-30T08:35:45Z</time>
      </trkpt>
      <trkpt lat="44.63692" lon="5.77375">
        <ele>1328.3</ele>
        <time>2015-06-30T08:35:50Z</time>
      </trkpt>
      <trkpt lat="44.63696" lon="5.7737">
        <ele>1329.9</ele>
        <time>2015-06-30T08:35:55Z</time>
      </trkpt>
      <trkpt lat="44.63701" lon="5.77371">
        <ele>1327.4</ele>
        <time>2015-06-30T08:36:00Z</time>
      </trkpt>
      <trkpt lat="44.63709" lon="5.77381">
        <ele>1323.1</ele>
        <time>2015-06-30T08:36:05Z</time>
      </trkpt>
      <trkpt lat="44.63713" lon="5.77385">
        <ele>1322</ele>
        <time>2015-06-30T08:36:10Z</time>
      </trkpt>
      <trkpt lat="44.63717" lon="5.77385">
        <ele>1322.2</ele>
        <time>2015-06-30T08:36:15Z</time>
      </trkpt>
      <trkpt lat="44.63722" lon="5.77381">
        <ele>1321.7</ele>
        <time>2015-06-30T08:36:20Z</time>
      </trkpt>
      <trkpt lat="44.63727" lon="5.77378">
        <ele>1323.4</ele>
        <time>2015-06-30T08:36:25Z</time>
      </trkpt>
      <trkpt lat="44.63735" lon="5.77373">
        <ele>1331.5</ele>
        <time>2015-06-30T08:36:30Z</time>
      </trkpt>
      <trkpt lat="44.63741" lon="5.77372">
        <ele>1333.4</ele>
        <time>2015-06-30T08:36:35Z</time>
      </trkpt>
      <trkpt lat="44.63748" lon="5.77373">
        <ele>1333.1</ele>
        <time>2015-06-30T08:36:40Z</time>
      </trkpt>
      <trkpt lat="44.63756" lon="5.77374">
        <ele>1335.1</ele>
        <time>2015-06-30T08:36:45Z</time>
      </trkpt>
      <trkpt lat="44.63765" lon="5.77375">
        <ele>1334.7</ele>
        <time>2015-06-30T08:36:50Z</time>
      </trkpt>
      <trkpt lat="44.63772" lon="5.77372">
        <ele>1336.6</ele>
        <time>2015-06-30T08:36:55Z</time>
      </trkpt>
      <trkpt lat="44.63782" lon="5.7737">
        <ele>1342</ele>
        <time>2015-06-30T08:37:00Z</time>
      </trkpt>
      <trkpt lat="44.63788" lon="5.77371">
        <ele>1336.5</ele>
        <time>2015-06-30T08:37:05Z</time>
      </trkpt>
      <trkpt lat="44.63795" lon="5.7737">
        <ele>1337.1</ele>
        <time>2015-06-30T08:37:10Z</time>
      </trkpt>
      <trkpt lat="44.63797" lon="5.77372">
        <ele>1334.2</ele>
        <time>2015-06-30T08:37:15Z</time>
      </trkpt>
      <trkpt lat="44.63802" lon="5.77372">
        <ele>1335.8</ele>
        <time>2015-06-30T08:37:22Z</time>
      </trkpt>
      <trkpt lat="44.63813" lon="5.77374">
        <ele>1337.7</ele>
        <time>2015-06-30T08:37:27Z</time>
      </trkpt>
      <trkpt lat="44.63819" lon="5.77372">
        <ele>1337.8</ele>
        <time>2015-06-30T08:37:32Z</time>
      </trkpt>
      <trkpt lat="44.63825" lon="5.7737">
        <ele>1337.5</ele>
        <time>2015-06-30T08:37:37Z</time>
      </trkpt>
      <trkpt lat="44.6383" lon="5.77366">
        <ele>1337</ele>
        <time>2015-06-30T08:37:42Z</time>
      </trkpt>
      <trkpt lat="44.63836" lon="5.77363">
        <ele>1334.6</ele>
        <time>2015-06-30T08:37:49Z</time>
      </trkpt>
      <trkpt lat="44.63841" lon="5.77362">
        <ele>1336.2</ele>
        <time>2015-06-30T08:37:54Z</time>
      </trkpt>
      <trkpt lat="44.63845" lon="5.77367">
        <ele>1341.7</ele>
        <time>2015-06-30T08:37:59Z</time>
      </trkpt>
      <trkpt lat="44.63846" lon="5.77371">
        <ele>1340.3</ele>
        <time>2015-06-30T08:38:04Z</time>
      </trkpt>
      <trkpt lat="44.63846" lon="5.77371">
        <ele>1337.3</ele>
        <time>2015-06-30T08:38:09Z</time>
      </trkpt>
      <trkpt lat="44.63848" lon="5.77371">
        <ele>1335.3</ele>
        <time>2015-06-30T08:38:14Z</time>
      </trkpt>
      <trkpt lat="44.63847" lon="5.77367">
        <ele>1336.1</ele>
        <time>2015-06-30T08:38:19Z</time>
      </trkpt>
      <trkpt lat="44.63846" lon="5.77369">
        <ele>1334.2</ele>
        <time>2015-06-30T08:38:24Z</time>
      </trkpt>
      <trkpt lat="44.63838" lon="5.77365">
        <ele>1332.3</ele>
        <time>2015-06-30T08:38:29Z</time>
      </trkpt>
      <trkpt lat="44.63838" lon="5.7737">
        <ele>1333.9</ele>
        <time>2015-06-30T08:38:34Z</time>
      </trkpt>
      <trkpt lat="44.63834" lon="5.77373">
        <ele>1335.8</ele>
        <time>2015-06-30T08:38:39Z</time>
      </trkpt>
      <trkpt lat="44.63829" lon="5.77381">
        <ele>1336.1</ele>
        <time>2015-06-30T08:38:44Z</time>
      </trkpt>
      <trkpt lat="44.63825" lon="5.77384">
        <ele>1338.4</ele>
        <time>2015-06-30T08:38:49Z</time>
      </trkpt>
      <trkpt lat="44.63818" lon="5.77396">
        <ele>1340.5</ele>
        <time>2015-06-30T08:38:56Z</time>
      </trkpt>
      <trkpt lat="44.63813" lon="5.77402">
        <ele>1339.8</ele>
        <time>2015-06-30T08:39:01Z</time>
      </trkpt>
      <trkpt lat="44.63809" lon="5.77407">
        <ele>1334.5</ele>
        <time>2015-06-30T08:39:06Z</time>
      </trkpt>
      <trkpt lat="44.63804" lon="5.77411">
        <ele>1330.3</ele>
        <time>2015-06-30T08:39:11Z</time>
      </trkpt>
      <trkpt lat="44.63799" lon="5.77415">
        <ele>1330.8</ele>
        <time>2015-06-30T08:39:16Z</time>
      </trkpt>
      <trkpt lat="44.63795" lon="5.77419">
        <ele>1333.6</ele>
        <time>2015-06-30T08:39:21Z</time>
      </trkpt>
      <trkpt lat="44.6379" lon="5.77422">
        <ele>1334.5</ele>
        <time>2015-06-30T08:39:26Z</time>
      </trkpt>
      <trkpt lat="44.63786" lon="5.77424">
        <ele>1335.7</ele>
        <time>2015-06-30T08:39:31Z</time>
      </trkpt>
      <trkpt lat="44.63782" lon="5.77428">
        <ele>1336.9</ele>
        <time>2015-06-30T08:39:36Z</time>
      </trkpt>
      <trkpt lat="44.63778" lon="5.77432">
        <ele>1337.8</ele>
        <time>2015-06-30T08:39:41Z</time>
      </trkpt>
      <trkpt lat="44.63773" lon="5.77436">
        <ele>1336.2</ele>
        <time>2015-06-30T08:39:46Z</time>
      </trkpt>
      <trkpt lat="44.6377" lon="5.77442">
        <ele>1337</ele>
        <time>2015-06-30T08:39:51Z</time>
      </trkpt>
      <trkpt lat="44.63767" lon="5.77448">
        <ele>1337.7</ele>
        <time>2015-06-30T08:39:56Z</time>
      </trkpt>
      <trkpt lat="44.63765" lon="5.77448">
        <ele>1337</ele>
        <time>2015-06-30T08:40:01Z</time>
      </trkpt>
      <trkpt lat="44.6376" lon="5.77451">
        <ele>1339.2</ele>
        <time>2015-06-30T08:40:06Z</time>
      </trkpt>
      <trkpt lat="44.63757" lon="5.77458">
        <ele>1339.8</ele>
        <time>2015-06-30T08:40:11Z</time>
      </trkpt>
      <trkpt lat="44.63752" lon="5.77462">
        <ele>1339.4</ele>
        <time>2015-06-30T08:40:16Z</time>
      </trkpt>
      <trkpt lat="44.63746" lon="5.77465">
        <ele>1344.9</ele>
        <time>2015-06-30T08:40:21Z</time>
      </trkpt>
      <trkpt lat="44.63741" lon="5.77468">
        <ele>1347.7</ele>
        <time>2015-06-30T08:40:26Z</time>
      </trkpt>
      <trkpt lat="44.63736" lon="5.77469">
        <ele>1351.6</ele>
        <time>2015-06-30T08:40:31Z</time>
      </trkpt>
      <trkpt lat="44.63732" lon="5.77472">
        <ele>1354.1</ele>
        <time>2015-06-30T08:40:36Z</time>
      </trkpt>
      <trkpt lat="44.63728" lon="5.77473">
        <ele>1355.6</ele>
        <time>2015-06-30T08:40:41Z</time>
      </trkpt>
      <trkpt lat="44.63722" lon="5.77475">
        <ele>1353.3</ele>
        <time>2015-06-30T08:40:46Z</time>
      </trkpt>
      <trkpt lat="44.63718" lon="5.77478">
        <ele>1353.9</ele>
        <time>2015-06-30T08:40:51Z</time>
      </trkpt>
      <trkpt lat="44.63712" lon="5.7748">
        <ele>1352.7</ele>
        <time>2015-06-30T08:40:56Z</time>
      </trkpt>
      <trkpt lat="44.63706" lon="5.77483">
        <ele>1354.7</ele>
        <time>2015-06-30T08:41:01Z</time>
      </trkpt>
      <trkpt lat="44.637" lon="5.77484">
        <ele>1356.7</ele>
        <time>2015-06-30T08:41:06Z</time>
      </trkpt>
      <trkpt lat="44.63695" lon="5.77488">
        <ele>1352.3</ele>
        <time>2015-06-30T08:41:11Z</time>
      </trkpt>
      <trkpt lat="44.63689" lon="5.77489">
        <ele>1352.1</ele>
        <time>2015-06-30T08:41:16Z</time>
      </trkpt>
      <trkpt lat="44.63684" lon="5.77492">
        <ele>1351.6</ele>
        <time>2015-06-30T08:41:21Z</time>
      </trkpt>
      <trkpt lat="44.63679" lon="5.77495">
        <ele>1353.6</ele>
        <time>2015-06-30T08:41:26Z</time>
      </trkpt>
      <trkpt lat="44.63673" lon="5.77499">
        <ele>1351.9</ele>
        <time>2015-06-30T08:41:31Z</time>
      </trkpt>
      <trkpt lat="44.63666" lon="5.775">
        <ele>1352.4</ele>
        <time>2015-06-30T08:41:36Z</time>
      </trkpt>
      <trkpt lat="44.63659" lon="5.77503">
        <ele>1349.1</ele>
        <time>2015-06-30T08:41:41Z</time>
      </trkpt>
      <trkpt lat="44.63654" lon="5.77507">
        <ele>1351.3</ele>
        <time>2015-06-30T08:41:46Z</time>
      </trkpt>
      <trkpt lat="44.6365" lon="5.7751">
        <ele>1352.4</ele>
        <time>2015-06-30T08:41:51Z</time>
      </trkpt>
      <trkpt lat="44.63645" lon="5.77515">
        <ele>1351.8</ele>
        <time>2015-06-30T08:41:56Z</time>
      </trkpt>
      <trkpt lat="44.6364" lon="5.77517">
        <ele>1352.7</ele>
        <time>2015-06-30T08:42:01Z</time>
      </trkpt>
      <trkpt lat="44.63637" lon="5.77522">
        <ele>1353</ele>
        <time>2015-06-30T08:42:06Z</time>
      </trkpt>
      <trkpt lat="44.63633" lon="5.77525">
        <ele>1352.7</ele>
        <time>2015-06-30T08:42:11Z</time>
      </trkpt>
      <trkpt lat="44.63627" lon="5.77528">
        <ele>1354.4</ele>
        <time>2015-06-30T08:42:16Z</time>
      </trkpt>
      <trkpt lat="44.63622" lon="5.77531">
        <ele>1353.9</ele>
        <time>2015-06-30T08:42:21Z</time>
      </trkpt>
      <trkpt lat="44.63617" lon="5.77534">
        <ele>1352.6</ele>
        <time>2015-06-30T08:42:26Z</time>
      </trkpt>
      <trkpt lat="44.63611" lon="5.77537">
        <ele>1352.9</ele>
        <time>2015-06-30T08:42:31Z</time>
      </trkpt>
      <trkpt lat="44.63606" lon="5.77538">
        <ele>1352.8</ele>
        <time>2015-06-30T08:42:36Z</time>
      </trkpt>
      <trkpt lat="44.63601" lon="5.7754">
        <ele>1354.4</ele>
        <time>2015-06-30T08:42:41Z</time>
      </trkpt>
      <trkpt lat="44.63597" lon="5.77542">
        <ele>1356.1</ele>
        <time>2015-06-30T08:42:46Z</time>
      </trkpt>
      <trkpt lat="44.63596" lon="5.77546">
        <ele>1353</ele>
        <time>2015-06-30T08:42:51Z</time>
      </trkpt>
      <trkpt lat="44.63591" lon="5.77548">
        <ele>1355.6</ele>
        <time>2015-06-30T08:42:56Z</time>
      </trkpt>
      <trkpt lat="44.63588" lon="5.77553">
        <ele>1358.7</ele>
        <time>2015-06-30T08:43:01Z</time>
      </trkpt>
      <trkpt lat="44.63585" lon="5.77561">
        <ele>1360.8</ele>
        <time>2015-06-30T08:43:06Z</time>
      </trkpt>
      <trkpt lat="44.6358" lon="5.77565">
        <ele>1359.8</ele>
        <time>2015-06-30T08:43:11Z</time>
      </trkpt>
      <trkpt lat="44.63577" lon="5.77569">
        <ele>1359.1</ele>
        <time>2015-06-30T08:43:16Z</time>
      </trkpt>
      <trkpt lat="44.63572" lon="5.77575">
        <ele>1362.6</ele>
        <time>2015-06-30T08:43:21Z</time>
      </trkpt>
      <trkpt lat="44.63566" lon="5.77577">
        <ele>1362.8</ele>
        <time>2015-06-30T08:43:26Z</time>
      </trkpt>
      <trkpt lat="44.63563" lon="5.77582">
        <ele>1362.8</ele>
        <time>2015-06-30T08:43:31Z</time>
      </trkpt>
      <trkpt lat="44.63559" lon="5.77582">
        <ele>1361.9</ele>
        <time>2015-06-30T08:43:36Z</time>
      </trkpt>
      <trkpt lat="44.63561" lon="5.77583">
        <ele>1364</ele>
        <time>2015-06-30T08:43:41Z</time>
      </trkpt>
      <trkpt lat="44.63561" lon="5.77584">
        <ele>1364.1</ele>
        <time>2015-06-30T08:43:46Z</time>
      </trkpt>
      <trkpt lat="44.63561" lon="5.77585">
        <ele>1364.7</ele>
        <time>2015-06-30T08:43:51Z</time>
      </trkpt>
      <trkpt lat="44.63557" lon="5.77587">
        <ele>1363.7</ele>
        <time>2015-06-30T08:43:56Z</time>
      </trkpt>
      <trkpt lat="44.63551" lon="5.77589">
        <ele>1363.7</ele>
        <time>2015-06-30T08:44:01Z</time>
      </trkpt>
      <trkpt lat="44.63546" lon="5.77592">
        <ele>1365.5</ele>
        <time>2015-06-30T08:44:06Z</time>
      </trkpt>
      <trkpt lat="44.63542" lon="5.77591">
        <ele>1370</ele>
        <time>2015-06-30T08:44:11Z</time>
      </trkpt>
      <trkpt lat="44.63537" lon="5.77595">
        <ele>1370.5</ele>
        <time>2015-06-30T08:44:16Z</time>
      </trkpt>
      <trkpt lat="44.63532" lon="5.77598">
        <ele>1370.4</ele>
        <time>2015-06-30T08:44:21Z</time>
      </trkpt>
      <trkpt lat="44.63529" lon="5.776">
        <ele>1371.5</ele>
        <time>2015-06-30T08:44:26Z</time>
      </trkpt>
      <trkpt lat="44.63525" lon="5.77603">
        <ele>1371.4</ele>
        <time>2015-06-30T08:44:31Z</time>
      </trkpt>
      <trkpt lat="44.63521" lon="5.77606">
        <ele>1369.9</ele>
        <time>2015-06-30T08:44:36Z</time>
      </trkpt>
      <trkpt lat="44.63516" lon="5.77604">
        <ele>1371.7</ele>
        <time>2015-06-30T08:44:41Z</time>
      </trkpt>
      <trkpt lat="44.6351" lon="5.77604">
        <ele>1370.6</ele>
        <time>2015-06-30T08:44:46Z</time>
      </trkpt>
      <trkpt lat="44.63505" lon="5.77604">
        <ele>1369.3</ele>
        <time>2015-06-30T08:44:51Z</time>
      </trkpt>
      <trkpt lat="44.63499" lon="5.77605">
        <ele>1369.8</ele>
        <time>2015-06-30T08:44:56Z</time>
      </trkpt>
      <trkpt lat="44.63494" lon="5.77607">
        <ele>1369.9</ele>
        <time>2015-06-30T08:45:01Z</time>
      </trkpt>
      <trkpt lat="44.6349" lon="5.77609">
        <ele>1369.2</ele>
        <time>2015-06-30T08:45:06Z</time>
      </trkpt>
      <trkpt lat="44.63486" lon="5.77613">
        <ele>1366.3</ele>
        <time>2015-06-30T08:45:11Z</time>
      </trkpt>
      <trkpt lat="44.63484" lon="5.7762">
        <ele>1365.2</ele>
        <time>2015-06-30T08:45:16Z</time>
      </trkpt>
      <trkpt lat="44.63484" lon="5.77625">
        <ele>1372.8</ele>
        <time>2015-06-30T08:45:21Z</time>
      </trkpt>
      <trkpt lat="44.63488" lon="5.77631">
        <ele>1380.5</ele>
        <time>2015-06-30T08:45:26Z</time>
      </trkpt>
      <trkpt lat="44.63492" lon="5.77632">
        <ele>1381.7</ele>
        <time>2015-06-30T08:45:31Z</time>
      </trkpt>
      <trkpt lat="44.63498" lon="5.77633">
        <ele>1383.1</ele>
        <time>2015-06-30T08:45:36Z</time>
      </trkpt>
      <trkpt lat="44.63502" lon="5.77634">
        <ele>1381.1</ele>
        <time>2015-06-30T08:45:41Z</time>
      </trkpt>
      <trkpt lat="44.63508" lon="5.77634">
        <ele>1382.3</ele>
        <time>2015-06-30T08:45:46Z</time>
      </trkpt>
      <trkpt lat="44.63513" lon="5.77634">
        <ele>1380.3</ele>
        <time>2015-06-30T08:45:51Z</time>
      </trkpt>
      <trkpt lat="44.63518" lon="5.77633">
        <ele>1379.9</ele>
        <time>2015-06-30T08:45:56Z</time>
      </trkpt>
      <trkpt lat="44.63525" lon="5.77633">
        <ele>1379.8</ele>
        <time>2015-06-30T08:46:01Z</time>
      </trkpt>
      <trkpt lat="44.63529" lon="5.77632">
        <ele>1379.1</ele>
        <time>2015-06-30T08:46:06Z</time>
      </trkpt>
      <trkpt lat="44.63533" lon="5.77627">
        <ele>1382.9</ele>
        <time>2015-06-30T08:46:11Z</time>
      </trkpt>
      <trkpt lat="44.63537" lon="5.77626">
        <ele>1384.9</ele>
        <time>2015-06-30T08:46:16Z</time>
      </trkpt>
      <trkpt lat="44.63544" lon="5.77626">
        <ele>1384.2</ele>
        <time>2015-06-30T08:46:21Z</time>
      </trkpt>
      <trkpt lat="44.63549" lon="5.77625">
        <ele>1383.3</ele>
        <time>2015-06-30T08:46:26Z</time>
      </trkpt>
      <trkpt lat="44.63555" lon="5.77625">
        <ele>1381</ele>
        <time>2015-06-30T08:46:31Z</time>
      </trkpt>
      <trkpt lat="44.63559" lon="5.77628">
        <ele>1380.2</ele>
        <time>2015-06-30T08:46:36Z</time>
      </trkpt>
      <trkpt lat="44.63564" lon="5.77631">
        <ele>1380.4</ele>
        <time>2015-06-30T08:46:41Z</time>
      </trkpt>
      <trkpt lat="44.63572" lon="5.77634">
        <ele>1383.7</ele>
        <time>2015-06-30T08:46:46Z</time>
      </trkpt>
      <trkpt lat="44.63577" lon="5.7764">
        <ele>1384.8</ele>
        <time>2015-06-30T08:46:51Z</time>
      </trkpt>
      <trkpt lat="44.63584" lon="5.77642">
        <ele>1386.1</ele>
        <time>2015-06-30T08:46:56Z</time>
      </trkpt>
      <trkpt lat="44.63588" lon="5.77644">
        <ele>1384.8</ele>
        <time>2015-06-30T08:47:01Z</time>
      </trkpt>
      <trkpt lat="44.63591" lon="5.77647">
        <ele>1387.7</ele>
        <time>2015-06-30T08:47:06Z</time>
      </trkpt>
      <trkpt lat="44.63597" lon="5.7765">
        <ele>1388.5</ele>
        <time>2015-06-30T08:47:11Z</time>
      </trkpt>
      <trkpt lat="44.63601" lon="5.77655">
        <ele>1390.5</ele>
        <time>2015-06-30T08:47:16Z</time>
      </trkpt>
      <trkpt lat="44.63608" lon="5.77658">
        <ele>1394.3</ele>
        <time>2015-06-30T08:47:21Z</time>
      </trkpt>
      <trkpt lat="44.63614" lon="5.77662">
        <ele>1395.5</ele>
        <time>2015-06-30T08:47:26Z</time>
      </trkpt>
      <trkpt lat="44.63619" lon="5.77666">
        <ele>1395.4</ele>
        <time>2015-06-30T08:47:31Z</time>
      </trkpt>
      <trkpt lat="44.63623" lon="5.77669">
        <ele>1393.4</ele>
        <time>2015-06-30T08:47:36Z</time>
      </trkpt>
      <trkpt lat="44.63627" lon="5.77671">
        <ele>1397.7</ele>
        <time>2015-06-30T08:47:43Z</time>
      </trkpt>
      <trkpt lat="44.63633" lon="5.77671">
        <ele>1404</ele>
        <time>2015-06-30T08:47:48Z</time>
      </trkpt>
      <trkpt lat="44.63635" lon="5.77674">
        <ele>1409.2</ele>
        <time>2015-06-30T08:47:53Z</time>
      </trkpt>
      <trkpt lat="44.63638" lon="5.77677">
        <ele>1412.4</ele>
        <time>2015-06-30T08:47:58Z</time>
      </trkpt>
      <trkpt lat="44.63642" lon="5.77687">
        <ele>1415.2</ele>
        <time>2015-06-30T08:48:03Z</time>
      </trkpt>
      <trkpt lat="44.63647" lon="5.77693">
        <ele>1417.3</ele>
        <time>2015-06-30T08:48:08Z</time>
      </trkpt>
      <trkpt lat="44.63656" lon="5.77698">
        <ele>1414.4</ele>
        <time>2015-06-30T08:48:13Z</time>
      </trkpt>
      <trkpt lat="44.63661" lon="5.77702">
        <ele>1413.3</ele>
        <time>2015-06-30T08:48:18Z</time>
      </trkpt>
      <trkpt lat="44.63667" lon="5.77703">
        <ele>1414.9</ele>
        <time>2015-06-30T08:48:23Z</time>
      </trkpt>
      <trkpt lat="44.63673" lon="5.777">
        <ele>1413.5</ele>
        <time>2015-06-30T08:48:28Z</time>
      </trkpt>
      <trkpt lat="44.63678" lon="5.77696">
        <ele>1412.2</ele>
        <time>2015-06-30T08:48:33Z</time>
      </trkpt>
      <trkpt lat="44.63683" lon="5.77694">
        <ele>1411.7</ele>
        <time>2015-06-30T08:48:38Z</time>
      </trkpt>
      <trkpt lat="44.6369" lon="5.77688">
        <ele>1415.8</ele>
        <time>2015-06-30T08:48:43Z</time>
      </trkpt>
      <trkpt lat="44.63695" lon="5.77681">
        <ele>1419.7</ele>
        <time>2015-06-30T08:48:48Z</time>
      </trkpt>
      <trkpt lat="44.63702" lon="5.77683">
        <ele>1417.9</ele>
        <time>2015-06-30T08:48:53Z</time>
      </trkpt>
      <trkpt lat="44.63709" lon="5.77689">
        <ele>1413.9</ele>
        <time>2015-06-30T08:48:58Z</time>
      </trkpt>
      <trkpt lat="44.63712" lon="5.7769">
        <ele>1416.3</ele>
        <time>2015-06-30T08:49:03Z</time>
      </trkpt>
      <trkpt lat="44.63713" lon="5.777">
        <ele>1414.4</ele>
        <time>2015-06-30T08:49:08Z</time>
      </trkpt>
      <trkpt lat="44.63713" lon="5.77703">
        <ele>1413.5</ele>
        <time>2015-06-30T08:49:13Z</time>
      </trkpt>
      <trkpt lat="44.63714" lon="5.77706">
        <ele>1417.4</ele>
        <time>2015-06-30T08:49:18Z</time>
      </trkpt>
      <trkpt lat="44.63712" lon="5.77713">
        <ele>1422.1</ele>
        <time>2015-06-30T08:49:23Z</time>
      </trkpt>
      <trkpt lat="44.63707" lon="5.77718">
        <ele>1420.2</ele>
        <time>2015-06-30T08:49:28Z</time>
      </trkpt>
      <trkpt lat="44.63702" lon="5.77722">
        <ele>1421.3</ele>
        <time>2015-06-30T08:49:33Z</time>
      </trkpt>
      <trkpt lat="44.63697" lon="5.77722">
        <ele>1418.7</ele>
        <time>2015-06-30T08:49:38Z</time>
      </trkpt>
      <trkpt lat="44.63691" lon="5.77726">
        <ele>1419.2</ele>
        <time>2015-06-30T08:49:43Z</time>
      </trkpt>
      <trkpt lat="44.63688" lon="5.7773">
        <ele>1416</ele>
        <time>2015-06-30T08:49:48Z</time>
      </trkpt>
      <trkpt lat="44.63685" lon="5.77735">
        <ele>1412.2</ele>
        <time>2015-06-30T08:49:53Z</time>
      </trkpt>
      <trkpt lat="44.63681" lon="5.77739">
        <ele>1412.4</ele>
        <time>2015-06-30T08:49:58Z</time>
      </trkpt>
      <trkpt lat="44.63679" lon="5.77745">
        <ele>1413.7</ele>
        <time>2015-06-30T08:50:03Z</time>
      </trkpt>
      <trkpt lat="44.63673" lon="5.77746">
        <ele>1411.6</ele>
        <time>2015-06-30T08:50:08Z</time>
      </trkpt>
      <trkpt lat="44.63671" lon="5.77755">
        <ele>1414.3</ele>
        <time>2015-06-30T08:50:13Z</time>
      </trkpt>
      <trkpt lat="44.63668" lon="5.7776">
        <ele>1420.3</ele>
        <time>2015-06-30T08:50:18Z</time>
      </trkpt>
      <trkpt lat="44.63665" lon="5.77764">
        <ele>1423.7</ele>
        <time>2015-06-30T08:50:23Z</time>
      </trkpt>
      <trkpt lat="44.63658" lon="5.77764">
        <ele>1430.1</ele>
        <time>2015-06-30T08:50:28Z</time>
      </trkpt>
      <trkpt lat="44.63652" lon="5.77762">
        <ele>1435.5</ele>
        <time>2015-06-30T08:50:33Z</time>
      </trkpt>
      <trkpt lat="44.63647" lon="5.77764">
        <ele>1433.2</ele>
        <time>2015-06-30T08:50:38Z</time>
      </trkpt>
      <trkpt lat="44.63645" lon="5.77763">
        <ele>1429.5</ele>
        <time>2015-06-30T08:50:43Z</time>
      </trkpt>
      <trkpt lat="44.63643" lon="5.7776">
        <ele>1427.6</ele>
        <time>2015-06-30T08:50:48Z</time>
      </trkpt>
      <trkpt lat="44.63643" lon="5.77759">
        <ele>1429.8</ele>
        <time>2015-06-30T08:50:53Z</time>
      </trkpt>
      <trkpt lat="44.63639" lon="5.7776">
        <ele>1427.5</ele>
        <time>2015-06-30T08:50:58Z</time>
      </trkpt>
      <trkpt lat="44.63637" lon="5.77757">
        <ele>1426.3</ele>
        <time>2015-06-30T08:51:03Z</time>
      </trkpt>
      <trkpt lat="44.63635" lon="5.77755">
        <ele>1431.9</ele>
        <time>2015-06-30T08:51:08Z</time>
      </trkpt>
      <trkpt lat="44.63634" lon="5.77754">
        <ele>1434.9</ele>
        <time>2015-06-30T08:51:13Z</time>
      </trkpt>
      <trkpt lat="44.63627" lon="5.7775">
        <ele>1438</ele>
        <time>2015-06-30T08:51:18Z</time>
      </trkpt>
      <trkpt lat="44.63625" lon="5.77759">
        <ele>1434.1</ele>
        <time>2015-06-30T08:51:23Z</time>
      </trkpt>
      <trkpt lat="44.63622" lon="5.77766">
        <ele>1430.8</ele>
        <time>2015-06-30T08:51:30Z</time>
      </trkpt>
      <trkpt lat="44.63619" lon="5.77772">
        <ele>1430.1</ele>
        <time>2015-06-30T08:51:35Z</time>
      </trkpt>
      <trkpt lat="44.63617" lon="5.77775">
        <ele>1427.6</ele>
        <time>2015-06-30T08:51:40Z</time>
      </trkpt>
      <trkpt lat="44.63615" lon="5.77779">
        <ele>1422.9</ele>
        <time>2015-06-30T08:51:45Z</time>
      </trkpt>
      <trkpt lat="44.63611" lon="5.77784">
        <ele>1421.1</ele>
        <time>2015-06-30T08:51:50Z</time>
      </trkpt>
      <trkpt lat="44.63607" lon="5.77787">
        <ele>1423.1</ele>
        <time>2015-06-30T08:51:55Z</time>
      </trkpt>
      <trkpt lat="44.63602" lon="5.77791">
        <ele>1423.4</ele>
        <time>2015-06-30T08:52:00Z</time>
      </trkpt>
      <trkpt lat="44.63599" lon="5.77793">
        <ele>1421.1</ele>
        <time>2015-06-30T08:52:05Z</time>
      </trkpt>
      <trkpt lat="44.63593" lon="5.77795">
        <ele>1422.2</ele>
        <time>2015-06-30T08:52:10Z</time>
      </trkpt>
      <trkpt lat="44.63587" lon="5.77797">
        <ele>1424.1</ele>
        <time>2015-06-30T08:52:15Z</time>
      </trkpt>
      <trkpt lat="44.6358" lon="5.77799">
        <ele>1428.1</ele>
        <time>2015-06-30T08:52:20Z</time>
      </trkpt>
      <trkpt lat="44.63576" lon="5.77802">
        <ele>1429.8</ele>
        <time>2015-06-30T08:52:25Z</time>
      </trkpt>
      <trkpt lat="44.63572" lon="5.77806">
        <ele>1428.7</ele>
        <time>2015-06-30T08:52:30Z</time>
      </trkpt>
      <trkpt lat="44.63567" lon="5.7781">
        <ele>1428.8</ele>
        <time>2015-06-30T08:52:35Z</time>
      </trkpt>
      <trkpt lat="44.63564" lon="5.77817">
        <ele>1430.3</ele>
        <time>2015-06-30T08:52:40Z</time>
      </trkpt>
      <trkpt lat="44.63562" lon="5.77824">
        <ele>1432</ele>
        <time>2015-06-30T08:52:45Z</time>
      </trkpt>
      <trkpt lat="44.63558" lon="5.77829">
        <ele>1433.4</ele>
        <time>2015-06-30T08:52:50Z</time>
      </trkpt>
      <trkpt lat="44.63555" lon="5.77837">
        <ele>1435.9</ele>
        <time>2015-06-30T08:52:55Z</time>
      </trkpt>
      <trkpt lat="44.6355" lon="5.77842">
        <ele>1437.9</ele>
        <time>2015-06-30T08:53:00Z</time>
      </trkpt>
      <trkpt lat="44.63546" lon="5.77847">
        <ele>1438</ele>
        <time>2015-06-30T08:53:05Z</time>
      </trkpt>
      <trkpt lat="44.63546" lon="5.77846">
        <ele>1441</ele>
        <time>2015-06-30T08:53:10Z</time>
      </trkpt>
      <trkpt lat="44.63542" lon="5.77846">
        <ele>1439.1</ele>
        <time>2015-06-30T08:53:15Z</time>
      </trkpt>
      <trkpt lat="44.63537" lon="5.77855">
        <ele>1443.4</ele>
        <time>2015-06-30T08:53:20Z</time>
      </trkpt>
      <trkpt lat="44.63533" lon="5.7786">
        <ele>1439.1</ele>
        <time>2015-06-30T08:53:25Z</time>
      </trkpt>
      <trkpt lat="44.63529" lon="5.77863">
        <ele>1439.1</ele>
        <time>2015-06-30T08:53:30Z</time>
      </trkpt>
      <trkpt lat="44.63526" lon="5.77869">
        <ele>1438.2</ele>
        <time>2015-06-30T08:53:35Z</time>
      </trkpt>
      <trkpt lat="44.63523" lon="5.77874">
        <ele>1437.5</ele>
        <time>2015-06-30T08:53:40Z</time>
      </trkpt>
      <trkpt lat="44.63521" lon="5.7788">
        <ele>1437.4</ele>
        <time>2015-06-30T08:53:45Z</time>
      </trkpt>
      <trkpt lat="44.63518" lon="5.77887">
        <ele>1441.3</ele>
        <time>2015-06-30T08:53:50Z</time>
      </trkpt>
      <trkpt lat="44.63516" lon="5.77895">
        <ele>1442.8</ele>
        <time>2015-06-30T08:53:55Z</time>
      </trkpt>
      <trkpt lat="44.63513" lon="5.77903">
        <ele>1445.1</ele>
        <time>2015-06-30T08:54:00Z</time>
      </trkpt>
      <trkpt lat="44.63509" lon="5.77911">
        <ele>1448.7</ele>
        <time>2015-06-30T08:54:05Z</time>
      </trkpt>
      <trkpt lat="44.63505" lon="5.77917">
        <ele>1450.2</ele>
        <time>2015-06-30T08:54:10Z</time>
      </trkpt>
      <trkpt lat="44.63503" lon="5.77922">
        <ele>1446.9</ele>
        <time>2015-06-30T08:54:15Z</time>
      </trkpt>
      <trkpt lat="44.63502" lon="5.77928">
        <ele>1444.4</ele>
        <time>2015-06-30T08:54:20Z</time>
      </trkpt>
      <trkpt lat="44.63499" lon="5.77933">
        <ele>1443.2</ele>
        <time>2015-06-30T08:54:25Z</time>
      </trkpt>
      <trkpt lat="44.63495" lon="5.77934">
        <ele>1441.4</ele>
        <time>2015-06-30T08:54:30Z</time>
      </trkpt>
      <trkpt lat="44.63492" lon="5.77941">
        <ele>1441.1</ele>
        <time>2015-06-30T08:54:35Z</time>
      </trkpt>
      <trkpt lat="44.63493" lon="5.77945">
        <ele>1440.9</ele>
        <time>2015-06-30T08:54:40Z</time>
      </trkpt>
      <trkpt lat="44.6349" lon="5.77941">
        <ele>1442</ele>
        <time>2015-06-30T08:54:45Z</time>
      </trkpt>
      <trkpt lat="44.63492" lon="5.77944">
        <ele>1446.5</ele>
        <time>2015-06-30T08:54:50Z</time>
      </trkpt>
      <trkpt lat="44.63493" lon="5.77947">
        <ele>1451.4</ele>
        <time>2015-06-30T08:54:55Z</time>
      </trkpt>
      <trkpt lat="44.63492" lon="5.77946">
        <ele>1452.4</ele>
        <time>2015-06-30T08:55:00Z</time>
      </trkpt>
      <trkpt lat="44.63492" lon="5.77946">
        <ele>1453.8</ele>
        <time>2015-06-30T08:55:05Z</time>
      </trkpt>
      <trkpt lat="44.63488" lon="5.77951">
        <ele>1451</ele>
        <time>2015-06-30T08:55:12Z</time>
      </trkpt>
      <trkpt lat="44.63483" lon="5.77952">
        <ele>1447.5</ele>
        <time>2015-06-30T08:55:17Z</time>
      </trkpt>
      <trkpt lat="44.63478" lon="5.77957">
        <ele>1447</ele>
        <time>2015-06-30T08:55:22Z</time>
      </trkpt>
      <trkpt lat="44.63476" lon="5.77962">
        <ele>1447</ele>
        <time>2015-06-30T08:55:27Z</time>
      </trkpt>
      <trkpt lat="44.63473" lon="5.77966">
        <ele>1446</ele>
        <time>2015-06-30T08:55:32Z</time>
      </trkpt>
      <trkpt lat="44.63469" lon="5.77969">
        <ele>1446</ele>
        <time>2015-06-30T08:55:37Z</time>
      </trkpt>
      <trkpt lat="44.63467" lon="5.77977">
        <ele>1447.1</ele>
        <time>2015-06-30T08:55:42Z</time>
      </trkpt>
      <trkpt lat="44.63464" lon="5.77985">
        <ele>1449.6</ele>
        <time>2015-06-30T08:55:47Z</time>
      </trkpt>
      <trkpt lat="44.63459" lon="5.77987">
        <ele>1453.3</ele>
        <time>2015-06-30T08:55:52Z</time>
      </trkpt>
      <trkpt lat="44.63455" lon="5.7799">
        <ele>1459.6</ele>
        <time>2015-06-30T08:55:57Z</time>
      </trkpt>
      <trkpt lat="44.63448" lon="5.77991">
        <ele>1470.3</ele>
        <time>2015-06-30T08:56:02Z</time>
      </trkpt>
      <trkpt lat="44.63447" lon="5.78001">
        <ele>1475.1</ele>
        <time>2015-06-30T08:56:07Z</time>
      </trkpt>
      <trkpt lat="44.63442" lon="5.78005">
        <ele>1471.8</ele>
        <time>2015-06-30T08:56:14Z</time>
      </trkpt>
      <trkpt lat="44.63438" lon="5.78008">
        <ele>1476.8</ele>
        <time>2015-06-30T08:56:19Z</time>
      </trkpt>
      <trkpt lat="44.63434" lon="5.78012">
        <ele>1477.9</ele>
        <time>2015-06-30T08:56:24Z</time>
      </trkpt>
      <trkpt lat="44.6343" lon="5.78018">
        <ele>1474.4</ele>
        <time>2015-06-30T08:56:29Z</time>
      </trkpt>
      <trkpt lat="44.63427" lon="5.78025">
        <ele>1468.2</ele>
        <time>2015-06-30T08:56:34Z</time>
      </trkpt>
      <trkpt lat="44.63423" lon="5.78028">
        <ele>1464.5</ele>
        <time>2015-06-30T08:56:39Z</time>
      </trkpt>
      <trkpt lat="44.63418" lon="5.7803">
        <ele>1460.4</ele>
        <time>2015-06-30T08:56:44Z</time>
      </trkpt>
      <trkpt lat="44.63414" lon="5.78034">
        <ele>1457.1</ele>
        <time>2015-06-30T08:56:49Z</time>
      </trkpt>
      <trkpt lat="44.63408" lon="5.78035">
        <ele>1455.1</ele>
        <time>2015-06-30T08:56:54Z</time>
      </trkpt>
      <trkpt lat="44.63401" lon="5.78034">
        <ele>1453.9</ele>
        <time>2015-06-30T08:56:59Z</time>
      </trkpt>
      <trkpt lat="44.63396" lon="5.78037">
        <ele>1451.8</ele>
        <time>2015-06-30T08:57:04Z</time>
      </trkpt>
      <trkpt lat="44.63392" lon="5.7804">
        <ele>1450.3</ele>
        <time>2015-06-30T08:57:09Z</time>
      </trkpt>
      <trkpt lat="44.63387" lon="5.78042">
        <ele>1451.2</ele>
        <time>2015-06-30T08:57:14Z</time>
      </trkpt>
      <trkpt lat="44.63381" lon="5.78042">
        <ele>1456.2</ele>
        <time>2015-06-30T08:57:19Z</time>
      </trkpt>
      <trkpt lat="44.63376" lon="5.78047">
        <ele>1457</ele>
        <time>2015-06-30T08:57:24Z</time>
      </trkpt>
      <trkpt lat="44.63371" lon="5.78053">
        <ele>1459.7</ele>
        <time>2015-06-30T08:57:29Z</time>
      </trkpt>
      <trkpt lat="44.63365" lon="5.78056">
        <ele>1464.7</ele>
        <time>2015-06-30T08:57:34Z</time>
      </trkpt>
      <trkpt lat="44.6336" lon="5.78057">
        <ele>1468.4</ele>
        <time>2015-06-30T08:57:39Z</time>
      </trkpt>
      <trkpt lat="44.63356" lon="5.78062">
        <ele>1470.4</ele>
        <time>2015-06-30T08:57:44Z</time>
      </trkpt>
      <trkpt lat="44.6335" lon="5.78062">
        <ele>1475.6</ele>
        <time>2015-06-30T08:57:49Z</time>
      </trkpt>
      <trkpt lat="44.63344" lon="5.78062">
        <ele>1479.1</ele>
        <time>2015-06-30T08:57:54Z</time>
      </trkpt>
      <trkpt lat="44.6334" lon="5.78069">
        <ele>1477.1</ele>
        <time>2015-06-30T08:57:59Z</time>
      </trkpt>
      <trkpt lat="44.63339" lon="5.78075">
        <ele>1478.9</ele>
        <time>2015-06-30T08:58:04Z</time>
      </trkpt>
      <trkpt lat="44.63336" lon="5.78082">
        <ele>1480.7</ele>
        <time>2015-06-30T08:58:09Z</time>
      </trkpt>
      <trkpt lat="44.63331" lon="5.78089">
        <ele>1484.9</ele>
        <time>2015-06-30T08:58:14Z</time>
      </trkpt>
      <trkpt lat="44.63324" lon="5.78091">
        <ele>1488.2</ele>
        <time>2015-06-30T08:58:19Z</time>
      </trkpt>
      <trkpt lat="44.63321" lon="5.78095">
        <ele>1492.8</ele>
        <time>2015-06-30T08:58:24Z</time>
      </trkpt>
      <trkpt lat="44.63316" lon="5.78099">
        <ele>1495.6</ele>
        <time>2015-06-30T08:58:29Z</time>
      </trkpt>
      <trkpt lat="44.63311" lon="5.78103">
        <ele>1495.3</ele>
        <time>2015-06-30T08:58:34Z</time>
      </trkpt>
      <trkpt lat="44.63307" lon="5.78106">
        <ele>1496.3</ele>
        <time>2015-06-30T08:58:39Z</time>
      </trkpt>
      <trkpt lat="44.63304" lon="5.78115">
        <ele>1490.1</ele>
        <time>2015-06-30T08:58:44Z</time>
      </trkpt>
      <trkpt lat="44.63301" lon="5.78124">
        <ele>1490.2</ele>
        <time>2015-06-30T08:58:49Z</time>
      </trkpt>
      <trkpt lat="44.63299" lon="5.78132">
        <ele>1492.9</ele>
        <time>2015-06-30T08:58:54Z</time>
      </trkpt>
      <trkpt lat="44.63295" lon="5.78139">
        <ele>1503.9</ele>
        <time>2015-06-30T08:58:59Z</time>
      </trkpt>
      <trkpt lat="44.63292" lon="5.7814">
        <ele>1505.2</ele>
        <time>2015-06-30T08:59:04Z</time>
      </trkpt>
      <trkpt lat="44.63291" lon="5.78144">
        <ele>1502.3</ele>
        <time>2015-06-30T08:59:09Z</time>
      </trkpt>
      <trkpt lat="44.63288" lon="5.78152">
        <ele>1500.6</ele>
        <time>2015-06-30T08:59:14Z</time>
      </trkpt>
      <trkpt lat="44.63286" lon="5.78161">
        <ele>1509.3</ele>
        <time>2015-06-30T08:59:19Z</time>
      </trkpt>
      <trkpt lat="44.63282" lon="5.78173">
        <ele>1507.8</ele>
        <time>2015-06-30T08:59:24Z</time>
      </trkpt>
      <trkpt lat="44.63279" lon="5.7818">
        <ele>1507.2</ele>
        <time>2015-06-30T08:59:29Z</time>
      </trkpt>
      <trkpt lat="44.63278" lon="5.78186">
        <ele>1505.2</ele>
        <time>2015-06-30T08:59:34Z</time>
      </trkpt>
      <trkpt lat="44.63275" lon="5.78192">
        <ele>1497.6</ele>
        <time>2015-06-30T08:59:39Z</time>
      </trkpt>
      <trkpt lat="44.63272" lon="5.78199">
        <ele>1494.8</ele>
        <time>2015-06-30T08:59:44Z</time>
      </trkpt>
      <trkpt lat="44.6327" lon="5.78203">
        <ele>1490.9</ele>
        <time>2015-06-30T08:59:49Z</time>
      </trkpt>
      <trkpt lat="44.63267" lon="5.78211">
        <ele>1485.9</ele>
        <time>2015-06-30T08:59:54Z</time>
      </trkpt>
      <trkpt lat="44.63265" lon="5.78219">
        <ele>1482.4</ele>
        <time>2015-06-30T08:59:59Z</time>
      </trkpt>
      <trkpt lat="44.63262" lon="5.78223">
        <ele>1484.5</ele>
        <time>2015-06-30T09:00:04Z</time>
      </trkpt>
      <trkpt lat="44.63257" lon="5.78226">
        <ele>1491.1</ele>
        <time>2015-06-30T09:00:09Z</time>
      </trkpt>
      <trkpt lat="44.63253" lon="5.78234">
        <ele>1492.4</ele>
        <time>2015-06-30T09:00:14Z</time>
      </trkpt>
      <trkpt lat="44.6325" lon="5.78236">
        <ele>1498.7</ele>
        <time>2015-06-30T09:00:19Z</time>
      </trkpt>
      <trkpt lat="44.63249" lon="5.78243">
        <ele>1501.6</ele>
        <time>2015-06-30T09:00:24Z</time>
      </trkpt>
      <trkpt lat="44.63245" lon="5.78247">
        <ele>1501.7</ele>
        <time>2015-06-30T09:00:29Z</time>
      </trkpt>
      <trkpt lat="44.63241" lon="5.7825">
        <ele>1502.2</ele>
        <time>2015-06-30T09:00:34Z</time>
      </trkpt>
      <trkpt lat="44.63239" lon="5.78256">
        <ele>1500.8</ele>
        <time>2015-06-30T09:00:40Z</time>
      </trkpt>
      <trkpt lat="44.63238" lon="5.78258">
        <ele>1500.4</ele>
        <time>2015-06-30T09:00:45Z</time>
      </trkpt>
      <trkpt lat="44.63237" lon="5.78258">
        <ele>1500.1</ele>
        <time>2015-06-30T09:00:50Z</time>
      </trkpt>
      <trkpt lat="44.63234" lon="5.78262">
        <ele>1501.9</ele>
        <time>2015-06-30T09:00:55Z</time>
      </trkpt>
      <trkpt lat="44.63231" lon="5.78266">
        <ele>1503.3</ele>
        <time>2015-06-30T09:01:00Z</time>
      </trkpt>
      <trkpt lat="44.63226" lon="5.78273">
        <ele>1502.4</ele>
        <time>2015-06-30T09:01:05Z</time>
      </trkpt>
      <trkpt lat="44.6322" lon="5.78273">
        <ele>1503.1</ele>
        <time>2015-06-30T09:01:10Z</time>
      </trkpt>
      <trkpt lat="44.63216" lon="5.78277">
        <ele>1499.5</ele>
        <time>2015-06-30T09:01:15Z</time>
      </trkpt>
      <trkpt lat="44.63212" lon="5.78274">
        <ele>1492</ele>
        <time>2015-06-30T09:01:20Z</time>
      </trkpt>
      <trkpt lat="44.63207" lon="5.7827">
        <ele>1488.6</ele>
        <time>2015-06-30T09:01:25Z</time>
      </trkpt>
      <trkpt lat="44.63204" lon="5.78265">
        <ele>1484.2</ele>
        <time>2015-06-30T09:01:30Z</time>
      </trkpt>
      <trkpt lat="44.63204" lon="5.78259">
        <ele>1479.7</ele>
        <time>2015-06-30T09:01:35Z</time>
      </trkpt>
      <trkpt lat="44.63205" lon="5.78257">
        <ele>1475.7</ele>
        <time>2015-06-30T09:01:40Z</time>
      </trkpt>
      <trkpt lat="44.63207" lon="5.78255">
        <ele>1477.7</ele>
        <time>2015-06-30T09:01:45Z</time>
      </trkpt>
      <trkpt lat="44.6321" lon="5.78263">
        <ele>1474.5</ele>
        <time>2015-06-30T09:01:50Z</time>
      </trkpt>
      <trkpt lat="44.63212" lon="5.78268">
        <ele>1472.4</ele>
        <time>2015-06-30T09:01:55Z</time>
      </trkpt>
      <trkpt lat="44.6321" lon="5.78277">
        <ele>1467.5</ele>
        <time>2015-06-30T09:02:00Z</time>
      </trkpt>
      <trkpt lat="44.63211" lon="5.78286">
        <ele>1470.5</ele>
        <time>2015-06-30T09:02:05Z</time>
      </trkpt>
      <trkpt lat="44.63213" lon="5.78291">
        <ele>1478.2</ele>
        <time>2015-06-30T09:02:10Z</time>
      </trkpt>
      <trkpt lat="44.63215" lon="5.78292">
        <ele>1484.7</ele>
        <time>2015-06-30T09:02:15Z</time>
      </trkpt>
      <trkpt lat="44.6321" lon="5.78287">
        <ele>1486.3</ele>
        <time>2015-06-30T09:02:20Z</time>
      </trkpt>
      <trkpt lat="44.63214" lon="5.78288">
        <ele>1487.4</ele>
        <time>2015-06-30T09:02:25Z</time>
      </trkpt>
      <trkpt lat="44.63214" lon="5.7829">
        <ele>1488.1</ele>
        <time>2015-06-30T09:02:30Z</time>
      </trkpt>
      <trkpt lat="44.63219" lon="5.78293">
        <ele>1489.5</ele>
        <time>2015-06-30T09:02:35Z</time>
      </trkpt>
      <trkpt lat="44.6322" lon="5.78295">
        <ele>1489</ele>
        <time>2015-06-30T09:02:40Z</time>
      </trkpt>
      <trkpt lat="44.63218" lon="5.78292">
        <ele>1490</ele>
        <time>2015-06-30T09:02:45Z</time>
      </trkpt>
      <trkpt lat="44.6322" lon="5.78289">
        <ele>1489.5</ele>
        <time>2015-06-30T09:02:50Z</time>
      </trkpt>
      <trkpt lat="44.63223" lon="5.78284">
        <ele>1490.4</ele>
        <time>2015-06-30T09:02:55Z</time>
      </trkpt>
      <trkpt lat="44.63216" lon="5.78283">
        <ele>1492.4</ele>
        <time>2015-06-30T09:03:00Z</time>
      </trkpt>
      <trkpt lat="44.6321" lon="5.78285">
        <ele>1495.3</ele>
        <time>2015-06-30T09:03:05Z</time>
      </trkpt>
      <trkpt lat="44.63207" lon="5.78292">
        <ele>1492</ele>
        <time>2015-06-30T09:03:10Z</time>
      </trkpt>
      <trkpt lat="44.63202" lon="5.78292">
        <ele>1493.8</ele>
        <time>2015-06-30T09:03:15Z</time>
      </trkpt>
      <trkpt lat="44.63199" lon="5.7829">
        <ele>1493.8</ele>
        <time>2015-06-30T09:03:20Z</time>
      </trkpt>
      <trkpt lat="44.63199" lon="5.78289">
        <ele>1495.2</ele>
        <time>2015-06-30T09:03:25Z</time>
      </trkpt>
      <trkpt lat="44.63202" lon="5.78289">
        <ele>1488.9</ele>
        <time>2015-06-30T09:03:30Z</time>
      </trkpt>
      <trkpt lat="44.63203" lon="5.78287">
        <ele>1486.2</ele>
        <time>2015-06-30T09:03:35Z</time>
      </trkpt>
      <trkpt lat="44.63205" lon="5.78285">
        <ele>1489.1</ele>
        <time>2015-06-30T09:03:40Z</time>
      </trkpt>
      <trkpt lat="44.63206" lon="5.78284">
        <ele>1488.4</ele>
        <time>2015-06-30T09:03:45Z</time>
      </trkpt>
      <trkpt lat="44.63206" lon="5.7828">
        <ele>1488.9</ele>
        <time>2015-06-30T09:03:50Z</time>
      </trkpt>
      <trkpt lat="44.63204" lon="5.78276">
        <ele>1489.4</ele>
        <time>2015-06-30T09:03:55Z</time>
      </trkpt>
      <trkpt lat="44.63204" lon="5.78268">
        <ele>1490.5</ele>
        <time>2015-06-30T09:04:00Z</time>
      </trkpt>
      <trkpt lat="44.63208" lon="5.78275">
        <ele>1484.8</ele>
        <time>2015-06-30T09:04:05Z</time>
      </trkpt>
      <trkpt lat="44.6321" lon="5.7828">
        <ele>1483.7</ele>
        <time>2015-06-30T09:04:10Z</time>
      </trkpt>
      <trkpt lat="44.6321" lon="5.78282">
        <ele>1482.7</ele>
        <time>2015-06-30T09:04:15Z</time>
      </trkpt>
      <trkpt lat="44.6321" lon="5.78279">
        <ele>1481.3</ele>
        <time>2015-06-30T09:04:20Z</time>
      </trkpt>
      <trkpt lat="44.63212" lon="5.78281">
        <ele>1480.5</ele>
        <time>2015-06-30T09:04:25Z</time>
      </trkpt>
      <trkpt lat="44.63212" lon="5.78282">
        <ele>1478.4</ele>
        <time>2015-06-30T09:04:30Z</time>
      </trkpt>
      <trkpt lat="44.63212" lon="5.78286">
        <ele>1478.3</ele>
        <time>2015-06-30T09:04:35Z</time>
      </trkpt>
      <trkpt lat="44.63211" lon="5.78291">
        <ele>1477.4</ele>
        <time>2015-06-30T09:04:40Z</time>
      </trkpt>
      <trkpt lat="44.63214" lon="5.78292">
        <ele>1478.4</ele>
        <time>2015-06-30T09:04:45Z</time>
      </trkpt>
      <trkpt lat="44.63213" lon="5.78292">
        <ele>1479.8</ele>
        <time>2015-06-30T09:04:50Z</time>
      </trkpt>
      <trkpt lat="44.63207" lon="5.78293">
        <ele>1481.9</ele>
        <time>2015-06-30T09:04:55Z</time>
      </trkpt>
      <trkpt lat="44.63203" lon="5.78292">
        <ele>1480.3</ele>
        <time>2015-06-30T09:05:00Z</time>
      </trkpt>
      <trkpt lat="44.63201" lon="5.78291">
        <ele>1478.4</ele>
        <time>2015-06-30T09:05:05Z</time>
      </trkpt>
      <trkpt lat="44.63199" lon="5.78286">
        <ele>1482.5</ele>
        <time>2015-06-30T09:05:10Z</time>
      </trkpt>
      <trkpt lat="44.632" lon="5.78284">
        <ele>1486.5</ele>
        <time>2015-06-30T09:05:15Z</time>
      </trkpt>
      <trkpt lat="44.63199" lon="5.78276">
        <ele>1492.8</ele>
        <time>2015-06-30T09:05:20Z</time>
      </trkpt>
      <trkpt lat="44.63204" lon="5.78271">
        <ele>1490</ele>
        <time>2015-06-30T09:05:25Z</time>
      </trkpt>
      <trkpt lat="44.63209" lon="5.78264">
        <ele>1486.5</ele>
        <time>2015-06-30T09:05:30Z</time>
      </trkpt>
      <trkpt lat="44.6321" lon="5.78259">
        <ele>1480</ele>
        <time>2015-06-30T09:05:35Z</time>
      </trkpt>
      <trkpt lat="44.63213" lon="5.7825">
        <ele>1479.9</ele>
        <time>2015-06-30T09:05:40Z</time>
      </trkpt>
      <trkpt lat="44.6321" lon="5.7824">
        <ele>1481.4</ele>
        <time>2015-06-30T09:05:45Z</time>
      </trkpt>
      <trkpt lat="44.63207" lon="5.78235">
        <ele>1482.2</ele>
        <time>2015-06-30T09:05:50Z</time>
      </trkpt>
      <trkpt lat="44.63207" lon="5.78227">
        <ele>1487.4</ele>
        <time>2015-06-30T09:05:55Z</time>
      </trkpt>
      <trkpt lat="44.63206" lon="5.7822">
        <ele>1489.7</ele>
        <time>2015-06-30T09:06:00Z</time>
      </trkpt>
      <trkpt lat="44.63205" lon="5.78222">
        <ele>1487.6</ele>
        <time>2015-06-30T09:06:05Z</time>
      </trkpt>
      <trkpt lat="44.63203" lon="5.78222">
        <ele>1484.6</ele>
        <time>2015-06-30T09:06:10Z</time>
      </trkpt>
      <trkpt lat="44.63196" lon="5.78216">
        <ele>1486</ele>
        <time>2015-06-30T09:06:15Z</time>
      </trkpt>
      <trkpt lat="44.63187" lon="5.78213">
        <ele>1485.6</ele>
        <time>2015-06-30T09:06:20Z</time>
      </trkpt>
      <trkpt lat="44.6318" lon="5.78213">
        <ele>1484.9</ele>
        <time>2015-06-30T09:06:25Z</time>
      </trkpt>
      <trkpt lat="44.63174" lon="5.78211">
        <ele>1482.1</ele>
        <time>2015-06-30T09:06:30Z</time>
      </trkpt>
      <trkpt lat="44.63167" lon="5.78207">
        <ele>1481.5</ele>
        <time>2015-06-30T09:06:35Z</time>
      </trkpt>
      <trkpt lat="44.63163" lon="5.78205">
        <ele>1481.2</ele>
        <time>2015-06-30T09:06:40Z</time>
      </trkpt>
      <trkpt lat="44.6316" lon="5.782">
        <ele>1481.7</ele>
        <time>2015-06-30T09:06:45Z</time>
      </trkpt>
      <trkpt lat="44.63157" lon="5.78195">
        <ele>1483.8</ele>
        <time>2015-06-30T09:06:50Z</time>
      </trkpt>
      <trkpt lat="44.63155" lon="5.7819">
        <ele>1487.5</ele>
        <time>2015-06-30T09:06:55Z</time>
      </trkpt>
      <trkpt lat="44.63152" lon="5.78188">
        <ele>1486.9</ele>
        <time>2015-06-30T09:07:00Z</time>
      </trkpt>
      <trkpt lat="44.63151" lon="5.78183">
        <ele>1489</ele>
        <time>2015-06-30T09:07:05Z</time>
      </trkpt>
      <trkpt lat="44.63152" lon="5.78177">
        <ele>1491.9</ele>
        <time>2015-06-30T09:07:10Z</time>
      </trkpt>
      <trkpt lat="44.63152" lon="5.78171">
        <ele>1493.2</ele>
        <time>2015-06-30T09:07:15Z</time>
      </trkpt>
      <trkpt lat="44.63149" lon="5.78165">
        <ele>1492.7</ele>
        <time>2015-06-30T09:07:20Z</time>
      </trkpt>
      <trkpt lat="44.63148" lon="5.78159">
        <ele>1493.5</ele>
        <time>2015-06-30T09:07:25Z</time>
      </trkpt>
      <trkpt lat="44.63147" lon="5.78153">
        <ele>1493.2</ele>
        <time>2015-06-30T09:07:30Z</time>
      </trkpt>
      <trkpt lat="44.63143" lon="5.78147">
        <ele>1493</ele>
        <time>2015-06-30T09:07:35Z</time>
      </trkpt>
      <trkpt lat="44.63135" lon="5.78139">
        <ele>1489.6</ele>
        <time>2015-06-30T09:07:40Z</time>
      </trkpt>
      <trkpt lat="44.63127" lon="5.78137">
        <ele>1486.6</ele>
        <time>2015-06-30T09:07:45Z</time>
      </trkpt>
      <trkpt lat="44.63121" lon="5.78139">
        <ele>1483.5</ele>
        <time>2015-06-30T09:07:50Z</time>
      </trkpt>
      <trkpt lat="44.63116" lon="5.7814">
        <ele>1483.1</ele>
        <time>2015-06-30T09:07:55Z</time>
      </trkpt>
      <trkpt lat="44.63111" lon="5.7814">
        <ele>1482.7</ele>
        <time>2015-06-30T09:08:00Z</time>
      </trkpt>
      <trkpt lat="44.63105" lon="5.78141">
        <ele>1483.7</ele>
        <time>2015-06-30T09:08:05Z</time>
      </trkpt>
      <trkpt lat="44.63099" lon="5.78142">
        <ele>1484.4</ele>
        <time>2015-06-30T09:08:10Z</time>
      </trkpt>
      <trkpt lat="44.63094" lon="5.78137">
        <ele>1486.1</ele>
        <time>2015-06-30T09:08:15Z</time>
      </trkpt>
      <trkpt lat="44.63089" lon="5.78135">
        <ele>1486.6</ele>
        <time>2015-06-30T09:08:20Z</time>
      </trkpt>
      <trkpt lat="44.63086" lon="5.78122">
        <ele>1491.3</ele>
        <time>2015-06-30T09:08:25Z</time>
      </trkpt>
      <trkpt lat="44.63089" lon="5.78114">
        <ele>1500.5</ele>
        <time>2015-06-30T09:08:30Z</time>
      </trkpt>
      <trkpt lat="44.63091" lon="5.78116">
        <ele>1503.5</ele>
        <time>2015-06-30T09:08:35Z</time>
      </trkpt>
      <trkpt lat="44.63093" lon="5.78112">
        <ele>1501.7</ele>
        <time>2015-06-30T09:08:40Z</time>
      </trkpt>
      <trkpt lat="44.63098" lon="5.78107">
        <ele>1503.4</ele>
        <time>2015-06-30T09:08:45Z</time>
      </trkpt>
      <trkpt lat="44.631" lon="5.78102">
        <ele>1502.8</ele>
        <time>2015-06-30T09:08:50Z</time>
      </trkpt>
      <trkpt lat="44.63103" lon="5.78096">
        <ele>1502.8</ele>
        <time>2015-06-30T09:08:55Z</time>
      </trkpt>
      <trkpt lat="44.63102" lon="5.7809">
        <ele>1502.7</ele>
        <time>2015-06-30T09:09:00Z</time>
      </trkpt>
      <trkpt lat="44.63104" lon="5.7808">
        <ele>1504.9</ele>
        <time>2015-06-30T09:09:05Z</time>
      </trkpt>
      <trkpt lat="44.63103" lon="5.78072">
        <ele>1505.8</ele>
        <time>2015-06-30T09:09:10Z</time>
      </trkpt>
      <trkpt lat="44.63103" lon="5.78064">
        <ele>1508.8</ele>
        <time>2015-06-30T09:09:15Z</time>
      </trkpt>
      <trkpt lat="44.63101" lon="5.78056">
        <ele>1509.9</ele>
        <time>2015-06-30T09:09:20Z</time>
      </trkpt>
      <trkpt lat="44.63099" lon="5.78049">
        <ele>1510.3</ele>
        <time>2015-06-30T09:09:25Z</time>
      </trkpt>
      <trkpt lat="44.63094" lon="5.78044">
        <ele>1506.3</ele>
        <time>2015-06-30T09:09:30Z</time>
      </trkpt>
      <trkpt lat="44.63089" lon="5.78039">
        <ele>1505.6</ele>
        <time>2015-06-30T09:09:35Z</time>
      </trkpt>
      <trkpt lat="44.63086" lon="5.78034">
        <ele>1505.4</ele>
        <time>2015-06-30T09:09:40Z</time>
      </trkpt>
      <trkpt lat="44.63081" lon="5.7803">
        <ele>1504.3</ele>
        <time>2015-06-30T09:09:45Z</time>
      </trkpt>
      <trkpt lat="44.63081" lon="5.78024">
        <ele>1510.8</ele>
        <time>2015-06-30T09:09:50Z</time>
      </trkpt>
      <trkpt lat="44.63083" lon="5.78018">
        <ele>1517.3</ele>
        <time>2015-06-30T09:09:55Z</time>
      </trkpt>
      <trkpt lat="44.63081" lon="5.78012">
        <ele>1520.2</ele>
        <time>2015-06-30T09:10:00Z</time>
      </trkpt>
      <trkpt lat="44.63076" lon="5.78006">
        <ele>1521.2</ele>
        <time>2015-06-30T09:10:05Z</time>
      </trkpt>
      <trkpt lat="44.63076" lon="5.78001">
        <ele>1524.1</ele>
        <time>2015-06-30T09:10:10Z</time>
      </trkpt>
      <trkpt lat="44.63075" lon="5.77997">
        <ele>1527.5</ele>
        <time>2015-06-30T09:10:15Z</time>
      </trkpt>
      <trkpt lat="44.63073" lon="5.77995">
        <ele>1527.7</ele>
        <time>2015-06-30T09:10:20Z</time>
      </trkpt>
      <trkpt lat="44.63069" lon="5.77992">
        <ele>1525</ele>
        <time>2015-06-30T09:10:25Z</time>
      </trkpt>
      <trkpt lat="44.63066" lon="5.77987">
        <ele>1523.4</ele>
        <time>2015-06-30T09:10:30Z</time>
      </trkpt>
      <trkpt lat="44.63068" lon="5.77981">
        <ele>1526.9</ele>
        <time>2015-06-30T09:10:35Z</time>
      </trkpt>
      <trkpt lat="44.63065" lon="5.77976">
        <ele>1525.4</ele>
        <time>2015-06-30T09:10:40Z</time>
      </trkpt>
      <trkpt lat="44.63064" lon="5.77972">
        <ele>1524.1</ele>
        <time>2015-06-30T09:10:45Z</time>
      </trkpt>
      <trkpt lat="44.63064" lon="5.77965">
        <ele>1525.6</ele>
        <time>2015-06-30T09:10:50Z</time>
      </trkpt>
      <trkpt lat="44.63063" lon="5.77957">
        <ele>1527.1</ele>
        <time>2015-06-30T09:10:55Z</time>
      </trkpt>
      <trkpt lat="44.63062" lon="5.77952">
        <ele>1526.6</ele>
        <time>2015-06-30T09:11:00Z</time>
      </trkpt>
      <trkpt lat="44.6306" lon="5.77945">
        <ele>1524.7</ele>
        <time>2015-06-30T09:11:05Z</time>
      </trkpt>
      <trkpt lat="44.6306" lon="5.77939">
        <ele>1526.7</ele>
        <time>2015-06-30T09:11:10Z</time>
      </trkpt>
      <trkpt lat="44.6306" lon="5.77933">
        <ele>1528.6</ele>
        <time>2015-06-30T09:11:15Z</time>
      </trkpt>
      <trkpt lat="44.63058" lon="5.77928">
        <ele>1529.4</ele>
        <time>2015-06-30T09:11:20Z</time>
      </trkpt>
      <trkpt lat="44.63053" lon="5.77923">
        <ele>1526.1</ele>
        <time>2015-06-30T09:11:25Z</time>
      </trkpt>
      <trkpt lat="44.63049" lon="5.77916">
        <ele>1524</ele>
        <time>2015-06-30T09:11:30Z</time>
      </trkpt>
      <trkpt lat="44.63051" lon="5.77911">
        <ele>1528.7</ele>
        <time>2015-06-30T09:11:35Z</time>
      </trkpt>
      <trkpt lat="44.63052" lon="5.77905">
        <ele>1531.3</ele>
        <time>2015-06-30T09:11:40Z</time>
      </trkpt>
      <trkpt lat="44.63052" lon="5.77901">
        <ele>1533.2</ele>
        <time>2015-06-30T09:11:45Z</time>
      </trkpt>
      <trkpt lat="44.63056" lon="5.77894">
        <ele>1536.6</ele>
        <time>2015-06-30T09:11:50Z</time>
      </trkpt>
      <trkpt lat="44.63059" lon="5.77887">
        <ele>1541.6</ele>
        <time>2015-06-30T09:11:55Z</time>
      </trkpt>
      <trkpt lat="44.63062" lon="5.77882">
        <ele>1542.7</ele>
        <time>2015-06-30T09:12:00Z</time>
      </trkpt>
      <trkpt lat="44.63065" lon="5.77876">
        <ele>1542.6</ele>
        <time>2015-06-30T09:12:05Z</time>
      </trkpt>
      <trkpt lat="44.63063" lon="5.77872">
        <ele>1538.2</ele>
        <time>2015-06-30T09:12:10Z</time>
      </trkpt>
      <trkpt lat="44.63064" lon="5.77868">
        <ele>1536.8</ele>
        <time>2015-06-30T09:12:15Z</time>
      </trkpt>
      <trkpt lat="44.63063" lon="5.77864">
        <ele>1534.1</ele>
        <time>2015-06-30T09:12:20Z</time>
      </trkpt>
      <trkpt lat="44.63065" lon="5.77858">
        <ele>1534.6</ele>
        <time>2015-06-30T09:12:25Z</time>
      </trkpt>
      <trkpt lat="44.63066" lon="5.77851">
        <ele>1535.9</ele>
        <time>2015-06-30T09:12:30Z</time>
      </trkpt>
      <trkpt lat="44.63065" lon="5.77843">
        <ele>1537.9</ele>
        <time>2015-06-30T09:12:35Z</time>
      </trkpt>
      <trkpt lat="44.63062" lon="5.77837">
        <ele>1537.7</ele>
        <time>2015-06-30T09:12:40Z</time>
      </trkpt>
      <trkpt lat="44.63053" lon="5.77832">
        <ele>1532.7</ele>
        <time>2015-06-30T09:12:45Z</time>
      </trkpt>
      <trkpt lat="44.63046" lon="5.77827">
        <ele>1526.8</ele>
        <time>2015-06-30T09:12:50Z</time>
      </trkpt>
      <trkpt lat="44.63041" lon="5.77823">
        <ele>1525.1</ele>
        <time>2015-06-30T09:12:55Z</time>
      </trkpt>
      <trkpt lat="44.63037" lon="5.7782">
        <ele>1525</ele>
        <time>2015-06-30T09:13:00Z</time>
      </trkpt>
      <trkpt lat="44.63036" lon="5.7782">
        <ele>1526</ele>
        <time>2015-06-30T09:13:05Z</time>
      </trkpt>
      <trkpt lat="44.63035" lon="5.77815">
        <ele>1526.3</ele>
        <time>2015-06-30T09:13:10Z</time>
      </trkpt>
      <trkpt lat="44.63035" lon="5.77812">
        <ele>1527.2</ele>
        <time>2015-06-30T09:13:15Z</time>
      </trkpt>
      <trkpt lat="44.63038" lon="5.77807">
        <ele>1528.9</ele>
        <time>2015-06-30T09:13:20Z</time>
      </trkpt>
      <trkpt lat="44.63047" lon="5.77801">
        <ele>1536.5</ele>
        <time>2015-06-30T09:13:25Z</time>
      </trkpt>
      <trkpt lat="44.63056" lon="5.77795">
        <ele>1541.6</ele>
        <time>2015-06-30T09:13:30Z</time>
      </trkpt>
      <trkpt lat="44.6306" lon="5.77792">
        <ele>1542</ele>
        <time>2015-06-30T09:13:35Z</time>
      </trkpt>
      <trkpt lat="44.63064" lon="5.77789">
        <ele>1541.7</ele>
        <time>2015-06-30T09:13:40Z</time>
      </trkpt>
      <trkpt lat="44.63068" lon="5.77788">
        <ele>1540.7</ele>
        <time>2015-06-30T09:13:45Z</time>
      </trkpt>
      <trkpt lat="44.63069" lon="5.77786">
        <ele>1538.1</ele>
        <time>2015-06-30T09:13:50Z</time>
      </trkpt>
      <trkpt lat="44.6307" lon="5.77782">
        <ele>1537.1</ele>
        <time>2015-06-30T09:13:55Z</time>
      </trkpt>
      <trkpt lat="44.63074" lon="5.77776">
        <ele>1540</ele>
        <time>2015-06-30T09:14:00Z</time>
      </trkpt>
      <trkpt lat="44.63078" lon="5.7777">
        <ele>1543.2</ele>
        <time>2015-06-30T09:14:05Z</time>
      </trkpt>
      <trkpt lat="44.63083" lon="5.77765">
        <ele>1547</ele>
        <time>2015-06-30T09:14:10Z</time>
      </trkpt>
      <trkpt lat="44.63086" lon="5.77762">
        <ele>1547.5</ele>
        <time>2015-06-30T09:14:15Z</time>
      </trkpt>
      <trkpt lat="44.63088" lon="5.77757">
        <ele>1548.8</ele>
        <time>2015-06-30T09:14:20Z</time>
      </trkpt>
      <trkpt lat="44.6309" lon="5.77751">
        <ele>1549.9</ele>
        <time>2015-06-30T09:14:25Z</time>
      </trkpt>
      <trkpt lat="44.63092" lon="5.77747">
        <ele>1549.5</ele>
        <time>2015-06-30T09:14:30Z</time>
      </trkpt>
      <trkpt lat="44.63092" lon="5.77742">
        <ele>1545.2</ele>
        <time>2015-06-30T09:14:35Z</time>
      </trkpt>
      <trkpt lat="44.63094" lon="5.77737">
        <ele>1545.3</ele>
        <time>2015-06-30T09:14:40Z</time>
      </trkpt>
      <trkpt lat="44.63098" lon="5.7773">
        <ele>1549.6</ele>
        <time>2015-06-30T09:14:45Z</time>
      </trkpt>
      <trkpt lat="44.63102" lon="5.77724">
        <ele>1550.5</ele>
        <time>2015-06-30T09:14:50Z</time>
      </trkpt>
      <trkpt lat="44.63104" lon="5.77718">
        <ele>1551</ele>
        <time>2015-06-30T09:14:55Z</time>
      </trkpt>
      <trkpt lat="44.63107" lon="5.77711">
        <ele>1550.1</ele>
        <time>2015-06-30T09:15:00Z</time>
      </trkpt>
      <trkpt lat="44.6311" lon="5.77704">
        <ele>1552</ele>
        <time>2015-06-30T09:15:05Z</time>
      </trkpt>
      <trkpt lat="44.63113" lon="5.77697">
        <ele>1554.6</ele>
        <time>2015-06-30T09:15:10Z</time>
      </trkpt>
      <trkpt lat="44.63115" lon="5.77692">
        <ele>1555.7</ele>
        <time>2015-06-30T09:15:15Z</time>
      </trkpt>
      <trkpt lat="44.63118" lon="5.77688">
        <ele>1554.6</ele>
        <time>2015-06-30T09:15:20Z</time>
      </trkpt>
      <trkpt lat="44.6312" lon="5.77684">
        <ele>1553.6</ele>
        <time>2015-06-30T09:15:25Z</time>
      </trkpt>
      <trkpt lat="44.63122" lon="5.77677">
        <ele>1552.9</ele>
        <time>2015-06-30T09:15:30Z</time>
      </trkpt>
      <trkpt lat="44.63125" lon="5.77672">
        <ele>1556.8</ele>
        <time>2015-06-30T09:15:35Z</time>
      </trkpt>
      <trkpt lat="44.63126" lon="5.77667">
        <ele>1558.8</ele>
        <time>2015-06-30T09:15:40Z</time>
      </trkpt>
      <trkpt lat="44.63126" lon="5.77661">
        <ele>1557</ele>
        <time>2015-06-30T09:15:45Z</time>
      </trkpt>
      <trkpt lat="44.63126" lon="5.77656">
        <ele>1556.6</ele>
        <time>2015-06-30T09:15:50Z</time>
      </trkpt>
      <trkpt lat="44.63129" lon="5.77651">
        <ele>1557</ele>
        <time>2015-06-30T09:15:55Z</time>
      </trkpt>
      <trkpt lat="44.63132" lon="5.77644">
        <ele>1557.6</ele>
        <time>2015-06-30T09:16:00Z</time>
      </trkpt>
      <trkpt lat="44.63134" lon="5.77638">
        <ele>1556.4</ele>
        <time>2015-06-30T09:16:05Z</time>
      </trkpt>
      <trkpt lat="44.63136" lon="5.77631">
        <ele>1556.3</ele>
        <time>2015-06-30T09:16:10Z</time>
      </trkpt>
      <trkpt lat="44.63138" lon="5.77625">
        <ele>1558</ele>
        <time>2015-06-30T09:16:15Z</time>
      </trkpt>
      <trkpt lat="44.63141" lon="5.77619">
        <ele>1560.1</ele>
        <time>2015-06-30T09:16:20Z</time>
      </trkpt>
      <trkpt lat="44.63144" lon="5.77613">
        <ele>1560.1</ele>
        <time>2015-06-30T09:16:25Z</time>
      </trkpt>
      <trkpt lat="44.63146" lon="5.77606">
        <ele>1559.9</ele>
        <time>2015-06-30T09:16:30Z</time>
      </trkpt>
      <trkpt lat="44.63145" lon="5.77599">
        <ele>1561.1</ele>
        <time>2015-06-30T09:16:35Z</time>
      </trkpt>
      <trkpt lat="44.63147" lon="5.77594">
        <ele>1561</ele>
        <time>2015-06-30T09:16:40Z</time>
      </trkpt>
      <trkpt lat="44.63149" lon="5.77589">
        <ele>1563.6</ele>
        <time>2015-06-30T09:16:45Z</time>
      </trkpt>
      <trkpt lat="44.6315" lon="5.77582">
        <ele>1565.2</ele>
        <time>2015-06-30T09:16:50Z</time>
      </trkpt>
      <trkpt lat="44.63154" lon="5.77575">
        <ele>1567.2</ele>
        <time>2015-06-30T09:16:55Z</time>
      </trkpt>
      <trkpt lat="44.6316" lon="5.77566">
        <ele>1570.1</ele>
        <time>2015-06-30T09:17:00Z</time>
      </trkpt>
      <trkpt lat="44.63165" lon="5.77557">
        <ele>1572.5</ele>
        <time>2015-06-30T09:17:07Z</time>
      </trkpt>
      <trkpt lat="44.63167" lon="5.77548">
        <ele>1574.7</ele>
        <time>2015-06-30T09:17:12Z</time>
      </trkpt>
      <trkpt lat="44.63167" lon="5.77544">
        <ele>1575.1</ele>
        <time>2015-06-30T09:17:17Z</time>
      </trkpt>
      <trkpt lat="44.63167" lon="5.7754">
        <ele>1573.6</ele>
        <time>2015-06-30T09:17:22Z</time>
      </trkpt>
      <trkpt lat="44.63169" lon="5.77535">
        <ele>1571.6</ele>
        <time>2015-06-30T09:17:27Z</time>
      </trkpt>
      <trkpt lat="44.63168" lon="5.7753">
        <ele>1570.4</ele>
        <time>2015-06-30T09:17:32Z</time>
      </trkpt>
      <trkpt lat="44.63168" lon="5.77526">
        <ele>1569.7</ele>
        <time>2015-06-30T09:17:37Z</time>
      </trkpt>
      <trkpt lat="44.63169" lon="5.77518">
        <ele>1573.9</ele>
        <time>2015-06-30T09:17:42Z</time>
      </trkpt>
      <trkpt lat="44.6317" lon="5.77511">
        <ele>1573.8</ele>
        <time>2015-06-30T09:17:47Z</time>
      </trkpt>
      <trkpt lat="44.63173" lon="5.77507">
        <ele>1577</ele>
        <time>2015-06-30T09:17:52Z</time>
      </trkpt>
      <trkpt lat="44.63177" lon="5.77501">
        <ele>1578.8</ele>
        <time>2015-06-30T09:17:57Z</time>
      </trkpt>
      <trkpt lat="44.6318" lon="5.77495">
        <ele>1577.6</ele>
        <time>2015-06-30T09:18:02Z</time>
      </trkpt>
      <trkpt lat="44.63183" lon="5.7749">
        <ele>1580.3</ele>
        <time>2015-06-30T09:18:07Z</time>
      </trkpt>
      <trkpt lat="44.63186" lon="5.77485">
        <ele>1581.7</ele>
        <time>2015-06-30T09:18:12Z</time>
      </trkpt>
      <trkpt lat="44.63187" lon="5.77478">
        <ele>1582.7</ele>
        <time>2015-06-30T09:18:17Z</time>
      </trkpt>
      <trkpt lat="44.63186" lon="5.77473">
        <ele>1580.7</ele>
        <time>2015-06-30T09:18:22Z</time>
      </trkpt>
      <trkpt lat="44.63185" lon="5.77467">
        <ele>1577.9</ele>
        <time>2015-06-30T09:18:27Z</time>
      </trkpt>
      <trkpt lat="44.63184" lon="5.77462">
        <ele>1576.8</ele>
        <time>2015-06-30T09:18:32Z</time>
      </trkpt>
      <trkpt lat="44.63186" lon="5.77456">
        <ele>1578.1</ele>
        <time>2015-06-30T09:18:37Z</time>
      </trkpt>
      <trkpt lat="44.63188" lon="5.77449">
        <ele>1580.7</ele>
        <time>2015-06-30T09:18:42Z</time>
      </trkpt>
      <trkpt lat="44.63187" lon="5.77442">
        <ele>1581.5</ele>
        <time>2015-06-30T09:18:47Z</time>
      </trkpt>
      <trkpt lat="44.63187" lon="5.77435">
        <ele>1582.2</ele>
        <time>2015-06-30T09:18:52Z</time>
      </trkpt>
      <trkpt lat="44.63187" lon="5.77429">
        <ele>1582.7</ele>
        <time>2015-06-30T09:18:57Z</time>
      </trkpt>
      <trkpt lat="44.6319" lon="5.77422">
        <ele>1587.3</ele>
        <time>2015-06-30T09:19:02Z</time>
      </trkpt>
      <trkpt lat="44.6319" lon="5.77415">
        <ele>1588.3</ele>
        <time>2015-06-30T09:19:07Z</time>
      </trkpt>
      <trkpt lat="44.63191" lon="5.77406">
        <ele>1591.7</ele>
        <time>2015-06-30T09:19:12Z</time>
      </trkpt>
      <trkpt lat="44.6319" lon="5.77398">
        <ele>1591.7</ele>
        <time>2015-06-30T09:19:17Z</time>
      </trkpt>
      <trkpt lat="44.6319" lon="5.77392">
        <ele>1591.6</ele>
        <time>2015-06-30T09:19:22Z</time>
      </trkpt>
      <trkpt lat="44.63187" lon="5.77386">
        <ele>1589.4</ele>
        <time>2015-06-30T09:19:27Z</time>
      </trkpt>
      <trkpt lat="44.63186" lon="5.77381">
        <ele>1589.8</ele>
        <time>2015-06-30T09:19:32Z</time>
      </trkpt>
      <trkpt lat="44.63179" lon="5.77377">
        <ele>1584.1</ele>
        <time>2015-06-30T09:19:37Z</time>
      </trkpt>
      <trkpt lat="44.63179" lon="5.77372">
        <ele>1583</ele>
        <time>2015-06-30T09:19:42Z</time>
      </trkpt>
      <trkpt lat="44.63178" lon="5.77365">
        <ele>1582</ele>
        <time>2015-06-30T09:19:47Z</time>
      </trkpt>
      <trkpt lat="44.63176" lon="5.77359">
        <ele>1582.6</ele>
        <time>2015-06-30T09:19:52Z</time>
      </trkpt>
      <trkpt lat="44.63175" lon="5.77353">
        <ele>1584.1</ele>
        <time>2015-06-30T09:19:57Z</time>
      </trkpt>
      <trkpt lat="44.63176" lon="5.77348">
        <ele>1585.9</ele>
        <time>2015-06-30T09:20:02Z</time>
      </trkpt>
      <trkpt lat="44.63176" lon="5.77341">
        <ele>1587.5</ele>
        <time>2015-06-30T09:20:07Z</time>
      </trkpt>
      <trkpt lat="44.63178" lon="5.77333">
        <ele>1591</ele>
        <time>2015-06-30T09:20:12Z</time>
      </trkpt>
      <trkpt lat="44.6318" lon="5.77326">
        <ele>1596</ele>
        <time>2015-06-30T09:20:17Z</time>
      </trkpt>
      <trkpt lat="44.63183" lon="5.7732">
        <ele>1598.9</ele>
        <time>2015-06-30T09:20:22Z</time>
      </trkpt>
      <trkpt lat="44.6318" lon="5.77315">
        <ele>1597.2</ele>
        <time>2015-06-30T09:20:27Z</time>
      </trkpt>
      <trkpt lat="44.63178" lon="5.77309">
        <ele>1595.7</ele>
        <time>2015-06-30T09:20:32Z</time>
      </trkpt>
      <trkpt lat="44.63176" lon="5.77306">
        <ele>1592.5</ele>
        <time>2015-06-30T09:20:37Z</time>
      </trkpt>
      <trkpt lat="44.63177" lon="5.773">
        <ele>1593</ele>
        <time>2015-06-30T09:20:42Z</time>
      </trkpt>
      <trkpt lat="44.63178" lon="5.77293">
        <ele>1595.9</ele>
        <time>2015-06-30T09:20:47Z</time>
      </trkpt>
      <trkpt lat="44.6318" lon="5.77286">
        <ele>1599.9</ele>
        <time>2015-06-30T09:20:52Z</time>
      </trkpt>
      <trkpt lat="44.6318" lon="5.77279">
        <ele>1602.4</ele>
        <time>2015-06-30T09:20:57Z</time>
      </trkpt>
      <trkpt lat="44.6318" lon="5.77275">
        <ele>1601.2</ele>
        <time>2015-06-30T09:21:02Z</time>
      </trkpt>
      <trkpt lat="44.63176" lon="5.7727">
        <ele>1597.2</ele>
        <time>2015-06-30T09:21:07Z</time>
      </trkpt>
      <trkpt lat="44.63176" lon="5.77263">
        <ele>1598.4</ele>
        <time>2015-06-30T09:21:12Z</time>
      </trkpt>
      <trkpt lat="44.63176" lon="5.77257">
        <ele>1600.9</ele>
        <time>2015-06-30T09:21:17Z</time>
      </trkpt>
      <trkpt lat="44.63178" lon="5.77248">
        <ele>1604.2</ele>
        <time>2015-06-30T09:21:22Z</time>
      </trkpt>
      <trkpt lat="44.63178" lon="5.77242">
        <ele>1604.7</ele>
        <time>2015-06-30T09:21:27Z</time>
      </trkpt>
      <trkpt lat="44.63177" lon="5.77237">
        <ele>1603.3</ele>
        <time>2015-06-30T09:21:32Z</time>
      </trkpt>
      <trkpt lat="44.63177" lon="5.77231">
        <ele>1602.8</ele>
        <time>2015-06-30T09:21:37Z</time>
      </trkpt>
      <trkpt lat="44.63178" lon="5.77224">
        <ele>1603.6</ele>
        <time>2015-06-30T09:21:42Z</time>
      </trkpt>
      <trkpt lat="44.63177" lon="5.7722">
        <ele>1602.3</ele>
        <time>2015-06-30T09:21:47Z</time>
      </trkpt>
      <trkpt lat="44.63177" lon="5.77213">
        <ele>1604.1</ele>
        <time>2015-06-30T09:21:52Z</time>
      </trkpt>
      <trkpt lat="44.63177" lon="5.77208">
        <ele>1605.1</ele>
        <time>2015-06-30T09:21:57Z</time>
      </trkpt>
      <trkpt lat="44.63178" lon="5.77201">
        <ele>1607</ele>
        <time>2015-06-30T09:22:02Z</time>
      </trkpt>
      <trkpt lat="44.63181" lon="5.77194">
        <ele>1611</ele>
        <time>2015-06-30T09:22:07Z</time>
      </trkpt>
      <trkpt lat="44.63181" lon="5.77186">
        <ele>1609.9</ele>
        <time>2015-06-30T09:22:12Z</time>
      </trkpt>
      <trkpt lat="44.6318" lon="5.77181">
        <ele>1609.3</ele>
        <time>2015-06-30T09:22:17Z</time>
      </trkpt>
      <trkpt lat="44.63176" lon="5.77176">
        <ele>1605.1</ele>
        <time>2015-06-30T09:22:22Z</time>
      </trkpt>
      <trkpt lat="44.6318" lon="5.7717">
        <ele>1611.6</ele>
        <time>2015-06-30T09:22:27Z</time>
      </trkpt>
      <trkpt lat="44.6318" lon="5.77165">
        <ele>1611.6</ele>
        <time>2015-06-30T09:22:32Z</time>
      </trkpt>
      <trkpt lat="44.63182" lon="5.7716">
        <ele>1611.8</ele>
        <time>2015-06-30T09:22:37Z</time>
      </trkpt>
      <trkpt lat="44.63181" lon="5.77153">
        <ele>1611.9</ele>
        <time>2015-06-30T09:22:42Z</time>
      </trkpt>
      <trkpt lat="44.6318" lon="5.77149">
        <ele>1608.5</ele>
        <time>2015-06-30T09:22:47Z</time>
      </trkpt>
      <trkpt lat="44.6318" lon="5.77143">
        <ele>1607.8</ele>
        <time>2015-06-30T09:22:52Z</time>
      </trkpt>
      <trkpt lat="44.63182" lon="5.77137">
        <ele>1609</ele>
        <time>2015-06-30T09:22:57Z</time>
      </trkpt>
      <trkpt lat="44.63184" lon="5.77131">
        <ele>1608.8</ele>
        <time>2015-06-30T09:23:02Z</time>
      </trkpt>
      <trkpt lat="44.63186" lon="5.77123">
        <ele>1609.7</ele>
        <time>2015-06-30T09:23:07Z</time>
      </trkpt>
      <trkpt lat="44.6319" lon="5.77116">
        <ele>1615.8</ele>
        <time>2015-06-30T09:23:12Z</time>
      </trkpt>
      <trkpt lat="44.63194" lon="5.7711">
        <ele>1620.5</ele>
        <time>2015-06-30T09:23:17Z</time>
      </trkpt>
      <trkpt lat="44.63197" lon="5.77104">
        <ele>1621.1</ele>
        <time>2015-06-30T09:23:22Z</time>
      </trkpt>
      <trkpt lat="44.63202" lon="5.77097">
        <ele>1624.2</ele>
        <time>2015-06-30T09:23:27Z</time>
      </trkpt>
      <trkpt lat="44.63204" lon="5.77092">
        <ele>1623.8</ele>
        <time>2015-06-30T09:23:32Z</time>
      </trkpt>
      <trkpt lat="44.632" lon="5.77086">
        <ele>1620.6</ele>
        <time>2015-06-30T09:23:37Z</time>
      </trkpt>
      <trkpt lat="44.63196" lon="5.77083">
        <ele>1614.4</ele>
        <time>2015-06-30T09:23:42Z</time>
      </trkpt>
      <trkpt lat="44.63198" lon="5.77083">
        <ele>1617.2</ele>
        <time>2015-06-30T09:23:47Z</time>
      </trkpt>
      <trkpt lat="44.63202" lon="5.77079">
        <ele>1619.5</ele>
        <time>2015-06-30T09:23:52Z</time>
      </trkpt>
      <trkpt lat="44.63204" lon="5.77071">
        <ele>1621</ele>
        <time>2015-06-30T09:23:57Z</time>
      </trkpt>
      <trkpt lat="44.63204" lon="5.77066">
        <ele>1622.7</ele>
        <time>2015-06-30T09:24:02Z</time>
      </trkpt>
      <trkpt lat="44.63207" lon="5.7706">
        <ele>1624.8</ele>
        <time>2015-06-30T09:24:07Z</time>
      </trkpt>
      <trkpt lat="44.63212" lon="5.77053">
        <ele>1626.7</ele>
        <time>2015-06-30T09:24:12Z</time>
      </trkpt>
      <trkpt lat="44.63218" lon="5.77045">
        <ele>1634.4</ele>
        <time>2015-06-30T09:24:17Z</time>
      </trkpt>
      <trkpt lat="44.63221" lon="5.77039">
        <ele>1636</ele>
        <time>2015-06-30T09:24:22Z</time>
      </trkpt>
      <trkpt lat="44.63218" lon="5.77035">
        <ele>1630.5</ele>
        <time>2015-06-30T09:24:27Z</time>
      </trkpt>
      <trkpt lat="44.63216" lon="5.77031">
        <ele>1625.5</ele>
        <time>2015-06-30T09:24:32Z</time>
      </trkpt>
      <trkpt lat="44.63216" lon="5.77025">
        <ele>1622.8</ele>
        <time>2015-06-30T09:24:37Z</time>
      </trkpt>
      <trkpt lat="44.63213" lon="5.77018">
        <ele>1620.9</ele>
        <time>2015-06-30T09:24:42Z</time>
      </trkpt>
      <trkpt lat="44.63213" lon="5.77012">
        <ele>1620.3</ele>
        <time>2015-06-30T09:24:47Z</time>
      </trkpt>
      <trkpt lat="44.63213" lon="5.77008">
        <ele>1620.3</ele>
        <time>2015-06-30T09:24:52Z</time>
      </trkpt>
      <trkpt lat="44.63213" lon="5.77004">
        <ele>1616</ele>
        <time>2015-06-30T09:24:58Z</time>
      </trkpt>
      <trkpt lat="44.63218" lon="5.77">
        <ele>1620</ele>
        <time>2015-06-30T09:25:03Z</time>
      </trkpt>
      <trkpt lat="44.63226" lon="5.76993">
        <ele>1625.7</ele>
        <time>2015-06-30T09:25:08Z</time>
      </trkpt>
      <trkpt lat="44.63227" lon="5.76989">
        <ele>1626.9</ele>
        <time>2015-06-30T09:25:13Z</time>
      </trkpt>
      <trkpt lat="44.63229" lon="5.76985">
        <ele>1627.4</ele>
        <time>2015-06-30T09:25:18Z</time>
      </trkpt>
      <trkpt lat="44.63228" lon="5.76979">
        <ele>1622.9</ele>
        <time>2015-06-30T09:25:23Z</time>
      </trkpt>
      <trkpt lat="44.63231" lon="5.76972">
        <ele>1620.5</ele>
        <time>2015-06-30T09:25:28Z</time>
      </trkpt>
      <trkpt lat="44.63234" lon="5.76966">
        <ele>1622.3</ele>
        <time>2015-06-30T09:25:33Z</time>
      </trkpt>
      <trkpt lat="44.63237" lon="5.76963">
        <ele>1626.2</ele>
        <time>2015-06-30T09:25:38Z</time>
      </trkpt>
      <trkpt lat="44.63241" lon="5.76958">
        <ele>1627.8</ele>
        <time>2015-06-30T09:25:43Z</time>
      </trkpt>
      <trkpt lat="44.63245" lon="5.76951">
        <ele>1630</ele>
        <time>2015-06-30T09:25:48Z</time>
      </trkpt>
      <trkpt lat="44.63249" lon="5.76945">
        <ele>1631.4</ele>
        <time>2015-06-30T09:25:53Z</time>
      </trkpt>
      <trkpt lat="44.63252" lon="5.76939">
        <ele>1634.3</ele>
        <time>2015-06-30T09:25:58Z</time>
      </trkpt>
      <trkpt lat="44.63253" lon="5.76934">
        <ele>1632.4</ele>
        <time>2015-06-30T09:26:03Z</time>
      </trkpt>
      <trkpt lat="44.6325" lon="5.76929">
        <ele>1628.7</ele>
        <time>2015-06-30T09:26:08Z</time>
      </trkpt>
      <trkpt lat="44.63251" lon="5.76923">
        <ele>1629.2</ele>
        <time>2015-06-30T09:26:13Z</time>
      </trkpt>
      <trkpt lat="44.63255" lon="5.76918">
        <ele>1630.9</ele>
        <time>2015-06-30T09:26:18Z</time>
      </trkpt>
      <trkpt lat="44.6326" lon="5.76915">
        <ele>1634</ele>
        <time>2015-06-30T09:26:23Z</time>
      </trkpt>
      <trkpt lat="44.63261" lon="5.76909">
        <ele>1631.9</ele>
        <time>2015-06-30T09:26:28Z</time>
      </trkpt>
      <trkpt lat="44.63259" lon="5.76905">
        <ele>1627.3</ele>
        <time>2015-06-30T09:26:33Z</time>
      </trkpt>
      <trkpt lat="44.63263" lon="5.76898">
        <ele>1632.3</ele>
        <time>2015-06-30T09:26:38Z</time>
      </trkpt>
      <trkpt lat="44.63267" lon="5.76892">
        <ele>1636.4</ele>
        <time>2015-06-30T09:26:43Z</time>
      </trkpt>
      <trkpt lat="44.63269" lon="5.76886">
        <ele>1636.5</ele>
        <time>2015-06-30T09:26:48Z</time>
      </trkpt>
      <trkpt lat="44.6327" lon="5.76881">
        <ele>1638.1</ele>
        <time>2015-06-30T09:26:53Z</time>
      </trkpt>
      <trkpt lat="44.63271" lon="5.76876">
        <ele>1639</ele>
        <time>2015-06-30T09:26:58Z</time>
      </trkpt>
      <trkpt lat="44.63271" lon="5.76873">
        <ele>1635.5</ele>
        <time>2015-06-30T09:27:03Z</time>
      </trkpt>
      <trkpt lat="44.63272" lon="5.76868">
        <ele>1635.3</ele>
        <time>2015-06-30T09:27:08Z</time>
      </trkpt>
      <trkpt lat="44.63274" lon="5.76864">
        <ele>1637.3</ele>
        <time>2015-06-30T09:27:13Z</time>
      </trkpt>
      <trkpt lat="44.63276" lon="5.76859">
        <ele>1638.8</ele>
        <time>2015-06-30T09:27:18Z</time>
      </trkpt>
      <trkpt lat="44.63281" lon="5.76852">
        <ele>1641.3</ele>
        <time>2015-06-30T09:27:23Z</time>
      </trkpt>
      <trkpt lat="44.63282" lon="5.76845">
        <ele>1640.2</ele>
        <time>2015-06-30T09:27:28Z</time>
      </trkpt>
      <trkpt lat="44.63285" lon="5.7684">
        <ele>1639.8</ele>
        <time>2015-06-30T09:27:33Z</time>
      </trkpt>
      <trkpt lat="44.63287" lon="5.76834">
        <ele>1640.3</ele>
        <time>2015-06-30T09:27:38Z</time>
      </trkpt>
      <trkpt lat="44.63288" lon="5.76828">
        <ele>1639.5</ele>
        <time>2015-06-30T09:27:43Z</time>
      </trkpt>
      <trkpt lat="44.63289" lon="5.76822">
        <ele>1638.1</ele>
        <time>2015-06-30T09:27:48Z</time>
      </trkpt>
      <trkpt lat="44.63291" lon="5.76816">
        <ele>1635.8</ele>
        <time>2015-06-30T09:27:53Z</time>
      </trkpt>
      <trkpt lat="44.63293" lon="5.76811">
        <ele>1636.8</ele>
        <time>2015-06-30T09:27:58Z</time>
      </trkpt>
      <trkpt lat="44.63294" lon="5.76804">
        <ele>1639.4</ele>
        <time>2015-06-30T09:28:03Z</time>
      </trkpt>
      <trkpt lat="44.63295" lon="5.76799">
        <ele>1642.3</ele>
        <time>2015-06-30T09:28:08Z</time>
      </trkpt>
      <trkpt lat="44.63297" lon="5.76793">
        <ele>1642.7</ele>
        <time>2015-06-30T09:28:13Z</time>
      </trkpt>
      <trkpt lat="44.633" lon="5.76786">
        <ele>1644.6</ele>
        <time>2015-06-30T09:28:18Z</time>
      </trkpt>
      <trkpt lat="44.63302" lon="5.76781">
        <ele>1645.5</ele>
        <time>2015-06-30T09:28:23Z</time>
      </trkpt>
      <trkpt lat="44.63305" lon="5.76775">
        <ele>1649.9</ele>
        <time>2015-06-30T09:28:28Z</time>
      </trkpt>
      <trkpt lat="44.63308" lon="5.76768">
        <ele>1651.9</ele>
        <time>2015-06-30T09:28:33Z</time>
      </trkpt>
      <trkpt lat="44.63309" lon="5.76763">
        <ele>1652.2</ele>
        <time>2015-06-30T09:28:38Z</time>
      </trkpt>
      <trkpt lat="44.63308" lon="5.76758">
        <ele>1650.3</ele>
        <time>2015-06-30T09:28:43Z</time>
      </trkpt>
      <trkpt lat="44.63311" lon="5.76753">
        <ele>1650</ele>
        <time>2015-06-30T09:28:48Z</time>
      </trkpt>
      <trkpt lat="44.63314" lon="5.76748">
        <ele>1649.3</ele>
        <time>2015-06-30T09:28:53Z</time>
      </trkpt>
      <trkpt lat="44.63316" lon="5.76743">
        <ele>1651.1</ele>
        <time>2015-06-30T09:28:58Z</time>
      </trkpt>
      <trkpt lat="44.63322" lon="5.76735">
        <ele>1654.3</ele>
        <time>2015-06-30T09:29:03Z</time>
      </trkpt>
      <trkpt lat="44.63324" lon="5.76731">
        <ele>1652.6</ele>
        <time>2015-06-30T09:29:08Z</time>
      </trkpt>
      <trkpt lat="44.63327" lon="5.76726">
        <ele>1654.4</ele>
        <time>2015-06-30T09:29:13Z</time>
      </trkpt>
      <trkpt lat="44.63329" lon="5.7672">
        <ele>1652.1</ele>
        <time>2015-06-30T09:29:18Z</time>
      </trkpt>
      <trkpt lat="44.63327" lon="5.76715">
        <ele>1649.3</ele>
        <time>2015-06-30T09:29:23Z</time>
      </trkpt>
      <trkpt lat="44.63325" lon="5.7671">
        <ele>1646.8</ele>
        <time>2015-06-30T09:29:28Z</time>
      </trkpt>
      <trkpt lat="44.63326" lon="5.76705">
        <ele>1646.8</ele>
        <time>2015-06-30T09:29:33Z</time>
      </trkpt>
      <trkpt lat="44.63325" lon="5.76699">
        <ele>1646.9</ele>
        <time>2015-06-30T09:29:38Z</time>
      </trkpt>
      <trkpt lat="44.63325" lon="5.76691">
        <ele>1648.6</ele>
        <time>2015-06-30T09:29:43Z</time>
      </trkpt>
      <trkpt lat="44.63324" lon="5.76683">
        <ele>1650.5</ele>
        <time>2015-06-30T09:29:48Z</time>
      </trkpt>
      <trkpt lat="44.63323" lon="5.76673">
        <ele>1655.2</ele>
        <time>2015-06-30T09:29:53Z</time>
      </trkpt>
      <trkpt lat="44.63319" lon="5.76667">
        <ele>1655.9</ele>
        <time>2015-06-30T09:29:58Z</time>
      </trkpt>
      <trkpt lat="44.63316" lon="5.76665">
        <ele>1653.3</ele>
        <time>2015-06-30T09:30:03Z</time>
      </trkpt>
      <trkpt lat="44.63311" lon="5.76661">
        <ele>1652.4</ele>
        <time>2015-06-30T09:30:08Z</time>
      </trkpt>
      <trkpt lat="44.63307" lon="5.76659">
        <ele>1651</ele>
        <time>2015-06-30T09:30:13Z</time>
      </trkpt>
      <trkpt lat="44.63302" lon="5.76661">
        <ele>1649</ele>
        <time>2015-06-30T09:30:18Z</time>
      </trkpt>
      <trkpt lat="44.63297" lon="5.76664">
        <ele>1649.3</ele>
        <time>2015-06-30T09:30:23Z</time>
      </trkpt>
      <trkpt lat="44.63293" lon="5.76668">
        <ele>1649.6</ele>
        <time>2015-06-30T09:30:28Z</time>
      </trkpt>
      <trkpt lat="44.63289" lon="5.76672">
        <ele>1648.6</ele>
        <time>2015-06-30T09:30:33Z</time>
      </trkpt>
      <trkpt lat="44.63285" lon="5.76676">
        <ele>1648.5</ele>
        <time>2015-06-30T09:30:38Z</time>
      </trkpt>
      <trkpt lat="44.63283" lon="5.7668">
        <ele>1647.6</ele>
        <time>2015-06-30T09:30:43Z</time>
      </trkpt>
      <trkpt lat="44.63282" lon="5.76681">
        <ele>1646.7</ele>
        <time>2015-06-30T09:30:48Z</time>
      </trkpt>
      <trkpt lat="44.63281" lon="5.76679">
        <ele>1647.7</ele>
        <time>2015-06-30T09:30:53Z</time>
      </trkpt>
      <trkpt lat="44.63281" lon="5.76678">
        <ele>1650</ele>
        <time>2015-06-30T09:30:58Z</time>
      </trkpt>
      <trkpt lat="44.6328" lon="5.76677">
        <ele>1651.3</ele>
        <time>2015-06-30T09:31:03Z</time>
      </trkpt>
      <trkpt lat="44.6328" lon="5.76679">
        <ele>1650</ele>
        <time>2015-06-30T09:31:08Z</time>
      </trkpt>
      <trkpt lat="44.63279" lon="5.76679">
        <ele>1647.9</ele>
        <time>2015-06-30T09:31:13Z</time>
      </trkpt>
      <trkpt lat="44.63279" lon="5.76678">
        <ele>1647</ele>
        <time>2015-06-30T09:31:18Z</time>
      </trkpt>
      <trkpt lat="44.63279" lon="5.76677">
        <ele>1647.1</ele>
        <time>2015-06-30T09:31:23Z</time>
      </trkpt>
      <trkpt lat="44.63279" lon="5.76679">
        <ele>1645.2</ele>
        <time>2015-06-30T09:31:28Z</time>
      </trkpt>
      <trkpt lat="44.63278" lon="5.76679">
        <ele>1645.2</ele>
        <time>2015-06-30T09:31:33Z</time>
      </trkpt>
      <trkpt lat="44.63278" lon="5.76676">
        <ele>1646.6</ele>
        <time>2015-06-30T09:31:38Z</time>
      </trkpt>
      <trkpt lat="44.63278" lon="5.76675">
        <ele>1647.8</ele>
        <time>2015-06-30T09:31:43Z</time>
      </trkpt>
      <trkpt lat="44.63277" lon="5.76675">
        <ele>1648.3</ele>
        <time>2015-06-30T09:31:48Z</time>
      </trkpt>
      <trkpt lat="44.63276" lon="5.76675">
        <ele>1649.5</ele>
        <time>2015-06-30T09:31:53Z</time>
      </trkpt>
      <trkpt lat="44.63276" lon="5.76675">
        <ele>1650.2</ele>
        <time>2015-06-30T09:31:58Z</time>
      </trkpt>
      <trkpt lat="44.63278" lon="5.76676">
        <ele>1649.1</ele>
        <time>2015-06-30T09:32:03Z</time>
      </trkpt>
      <trkpt lat="44.63279" lon="5.76676">
        <ele>1649.1</ele>
        <time>2015-06-30T09:32:08Z</time>
      </trkpt>
      <trkpt lat="44.63281" lon="5.76676">
        <ele>1648.2</ele>
        <time>2015-06-30T09:32:13Z</time>
      </trkpt>
      <trkpt lat="44.6328" lon="5.76675">
        <ele>1647.8</ele>
        <time>2015-06-30T09:32:18Z</time>
      </trkpt>
      <trkpt lat="44.63281" lon="5.76674">
        <ele>1649.6</ele>
        <time>2015-06-30T09:32:23Z</time>
      </trkpt>
      <trkpt lat="44.6328" lon="5.76674">
        <ele>1649.2</ele>
        <time>2015-06-30T09:32:28Z</time>
      </trkpt>
      <trkpt lat="44.63279" lon="5.76672">
        <ele>1649.4</ele>
        <time>2015-06-30T09:32:33Z</time>
      </trkpt>
      <trkpt lat="44.6328" lon="5.76672">
        <ele>1651.1</ele>
        <time>2015-06-30T09:32:38Z</time>
      </trkpt>
      <trkpt lat="44.63281" lon="5.76671">
        <ele>1654.2</ele>
        <time>2015-06-30T09:32:43Z</time>
      </trkpt>
      <trkpt lat="44.63281" lon="5.76669">
        <ele>1656.5</ele>
        <time>2015-06-30T09:32:48Z</time>
      </trkpt>
      <trkpt lat="44.63282" lon="5.76667">
        <ele>1659.5</ele>
        <time>2015-06-30T09:32:53Z</time>
      </trkpt>
      <trkpt lat="44.63281" lon="5.76666">
        <ele>1661.1</ele>
        <time>2015-06-30T09:32:58Z</time>
      </trkpt>
      <trkpt lat="44.63281" lon="5.76666">
        <ele>1661.4</ele>
        <time>2015-06-30T09:33:03Z</time>
      </trkpt>
      <trkpt lat="44.63281" lon="5.76665">
        <ele>1661.9</ele>
        <time>2015-06-30T09:33:08Z</time>
      </trkpt>
      <trkpt lat="44.63281" lon="5.76666">
        <ele>1662.4</ele>
        <time>2015-06-30T09:33:14Z</time>
      </trkpt>
      <trkpt lat="44.63281" lon="5.76671">
        <ele>1660.5</ele>
        <time>2015-06-30T09:33:19Z</time>
      </trkpt>
      <trkpt lat="44.63279" lon="5.76672">
        <ele>1658.7</ele>
        <time>2015-06-30T09:33:24Z</time>
      </trkpt>
      <trkpt lat="44.63281" lon="5.76669">
        <ele>1660.1</ele>
        <time>2015-06-30T09:33:29Z</time>
      </trkpt>
      <trkpt lat="44.63282" lon="5.7667">
        <ele>1659.5</ele>
        <time>2015-06-30T09:33:34Z</time>
      </trkpt>
      <trkpt lat="44.63283" lon="5.76669">
        <ele>1660.4</ele>
        <time>2015-06-30T09:33:39Z</time>
      </trkpt>
      <trkpt lat="44.63284" lon="5.76669">
        <ele>1661.5</ele>
        <time>2015-06-30T09:33:44Z</time>
      </trkpt>
      <trkpt lat="44.63283" lon="5.76671">
        <ele>1660.9</ele>
        <time>2015-06-30T09:33:49Z</time>
      </trkpt>
      <trkpt lat="44.63285" lon="5.76671">
        <ele>1660.8</ele>
        <time>2015-06-30T09:33:54Z</time>
      </trkpt>
      <trkpt lat="44.63285" lon="5.76674">
        <ele>1661.3</ele>
        <time>2015-06-30T09:33:59Z</time>
      </trkpt>
      <trkpt lat="44.63282" lon="5.76682">
        <ele>1660</ele>
        <time>2015-06-30T09:34:04Z</time>
      </trkpt>
      <trkpt lat="44.63281" lon="5.76689">
        <ele>1658.9</ele>
        <time>2015-06-30T09:34:09Z</time>
      </trkpt>
      <trkpt lat="44.63279" lon="5.76697">
        <ele>1659.3</ele>
        <time>2015-06-30T09:34:14Z</time>
      </trkpt>
      <trkpt lat="44.63279" lon="5.76702">
        <ele>1658.7</ele>
        <time>2015-06-30T09:34:19Z</time>
      </trkpt>
      <trkpt lat="44.63276" lon="5.76712">
        <ele>1658</ele>
        <time>2015-06-30T09:34:24Z</time>
      </trkpt>
      <trkpt lat="44.63276" lon="5.7672">
        <ele>1654.8</ele>
        <time>2015-06-30T09:34:29Z</time>
      </trkpt>
      <trkpt lat="44.63275" lon="5.76728">
        <ele>1654.1</ele>
        <time>2015-06-30T09:34:34Z</time>
      </trkpt>
      <trkpt lat="44.63273" lon="5.76734">
        <ele>1652.1</ele>
        <time>2015-06-30T09:34:39Z</time>
      </trkpt>
      <trkpt lat="44.63272" lon="5.7674">
        <ele>1652.4</ele>
        <time>2015-06-30T09:34:44Z</time>
      </trkpt>
      <trkpt lat="44.63269" lon="5.76749">
        <ele>1651.1</ele>
        <time>2015-06-30T09:34:49Z</time>
      </trkpt>
      <trkpt lat="44.63266" lon="5.76758">
        <ele>1651</ele>
        <time>2015-06-30T09:34:54Z</time>
      </trkpt>
      <trkpt lat="44.63263" lon="5.76765">
        <ele>1650.7</ele>
        <time>2015-06-30T09:34:59Z</time>
      </trkpt>
      <trkpt lat="44.6326" lon="5.76773">
        <ele>1651.3</ele>
        <time>2015-06-30T09:35:04Z</time>
      </trkpt>
      <trkpt lat="44.63258" lon="5.76778">
        <ele>1651.1</ele>
        <time>2015-06-30T09:35:09Z</time>
      </trkpt>
      <trkpt lat="44.63252" lon="5.76787">
        <ele>1651.4</ele>
        <time>2015-06-30T09:35:14Z</time>
      </trkpt>
      <trkpt lat="44.6325" lon="5.76792">
        <ele>1649.7</ele>
        <time>2015-06-30T09:35:19Z</time>
      </trkpt>
      <trkpt lat="44.63247" lon="5.768">
        <ele>1651.3</ele>
        <time>2015-06-30T09:35:24Z</time>
      </trkpt>
      <trkpt lat="44.63242" lon="5.76807">
        <ele>1649.7</ele>
        <time>2015-06-30T09:35:29Z</time>
      </trkpt>
      <trkpt lat="44.63237" lon="5.76813">
        <ele>1649.1</ele>
        <time>2015-06-30T09:35:34Z</time>
      </trkpt>
      <trkpt lat="44.63234" lon="5.76822">
        <ele>1649.6</ele>
        <time>2015-06-30T09:35:39Z</time>
      </trkpt>
      <trkpt lat="44.63229" lon="5.76829">
        <ele>1648.2</ele>
        <time>2015-06-30T09:35:44Z</time>
      </trkpt>
      <trkpt lat="44.63226" lon="5.76837">
        <ele>1646.4</ele>
        <time>2015-06-30T09:35:49Z</time>
      </trkpt>
      <trkpt lat="44.63223" lon="5.76841">
        <ele>1646</ele>
        <time>2015-06-30T09:35:54Z</time>
      </trkpt>
      <trkpt lat="44.6322" lon="5.76848">
        <ele>1648.3</ele>
        <time>2015-06-30T09:35:59Z</time>
      </trkpt>
      <trkpt lat="44.63217" lon="5.76856">
        <ele>1647.3</ele>
        <time>2015-06-30T09:36:04Z</time>
      </trkpt>
      <trkpt lat="44.63214" lon="5.76864">
        <ele>1646.8</ele>
        <time>2015-06-30T09:36:09Z</time>
      </trkpt>
      <trkpt lat="44.63211" lon="5.7687">
        <ele>1644.8</ele>
        <time>2015-06-30T09:36:14Z</time>
      </trkpt>
      <trkpt lat="44.63208" lon="5.76876">
        <ele>1645.3</ele>
        <time>2015-06-30T09:36:19Z</time>
      </trkpt>
      <trkpt lat="44.63204" lon="5.76881">
        <ele>1644.1</ele>
        <time>2015-06-30T09:36:24Z</time>
      </trkpt>
      <trkpt lat="44.632" lon="5.76889">
        <ele>1642.7</ele>
        <time>2015-06-30T09:36:29Z</time>
      </trkpt>
      <trkpt lat="44.63196" lon="5.76895">
        <ele>1642.7</ele>
        <time>2015-06-30T09:36:34Z</time>
      </trkpt>
      <trkpt lat="44.63192" lon="5.76902">
        <ele>1642.2</ele>
        <time>2015-06-30T09:36:39Z</time>
      </trkpt>
      <trkpt lat="44.63189" lon="5.76908">
        <ele>1642.3</ele>
        <time>2015-06-30T09:36:44Z</time>
      </trkpt>
      <trkpt lat="44.63184" lon="5.76916">
        <ele>1642.5</ele>
        <time>2015-06-30T09:36:49Z</time>
      </trkpt>
      <trkpt lat="44.63179" lon="5.76923">
        <ele>1643.3</ele>
        <time>2015-06-30T09:36:54Z</time>
      </trkpt>
      <trkpt lat="44.63174" lon="5.7693">
        <ele>1642.8</ele>
        <time>2015-06-30T09:36:59Z</time>
      </trkpt>
      <trkpt lat="44.6317" lon="5.76937">
        <ele>1643.6</ele>
        <time>2015-06-30T09:37:04Z</time>
      </trkpt>
      <trkpt lat="44.63165" lon="5.76943">
        <ele>1641.4</ele>
        <time>2015-06-30T09:37:09Z</time>
      </trkpt>
      <trkpt lat="44.63161" lon="5.76949">
        <ele>1638.6</ele>
        <time>2015-06-30T09:37:14Z</time>
      </trkpt>
      <trkpt lat="44.63157" lon="5.76954">
        <ele>1638.3</ele>
        <time>2015-06-30T09:37:19Z</time>
      </trkpt>
      <trkpt lat="44.63153" lon="5.7696">
        <ele>1636.5</ele>
        <time>2015-06-30T09:37:24Z</time>
      </trkpt>
      <trkpt lat="44.63148" lon="5.76965">
        <ele>1636.3</ele>
        <time>2015-06-30T09:37:29Z</time>
      </trkpt>
      <trkpt lat="44.63144" lon="5.76973">
        <ele>1635.7</ele>
        <time>2015-06-30T09:37:34Z</time>
      </trkpt>
      <trkpt lat="44.63138" lon="5.76978">
        <ele>1635.1</ele>
        <time>2015-06-30T09:37:39Z</time>
      </trkpt>
      <trkpt lat="44.63134" lon="5.76985">
        <ele>1635.9</ele>
        <time>2015-06-30T09:37:44Z</time>
      </trkpt>
      <trkpt lat="44.63131" lon="5.76993">
        <ele>1636</ele>
        <time>2015-06-30T09:37:49Z</time>
      </trkpt>
      <trkpt lat="44.63129" lon="5.77001">
        <ele>1636.3</ele>
        <time>2015-06-30T09:37:54Z</time>
      </trkpt>
      <trkpt lat="44.63127" lon="5.77009">
        <ele>1638.8</ele>
        <time>2015-06-30T09:37:59Z</time>
      </trkpt>
      <trkpt lat="44.63125" lon="5.77019">
        <ele>1637.6</ele>
        <time>2015-06-30T09:38:04Z</time>
      </trkpt>
      <trkpt lat="44.63122" lon="5.77027">
        <ele>1635.9</ele>
        <time>2015-06-30T09:38:09Z</time>
      </trkpt>
      <trkpt lat="44.63121" lon="5.77035">
        <ele>1637.4</ele>
        <time>2015-06-30T09:38:14Z</time>
      </trkpt>
      <trkpt lat="44.63119" lon="5.77043">
        <ele>1636.2</ele>
        <time>2015-06-30T09:38:19Z</time>
      </trkpt>
      <trkpt lat="44.63118" lon="5.77048">
        <ele>1635.1</ele>
        <time>2015-06-30T09:38:24Z</time>
      </trkpt>
      <trkpt lat="44.63115" lon="5.77062">
        <ele>1633.9</ele>
        <time>2015-06-30T09:38:31Z</time>
      </trkpt>
      <trkpt lat="44.63115" lon="5.77068">
        <ele>1635.3</ele>
        <time>2015-06-30T09:38:36Z</time>
      </trkpt>
      <trkpt lat="44.63113" lon="5.77075">
        <ele>1632.8</ele>
        <time>2015-06-30T09:38:41Z</time>
      </trkpt>
      <trkpt lat="44.63103" lon="5.77092">
        <ele>1633.7</ele>
        <time>2015-06-30T09:38:49Z</time>
      </trkpt>
      <trkpt lat="44.63098" lon="5.77098">
        <ele>1637.1</ele>
        <time>2015-06-30T09:38:54Z</time>
      </trkpt>
      <trkpt lat="44.63095" lon="5.77105">
        <ele>1640.1</ele>
        <time>2015-06-30T09:38:59Z</time>
      </trkpt>
      <trkpt lat="44.63093" lon="5.77112">
        <ele>1640.6</ele>
        <time>2015-06-30T09:39:04Z</time>
      </trkpt>
      <trkpt lat="44.63089" lon="5.77122">
        <ele>1640.8</ele>
        <time>2015-06-30T09:39:11Z</time>
      </trkpt>
      <trkpt lat="44.63086" lon="5.7713">
        <ele>1637.4</ele>
        <time>2015-06-30T09:39:16Z</time>
      </trkpt>
      <trkpt lat="44.63083" lon="5.77139">
        <ele>1638.4</ele>
        <time>2015-06-30T09:39:21Z</time>
      </trkpt>
      <trkpt lat="44.6308" lon="5.77145">
        <ele>1635</ele>
        <time>2015-06-30T09:39:26Z</time>
      </trkpt>
      <trkpt lat="44.63079" lon="5.77155">
        <ele>1634.6</ele>
        <time>2015-06-30T09:39:33Z</time>
      </trkpt>
      <trkpt lat="44.63079" lon="5.77163">
        <ele>1631.9</ele>
        <time>2015-06-30T09:39:38Z</time>
      </trkpt>
      <trkpt lat="44.63076" lon="5.7717">
        <ele>1632.1</ele>
        <time>2015-06-30T09:39:43Z</time>
      </trkpt>
      <trkpt lat="44.63075" lon="5.77178">
        <ele>1632.8</ele>
        <time>2015-06-30T09:39:48Z</time>
      </trkpt>
      <trkpt lat="44.63078" lon="5.77183">
        <ele>1635.4</ele>
        <time>2015-06-30T09:39:53Z</time>
      </trkpt>
      <trkpt lat="44.63077" lon="5.77192">
        <ele>1639.6</ele>
        <time>2015-06-30T09:39:58Z</time>
      </trkpt>
      <trkpt lat="44.63076" lon="5.77197">
        <ele>1640.1</ele>
        <time>2015-06-30T09:40:03Z</time>
      </trkpt>
      <trkpt lat="44.63075" lon="5.77206">
        <ele>1639.5</ele>
        <time>2015-06-30T09:40:08Z</time>
      </trkpt>
      <trkpt lat="44.63072" lon="5.77216">
        <ele>1637.8</ele>
        <time>2015-06-30T09:40:15Z</time>
      </trkpt>
      <trkpt lat="44.63073" lon="5.77228">
        <ele>1640.9</ele>
        <time>2015-06-30T09:40:20Z</time>
      </trkpt>
      <trkpt lat="44.63072" lon="5.77235">
        <ele>1643.4</ele>
        <time>2015-06-30T09:40:25Z</time>
      </trkpt>
      <trkpt lat="44.63073" lon="5.77243">
        <ele>1646.6</ele>
        <time>2015-06-30T09:40:30Z</time>
      </trkpt>
      <trkpt lat="44.63073" lon="5.77252">
        <ele>1650.4</ele>
        <time>2015-06-30T09:40:35Z</time>
      </trkpt>
      <trkpt lat="44.63071" lon="5.7726">
        <ele>1649.6</ele>
        <time>2015-06-30T09:40:40Z</time>
      </trkpt>
      <trkpt lat="44.63067" lon="5.77269">
        <ele>1645</ele>
        <time>2015-06-30T09:40:45Z</time>
      </trkpt>
      <trkpt lat="44.63065" lon="5.77278">
        <ele>1642.9</ele>
        <time>2015-06-30T09:40:50Z</time>
      </trkpt>
      <trkpt lat="44.63065" lon="5.77284">
        <ele>1639.7</ele>
        <time>2015-06-30T09:40:55Z</time>
      </trkpt>
      <trkpt lat="44.63062" lon="5.77292">
        <ele>1638.3</ele>
        <time>2015-06-30T09:41:00Z</time>
      </trkpt>
      <trkpt lat="44.63063" lon="5.77297">
        <ele>1640.2</ele>
        <time>2015-06-30T09:41:05Z</time>
      </trkpt>
      <trkpt lat="44.63062" lon="5.77303">
        <ele>1644.3</ele>
        <time>2015-06-30T09:41:10Z</time>
      </trkpt>
      <trkpt lat="44.63061" lon="5.77314">
        <ele>1648.3</ele>
        <time>2015-06-30T09:41:17Z</time>
      </trkpt>
      <trkpt lat="44.63057" lon="5.77323">
        <ele>1642.8</ele>
        <time>2015-06-30T09:41:22Z</time>
      </trkpt>
      <trkpt lat="44.63056" lon="5.77332">
        <ele>1644</ele>
        <time>2015-06-30T09:41:27Z</time>
      </trkpt>
      <trkpt lat="44.63055" lon="5.77343">
        <ele>1642.5</ele>
        <time>2015-06-30T09:41:32Z</time>
      </trkpt>
      <trkpt lat="44.63053" lon="5.77351">
        <ele>1644.1</ele>
        <time>2015-06-30T09:41:37Z</time>
      </trkpt>
      <trkpt lat="44.6305" lon="5.7736">
        <ele>1641</ele>
        <time>2015-06-30T09:41:42Z</time>
      </trkpt>
      <trkpt lat="44.63049" lon="5.77371">
        <ele>1640</ele>
        <time>2015-06-30T09:41:49Z</time>
      </trkpt>
      <trkpt lat="44.63053" lon="5.77377">
        <ele>1640.1</ele>
        <time>2015-06-30T09:41:54Z</time>
      </trkpt>
      <trkpt lat="44.63057" lon="5.77382">
        <ele>1642.8</ele>
        <time>2015-06-30T09:41:59Z</time>
      </trkpt>
      <trkpt lat="44.63061" lon="5.77388">
        <ele>1647.7</ele>
        <time>2015-06-30T09:42:04Z</time>
      </trkpt>
      <trkpt lat="44.63057" lon="5.77394">
        <ele>1648.1</ele>
        <time>2015-06-30T09:42:09Z</time>
      </trkpt>
      <trkpt lat="44.6305" lon="5.77404">
        <ele>1644.7</ele>
        <time>2015-06-30T09:42:14Z</time>
      </trkpt>
      <trkpt lat="44.63041" lon="5.77412">
        <ele>1637.6</ele>
        <time>2015-06-30T09:42:19Z</time>
      </trkpt>
      <trkpt lat="44.63036" lon="5.77423">
        <ele>1635.4</ele>
        <time>2015-06-30T09:42:24Z</time>
      </trkpt>
      <trkpt lat="44.63034" lon="5.77433">
        <ele>1635.3</ele>
        <time>2015-06-30T09:42:29Z</time>
      </trkpt>
      <trkpt lat="44.63035" lon="5.77439">
        <ele>1637.6</ele>
        <time>2015-06-30T09:42:34Z</time>
      </trkpt>
      <trkpt lat="44.63037" lon="5.77445">
        <ele>1641</ele>
        <time>2015-06-30T09:42:39Z</time>
      </trkpt>
      <trkpt lat="44.63037" lon="5.77453">
        <ele>1641.1</ele>
        <time>2015-06-30T09:42:44Z</time>
      </trkpt>
      <trkpt lat="44.63037" lon="5.77457">
        <ele>1640.7</ele>
        <time>2015-06-30T09:42:49Z</time>
      </trkpt>
      <trkpt lat="44.63037" lon="5.77463">
        <ele>1639.3</ele>
        <time>2015-06-30T09:42:54Z</time>
      </trkpt>
      <trkpt lat="44.63036" lon="5.7747">
        <ele>1643.5</ele>
        <time>2015-06-30T09:42:59Z</time>
      </trkpt>
      <trkpt lat="44.63035" lon="5.77482">
        <ele>1644.7</ele>
        <time>2015-06-30T09:43:06Z</time>
      </trkpt>
      <trkpt lat="44.63033" lon="5.77486">
        <ele>1643.4</ele>
        <time>2015-06-30T09:43:11Z</time>
      </trkpt>
      <trkpt lat="44.63033" lon="5.77492">
        <ele>1646.7</ele>
        <time>2015-06-30T09:43:16Z</time>
      </trkpt>
      <trkpt lat="44.63028" lon="5.77498">
        <ele>1647.3</ele>
        <time>2015-06-30T09:43:21Z</time>
      </trkpt>
      <trkpt lat="44.63027" lon="5.77506">
        <ele>1652.2</ele>
        <time>2015-06-30T09:43:26Z</time>
      </trkpt>
      <trkpt lat="44.63022" lon="5.77509">
        <ele>1651.2</ele>
        <time>2015-06-30T09:43:31Z</time>
      </trkpt>
      <trkpt lat="44.63014" lon="5.77521">
        <ele>1650</ele>
        <time>2015-06-30T09:43:40Z</time>
      </trkpt>
      <trkpt lat="44.6301" lon="5.77525">
        <ele>1648.4</ele>
        <time>2015-06-30T09:43:45Z</time>
      </trkpt>
      <trkpt lat="44.63002" lon="5.77531">
        <ele>1650.4</ele>
        <time>2015-06-30T09:43:50Z</time>
      </trkpt>
      <trkpt lat="44.62999" lon="5.77538">
        <ele>1649.4</ele>
        <time>2015-06-30T09:43:55Z</time>
      </trkpt>
      <trkpt lat="44.62994" lon="5.77541">
        <ele>1648.2</ele>
        <time>2015-06-30T09:44:00Z</time>
      </trkpt>
      <trkpt lat="44.62988" lon="5.77554">
        <ele>1651.5</ele>
        <time>2015-06-30T09:44:07Z</time>
      </trkpt>
      <trkpt lat="44.62987" lon="5.77561">
        <ele>1651.6</ele>
        <time>2015-06-30T09:44:12Z</time>
      </trkpt>
      <trkpt lat="44.62984" lon="5.77569">
        <ele>1654.3</ele>
        <time>2015-06-30T09:44:19Z</time>
      </trkpt>
      <trkpt lat="44.62979" lon="5.77574">
        <ele>1652.8</ele>
        <time>2015-06-30T09:44:24Z</time>
      </trkpt>
      <trkpt lat="44.62977" lon="5.77578">
        <ele>1651</ele>
        <time>2015-06-30T09:44:29Z</time>
      </trkpt>
      <trkpt lat="44.62973" lon="5.77586">
        <ele>1651.8</ele>
        <time>2015-06-30T09:44:34Z</time>
      </trkpt>
      <trkpt lat="44.62966" lon="5.7759">
        <ele>1651.7</ele>
        <time>2015-06-30T09:44:41Z</time>
      </trkpt>
      <trkpt lat="44.62965" lon="5.77598">
        <ele>1654</ele>
        <time>2015-06-30T09:44:46Z</time>
      </trkpt>
      <trkpt lat="44.62962" lon="5.77604">
        <ele>1654.5</ele>
        <time>2015-06-30T09:44:51Z</time>
      </trkpt>
      <trkpt lat="44.62958" lon="5.77607">
        <ele>1654.2</ele>
        <time>2015-06-30T09:44:56Z</time>
      </trkpt>
      <trkpt lat="44.62953" lon="5.7761">
        <ele>1656</ele>
        <time>2015-06-30T09:45:01Z</time>
      </trkpt>
      <trkpt lat="44.6295" lon="5.77611">
        <ele>1653.3</ele>
        <time>2015-06-30T09:45:06Z</time>
      </trkpt>
      <trkpt lat="44.62942" lon="5.77612">
        <ele>1649.6</ele>
        <time>2015-06-30T09:45:11Z</time>
      </trkpt>
      <trkpt lat="44.62939" lon="5.77617">
        <ele>1650</ele>
        <time>2015-06-30T09:45:16Z</time>
      </trkpt>
      <trkpt lat="44.62938" lon="5.77628">
        <ele>1652.6</ele>
        <time>2015-06-30T09:45:23Z</time>
      </trkpt>
      <trkpt lat="44.62931" lon="5.77632">
        <ele>1647.9</ele>
        <time>2015-06-30T09:45:28Z</time>
      </trkpt>
      <trkpt lat="44.62926" lon="5.7764">
        <ele>1647.1</ele>
        <time>2015-06-30T09:45:35Z</time>
      </trkpt>
      <trkpt lat="44.6292" lon="5.77647">
        <ele>1649.3</ele>
        <time>2015-06-30T09:45:40Z</time>
      </trkpt>
      <trkpt lat="44.62917" lon="5.77655">
        <ele>1651.2</ele>
        <time>2015-06-30T09:45:47Z</time>
      </trkpt>
      <trkpt lat="44.62909" lon="5.77662">
        <ele>1650</ele>
        <time>2015-06-30T09:45:54Z</time>
      </trkpt>
      <trkpt lat="44.62903" lon="5.77669">
        <ele>1649.5</ele>
        <time>2015-06-30T09:45:59Z</time>
      </trkpt>
      <trkpt lat="44.62901" lon="5.77676">
        <ele>1646.5</ele>
        <time>2015-06-30T09:46:04Z</time>
      </trkpt>
      <trkpt lat="44.62899" lon="5.77683">
        <ele>1647.1</ele>
        <time>2015-06-30T09:46:09Z</time>
      </trkpt>
      <trkpt lat="44.62898" lon="5.77691">
        <ele>1650.4</ele>
        <time>2015-06-30T09:46:14Z</time>
      </trkpt>
      <trkpt lat="44.62893" lon="5.77698">
        <ele>1650.6</ele>
        <time>2015-06-30T09:46:19Z</time>
      </trkpt>
      <trkpt lat="44.62887" lon="5.77704">
        <ele>1646.9</ele>
        <time>2015-06-30T09:46:26Z</time>
      </trkpt>
      <trkpt lat="44.62883" lon="5.77709">
        <ele>1647.3</ele>
        <time>2015-06-30T09:46:31Z</time>
      </trkpt>
      <trkpt lat="44.62877" lon="5.77718">
        <ele>1643.9</ele>
        <time>2015-06-30T09:46:38Z</time>
      </trkpt>
      <trkpt lat="44.62872" lon="5.77723">
        <ele>1644.7</ele>
        <time>2015-06-30T09:46:43Z</time>
      </trkpt>
      <trkpt lat="44.6287" lon="5.7773">
        <ele>1645.8</ele>
        <time>2015-06-30T09:46:48Z</time>
      </trkpt>
      <trkpt lat="44.62864" lon="5.77739">
        <ele>1648.1</ele>
        <time>2015-06-30T09:46:55Z</time>
      </trkpt>
      <trkpt lat="44.62861" lon="5.77745">
        <ele>1649.3</ele>
        <time>2015-06-30T09:47:00Z</time>
      </trkpt>
      <trkpt lat="44.62858" lon="5.77754">
        <ele>1653.4</ele>
        <time>2015-06-30T09:47:05Z</time>
      </trkpt>
      <trkpt lat="44.62855" lon="5.7776">
        <ele>1654.9</ele>
        <time>2015-06-30T09:47:10Z</time>
      </trkpt>
      <trkpt lat="44.62853" lon="5.77768">
        <ele>1655.3</ele>
        <time>2015-06-30T09:47:17Z</time>
      </trkpt>
      <trkpt lat="44.62848" lon="5.77779">
        <ele>1659.3</ele>
        <time>2015-06-30T09:47:22Z</time>
      </trkpt>
      <trkpt lat="44.62845" lon="5.77784">
        <ele>1660.2</ele>
        <time>2015-06-30T09:47:27Z</time>
      </trkpt>
      <trkpt lat="44.62846" lon="5.77792">
        <ele>1663.4</ele>
        <time>2015-06-30T09:47:32Z</time>
      </trkpt>
      <trkpt lat="44.62847" lon="5.77802">
        <ele>1669</ele>
        <time>2015-06-30T09:47:37Z</time>
      </trkpt>
      <trkpt lat="44.62846" lon="5.778">
        <ele>1666.9</ele>
        <time>2015-06-30T09:47:42Z</time>
      </trkpt>
      <trkpt lat="44.62841" lon="5.77807">
        <ele>1666.7</ele>
        <time>2015-06-30T09:47:47Z</time>
      </trkpt>
      <trkpt lat="44.62835" lon="5.77812">
        <ele>1666.3</ele>
        <time>2015-06-30T09:47:52Z</time>
      </trkpt>
      <trkpt lat="44.6283" lon="5.77818">
        <ele>1665.8</ele>
        <time>2015-06-30T09:47:57Z</time>
      </trkpt>
      <trkpt lat="44.62828" lon="5.77824">
        <ele>1666.4</ele>
        <time>2015-06-30T09:48:02Z</time>
      </trkpt>
      <trkpt lat="44.62821" lon="5.7783">
        <ele>1663.9</ele>
        <time>2015-06-30T09:48:07Z</time>
      </trkpt>
      <trkpt lat="44.62815" lon="5.77833">
        <ele>1657.8</ele>
        <time>2015-06-30T09:48:12Z</time>
      </trkpt>
      <trkpt lat="44.62809" lon="5.77841">
        <ele>1656</ele>
        <time>2015-06-30T09:48:17Z</time>
      </trkpt>
      <trkpt lat="44.62811" lon="5.7785">
        <ele>1662.3</ele>
        <time>2015-06-30T09:48:22Z</time>
      </trkpt>
      <trkpt lat="44.62813" lon="5.77856">
        <ele>1669.1</ele>
        <time>2015-06-30T09:48:27Z</time>
      </trkpt>
      <trkpt lat="44.62812" lon="5.77862">
        <ele>1669.7</ele>
        <time>2015-06-30T09:48:32Z</time>
      </trkpt>
      <trkpt lat="44.62809" lon="5.77865">
        <ele>1670.4</ele>
        <time>2015-06-30T09:48:37Z</time>
      </trkpt>
      <trkpt lat="44.62801" lon="5.77869">
        <ele>1664.4</ele>
        <time>2015-06-30T09:48:42Z</time>
      </trkpt>
      <trkpt lat="44.62795" lon="5.77873">
        <ele>1657.8</ele>
        <time>2015-06-30T09:48:47Z</time>
      </trkpt>
      <trkpt lat="44.62786" lon="5.7788">
        <ele>1656.7</ele>
        <time>2015-06-30T09:48:52Z</time>
      </trkpt>
      <trkpt lat="44.62781" lon="5.77888">
        <ele>1659.5</ele>
        <time>2015-06-30T09:48:57Z</time>
      </trkpt>
      <trkpt lat="44.62777" lon="5.77896">
        <ele>1662.5</ele>
        <time>2015-06-30T09:49:02Z</time>
      </trkpt>
      <trkpt lat="44.62774" lon="5.77904">
        <ele>1668.2</ele>
        <time>2015-06-30T09:49:07Z</time>
      </trkpt>
      <trkpt lat="44.6277" lon="5.77907">
        <ele>1667.4</ele>
        <time>2015-06-30T09:49:12Z</time>
      </trkpt>
      <trkpt lat="44.62768" lon="5.77915">
        <ele>1668.3</ele>
        <time>2015-06-30T09:49:17Z</time>
      </trkpt>
      <trkpt lat="44.62761" lon="5.77922">
        <ele>1670.1</ele>
        <time>2015-06-30T09:49:22Z</time>
      </trkpt>
      <trkpt lat="44.62756" lon="5.77921">
        <ele>1667.5</ele>
        <time>2015-06-30T09:49:27Z</time>
      </trkpt>
      <trkpt lat="44.62752" lon="5.77928">
        <ele>1669.7</ele>
        <time>2015-06-30T09:49:32Z</time>
      </trkpt>
      <trkpt lat="44.62747" lon="5.77931">
        <ele>1673.7</ele>
        <time>2015-06-30T09:49:37Z</time>
      </trkpt>
      <trkpt lat="44.62743" lon="5.77934">
        <ele>1671</ele>
        <time>2015-06-30T09:49:42Z</time>
      </trkpt>
      <trkpt lat="44.62744" lon="5.7794">
        <ele>1673.6</ele>
        <time>2015-06-30T09:49:47Z</time>
      </trkpt>
      <trkpt lat="44.62738" lon="5.77945">
        <ele>1678.4</ele>
        <time>2015-06-30T09:49:52Z</time>
      </trkpt>
      <trkpt lat="44.6273" lon="5.77953">
        <ele>1677.7</ele>
        <time>2015-06-30T09:49:57Z</time>
      </trkpt>
      <trkpt lat="44.62729" lon="5.77956">
        <ele>1674.9</ele>
        <time>2015-06-30T09:50:02Z</time>
      </trkpt>
      <trkpt lat="44.62734" lon="5.77956">
        <ele>1677.8</ele>
        <time>2015-06-30T09:50:07Z</time>
      </trkpt>
      <trkpt lat="44.62729" lon="5.7796">
        <ele>1676.7</ele>
        <time>2015-06-30T09:50:12Z</time>
      </trkpt>
      <trkpt lat="44.62724" lon="5.77965">
        <ele>1673.4</ele>
        <time>2015-06-30T09:50:17Z</time>
      </trkpt>
      <trkpt lat="44.62716" lon="5.77972">
        <ele>1668.8</ele>
        <time>2015-06-30T09:50:22Z</time>
      </trkpt>
      <trkpt lat="44.62707" lon="5.7798">
        <ele>1666.5</ele>
        <time>2015-06-30T09:50:27Z</time>
      </trkpt>
      <trkpt lat="44.627" lon="5.77986">
        <ele>1660.9</ele>
        <time>2015-06-30T09:50:32Z</time>
      </trkpt>
      <trkpt lat="44.62689" lon="5.77991">
        <ele>1660.8</ele>
        <time>2015-06-30T09:50:37Z</time>
      </trkpt>
      <trkpt lat="44.62683" lon="5.77994">
        <ele>1660.2</ele>
        <time>2015-06-30T09:50:42Z</time>
      </trkpt>
      <trkpt lat="44.62677" lon="5.77999">
        <ele>1660.1</ele>
        <time>2015-06-30T09:50:47Z</time>
      </trkpt>
      <trkpt lat="44.62672" lon="5.78001">
        <ele>1659.8</ele>
        <time>2015-06-30T09:50:52Z</time>
      </trkpt>
      <trkpt lat="44.6267" lon="5.78007">
        <ele>1659.8</ele>
        <time>2015-06-30T09:50:57Z</time>
      </trkpt>
      <trkpt lat="44.62668" lon="5.78012">
        <ele>1660.7</ele>
        <time>2015-06-30T09:51:02Z</time>
      </trkpt>
      <trkpt lat="44.62655" lon="5.78014">
        <ele>1660.3</ele>
        <time>2015-06-30T09:51:07Z</time>
      </trkpt>
      <trkpt lat="44.62647" lon="5.78027">
        <ele>1661.1</ele>
        <time>2015-06-30T09:51:12Z</time>
      </trkpt>
      <trkpt lat="44.62649" lon="5.78026">
        <ele>1661.6</ele>
        <time>2015-06-30T09:51:19Z</time>
      </trkpt>
      <trkpt lat="44.62648" lon="5.78028">
        <ele>1662.9</ele>
        <time>2015-06-30T09:51:24Z</time>
      </trkpt>
      <trkpt lat="44.62648" lon="5.78031">
        <ele>1663.7</ele>
        <time>2015-06-30T09:51:29Z</time>
      </trkpt>
      <trkpt lat="44.62646" lon="5.78035">
        <ele>1664.3</ele>
        <time>2015-06-30T09:51:34Z</time>
      </trkpt>
      <trkpt lat="44.62642" lon="5.78044">
        <ele>1666.8</ele>
        <time>2015-06-30T09:51:40Z</time>
      </trkpt>
      <trkpt lat="44.62638" lon="5.78056">
        <ele>1669.1</ele>
        <time>2015-06-30T09:51:45Z</time>
      </trkpt>
      <trkpt lat="44.62635" lon="5.78059">
        <ele>1669.8</ele>
        <time>2015-06-30T09:51:50Z</time>
      </trkpt>
      <trkpt lat="44.62635" lon="5.78068">
        <ele>1670.8</ele>
        <time>2015-06-30T09:51:55Z</time>
      </trkpt>
      <trkpt lat="44.62628" lon="5.78078">
        <ele>1666.5</ele>
        <time>2015-06-30T09:52:00Z</time>
      </trkpt>
      <trkpt lat="44.62624" lon="5.78084">
        <ele>1663</ele>
        <time>2015-06-30T09:52:05Z</time>
      </trkpt>
      <trkpt lat="44.62618" lon="5.78091">
        <ele>1659.7</ele>
        <time>2015-06-30T09:52:10Z</time>
      </trkpt>
      <trkpt lat="44.62613" lon="5.78096">
        <ele>1656</ele>
        <time>2015-06-30T09:52:15Z</time>
      </trkpt>
      <trkpt lat="44.62605" lon="5.781">
        <ele>1654.7</ele>
        <time>2015-06-30T09:52:20Z</time>
      </trkpt>
      <trkpt lat="44.62599" lon="5.78108">
        <ele>1650.5</ele>
        <time>2015-06-30T09:52:25Z</time>
      </trkpt>
      <trkpt lat="44.62607" lon="5.78112">
        <ele>1662.4</ele>
        <time>2015-06-30T09:52:30Z</time>
      </trkpt>
      <trkpt lat="44.62612" lon="5.78118">
        <ele>1668.2</ele>
        <time>2015-06-30T09:52:35Z</time>
      </trkpt>
      <trkpt lat="44.62605" lon="5.78125">
        <ele>1666.1</ele>
        <time>2015-06-30T09:52:40Z</time>
      </trkpt>
      <trkpt lat="44.62597" lon="5.78135">
        <ele>1663.5</ele>
        <time>2015-06-30T09:52:45Z</time>
      </trkpt>
      <trkpt lat="44.62602" lon="5.78147">
        <ele>1676.3</ele>
        <time>2015-06-30T09:52:50Z</time>
      </trkpt>
      <trkpt lat="44.62604" lon="5.78153">
        <ele>1679.9</ele>
        <time>2015-06-30T09:52:55Z</time>
      </trkpt>
      <trkpt lat="44.62606" lon="5.78153">
        <ele>1686.3</ele>
        <time>2015-06-30T09:53:00Z</time>
      </trkpt>
      <trkpt lat="44.62602" lon="5.78161">
        <ele>1684.4</ele>
        <time>2015-06-30T09:53:05Z</time>
      </trkpt>
      <trkpt lat="44.62601" lon="5.78167">
        <ele>1685.8</ele>
        <time>2015-06-30T09:53:10Z</time>
      </trkpt>
      <trkpt lat="44.626" lon="5.78174">
        <ele>1686</ele>
        <time>2015-06-30T09:53:15Z</time>
      </trkpt>
      <trkpt lat="44.626" lon="5.78179">
        <ele>1692.5</ele>
        <time>2015-06-30T09:53:20Z</time>
      </trkpt>
      <trkpt lat="44.62598" lon="5.78188">
        <ele>1702.4</ele>
        <time>2015-06-30T09:53:26Z</time>
      </trkpt>
      <trkpt lat="44.62599" lon="5.78189">
        <ele>1701.1</ele>
        <time>2015-06-30T09:53:31Z</time>
      </trkpt>
      <trkpt lat="44.6259" lon="5.78199">
        <ele>1692.8</ele>
        <time>2015-06-30T09:53:36Z</time>
      </trkpt>
      <trkpt lat="44.6258" lon="5.78211">
        <ele>1683.8</ele>
        <time>2015-06-30T09:53:41Z</time>
      </trkpt>
      <trkpt lat="44.62577" lon="5.78217">
        <ele>1681.9</ele>
        <time>2015-06-30T09:53:46Z</time>
      </trkpt>
      <trkpt lat="44.62574" lon="5.78223">
        <ele>1682.7</ele>
        <time>2015-06-30T09:53:51Z</time>
      </trkpt>
      <trkpt lat="44.62571" lon="5.7823">
        <ele>1682.4</ele>
        <time>2015-06-30T09:53:56Z</time>
      </trkpt>
      <trkpt lat="44.62567" lon="5.78234">
        <ele>1680.8</ele>
        <time>2015-06-30T09:54:01Z</time>
      </trkpt>
      <trkpt lat="44.62565" lon="5.78241">
        <ele>1684.6</ele>
        <time>2015-06-30T09:54:06Z</time>
      </trkpt>
      <trkpt lat="44.62558" lon="5.78245">
        <ele>1686.3</ele>
        <time>2015-06-30T09:54:11Z</time>
      </trkpt>
      <trkpt lat="44.62558" lon="5.7825">
        <ele>1691.1</ele>
        <time>2015-06-30T09:54:16Z</time>
      </trkpt>
      <trkpt lat="44.62551" lon="5.78257">
        <ele>1690</ele>
        <time>2015-06-30T09:54:21Z</time>
      </trkpt>
      <trkpt lat="44.62549" lon="5.78267">
        <ele>1691.5</ele>
        <time>2015-06-30T09:54:26Z</time>
      </trkpt>
      <trkpt lat="44.6255" lon="5.78273">
        <ele>1696</ele>
        <time>2015-06-30T09:54:31Z</time>
      </trkpt>
      <trkpt lat="44.62548" lon="5.7828">
        <ele>1699</ele>
        <time>2015-06-30T09:54:36Z</time>
      </trkpt>
      <trkpt lat="44.6254" lon="5.78287">
        <ele>1692.6</ele>
        <time>2015-06-30T09:54:41Z</time>
      </trkpt>
      <trkpt lat="44.62541" lon="5.78292">
        <ele>1694.9</ele>
        <time>2015-06-30T09:54:46Z</time>
      </trkpt>
      <trkpt lat="44.62544" lon="5.78297">
        <ele>1697.5</ele>
        <time>2015-06-30T09:54:51Z</time>
      </trkpt>
      <trkpt lat="44.62544" lon="5.78302">
        <ele>1698.6</ele>
        <time>2015-06-30T09:54:56Z</time>
      </trkpt>
      <trkpt lat="44.62544" lon="5.78309">
        <ele>1696.8</ele>
        <time>2015-06-30T09:55:01Z</time>
      </trkpt>
      <trkpt lat="44.62541" lon="5.78313">
        <ele>1697.2</ele>
        <time>2015-06-30T09:55:06Z</time>
      </trkpt>
      <trkpt lat="44.6254" lon="5.78321">
        <ele>1699.3</ele>
        <time>2015-06-30T09:55:11Z</time>
      </trkpt>
      <trkpt lat="44.62542" lon="5.78331">
        <ele>1701.2</ele>
        <time>2015-06-30T09:55:16Z</time>
      </trkpt>
      <trkpt lat="44.62543" lon="5.78339">
        <ele>1706.5</ele>
        <time>2015-06-30T09:55:21Z</time>
      </trkpt>
      <trkpt lat="44.62543" lon="5.78349">
        <ele>1705.8</ele>
        <time>2015-06-30T09:55:26Z</time>
      </trkpt>
      <trkpt lat="44.62542" lon="5.78356">
        <ele>1704.7</ele>
        <time>2015-06-30T09:55:31Z</time>
      </trkpt>
      <trkpt lat="44.62541" lon="5.78354">
        <ele>1707.3</ele>
        <time>2015-06-30T09:55:36Z</time>
      </trkpt>
      <trkpt lat="44.62544" lon="5.78354">
        <ele>1705.9</ele>
        <time>2015-06-30T09:55:41Z</time>
      </trkpt>
      <trkpt lat="44.62544" lon="5.7836">
        <ele>1706.4</ele>
        <time>2015-06-30T09:55:46Z</time>
      </trkpt>
      <trkpt lat="44.62545" lon="5.7836">
        <ele>1701</ele>
        <time>2015-06-30T09:55:51Z</time>
      </trkpt>
      <trkpt lat="44.62545" lon="5.78356">
        <ele>1696.7</ele>
        <time>2015-06-30T09:55:56Z</time>
      </trkpt>
      <trkpt lat="44.62544" lon="5.78354">
        <ele>1696.8</ele>
        <time>2015-06-30T09:56:01Z</time>
      </trkpt>
      <trkpt lat="44.62544" lon="5.78353">
        <ele>1697.5</ele>
        <time>2015-06-30T09:56:06Z</time>
      </trkpt>
      <trkpt lat="44.62544" lon="5.78356">
        <ele>1698.6</ele>
        <time>2015-06-30T09:56:11Z</time>
      </trkpt>
      <trkpt lat="44.62545" lon="5.7836">
        <ele>1701</ele>
        <time>2015-06-30T09:56:16Z</time>
      </trkpt>
      <trkpt lat="44.62545" lon="5.78361">
        <ele>1703.5</ele>
        <time>2015-06-30T09:56:21Z</time>
      </trkpt>
      <trkpt lat="44.62545" lon="5.78361">
        <ele>1705.2</ele>
        <time>2015-06-30T09:56:26Z</time>
      </trkpt>
      <trkpt lat="44.62545" lon="5.78361">
        <ele>1706.3</ele>
        <time>2015-06-30T09:56:31Z</time>
      </trkpt>
      <trkpt lat="44.62544" lon="5.78357">
        <ele>1704.1</ele>
        <time>2015-06-30T09:56:36Z</time>
      </trkpt>
      <trkpt lat="44.62545" lon="5.78355">
        <ele>1702.8</ele>
        <time>2015-06-30T09:56:41Z</time>
      </trkpt>
      <trkpt lat="44.62545" lon="5.78355">
        <ele>1701.5</ele>
        <time>2015-06-30T09:56:46Z</time>
      </trkpt>
      <trkpt lat="44.62546" lon="5.78358">
        <ele>1700.2</ele>
        <time>2015-06-30T09:56:51Z</time>
      </trkpt>
      <trkpt lat="44.62548" lon="5.78361">
        <ele>1697.3</ele>
        <time>2015-06-30T09:56:56Z</time>
      </trkpt>
      <trkpt lat="44.62549" lon="5.78361">
        <ele>1699.8</ele>
        <time>2015-06-30T09:57:01Z</time>
      </trkpt>
      <trkpt lat="44.62548" lon="5.78362">
        <ele>1695.8</ele>
        <time>2015-06-30T09:57:06Z</time>
      </trkpt>
      <trkpt lat="44.62548" lon="5.78364">
        <ele>1692.4</ele>
        <time>2015-06-30T09:57:11Z</time>
      </trkpt>
      <trkpt lat="44.62549" lon="5.78366">
        <ele>1689.5</ele>
        <time>2015-06-30T09:57:16Z</time>
      </trkpt>
      <trkpt lat="44.6255" lon="5.78368">
        <ele>1688.7</ele>
        <time>2015-06-30T09:57:21Z</time>
      </trkpt>
      <trkpt lat="44.62549" lon="5.78366">
        <ele>1690.6</ele>
        <time>2015-06-30T09:57:26Z</time>
      </trkpt>
      <trkpt lat="44.62548" lon="5.78367">
        <ele>1693.4</ele>
        <time>2015-06-30T09:57:31Z</time>
      </trkpt>
      <trkpt lat="44.62548" lon="5.78366">
        <ele>1693.3</ele>
        <time>2015-06-30T09:57:36Z</time>
      </trkpt>
      <trkpt lat="44.62547" lon="5.78363">
        <ele>1695.7</ele>
        <time>2015-06-30T09:57:41Z</time>
      </trkpt>
      <trkpt lat="44.62546" lon="5.78363">
        <ele>1696.6</ele>
        <time>2015-06-30T09:57:46Z</time>
      </trkpt>
      <trkpt lat="44.62546" lon="5.78363">
        <ele>1697.1</ele>
        <time>2015-06-30T09:57:51Z</time>
      </trkpt>
      <trkpt lat="44.62545" lon="5.78362">
        <ele>1696.4</ele>
        <time>2015-06-30T09:57:56Z</time>
      </trkpt>
      <trkpt lat="44.62544" lon="5.78358">
        <ele>1694.3</ele>
        <time>2015-06-30T09:58:01Z</time>
      </trkpt>
      <trkpt lat="44.62543" lon="5.78356">
        <ele>1695.9</ele>
        <time>2015-06-30T09:58:06Z</time>
      </trkpt>
      <trkpt lat="44.62543" lon="5.78356">
        <ele>1696.5</ele>
        <time>2015-06-30T09:58:11Z</time>
      </trkpt>
      <trkpt lat="44.62541" lon="5.78355">
        <ele>1699.6</ele>
        <time>2015-06-30T09:58:16Z</time>
      </trkpt>
      <trkpt lat="44.62542" lon="5.78357">
        <ele>1702.5</ele>
        <time>2015-06-30T09:58:21Z</time>
      </trkpt>
      <trkpt lat="44.62542" lon="5.78356">
        <ele>1701.8</ele>
        <time>2015-06-30T09:58:26Z</time>
      </trkpt>
      <trkpt lat="44.62542" lon="5.78356">
        <ele>1700.2</ele>
        <time>2015-06-30T09:58:31Z</time>
      </trkpt>
      <trkpt lat="44.62547" lon="5.78359">
        <ele>1699.9</ele>
        <time>2015-06-30T09:58:36Z</time>
      </trkpt>
      <trkpt lat="44.62548" lon="5.78364">
        <ele>1701.4</ele>
        <time>2015-06-30T09:58:41Z</time>
      </trkpt>
      <trkpt lat="44.62546" lon="5.78366">
        <ele>1701.8</ele>
        <time>2015-06-30T09:58:46Z</time>
      </trkpt>
      <trkpt lat="44.62545" lon="5.78366">
        <ele>1703.6</ele>
        <time>2015-06-30T09:58:51Z</time>
      </trkpt>
      <trkpt lat="44.62547" lon="5.78367">
        <ele>1701.9</ele>
        <time>2015-06-30T09:58:56Z</time>
      </trkpt>
      <trkpt lat="44.62546" lon="5.78368">
        <ele>1704.2</ele>
        <time>2015-06-30T09:59:01Z</time>
      </trkpt>
      <trkpt lat="44.62547" lon="5.78367">
        <ele>1702.5</ele>
        <time>2015-06-30T09:59:06Z</time>
      </trkpt>
      <trkpt lat="44.62548" lon="5.78363">
        <ele>1695.7</ele>
        <time>2015-06-30T09:59:11Z</time>
      </trkpt>
      <trkpt lat="44.62547" lon="5.7836">
        <ele>1695.4</ele>
        <time>2015-06-30T09:59:16Z</time>
      </trkpt>
      <trkpt lat="44.62548" lon="5.78358">
        <ele>1696.6</ele>
        <time>2015-06-30T09:59:21Z</time>
      </trkpt>
      <trkpt lat="44.62549" lon="5.78359">
        <ele>1697.9</ele>
        <time>2015-06-30T09:59:26Z</time>
      </trkpt>
      <trkpt lat="44.62548" lon="5.78356">
        <ele>1697.8</ele>
        <time>2015-06-30T09:59:31Z</time>
      </trkpt>
      <trkpt lat="44.62548" lon="5.78356">
        <ele>1696.8</ele>
        <time>2015-06-30T09:59:36Z</time>
      </trkpt>
      <trkpt lat="44.62549" lon="5.78356">
        <ele>1697.6</ele>
        <time>2015-06-30T09:59:41Z</time>
      </trkpt>
      <trkpt lat="44.62548" lon="5.78355">
        <ele>1698.8</ele>
        <time>2015-06-30T09:59:46Z</time>
      </trkpt>
      <trkpt lat="44.62548" lon="5.78354">
        <ele>1697.3</ele>
        <time>2015-06-30T09:59:51Z</time>
      </trkpt>
      <trkpt lat="44.62549" lon="5.78354">
        <ele>1696.2</ele>
        <time>2015-06-30T09:59:56Z</time>
      </trkpt>
      <trkpt lat="44.6255" lon="5.78355">
        <ele>1694.7</ele>
        <time>2015-06-30T10:00:01Z</time>
      </trkpt>
      <trkpt lat="44.62549" lon="5.78356">
        <ele>1696.7</ele>
        <time>2015-06-30T10:00:06Z</time>
      </trkpt>
      <trkpt lat="44.62548" lon="5.78357">
        <ele>1697.6</ele>
        <time>2015-06-30T10:00:11Z</time>
      </trkpt>
      <trkpt lat="44.62549" lon="5.78358">
        <ele>1696.2</ele>
        <time>2015-06-30T10:00:16Z</time>
      </trkpt>
      <trkpt lat="44.62549" lon="5.78358">
        <ele>1698.2</ele>
        <time>2015-06-30T10:00:21Z</time>
      </trkpt>
      <trkpt lat="44.6255" lon="5.78359">
        <ele>1698.1</ele>
        <time>2015-06-30T10:00:26Z</time>
      </trkpt>
      <trkpt lat="44.62551" lon="5.7836">
        <ele>1700.4</ele>
        <time>2015-06-30T10:00:31Z</time>
      </trkpt>
      <trkpt lat="44.62551" lon="5.78361">
        <ele>1700.7</ele>
        <time>2015-06-30T10:00:36Z</time>
      </trkpt>
      <trkpt lat="44.62551" lon="5.7836">
        <ele>1698.7</ele>
        <time>2015-06-30T10:00:41Z</time>
      </trkpt>
      <trkpt lat="44.6255" lon="5.7836">
        <ele>1698.7</ele>
        <time>2015-06-30T10:00:46Z</time>
      </trkpt>
      <trkpt lat="44.6255" lon="5.78359">
        <ele>1703.1</ele>
        <time>2015-06-30T10:00:51Z</time>
      </trkpt>
      <trkpt lat="44.6255" lon="5.7836">
        <ele>1701.4</ele>
        <time>2015-06-30T10:00:56Z</time>
      </trkpt>
      <trkpt lat="44.62551" lon="5.7836">
        <ele>1698.9</ele>
        <time>2015-06-30T10:01:01Z</time>
      </trkpt>
      <trkpt lat="44.62551" lon="5.78361">
        <ele>1699.2</ele>
        <time>2015-06-30T10:01:06Z</time>
      </trkpt>
      <trkpt lat="44.62551" lon="5.78363">
        <ele>1700</ele>
        <time>2015-06-30T10:01:11Z</time>
      </trkpt>
      <trkpt lat="44.6255" lon="5.78362">
        <ele>1701</ele>
        <time>2015-06-30T10:01:16Z</time>
      </trkpt>
      <trkpt lat="44.62551" lon="5.78363">
        <ele>1701.5</ele>
        <time>2015-06-30T10:01:21Z</time>
      </trkpt>
      <trkpt lat="44.62551" lon="5.78364">
        <ele>1703.8</ele>
        <time>2015-06-30T10:01:26Z</time>
      </trkpt>
      <trkpt lat="44.62551" lon="5.78365">
        <ele>1703.9</ele>
        <time>2015-06-30T10:01:31Z</time>
      </trkpt>
      <trkpt lat="44.62553" lon="5.78364">
        <ele>1701.6</ele>
        <time>2015-06-30T10:01:36Z</time>
      </trkpt>
      <trkpt lat="44.62552" lon="5.78363">
        <ele>1702.1</ele>
        <time>2015-06-30T10:01:41Z</time>
      </trkpt>
      <trkpt lat="44.62551" lon="5.78364">
        <ele>1703.5</ele>
        <time>2015-06-30T10:01:48Z</time>
      </trkpt>
      <trkpt lat="44.62551" lon="5.78365">
        <ele>1705.2</ele>
        <time>2015-06-30T10:01:53Z</time>
      </trkpt>
      <trkpt lat="44.62552" lon="5.78365">
        <ele>1703.2</ele>
        <time>2015-06-30T10:01:58Z</time>
      </trkpt>
      <trkpt lat="44.6255" lon="5.78367">
        <ele>1706.9</ele>
        <time>2015-06-30T10:02:03Z</time>
      </trkpt>
      <trkpt lat="44.6255" lon="5.78365">
        <ele>1706.7</ele>
        <time>2015-06-30T10:02:08Z</time>
      </trkpt>
      <trkpt lat="44.62552" lon="5.78365">
        <ele>1707.5</ele>
        <time>2015-06-30T10:02:13Z</time>
      </trkpt>
      <trkpt lat="44.62551" lon="5.78364">
        <ele>1707.2</ele>
        <time>2015-06-30T10:02:18Z</time>
      </trkpt>
      <trkpt lat="44.6255" lon="5.78362">
        <ele>1705.7</ele>
        <time>2015-06-30T10:02:23Z</time>
      </trkpt>
      <trkpt lat="44.62551" lon="5.78362">
        <ele>1703.8</ele>
        <time>2015-06-30T10:02:28Z</time>
      </trkpt>
      <trkpt lat="44.62553" lon="5.78363">
        <ele>1703.3</ele>
        <time>2015-06-30T10:02:33Z</time>
      </trkpt>
      <trkpt lat="44.62551" lon="5.78362">
        <ele>1707.9</ele>
        <time>2015-06-30T10:02:38Z</time>
      </trkpt>
      <trkpt lat="44.62551" lon="5.78362">
        <ele>1707.1</ele>
        <time>2015-06-30T10:02:43Z</time>
      </trkpt>
      <trkpt lat="44.62549" lon="5.7836">
        <ele>1706.5</ele>
        <time>2015-06-30T10:02:48Z</time>
      </trkpt>
      <trkpt lat="44.6255" lon="5.78363">
        <ele>1708.1</ele>
        <time>2015-06-30T10:02:53Z</time>
      </trkpt>
      <trkpt lat="44.62549" lon="5.78363">
        <ele>1711.8</ele>
        <time>2015-06-30T10:02:58Z</time>
      </trkpt>
      <trkpt lat="44.62548" lon="5.78361">
        <ele>1712.9</ele>
        <time>2015-06-30T10:03:03Z</time>
      </trkpt>
      <trkpt lat="44.62548" lon="5.78363">
        <ele>1711.2</ele>
        <time>2015-06-30T10:03:08Z</time>
      </trkpt>
      <trkpt lat="44.6255" lon="5.78363">
        <ele>1709.6</ele>
        <time>2015-06-30T10:03:13Z</time>
      </trkpt>
      <trkpt lat="44.62551" lon="5.78361">
        <ele>1706.8</ele>
        <time>2015-06-30T10:03:18Z</time>
      </trkpt>
      <trkpt lat="44.62552" lon="5.78362">
        <ele>1705.9</ele>
        <time>2015-06-30T10:03:23Z</time>
      </trkpt>
      <trkpt lat="44.6255" lon="5.78361">
        <ele>1705.5</ele>
        <time>2015-06-30T10:03:28Z</time>
      </trkpt>
      <trkpt lat="44.62549" lon="5.78359">
        <ele>1704.1</ele>
        <time>2015-06-30T10:03:33Z</time>
      </trkpt>
      <trkpt lat="44.62545" lon="5.78358">
        <ele>1708.4</ele>
        <time>2015-06-30T10:03:38Z</time>
      </trkpt>
      <trkpt lat="44.62545" lon="5.78358">
        <ele>1705.9</ele>
        <time>2015-06-30T10:03:43Z</time>
      </trkpt>
      <trkpt lat="44.62545" lon="5.78356">
        <ele>1705.1</ele>
        <time>2015-06-30T10:03:48Z</time>
      </trkpt>
      <trkpt lat="44.62545" lon="5.78357">
        <ele>1704.8</ele>
        <time>2015-06-30T10:03:53Z</time>
      </trkpt>
      <trkpt lat="44.62545" lon="5.78356">
        <ele>1702.6</ele>
        <time>2015-06-30T10:03:58Z</time>
      </trkpt>
      <trkpt lat="44.62545" lon="5.78358">
        <ele>1703.1</ele>
        <time>2015-06-30T10:04:03Z</time>
      </trkpt>
      <trkpt lat="44.62545" lon="5.78359">
        <ele>1704.7</ele>
        <time>2015-06-30T10:04:08Z</time>
      </trkpt>
      <trkpt lat="44.62545" lon="5.78356">
        <ele>1701.7</ele>
        <time>2015-06-30T10:04:13Z</time>
      </trkpt>
      <trkpt lat="44.62545" lon="5.78353">
        <ele>1700.8</ele>
        <time>2015-06-30T10:04:18Z</time>
      </trkpt>
      <trkpt lat="44.62544" lon="5.78354">
        <ele>1703.4</ele>
        <time>2015-06-30T10:04:23Z</time>
      </trkpt>
      <trkpt lat="44.62544" lon="5.78352">
        <ele>1704.4</ele>
        <time>2015-06-30T10:04:28Z</time>
      </trkpt>
      <trkpt lat="44.62545" lon="5.78353">
        <ele>1703.3</ele>
        <time>2015-06-30T10:04:33Z</time>
      </trkpt>
      <trkpt lat="44.62546" lon="5.78352">
        <ele>1700.3</ele>
        <time>2015-06-30T10:04:38Z</time>
      </trkpt>
      <trkpt lat="44.62546" lon="5.78352">
        <ele>1698</ele>
        <time>2015-06-30T10:04:43Z</time>
      </trkpt>
      <trkpt lat="44.62547" lon="5.78352">
        <ele>1693.8</ele>
        <time>2015-06-30T10:04:48Z</time>
      </trkpt>
      <trkpt lat="44.62548" lon="5.78351">
        <ele>1690.4</ele>
        <time>2015-06-30T10:04:53Z</time>
      </trkpt>
      <trkpt lat="44.62548" lon="5.7835">
        <ele>1689.1</ele>
        <time>2015-06-30T10:04:58Z</time>
      </trkpt>
      <trkpt lat="44.62547" lon="5.78348">
        <ele>1691.5</ele>
        <time>2015-06-30T10:05:03Z</time>
      </trkpt>
      <trkpt lat="44.62547" lon="5.78346">
        <ele>1693.2</ele>
        <time>2015-06-30T10:05:08Z</time>
      </trkpt>
      <trkpt lat="44.62547" lon="5.7835">
        <ele>1692.9</ele>
        <time>2015-06-30T10:05:13Z</time>
      </trkpt>
      <trkpt lat="44.62546" lon="5.7835">
        <ele>1696.2</ele>
        <time>2015-06-30T10:05:18Z</time>
      </trkpt>
      <trkpt lat="44.62546" lon="5.7835">
        <ele>1696.7</ele>
        <time>2015-06-30T10:05:23Z</time>
      </trkpt>
      <trkpt lat="44.62547" lon="5.7835">
        <ele>1696.4</ele>
        <time>2015-06-30T10:05:28Z</time>
      </trkpt>
      <trkpt lat="44.62544" lon="5.78349">
        <ele>1696.5</ele>
        <time>2015-06-30T10:05:33Z</time>
      </trkpt>
      <trkpt lat="44.62542" lon="5.78351">
        <ele>1696.7</ele>
        <time>2015-06-30T10:05:38Z</time>
      </trkpt>
      <trkpt lat="44.62541" lon="5.78354">
        <ele>1699.8</ele>
        <time>2015-06-30T10:05:43Z</time>
      </trkpt>
      <trkpt lat="44.62545" lon="5.78358">
        <ele>1700.6</ele>
        <time>2015-06-30T10:05:48Z</time>
      </trkpt>
      <trkpt lat="44.62546" lon="5.78359">
        <ele>1700.6</ele>
        <time>2015-06-30T10:05:53Z</time>
      </trkpt>
      <trkpt lat="44.62548" lon="5.78358">
        <ele>1698.9</ele>
        <time>2015-06-30T10:05:59Z</time>
      </trkpt>
      <trkpt lat="44.6255" lon="5.78364">
        <ele>1697.4</ele>
        <time>2015-06-30T10:06:04Z</time>
      </trkpt>
      <trkpt lat="44.62549" lon="5.78369">
        <ele>1698.6</ele>
        <time>2015-06-30T10:06:09Z</time>
      </trkpt>
      <trkpt lat="44.62547" lon="5.78372">
        <ele>1702.1</ele>
        <time>2015-06-30T10:06:14Z</time>
      </trkpt>
      <trkpt lat="44.6255" lon="5.78376">
        <ele>1700.6</ele>
        <time>2015-06-30T10:06:19Z</time>
      </trkpt>
      <trkpt lat="44.62551" lon="5.78375">
        <ele>1700.1</ele>
        <time>2015-06-30T10:06:24Z</time>
      </trkpt>
      <trkpt lat="44.62551" lon="5.78376">
        <ele>1699.5</ele>
        <time>2015-06-30T10:06:29Z</time>
      </trkpt>
      <trkpt lat="44.62555" lon="5.78378">
        <ele>1694.1</ele>
        <time>2015-06-30T10:06:34Z</time>
      </trkpt>
      <trkpt lat="44.62555" lon="5.78374">
        <ele>1692.8</ele>
        <time>2015-06-30T10:06:41Z</time>
      </trkpt>
      <trkpt lat="44.62555" lon="5.78377">
        <ele>1698</ele>
        <time>2015-06-30T10:06:46Z</time>
      </trkpt>
      <trkpt lat="44.62555" lon="5.78373">
        <ele>1701</ele>
        <time>2015-06-30T10:06:51Z</time>
      </trkpt>
      <trkpt lat="44.62556" lon="5.78377">
        <ele>1699.6</ele>
        <time>2015-06-30T10:06:58Z</time>
      </trkpt>
      <trkpt lat="44.62553" lon="5.78378">
        <ele>1702</ele>
        <time>2015-06-30T10:07:03Z</time>
      </trkpt>
      <trkpt lat="44.6255" lon="5.78381">
        <ele>1706.2</ele>
        <time>2015-06-30T10:07:08Z</time>
      </trkpt>
      <trkpt lat="44.62551" lon="5.78382">
        <ele>1707</ele>
        <time>2015-06-30T10:07:13Z</time>
      </trkpt>
      <trkpt lat="44.6255" lon="5.78383">
        <ele>1708.5</ele>
        <time>2015-06-30T10:07:18Z</time>
      </trkpt>
      <trkpt lat="44.62551" lon="5.78384">
        <ele>1706.9</ele>
        <time>2015-06-30T10:07:23Z</time>
      </trkpt>
      <trkpt lat="44.6255" lon="5.78385">
        <ele>1706.9</ele>
        <time>2015-06-30T10:07:28Z</time>
      </trkpt>
      <trkpt lat="44.62549" lon="5.78385">
        <ele>1708.6</ele>
        <time>2015-06-30T10:07:33Z</time>
      </trkpt>
      <trkpt lat="44.62552" lon="5.78385">
        <ele>1703.3</ele>
        <time>2015-06-30T10:07:38Z</time>
      </trkpt>
      <trkpt lat="44.62554" lon="5.78387">
        <ele>1699.9</ele>
        <time>2015-06-30T10:07:43Z</time>
      </trkpt>
      <trkpt lat="44.62555" lon="5.78387">
        <ele>1696.8</ele>
        <time>2015-06-30T10:07:48Z</time>
      </trkpt>
      <trkpt lat="44.62555" lon="5.78383">
        <ele>1694</ele>
        <time>2015-06-30T10:07:53Z</time>
      </trkpt>
      <trkpt lat="44.62554" lon="5.78383">
        <ele>1694.1</ele>
        <time>2015-06-30T10:07:58Z</time>
      </trkpt>
      <trkpt lat="44.62555" lon="5.7838">
        <ele>1692</ele>
        <time>2015-06-30T10:08:03Z</time>
      </trkpt>
      <trkpt lat="44.62554" lon="5.78376">
        <ele>1687.6</ele>
        <time>2015-06-30T10:08:08Z</time>
      </trkpt>
      <trkpt lat="44.62552" lon="5.78374">
        <ele>1690.3</ele>
        <time>2015-06-30T10:08:15Z</time>
      </trkpt>
      <trkpt lat="44.62554" lon="5.78373">
        <ele>1692.2</ele>
        <time>2015-06-30T10:08:20Z</time>
      </trkpt>
      <trkpt lat="44.62553" lon="5.78372">
        <ele>1701.5</ele>
        <time>2015-06-30T10:08:25Z</time>
      </trkpt>
      <trkpt lat="44.62551" lon="5.78373">
        <ele>1706.1</ele>
        <time>2015-06-30T10:08:30Z</time>
      </trkpt>
      <trkpt lat="44.62548" lon="5.78378">
        <ele>1707.4</ele>
        <time>2015-06-30T10:08:35Z</time>
      </trkpt>
      <trkpt lat="44.6255" lon="5.78372">
        <ele>1708.2</ele>
        <time>2015-06-30T10:08:40Z</time>
      </trkpt>
      <trkpt lat="44.62551" lon="5.78371">
        <ele>1704</ele>
        <time>2015-06-30T10:08:45Z</time>
      </trkpt>
      <trkpt lat="44.62548" lon="5.78374">
        <ele>1705.6</ele>
        <time>2015-06-30T10:08:50Z</time>
      </trkpt>
      <trkpt lat="44.62546" lon="5.78373">
        <ele>1704</ele>
        <time>2015-06-30T10:08:55Z</time>
      </trkpt>
      <trkpt lat="44.62545" lon="5.78371">
        <ele>1704.7</ele>
        <time>2015-06-30T10:09:00Z</time>
      </trkpt>
      <trkpt lat="44.62545" lon="5.78372">
        <ele>1703.3</ele>
        <time>2015-06-30T10:09:05Z</time>
      </trkpt>
      <trkpt lat="44.62544" lon="5.78373">
        <ele>1707</ele>
        <time>2015-06-30T10:09:10Z</time>
      </trkpt>
      <trkpt lat="44.62544" lon="5.78373">
        <ele>1706.9</ele>
        <time>2015-06-30T10:09:15Z</time>
      </trkpt>
      <trkpt lat="44.62546" lon="5.78372">
        <ele>1704.4</ele>
        <time>2015-06-30T10:09:20Z</time>
      </trkpt>
      <trkpt lat="44.62548" lon="5.7837">
        <ele>1703.2</ele>
        <time>2015-06-30T10:09:25Z</time>
      </trkpt>
      <trkpt lat="44.62549" lon="5.7837">
        <ele>1701.8</ele>
        <time>2015-06-30T10:09:30Z</time>
      </trkpt>
      <trkpt lat="44.62549" lon="5.78369">
        <ele>1701.3</ele>
        <time>2015-06-30T10:09:35Z</time>
      </trkpt>
      <trkpt lat="44.6255" lon="5.78369">
        <ele>1699.9</ele>
        <time>2015-06-30T10:09:40Z</time>
      </trkpt>
      <trkpt lat="44.62553" lon="5.78376">
        <ele>1698.8</ele>
        <time>2015-06-30T10:09:45Z</time>
      </trkpt>
      <trkpt lat="44.62554" lon="5.78378">
        <ele>1700.9</ele>
        <time>2015-06-30T10:09:50Z</time>
      </trkpt>
      <trkpt lat="44.62553" lon="5.78377">
        <ele>1702.9</ele>
        <time>2015-06-30T10:09:55Z</time>
      </trkpt>
      <trkpt lat="44.62552" lon="5.78377">
        <ele>1701.7</ele>
        <time>2015-06-30T10:10:00Z</time>
      </trkpt>
      <trkpt lat="44.62551" lon="5.78374">
        <ele>1697.5</ele>
        <time>2015-06-30T10:10:05Z</time>
      </trkpt>
      <trkpt lat="44.62549" lon="5.78368">
        <ele>1696.1</ele>
        <time>2015-06-30T10:10:10Z</time>
      </trkpt>
      <trkpt lat="44.62551" lon="5.78367">
        <ele>1692.1</ele>
        <time>2015-06-30T10:10:15Z</time>
      </trkpt>
      <trkpt lat="44.62551" lon="5.78366">
        <ele>1690.3</ele>
        <time>2015-06-30T10:10:20Z</time>
      </trkpt>
      <trkpt lat="44.62549" lon="5.78367">
        <ele>1695.2</ele>
        <time>2015-06-30T10:10:25Z</time>
      </trkpt>
      <trkpt lat="44.62548" lon="5.78364">
        <ele>1697.6</ele>
        <time>2015-06-30T10:10:30Z</time>
      </trkpt>
      <trkpt lat="44.62546" lon="5.7836">
        <ele>1701.6</ele>
        <time>2015-06-30T10:10:35Z</time>
      </trkpt>
      <trkpt lat="44.62545" lon="5.78356">
        <ele>1701.6</ele>
        <time>2015-06-30T10:10:40Z</time>
      </trkpt>
      <trkpt lat="44.62544" lon="5.78354">
        <ele>1700.2</ele>
        <time>2015-06-30T10:10:45Z</time>
      </trkpt>
      <trkpt lat="44.62544" lon="5.78354">
        <ele>1698.7</ele>
        <time>2015-06-30T10:10:50Z</time>
      </trkpt>
      <trkpt lat="44.62545" lon="5.78352">
        <ele>1695.8</ele>
        <time>2015-06-30T10:10:55Z</time>
      </trkpt>
      <trkpt lat="44.62545" lon="5.78352">
        <ele>1695.6</ele>
        <time>2015-06-30T10:11:00Z</time>
      </trkpt>
      <trkpt lat="44.62544" lon="5.78353">
        <ele>1697.6</ele>
        <time>2015-06-30T10:11:05Z</time>
      </trkpt>
      <trkpt lat="44.62544" lon="5.78354">
        <ele>1698.6</ele>
        <time>2015-06-30T10:11:10Z</time>
      </trkpt>
      <trkpt lat="44.62544" lon="5.78356">
        <ele>1699.5</ele>
        <time>2015-06-30T10:11:15Z</time>
      </trkpt>
      <trkpt lat="44.62544" lon="5.78356">
        <ele>1702.5</ele>
        <time>2015-06-30T10:11:20Z</time>
      </trkpt>
      <trkpt lat="44.62545" lon="5.78354">
        <ele>1701.7</ele>
        <time>2015-06-30T10:11:25Z</time>
      </trkpt>
      <trkpt lat="44.62545" lon="5.78352">
        <ele>1699.2</ele>
        <time>2015-06-30T10:11:30Z</time>
      </trkpt>
      <trkpt lat="44.62545" lon="5.78352">
        <ele>1698.2</ele>
        <time>2015-06-30T10:11:35Z</time>
      </trkpt>
      <trkpt lat="44.62546" lon="5.78355">
        <ele>1704.1</ele>
        <time>2015-06-30T10:11:40Z</time>
      </trkpt>
      <trkpt lat="44.62547" lon="5.78356">
        <ele>1708.5</ele>
        <time>2015-06-30T10:11:45Z</time>
      </trkpt>
      <trkpt lat="44.62546" lon="5.78356">
        <ele>1706.1</ele>
        <time>2015-06-30T10:11:50Z</time>
      </trkpt>
      <trkpt lat="44.62547" lon="5.78357">
        <ele>1704.3</ele>
        <time>2015-06-30T10:11:55Z</time>
      </trkpt>
      <trkpt lat="44.62548" lon="5.78358">
        <ele>1701.4</ele>
        <time>2015-06-30T10:12:00Z</time>
      </trkpt>
      <trkpt lat="44.62549" lon="5.78359">
        <ele>1697.8</ele>
        <time>2015-06-30T10:12:05Z</time>
      </trkpt>
      <trkpt lat="44.62552" lon="5.78363">
        <ele>1694.1</ele>
        <time>2015-06-30T10:12:10Z</time>
      </trkpt>
      <trkpt lat="44.62552" lon="5.78365">
        <ele>1694.8</ele>
        <time>2015-06-30T10:12:15Z</time>
      </trkpt>
      <trkpt lat="44.62552" lon="5.78367">
        <ele>1695.9</ele>
        <time>2015-06-30T10:12:20Z</time>
      </trkpt>
      <trkpt lat="44.62552" lon="5.78368">
        <ele>1697.9</ele>
        <time>2015-06-30T10:12:25Z</time>
      </trkpt>
      <trkpt lat="44.62552" lon="5.7837">
        <ele>1699.3</ele>
        <time>2015-06-30T10:12:30Z</time>
      </trkpt>
      <trkpt lat="44.62553" lon="5.78371">
        <ele>1699.2</ele>
        <time>2015-06-30T10:12:35Z</time>
      </trkpt>
      <trkpt lat="44.62553" lon="5.78371">
        <ele>1698.1</ele>
        <time>2015-06-30T10:12:40Z</time>
      </trkpt>
      <trkpt lat="44.62553" lon="5.78371">
        <ele>1696.5</ele>
        <time>2015-06-30T10:12:45Z</time>
      </trkpt>
      <trkpt lat="44.62553" lon="5.78371">
        <ele>1695.3</ele>
        <time>2015-06-30T10:12:50Z</time>
      </trkpt>
      <trkpt lat="44.62554" lon="5.78371">
        <ele>1693.9</ele>
        <time>2015-06-30T10:12:55Z</time>
      </trkpt>
      <trkpt lat="44.62554" lon="5.78371">
        <ele>1692</ele>
        <time>2015-06-30T10:13:00Z</time>
      </trkpt>
      <trkpt lat="44.62555" lon="5.78371">
        <ele>1690.7</ele>
        <time>2015-06-30T10:13:05Z</time>
      </trkpt>
      <trkpt lat="44.62555" lon="5.7837">
        <ele>1690.5</ele>
        <time>2015-06-30T10:13:10Z</time>
      </trkpt>
      <trkpt lat="44.62555" lon="5.78371">
        <ele>1689.7</ele>
        <time>2015-06-30T10:13:15Z</time>
      </trkpt>
      <trkpt lat="44.62556" lon="5.78371">
        <ele>1689.8</ele>
        <time>2015-06-30T10:13:20Z</time>
      </trkpt>
      <trkpt lat="44.62556" lon="5.78372">
        <ele>1689.4</ele>
        <time>2015-06-30T10:13:25Z</time>
      </trkpt>
      <trkpt lat="44.62556" lon="5.78373">
        <ele>1691.5</ele>
        <time>2015-06-30T10:13:30Z</time>
      </trkpt>
      <trkpt lat="44.62556" lon="5.78375">
        <ele>1697.3</ele>
        <time>2015-06-30T10:13:35Z</time>
      </trkpt>
      <trkpt lat="44.62555" lon="5.78376">
        <ele>1701.1</ele>
        <time>2015-06-30T10:13:40Z</time>
      </trkpt>
      <trkpt lat="44.62555" lon="5.78376">
        <ele>1704</ele>
        <time>2015-06-30T10:13:45Z</time>
      </trkpt>
      <trkpt lat="44.62555" lon="5.78376">
        <ele>1705.8</ele>
        <time>2015-06-30T10:13:50Z</time>
      </trkpt>
      <trkpt lat="44.62555" lon="5.78376">
        <ele>1705.5</ele>
        <time>2015-06-30T10:13:55Z</time>
      </trkpt>
      <trkpt lat="44.62555" lon="5.78376">
        <ele>1705.6</ele>
        <time>2015-06-30T10:14:00Z</time>
      </trkpt>
      <trkpt lat="44.62557" lon="5.78379">
        <ele>1702.5</ele>
        <time>2015-06-30T10:14:05Z</time>
      </trkpt>
      <trkpt lat="44.62556" lon="5.78377">
        <ele>1699.2</ele>
        <time>2015-06-30T10:14:10Z</time>
      </trkpt>
      <trkpt lat="44.62558" lon="5.78379">
        <ele>1694</ele>
        <time>2015-06-30T10:14:15Z</time>
      </trkpt>
      <trkpt lat="44.6256" lon="5.7838">
        <ele>1693.3</ele>
        <time>2015-06-30T10:14:20Z</time>
      </trkpt>
      <trkpt lat="44.6256" lon="5.78374">
        <ele>1693.6</ele>
        <time>2015-06-30T10:14:25Z</time>
      </trkpt>
      <trkpt lat="44.62558" lon="5.78371">
        <ele>1694.4</ele>
        <time>2015-06-30T10:14:30Z</time>
      </trkpt>
      <trkpt lat="44.62557" lon="5.78368">
        <ele>1696.5</ele>
        <time>2015-06-30T10:14:35Z</time>
      </trkpt>
      <trkpt lat="44.62555" lon="5.78365">
        <ele>1698.4</ele>
        <time>2015-06-30T10:14:40Z</time>
      </trkpt>
      <trkpt lat="44.62553" lon="5.78363">
        <ele>1701.4</ele>
        <time>2015-06-30T10:14:45Z</time>
      </trkpt>
      <trkpt lat="44.62556" lon="5.78367">
        <ele>1703.4</ele>
        <time>2015-06-30T10:14:50Z</time>
      </trkpt>
      <trkpt lat="44.62557" lon="5.78369">
        <ele>1706.2</ele>
        <time>2015-06-30T10:14:55Z</time>
      </trkpt>
      <trkpt lat="44.62559" lon="5.78371">
        <ele>1707.4</ele>
        <time>2015-06-30T10:15:00Z</time>
      </trkpt>
      <trkpt lat="44.62558" lon="5.7837">
        <ele>1707.5</ele>
        <time>2015-06-30T10:15:05Z</time>
      </trkpt>
      <trkpt lat="44.62558" lon="5.7837">
        <ele>1703</ele>
        <time>2015-06-30T10:15:10Z</time>
      </trkpt>
      <trkpt lat="44.62557" lon="5.78369">
        <ele>1697.5</ele>
        <time>2015-06-30T10:15:15Z</time>
      </trkpt>
      <trkpt lat="44.62554" lon="5.78367">
        <ele>1696.8</ele>
        <time>2015-06-30T10:15:20Z</time>
      </trkpt>
      <trkpt lat="44.62552" lon="5.78368">
        <ele>1702.5</ele>
        <time>2015-06-30T10:15:25Z</time>
      </trkpt>
      <trkpt lat="44.62551" lon="5.78368">
        <ele>1698.4</ele>
        <time>2015-06-30T10:15:30Z</time>
      </trkpt>
      <trkpt lat="44.62551" lon="5.78365">
        <ele>1693.7</ele>
        <time>2015-06-30T10:15:35Z</time>
      </trkpt>
      <trkpt lat="44.62556" lon="5.78358">
        <ele>1685.5</ele>
        <time>2015-06-30T10:15:41Z</time>
      </trkpt>
      <trkpt lat="44.62559" lon="5.78351">
        <ele>1681</ele>
        <time>2015-06-30T10:15:46Z</time>
      </trkpt>
      <trkpt lat="44.62561" lon="5.78349">
        <ele>1679.4</ele>
        <time>2015-06-30T10:15:51Z</time>
      </trkpt>
      <trkpt lat="44.62563" lon="5.78349">
        <ele>1678.7</ele>
        <time>2015-06-30T10:15:56Z</time>
      </trkpt>
      <trkpt lat="44.62564" lon="5.7835">
        <ele>1679.1</ele>
        <time>2015-06-30T10:16:01Z</time>
      </trkpt>
      <trkpt lat="44.62564" lon="5.78352">
        <ele>1681.5</ele>
        <time>2015-06-30T10:16:06Z</time>
      </trkpt>
      <trkpt lat="44.62563" lon="5.78356">
        <ele>1689.5</ele>
        <time>2015-06-30T10:16:11Z</time>
      </trkpt>
      <trkpt lat="44.62564" lon="5.78359">
        <ele>1694.9</ele>
        <time>2015-06-30T10:16:16Z</time>
      </trkpt>
      <trkpt lat="44.62564" lon="5.78361">
        <ele>1702</ele>
        <time>2015-06-30T10:16:21Z</time>
      </trkpt>
      <trkpt lat="44.62562" lon="5.78359">
        <ele>1701.4</ele>
        <time>2015-06-30T10:16:26Z</time>
      </trkpt>
      <trkpt lat="44.62561" lon="5.78358">
        <ele>1699.7</ele>
        <time>2015-06-30T10:16:31Z</time>
      </trkpt>
      <trkpt lat="44.62559" lon="5.78359">
        <ele>1702</ele>
        <time>2015-06-30T10:16:36Z</time>
      </trkpt>
      <trkpt lat="44.62558" lon="5.78358">
        <ele>1702.4</ele>
        <time>2015-06-30T10:16:41Z</time>
      </trkpt>
      <trkpt lat="44.62556" lon="5.78357">
        <ele>1700.8</ele>
        <time>2015-06-30T10:16:46Z</time>
      </trkpt>
      <trkpt lat="44.62555" lon="5.78357">
        <ele>1699.3</ele>
        <time>2015-06-30T10:16:51Z</time>
      </trkpt>
      <trkpt lat="44.62553" lon="5.78355">
        <ele>1699</ele>
        <time>2015-06-30T10:16:56Z</time>
      </trkpt>
      <trkpt lat="44.62552" lon="5.78355">
        <ele>1698.5</ele>
        <time>2015-06-30T10:17:01Z</time>
      </trkpt>
      <trkpt lat="44.62552" lon="5.78355">
        <ele>1700.2</ele>
        <time>2015-06-30T10:17:06Z</time>
      </trkpt>
      <trkpt lat="44.62551" lon="5.78355">
        <ele>1703.3</ele>
        <time>2015-06-30T10:17:11Z</time>
      </trkpt>
      <trkpt lat="44.62553" lon="5.78355">
        <ele>1706</ele>
        <time>2015-06-30T10:17:16Z</time>
      </trkpt>
      <trkpt lat="44.62551" lon="5.78354">
        <ele>1707.9</ele>
        <time>2015-06-30T10:17:21Z</time>
      </trkpt>
      <trkpt lat="44.62551" lon="5.78357">
        <ele>1705.4</ele>
        <time>2015-06-30T10:17:26Z</time>
      </trkpt>
      <trkpt lat="44.62551" lon="5.78358">
        <ele>1705.2</ele>
        <time>2015-06-30T10:17:31Z</time>
      </trkpt>
      <trkpt lat="44.62552" lon="5.78359">
        <ele>1706.7</ele>
        <time>2015-06-30T10:17:36Z</time>
      </trkpt>
      <trkpt lat="44.6255" lon="5.78357">
        <ele>1710.7</ele>
        <time>2015-06-30T10:17:41Z</time>
      </trkpt>
      <trkpt lat="44.62549" lon="5.7836">
        <ele>1712</ele>
        <time>2015-06-30T10:17:46Z</time>
      </trkpt>
      <trkpt lat="44.6255" lon="5.78361">
        <ele>1714.3</ele>
        <time>2015-06-30T10:17:51Z</time>
      </trkpt>
      <trkpt lat="44.6255" lon="5.78361">
        <ele>1715.9</ele>
        <time>2015-06-30T10:17:56Z</time>
      </trkpt>
      <trkpt lat="44.62552" lon="5.78362">
        <ele>1716</ele>
        <time>2015-06-30T10:18:01Z</time>
      </trkpt>
      <trkpt lat="44.62551" lon="5.7836">
        <ele>1722.3</ele>
        <time>2015-06-30T10:18:06Z</time>
      </trkpt>
      <trkpt lat="44.62551" lon="5.7836">
        <ele>1721.1</ele>
        <time>2015-06-30T10:18:11Z</time>
      </trkpt>
      <trkpt lat="44.62553" lon="5.78359">
        <ele>1716.7</ele>
        <time>2015-06-30T10:18:16Z</time>
      </trkpt>
      <trkpt lat="44.62556" lon="5.78355">
        <ele>1709.6</ele>
        <time>2015-06-30T10:18:21Z</time>
      </trkpt>
      <trkpt lat="44.62558" lon="5.78358">
        <ele>1704.5</ele>
        <time>2015-06-30T10:18:26Z</time>
      </trkpt>
      <trkpt lat="44.62562" lon="5.78363">
        <ele>1698.5</ele>
        <time>2015-06-30T10:18:31Z</time>
      </trkpt>
      <trkpt lat="44.62565" lon="5.78364">
        <ele>1693.5</ele>
        <time>2015-06-30T10:18:36Z</time>
      </trkpt>
      <trkpt lat="44.62567" lon="5.78364">
        <ele>1696.6</ele>
        <time>2015-06-30T10:18:41Z</time>
      </trkpt>
      <trkpt lat="44.6257" lon="5.78366">
        <ele>1698.5</ele>
        <time>2015-06-30T10:18:46Z</time>
      </trkpt>
      <trkpt lat="44.62571" lon="5.78367">
        <ele>1693.4</ele>
        <time>2015-06-30T10:18:51Z</time>
      </trkpt>
      <trkpt lat="44.62573" lon="5.78369">
        <ele>1689.5</ele>
        <time>2015-06-30T10:18:58Z</time>
      </trkpt>
      <trkpt lat="44.62563" lon="5.78364">
        <ele>1688.7</ele>
        <time>2015-06-30T10:19:03Z</time>
      </trkpt>
      <trkpt lat="44.62558" lon="5.78365">
        <ele>1688.2</ele>
        <time>2015-06-30T10:19:08Z</time>
      </trkpt>
      <trkpt lat="44.62555" lon="5.78363">
        <ele>1685</ele>
        <time>2015-06-30T10:19:13Z</time>
      </trkpt>
      <trkpt lat="44.62555" lon="5.78361">
        <ele>1682.8</ele>
        <time>2015-06-30T10:19:18Z</time>
      </trkpt>
      <trkpt lat="44.62554" lon="5.78358">
        <ele>1684.6</ele>
        <time>2015-06-30T10:19:23Z</time>
      </trkpt>
      <trkpt lat="44.62551" lon="5.78357">
        <ele>1693.4</ele>
        <time>2015-06-30T10:19:28Z</time>
      </trkpt>
      <trkpt lat="44.62551" lon="5.78359">
        <ele>1694.5</ele>
        <time>2015-06-30T10:19:33Z</time>
      </trkpt>
      <trkpt lat="44.62552" lon="5.78359">
        <ele>1688.8</ele>
        <time>2015-06-30T10:19:38Z</time>
      </trkpt>
      <trkpt lat="44.62551" lon="5.7836">
        <ele>1691.7</ele>
        <time>2015-06-30T10:19:43Z</time>
      </trkpt>
      <trkpt lat="44.62552" lon="5.78359">
        <ele>1688.6</ele>
        <time>2015-06-30T10:19:48Z</time>
      </trkpt>
      <trkpt lat="44.62552" lon="5.78357">
        <ele>1685</ele>
        <time>2015-06-30T10:19:53Z</time>
      </trkpt>
      <trkpt lat="44.62552" lon="5.78358">
        <ele>1681.3</ele>
        <time>2015-06-30T10:19:58Z</time>
      </trkpt>
      <trkpt lat="44.62553" lon="5.78361">
        <ele>1684.9</ele>
        <time>2015-06-30T10:20:03Z</time>
      </trkpt>
      <trkpt lat="44.62553" lon="5.78358">
        <ele>1686.8</ele>
        <time>2015-06-30T10:20:08Z</time>
      </trkpt>
      <trkpt lat="44.62552" lon="5.78355">
        <ele>1686.4</ele>
        <time>2015-06-30T10:20:13Z</time>
      </trkpt>
      <trkpt lat="44.62551" lon="5.78354">
        <ele>1686.9</ele>
        <time>2015-06-30T10:20:18Z</time>
      </trkpt>
      <trkpt lat="44.62551" lon="5.78357">
        <ele>1689</ele>
        <time>2015-06-30T10:20:23Z</time>
      </trkpt>
      <trkpt lat="44.62552" lon="5.7836">
        <ele>1688.9</ele>
        <time>2015-06-30T10:20:28Z</time>
      </trkpt>
      <trkpt lat="44.62554" lon="5.78361">
        <ele>1686</ele>
        <time>2015-06-30T10:20:33Z</time>
      </trkpt>
      <trkpt lat="44.62555" lon="5.78362">
        <ele>1680.4</ele>
        <time>2015-06-30T10:20:38Z</time>
      </trkpt>
      <trkpt lat="44.6255" lon="5.78364">
        <ele>1685.1</ele>
        <time>2015-06-30T10:20:43Z</time>
      </trkpt>
      <trkpt lat="44.62543" lon="5.78369">
        <ele>1698.3</ele>
        <time>2015-06-30T10:20:48Z</time>
      </trkpt>
      <trkpt lat="44.62541" lon="5.78367">
        <ele>1703.6</ele>
        <time>2015-06-30T10:20:53Z</time>
      </trkpt>
      <trkpt lat="44.62541" lon="5.78366">
        <ele>1703.7</ele>
        <time>2015-06-30T10:20:58Z</time>
      </trkpt>
      <trkpt lat="44.62548" lon="5.78365">
        <ele>1693.7</ele>
        <time>2015-06-30T10:21:03Z</time>
      </trkpt>
      <trkpt lat="44.62546" lon="5.78363">
        <ele>1692.9</ele>
        <time>2015-06-30T10:21:08Z</time>
      </trkpt>
      <trkpt lat="44.62545" lon="5.78361">
        <ele>1694.2</ele>
        <time>2015-06-30T10:21:13Z</time>
      </trkpt>
      <trkpt lat="44.62543" lon="5.78361">
        <ele>1698.1</ele>
        <time>2015-06-30T10:21:18Z</time>
      </trkpt>
      <trkpt lat="44.62542" lon="5.78361">
        <ele>1702.4</ele>
        <time>2015-06-30T10:21:23Z</time>
      </trkpt>
      <trkpt lat="44.62541" lon="5.78361">
        <ele>1705.1</ele>
        <time>2015-06-30T10:21:28Z</time>
      </trkpt>
      <trkpt lat="44.62541" lon="5.78361">
        <ele>1706.6</ele>
        <time>2015-06-30T10:21:33Z</time>
      </trkpt>
      <trkpt lat="44.6254" lon="5.7836">
        <ele>1706.9</ele>
        <time>2015-06-30T10:21:38Z</time>
      </trkpt>
      <trkpt lat="44.6254" lon="5.78361">
        <ele>1704.7</ele>
        <time>2015-06-30T10:21:43Z</time>
      </trkpt>
      <trkpt lat="44.62541" lon="5.78363">
        <ele>1701.5</ele>
        <time>2015-06-30T10:21:48Z</time>
      </trkpt>
      <trkpt lat="44.6254" lon="5.78361">
        <ele>1701.5</ele>
        <time>2015-06-30T10:21:53Z</time>
      </trkpt>
      <trkpt lat="44.62541" lon="5.78361">
        <ele>1702.8</ele>
        <time>2015-06-30T10:21:58Z</time>
      </trkpt>
      <trkpt lat="44.62541" lon="5.78361">
        <ele>1706.3</ele>
        <time>2015-06-30T10:22:03Z</time>
      </trkpt>
      <trkpt lat="44.62541" lon="5.78361">
        <ele>1708.9</ele>
        <time>2015-06-30T10:22:08Z</time>
      </trkpt>
      <trkpt lat="44.62541" lon="5.78361">
        <ele>1710.7</ele>
        <time>2015-06-30T10:22:13Z</time>
      </trkpt>
      <trkpt lat="44.62541" lon="5.78361">
        <ele>1711.9</ele>
        <time>2015-06-30T10:22:18Z</time>
      </trkpt>
      <trkpt lat="44.62542" lon="5.78362">
        <ele>1712.1</ele>
        <time>2015-06-30T10:22:23Z</time>
      </trkpt>
      <trkpt lat="44.62542" lon="5.78362">
        <ele>1712.2</ele>
        <time>2015-06-30T10:22:28Z</time>
      </trkpt>
      <trkpt lat="44.62544" lon="5.78363">
        <ele>1712.1</ele>
        <time>2015-06-30T10:22:33Z</time>
      </trkpt>
      <trkpt lat="44.62544" lon="5.78363">
        <ele>1711.9</ele>
        <time>2015-06-30T10:22:38Z</time>
      </trkpt>
      <trkpt lat="44.62545" lon="5.78364">
        <ele>1711.8</ele>
        <time>2015-06-30T10:22:43Z</time>
      </trkpt>
      <trkpt lat="44.62545" lon="5.78364">
        <ele>1711.6</ele>
        <time>2015-06-30T10:22:48Z</time>
      </trkpt>
      <trkpt lat="44.62545" lon="5.78364">
        <ele>1711.5</ele>
        <time>2015-06-30T10:22:53Z</time>
      </trkpt>
      <trkpt lat="44.62545" lon="5.78364">
        <ele>1711.6</ele>
        <time>2015-06-30T10:22:58Z</time>
      </trkpt>
      <trkpt lat="44.62545" lon="5.78364">
        <ele>1710.4</ele>
        <time>2015-06-30T10:23:03Z</time>
      </trkpt>
      <trkpt lat="44.62544" lon="5.78364">
        <ele>1708.9</ele>
        <time>2015-06-30T10:23:08Z</time>
      </trkpt>
      <trkpt lat="44.62545" lon="5.78365">
        <ele>1709</ele>
        <time>2015-06-30T10:23:13Z</time>
      </trkpt>
      <trkpt lat="44.62545" lon="5.78365">
        <ele>1709.6</ele>
        <time>2015-06-30T10:23:18Z</time>
      </trkpt>
      <trkpt lat="44.62546" lon="5.78366">
        <ele>1710.2</ele>
        <time>2015-06-30T10:23:23Z</time>
      </trkpt>
      <trkpt lat="44.62546" lon="5.78366">
        <ele>1711.1</ele>
        <time>2015-06-30T10:23:28Z</time>
      </trkpt>
      <trkpt lat="44.62547" lon="5.78367">
        <ele>1711.1</ele>
        <time>2015-06-30T10:23:33Z</time>
      </trkpt>
      <trkpt lat="44.62548" lon="5.78367">
        <ele>1712</ele>
        <time>2015-06-30T10:23:38Z</time>
      </trkpt>
      <trkpt lat="44.62548" lon="5.78367">
        <ele>1712.2</ele>
        <time>2015-06-30T10:23:43Z</time>
      </trkpt>
      <trkpt lat="44.62547" lon="5.78367">
        <ele>1712.1</ele>
        <time>2015-06-30T10:23:48Z</time>
      </trkpt>
      <trkpt lat="44.62546" lon="5.78366">
        <ele>1712.3</ele>
        <time>2015-06-30T10:23:53Z</time>
      </trkpt>
      <trkpt lat="44.62543" lon="5.78365">
        <ele>1712.7</ele>
        <time>2015-06-30T10:23:58Z</time>
      </trkpt>
      <trkpt lat="44.62542" lon="5.78364">
        <ele>1713.1</ele>
        <time>2015-06-30T10:24:03Z</time>
      </trkpt>
      <trkpt lat="44.62542" lon="5.78366">
        <ele>1713.2</ele>
        <time>2015-06-30T10:24:08Z</time>
      </trkpt>
      <trkpt lat="44.62544" lon="5.78367">
        <ele>1712.9</ele>
        <time>2015-06-30T10:24:13Z</time>
      </trkpt>
      <trkpt lat="44.62545" lon="5.78368">
        <ele>1712.6</ele>
        <time>2015-06-30T10:24:18Z</time>
      </trkpt>
      <trkpt lat="44.62546" lon="5.78369">
        <ele>1712.4</ele>
        <time>2015-06-30T10:24:23Z</time>
      </trkpt>
      <trkpt lat="44.62546" lon="5.78369">
        <ele>1712</ele>
        <time>2015-06-30T10:24:28Z</time>
      </trkpt>
      <trkpt lat="44.62547" lon="5.7837">
        <ele>1711.5</ele>
        <time>2015-06-30T10:24:33Z</time>
      </trkpt>
      <trkpt lat="44.62546" lon="5.78368">
        <ele>1710</ele>
        <time>2015-06-30T10:24:38Z</time>
      </trkpt>
      <trkpt lat="44.62545" lon="5.78365">
        <ele>1705.7</ele>
        <time>2015-06-30T10:24:43Z</time>
      </trkpt>
      <trkpt lat="44.62545" lon="5.78361">
        <ele>1702</ele>
        <time>2015-06-30T10:24:48Z</time>
      </trkpt>
      <trkpt lat="44.62547" lon="5.7836">
        <ele>1699.8</ele>
        <time>2015-06-30T10:24:55Z</time>
      </trkpt>
      <trkpt lat="44.6255" lon="5.78357">
        <ele>1684.5</ele>
        <time>2015-06-30T10:25:00Z</time>
      </trkpt>
      <trkpt lat="44.62551" lon="5.78358">
        <ele>1683.1</ele>
        <time>2015-06-30T10:25:05Z</time>
      </trkpt>
      <trkpt lat="44.62553" lon="5.78359">
        <ele>1685.4</ele>
        <time>2015-06-30T10:25:10Z</time>
      </trkpt>
      <trkpt lat="44.62552" lon="5.78358">
        <ele>1686.2</ele>
        <time>2015-06-30T10:25:15Z</time>
      </trkpt>
      <trkpt lat="44.62552" lon="5.78356">
        <ele>1684.8</ele>
        <time>2015-06-30T10:25:20Z</time>
      </trkpt>
      <trkpt lat="44.62553" lon="5.78355">
        <ele>1686.5</ele>
        <time>2015-06-30T10:25:25Z</time>
      </trkpt>
      <trkpt lat="44.62552" lon="5.78349">
        <ele>1686</ele>
        <time>2015-06-30T10:25:30Z</time>
      </trkpt>
      <trkpt lat="44.62552" lon="5.78351">
        <ele>1687.2</ele>
        <time>2015-06-30T10:25:35Z</time>
      </trkpt>
      <trkpt lat="44.62552" lon="5.78356">
        <ele>1688.6</ele>
        <time>2015-06-30T10:25:40Z</time>
      </trkpt>
      <trkpt lat="44.6255" lon="5.78358">
        <ele>1689.3</ele>
        <time>2015-06-30T10:25:45Z</time>
      </trkpt>
      <trkpt lat="44.62549" lon="5.7836">
        <ele>1689.9</ele>
        <time>2015-06-30T10:25:50Z</time>
      </trkpt>
      <trkpt lat="44.62552" lon="5.78364">
        <ele>1687.2</ele>
        <time>2015-06-30T10:25:55Z</time>
      </trkpt>
      <trkpt lat="44.62554" lon="5.78365">
        <ele>1684.1</ele>
        <time>2015-06-30T10:26:00Z</time>
      </trkpt>
      <trkpt lat="44.62553" lon="5.78364">
        <ele>1683.9</ele>
        <time>2015-06-30T10:26:05Z</time>
      </trkpt>
      <trkpt lat="44.62549" lon="5.78365">
        <ele>1688.2</ele>
        <time>2015-06-30T10:26:10Z</time>
      </trkpt>
      <trkpt lat="44.62548" lon="5.78368">
        <ele>1693.5</ele>
        <time>2015-06-30T10:26:15Z</time>
      </trkpt>
      <trkpt lat="44.6254" lon="5.7837">
        <ele>1708.4</ele>
        <time>2015-06-30T10:26:20Z</time>
      </trkpt>
      <trkpt lat="44.62536" lon="5.7837">
        <ele>1716.7</ele>
        <time>2015-06-30T10:26:25Z</time>
      </trkpt>
      <trkpt lat="44.6254" lon="5.78366">
        <ele>1720.3</ele>
        <time>2015-06-30T10:26:32Z</time>
      </trkpt>
      <trkpt lat="44.62542" lon="5.78364">
        <ele>1715.6</ele>
        <time>2015-06-30T10:26:37Z</time>
      </trkpt>
      <trkpt lat="44.62547" lon="5.78366">
        <ele>1709.8</ele>
        <time>2015-06-30T10:26:42Z</time>
      </trkpt>
      <trkpt lat="44.62551" lon="5.78371">
        <ele>1714</ele>
        <time>2015-06-30T10:26:47Z</time>
      </trkpt>
      <trkpt lat="44.62553" lon="5.78369">
        <ele>1715.6</ele>
        <time>2015-06-30T10:26:52Z</time>
      </trkpt>
      <trkpt lat="44.62555" lon="5.78371">
        <ele>1718.5</ele>
        <time>2015-06-30T10:26:57Z</time>
      </trkpt>
      <trkpt lat="44.62555" lon="5.78368">
        <ele>1718.5</ele>
        <time>2015-06-30T10:27:02Z</time>
      </trkpt>
      <trkpt lat="44.62554" lon="5.78363">
        <ele>1714</ele>
        <time>2015-06-30T10:27:07Z</time>
      </trkpt>
      <trkpt lat="44.62547" lon="5.7836">
        <ele>1716.2</ele>
        <time>2015-06-30T10:27:14Z</time>
      </trkpt>
      <trkpt lat="44.62548" lon="5.78358">
        <ele>1711.2</ele>
        <time>2015-06-30T10:27:19Z</time>
      </trkpt>
      <trkpt lat="44.62549" lon="5.78354">
        <ele>1706.7</ele>
        <time>2015-06-30T10:27:24Z</time>
      </trkpt>
      <trkpt lat="44.62549" lon="5.78356">
        <ele>1701.4</ele>
        <time>2015-06-30T10:27:29Z</time>
      </trkpt>
      <trkpt lat="44.6255" lon="5.78361">
        <ele>1701.5</ele>
        <time>2015-06-30T10:27:34Z</time>
      </trkpt>
      <trkpt lat="44.62552" lon="5.78362">
        <ele>1699.6</ele>
        <time>2015-06-30T10:27:39Z</time>
      </trkpt>
      <trkpt lat="44.62549" lon="5.78362">
        <ele>1704</ele>
        <time>2015-06-30T10:27:44Z</time>
      </trkpt>
      <trkpt lat="44.62551" lon="5.7836">
        <ele>1703.2</ele>
        <time>2015-06-30T10:27:49Z</time>
      </trkpt>
      <trkpt lat="44.62549" lon="5.78357">
        <ele>1705.6</ele>
        <time>2015-06-30T10:27:54Z</time>
      </trkpt>
      <trkpt lat="44.62544" lon="5.78357">
        <ele>1707.4</ele>
        <time>2015-06-30T10:27:59Z</time>
      </trkpt>
      <trkpt lat="44.62546" lon="5.78357">
        <ele>1705.3</ele>
        <time>2015-06-30T10:28:04Z</time>
      </trkpt>
      <trkpt lat="44.62546" lon="5.7836">
        <ele>1701.9</ele>
        <time>2015-06-30T10:28:09Z</time>
      </trkpt>
      <trkpt lat="44.62548" lon="5.78359">
        <ele>1695.5</ele>
        <time>2015-06-30T10:28:14Z</time>
      </trkpt>
      <trkpt lat="44.62546" lon="5.78358">
        <ele>1700.6</ele>
        <time>2015-06-30T10:28:19Z</time>
      </trkpt>
      <trkpt lat="44.62548" lon="5.78356">
        <ele>1700.3</ele>
        <time>2015-06-30T10:28:24Z</time>
      </trkpt>
      <trkpt lat="44.62546" lon="5.78352">
        <ele>1695.4</ele>
        <time>2015-06-30T10:28:29Z</time>
      </trkpt>
      <trkpt lat="44.62543" lon="5.78355">
        <ele>1696.7</ele>
        <time>2015-06-30T10:28:34Z</time>
      </trkpt>
      <trkpt lat="44.62542" lon="5.78358">
        <ele>1700.5</ele>
        <time>2015-06-30T10:28:39Z</time>
      </trkpt>
      <trkpt lat="44.62541" lon="5.7836">
        <ele>1701.9</ele>
        <time>2015-06-30T10:28:44Z</time>
      </trkpt>
      <trkpt lat="44.62541" lon="5.78362">
        <ele>1704.2</ele>
        <time>2015-06-30T10:28:49Z</time>
      </trkpt>
      <trkpt lat="44.62544" lon="5.78364">
        <ele>1701.9</ele>
        <time>2015-06-30T10:28:54Z</time>
      </trkpt>
      <trkpt lat="44.62545" lon="5.78365">
        <ele>1700.5</ele>
        <time>2015-06-30T10:28:59Z</time>
      </trkpt>
      <trkpt lat="44.62547" lon="5.78366">
        <ele>1699.4</ele>
        <time>2015-06-30T10:29:04Z</time>
      </trkpt>
      <trkpt lat="44.62548" lon="5.78368">
        <ele>1696</ele>
        <time>2015-06-30T10:29:09Z</time>
      </trkpt>
      <trkpt lat="44.62549" lon="5.78369">
        <ele>1695.4</ele>
        <time>2015-06-30T10:29:14Z</time>
      </trkpt>
      <trkpt lat="44.6255" lon="5.78369">
        <ele>1691.7</ele>
        <time>2015-06-30T10:29:19Z</time>
      </trkpt>
      <trkpt lat="44.62551" lon="5.78369">
        <ele>1691.2</ele>
        <time>2015-06-30T10:29:24Z</time>
      </trkpt>
      <trkpt lat="44.6255" lon="5.78367">
        <ele>1692</ele>
        <time>2015-06-30T10:29:29Z</time>
      </trkpt>
      <trkpt lat="44.62547" lon="5.78363">
        <ele>1696.4</ele>
        <time>2015-06-30T10:29:34Z</time>
      </trkpt>
      <trkpt lat="44.62546" lon="5.78363">
        <ele>1696.4</ele>
        <time>2015-06-30T10:29:39Z</time>
      </trkpt>
      <trkpt lat="44.62546" lon="5.78366">
        <ele>1695.4</ele>
        <time>2015-06-30T10:29:44Z</time>
      </trkpt>
      <trkpt lat="44.62547" lon="5.78367">
        <ele>1697.2</ele>
        <time>2015-06-30T10:29:49Z</time>
      </trkpt>
      <trkpt lat="44.62548" lon="5.78368">
        <ele>1699.6</ele>
        <time>2015-06-30T10:29:54Z</time>
      </trkpt>
      <trkpt lat="44.62549" lon="5.78367">
        <ele>1700.5</ele>
        <time>2015-06-30T10:29:59Z</time>
      </trkpt>
      <trkpt lat="44.62549" lon="5.78363">
        <ele>1700.9</ele>
        <time>2015-06-30T10:30:04Z</time>
      </trkpt>
      <trkpt lat="44.62544" lon="5.78361">
        <ele>1705.9</ele>
        <time>2015-06-30T10:30:09Z</time>
      </trkpt>
      <trkpt lat="44.62541" lon="5.7836">
        <ele>1711.8</ele>
        <time>2015-06-30T10:30:14Z</time>
      </trkpt>
      <trkpt lat="44.62543" lon="5.78359">
        <ele>1710.9</ele>
        <time>2015-06-30T10:30:19Z</time>
      </trkpt>
      <trkpt lat="44.62544" lon="5.78356">
        <ele>1706.8</ele>
        <time>2015-06-30T10:30:24Z</time>
      </trkpt>
      <trkpt lat="44.62549" lon="5.78359">
        <ele>1701.4</ele>
        <time>2015-06-30T10:30:29Z</time>
      </trkpt>
      <trkpt lat="44.62553" lon="5.78358">
        <ele>1696.3</ele>
        <time>2015-06-30T10:30:34Z</time>
      </trkpt>
      <trkpt lat="44.62551" lon="5.78357">
        <ele>1698.9</ele>
        <time>2015-06-30T10:30:39Z</time>
      </trkpt>
      <trkpt lat="44.62551" lon="5.78353">
        <ele>1694.3</ele>
        <time>2015-06-30T10:30:44Z</time>
      </trkpt>
      <trkpt lat="44.62551" lon="5.78353">
        <ele>1691.6</ele>
        <time>2015-06-30T10:30:49Z</time>
      </trkpt>
      <trkpt lat="44.62553" lon="5.78351">
        <ele>1684.1</ele>
        <time>2015-06-30T10:30:54Z</time>
      </trkpt>
      <trkpt lat="44.62557" lon="5.78355">
        <ele>1684</ele>
        <time>2015-06-30T10:30:59Z</time>
      </trkpt>
      <trkpt lat="44.62554" lon="5.78356">
        <ele>1692.5</ele>
        <time>2015-06-30T10:31:04Z</time>
      </trkpt>
      <trkpt lat="44.62554" lon="5.78357">
        <ele>1698.9</ele>
        <time>2015-06-30T10:31:09Z</time>
      </trkpt>
      <trkpt lat="44.62552" lon="5.78362">
        <ele>1702.2</ele>
        <time>2015-06-30T10:31:14Z</time>
      </trkpt>
      <trkpt lat="44.62553" lon="5.78364">
        <ele>1706.1</ele>
        <time>2015-06-30T10:31:19Z</time>
      </trkpt>
      <trkpt lat="44.62551" lon="5.78365">
        <ele>1709.7</ele>
        <time>2015-06-30T10:31:24Z</time>
      </trkpt>
      <trkpt lat="44.62551" lon="5.78364">
        <ele>1714.9</ele>
        <time>2015-06-30T10:31:29Z</time>
      </trkpt>
      <trkpt lat="44.62549" lon="5.78365">
        <ele>1713.6</ele>
        <time>2015-06-30T10:31:34Z</time>
      </trkpt>
      <trkpt lat="44.62545" lon="5.78359">
        <ele>1709</ele>
        <time>2015-06-30T10:31:39Z</time>
      </trkpt>
      <trkpt lat="44.62548" lon="5.78356">
        <ele>1702.4</ele>
        <time>2015-06-30T10:31:46Z</time>
      </trkpt>
      <trkpt lat="44.62545" lon="5.78348">
        <ele>1695.7</ele>
        <time>2015-06-30T10:31:51Z</time>
      </trkpt>
      <trkpt lat="44.62545" lon="5.78345">
        <ele>1695.9</ele>
        <time>2015-06-30T10:31:56Z</time>
      </trkpt>
      <trkpt lat="44.62546" lon="5.78347">
        <ele>1696.7</ele>
        <time>2015-06-30T10:32:01Z</time>
      </trkpt>
      <trkpt lat="44.62545" lon="5.78347">
        <ele>1704</ele>
        <time>2015-06-30T10:32:06Z</time>
      </trkpt>
      <trkpt lat="44.62545" lon="5.78346">
        <ele>1703.4</ele>
        <time>2015-06-30T10:32:11Z</time>
      </trkpt>
      <trkpt lat="44.62547" lon="5.78347">
        <ele>1699.8</ele>
        <time>2015-06-30T10:32:16Z</time>
      </trkpt>
      <trkpt lat="44.62546" lon="5.78348">
        <ele>1701.2</ele>
        <time>2015-06-30T10:32:21Z</time>
      </trkpt>
      <trkpt lat="44.62547" lon="5.78346">
        <ele>1703.5</ele>
        <time>2015-06-30T10:32:26Z</time>
      </trkpt>
      <trkpt lat="44.62545" lon="5.78345">
        <ele>1704.4</ele>
        <time>2015-06-30T10:32:31Z</time>
      </trkpt>
      <trkpt lat="44.62549" lon="5.78347">
        <ele>1705</ele>
        <time>2015-06-30T10:32:36Z</time>
      </trkpt>
      <trkpt lat="44.62552" lon="5.78346">
        <ele>1702.7</ele>
        <time>2015-06-30T10:32:41Z</time>
      </trkpt>
      <trkpt lat="44.62556" lon="5.78348">
        <ele>1700.1</ele>
        <time>2015-06-30T10:32:46Z</time>
      </trkpt>
      <trkpt lat="44.62559" lon="5.7835">
        <ele>1696.7</ele>
        <time>2015-06-30T10:32:51Z</time>
      </trkpt>
      <trkpt lat="44.6256" lon="5.7835">
        <ele>1690</ele>
        <time>2015-06-30T10:32:56Z</time>
      </trkpt>
      <trkpt lat="44.62561" lon="5.7835">
        <ele>1686</ele>
        <time>2015-06-30T10:33:01Z</time>
      </trkpt>
      <trkpt lat="44.62565" lon="5.78352">
        <ele>1682.2</ele>
        <time>2015-06-30T10:33:06Z</time>
      </trkpt>
      <trkpt lat="44.62562" lon="5.78352">
        <ele>1683.9</ele>
        <time>2015-06-30T10:33:11Z</time>
      </trkpt>
      <trkpt lat="44.62561" lon="5.78353">
        <ele>1690.2</ele>
        <time>2015-06-30T10:33:16Z</time>
      </trkpt>
      <trkpt lat="44.62561" lon="5.78353">
        <ele>1694.3</ele>
        <time>2015-06-30T10:33:21Z</time>
      </trkpt>
      <trkpt lat="44.62561" lon="5.78352">
        <ele>1697.3</ele>
        <time>2015-06-30T10:33:26Z</time>
      </trkpt>
      <trkpt lat="44.62558" lon="5.78349">
        <ele>1693.8</ele>
        <time>2015-06-30T10:33:31Z</time>
      </trkpt>
      <trkpt lat="44.62556" lon="5.78345">
        <ele>1687.8</ele>
        <time>2015-06-30T10:33:36Z</time>
      </trkpt>
      <trkpt lat="44.62552" lon="5.78342">
        <ele>1688.6</ele>
        <time>2015-06-30T10:33:41Z</time>
      </trkpt>
      <trkpt lat="44.62549" lon="5.78346">
        <ele>1699.8</ele>
        <time>2015-06-30T10:33:46Z</time>
      </trkpt>
      <trkpt lat="44.62546" lon="5.78346">
        <ele>1704.3</ele>
        <time>2015-06-30T10:33:51Z</time>
      </trkpt>
      <trkpt lat="44.62544" lon="5.78349">
        <ele>1708.3</ele>
        <time>2015-06-30T10:33:56Z</time>
      </trkpt>
      <trkpt lat="44.62545" lon="5.78349">
        <ele>1710.5</ele>
        <time>2015-06-30T10:34:01Z</time>
      </trkpt>
      <trkpt lat="44.62545" lon="5.7835">
        <ele>1711.9</ele>
        <time>2015-06-30T10:34:06Z</time>
      </trkpt>
      <trkpt lat="44.62545" lon="5.7835">
        <ele>1713.9</ele>
        <time>2015-06-30T10:34:11Z</time>
      </trkpt>
      <trkpt lat="44.62545" lon="5.7835">
        <ele>1716.1</ele>
        <time>2015-06-30T10:34:16Z</time>
      </trkpt>
      <trkpt lat="44.62546" lon="5.78349">
        <ele>1718.4</ele>
        <time>2015-06-30T10:34:21Z</time>
      </trkpt>
      <trkpt lat="44.62551" lon="5.78351">
        <ele>1720.2</ele>
        <time>2015-06-30T10:34:26Z</time>
      </trkpt>
      <trkpt lat="44.62554" lon="5.78353">
        <ele>1722.9</ele>
        <time>2015-06-30T10:34:31Z</time>
      </trkpt>
      <trkpt lat="44.62555" lon="5.78354">
        <ele>1723.3</ele>
        <time>2015-06-30T10:34:36Z</time>
      </trkpt>
      <trkpt lat="44.62558" lon="5.78354">
        <ele>1717.9</ele>
        <time>2015-06-30T10:34:41Z</time>
      </trkpt>
      <trkpt lat="44.6256" lon="5.78352">
        <ele>1710</ele>
        <time>2015-06-30T10:34:46Z</time>
      </trkpt>
      <trkpt lat="44.6256" lon="5.78353">
        <ele>1704.5</ele>
        <time>2015-06-30T10:34:51Z</time>
      </trkpt>
      <trkpt lat="44.62556" lon="5.78351">
        <ele>1700.9</ele>
        <time>2015-06-30T10:34:56Z</time>
      </trkpt>
      <trkpt lat="44.62554" lon="5.78343">
        <ele>1691.5</ele>
        <time>2015-06-30T10:35:01Z</time>
      </trkpt>
      <trkpt lat="44.62557" lon="5.78338">
        <ele>1680.5</ele>
        <time>2015-06-30T10:35:06Z</time>
      </trkpt>
      <trkpt lat="44.62555" lon="5.78332">
        <ele>1677</ele>
        <time>2015-06-30T10:35:11Z</time>
      </trkpt>
      <trkpt lat="44.62551" lon="5.78328">
        <ele>1681.6</ele>
        <time>2015-06-30T10:35:16Z</time>
      </trkpt>
      <trkpt lat="44.62553" lon="5.78329">
        <ele>1680.3</ele>
        <time>2015-06-30T10:35:21Z</time>
      </trkpt>
      <trkpt lat="44.62554" lon="5.78331">
        <ele>1683.9</ele>
        <time>2015-06-30T10:35:26Z</time>
      </trkpt>
      <trkpt lat="44.62552" lon="5.78335">
        <ele>1692.5</ele>
        <time>2015-06-30T10:35:31Z</time>
      </trkpt>
      <trkpt lat="44.62556" lon="5.78347">
        <ele>1689.9</ele>
        <time>2015-06-30T10:35:36Z</time>
      </trkpt>
      <trkpt lat="44.62551" lon="5.78347">
        <ele>1689.7</ele>
        <time>2015-06-30T10:35:41Z</time>
      </trkpt>
      <trkpt lat="44.62554" lon="5.78351">
        <ele>1680.5</ele>
        <time>2015-06-30T10:35:46Z</time>
      </trkpt>
      <trkpt lat="44.62553" lon="5.78349">
        <ele>1681.4</ele>
        <time>2015-06-30T10:35:51Z</time>
      </trkpt>
      <trkpt lat="44.62555" lon="5.78349">
        <ele>1682.2</ele>
        <time>2015-06-30T10:35:56Z</time>
      </trkpt>
      <trkpt lat="44.62557" lon="5.78354">
        <ele>1686.5</ele>
        <time>2015-06-30T10:36:03Z</time>
      </trkpt>
      <trkpt lat="44.62553" lon="5.78356">
        <ele>1687.3</ele>
        <time>2015-06-30T10:36:10Z</time>
      </trkpt>
      <trkpt lat="44.62548" lon="5.78357">
        <ele>1693</ele>
        <time>2015-06-30T10:36:15Z</time>
      </trkpt>
      <trkpt lat="44.62541" lon="5.78351">
        <ele>1701.6</ele>
        <time>2015-06-30T10:36:22Z</time>
      </trkpt>
      <trkpt lat="44.62542" lon="5.7835">
        <ele>1704.2</ele>
        <time>2015-06-30T10:36:27Z</time>
      </trkpt>
      <trkpt lat="44.62544" lon="5.78349">
        <ele>1705.8</ele>
        <time>2015-06-30T10:36:32Z</time>
      </trkpt>
      <trkpt lat="44.62545" lon="5.78353">
        <ele>1711.8</ele>
        <time>2015-06-30T10:36:37Z</time>
      </trkpt>
      <trkpt lat="44.62545" lon="5.78358">
        <ele>1717.2</ele>
        <time>2015-06-30T10:36:42Z</time>
      </trkpt>
      <trkpt lat="44.6255" lon="5.78367">
        <ele>1724.3</ele>
        <time>2015-06-30T10:36:47Z</time>
      </trkpt>
      <trkpt lat="44.62554" lon="5.78373">
        <ele>1718.9</ele>
        <time>2015-06-30T10:36:54Z</time>
      </trkpt>
      <trkpt lat="44.6255" lon="5.78373">
        <ele>1718.5</ele>
        <time>2015-06-30T10:36:59Z</time>
      </trkpt>
      <trkpt lat="44.62551" lon="5.78372">
        <ele>1716.1</ele>
        <time>2015-06-30T10:37:04Z</time>
      </trkpt>
      <trkpt lat="44.6255" lon="5.78372">
        <ele>1717.1</ele>
        <time>2015-06-30T10:37:09Z</time>
      </trkpt>
      <trkpt lat="44.62553" lon="5.78372">
        <ele>1708.7</ele>
        <time>2015-06-30T10:37:14Z</time>
      </trkpt>
      <trkpt lat="44.62559" lon="5.78372">
        <ele>1696.2</ele>
        <time>2015-06-30T10:37:19Z</time>
      </trkpt>
      <trkpt lat="44.6256" lon="5.78368">
        <ele>1683.5</ele>
        <time>2015-06-30T10:37:24Z</time>
      </trkpt>
      <trkpt lat="44.62563" lon="5.78367">
        <ele>1676.8</ele>
        <time>2015-06-30T10:37:29Z</time>
      </trkpt>
      <trkpt lat="44.62563" lon="5.78365">
        <ele>1674.4</ele>
        <time>2015-06-30T10:37:34Z</time>
      </trkpt>
      <trkpt lat="44.6256" lon="5.78365">
        <ele>1675.9</ele>
        <time>2015-06-30T10:37:39Z</time>
      </trkpt>
      <trkpt lat="44.62558" lon="5.78367">
        <ele>1685.1</ele>
        <time>2015-06-30T10:37:45Z</time>
      </trkpt>
      <trkpt lat="44.62554" lon="5.78368">
        <ele>1689.6</ele>
        <time>2015-06-30T10:37:50Z</time>
      </trkpt>
      <trkpt lat="44.62552" lon="5.7837">
        <ele>1692.6</ele>
        <time>2015-06-30T10:37:55Z</time>
      </trkpt>
      <trkpt lat="44.6255" lon="5.78368">
        <ele>1703</ele>
        <time>2015-06-30T10:38:00Z</time>
      </trkpt>
      <trkpt lat="44.62555" lon="5.78366">
        <ele>1703.1</ele>
        <time>2015-06-30T10:38:05Z</time>
      </trkpt>
      <trkpt lat="44.62555" lon="5.78362">
        <ele>1705.3</ele>
        <time>2015-06-30T10:38:10Z</time>
      </trkpt>
      <trkpt lat="44.62555" lon="5.7836">
        <ele>1704.8</ele>
        <time>2015-06-30T10:38:15Z</time>
      </trkpt>
      <trkpt lat="44.6255" lon="5.78361">
        <ele>1705.2</ele>
        <time>2015-06-30T10:38:20Z</time>
      </trkpt>
      <trkpt lat="44.6255" lon="5.78363">
        <ele>1705</ele>
        <time>2015-06-30T10:38:25Z</time>
      </trkpt>
      <trkpt lat="44.62552" lon="5.7836">
        <ele>1707.4</ele>
        <time>2015-06-30T10:38:30Z</time>
      </trkpt>
      <trkpt lat="44.62553" lon="5.78358">
        <ele>1714.9</ele>
        <time>2015-06-30T10:38:35Z</time>
      </trkpt>
      <trkpt lat="44.62547" lon="5.78357">
        <ele>1713.5</ele>
        <time>2015-06-30T10:38:40Z</time>
      </trkpt>
      <trkpt lat="44.62546" lon="5.78353">
        <ele>1720</ele>
        <time>2015-06-30T10:38:45Z</time>
      </trkpt>
      <trkpt lat="44.62545" lon="5.78353">
        <ele>1725.3</ele>
        <time>2015-06-30T10:38:50Z</time>
      </trkpt>
      <trkpt lat="44.62545" lon="5.78352">
        <ele>1726.3</ele>
        <time>2015-06-30T10:38:55Z</time>
      </trkpt>
      <trkpt lat="44.62547" lon="5.78353">
        <ele>1724.8</ele>
        <time>2015-06-30T10:39:00Z</time>
      </trkpt>
      <trkpt lat="44.62549" lon="5.78354">
        <ele>1725.9</ele>
        <time>2015-06-30T10:39:05Z</time>
      </trkpt>
      <trkpt lat="44.62548" lon="5.78354">
        <ele>1729</ele>
        <time>2015-06-30T10:39:10Z</time>
      </trkpt>
      <trkpt lat="44.62547" lon="5.78354">
        <ele>1732.2</ele>
        <time>2015-06-30T10:39:15Z</time>
      </trkpt>
      <trkpt lat="44.62547" lon="5.78358">
        <ele>1733.9</ele>
        <time>2015-06-30T10:39:20Z</time>
      </trkpt>
      <trkpt lat="44.6255" lon="5.78358">
        <ele>1722</ele>
        <time>2015-06-30T10:39:25Z</time>
      </trkpt>
      <trkpt lat="44.62551" lon="5.78358">
        <ele>1718.1</ele>
        <time>2015-06-30T10:39:30Z</time>
      </trkpt>
      <trkpt lat="44.62555" lon="5.78357">
        <ele>1710.4</ele>
        <time>2015-06-30T10:39:35Z</time>
      </trkpt>
      <trkpt lat="44.62558" lon="5.78359">
        <ele>1704.8</ele>
        <time>2015-06-30T10:39:40Z</time>
      </trkpt>
      <trkpt lat="44.62561" lon="5.78357">
        <ele>1697.5</ele>
        <time>2015-06-30T10:39:45Z</time>
      </trkpt>
      <trkpt lat="44.62558" lon="5.78355">
        <ele>1691.8</ele>
        <time>2015-06-30T10:39:50Z</time>
      </trkpt>
      <trkpt lat="44.62559" lon="5.78356">
        <ele>1689.4</ele>
        <time>2015-06-30T10:39:55Z</time>
      </trkpt>
      <trkpt lat="44.62558" lon="5.78363">
        <ele>1690.7</ele>
        <time>2015-06-30T10:40:00Z</time>
      </trkpt>
      <trkpt lat="44.62557" lon="5.78367">
        <ele>1693.8</ele>
        <time>2015-06-30T10:40:05Z</time>
      </trkpt>
      <trkpt lat="44.62556" lon="5.78368">
        <ele>1697</ele>
        <time>2015-06-30T10:40:10Z</time>
      </trkpt>
      <trkpt lat="44.62554" lon="5.78371">
        <ele>1701.7</ele>
        <time>2015-06-30T10:40:15Z</time>
      </trkpt>
      <trkpt lat="44.62551" lon="5.78374">
        <ele>1705.1</ele>
        <time>2015-06-30T10:40:20Z</time>
      </trkpt>
      <trkpt lat="44.6255" lon="5.78374">
        <ele>1703</ele>
        <time>2015-06-30T10:40:27Z</time>
      </trkpt>
      <trkpt lat="44.62548" lon="5.78375">
        <ele>1706.1</ele>
        <time>2015-06-30T10:40:32Z</time>
      </trkpt>
      <trkpt lat="44.62547" lon="5.78374">
        <ele>1708.5</ele>
        <time>2015-06-30T10:40:37Z</time>
      </trkpt>
      <trkpt lat="44.62547" lon="5.78372">
        <ele>1711.2</ele>
        <time>2015-06-30T10:40:42Z</time>
      </trkpt>
      <trkpt lat="44.62548" lon="5.78371">
        <ele>1712.3</ele>
        <time>2015-06-30T10:40:47Z</time>
      </trkpt>
      <trkpt lat="44.62548" lon="5.78371">
        <ele>1711.6</ele>
        <time>2015-06-30T10:40:52Z</time>
      </trkpt>
      <trkpt lat="44.62548" lon="5.78372">
        <ele>1711.2</ele>
        <time>2015-06-30T10:40:57Z</time>
      </trkpt>
      <trkpt lat="44.62548" lon="5.78373">
        <ele>1711.6</ele>
        <time>2015-06-30T10:41:02Z</time>
      </trkpt>
      <trkpt lat="44.62546" lon="5.78375">
        <ele>1714.5</ele>
        <time>2015-06-30T10:41:07Z</time>
      </trkpt>
      <trkpt lat="44.62546" lon="5.78374">
        <ele>1714.1</ele>
        <time>2015-06-30T10:41:12Z</time>
      </trkpt>
      <trkpt lat="44.62545" lon="5.78375">
        <ele>1716.4</ele>
        <time>2015-06-30T10:41:17Z</time>
      </trkpt>
      <trkpt lat="44.62545" lon="5.78376">
        <ele>1716.8</ele>
        <time>2015-06-30T10:41:22Z</time>
      </trkpt>
      <trkpt lat="44.62546" lon="5.78374">
        <ele>1715.1</ele>
        <time>2015-06-30T10:41:27Z</time>
      </trkpt>
      <trkpt lat="44.62546" lon="5.78373">
        <ele>1714.1</ele>
        <time>2015-06-30T10:41:32Z</time>
      </trkpt>
      <trkpt lat="44.62549" lon="5.78375">
        <ele>1710.5</ele>
        <time>2015-06-30T10:41:37Z</time>
      </trkpt>
      <trkpt lat="44.6255" lon="5.78375">
        <ele>1709.6</ele>
        <time>2015-06-30T10:41:42Z</time>
      </trkpt>
      <trkpt lat="44.62554" lon="5.78377">
        <ele>1710</ele>
        <time>2015-06-30T10:41:47Z</time>
      </trkpt>
      <trkpt lat="44.62558" lon="5.78378">
        <ele>1711.4</ele>
        <time>2015-06-30T10:41:52Z</time>
      </trkpt>
      <trkpt lat="44.62557" lon="5.78377">
        <ele>1712.4</ele>
        <time>2015-06-30T10:41:57Z</time>
      </trkpt>
      <trkpt lat="44.62555" lon="5.78376">
        <ele>1708.3</ele>
        <time>2015-06-30T10:42:02Z</time>
      </trkpt>
      <trkpt lat="44.62554" lon="5.78376">
        <ele>1704.1</ele>
        <time>2015-06-30T10:42:07Z</time>
      </trkpt>
      <trkpt lat="44.62554" lon="5.78374">
        <ele>1707.7</ele>
        <time>2015-06-30T10:42:12Z</time>
      </trkpt>
      <trkpt lat="44.6255" lon="5.78375">
        <ele>1711.3</ele>
        <time>2015-06-30T10:42:17Z</time>
      </trkpt>
      <trkpt lat="44.62546" lon="5.78374">
        <ele>1717.9</ele>
        <time>2015-06-30T10:42:22Z</time>
      </trkpt>
      <trkpt lat="44.62547" lon="5.78372">
        <ele>1713.1</ele>
        <time>2015-06-30T10:42:27Z</time>
      </trkpt>
      <trkpt lat="44.6255" lon="5.78374">
        <ele>1706.3</ele>
        <time>2015-06-30T10:42:32Z</time>
      </trkpt>
      <trkpt lat="44.62552" lon="5.78369">
        <ele>1697.5</ele>
        <time>2015-06-30T10:42:37Z</time>
      </trkpt>
      <trkpt lat="44.6255" lon="5.78367">
        <ele>1701.3</ele>
        <time>2015-06-30T10:42:42Z</time>
      </trkpt>
      <trkpt lat="44.62546" lon="5.78366">
        <ele>1706.9</ele>
        <time>2015-06-30T10:42:47Z</time>
      </trkpt>
      <trkpt lat="44.62545" lon="5.78365">
        <ele>1716.4</ele>
        <time>2015-06-30T10:42:52Z</time>
      </trkpt>
      <trkpt lat="44.62548" lon="5.78365">
        <ele>1717.5</ele>
        <time>2015-06-30T10:42:57Z</time>
      </trkpt>
      <trkpt lat="44.62549" lon="5.78365">
        <ele>1717.9</ele>
        <time>2015-06-30T10:43:02Z</time>
      </trkpt>
      <trkpt lat="44.62552" lon="5.78367">
        <ele>1710.1</ele>
        <time>2015-06-30T10:43:07Z</time>
      </trkpt>
      <trkpt lat="44.62553" lon="5.78367">
        <ele>1710.7</ele>
        <time>2015-06-30T10:43:12Z</time>
      </trkpt>
      <trkpt lat="44.6256" lon="5.78362">
        <ele>1704.3</ele>
        <time>2015-06-30T10:43:17Z</time>
      </trkpt>
      <trkpt lat="44.62566" lon="5.78363">
        <ele>1693.2</ele>
        <time>2015-06-30T10:43:22Z</time>
      </trkpt>
      <trkpt lat="44.62555" lon="5.78367">
        <ele>1698.8</ele>
        <time>2015-06-30T10:43:27Z</time>
      </trkpt>
      <trkpt lat="44.6255" lon="5.78369">
        <ele>1704.8</ele>
        <time>2015-06-30T10:43:32Z</time>
      </trkpt>
      <trkpt lat="44.62548" lon="5.78369">
        <ele>1707</ele>
        <time>2015-06-30T10:43:37Z</time>
      </trkpt>
      <trkpt lat="44.62545" lon="5.78368">
        <ele>1708.5</ele>
        <time>2015-06-30T10:43:42Z</time>
      </trkpt>
      <trkpt lat="44.62544" lon="5.78368">
        <ele>1709.8</ele>
        <time>2015-06-30T10:43:47Z</time>
      </trkpt>
      <trkpt lat="44.62542" lon="5.78368">
        <ele>1713.1</ele>
        <time>2015-06-30T10:43:52Z</time>
      </trkpt>
      <trkpt lat="44.62545" lon="5.78369">
        <ele>1711.5</ele>
        <time>2015-06-30T10:43:57Z</time>
      </trkpt>
      <trkpt lat="44.62545" lon="5.78368">
        <ele>1710.5</ele>
        <time>2015-06-30T10:44:02Z</time>
      </trkpt>
      <trkpt lat="44.62543" lon="5.78367">
        <ele>1709.6</ele>
        <time>2015-06-30T10:44:07Z</time>
      </trkpt>
      <trkpt lat="44.62544" lon="5.78369">
        <ele>1707.1</ele>
        <time>2015-06-30T10:44:12Z</time>
      </trkpt>
      <trkpt lat="44.62545" lon="5.78367">
        <ele>1703.9</ele>
        <time>2015-06-30T10:44:17Z</time>
      </trkpt>
      <trkpt lat="44.62546" lon="5.78367">
        <ele>1699.4</ele>
        <time>2015-06-30T10:44:22Z</time>
      </trkpt>
      <trkpt lat="44.62547" lon="5.78368">
        <ele>1697.7</ele>
        <time>2015-06-30T10:44:27Z</time>
      </trkpt>
      <trkpt lat="44.62547" lon="5.78368">
        <ele>1698.9</ele>
        <time>2015-06-30T10:44:32Z</time>
      </trkpt>
      <trkpt lat="44.6255" lon="5.7837">
        <ele>1703</ele>
        <time>2015-06-30T10:44:37Z</time>
      </trkpt>
      <trkpt lat="44.62548" lon="5.7837">
        <ele>1704.6</ele>
        <time>2015-06-30T10:44:42Z</time>
      </trkpt>
      <trkpt lat="44.62547" lon="5.78371">
        <ele>1706.1</ele>
        <time>2015-06-30T10:44:47Z</time>
      </trkpt>
      <trkpt lat="44.62545" lon="5.78371">
        <ele>1710.7</ele>
        <time>2015-06-30T10:44:52Z</time>
      </trkpt>
      <trkpt lat="44.62544" lon="5.78371">
        <ele>1715</ele>
        <time>2015-06-30T10:44:57Z</time>
      </trkpt>
      <trkpt lat="44.62543" lon="5.78371">
        <ele>1717.4</ele>
        <time>2015-06-30T10:45:02Z</time>
      </trkpt>
      <trkpt lat="44.62543" lon="5.78372">
        <ele>1719.9</ele>
        <time>2015-06-30T10:45:07Z</time>
      </trkpt>
      <trkpt lat="44.62543" lon="5.78372">
        <ele>1721.4</ele>
        <time>2015-06-30T10:45:12Z</time>
      </trkpt>
      <trkpt lat="44.62542" lon="5.78372">
        <ele>1722.9</ele>
        <time>2015-06-30T10:45:17Z</time>
      </trkpt>
      <trkpt lat="44.62542" lon="5.78372">
        <ele>1723.5</ele>
        <time>2015-06-30T10:45:22Z</time>
      </trkpt>
      <trkpt lat="44.62542" lon="5.78372">
        <ele>1723.4</ele>
        <time>2015-06-30T10:45:27Z</time>
      </trkpt>
      <trkpt lat="44.62541" lon="5.78372">
        <ele>1724.1</ele>
        <time>2015-06-30T10:45:32Z</time>
      </trkpt>
      <trkpt lat="44.62543" lon="5.78371">
        <ele>1724.9</ele>
        <time>2015-06-30T10:45:37Z</time>
      </trkpt>
      <trkpt lat="44.62545" lon="5.78373">
        <ele>1724.3</ele>
        <time>2015-06-30T10:45:42Z</time>
      </trkpt>
      <trkpt lat="44.62546" lon="5.78373">
        <ele>1724.3</ele>
        <time>2015-06-30T10:45:47Z</time>
      </trkpt>
      <trkpt lat="44.62545" lon="5.78373">
        <ele>1720.1</ele>
        <time>2015-06-30T10:45:52Z</time>
      </trkpt>
      <trkpt lat="44.62546" lon="5.78373">
        <ele>1716.8</ele>
        <time>2015-06-30T10:45:57Z</time>
      </trkpt>
      <trkpt lat="44.62546" lon="5.78374">
        <ele>1715.6</ele>
        <time>2015-06-30T10:46:02Z</time>
      </trkpt>
      <trkpt lat="44.62546" lon="5.78375">
        <ele>1716.1</ele>
        <time>2015-06-30T10:46:07Z</time>
      </trkpt>
      <trkpt lat="44.62546" lon="5.78374">
        <ele>1716.5</ele>
        <time>2015-06-30T10:46:12Z</time>
      </trkpt>
      <trkpt lat="44.62548" lon="5.78372">
        <ele>1712.2</ele>
        <time>2015-06-30T10:46:17Z</time>
      </trkpt>
      <trkpt lat="44.62545" lon="5.78366">
        <ele>1709.6</ele>
        <time>2015-06-30T10:46:22Z</time>
      </trkpt>
      <trkpt lat="44.62541" lon="5.78361">
        <ele>1708.8</ele>
        <time>2015-06-30T10:46:27Z</time>
      </trkpt>
      <trkpt lat="44.62543" lon="5.78358">
        <ele>1700.6</ele>
        <time>2015-06-30T10:46:32Z</time>
      </trkpt>
      <trkpt lat="44.62542" lon="5.78351">
        <ele>1695.7</ele>
        <time>2015-06-30T10:46:37Z</time>
      </trkpt>
      <trkpt lat="44.62544" lon="5.78353">
        <ele>1701.2</ele>
        <time>2015-06-30T10:46:42Z</time>
      </trkpt>
      <trkpt lat="44.62544" lon="5.78356">
        <ele>1705</ele>
        <time>2015-06-30T10:46:47Z</time>
      </trkpt>
      <trkpt lat="44.62541" lon="5.78358">
        <ele>1713.8</ele>
        <time>2015-06-30T10:46:52Z</time>
      </trkpt>
      <trkpt lat="44.62542" lon="5.7836">
        <ele>1715.1</ele>
        <time>2015-06-30T10:46:57Z</time>
      </trkpt>
      <trkpt lat="44.62542" lon="5.7836">
        <ele>1716.4</ele>
        <time>2015-06-30T10:47:02Z</time>
      </trkpt>
      <trkpt lat="44.62542" lon="5.78361">
        <ele>1716.6</ele>
        <time>2015-06-30T10:47:07Z</time>
      </trkpt>
      <trkpt lat="44.62542" lon="5.78362">
        <ele>1716.7</ele>
        <time>2015-06-30T10:47:12Z</time>
      </trkpt>
      <trkpt lat="44.62542" lon="5.78361">
        <ele>1712.6</ele>
        <time>2015-06-30T10:47:17Z</time>
      </trkpt>
      <trkpt lat="44.62543" lon="5.78361">
        <ele>1708.8</ele>
        <time>2015-06-30T10:47:22Z</time>
      </trkpt>
      <trkpt lat="44.62545" lon="5.78361">
        <ele>1704.8</ele>
        <time>2015-06-30T10:47:27Z</time>
      </trkpt>
      <trkpt lat="44.62544" lon="5.78359">
        <ele>1702.9</ele>
        <time>2015-06-30T10:47:32Z</time>
      </trkpt>
      <trkpt lat="44.62544" lon="5.78359">
        <ele>1700.1</ele>
        <time>2015-06-30T10:47:37Z</time>
      </trkpt>
      <trkpt lat="44.62545" lon="5.78359">
        <ele>1702.9</ele>
        <time>2015-06-30T10:47:42Z</time>
      </trkpt>
      <trkpt lat="44.62545" lon="5.78358">
        <ele>1708.1</ele>
        <time>2015-06-30T10:47:47Z</time>
      </trkpt>
      <trkpt lat="44.62545" lon="5.78356">
        <ele>1714.2</ele>
        <time>2015-06-30T10:47:52Z</time>
      </trkpt>
      <trkpt lat="44.62547" lon="5.78357">
        <ele>1722.7</ele>
        <time>2015-06-30T10:47:57Z</time>
      </trkpt>
      <trkpt lat="44.62549" lon="5.78353">
        <ele>1715.8</ele>
        <time>2015-06-30T10:48:02Z</time>
      </trkpt>
      <trkpt lat="44.62549" lon="5.78349">
        <ele>1714.7</ele>
        <time>2015-06-30T10:48:07Z</time>
      </trkpt>
      <trkpt lat="44.62549" lon="5.78347">
        <ele>1714.8</ele>
        <time>2015-06-30T10:48:12Z</time>
      </trkpt>
      <trkpt lat="44.62549" lon="5.78346">
        <ele>1716.1</ele>
        <time>2015-06-30T10:48:17Z</time>
      </trkpt>
      <trkpt lat="44.62548" lon="5.78349">
        <ele>1713.4</ele>
        <time>2015-06-30T10:48:22Z</time>
      </trkpt>
      <trkpt lat="44.62548" lon="5.7835">
        <ele>1712.9</ele>
        <time>2015-06-30T10:48:27Z</time>
      </trkpt>
      <trkpt lat="44.62548" lon="5.7835">
        <ele>1712.2</ele>
        <time>2015-06-30T10:48:32Z</time>
      </trkpt>
      <trkpt lat="44.62548" lon="5.78351">
        <ele>1713</ele>
        <time>2015-06-30T10:48:37Z</time>
      </trkpt>
      <trkpt lat="44.62549" lon="5.7835">
        <ele>1714.6</ele>
        <time>2015-06-30T10:48:42Z</time>
      </trkpt>
      <trkpt lat="44.62548" lon="5.7835">
        <ele>1714.6</ele>
        <time>2015-06-30T10:48:47Z</time>
      </trkpt>
      <trkpt lat="44.62548" lon="5.78349">
        <ele>1714.4</ele>
        <time>2015-06-30T10:48:52Z</time>
      </trkpt>
      <trkpt lat="44.62544" lon="5.78347">
        <ele>1713.6</ele>
        <time>2015-06-30T10:48:57Z</time>
      </trkpt>
      <trkpt lat="44.62544" lon="5.78348">
        <ele>1716.8</ele>
        <time>2015-06-30T10:49:02Z</time>
      </trkpt>
      <trkpt lat="44.62543" lon="5.78348">
        <ele>1718.3</ele>
        <time>2015-06-30T10:49:07Z</time>
      </trkpt>
      <trkpt lat="44.6254" lon="5.78351">
        <ele>1713.7</ele>
        <time>2015-06-30T10:49:12Z</time>
      </trkpt>
      <trkpt lat="44.62543" lon="5.78351">
        <ele>1702.2</ele>
        <time>2015-06-30T10:49:17Z</time>
      </trkpt>
      <trkpt lat="44.62546" lon="5.78353">
        <ele>1698.1</ele>
        <time>2015-06-30T10:49:22Z</time>
      </trkpt>
      <trkpt lat="44.62549" lon="5.78356">
        <ele>1702.7</ele>
        <time>2015-06-30T10:49:27Z</time>
      </trkpt>
      <trkpt lat="44.62552" lon="5.78359">
        <ele>1704.4</ele>
        <time>2015-06-30T10:49:32Z</time>
      </trkpt>
      <trkpt lat="44.62552" lon="5.7836">
        <ele>1707</ele>
        <time>2015-06-30T10:49:37Z</time>
      </trkpt>
      <trkpt lat="44.62548" lon="5.78358">
        <ele>1709.2</ele>
        <time>2015-06-30T10:49:42Z</time>
      </trkpt>
      <trkpt lat="44.62548" lon="5.78358">
        <ele>1711.2</ele>
        <time>2015-06-30T10:49:47Z</time>
      </trkpt>
      <trkpt lat="44.62546" lon="5.78358">
        <ele>1705.1</ele>
        <time>2015-06-30T10:49:52Z</time>
      </trkpt>
      <trkpt lat="44.62542" lon="5.78357">
        <ele>1702.3</ele>
        <time>2015-06-30T10:49:57Z</time>
      </trkpt>
      <trkpt lat="44.62539" lon="5.78354">
        <ele>1703.6</ele>
        <time>2015-06-30T10:50:02Z</time>
      </trkpt>
      <trkpt lat="44.62536" lon="5.78352">
        <ele>1696.9</ele>
        <time>2015-06-30T10:50:07Z</time>
      </trkpt>
      <trkpt lat="44.62536" lon="5.78354">
        <ele>1696.7</ele>
        <time>2015-06-30T10:50:12Z</time>
      </trkpt>
      <trkpt lat="44.62537" lon="5.78355">
        <ele>1702.1</ele>
        <time>2015-06-30T10:50:17Z</time>
      </trkpt>
      <trkpt lat="44.62534" lon="5.78356">
        <ele>1710.2</ele>
        <time>2015-06-30T10:50:22Z</time>
      </trkpt>
      <trkpt lat="44.62531" lon="5.78356">
        <ele>1720.8</ele>
        <time>2015-06-30T10:50:27Z</time>
      </trkpt>
      <trkpt lat="44.62528" lon="5.78357">
        <ele>1731.6</ele>
        <time>2015-06-30T10:50:32Z</time>
      </trkpt>
      <trkpt lat="44.62528" lon="5.78358">
        <ele>1736.1</ele>
        <time>2015-06-30T10:50:37Z</time>
      </trkpt>
      <trkpt lat="44.62533" lon="5.78359">
        <ele>1738.5</ele>
        <time>2015-06-30T10:50:42Z</time>
      </trkpt>
      <trkpt lat="44.62536" lon="5.78358">
        <ele>1735.3</ele>
        <time>2015-06-30T10:50:47Z</time>
      </trkpt>
      <trkpt lat="44.6254" lon="5.78359">
        <ele>1732.9</ele>
        <time>2015-06-30T10:50:52Z</time>
      </trkpt>
      <trkpt lat="44.62542" lon="5.78359">
        <ele>1725.6</ele>
        <time>2015-06-30T10:50:57Z</time>
      </trkpt>
      <trkpt lat="44.62549" lon="5.78362">
        <ele>1717.6</ele>
        <time>2015-06-30T10:51:02Z</time>
      </trkpt>
      <trkpt lat="44.62553" lon="5.7836">
        <ele>1706.2</ele>
        <time>2015-06-30T10:51:07Z</time>
      </trkpt>
      <trkpt lat="44.62554" lon="5.7836">
        <ele>1700.1</ele>
        <time>2015-06-30T10:51:12Z</time>
      </trkpt>
      <trkpt lat="44.62553" lon="5.78363">
        <ele>1695.3</ele>
        <time>2015-06-30T10:51:17Z</time>
      </trkpt>
      <trkpt lat="44.62556" lon="5.78363">
        <ele>1690.7</ele>
        <time>2015-06-30T10:51:22Z</time>
      </trkpt>
      <trkpt lat="44.6256" lon="5.78362">
        <ele>1693.6</ele>
        <time>2015-06-30T10:51:27Z</time>
      </trkpt>
      <trkpt lat="44.62559" lon="5.78363">
        <ele>1695.7</ele>
        <time>2015-06-30T10:51:32Z</time>
      </trkpt>
      <trkpt lat="44.62558" lon="5.78363">
        <ele>1698.6</ele>
        <time>2015-06-30T10:51:37Z</time>
      </trkpt>
      <trkpt lat="44.62553" lon="5.78361">
        <ele>1699.2</ele>
        <time>2015-06-30T10:51:42Z</time>
      </trkpt>
      <trkpt lat="44.62547" lon="5.78362">
        <ele>1704.7</ele>
        <time>2015-06-30T10:51:47Z</time>
      </trkpt>
      <trkpt lat="44.62542" lon="5.78359">
        <ele>1708.6</ele>
        <time>2015-06-30T10:51:52Z</time>
      </trkpt>
      <trkpt lat="44.62542" lon="5.78349">
        <ele>1707.8</ele>
        <time>2015-06-30T10:51:57Z</time>
      </trkpt>
      <trkpt lat="44.6254" lon="5.78348">
        <ele>1711.7</ele>
        <time>2015-06-30T10:52:03Z</time>
      </trkpt>
      <trkpt lat="44.62541" lon="5.78352">
        <ele>1724.1</ele>
        <time>2015-06-30T10:52:08Z</time>
      </trkpt>
      <trkpt lat="44.62541" lon="5.78354">
        <ele>1725.6</ele>
        <time>2015-06-30T10:52:13Z</time>
      </trkpt>
      <trkpt lat="44.62541" lon="5.78354">
        <ele>1729.8</ele>
        <time>2015-06-30T10:52:18Z</time>
      </trkpt>
      <trkpt lat="44.62543" lon="5.78361">
        <ele>1735.1</ele>
        <time>2015-06-30T10:52:25Z</time>
      </trkpt>
      <trkpt lat="44.62547" lon="5.78356">
        <ele>1720.4</ele>
        <time>2015-06-30T10:52:30Z</time>
      </trkpt>
      <trkpt lat="44.62554" lon="5.78355">
        <ele>1701.6</ele>
        <time>2015-06-30T10:52:35Z</time>
      </trkpt>
      <trkpt lat="44.62554" lon="5.78349">
        <ele>1698.7</ele>
        <time>2015-06-30T10:52:40Z</time>
      </trkpt>
      <trkpt lat="44.62554" lon="5.78342">
        <ele>1699.8</ele>
        <time>2015-06-30T10:52:45Z</time>
      </trkpt>
      <trkpt lat="44.62547" lon="5.78346">
        <ele>1705.4</ele>
        <time>2015-06-30T10:52:50Z</time>
      </trkpt>
      <trkpt lat="44.62542" lon="5.78351">
        <ele>1712.8</ele>
        <time>2015-06-30T10:52:55Z</time>
      </trkpt>
      <trkpt lat="44.62538" lon="5.78354">
        <ele>1718.8</ele>
        <time>2015-06-30T10:53:00Z</time>
      </trkpt>
      <trkpt lat="44.62536" lon="5.78354">
        <ele>1723.3</ele>
        <time>2015-06-30T10:53:05Z</time>
      </trkpt>
      <trkpt lat="44.62534" lon="5.78358">
        <ele>1724.9</ele>
        <time>2015-06-30T10:53:10Z</time>
      </trkpt>
      <trkpt lat="44.62534" lon="5.78361">
        <ele>1723.3</ele>
        <time>2015-06-30T10:53:15Z</time>
      </trkpt>
      <trkpt lat="44.62534" lon="5.78358">
        <ele>1721.3</ele>
        <time>2015-06-30T10:53:20Z</time>
      </trkpt>
      <trkpt lat="44.62534" lon="5.78354">
        <ele>1714.4</ele>
        <time>2015-06-30T10:53:25Z</time>
      </trkpt>
      <trkpt lat="44.62536" lon="5.78357">
        <ele>1710.7</ele>
        <time>2015-06-30T10:53:30Z</time>
      </trkpt>
      <trkpt lat="44.62545" lon="5.78359">
        <ele>1708.8</ele>
        <time>2015-06-30T10:53:35Z</time>
      </trkpt>
      <trkpt lat="44.6255" lon="5.78361">
        <ele>1704.4</ele>
        <time>2015-06-30T10:53:40Z</time>
      </trkpt>
      <trkpt lat="44.62549" lon="5.78363">
        <ele>1706.5</ele>
        <time>2015-06-30T10:53:45Z</time>
      </trkpt>
      <trkpt lat="44.6255" lon="5.78363">
        <ele>1708.5</ele>
        <time>2015-06-30T10:53:50Z</time>
      </trkpt>
      <trkpt lat="44.6255" lon="5.78362">
        <ele>1709.7</ele>
        <time>2015-06-30T10:53:55Z</time>
      </trkpt>
      <trkpt lat="44.62548" lon="5.78364">
        <ele>1717</ele>
        <time>2015-06-30T10:54:00Z</time>
      </trkpt>
      <trkpt lat="44.62549" lon="5.78361">
        <ele>1713.9</ele>
        <time>2015-06-30T10:54:05Z</time>
      </trkpt>
      <trkpt lat="44.62548" lon="5.78355">
        <ele>1713.9</ele>
        <time>2015-06-30T10:54:10Z</time>
      </trkpt>
      <trkpt lat="44.62548" lon="5.78357">
        <ele>1715.5</ele>
        <time>2015-06-30T10:54:15Z</time>
      </trkpt>
      <trkpt lat="44.62546" lon="5.78357">
        <ele>1714.6</ele>
        <time>2015-06-30T10:54:20Z</time>
      </trkpt>
      <trkpt lat="44.62547" lon="5.78354">
        <ele>1710.8</ele>
        <time>2015-06-30T10:54:25Z</time>
      </trkpt>
      <trkpt lat="44.62546" lon="5.78352">
        <ele>1710.7</ele>
        <time>2015-06-30T10:54:30Z</time>
      </trkpt>
      <trkpt lat="44.62546" lon="5.78353">
        <ele>1705.3</ele>
        <time>2015-06-30T10:54:35Z</time>
      </trkpt>
      <trkpt lat="44.62548" lon="5.78356">
        <ele>1705.2</ele>
        <time>2015-06-30T10:54:40Z</time>
      </trkpt>
      <trkpt lat="44.62549" lon="5.78358">
        <ele>1709.8</ele>
        <time>2015-06-30T10:54:45Z</time>
      </trkpt>
      <trkpt lat="44.62548" lon="5.78358">
        <ele>1719.7</ele>
        <time>2015-06-30T10:54:50Z</time>
      </trkpt>
      <trkpt lat="44.62549" lon="5.78354">
        <ele>1723.4</ele>
        <time>2015-06-30T10:54:55Z</time>
      </trkpt>
      <trkpt lat="44.62551" lon="5.78352">
        <ele>1722.3</ele>
        <time>2015-06-30T10:55:00Z</time>
      </trkpt>
      <trkpt lat="44.62552" lon="5.78356">
        <ele>1720.3</ele>
        <time>2015-06-30T10:55:05Z</time>
      </trkpt>
      <trkpt lat="44.62551" lon="5.78355">
        <ele>1717.8</ele>
        <time>2015-06-30T10:55:10Z</time>
      </trkpt>
      <trkpt lat="44.6255" lon="5.78356">
        <ele>1710.4</ele>
        <time>2015-06-30T10:55:15Z</time>
      </trkpt>
      <trkpt lat="44.62551" lon="5.78357">
        <ele>1705</ele>
        <time>2015-06-30T10:55:20Z</time>
      </trkpt>
      <trkpt lat="44.62551" lon="5.78356">
        <ele>1706.9</ele>
        <time>2015-06-30T10:55:25Z</time>
      </trkpt>
      <trkpt lat="44.62552" lon="5.78358">
        <ele>1703.5</ele>
        <time>2015-06-30T10:55:30Z</time>
      </trkpt>
      <trkpt lat="44.6255" lon="5.78357">
        <ele>1706.7</ele>
        <time>2015-06-30T10:55:35Z</time>
      </trkpt>
      <trkpt lat="44.6255" lon="5.78356">
        <ele>1704.8</ele>
        <time>2015-06-30T10:55:40Z</time>
      </trkpt>
      <trkpt lat="44.62551" lon="5.78356">
        <ele>1701.8</ele>
        <time>2015-06-30T10:55:45Z</time>
      </trkpt>
      <trkpt lat="44.62551" lon="5.78357">
        <ele>1706.6</ele>
        <time>2015-06-30T10:55:50Z</time>
      </trkpt>
      <trkpt lat="44.62553" lon="5.78357">
        <ele>1708.6</ele>
        <time>2015-06-30T10:55:55Z</time>
      </trkpt>
      <trkpt lat="44.62553" lon="5.78357">
        <ele>1711</ele>
        <time>2015-06-30T10:56:00Z</time>
      </trkpt>
      <trkpt lat="44.62554" lon="5.78358">
        <ele>1708.9</ele>
        <time>2015-06-30T10:56:05Z</time>
      </trkpt>
      <trkpt lat="44.62554" lon="5.78361">
        <ele>1703.4</ele>
        <time>2015-06-30T10:56:10Z</time>
      </trkpt>
      <trkpt lat="44.62555" lon="5.78359">
        <ele>1703.2</ele>
        <time>2015-06-30T10:56:15Z</time>
      </trkpt>
      <trkpt lat="44.62555" lon="5.78361">
        <ele>1699.6</ele>
        <time>2015-06-30T10:56:20Z</time>
      </trkpt>
      <trkpt lat="44.62557" lon="5.78361">
        <ele>1698.3</ele>
        <time>2015-06-30T10:56:25Z</time>
      </trkpt>
      <trkpt lat="44.62555" lon="5.78364">
        <ele>1701.3</ele>
        <time>2015-06-30T10:56:30Z</time>
      </trkpt>
      <trkpt lat="44.62555" lon="5.78365">
        <ele>1700.8</ele>
        <time>2015-06-30T10:56:35Z</time>
      </trkpt>
      <trkpt lat="44.62553" lon="5.78364">
        <ele>1705.2</ele>
        <time>2015-06-30T10:56:40Z</time>
      </trkpt>
      <trkpt lat="44.62552" lon="5.78363">
        <ele>1705.5</ele>
        <time>2015-06-30T10:56:45Z</time>
      </trkpt>
      <trkpt lat="44.62551" lon="5.78364">
        <ele>1707.1</ele>
        <time>2015-06-30T10:56:50Z</time>
      </trkpt>
      <trkpt lat="44.62551" lon="5.78364">
        <ele>1708.7</ele>
        <time>2015-06-30T10:56:55Z</time>
      </trkpt>
      <trkpt lat="44.62552" lon="5.78365">
        <ele>1707</ele>
        <time>2015-06-30T10:57:00Z</time>
      </trkpt>
      <trkpt lat="44.62552" lon="5.78365">
        <ele>1707.3</ele>
        <time>2015-06-30T10:57:05Z</time>
      </trkpt>
      <trkpt lat="44.62552" lon="5.78365">
        <ele>1706.9</ele>
        <time>2015-06-30T10:57:10Z</time>
      </trkpt>
      <trkpt lat="44.62554" lon="5.78365">
        <ele>1707.3</ele>
        <time>2015-06-30T10:57:15Z</time>
      </trkpt>
      <trkpt lat="44.62553" lon="5.78363">
        <ele>1710.5</ele>
        <time>2015-06-30T10:57:20Z</time>
      </trkpt>
      <trkpt lat="44.62555" lon="5.78362">
        <ele>1711.8</ele>
        <time>2015-06-30T10:57:25Z</time>
      </trkpt>
      <trkpt lat="44.62555" lon="5.78362">
        <ele>1712.6</ele>
        <time>2015-06-30T10:57:30Z</time>
      </trkpt>
      <trkpt lat="44.62553" lon="5.78363">
        <ele>1711</ele>
        <time>2015-06-30T10:57:35Z</time>
      </trkpt>
      <trkpt lat="44.62553" lon="5.78363">
        <ele>1710.1</ele>
        <time>2015-06-30T10:57:40Z</time>
      </trkpt>
      <trkpt lat="44.62555" lon="5.78364">
        <ele>1709.3</ele>
        <time>2015-06-30T10:57:45Z</time>
      </trkpt>
      <trkpt lat="44.62555" lon="5.78364">
        <ele>1708</ele>
        <time>2015-06-30T10:57:50Z</time>
      </trkpt>
      <trkpt lat="44.62556" lon="5.78366">
        <ele>1706.8</ele>
        <time>2015-06-30T10:57:55Z</time>
      </trkpt>
      <trkpt lat="44.62555" lon="5.78364">
        <ele>1707</ele>
        <time>2015-06-30T10:58:00Z</time>
      </trkpt>
      <trkpt lat="44.62553" lon="5.78363">
        <ele>1709.1</ele>
        <time>2015-06-30T10:58:05Z</time>
      </trkpt>
      <trkpt lat="44.62553" lon="5.78362">
        <ele>1707.7</ele>
        <time>2015-06-30T10:58:10Z</time>
      </trkpt>
      <trkpt lat="44.62554" lon="5.78363">
        <ele>1706.6</ele>
        <time>2015-06-30T10:58:15Z</time>
      </trkpt>
      <trkpt lat="44.62554" lon="5.78361">
        <ele>1704.8</ele>
        <time>2015-06-30T10:58:20Z</time>
      </trkpt>
      <trkpt lat="44.62553" lon="5.78363">
        <ele>1704.1</ele>
        <time>2015-06-30T10:58:25Z</time>
      </trkpt>
      <trkpt lat="44.62552" lon="5.78363">
        <ele>1704</ele>
        <time>2015-06-30T10:58:30Z</time>
      </trkpt>
      <trkpt lat="44.62552" lon="5.78361">
        <ele>1706.1</ele>
        <time>2015-06-30T10:58:35Z</time>
      </trkpt>
      <trkpt lat="44.62553" lon="5.78361">
        <ele>1708</ele>
        <time>2015-06-30T10:58:40Z</time>
      </trkpt>
      <trkpt lat="44.62553" lon="5.78359">
        <ele>1710.9</ele>
        <time>2015-06-30T10:58:45Z</time>
      </trkpt>
      <trkpt lat="44.62553" lon="5.78359">
        <ele>1711.1</ele>
        <time>2015-06-30T10:58:50Z</time>
      </trkpt>
      <trkpt lat="44.62552" lon="5.78356">
        <ele>1714.5</ele>
        <time>2015-06-30T10:58:55Z</time>
      </trkpt>
      <trkpt lat="44.6255" lon="5.78357">
        <ele>1716</ele>
        <time>2015-06-30T10:59:00Z</time>
      </trkpt>
      <trkpt lat="44.62549" lon="5.7836">
        <ele>1718.6</ele>
        <time>2015-06-30T10:59:05Z</time>
      </trkpt>
      <trkpt lat="44.6255" lon="5.78361">
        <ele>1717.5</ele>
        <time>2015-06-30T10:59:10Z</time>
      </trkpt>
      <trkpt lat="44.62551" lon="5.78363">
        <ele>1716.2</ele>
        <time>2015-06-30T10:59:15Z</time>
      </trkpt>
      <trkpt lat="44.6255" lon="5.78363">
        <ele>1717.6</ele>
        <time>2015-06-30T10:59:20Z</time>
      </trkpt>
      <trkpt lat="44.62549" lon="5.78363">
        <ele>1714.8</ele>
        <time>2015-06-30T10:59:25Z</time>
      </trkpt>
      <trkpt lat="44.6255" lon="5.78361">
        <ele>1714</ele>
        <time>2015-06-30T10:59:30Z</time>
      </trkpt>
      <trkpt lat="44.62551" lon="5.7836">
        <ele>1713</ele>
        <time>2015-06-30T10:59:35Z</time>
      </trkpt>
      <trkpt lat="44.62554" lon="5.78361">
        <ele>1711.1</ele>
        <time>2015-06-30T10:59:40Z</time>
      </trkpt>
      <trkpt lat="44.62555" lon="5.78361">
        <ele>1711</ele>
        <time>2015-06-30T10:59:45Z</time>
      </trkpt>
      <trkpt lat="44.62554" lon="5.78361">
        <ele>1714</ele>
        <time>2015-06-30T10:59:50Z</time>
      </trkpt>
      <trkpt lat="44.62552" lon="5.78356">
        <ele>1720.3</ele>
        <time>2015-06-30T10:59:55Z</time>
      </trkpt>
      <trkpt lat="44.6255" lon="5.78356">
        <ele>1721.8</ele>
        <time>2015-06-30T11:00:00Z</time>
      </trkpt>
      <trkpt lat="44.62552" lon="5.78359">
        <ele>1717.6</ele>
        <time>2015-06-30T11:00:05Z</time>
      </trkpt>
      <trkpt lat="44.62553" lon="5.78359">
        <ele>1717.5</ele>
        <time>2015-06-30T11:00:10Z</time>
      </trkpt>
      <trkpt lat="44.62552" lon="5.7836">
        <ele>1719.5</ele>
        <time>2015-06-30T11:00:15Z</time>
      </trkpt>
      <trkpt lat="44.6255" lon="5.78361">
        <ele>1715.2</ele>
        <time>2015-06-30T11:00:20Z</time>
      </trkpt>
      <trkpt lat="44.6255" lon="5.78361">
        <ele>1713.2</ele>
        <time>2015-06-30T11:00:25Z</time>
      </trkpt>
      <trkpt lat="44.62551" lon="5.78365">
        <ele>1709.9</ele>
        <time>2015-06-30T11:00:30Z</time>
      </trkpt>
      <trkpt lat="44.6255" lon="5.78362">
        <ele>1709.7</ele>
        <time>2015-06-30T11:00:36Z</time>
      </trkpt>
      <trkpt lat="44.62547" lon="5.78358">
        <ele>1714.6</ele>
        <time>2015-06-30T11:00:41Z</time>
      </trkpt>
      <trkpt lat="44.62547" lon="5.7836">
        <ele>1716.8</ele>
        <time>2015-06-30T11:00:46Z</time>
      </trkpt>
      <trkpt lat="44.62547" lon="5.7836">
        <ele>1716.8</ele>
        <time>2015-06-30T11:00:51Z</time>
      </trkpt>
      <trkpt lat="44.62547" lon="5.78363">
        <ele>1716.3</ele>
        <time>2015-06-30T11:00:56Z</time>
      </trkpt>
      <trkpt lat="44.62547" lon="5.78362">
        <ele>1719.9</ele>
        <time>2015-06-30T11:01:01Z</time>
      </trkpt>
      <trkpt lat="44.62546" lon="5.78363">
        <ele>1720.9</ele>
        <time>2015-06-30T11:01:06Z</time>
      </trkpt>
      <trkpt lat="44.62545" lon="5.78364">
        <ele>1720</ele>
        <time>2015-06-30T11:01:11Z</time>
      </trkpt>
      <trkpt lat="44.62547" lon="5.78363">
        <ele>1720</ele>
        <time>2015-06-30T11:01:16Z</time>
      </trkpt>
      <trkpt lat="44.62545" lon="5.78364">
        <ele>1718.1</ele>
        <time>2015-06-30T11:01:21Z</time>
      </trkpt>
      <trkpt lat="44.62546" lon="5.78364">
        <ele>1716.7</ele>
        <time>2015-06-30T11:01:26Z</time>
      </trkpt>
      <trkpt lat="44.62549" lon="5.78361">
        <ele>1714.3</ele>
        <time>2015-06-30T11:01:31Z</time>
      </trkpt>
      <trkpt lat="44.62548" lon="5.78361">
        <ele>1713</ele>
        <time>2015-06-30T11:01:36Z</time>
      </trkpt>
      <trkpt lat="44.62549" lon="5.78362">
        <ele>1711.8</ele>
        <time>2015-06-30T11:01:41Z</time>
      </trkpt>
      <trkpt lat="44.6255" lon="5.78361">
        <ele>1709.7</ele>
        <time>2015-06-30T11:01:46Z</time>
      </trkpt>
      <trkpt lat="44.62551" lon="5.78362">
        <ele>1709.5</ele>
        <time>2015-06-30T11:01:51Z</time>
      </trkpt>
      <trkpt lat="44.62549" lon="5.78366">
        <ele>1706.9</ele>
        <time>2015-06-30T11:01:56Z</time>
      </trkpt>
      <trkpt lat="44.6255" lon="5.78365">
        <ele>1706.1</ele>
        <time>2015-06-30T11:02:01Z</time>
      </trkpt>
      <trkpt lat="44.62551" lon="5.78363">
        <ele>1707.7</ele>
        <time>2015-06-30T11:02:06Z</time>
      </trkpt>
      <trkpt lat="44.62551" lon="5.78363">
        <ele>1707</ele>
        <time>2015-06-30T11:02:11Z</time>
      </trkpt>
      <trkpt lat="44.62552" lon="5.78364">
        <ele>1702.1</ele>
        <time>2015-06-30T11:02:16Z</time>
      </trkpt>
      <trkpt lat="44.62551" lon="5.78363">
        <ele>1704.1</ele>
        <time>2015-06-30T11:02:21Z</time>
      </trkpt>
      <trkpt lat="44.6255" lon="5.78361">
        <ele>1708.3</ele>
        <time>2015-06-30T11:02:26Z</time>
      </trkpt>
      <trkpt lat="44.62549" lon="5.78362">
        <ele>1710.3</ele>
        <time>2015-06-30T11:02:31Z</time>
      </trkpt>
      <trkpt lat="44.62549" lon="5.78362">
        <ele>1711.4</ele>
        <time>2015-06-30T11:02:36Z</time>
      </trkpt>
      <trkpt lat="44.62549" lon="5.78362">
        <ele>1710.8</ele>
        <time>2015-06-30T11:02:41Z</time>
      </trkpt>
      <trkpt lat="44.6255" lon="5.78363">
        <ele>1710.9</ele>
        <time>2015-06-30T11:02:46Z</time>
      </trkpt>
      <trkpt lat="44.62552" lon="5.78363">
        <ele>1711.7</ele>
        <time>2015-06-30T11:02:51Z</time>
      </trkpt>
      <trkpt lat="44.62551" lon="5.78365">
        <ele>1714</ele>
        <time>2015-06-30T11:02:56Z</time>
      </trkpt>
      <trkpt lat="44.62551" lon="5.78365">
        <ele>1714.5</ele>
        <time>2015-06-30T11:03:01Z</time>
      </trkpt>
      <trkpt lat="44.6255" lon="5.78366">
        <ele>1715.1</ele>
        <time>2015-06-30T11:03:06Z</time>
      </trkpt>
      <trkpt lat="44.6255" lon="5.78366">
        <ele>1716.1</ele>
        <time>2015-06-30T11:03:11Z</time>
      </trkpt>
      <trkpt lat="44.62549" lon="5.78366">
        <ele>1718.8</ele>
        <time>2015-06-30T11:03:16Z</time>
      </trkpt>
      <trkpt lat="44.62548" lon="5.78365">
        <ele>1723.3</ele>
        <time>2015-06-30T11:03:21Z</time>
      </trkpt>
      <trkpt lat="44.62548" lon="5.78364">
        <ele>1724.7</ele>
        <time>2015-06-30T11:03:26Z</time>
      </trkpt>
      <trkpt lat="44.62547" lon="5.78363">
        <ele>1726.3</ele>
        <time>2015-06-30T11:03:31Z</time>
      </trkpt>
      <trkpt lat="44.62546" lon="5.78365">
        <ele>1723.5</ele>
        <time>2015-06-30T11:03:36Z</time>
      </trkpt>
      <trkpt lat="44.62546" lon="5.78366">
        <ele>1720.4</ele>
        <time>2015-06-30T11:03:41Z</time>
      </trkpt>
      <trkpt lat="44.62545" lon="5.78366">
        <ele>1720.2</ele>
        <time>2015-06-30T11:03:46Z</time>
      </trkpt>
      <trkpt lat="44.62547" lon="5.78364">
        <ele>1718.8</ele>
        <time>2015-06-30T11:03:51Z</time>
      </trkpt>
      <trkpt lat="44.62547" lon="5.78363">
        <ele>1716.2</ele>
        <time>2015-06-30T11:03:56Z</time>
      </trkpt>
      <trkpt lat="44.62544" lon="5.78359">
        <ele>1714.9</ele>
        <time>2015-06-30T11:04:01Z</time>
      </trkpt>
      <trkpt lat="44.62545" lon="5.78358">
        <ele>1713.9</ele>
        <time>2015-06-30T11:04:06Z</time>
      </trkpt>
      <trkpt lat="44.62545" lon="5.78353">
        <ele>1721.1</ele>
        <time>2015-06-30T11:04:11Z</time>
      </trkpt>
      <trkpt lat="44.62545" lon="5.7835">
        <ele>1728.5</ele>
        <time>2015-06-30T11:04:16Z</time>
      </trkpt>
      <trkpt lat="44.62543" lon="5.7835">
        <ele>1729.8</ele>
        <time>2015-06-30T11:04:21Z</time>
      </trkpt>
      <trkpt lat="44.62544" lon="5.78351">
        <ele>1726.9</ele>
        <time>2015-06-30T11:04:26Z</time>
      </trkpt>
      <trkpt lat="44.62544" lon="5.78354">
        <ele>1724.2</ele>
        <time>2015-06-30T11:04:31Z</time>
      </trkpt>
      <trkpt lat="44.62545" lon="5.78354">
        <ele>1721.3</ele>
        <time>2015-06-30T11:04:36Z</time>
      </trkpt>
      <trkpt lat="44.62547" lon="5.78354">
        <ele>1720.8</ele>
        <time>2015-06-30T11:04:41Z</time>
      </trkpt>
      <trkpt lat="44.62548" lon="5.78355">
        <ele>1718.4</ele>
        <time>2015-06-30T11:04:46Z</time>
      </trkpt>
      <trkpt lat="44.62548" lon="5.78356">
        <ele>1717.9</ele>
        <time>2015-06-30T11:04:51Z</time>
      </trkpt>
      <trkpt lat="44.62547" lon="5.78355">
        <ele>1718.7</ele>
        <time>2015-06-30T11:04:56Z</time>
      </trkpt>
      <trkpt lat="44.62546" lon="5.78356">
        <ele>1717.9</ele>
        <time>2015-06-30T11:05:01Z</time>
      </trkpt>
      <trkpt lat="44.62546" lon="5.78359">
        <ele>1713.7</ele>
        <time>2015-06-30T11:05:06Z</time>
      </trkpt>
      <trkpt lat="44.62547" lon="5.7836">
        <ele>1711.7</ele>
        <time>2015-06-30T11:05:11Z</time>
      </trkpt>
      <trkpt lat="44.62548" lon="5.7836">
        <ele>1711.1</ele>
        <time>2015-06-30T11:05:16Z</time>
      </trkpt>
      <trkpt lat="44.62547" lon="5.78359">
        <ele>1711.6</ele>
        <time>2015-06-30T11:05:21Z</time>
      </trkpt>
      <trkpt lat="44.62548" lon="5.7836">
        <ele>1708.9</ele>
        <time>2015-06-30T11:05:26Z</time>
      </trkpt>
      <trkpt lat="44.62554" lon="5.78362">
        <ele>1708.7</ele>
        <time>2015-06-30T11:05:31Z</time>
      </trkpt>
      <trkpt lat="44.62553" lon="5.78361">
        <ele>1706.1</ele>
        <time>2015-06-30T11:05:36Z</time>
      </trkpt>
      <trkpt lat="44.62551" lon="5.7836">
        <ele>1706.1</ele>
        <time>2015-06-30T11:05:41Z</time>
      </trkpt>
      <trkpt lat="44.6255" lon="5.78359">
        <ele>1705.5</ele>
        <time>2015-06-30T11:05:46Z</time>
      </trkpt>
      <trkpt lat="44.6255" lon="5.78357">
        <ele>1710.7</ele>
        <time>2015-06-30T11:05:51Z</time>
      </trkpt>
      <trkpt lat="44.6255" lon="5.78357">
        <ele>1714.6</ele>
        <time>2015-06-30T11:05:56Z</time>
      </trkpt>
      <trkpt lat="44.62549" lon="5.78359">
        <ele>1716.2</ele>
        <time>2015-06-30T11:06:01Z</time>
      </trkpt>
      <trkpt lat="44.62549" lon="5.7836">
        <ele>1715.9</ele>
        <time>2015-06-30T11:06:06Z</time>
      </trkpt>
      <trkpt lat="44.62549" lon="5.78361">
        <ele>1716.1</ele>
        <time>2015-06-30T11:06:11Z</time>
      </trkpt>
      <trkpt lat="44.62549" lon="5.78362">
        <ele>1716.8</ele>
        <time>2015-06-30T11:06:16Z</time>
      </trkpt>
      <trkpt lat="44.62549" lon="5.7836">
        <ele>1719.1</ele>
        <time>2015-06-30T11:06:21Z</time>
      </trkpt>
      <trkpt lat="44.62549" lon="5.78359">
        <ele>1719.8</ele>
        <time>2015-06-30T11:06:26Z</time>
      </trkpt>
      <trkpt lat="44.62549" lon="5.78359">
        <ele>1717.6</ele>
        <time>2015-06-30T11:06:31Z</time>
      </trkpt>
      <trkpt lat="44.62549" lon="5.78357">
        <ele>1718.4</ele>
        <time>2015-06-30T11:06:36Z</time>
      </trkpt>
      <trkpt lat="44.62549" lon="5.78357">
        <ele>1721.4</ele>
        <time>2015-06-30T11:06:41Z</time>
      </trkpt>
      <trkpt lat="44.62549" lon="5.78357">
        <ele>1723.8</ele>
        <time>2015-06-30T11:06:46Z</time>
      </trkpt>
      <trkpt lat="44.62549" lon="5.7836">
        <ele>1722.5</ele>
        <time>2015-06-30T11:06:51Z</time>
      </trkpt>
      <trkpt lat="44.62548" lon="5.7836">
        <ele>1725</ele>
        <time>2015-06-30T11:06:56Z</time>
      </trkpt>
      <trkpt lat="44.6255" lon="5.78359">
        <ele>1723.6</ele>
        <time>2015-06-30T11:07:01Z</time>
      </trkpt>
      <trkpt lat="44.6255" lon="5.78357">
        <ele>1726</ele>
        <time>2015-06-30T11:07:06Z</time>
      </trkpt>
      <trkpt lat="44.62549" lon="5.78356">
        <ele>1727.3</ele>
        <time>2015-06-30T11:07:11Z</time>
      </trkpt>
      <trkpt lat="44.62547" lon="5.78357">
        <ele>1724.5</ele>
        <time>2015-06-30T11:07:16Z</time>
      </trkpt>
      <trkpt lat="44.62547" lon="5.78359">
        <ele>1720.2</ele>
        <time>2015-06-30T11:07:21Z</time>
      </trkpt>
      <trkpt lat="44.62547" lon="5.7836">
        <ele>1719.6</ele>
        <time>2015-06-30T11:07:26Z</time>
      </trkpt>
      <trkpt lat="44.62544" lon="5.7836">
        <ele>1717.9</ele>
        <time>2015-06-30T11:07:31Z</time>
      </trkpt>
      <trkpt lat="44.62544" lon="5.7836">
        <ele>1722</ele>
        <time>2015-06-30T11:07:36Z</time>
      </trkpt>
      <trkpt lat="44.62547" lon="5.78361">
        <ele>1721.3</ele>
        <time>2015-06-30T11:07:41Z</time>
      </trkpt>
      <trkpt lat="44.62549" lon="5.78363">
        <ele>1716.6</ele>
        <time>2015-06-30T11:07:46Z</time>
      </trkpt>
      <trkpt lat="44.6255" lon="5.78363">
        <ele>1716.1</ele>
        <time>2015-06-30T11:07:51Z</time>
      </trkpt>
      <trkpt lat="44.62551" lon="5.78362">
        <ele>1714.1</ele>
        <time>2015-06-30T11:07:56Z</time>
      </trkpt>
      <trkpt lat="44.62552" lon="5.78362">
        <ele>1711.8</ele>
        <time>2015-06-30T11:08:01Z</time>
      </trkpt>
      <trkpt lat="44.62553" lon="5.78363">
        <ele>1713.1</ele>
        <time>2015-06-30T11:08:06Z</time>
      </trkpt>
      <trkpt lat="44.62552" lon="5.78362">
        <ele>1715.8</ele>
        <time>2015-06-30T11:08:11Z</time>
      </trkpt>
      <trkpt lat="44.62555" lon="5.78364">
        <ele>1713.5</ele>
        <time>2015-06-30T11:08:16Z</time>
      </trkpt>
      <trkpt lat="44.62555" lon="5.78363">
        <ele>1712.2</ele>
        <time>2015-06-30T11:08:21Z</time>
      </trkpt>
      <trkpt lat="44.62553" lon="5.78361">
        <ele>1710.3</ele>
        <time>2015-06-30T11:08:26Z</time>
      </trkpt>
      <trkpt lat="44.62551" lon="5.78362">
        <ele>1710.1</ele>
        <time>2015-06-30T11:08:31Z</time>
      </trkpt>
      <trkpt lat="44.6255" lon="5.78361">
        <ele>1711</ele>
        <time>2015-06-30T11:08:36Z</time>
      </trkpt>
      <trkpt lat="44.6255" lon="5.7836">
        <ele>1711.4</ele>
        <time>2015-06-30T11:08:41Z</time>
      </trkpt>
      <trkpt lat="44.6255" lon="5.7836">
        <ele>1713</ele>
        <time>2015-06-30T11:08:46Z</time>
      </trkpt>
      <trkpt lat="44.62549" lon="5.78357">
        <ele>1715.5</ele>
        <time>2015-06-30T11:08:51Z</time>
      </trkpt>
      <trkpt lat="44.62548" lon="5.78356">
        <ele>1721.2</ele>
        <time>2015-06-30T11:08:56Z</time>
      </trkpt>
      <trkpt lat="44.62548" lon="5.78357">
        <ele>1723.2</ele>
        <time>2015-06-30T11:09:01Z</time>
      </trkpt>
      <trkpt lat="44.62548" lon="5.78355">
        <ele>1727.4</ele>
        <time>2015-06-30T11:09:06Z</time>
      </trkpt>
      <trkpt lat="44.62548" lon="5.78356">
        <ele>1725.3</ele>
        <time>2015-06-30T11:09:11Z</time>
      </trkpt>
      <trkpt lat="44.62547" lon="5.78358">
        <ele>1721.8</ele>
        <time>2015-06-30T11:09:16Z</time>
      </trkpt>
      <trkpt lat="44.62548" lon="5.78357">
        <ele>1721.1</ele>
        <time>2015-06-30T11:09:21Z</time>
      </trkpt>
      <trkpt lat="44.62547" lon="5.78357">
        <ele>1721.5</ele>
        <time>2015-06-30T11:09:26Z</time>
      </trkpt>
      <trkpt lat="44.62546" lon="5.78358">
        <ele>1721</ele>
        <time>2015-06-30T11:09:31Z</time>
      </trkpt>
      <trkpt lat="44.62546" lon="5.78358">
        <ele>1718.6</ele>
        <time>2015-06-30T11:09:36Z</time>
      </trkpt>
      <trkpt lat="44.62552" lon="5.78357">
        <ele>1716</ele>
        <time>2015-06-30T11:09:43Z</time>
      </trkpt>
      <trkpt lat="44.62551" lon="5.78357">
        <ele>1716.2</ele>
        <time>2015-06-30T11:09:48Z</time>
      </trkpt>
      <trkpt lat="44.6255" lon="5.78356">
        <ele>1716.1</ele>
        <time>2015-06-30T11:09:53Z</time>
      </trkpt>
      <trkpt lat="44.62547" lon="5.78361">
        <ele>1711.9</ele>
        <time>2015-06-30T11:09:58Z</time>
      </trkpt>
      <trkpt lat="44.62546" lon="5.78359">
        <ele>1712.5</ele>
        <time>2015-06-30T11:10:03Z</time>
      </trkpt>
      <trkpt lat="44.62545" lon="5.7836">
        <ele>1714.2</ele>
        <time>2015-06-30T11:10:08Z</time>
      </trkpt>
      <trkpt lat="44.62545" lon="5.7836">
        <ele>1715.1</ele>
        <time>2015-06-30T11:10:13Z</time>
      </trkpt>
      <trkpt lat="44.62544" lon="5.78361">
        <ele>1712</ele>
        <time>2015-06-30T11:10:18Z</time>
      </trkpt>
      <trkpt lat="44.62543" lon="5.78363">
        <ele>1707.7</ele>
        <time>2015-06-30T11:10:23Z</time>
      </trkpt>
      <trkpt lat="44.62545" lon="5.78362">
        <ele>1706.3</ele>
        <time>2015-06-30T11:10:28Z</time>
      </trkpt>
      <trkpt lat="44.62548" lon="5.78363">
        <ele>1709.1</ele>
        <time>2015-06-30T11:10:33Z</time>
      </trkpt>
      <trkpt lat="44.6255" lon="5.78363">
        <ele>1710.9</ele>
        <time>2015-06-30T11:10:38Z</time>
      </trkpt>
      <trkpt lat="44.62548" lon="5.78363">
        <ele>1713.1</ele>
        <time>2015-06-30T11:10:43Z</time>
      </trkpt>
      <trkpt lat="44.62547" lon="5.78361">
        <ele>1714.3</ele>
        <time>2015-06-30T11:10:48Z</time>
      </trkpt>
      <trkpt lat="44.62545" lon="5.78361">
        <ele>1712.9</ele>
        <time>2015-06-30T11:10:53Z</time>
      </trkpt>
      <trkpt lat="44.62547" lon="5.78362">
        <ele>1715.5</ele>
        <time>2015-06-30T11:10:58Z</time>
      </trkpt>
      <trkpt lat="44.62549" lon="5.7836">
        <ele>1715.1</ele>
        <time>2015-06-30T11:11:03Z</time>
      </trkpt>
      <trkpt lat="44.62549" lon="5.7836">
        <ele>1716.8</ele>
        <time>2015-06-30T11:11:08Z</time>
      </trkpt>
      <trkpt lat="44.6255" lon="5.78361">
        <ele>1715.9</ele>
        <time>2015-06-30T11:11:13Z</time>
      </trkpt>
      <trkpt lat="44.6255" lon="5.78362">
        <ele>1712.6</ele>
        <time>2015-06-30T11:11:18Z</time>
      </trkpt>
      <trkpt lat="44.6255" lon="5.78363">
        <ele>1713.6</ele>
        <time>2015-06-30T11:11:23Z</time>
      </trkpt>
      <trkpt lat="44.62553" lon="5.78363">
        <ele>1710.8</ele>
        <time>2015-06-30T11:11:28Z</time>
      </trkpt>
      <trkpt lat="44.62552" lon="5.78362">
        <ele>1710.2</ele>
        <time>2015-06-30T11:11:34Z</time>
      </trkpt>
      <trkpt lat="44.62552" lon="5.78362">
        <ele>1711.2</ele>
        <time>2015-06-30T11:11:39Z</time>
      </trkpt>
      <trkpt lat="44.62551" lon="5.78361">
        <ele>1709.1</ele>
        <time>2015-06-30T11:11:45Z</time>
      </trkpt>
      <trkpt lat="44.62549" lon="5.7836">
        <ele>1711.5</ele>
        <time>2015-06-30T11:11:50Z</time>
      </trkpt>
      <trkpt lat="44.62548" lon="5.78361">
        <ele>1714.3</ele>
        <time>2015-06-30T11:11:55Z</time>
      </trkpt>
      <trkpt lat="44.62547" lon="5.78363">
        <ele>1716.6</ele>
        <time>2015-06-30T11:12:00Z</time>
      </trkpt>
      <trkpt lat="44.62549" lon="5.78363">
        <ele>1715.2</ele>
        <time>2015-06-30T11:12:05Z</time>
      </trkpt>
      <trkpt lat="44.6255" lon="5.78363">
        <ele>1712.5</ele>
        <time>2015-06-30T11:12:10Z</time>
      </trkpt>
      <trkpt lat="44.62551" lon="5.78362">
        <ele>1711.9</ele>
        <time>2015-06-30T11:12:15Z</time>
      </trkpt>
      <trkpt lat="44.62553" lon="5.7836">
        <ele>1710.2</ele>
        <time>2015-06-30T11:12:20Z</time>
      </trkpt>
      <trkpt lat="44.62553" lon="5.78359">
        <ele>1709.4</ele>
        <time>2015-06-30T11:12:25Z</time>
      </trkpt>
      <trkpt lat="44.62555" lon="5.78357">
        <ele>1711.9</ele>
        <time>2015-06-30T11:12:30Z</time>
      </trkpt>
      <trkpt lat="44.62555" lon="5.78358">
        <ele>1710</ele>
        <time>2015-06-30T11:12:35Z</time>
      </trkpt>
      <trkpt lat="44.62554" lon="5.78357">
        <ele>1708.6</ele>
        <time>2015-06-30T11:12:40Z</time>
      </trkpt>
      <trkpt lat="44.6255" lon="5.78359">
        <ele>1708.3</ele>
        <time>2015-06-30T11:12:45Z</time>
      </trkpt>
      <trkpt lat="44.6255" lon="5.7836">
        <ele>1706.9</ele>
        <time>2015-06-30T11:12:50Z</time>
      </trkpt>
      <trkpt lat="44.62549" lon="5.78361">
        <ele>1706</ele>
        <time>2015-06-30T11:12:55Z</time>
      </trkpt>
      <trkpt lat="44.62548" lon="5.78362">
        <ele>1705.2</ele>
        <time>2015-06-30T11:13:00Z</time>
      </trkpt>
      <trkpt lat="44.62548" lon="5.78363">
        <ele>1704.2</ele>
        <time>2015-06-30T11:13:05Z</time>
      </trkpt>
      <trkpt lat="44.62547" lon="5.78365">
        <ele>1705.7</ele>
        <time>2015-06-30T11:13:10Z</time>
      </trkpt>
      <trkpt lat="44.62547" lon="5.78364">
        <ele>1706</ele>
        <time>2015-06-30T11:13:15Z</time>
      </trkpt>
      <trkpt lat="44.62549" lon="5.78363">
        <ele>1705.9</ele>
        <time>2015-06-30T11:13:20Z</time>
      </trkpt>
      <trkpt lat="44.62551" lon="5.78363">
        <ele>1708.3</ele>
        <time>2015-06-30T11:13:25Z</time>
      </trkpt>
      <trkpt lat="44.62552" lon="5.78362">
        <ele>1707.9</ele>
        <time>2015-06-30T11:13:30Z</time>
      </trkpt>
      <trkpt lat="44.62552" lon="5.7836">
        <ele>1708.3</ele>
        <time>2015-06-30T11:13:35Z</time>
      </trkpt>
      <trkpt lat="44.62552" lon="5.7836">
        <ele>1708.1</ele>
        <time>2015-06-30T11:13:40Z</time>
      </trkpt>
      <trkpt lat="44.62552" lon="5.78361">
        <ele>1708.3</ele>
        <time>2015-06-30T11:13:45Z</time>
      </trkpt>
      <trkpt lat="44.62551" lon="5.78359">
        <ele>1709.7</ele>
        <time>2015-06-30T11:13:50Z</time>
      </trkpt>
      <trkpt lat="44.62551" lon="5.78359">
        <ele>1708.5</ele>
        <time>2015-06-30T11:13:55Z</time>
      </trkpt>
      <trkpt lat="44.6255" lon="5.78358">
        <ele>1707.4</ele>
        <time>2015-06-30T11:14:00Z</time>
      </trkpt>
      <trkpt lat="44.62551" lon="5.78357">
        <ele>1707.5</ele>
        <time>2015-06-30T11:14:05Z</time>
      </trkpt>
      <trkpt lat="44.62551" lon="5.78358">
        <ele>1705.9</ele>
        <time>2015-06-30T11:14:10Z</time>
      </trkpt>
      <trkpt lat="44.6255" lon="5.78358">
        <ele>1708</ele>
        <time>2015-06-30T11:14:15Z</time>
      </trkpt>
      <trkpt lat="44.6255" lon="5.78358">
        <ele>1707.1</ele>
        <time>2015-06-30T11:14:20Z</time>
      </trkpt>
      <trkpt lat="44.62549" lon="5.78357">
        <ele>1709.8</ele>
        <time>2015-06-30T11:14:25Z</time>
      </trkpt>
      <trkpt lat="44.62548" lon="5.78357">
        <ele>1710.8</ele>
        <time>2015-06-30T11:14:30Z</time>
      </trkpt>
      <trkpt lat="44.6255" lon="5.78361">
        <ele>1714.1</ele>
        <time>2015-06-30T11:14:35Z</time>
      </trkpt>
      <trkpt lat="44.6255" lon="5.78361">
        <ele>1714.6</ele>
        <time>2015-06-30T11:14:40Z</time>
      </trkpt>
      <trkpt lat="44.6255" lon="5.78361">
        <ele>1712.8</ele>
        <time>2015-06-30T11:14:45Z</time>
      </trkpt>
      <trkpt lat="44.6255" lon="5.78363">
        <ele>1710.2</ele>
        <time>2015-06-30T11:14:50Z</time>
      </trkpt>
      <trkpt lat="44.62548" lon="5.78363">
        <ele>1709.9</ele>
        <time>2015-06-30T11:14:55Z</time>
      </trkpt>
      <trkpt lat="44.62549" lon="5.78362">
        <ele>1710.2</ele>
        <time>2015-06-30T11:15:00Z</time>
      </trkpt>
      <trkpt lat="44.62549" lon="5.78361">
        <ele>1709.7</ele>
        <time>2015-06-30T11:15:05Z</time>
      </trkpt>
      <trkpt lat="44.6255" lon="5.78361">
        <ele>1710.8</ele>
        <time>2015-06-30T11:15:10Z</time>
      </trkpt>
      <trkpt lat="44.62551" lon="5.78361">
        <ele>1712.8</ele>
        <time>2015-06-30T11:15:15Z</time>
      </trkpt>
      <trkpt lat="44.62551" lon="5.78363">
        <ele>1713.3</ele>
        <time>2015-06-30T11:15:20Z</time>
      </trkpt>
      <trkpt lat="44.62551" lon="5.7836">
        <ele>1715.8</ele>
        <time>2015-06-30T11:15:25Z</time>
      </trkpt>
      <trkpt lat="44.62551" lon="5.7836">
        <ele>1714.3</ele>
        <time>2015-06-30T11:15:30Z</time>
      </trkpt>
      <trkpt lat="44.6255" lon="5.78359">
        <ele>1711.4</ele>
        <time>2015-06-30T11:15:35Z</time>
      </trkpt>
      <trkpt lat="44.62549" lon="5.78361">
        <ele>1717.5</ele>
        <time>2015-06-30T11:15:40Z</time>
      </trkpt>
      <trkpt lat="44.62549" lon="5.78359">
        <ele>1717.3</ele>
        <time>2015-06-30T11:15:45Z</time>
      </trkpt>
      <trkpt lat="44.62549" lon="5.78359">
        <ele>1711.9</ele>
        <time>2015-06-30T11:15:50Z</time>
      </trkpt>
      <trkpt lat="44.62549" lon="5.78359">
        <ele>1709.2</ele>
        <time>2015-06-30T11:15:55Z</time>
      </trkpt>
      <trkpt lat="44.62547" lon="5.7836">
        <ele>1707.6</ele>
        <time>2015-06-30T11:16:00Z</time>
      </trkpt>
      <trkpt lat="44.6255" lon="5.78359">
        <ele>1706.9</ele>
        <time>2015-06-30T11:16:05Z</time>
      </trkpt>
      <trkpt lat="44.6255" lon="5.78357">
        <ele>1705.8</ele>
        <time>2015-06-30T11:16:10Z</time>
      </trkpt>
      <trkpt lat="44.62551" lon="5.78358">
        <ele>1705.9</ele>
        <time>2015-06-30T11:16:15Z</time>
      </trkpt>
      <trkpt lat="44.62551" lon="5.78359">
        <ele>1705.2</ele>
        <time>2015-06-30T11:16:20Z</time>
      </trkpt>
      <trkpt lat="44.6255" lon="5.78358">
        <ele>1705.6</ele>
        <time>2015-06-30T11:16:25Z</time>
      </trkpt>
      <trkpt lat="44.6255" lon="5.78358">
        <ele>1701.7</ele>
        <time>2015-06-30T11:16:30Z</time>
      </trkpt>
      <trkpt lat="44.6255" lon="5.78357">
        <ele>1702.9</ele>
        <time>2015-06-30T11:16:35Z</time>
      </trkpt>
      <trkpt lat="44.62548" lon="5.7836">
        <ele>1702.2</ele>
        <time>2015-06-30T11:16:40Z</time>
      </trkpt>
      <trkpt lat="44.62547" lon="5.78359">
        <ele>1701.3</ele>
        <time>2015-06-30T11:16:45Z</time>
      </trkpt>
      <trkpt lat="44.62545" lon="5.78357">
        <ele>1697.5</ele>
        <time>2015-06-30T11:16:50Z</time>
      </trkpt>
      <trkpt lat="44.62545" lon="5.78357">
        <ele>1698</ele>
        <time>2015-06-30T11:16:55Z</time>
      </trkpt>
      <trkpt lat="44.62546" lon="5.78358">
        <ele>1698.3</ele>
        <time>2015-06-30T11:17:00Z</time>
      </trkpt>
      <trkpt lat="44.62547" lon="5.78359">
        <ele>1702.8</ele>
        <time>2015-06-30T11:17:05Z</time>
      </trkpt>
      <trkpt lat="44.62547" lon="5.78361">
        <ele>1710.4</ele>
        <time>2015-06-30T11:17:10Z</time>
      </trkpt>
      <trkpt lat="44.62545" lon="5.78362">
        <ele>1711.3</ele>
        <time>2015-06-30T11:17:15Z</time>
      </trkpt>
      <trkpt lat="44.62544" lon="5.78363">
        <ele>1705.1</ele>
        <time>2015-06-30T11:17:20Z</time>
      </trkpt>
      <trkpt lat="44.62547" lon="5.7836">
        <ele>1703.2</ele>
        <time>2015-06-30T11:17:25Z</time>
      </trkpt>
      <trkpt lat="44.62549" lon="5.78361">
        <ele>1703.5</ele>
        <time>2015-06-30T11:17:30Z</time>
      </trkpt>
      <trkpt lat="44.62549" lon="5.78361">
        <ele>1702</ele>
        <time>2015-06-30T11:17:35Z</time>
      </trkpt>
      <trkpt lat="44.62548" lon="5.78359">
        <ele>1705.9</ele>
        <time>2015-06-30T11:17:40Z</time>
      </trkpt>
      <trkpt lat="44.62549" lon="5.78359">
        <ele>1706.9</ele>
        <time>2015-06-30T11:17:45Z</time>
      </trkpt>
      <trkpt lat="44.6255" lon="5.78359">
        <ele>1707</ele>
        <time>2015-06-30T11:17:50Z</time>
      </trkpt>
      <trkpt lat="44.62551" lon="5.78359">
        <ele>1706.7</ele>
        <time>2015-06-30T11:17:55Z</time>
      </trkpt>
      <trkpt lat="44.6255" lon="5.78359">
        <ele>1704.1</ele>
        <time>2015-06-30T11:18:00Z</time>
      </trkpt>
      <trkpt lat="44.6255" lon="5.78358">
        <ele>1704.4</ele>
        <time>2015-06-30T11:18:05Z</time>
      </trkpt>
      <trkpt lat="44.62549" lon="5.78359">
        <ele>1705.9</ele>
        <time>2015-06-30T11:18:10Z</time>
      </trkpt>
      <trkpt lat="44.62549" lon="5.7836">
        <ele>1707.6</ele>
        <time>2015-06-30T11:18:15Z</time>
      </trkpt>
      <trkpt lat="44.62548" lon="5.78359">
        <ele>1707.6</ele>
        <time>2015-06-30T11:18:20Z</time>
      </trkpt>
      <trkpt lat="44.6255" lon="5.78359">
        <ele>1707.7</ele>
        <time>2015-06-30T11:18:25Z</time>
      </trkpt>
      <trkpt lat="44.62551" lon="5.78359">
        <ele>1709</ele>
        <time>2015-06-30T11:18:30Z</time>
      </trkpt>
      <trkpt lat="44.6255" lon="5.78359">
        <ele>1709.2</ele>
        <time>2015-06-30T11:18:35Z</time>
      </trkpt>
      <trkpt lat="44.6255" lon="5.7836">
        <ele>1707.3</ele>
        <time>2015-06-30T11:18:40Z</time>
      </trkpt>
      <trkpt lat="44.62551" lon="5.78359">
        <ele>1708.6</ele>
        <time>2015-06-30T11:18:45Z</time>
      </trkpt>
      <trkpt lat="44.62551" lon="5.78359">
        <ele>1710.1</ele>
        <time>2015-06-30T11:18:50Z</time>
      </trkpt>
      <trkpt lat="44.62552" lon="5.78358">
        <ele>1708.5</ele>
        <time>2015-06-30T11:18:55Z</time>
      </trkpt>
      <trkpt lat="44.62551" lon="5.78357">
        <ele>1707.8</ele>
        <time>2015-06-30T11:19:00Z</time>
      </trkpt>
      <trkpt lat="44.6255" lon="5.78357">
        <ele>1708.8</ele>
        <time>2015-06-30T11:19:05Z</time>
      </trkpt>
      <trkpt lat="44.62552" lon="5.78358">
        <ele>1709.2</ele>
        <time>2015-06-30T11:19:10Z</time>
      </trkpt>
      <trkpt lat="44.62552" lon="5.78356">
        <ele>1709.5</ele>
        <time>2015-06-30T11:19:15Z</time>
      </trkpt>
      <trkpt lat="44.62552" lon="5.78357">
        <ele>1707.5</ele>
        <time>2015-06-30T11:19:20Z</time>
      </trkpt>
      <trkpt lat="44.62549" lon="5.78357">
        <ele>1704.7</ele>
        <time>2015-06-30T11:19:25Z</time>
      </trkpt>
      <trkpt lat="44.62544" lon="5.7836">
        <ele>1699.3</ele>
        <time>2015-06-30T11:19:30Z</time>
      </trkpt>
      <trkpt lat="44.62544" lon="5.78362">
        <ele>1693.1</ele>
        <time>2015-06-30T11:19:35Z</time>
      </trkpt>
      <trkpt lat="44.62542" lon="5.78362">
        <ele>1690</ele>
        <time>2015-06-30T11:19:40Z</time>
      </trkpt>
      <trkpt lat="44.62543" lon="5.78362">
        <ele>1691.2</ele>
        <time>2015-06-30T11:19:45Z</time>
      </trkpt>
      <trkpt lat="44.62544" lon="5.78364">
        <ele>1689.7</ele>
        <time>2015-06-30T11:19:50Z</time>
      </trkpt>
      <trkpt lat="44.62545" lon="5.78364">
        <ele>1690.7</ele>
        <time>2015-06-30T11:19:55Z</time>
      </trkpt>
      <trkpt lat="44.62546" lon="5.78362">
        <ele>1695.8</ele>
        <time>2015-06-30T11:20:00Z</time>
      </trkpt>
      <trkpt lat="44.62546" lon="5.78362">
        <ele>1696</ele>
        <time>2015-06-30T11:20:05Z</time>
      </trkpt>
      <trkpt lat="44.62548" lon="5.78362">
        <ele>1695.8</ele>
        <time>2015-06-30T11:20:10Z</time>
      </trkpt>
      <trkpt lat="44.62546" lon="5.78362">
        <ele>1693.7</ele>
        <time>2015-06-30T11:20:15Z</time>
      </trkpt>
      <trkpt lat="44.62544" lon="5.78363">
        <ele>1698.2</ele>
        <time>2015-06-30T11:20:20Z</time>
      </trkpt>
      <trkpt lat="44.62544" lon="5.78364">
        <ele>1699.7</ele>
        <time>2015-06-30T11:20:25Z</time>
      </trkpt>
      <trkpt lat="44.62544" lon="5.78363">
        <ele>1700.7</ele>
        <time>2015-06-30T11:20:30Z</time>
      </trkpt>
      <trkpt lat="44.62543" lon="5.78361">
        <ele>1699.9</ele>
        <time>2015-06-30T11:20:35Z</time>
      </trkpt>
      <trkpt lat="44.62544" lon="5.7836">
        <ele>1696.8</ele>
        <time>2015-06-30T11:20:40Z</time>
      </trkpt>
      <trkpt lat="44.62542" lon="5.78363">
        <ele>1689.5</ele>
        <time>2015-06-30T11:20:45Z</time>
      </trkpt>
      <trkpt lat="44.62545" lon="5.78363">
        <ele>1688.1</ele>
        <time>2015-06-30T11:20:51Z</time>
      </trkpt>
      <trkpt lat="44.62544" lon="5.78357">
        <ele>1686.3</ele>
        <time>2015-06-30T11:20:56Z</time>
      </trkpt>
      <trkpt lat="44.62544" lon="5.78358">
        <ele>1686.7</ele>
        <time>2015-06-30T11:21:01Z</time>
      </trkpt>
      <trkpt lat="44.62543" lon="5.78359">
        <ele>1690.5</ele>
        <time>2015-06-30T11:21:06Z</time>
      </trkpt>
      <trkpt lat="44.62545" lon="5.7836">
        <ele>1691.9</ele>
        <time>2015-06-30T11:21:11Z</time>
      </trkpt>
      <trkpt lat="44.62548" lon="5.7836">
        <ele>1696.4</ele>
        <time>2015-06-30T11:21:16Z</time>
      </trkpt>
      <trkpt lat="44.62547" lon="5.78361">
        <ele>1700.9</ele>
        <time>2015-06-30T11:21:21Z</time>
      </trkpt>
      <trkpt lat="44.62547" lon="5.78364">
        <ele>1705.3</ele>
        <time>2015-06-30T11:21:26Z</time>
      </trkpt>
      <trkpt lat="44.62547" lon="5.78364">
        <ele>1704.7</ele>
        <time>2015-06-30T11:21:31Z</time>
      </trkpt>
      <trkpt lat="44.62548" lon="5.78363">
        <ele>1705.9</ele>
        <time>2015-06-30T11:21:36Z</time>
      </trkpt>
      <trkpt lat="44.62549" lon="5.78363">
        <ele>1708.5</ele>
        <time>2015-06-30T11:21:41Z</time>
      </trkpt>
      <trkpt lat="44.62549" lon="5.78362">
        <ele>1708.6</ele>
        <time>2015-06-30T11:21:46Z</time>
      </trkpt>
      <trkpt lat="44.62548" lon="5.78361">
        <ele>1707.2</ele>
        <time>2015-06-30T11:21:51Z</time>
      </trkpt>
      <trkpt lat="44.62549" lon="5.7836">
        <ele>1707.2</ele>
        <time>2015-06-30T11:21:56Z</time>
      </trkpt>
      <trkpt lat="44.62551" lon="5.7836">
        <ele>1706.3</ele>
        <time>2015-06-30T11:22:01Z</time>
      </trkpt>
      <trkpt lat="44.62552" lon="5.78361">
        <ele>1705</ele>
        <time>2015-06-30T11:22:06Z</time>
      </trkpt>
      <trkpt lat="44.62552" lon="5.78361">
        <ele>1704.6</ele>
        <time>2015-06-30T11:22:11Z</time>
      </trkpt>
      <trkpt lat="44.62554" lon="5.7836">
        <ele>1703.8</ele>
        <time>2015-06-30T11:22:16Z</time>
      </trkpt>
      <trkpt lat="44.62553" lon="5.78359">
        <ele>1702.7</ele>
        <time>2015-06-30T11:22:21Z</time>
      </trkpt>
      <trkpt lat="44.62551" lon="5.7836">
        <ele>1700.5</ele>
        <time>2015-06-30T11:22:26Z</time>
      </trkpt>
      <trkpt lat="44.6255" lon="5.78363">
        <ele>1695.5</ele>
        <time>2015-06-30T11:22:31Z</time>
      </trkpt>
      <trkpt lat="44.62551" lon="5.78362">
        <ele>1694</ele>
        <time>2015-06-30T11:22:36Z</time>
      </trkpt>
      <trkpt lat="44.62551" lon="5.78363">
        <ele>1694.1</ele>
        <time>2015-06-30T11:22:41Z</time>
      </trkpt>
      <trkpt lat="44.62549" lon="5.78364">
        <ele>1694.3</ele>
        <time>2015-06-30T11:22:46Z</time>
      </trkpt>
      <trkpt lat="44.62547" lon="5.78362">
        <ele>1695.2</ele>
        <time>2015-06-30T11:22:52Z</time>
      </trkpt>
      <trkpt lat="44.62552" lon="5.78359">
        <ele>1700.1</ele>
        <time>2015-06-30T11:22:57Z</time>
      </trkpt>
      <trkpt lat="44.62553" lon="5.78358">
        <ele>1703.9</ele>
        <time>2015-06-30T11:23:02Z</time>
      </trkpt>
      <trkpt lat="44.62552" lon="5.78359">
        <ele>1706.8</ele>
        <time>2015-06-30T11:23:07Z</time>
      </trkpt>
      <trkpt lat="44.6255" lon="5.78361">
        <ele>1707.2</ele>
        <time>2015-06-30T11:23:12Z</time>
      </trkpt>
      <trkpt lat="44.6255" lon="5.78359">
        <ele>1707.7</ele>
        <time>2015-06-30T11:23:17Z</time>
      </trkpt>
      <trkpt lat="44.62549" lon="5.78358">
        <ele>1708.1</ele>
        <time>2015-06-30T11:23:22Z</time>
      </trkpt>
      <trkpt lat="44.62548" lon="5.78358">
        <ele>1706.4</ele>
        <time>2015-06-30T11:23:27Z</time>
      </trkpt>
      <trkpt lat="44.62548" lon="5.78358">
        <ele>1704.4</ele>
        <time>2015-06-30T11:23:32Z</time>
      </trkpt>
      <trkpt lat="44.62548" lon="5.78357">
        <ele>1705.3</ele>
        <time>2015-06-30T11:23:37Z</time>
      </trkpt>
      <trkpt lat="44.62549" lon="5.78357">
        <ele>1705</ele>
        <time>2015-06-30T11:23:42Z</time>
      </trkpt>
      <trkpt lat="44.62548" lon="5.78358">
        <ele>1705.9</ele>
        <time>2015-06-30T11:23:47Z</time>
      </trkpt>
      <trkpt lat="44.62549" lon="5.78362">
        <ele>1707.5</ele>
        <time>2015-06-30T11:23:52Z</time>
      </trkpt>
      <trkpt lat="44.62549" lon="5.78362">
        <ele>1708.5</ele>
        <time>2015-06-30T11:23:57Z</time>
      </trkpt>
      <trkpt lat="44.62549" lon="5.78363">
        <ele>1706.2</ele>
        <time>2015-06-30T11:24:02Z</time>
      </trkpt>
      <trkpt lat="44.62549" lon="5.78363">
        <ele>1705.9</ele>
        <time>2015-06-30T11:24:07Z</time>
      </trkpt>
      <trkpt lat="44.6255" lon="5.7836">
        <ele>1709.4</ele>
        <time>2015-06-30T11:24:12Z</time>
      </trkpt>
      <trkpt lat="44.62551" lon="5.7836">
        <ele>1709.9</ele>
        <time>2015-06-30T11:24:17Z</time>
      </trkpt>
      <trkpt lat="44.62551" lon="5.78361">
        <ele>1711.2</ele>
        <time>2015-06-30T11:24:22Z</time>
      </trkpt>
      <trkpt lat="44.62552" lon="5.78362">
        <ele>1711.2</ele>
        <time>2015-06-30T11:24:27Z</time>
      </trkpt>
      <trkpt lat="44.62552" lon="5.78362">
        <ele>1709.3</ele>
        <time>2015-06-30T11:24:32Z</time>
      </trkpt>
      <trkpt lat="44.62552" lon="5.78363">
        <ele>1708.4</ele>
        <time>2015-06-30T11:24:37Z</time>
      </trkpt>
      <trkpt lat="44.62553" lon="5.78364">
        <ele>1707.3</ele>
        <time>2015-06-30T11:24:42Z</time>
      </trkpt>
      <trkpt lat="44.62552" lon="5.78362">
        <ele>1707.6</ele>
        <time>2015-06-30T11:24:47Z</time>
      </trkpt>
      <trkpt lat="44.62551" lon="5.78361">
        <ele>1702.7</ele>
        <time>2015-06-30T11:24:52Z</time>
      </trkpt>
      <trkpt lat="44.6255" lon="5.78362">
        <ele>1700.8</ele>
        <time>2015-06-30T11:24:57Z</time>
      </trkpt>
      <trkpt lat="44.62548" lon="5.78363">
        <ele>1697.7</ele>
        <time>2015-06-30T11:25:02Z</time>
      </trkpt>
      <trkpt lat="44.62549" lon="5.78362">
        <ele>1696.5</ele>
        <time>2015-06-30T11:25:07Z</time>
      </trkpt>
      <trkpt lat="44.6255" lon="5.7836">
        <ele>1698.2</ele>
        <time>2015-06-30T11:25:12Z</time>
      </trkpt>
      <trkpt lat="44.6255" lon="5.78361">
        <ele>1699.7</ele>
        <time>2015-06-30T11:25:17Z</time>
      </trkpt>
      <trkpt lat="44.6255" lon="5.78359">
        <ele>1699.1</ele>
        <time>2015-06-30T11:25:22Z</time>
      </trkpt>
      <trkpt lat="44.6255" lon="5.78356">
        <ele>1697.4</ele>
        <time>2015-06-30T11:25:27Z</time>
      </trkpt>
      <trkpt lat="44.6255" lon="5.78357">
        <ele>1697.5</ele>
        <time>2015-06-30T11:25:32Z</time>
      </trkpt>
      <trkpt lat="44.6255" lon="5.78358">
        <ele>1698.1</ele>
        <time>2015-06-30T11:25:37Z</time>
      </trkpt>
      <trkpt lat="44.6255" lon="5.78357">
        <ele>1697.4</ele>
        <time>2015-06-30T11:25:42Z</time>
      </trkpt>
      <trkpt lat="44.62549" lon="5.78353">
        <ele>1698.3</ele>
        <time>2015-06-30T11:25:47Z</time>
      </trkpt>
      <trkpt lat="44.62548" lon="5.7835">
        <ele>1699.5</ele>
        <time>2015-06-30T11:25:52Z</time>
      </trkpt>
      <trkpt lat="44.62549" lon="5.78352">
        <ele>1700.6</ele>
        <time>2015-06-30T11:25:57Z</time>
      </trkpt>
      <trkpt lat="44.62549" lon="5.78352">
        <ele>1701.3</ele>
        <time>2015-06-30T11:26:02Z</time>
      </trkpt>
      <trkpt lat="44.62549" lon="5.78351">
        <ele>1702.4</ele>
        <time>2015-06-30T11:26:07Z</time>
      </trkpt>
      <trkpt lat="44.62548" lon="5.78352">
        <ele>1703.5</ele>
        <time>2015-06-30T11:26:12Z</time>
      </trkpt>
      <trkpt lat="44.62547" lon="5.78352">
        <ele>1704.5</ele>
        <time>2015-06-30T11:26:17Z</time>
      </trkpt>
      <trkpt lat="44.62547" lon="5.78351">
        <ele>1706.3</ele>
        <time>2015-06-30T11:26:22Z</time>
      </trkpt>
      <trkpt lat="44.62547" lon="5.78351">
        <ele>1705.2</ele>
        <time>2015-06-30T11:26:27Z</time>
      </trkpt>
      <trkpt lat="44.62543" lon="5.78349">
        <ele>1703.5</ele>
        <time>2015-06-30T11:26:32Z</time>
      </trkpt>
      <trkpt lat="44.62541" lon="5.78353">
        <ele>1701.5</ele>
        <time>2015-06-30T11:26:37Z</time>
      </trkpt>
      <trkpt lat="44.62541" lon="5.78355">
        <ele>1698.6</ele>
        <time>2015-06-30T11:26:42Z</time>
      </trkpt>
      <trkpt lat="44.62541" lon="5.78357">
        <ele>1696.3</ele>
        <time>2015-06-30T11:26:47Z</time>
      </trkpt>
      <trkpt lat="44.62542" lon="5.78358">
        <ele>1696.1</ele>
        <time>2015-06-30T11:26:52Z</time>
      </trkpt>
      <trkpt lat="44.62542" lon="5.78357">
        <ele>1697.3</ele>
        <time>2015-06-30T11:26:57Z</time>
      </trkpt>
      <trkpt lat="44.62544" lon="5.78358">
        <ele>1700.2</ele>
        <time>2015-06-30T11:27:02Z</time>
      </trkpt>
      <trkpt lat="44.62545" lon="5.78354">
        <ele>1703.8</ele>
        <time>2015-06-30T11:27:07Z</time>
      </trkpt>
      <trkpt lat="44.62547" lon="5.7835">
        <ele>1701.1</ele>
        <time>2015-06-30T11:27:12Z</time>
      </trkpt>
      <trkpt lat="44.62545" lon="5.78351">
        <ele>1699.2</ele>
        <time>2015-06-30T11:27:17Z</time>
      </trkpt>
      <trkpt lat="44.62545" lon="5.7835">
        <ele>1697.3</ele>
        <time>2015-06-30T11:27:22Z</time>
      </trkpt>
      <trkpt lat="44.62545" lon="5.7835">
        <ele>1696.3</ele>
        <time>2015-06-30T11:27:27Z</time>
      </trkpt>
      <trkpt lat="44.62546" lon="5.78348">
        <ele>1696.3</ele>
        <time>2015-06-30T11:27:32Z</time>
      </trkpt>
      <trkpt lat="44.62548" lon="5.78345">
        <ele>1698.7</ele>
        <time>2015-06-30T11:27:37Z</time>
      </trkpt>
      <trkpt lat="44.62549" lon="5.78342">
        <ele>1698</ele>
        <time>2015-06-30T11:27:42Z</time>
      </trkpt>
      <trkpt lat="44.62546" lon="5.78346">
        <ele>1696.7</ele>
        <time>2015-06-30T11:27:47Z</time>
      </trkpt>
      <trkpt lat="44.62545" lon="5.78352">
        <ele>1694.9</ele>
        <time>2015-06-30T11:27:52Z</time>
      </trkpt>
      <trkpt lat="44.62543" lon="5.78357">
        <ele>1693.9</ele>
        <time>2015-06-30T11:27:57Z</time>
      </trkpt>
      <trkpt lat="44.62541" lon="5.78358">
        <ele>1692.3</ele>
        <time>2015-06-30T11:28:02Z</time>
      </trkpt>
      <trkpt lat="44.62538" lon="5.78364">
        <ele>1694</ele>
        <time>2015-06-30T11:28:07Z</time>
      </trkpt>
      <trkpt lat="44.62536" lon="5.78367">
        <ele>1696</ele>
        <time>2015-06-30T11:28:12Z</time>
      </trkpt>
      <trkpt lat="44.62535" lon="5.78367">
        <ele>1699.6</ele>
        <time>2015-06-30T11:28:17Z</time>
      </trkpt>
      <trkpt lat="44.62534" lon="5.78368">
        <ele>1698.6</ele>
        <time>2015-06-30T11:28:22Z</time>
      </trkpt>
      <trkpt lat="44.62534" lon="5.78374">
        <ele>1694.5</ele>
        <time>2015-06-30T11:28:27Z</time>
      </trkpt>
      <trkpt lat="44.62534" lon="5.78378">
        <ele>1694.4</ele>
        <time>2015-06-30T11:28:32Z</time>
      </trkpt>
      <trkpt lat="44.62534" lon="5.78384">
        <ele>1695.3</ele>
        <time>2015-06-30T11:28:37Z</time>
      </trkpt>
      <trkpt lat="44.62534" lon="5.7839">
        <ele>1695.5</ele>
        <time>2015-06-30T11:28:42Z</time>
      </trkpt>
      <trkpt lat="44.62535" lon="5.78399">
        <ele>1698.9</ele>
        <time>2015-06-30T11:28:47Z</time>
      </trkpt>
      <trkpt lat="44.62537" lon="5.78406">
        <ele>1703</ele>
        <time>2015-06-30T11:28:52Z</time>
      </trkpt>
      <trkpt lat="44.62539" lon="5.78415">
        <ele>1709.4</ele>
        <time>2015-06-30T11:28:57Z</time>
      </trkpt>
      <trkpt lat="44.6254" lon="5.78422">
        <ele>1707.2</ele>
        <time>2015-06-30T11:29:02Z</time>
      </trkpt>
      <trkpt lat="44.6254" lon="5.78429">
        <ele>1706</ele>
        <time>2015-06-30T11:29:07Z</time>
      </trkpt>
      <trkpt lat="44.6254" lon="5.78435">
        <ele>1708.6</ele>
        <time>2015-06-30T11:29:12Z</time>
      </trkpt>
      <trkpt lat="44.62537" lon="5.78442">
        <ele>1707</ele>
        <time>2015-06-30T11:29:17Z</time>
      </trkpt>
      <trkpt lat="44.62535" lon="5.78449">
        <ele>1706</ele>
        <time>2015-06-30T11:29:22Z</time>
      </trkpt>
      <trkpt lat="44.62534" lon="5.78455">
        <ele>1704.8</ele>
        <time>2015-06-30T11:29:27Z</time>
      </trkpt>
      <trkpt lat="44.62532" lon="5.78463">
        <ele>1703.4</ele>
        <time>2015-06-30T11:29:32Z</time>
      </trkpt>
      <trkpt lat="44.6253" lon="5.78471">
        <ele>1702.2</ele>
        <time>2015-06-30T11:29:37Z</time>
      </trkpt>
      <trkpt lat="44.62529" lon="5.78478">
        <ele>1701.9</ele>
        <time>2015-06-30T11:29:42Z</time>
      </trkpt>
      <trkpt lat="44.62528" lon="5.78486">
        <ele>1700.7</ele>
        <time>2015-06-30T11:29:47Z</time>
      </trkpt>
      <trkpt lat="44.62523" lon="5.78493">
        <ele>1704.2</ele>
        <time>2015-06-30T11:29:52Z</time>
      </trkpt>
      <trkpt lat="44.62522" lon="5.78501">
        <ele>1704.8</ele>
        <time>2015-06-30T11:29:57Z</time>
      </trkpt>
      <trkpt lat="44.62521" lon="5.78508">
        <ele>1707.6</ele>
        <time>2015-06-30T11:30:02Z</time>
      </trkpt>
      <trkpt lat="44.62519" lon="5.78516">
        <ele>1707.7</ele>
        <time>2015-06-30T11:30:07Z</time>
      </trkpt>
      <trkpt lat="44.62515" lon="5.78525">
        <ele>1711.4</ele>
        <time>2015-06-30T11:30:14Z</time>
      </trkpt>
      <trkpt lat="44.62512" lon="5.78531">
        <ele>1712.4</ele>
        <time>2015-06-30T11:30:19Z</time>
      </trkpt>
      <trkpt lat="44.62512" lon="5.78539">
        <ele>1710.8</ele>
        <time>2015-06-30T11:30:24Z</time>
      </trkpt>
      <trkpt lat="44.62508" lon="5.78547">
        <ele>1713.5</ele>
        <time>2015-06-30T11:30:29Z</time>
      </trkpt>
      <trkpt lat="44.62505" lon="5.78555">
        <ele>1715.7</ele>
        <time>2015-06-30T11:30:34Z</time>
      </trkpt>
      <trkpt lat="44.62504" lon="5.78562">
        <ele>1718</ele>
        <time>2015-06-30T11:30:39Z</time>
      </trkpt>
      <trkpt lat="44.62503" lon="5.78564">
        <ele>1718</ele>
        <time>2015-06-30T11:30:44Z</time>
      </trkpt>
      <trkpt lat="44.62503" lon="5.78565">
        <ele>1719.3</ele>
        <time>2015-06-30T11:30:49Z</time>
      </trkpt>
      <trkpt lat="44.62502" lon="5.78565">
        <ele>1716.3</ele>
        <time>2015-06-30T11:30:54Z</time>
      </trkpt>
      <trkpt lat="44.62502" lon="5.7857">
        <ele>1717.2</ele>
        <time>2015-06-30T11:30:59Z</time>
      </trkpt>
      <trkpt lat="44.62501" lon="5.78576">
        <ele>1717.4</ele>
        <time>2015-06-30T11:31:04Z</time>
      </trkpt>
      <trkpt lat="44.625" lon="5.7858">
        <ele>1716.8</ele>
        <time>2015-06-30T11:31:09Z</time>
      </trkpt>
      <trkpt lat="44.62502" lon="5.78586">
        <ele>1718.2</ele>
        <time>2015-06-30T11:31:14Z</time>
      </trkpt>
      <trkpt lat="44.62502" lon="5.78589">
        <ele>1719.5</ele>
        <time>2015-06-30T11:31:19Z</time>
      </trkpt>
      <trkpt lat="44.62502" lon="5.78592">
        <ele>1719.8</ele>
        <time>2015-06-30T11:31:24Z</time>
      </trkpt>
      <trkpt lat="44.62502" lon="5.78599">
        <ele>1719.7</ele>
        <time>2015-06-30T11:31:29Z</time>
      </trkpt>
      <trkpt lat="44.625" lon="5.78605">
        <ele>1722.6</ele>
        <time>2015-06-30T11:31:34Z</time>
      </trkpt>
      <trkpt lat="44.62497" lon="5.78609">
        <ele>1721.3</ele>
        <time>2015-06-30T11:31:39Z</time>
      </trkpt>
      <trkpt lat="44.62494" lon="5.78614">
        <ele>1718.9</ele>
        <time>2015-06-30T11:31:44Z</time>
      </trkpt>
      <trkpt lat="44.62492" lon="5.7862">
        <ele>1717</ele>
        <time>2015-06-30T11:31:49Z</time>
      </trkpt>
      <trkpt lat="44.62491" lon="5.78627">
        <ele>1715.7</ele>
        <time>2015-06-30T11:31:54Z</time>
      </trkpt>
      <trkpt lat="44.62489" lon="5.78633">
        <ele>1712.7</ele>
        <time>2015-06-30T11:31:59Z</time>
      </trkpt>
      <trkpt lat="44.62488" lon="5.7864">
        <ele>1714.6</ele>
        <time>2015-06-30T11:32:04Z</time>
      </trkpt>
      <trkpt lat="44.62487" lon="5.78643">
        <ele>1721</ele>
        <time>2015-06-30T11:32:09Z</time>
      </trkpt>
      <trkpt lat="44.62486" lon="5.78642">
        <ele>1718.7</ele>
        <time>2015-06-30T11:32:14Z</time>
      </trkpt>
      <trkpt lat="44.62486" lon="5.78641">
        <ele>1717.3</ele>
        <time>2015-06-30T11:32:19Z</time>
      </trkpt>
      <trkpt lat="44.62485" lon="5.78641">
        <ele>1719.7</ele>
        <time>2015-06-30T11:32:24Z</time>
      </trkpt>
      <trkpt lat="44.62485" lon="5.78639">
        <ele>1720.2</ele>
        <time>2015-06-30T11:32:29Z</time>
      </trkpt>
      <trkpt lat="44.62485" lon="5.7864">
        <ele>1721.4</ele>
        <time>2015-06-30T11:32:34Z</time>
      </trkpt>
      <trkpt lat="44.62484" lon="5.78646">
        <ele>1721.2</ele>
        <time>2015-06-30T11:32:39Z</time>
      </trkpt>
      <trkpt lat="44.62483" lon="5.78654">
        <ele>1720.3</ele>
        <time>2015-06-30T11:32:44Z</time>
      </trkpt>
      <trkpt lat="44.62481" lon="5.78662">
        <ele>1719.9</ele>
        <time>2015-06-30T11:32:49Z</time>
      </trkpt>
      <trkpt lat="44.62479" lon="5.78669">
        <ele>1719.7</ele>
        <time>2015-06-30T11:32:54Z</time>
      </trkpt>
      <trkpt lat="44.62479" lon="5.78677">
        <ele>1720.9</ele>
        <time>2015-06-30T11:32:59Z</time>
      </trkpt>
      <trkpt lat="44.62479" lon="5.78683">
        <ele>1721.2</ele>
        <time>2015-06-30T11:33:04Z</time>
      </trkpt>
      <trkpt lat="44.6248" lon="5.78689">
        <ele>1723.4</ele>
        <time>2015-06-30T11:33:09Z</time>
      </trkpt>
      <trkpt lat="44.62481" lon="5.78698">
        <ele>1725.9</ele>
        <time>2015-06-30T11:33:14Z</time>
      </trkpt>
      <trkpt lat="44.62479" lon="5.78704">
        <ele>1725.9</ele>
        <time>2015-06-30T11:33:19Z</time>
      </trkpt>
      <trkpt lat="44.62476" lon="5.78711">
        <ele>1725.8</ele>
        <time>2015-06-30T11:33:24Z</time>
      </trkpt>
      <trkpt lat="44.62475" lon="5.78719">
        <ele>1726</ele>
        <time>2015-06-30T11:33:29Z</time>
      </trkpt>
      <trkpt lat="44.62476" lon="5.78727">
        <ele>1727.2</ele>
        <time>2015-06-30T11:33:34Z</time>
      </trkpt>
      <trkpt lat="44.62475" lon="5.78734">
        <ele>1729.2</ele>
        <time>2015-06-30T11:33:39Z</time>
      </trkpt>
      <trkpt lat="44.62475" lon="5.78742">
        <ele>1730.5</ele>
        <time>2015-06-30T11:33:44Z</time>
      </trkpt>
      <trkpt lat="44.62473" lon="5.78749">
        <ele>1731.5</ele>
        <time>2015-06-30T11:33:49Z</time>
      </trkpt>
      <trkpt lat="44.6247" lon="5.78754">
        <ele>1731.5</ele>
        <time>2015-06-30T11:33:54Z</time>
      </trkpt>
      <trkpt lat="44.62466" lon="5.78756">
        <ele>1729.3</ele>
        <time>2015-06-30T11:33:59Z</time>
      </trkpt>
      <trkpt lat="44.6246" lon="5.78757">
        <ele>1729.5</ele>
        <time>2015-06-30T11:34:04Z</time>
      </trkpt>
      <trkpt lat="44.62456" lon="5.78758">
        <ele>1728.6</ele>
        <time>2015-06-30T11:34:09Z</time>
      </trkpt>
      <trkpt lat="44.62452" lon="5.78763">
        <ele>1729.6</ele>
        <time>2015-06-30T11:34:14Z</time>
      </trkpt>
      <trkpt lat="44.62448" lon="5.78767">
        <ele>1730.4</ele>
        <time>2015-06-30T11:34:19Z</time>
      </trkpt>
      <trkpt lat="44.62443" lon="5.7877">
        <ele>1731.2</ele>
        <time>2015-06-30T11:34:24Z</time>
      </trkpt>
      <trkpt lat="44.62439" lon="5.78773">
        <ele>1729.5</ele>
        <time>2015-06-30T11:34:29Z</time>
      </trkpt>
      <trkpt lat="44.62437" lon="5.78779">
        <ele>1730.9</ele>
        <time>2015-06-30T11:34:34Z</time>
      </trkpt>
      <trkpt lat="44.62433" lon="5.78783">
        <ele>1732.8</ele>
        <time>2015-06-30T11:34:39Z</time>
      </trkpt>
      <trkpt lat="44.6243" lon="5.7879">
        <ele>1736</ele>
        <time>2015-06-30T11:34:44Z</time>
      </trkpt>
      <trkpt lat="44.62426" lon="5.78796">
        <ele>1738.7</ele>
        <time>2015-06-30T11:34:49Z</time>
      </trkpt>
      <trkpt lat="44.62426" lon="5.78801">
        <ele>1740</ele>
        <time>2015-06-30T11:34:54Z</time>
      </trkpt>
      <trkpt lat="44.62431" lon="5.78804">
        <ele>1741.9</ele>
        <time>2015-06-30T11:34:59Z</time>
      </trkpt>
      <trkpt lat="44.62437" lon="5.78807">
        <ele>1743.3</ele>
        <time>2015-06-30T11:35:04Z</time>
      </trkpt>
      <trkpt lat="44.62443" lon="5.78807">
        <ele>1743.6</ele>
        <time>2015-06-30T11:35:09Z</time>
      </trkpt>
      <trkpt lat="44.62449" lon="5.78808">
        <ele>1743.6</ele>
        <time>2015-06-30T11:35:14Z</time>
      </trkpt>
      <trkpt lat="44.62457" lon="5.78808">
        <ele>1744.3</ele>
        <time>2015-06-30T11:35:19Z</time>
      </trkpt>
      <trkpt lat="44.62462" lon="5.78808">
        <ele>1743.7</ele>
        <time>2015-06-30T11:35:24Z</time>
      </trkpt>
      <trkpt lat="44.62468" lon="5.78809">
        <ele>1743.3</ele>
        <time>2015-06-30T11:35:29Z</time>
      </trkpt>
      <trkpt lat="44.62474" lon="5.7881">
        <ele>1741.2</ele>
        <time>2015-06-30T11:35:34Z</time>
      </trkpt>
      <trkpt lat="44.62482" lon="5.78812">
        <ele>1742.2</ele>
        <time>2015-06-30T11:35:39Z</time>
      </trkpt>
      <trkpt lat="44.62488" lon="5.78813">
        <ele>1741.7</ele>
        <time>2015-06-30T11:35:44Z</time>
      </trkpt>
      <trkpt lat="44.62493" lon="5.78815">
        <ele>1741.3</ele>
        <time>2015-06-30T11:35:49Z</time>
      </trkpt>
      <trkpt lat="44.62499" lon="5.78818">
        <ele>1741.1</ele>
        <time>2015-06-30T11:35:54Z</time>
      </trkpt>
      <trkpt lat="44.62504" lon="5.78824">
        <ele>1743.3</ele>
        <time>2015-06-30T11:35:59Z</time>
      </trkpt>
      <trkpt lat="44.62508" lon="5.78826">
        <ele>1744</ele>
        <time>2015-06-30T11:36:04Z</time>
      </trkpt>
      <trkpt lat="44.62513" lon="5.78827">
        <ele>1743.3</ele>
        <time>2015-06-30T11:36:09Z</time>
      </trkpt>
      <trkpt lat="44.62517" lon="5.7883">
        <ele>1742.9</ele>
        <time>2015-06-30T11:36:14Z</time>
      </trkpt>
      <trkpt lat="44.62522" lon="5.78835">
        <ele>1743.9</ele>
        <time>2015-06-30T11:36:19Z</time>
      </trkpt>
      <trkpt lat="44.62527" lon="5.78841">
        <ele>1745.7</ele>
        <time>2015-06-30T11:36:24Z</time>
      </trkpt>
      <trkpt lat="44.62532" lon="5.78846">
        <ele>1746.3</ele>
        <time>2015-06-30T11:36:29Z</time>
      </trkpt>
      <trkpt lat="44.62538" lon="5.78847">
        <ele>1744.6</ele>
        <time>2015-06-30T11:36:34Z</time>
      </trkpt>
      <trkpt lat="44.62542" lon="5.7885">
        <ele>1746.1</ele>
        <time>2015-06-30T11:36:39Z</time>
      </trkpt>
      <trkpt lat="44.62548" lon="5.78855">
        <ele>1744.2</ele>
        <time>2015-06-30T11:36:44Z</time>
      </trkpt>
      <trkpt lat="44.62555" lon="5.78858">
        <ele>1743.4</ele>
        <time>2015-06-30T11:36:49Z</time>
      </trkpt>
      <trkpt lat="44.62561" lon="5.78861">
        <ele>1742.7</ele>
        <time>2015-06-30T11:36:54Z</time>
      </trkpt>
      <trkpt lat="44.62567" lon="5.78861">
        <ele>1743.4</ele>
        <time>2015-06-30T11:36:59Z</time>
      </trkpt>
      <trkpt lat="44.62572" lon="5.78866">
        <ele>1744.5</ele>
        <time>2015-06-30T11:37:04Z</time>
      </trkpt>
      <trkpt lat="44.62578" lon="5.78869">
        <ele>1745.8</ele>
        <time>2015-06-30T11:37:09Z</time>
      </trkpt>
      <trkpt lat="44.62582" lon="5.78874">
        <ele>1744.3</ele>
        <time>2015-06-30T11:37:14Z</time>
      </trkpt>
      <trkpt lat="44.62586" lon="5.78877">
        <ele>1742.7</ele>
        <time>2015-06-30T11:37:19Z</time>
      </trkpt>
      <trkpt lat="44.62592" lon="5.78885">
        <ele>1744.2</ele>
        <time>2015-06-30T11:37:24Z</time>
      </trkpt>
      <trkpt lat="44.62598" lon="5.78887">
        <ele>1741.2</ele>
        <time>2015-06-30T11:37:29Z</time>
      </trkpt>
      <trkpt lat="44.62604" lon="5.78889">
        <ele>1741.2</ele>
        <time>2015-06-30T11:37:34Z</time>
      </trkpt>
      <trkpt lat="44.62609" lon="5.78893">
        <ele>1741.4</ele>
        <time>2015-06-30T11:37:39Z</time>
      </trkpt>
      <trkpt lat="44.62614" lon="5.78899">
        <ele>1740.9</ele>
        <time>2015-06-30T11:37:44Z</time>
      </trkpt>
      <trkpt lat="44.62618" lon="5.78901">
        <ele>1739.3</ele>
        <time>2015-06-30T11:37:49Z</time>
      </trkpt>
      <trkpt lat="44.62623" lon="5.78904">
        <ele>1738.8</ele>
        <time>2015-06-30T11:37:54Z</time>
      </trkpt>
      <trkpt lat="44.62629" lon="5.78911">
        <ele>1739.4</ele>
        <time>2015-06-30T11:37:59Z</time>
      </trkpt>
      <trkpt lat="44.62634" lon="5.78916">
        <ele>1738.8</ele>
        <time>2015-06-30T11:38:04Z</time>
      </trkpt>
      <trkpt lat="44.6264" lon="5.7892">
        <ele>1741.3</ele>
        <time>2015-06-30T11:38:09Z</time>
      </trkpt>
      <trkpt lat="44.62644" lon="5.78927">
        <ele>1746.1</ele>
        <time>2015-06-30T11:38:14Z</time>
      </trkpt>
      <trkpt lat="44.62649" lon="5.78929">
        <ele>1748.2</ele>
        <time>2015-06-30T11:38:19Z</time>
      </trkpt>
      <trkpt lat="44.62654" lon="5.7893">
        <ele>1746.6</ele>
        <time>2015-06-30T11:38:24Z</time>
      </trkpt>
      <trkpt lat="44.62661" lon="5.78931">
        <ele>1741.6</ele>
        <time>2015-06-30T11:38:29Z</time>
      </trkpt>
      <trkpt lat="44.62666" lon="5.78932">
        <ele>1736.4</ele>
        <time>2015-06-30T11:38:34Z</time>
      </trkpt>
      <trkpt lat="44.62672" lon="5.78935">
        <ele>1734.3</ele>
        <time>2015-06-30T11:38:39Z</time>
      </trkpt>
      <trkpt lat="44.62678" lon="5.78941">
        <ele>1733.2</ele>
        <time>2015-06-30T11:38:44Z</time>
      </trkpt>
      <trkpt lat="44.62684" lon="5.78948">
        <ele>1733.7</ele>
        <time>2015-06-30T11:38:49Z</time>
      </trkpt>
      <trkpt lat="44.62689" lon="5.78956">
        <ele>1734.4</ele>
        <time>2015-06-30T11:38:54Z</time>
      </trkpt>
      <trkpt lat="44.62694" lon="5.78962">
        <ele>1735.5</ele>
        <time>2015-06-30T11:38:59Z</time>
      </trkpt>
      <trkpt lat="44.62698" lon="5.78969">
        <ele>1738.3</ele>
        <time>2015-06-30T11:39:04Z</time>
      </trkpt>
      <trkpt lat="44.62705" lon="5.78969">
        <ele>1736.5</ele>
        <time>2015-06-30T11:39:09Z</time>
      </trkpt>
      <trkpt lat="44.62709" lon="5.78971">
        <ele>1733.8</ele>
        <time>2015-06-30T11:39:14Z</time>
      </trkpt>
      <trkpt lat="44.62716" lon="5.78974">
        <ele>1733.1</ele>
        <time>2015-06-30T11:39:19Z</time>
      </trkpt>
      <trkpt lat="44.62722" lon="5.78981">
        <ele>1734.9</ele>
        <time>2015-06-30T11:39:24Z</time>
      </trkpt>
      <trkpt lat="44.62727" lon="5.78984">
        <ele>1733.9</ele>
        <time>2015-06-30T11:39:29Z</time>
      </trkpt>
      <trkpt lat="44.62734" lon="5.78988">
        <ele>1732.5</ele>
        <time>2015-06-30T11:39:34Z</time>
      </trkpt>
      <trkpt lat="44.6274" lon="5.78991">
        <ele>1730.9</ele>
        <time>2015-06-30T11:39:39Z</time>
      </trkpt>
      <trkpt lat="44.62747" lon="5.78994">
        <ele>1729.9</ele>
        <time>2015-06-30T11:39:44Z</time>
      </trkpt>
      <trkpt lat="44.62753" lon="5.78998">
        <ele>1729.1</ele>
        <time>2015-06-30T11:39:49Z</time>
      </trkpt>
      <trkpt lat="44.62759" lon="5.79">
        <ele>1728.1</ele>
        <time>2015-06-30T11:39:54Z</time>
      </trkpt>
      <trkpt lat="44.62765" lon="5.79005">
        <ele>1727.9</ele>
        <time>2015-06-30T11:39:59Z</time>
      </trkpt>
      <trkpt lat="44.6277" lon="5.79011">
        <ele>1730.6</ele>
        <time>2015-06-30T11:40:04Z</time>
      </trkpt>
      <trkpt lat="44.62777" lon="5.79013">
        <ele>1729</ele>
        <time>2015-06-30T11:40:09Z</time>
      </trkpt>
      <trkpt lat="44.62782" lon="5.79019">
        <ele>1730.9</ele>
        <time>2015-06-30T11:40:14Z</time>
      </trkpt>
      <trkpt lat="44.62787" lon="5.79022">
        <ele>1730.4</ele>
        <time>2015-06-30T11:40:19Z</time>
      </trkpt>
      <trkpt lat="44.62793" lon="5.79025">
        <ele>1730.4</ele>
        <time>2015-06-30T11:40:24Z</time>
      </trkpt>
      <trkpt lat="44.62799" lon="5.79028">
        <ele>1729.4</ele>
        <time>2015-06-30T11:40:29Z</time>
      </trkpt>
      <trkpt lat="44.62804" lon="5.79032">
        <ele>1729.4</ele>
        <time>2015-06-30T11:40:34Z</time>
      </trkpt>
      <trkpt lat="44.62809" lon="5.79035">
        <ele>1727.4</ele>
        <time>2015-06-30T11:40:39Z</time>
      </trkpt>
      <trkpt lat="44.62815" lon="5.79037">
        <ele>1728.7</ele>
        <time>2015-06-30T11:40:44Z</time>
      </trkpt>
      <trkpt lat="44.62821" lon="5.79041">
        <ele>1727.1</ele>
        <time>2015-06-30T11:40:49Z</time>
      </trkpt>
      <trkpt lat="44.62825" lon="5.79043">
        <ele>1725.3</ele>
        <time>2015-06-30T11:40:54Z</time>
      </trkpt>
      <trkpt lat="44.62827" lon="5.79046">
        <ele>1722.5</ele>
        <time>2015-06-30T11:40:59Z</time>
      </trkpt>
      <trkpt lat="44.62832" lon="5.79048">
        <ele>1719.9</ele>
        <time>2015-06-30T11:41:04Z</time>
      </trkpt>
      <trkpt lat="44.62838" lon="5.79054">
        <ele>1722.4</ele>
        <time>2015-06-30T11:41:09Z</time>
      </trkpt>
      <trkpt lat="44.62843" lon="5.79059">
        <ele>1720.4</ele>
        <time>2015-06-30T11:41:14Z</time>
      </trkpt>
      <trkpt lat="44.62846" lon="5.79064">
        <ele>1720.6</ele>
        <time>2015-06-30T11:41:19Z</time>
      </trkpt>
      <trkpt lat="44.6285" lon="5.79072">
        <ele>1719.4</ele>
        <time>2015-06-30T11:41:24Z</time>
      </trkpt>
      <trkpt lat="44.62854" lon="5.7908">
        <ele>1719.7</ele>
        <time>2015-06-30T11:41:29Z</time>
      </trkpt>
      <trkpt lat="44.62858" lon="5.79088">
        <ele>1718.7</ele>
        <time>2015-06-30T11:41:34Z</time>
      </trkpt>
      <trkpt lat="44.62863" lon="5.79093">
        <ele>1717.3</ele>
        <time>2015-06-30T11:41:39Z</time>
      </trkpt>
      <trkpt lat="44.62866" lon="5.791">
        <ele>1715.6</ele>
        <time>2015-06-30T11:41:44Z</time>
      </trkpt>
      <trkpt lat="44.6287" lon="5.79109">
        <ele>1716.7</ele>
        <time>2015-06-30T11:41:49Z</time>
      </trkpt>
      <trkpt lat="44.62873" lon="5.79116">
        <ele>1716.7</ele>
        <time>2015-06-30T11:41:54Z</time>
      </trkpt>
      <trkpt lat="44.62876" lon="5.79124">
        <ele>1715.9</ele>
        <time>2015-06-30T11:41:59Z</time>
      </trkpt>
      <trkpt lat="44.62877" lon="5.79131">
        <ele>1714.8</ele>
        <time>2015-06-30T11:42:04Z</time>
      </trkpt>
      <trkpt lat="44.62878" lon="5.79136">
        <ele>1713.9</ele>
        <time>2015-06-30T11:42:09Z</time>
      </trkpt>
      <trkpt lat="44.62877" lon="5.79137">
        <ele>1713.4</ele>
        <time>2015-06-30T11:42:14Z</time>
      </trkpt>
      <trkpt lat="44.62877" lon="5.79138">
        <ele>1713.4</ele>
        <time>2015-06-30T11:42:19Z</time>
      </trkpt>
      <trkpt lat="44.62877" lon="5.79138">
        <ele>1715.9</ele>
        <time>2015-06-30T11:42:24Z</time>
      </trkpt>
      <trkpt lat="44.62878" lon="5.7914">
        <ele>1717</ele>
        <time>2015-06-30T11:42:29Z</time>
      </trkpt>
      <trkpt lat="44.62877" lon="5.79142">
        <ele>1716.5</ele>
        <time>2015-06-30T11:42:34Z</time>
      </trkpt>
      <trkpt lat="44.62877" lon="5.79139">
        <ele>1715.2</ele>
        <time>2015-06-30T11:42:39Z</time>
      </trkpt>
      <trkpt lat="44.62878" lon="5.79141">
        <ele>1713.8</ele>
        <time>2015-06-30T11:42:44Z</time>
      </trkpt>
      <trkpt lat="44.62877" lon="5.79145">
        <ele>1713.8</ele>
        <time>2015-06-30T11:42:49Z</time>
      </trkpt>
      <trkpt lat="44.62875" lon="5.79152">
        <ele>1716.2</ele>
        <time>2015-06-30T11:42:54Z</time>
      </trkpt>
      <trkpt lat="44.62875" lon="5.79159">
        <ele>1718.8</ele>
        <time>2015-06-30T11:42:59Z</time>
      </trkpt>
      <trkpt lat="44.62875" lon="5.79169">
        <ele>1725.2</ele>
        <time>2015-06-30T11:43:04Z</time>
      </trkpt>
      <trkpt lat="44.62877" lon="5.79175">
        <ele>1724.7</ele>
        <time>2015-06-30T11:43:09Z</time>
      </trkpt>
      <trkpt lat="44.62877" lon="5.7918">
        <ele>1722.8</ele>
        <time>2015-06-30T11:43:14Z</time>
      </trkpt>
      <trkpt lat="44.62876" lon="5.79181">
        <ele>1725.3</ele>
        <time>2015-06-30T11:43:19Z</time>
      </trkpt>
      <trkpt lat="44.62877" lon="5.79186">
        <ele>1727.9</ele>
        <time>2015-06-30T11:43:24Z</time>
      </trkpt>
      <trkpt lat="44.62879" lon="5.79192">
        <ele>1726</ele>
        <time>2015-06-30T11:43:29Z</time>
      </trkpt>
      <trkpt lat="44.6288" lon="5.79199">
        <ele>1727.3</ele>
        <time>2015-06-30T11:43:34Z</time>
      </trkpt>
      <trkpt lat="44.62882" lon="5.79206">
        <ele>1728.5</ele>
        <time>2015-06-30T11:43:39Z</time>
      </trkpt>
      <trkpt lat="44.62881" lon="5.79212">
        <ele>1727.1</ele>
        <time>2015-06-30T11:43:44Z</time>
      </trkpt>
      <trkpt lat="44.62882" lon="5.79214">
        <ele>1724.2</ele>
        <time>2015-06-30T11:43:49Z</time>
      </trkpt>
      <trkpt lat="44.62883" lon="5.79214">
        <ele>1725</ele>
        <time>2015-06-30T11:43:54Z</time>
      </trkpt>
      <trkpt lat="44.62882" lon="5.7922">
        <ele>1728.7</ele>
        <time>2015-06-30T11:43:59Z</time>
      </trkpt>
      <trkpt lat="44.62881" lon="5.79224">
        <ele>1732.5</ele>
        <time>2015-06-30T11:44:04Z</time>
      </trkpt>
      <trkpt lat="44.62882" lon="5.79227">
        <ele>1737</ele>
        <time>2015-06-30T11:44:09Z</time>
      </trkpt>
      <trkpt lat="44.62883" lon="5.79232">
        <ele>1737.2</ele>
        <time>2015-06-30T11:44:14Z</time>
      </trkpt>
      <trkpt lat="44.62883" lon="5.79238">
        <ele>1740</ele>
        <time>2015-06-30T11:44:19Z</time>
      </trkpt>
      <trkpt lat="44.6288" lon="5.79239">
        <ele>1740.2</ele>
        <time>2015-06-30T11:44:24Z</time>
      </trkpt>
      <trkpt lat="44.62876" lon="5.79241">
        <ele>1741.1</ele>
        <time>2015-06-30T11:44:29Z</time>
      </trkpt>
      <trkpt lat="44.62872" lon="5.79244">
        <ele>1740.7</ele>
        <time>2015-06-30T11:44:34Z</time>
      </trkpt>
      <trkpt lat="44.62872" lon="5.79244">
        <ele>1739.2</ele>
        <time>2015-06-30T11:44:39Z</time>
      </trkpt>
      <trkpt lat="44.62872" lon="5.79246">
        <ele>1738.9</ele>
        <time>2015-06-30T11:44:44Z</time>
      </trkpt>
      <trkpt lat="44.62874" lon="5.79252">
        <ele>1740.9</ele>
        <time>2015-06-30T11:44:49Z</time>
      </trkpt>
      <trkpt lat="44.62874" lon="5.79255">
        <ele>1743.3</ele>
        <time>2015-06-30T11:44:54Z</time>
      </trkpt>
      <trkpt lat="44.62875" lon="5.79256">
        <ele>1744.5</ele>
        <time>2015-06-30T11:44:59Z</time>
      </trkpt>
      <trkpt lat="44.62874" lon="5.79258">
        <ele>1747.4</ele>
        <time>2015-06-30T11:45:04Z</time>
      </trkpt>
      <trkpt lat="44.62875" lon="5.7926">
        <ele>1748.4</ele>
        <time>2015-06-30T11:45:09Z</time>
      </trkpt>
      <trkpt lat="44.62878" lon="5.79264">
        <ele>1748.3</ele>
        <time>2015-06-30T11:45:14Z</time>
      </trkpt>
      <trkpt lat="44.62878" lon="5.79266">
        <ele>1748.4</ele>
        <time>2015-06-30T11:45:19Z</time>
      </trkpt>
      <trkpt lat="44.62878" lon="5.79265">
        <ele>1747.8</ele>
        <time>2015-06-30T11:45:24Z</time>
      </trkpt>
      <trkpt lat="44.62878" lon="5.79265">
        <ele>1748</ele>
        <time>2015-06-30T11:45:29Z</time>
      </trkpt>
      <trkpt lat="44.6288" lon="5.7927">
        <ele>1749</ele>
        <time>2015-06-30T11:45:34Z</time>
      </trkpt>
      <trkpt lat="44.62884" lon="5.79273">
        <ele>1750.1</ele>
        <time>2015-06-30T11:45:39Z</time>
      </trkpt>
      <trkpt lat="44.62887" lon="5.79276">
        <ele>1752</ele>
        <time>2015-06-30T11:45:44Z</time>
      </trkpt>
      <trkpt lat="44.6289" lon="5.7928">
        <ele>1753.4</ele>
        <time>2015-06-30T11:45:49Z</time>
      </trkpt>
      <trkpt lat="44.62891" lon="5.79281">
        <ele>1755.5</ele>
        <time>2015-06-30T11:45:54Z</time>
      </trkpt>
      <trkpt lat="44.62888" lon="5.79278">
        <ele>1755.2</ele>
        <time>2015-06-30T11:45:59Z</time>
      </trkpt>
      <trkpt lat="44.62882" lon="5.79273">
        <ele>1756</ele>
        <time>2015-06-30T11:46:04Z</time>
      </trkpt>
      <trkpt lat="44.62878" lon="5.7927">
        <ele>1759.2</ele>
        <time>2015-06-30T11:46:09Z</time>
      </trkpt>
      <trkpt lat="44.62874" lon="5.79271">
        <ele>1758.2</ele>
        <time>2015-06-30T11:46:14Z</time>
      </trkpt>
      <trkpt lat="44.62867" lon="5.79273">
        <ele>1753.8</ele>
        <time>2015-06-30T11:46:19Z</time>
      </trkpt>
      <trkpt lat="44.62861" lon="5.79274">
        <ele>1750</ele>
        <time>2015-06-30T11:46:24Z</time>
      </trkpt>
      <trkpt lat="44.6286" lon="5.79278">
        <ele>1751.2</ele>
        <time>2015-06-30T11:46:29Z</time>
      </trkpt>
      <trkpt lat="44.62859" lon="5.79285">
        <ele>1753.1</ele>
        <time>2015-06-30T11:46:34Z</time>
      </trkpt>
      <trkpt lat="44.62862" lon="5.79291">
        <ele>1753.6</ele>
        <time>2015-06-30T11:46:39Z</time>
      </trkpt>
      <trkpt lat="44.62862" lon="5.79297">
        <ele>1753.7</ele>
        <time>2015-06-30T11:46:44Z</time>
      </trkpt>
      <trkpt lat="44.62862" lon="5.79299">
        <ele>1755.2</ele>
        <time>2015-06-30T11:46:49Z</time>
      </trkpt>
      <trkpt lat="44.62862" lon="5.79299">
        <ele>1757</ele>
        <time>2015-06-30T11:46:54Z</time>
      </trkpt>
      <trkpt lat="44.62861" lon="5.79303">
        <ele>1757.4</ele>
        <time>2015-06-30T11:46:59Z</time>
      </trkpt>
      <trkpt lat="44.62861" lon="5.79307">
        <ele>1757.3</ele>
        <time>2015-06-30T11:47:04Z</time>
      </trkpt>
      <trkpt lat="44.62861" lon="5.79309">
        <ele>1757.1</ele>
        <time>2015-06-30T11:47:09Z</time>
      </trkpt>
      <trkpt lat="44.62863" lon="5.79313">
        <ele>1757</ele>
        <time>2015-06-30T11:47:14Z</time>
      </trkpt>
      <trkpt lat="44.62864" lon="5.79316">
        <ele>1758.9</ele>
        <time>2015-06-30T11:47:19Z</time>
      </trkpt>
      <trkpt lat="44.62864" lon="5.79319">
        <ele>1761.8</ele>
        <time>2015-06-30T11:47:24Z</time>
      </trkpt>
      <trkpt lat="44.62865" lon="5.79322">
        <ele>1763.3</ele>
        <time>2015-06-30T11:47:29Z</time>
      </trkpt>
      <trkpt lat="44.62865" lon="5.79327">
        <ele>1768</ele>
        <time>2015-06-30T11:47:34Z</time>
      </trkpt>
      <trkpt lat="44.62866" lon="5.79331">
        <ele>1772.2</ele>
        <time>2015-06-30T11:47:39Z</time>
      </trkpt>
      <trkpt lat="44.62867" lon="5.79334">
        <ele>1771.3</ele>
        <time>2015-06-30T11:47:44Z</time>
      </trkpt>
      <trkpt lat="44.62865" lon="5.79335">
        <ele>1772.2</ele>
        <time>2015-06-30T11:47:49Z</time>
      </trkpt>
      <trkpt lat="44.62865" lon="5.79335">
        <ele>1771.3</ele>
        <time>2015-06-30T11:47:54Z</time>
      </trkpt>
      <trkpt lat="44.62866" lon="5.79333">
        <ele>1769.9</ele>
        <time>2015-06-30T11:47:59Z</time>
      </trkpt>
      <trkpt lat="44.62866" lon="5.7933">
        <ele>1770.4</ele>
        <time>2015-06-30T11:48:04Z</time>
      </trkpt>
      <trkpt lat="44.62864" lon="5.79329">
        <ele>1772.8</ele>
        <time>2015-06-30T11:48:10Z</time>
      </trkpt>
      <trkpt lat="44.62864" lon="5.79336">
        <ele>1770.4</ele>
        <time>2015-06-30T11:48:15Z</time>
      </trkpt>
      <trkpt lat="44.62865" lon="5.79342">
        <ele>1768.7</ele>
        <time>2015-06-30T11:48:20Z</time>
      </trkpt>
      <trkpt lat="44.62869" lon="5.79347">
        <ele>1768.5</ele>
        <time>2015-06-30T11:48:25Z</time>
      </trkpt>
      <trkpt lat="44.62875" lon="5.7935">
        <ele>1769.6</ele>
        <time>2015-06-30T11:48:30Z</time>
      </trkpt>
      <trkpt lat="44.62878" lon="5.79355">
        <ele>1772.9</ele>
        <time>2015-06-30T11:48:35Z</time>
      </trkpt>
      <trkpt lat="44.62884" lon="5.7936">
        <ele>1773.3</ele>
        <time>2015-06-30T11:48:40Z</time>
      </trkpt>
      <trkpt lat="44.62888" lon="5.79364">
        <ele>1775.1</ele>
        <time>2015-06-30T11:48:45Z</time>
      </trkpt>
      <trkpt lat="44.62892" lon="5.79371">
        <ele>1774.1</ele>
        <time>2015-06-30T11:48:50Z</time>
      </trkpt>
      <trkpt lat="44.62893" lon="5.79377">
        <ele>1776</ele>
        <time>2015-06-30T11:48:55Z</time>
      </trkpt>
      <trkpt lat="44.62891" lon="5.79382">
        <ele>1776.9</ele>
        <time>2015-06-30T11:49:00Z</time>
      </trkpt>
      <trkpt lat="44.62889" lon="5.79387">
        <ele>1777.5</ele>
        <time>2015-06-30T11:49:05Z</time>
      </trkpt>
      <trkpt lat="44.62886" lon="5.79388">
        <ele>1776.8</ele>
        <time>2015-06-30T11:49:10Z</time>
      </trkpt>
      <trkpt lat="44.62885" lon="5.79388">
        <ele>1778.5</ele>
        <time>2015-06-30T11:49:15Z</time>
      </trkpt>
      <trkpt lat="44.62882" lon="5.7939">
        <ele>1781.9</ele>
        <time>2015-06-30T11:49:20Z</time>
      </trkpt>
      <trkpt lat="44.62878" lon="5.79395">
        <ele>1785.9</ele>
        <time>2015-06-30T11:49:25Z</time>
      </trkpt>
      <trkpt lat="44.62874" lon="5.79398">
        <ele>1787</ele>
        <time>2015-06-30T11:49:30Z</time>
      </trkpt>
      <trkpt lat="44.6287" lon="5.79398">
        <ele>1786.4</ele>
        <time>2015-06-30T11:49:35Z</time>
      </trkpt>
      <trkpt lat="44.62865" lon="5.79402">
        <ele>1787.2</ele>
        <time>2015-06-30T11:49:40Z</time>
      </trkpt>
      <trkpt lat="44.62861" lon="5.79405">
        <ele>1786.6</ele>
        <time>2015-06-30T11:49:45Z</time>
      </trkpt>
      <trkpt lat="44.62857" lon="5.79411">
        <ele>1789.2</ele>
        <time>2015-06-30T11:49:50Z</time>
      </trkpt>
      <trkpt lat="44.62854" lon="5.79417">
        <ele>1789.6</ele>
        <time>2015-06-30T11:49:55Z</time>
      </trkpt>
      <trkpt lat="44.62851" lon="5.79423">
        <ele>1789.8</ele>
        <time>2015-06-30T11:50:00Z</time>
      </trkpt>
      <trkpt lat="44.62853" lon="5.79428">
        <ele>1790.8</ele>
        <time>2015-06-30T11:50:05Z</time>
      </trkpt>
      <trkpt lat="44.62856" lon="5.79431">
        <ele>1791.1</ele>
        <time>2015-06-30T11:50:10Z</time>
      </trkpt>
      <trkpt lat="44.6286" lon="5.79435">
        <ele>1794.2</ele>
        <time>2015-06-30T11:50:15Z</time>
      </trkpt>
      <trkpt lat="44.62864" lon="5.79437">
        <ele>1796.8</ele>
        <time>2015-06-30T11:50:20Z</time>
      </trkpt>
      <trkpt lat="44.62869" lon="5.7944">
        <ele>1797.1</ele>
        <time>2015-06-30T11:50:25Z</time>
      </trkpt>
      <trkpt lat="44.62874" lon="5.79443">
        <ele>1797.3</ele>
        <time>2015-06-30T11:50:30Z</time>
      </trkpt>
      <trkpt lat="44.62877" lon="5.79446">
        <ele>1799.3</ele>
        <time>2015-06-30T11:50:35Z</time>
      </trkpt>
      <trkpt lat="44.62879" lon="5.79452">
        <ele>1799.9</ele>
        <time>2015-06-30T11:50:40Z</time>
      </trkpt>
      <trkpt lat="44.62881" lon="5.79458">
        <ele>1800.8</ele>
        <time>2015-06-30T11:50:45Z</time>
      </trkpt>
      <trkpt lat="44.62885" lon="5.79462">
        <ele>1802.2</ele>
        <time>2015-06-30T11:50:50Z</time>
      </trkpt>
      <trkpt lat="44.62887" lon="5.79467">
        <ele>1803.9</ele>
        <time>2015-06-30T11:50:55Z</time>
      </trkpt>
      <trkpt lat="44.62888" lon="5.79474">
        <ele>1805.2</ele>
        <time>2015-06-30T11:51:00Z</time>
      </trkpt>
      <trkpt lat="44.62891" lon="5.79478">
        <ele>1804.9</ele>
        <time>2015-06-30T11:51:05Z</time>
      </trkpt>
      <trkpt lat="44.62892" lon="5.79484">
        <ele>1805.5</ele>
        <time>2015-06-30T11:51:10Z</time>
      </trkpt>
      <trkpt lat="44.62892" lon="5.79491">
        <ele>1806.5</ele>
        <time>2015-06-30T11:51:15Z</time>
      </trkpt>
      <trkpt lat="44.62893" lon="5.79497">
        <ele>1810.5</ele>
        <time>2015-06-30T11:51:20Z</time>
      </trkpt>
      <trkpt lat="44.62893" lon="5.79506">
        <ele>1813.4</ele>
        <time>2015-06-30T11:51:25Z</time>
      </trkpt>
      <trkpt lat="44.62892" lon="5.79515">
        <ele>1814.2</ele>
        <time>2015-06-30T11:51:30Z</time>
      </trkpt>
      <trkpt lat="44.62893" lon="5.79522">
        <ele>1814.7</ele>
        <time>2015-06-30T11:51:35Z</time>
      </trkpt>
      <trkpt lat="44.62894" lon="5.79528">
        <ele>1814.9</ele>
        <time>2015-06-30T11:51:40Z</time>
      </trkpt>
      <trkpt lat="44.62893" lon="5.79536">
        <ele>1815.2</ele>
        <time>2015-06-30T11:51:45Z</time>
      </trkpt>
      <trkpt lat="44.62893" lon="5.79542">
        <ele>1817.1</ele>
        <time>2015-06-30T11:51:50Z</time>
      </trkpt>
      <trkpt lat="44.6289" lon="5.79549">
        <ele>1818</ele>
        <time>2015-06-30T11:51:55Z</time>
      </trkpt>
      <trkpt lat="44.62888" lon="5.79554">
        <ele>1818.2</ele>
        <time>2015-06-30T11:52:00Z</time>
      </trkpt>
      <trkpt lat="44.62886" lon="5.79561">
        <ele>1819.1</ele>
        <time>2015-06-30T11:52:05Z</time>
      </trkpt>
      <trkpt lat="44.62886" lon="5.79568">
        <ele>1819.7</ele>
        <time>2015-06-30T11:52:10Z</time>
      </trkpt>
      <trkpt lat="44.62887" lon="5.79575">
        <ele>1819.9</ele>
        <time>2015-06-30T11:52:15Z</time>
      </trkpt>
      <trkpt lat="44.62886" lon="5.79583">
        <ele>1819.4</ele>
        <time>2015-06-30T11:52:20Z</time>
      </trkpt>
      <trkpt lat="44.62884" lon="5.79589">
        <ele>1819.3</ele>
        <time>2015-06-30T11:52:25Z</time>
      </trkpt>
      <trkpt lat="44.62881" lon="5.79595">
        <ele>1820.4</ele>
        <time>2015-06-30T11:52:30Z</time>
      </trkpt>
      <trkpt lat="44.62879" lon="5.79601">
        <ele>1819.2</ele>
        <time>2015-06-30T11:52:35Z</time>
      </trkpt>
      <trkpt lat="44.62878" lon="5.79605">
        <ele>1819.1</ele>
        <time>2015-06-30T11:52:40Z</time>
      </trkpt>
      <trkpt lat="44.62878" lon="5.79607">
        <ele>1819</ele>
        <time>2015-06-30T11:52:45Z</time>
      </trkpt>
      <trkpt lat="44.62878" lon="5.79607">
        <ele>1818.5</ele>
        <time>2015-06-30T11:52:50Z</time>
      </trkpt>
      <trkpt lat="44.62877" lon="5.79611">
        <ele>1819</ele>
        <time>2015-06-30T11:52:55Z</time>
      </trkpt>
      <trkpt lat="44.62877" lon="5.79619">
        <ele>1819.2</ele>
        <time>2015-06-30T11:53:00Z</time>
      </trkpt>
      <trkpt lat="44.62877" lon="5.79627">
        <ele>1819.4</ele>
        <time>2015-06-30T11:53:05Z</time>
      </trkpt>
      <trkpt lat="44.62879" lon="5.79634">
        <ele>1818.5</ele>
        <time>2015-06-30T11:53:10Z</time>
      </trkpt>
      <trkpt lat="44.62883" lon="5.79642">
        <ele>1818</ele>
        <time>2015-06-30T11:53:15Z</time>
      </trkpt>
      <trkpt lat="44.62887" lon="5.79648">
        <ele>1817.2</ele>
        <time>2015-06-30T11:53:20Z</time>
      </trkpt>
      <trkpt lat="44.62892" lon="5.79653">
        <ele>1816</ele>
        <time>2015-06-30T11:53:25Z</time>
      </trkpt>
      <trkpt lat="44.62896" lon="5.79658">
        <ele>1815.3</ele>
        <time>2015-06-30T11:53:30Z</time>
      </trkpt>
      <trkpt lat="44.62901" lon="5.79664">
        <ele>1814.1</ele>
        <time>2015-06-30T11:53:35Z</time>
      </trkpt>
      <trkpt lat="44.62904" lon="5.79672">
        <ele>1812.6</ele>
        <time>2015-06-30T11:53:40Z</time>
      </trkpt>
      <trkpt lat="44.62908" lon="5.79678">
        <ele>1811.7</ele>
        <time>2015-06-30T11:53:45Z</time>
      </trkpt>
      <trkpt lat="44.62912" lon="5.79686">
        <ele>1811.1</ele>
        <time>2015-06-30T11:53:50Z</time>
      </trkpt>
      <trkpt lat="44.62914" lon="5.79693">
        <ele>1810.4</ele>
        <time>2015-06-30T11:53:55Z</time>
      </trkpt>
      <trkpt lat="44.62917" lon="5.79699">
        <ele>1809.2</ele>
        <time>2015-06-30T11:54:00Z</time>
      </trkpt>
      <trkpt lat="44.62919" lon="5.79706">
        <ele>1808.3</ele>
        <time>2015-06-30T11:54:05Z</time>
      </trkpt>
      <trkpt lat="44.62923" lon="5.79715">
        <ele>1807.9</ele>
        <time>2015-06-30T11:54:10Z</time>
      </trkpt>
      <trkpt lat="44.62926" lon="5.79722">
        <ele>1807.4</ele>
        <time>2015-06-30T11:54:15Z</time>
      </trkpt>
      <trkpt lat="44.62929" lon="5.7973">
        <ele>1807.1</ele>
        <time>2015-06-30T11:54:20Z</time>
      </trkpt>
      <trkpt lat="44.62932" lon="5.79737">
        <ele>1807.8</ele>
        <time>2015-06-30T11:54:25Z</time>
      </trkpt>
      <trkpt lat="44.62936" lon="5.79744">
        <ele>1806.1</ele>
        <time>2015-06-30T11:54:30Z</time>
      </trkpt>
      <trkpt lat="44.62938" lon="5.7975">
        <ele>1805.4</ele>
        <time>2015-06-30T11:54:35Z</time>
      </trkpt>
      <trkpt lat="44.62942" lon="5.79757">
        <ele>1804.1</ele>
        <time>2015-06-30T11:54:40Z</time>
      </trkpt>
      <trkpt lat="44.62946" lon="5.79763">
        <ele>1802.7</ele>
        <time>2015-06-30T11:54:45Z</time>
      </trkpt>
      <trkpt lat="44.62948" lon="5.79767">
        <ele>1802.6</ele>
        <time>2015-06-30T11:54:50Z</time>
      </trkpt>
      <trkpt lat="44.62949" lon="5.79774">
        <ele>1801.4</ele>
        <time>2015-06-30T11:54:55Z</time>
      </trkpt>
      <trkpt lat="44.62951" lon="5.79782">
        <ele>1800.3</ele>
        <time>2015-06-30T11:55:00Z</time>
      </trkpt>
      <trkpt lat="44.62953" lon="5.79788">
        <ele>1798.2</ele>
        <time>2015-06-30T11:55:05Z</time>
      </trkpt>
      <trkpt lat="44.62955" lon="5.79794">
        <ele>1796.3</ele>
        <time>2015-06-30T11:55:10Z</time>
      </trkpt>
      <trkpt lat="44.62957" lon="5.79801">
        <ele>1795.5</ele>
        <time>2015-06-30T11:55:15Z</time>
      </trkpt>
      <trkpt lat="44.62959" lon="5.79808">
        <ele>1795.1</ele>
        <time>2015-06-30T11:55:20Z</time>
      </trkpt>
      <trkpt lat="44.62962" lon="5.79815">
        <ele>1795.8</ele>
        <time>2015-06-30T11:55:25Z</time>
      </trkpt>
      <trkpt lat="44.62964" lon="5.79822">
        <ele>1796.4</ele>
        <time>2015-06-30T11:55:30Z</time>
      </trkpt>
      <trkpt lat="44.62966" lon="5.79831">
        <ele>1793.3</ele>
        <time>2015-06-30T11:55:35Z</time>
      </trkpt>
      <trkpt lat="44.62967" lon="5.79839">
        <ele>1792.9</ele>
        <time>2015-06-30T11:55:40Z</time>
      </trkpt>
      <trkpt lat="44.6297" lon="5.79846">
        <ele>1792.1</ele>
        <time>2015-06-30T11:55:45Z</time>
      </trkpt>
      <trkpt lat="44.62972" lon="5.79853">
        <ele>1790.5</ele>
        <time>2015-06-30T11:55:50Z</time>
      </trkpt>
      <trkpt lat="44.62976" lon="5.79859">
        <ele>1786.5</ele>
        <time>2015-06-30T11:55:55Z</time>
      </trkpt>
      <trkpt lat="44.62978" lon="5.79867">
        <ele>1785.1</ele>
        <time>2015-06-30T11:56:00Z</time>
      </trkpt>
      <trkpt lat="44.62982" lon="5.79873">
        <ele>1783.3</ele>
        <time>2015-06-30T11:56:05Z</time>
      </trkpt>
      <trkpt lat="44.62986" lon="5.7988">
        <ele>1783.2</ele>
        <time>2015-06-30T11:56:10Z</time>
      </trkpt>
      <trkpt lat="44.62988" lon="5.79889">
        <ele>1781.6</ele>
        <time>2015-06-30T11:56:15Z</time>
      </trkpt>
      <trkpt lat="44.62991" lon="5.79897">
        <ele>1781.1</ele>
        <time>2015-06-30T11:56:20Z</time>
      </trkpt>
      <trkpt lat="44.62995" lon="5.79905">
        <ele>1781.4</ele>
        <time>2015-06-30T11:56:25Z</time>
      </trkpt>
      <trkpt lat="44.62996" lon="5.79912">
        <ele>1780.6</ele>
        <time>2015-06-30T11:56:30Z</time>
      </trkpt>
      <trkpt lat="44.62998" lon="5.79921">
        <ele>1780.5</ele>
        <time>2015-06-30T11:56:35Z</time>
      </trkpt>
      <trkpt lat="44.63002" lon="5.79929">
        <ele>1781</ele>
        <time>2015-06-30T11:56:40Z</time>
      </trkpt>
      <trkpt lat="44.63004" lon="5.79936">
        <ele>1783</ele>
        <time>2015-06-30T11:56:45Z</time>
      </trkpt>
      <trkpt lat="44.63007" lon="5.79941">
        <ele>1780.5</ele>
        <time>2015-06-30T11:56:50Z</time>
      </trkpt>
      <trkpt lat="44.63011" lon="5.79945">
        <ele>1781.9</ele>
        <time>2015-06-30T11:56:55Z</time>
      </trkpt>
      <trkpt lat="44.63015" lon="5.79951">
        <ele>1779.6</ele>
        <time>2015-06-30T11:57:00Z</time>
      </trkpt>
      <trkpt lat="44.63018" lon="5.79959">
        <ele>1778.8</ele>
        <time>2015-06-30T11:57:05Z</time>
      </trkpt>
      <trkpt lat="44.63022" lon="5.79968">
        <ele>1780.6</ele>
        <time>2015-06-30T11:57:10Z</time>
      </trkpt>
      <trkpt lat="44.63025" lon="5.79977">
        <ele>1782.1</ele>
        <time>2015-06-30T11:57:15Z</time>
      </trkpt>
      <trkpt lat="44.63028" lon="5.7998">
        <ele>1781.2</ele>
        <time>2015-06-30T11:57:20Z</time>
      </trkpt>
      <trkpt lat="44.63031" lon="5.79988">
        <ele>1780.7</ele>
        <time>2015-06-30T11:57:25Z</time>
      </trkpt>
      <trkpt lat="44.63036" lon="5.79996">
        <ele>1780.1</ele>
        <time>2015-06-30T11:57:30Z</time>
      </trkpt>
      <trkpt lat="44.63041" lon="5.80002">
        <ele>1777.2</ele>
        <time>2015-06-30T11:57:35Z</time>
      </trkpt>
      <trkpt lat="44.63045" lon="5.80009">
        <ele>1780.7</ele>
        <time>2015-06-30T11:57:40Z</time>
      </trkpt>
      <trkpt lat="44.6305" lon="5.80012">
        <ele>1782</ele>
        <time>2015-06-30T11:57:45Z</time>
      </trkpt>
      <trkpt lat="44.63055" lon="5.80018">
        <ele>1782</ele>
        <time>2015-06-30T11:57:50Z</time>
      </trkpt>
      <trkpt lat="44.63059" lon="5.80025">
        <ele>1781.5</ele>
        <time>2015-06-30T11:57:55Z</time>
      </trkpt>
      <trkpt lat="44.63063" lon="5.8003">
        <ele>1780.7</ele>
        <time>2015-06-30T11:58:00Z</time>
      </trkpt>
      <trkpt lat="44.63067" lon="5.80037">
        <ele>1779.8</ele>
        <time>2015-06-30T11:58:05Z</time>
      </trkpt>
      <trkpt lat="44.6307" lon="5.80045">
        <ele>1779.2</ele>
        <time>2015-06-30T11:58:10Z</time>
      </trkpt>
      <trkpt lat="44.63073" lon="5.80052">
        <ele>1778</ele>
        <time>2015-06-30T11:58:15Z</time>
      </trkpt>
      <trkpt lat="44.63076" lon="5.8006">
        <ele>1776.7</ele>
        <time>2015-06-30T11:58:20Z</time>
      </trkpt>
      <trkpt lat="44.6308" lon="5.80067">
        <ele>1775.5</ele>
        <time>2015-06-30T11:58:25Z</time>
      </trkpt>
      <trkpt lat="44.63083" lon="5.80075">
        <ele>1774.4</ele>
        <time>2015-06-30T11:58:30Z</time>
      </trkpt>
      <trkpt lat="44.63086" lon="5.80083">
        <ele>1772.8</ele>
        <time>2015-06-30T11:58:35Z</time>
      </trkpt>
      <trkpt lat="44.63089" lon="5.8009">
        <ele>1771.9</ele>
        <time>2015-06-30T11:58:40Z</time>
      </trkpt>
      <trkpt lat="44.63089" lon="5.80097">
        <ele>1771.1</ele>
        <time>2015-06-30T11:58:45Z</time>
      </trkpt>
      <trkpt lat="44.6309" lon="5.80105">
        <ele>1770.5</ele>
        <time>2015-06-30T11:58:50Z</time>
      </trkpt>
      <trkpt lat="44.6309" lon="5.80115">
        <ele>1769.4</ele>
        <time>2015-06-30T11:58:55Z</time>
      </trkpt>
      <trkpt lat="44.63089" lon="5.80126">
        <ele>1768.6</ele>
        <time>2015-06-30T11:59:00Z</time>
      </trkpt>
      <trkpt lat="44.63091" lon="5.80134">
        <ele>1767.9</ele>
        <time>2015-06-30T11:59:05Z</time>
      </trkpt>
      <trkpt lat="44.63092" lon="5.80143">
        <ele>1766.8</ele>
        <time>2015-06-30T11:59:10Z</time>
      </trkpt>
      <trkpt lat="44.63094" lon="5.8015">
        <ele>1767.4</ele>
        <time>2015-06-30T11:59:15Z</time>
      </trkpt>
      <trkpt lat="44.63097" lon="5.80158">
        <ele>1767.1</ele>
        <time>2015-06-30T11:59:20Z</time>
      </trkpt>
      <trkpt lat="44.63099" lon="5.80167">
        <ele>1767.8</ele>
        <time>2015-06-30T11:59:25Z</time>
      </trkpt>
      <trkpt lat="44.63101" lon="5.80175">
        <ele>1768.4</ele>
        <time>2015-06-30T11:59:30Z</time>
      </trkpt>
      <trkpt lat="44.63102" lon="5.80184">
        <ele>1768.1</ele>
        <time>2015-06-30T11:59:35Z</time>
      </trkpt>
      <trkpt lat="44.63103" lon="5.80192">
        <ele>1766.7</ele>
        <time>2015-06-30T11:59:40Z</time>
      </trkpt>
      <trkpt lat="44.63105" lon="5.802">
        <ele>1765.5</ele>
        <time>2015-06-30T11:59:45Z</time>
      </trkpt>
      <trkpt lat="44.63108" lon="5.80207">
        <ele>1766.5</ele>
        <time>2015-06-30T11:59:50Z</time>
      </trkpt>
      <trkpt lat="44.6311" lon="5.80214">
        <ele>1764.9</ele>
        <time>2015-06-30T11:59:55Z</time>
      </trkpt>
      <trkpt lat="44.63113" lon="5.80222">
        <ele>1762.7</ele>
        <time>2015-06-30T12:00:00Z</time>
      </trkpt>
      <trkpt lat="44.63115" lon="5.80229">
        <ele>1759.4</ele>
        <time>2015-06-30T12:00:05Z</time>
      </trkpt>
      <trkpt lat="44.63118" lon="5.80237">
        <ele>1758.8</ele>
        <time>2015-06-30T12:00:10Z</time>
      </trkpt>
      <trkpt lat="44.6312" lon="5.80244">
        <ele>1757.9</ele>
        <time>2015-06-30T12:00:15Z</time>
      </trkpt>
      <trkpt lat="44.63121" lon="5.80251">
        <ele>1757.1</ele>
        <time>2015-06-30T12:00:20Z</time>
      </trkpt>
      <trkpt lat="44.63123" lon="5.80259">
        <ele>1756.9</ele>
        <time>2015-06-30T12:00:25Z</time>
      </trkpt>
      <trkpt lat="44.63127" lon="5.80266">
        <ele>1756.9</ele>
        <time>2015-06-30T12:00:30Z</time>
      </trkpt>
      <trkpt lat="44.6313" lon="5.80272">
        <ele>1757</ele>
        <time>2015-06-30T12:00:35Z</time>
      </trkpt>
      <trkpt lat="44.63133" lon="5.80277">
        <ele>1754.7</ele>
        <time>2015-06-30T12:00:40Z</time>
      </trkpt>
      <trkpt lat="44.63136" lon="5.80284">
        <ele>1752.8</ele>
        <time>2015-06-30T12:00:45Z</time>
      </trkpt>
      <trkpt lat="44.6314" lon="5.8029">
        <ele>1752.3</ele>
        <time>2015-06-30T12:00:50Z</time>
      </trkpt>
      <trkpt lat="44.63142" lon="5.80297">
        <ele>1751.6</ele>
        <time>2015-06-30T12:00:55Z</time>
      </trkpt>
      <trkpt lat="44.63144" lon="5.80306">
        <ele>1751.6</ele>
        <time>2015-06-30T12:01:00Z</time>
      </trkpt>
      <trkpt lat="44.63149" lon="5.80315">
        <ele>1751.6</ele>
        <time>2015-06-30T12:01:05Z</time>
      </trkpt>
      <trkpt lat="44.63151" lon="5.80322">
        <ele>1750.7</ele>
        <time>2015-06-30T12:01:10Z</time>
      </trkpt>
      <trkpt lat="44.6315" lon="5.80326">
        <ele>1750.7</ele>
        <time>2015-06-30T12:01:16Z</time>
      </trkpt>
      <trkpt lat="44.63152" lon="5.80334">
        <ele>1749.2</ele>
        <time>2015-06-30T12:01:22Z</time>
      </trkpt>
      <trkpt lat="44.63151" lon="5.80341">
        <ele>1748.5</ele>
        <time>2015-06-30T12:01:27Z</time>
      </trkpt>
      <trkpt lat="44.63154" lon="5.80347">
        <ele>1750.3</ele>
        <time>2015-06-30T12:01:32Z</time>
      </trkpt>
      <trkpt lat="44.63154" lon="5.80354">
        <ele>1752.4</ele>
        <time>2015-06-30T12:01:37Z</time>
      </trkpt>
      <trkpt lat="44.63154" lon="5.8036">
        <ele>1753.5</ele>
        <time>2015-06-30T12:01:42Z</time>
      </trkpt>
      <trkpt lat="44.63156" lon="5.80368">
        <ele>1754</ele>
        <time>2015-06-30T12:01:47Z</time>
      </trkpt>
      <trkpt lat="44.63159" lon="5.80376">
        <ele>1754.9</ele>
        <time>2015-06-30T12:01:52Z</time>
      </trkpt>
      <trkpt lat="44.63162" lon="5.80384">
        <ele>1755.8</ele>
        <time>2015-06-30T12:01:57Z</time>
      </trkpt>
      <trkpt lat="44.63164" lon="5.80391">
        <ele>1756.1</ele>
        <time>2015-06-30T12:02:02Z</time>
      </trkpt>
      <trkpt lat="44.63163" lon="5.80401">
        <ele>1755.5</ele>
        <time>2015-06-30T12:02:07Z</time>
      </trkpt>
      <trkpt lat="44.63162" lon="5.80404">
        <ele>1755.6</ele>
        <time>2015-06-30T12:02:12Z</time>
      </trkpt>
      <trkpt lat="44.63163" lon="5.80405">
        <ele>1756.7</ele>
        <time>2015-06-30T12:02:17Z</time>
      </trkpt>
      <trkpt lat="44.63164" lon="5.80413">
        <ele>1758.4</ele>
        <time>2015-06-30T12:02:22Z</time>
      </trkpt>
      <trkpt lat="44.63168" lon="5.80418">
        <ele>1759</ele>
        <time>2015-06-30T12:02:27Z</time>
      </trkpt>
      <trkpt lat="44.6317" lon="5.8042">
        <ele>1760</ele>
        <time>2015-06-30T12:02:32Z</time>
      </trkpt>
      <trkpt lat="44.63171" lon="5.80421">
        <ele>1759.3</ele>
        <time>2015-06-30T12:02:37Z</time>
      </trkpt>
      <trkpt lat="44.63171" lon="5.8042">
        <ele>1758.8</ele>
        <time>2015-06-30T12:02:42Z</time>
      </trkpt>
      <trkpt lat="44.6317" lon="5.80422">
        <ele>1758.9</ele>
        <time>2015-06-30T12:02:47Z</time>
      </trkpt>
      <trkpt lat="44.6317" lon="5.80423">
        <ele>1758.7</ele>
        <time>2015-06-30T12:02:52Z</time>
      </trkpt>
      <trkpt lat="44.63168" lon="5.80424">
        <ele>1758.2</ele>
        <time>2015-06-30T12:02:57Z</time>
      </trkpt>
      <trkpt lat="44.63165" lon="5.80428">
        <ele>1758.2</ele>
        <time>2015-06-30T12:03:02Z</time>
      </trkpt>
      <trkpt lat="44.63164" lon="5.80436">
        <ele>1758.7</ele>
        <time>2015-06-30T12:03:07Z</time>
      </trkpt>
      <trkpt lat="44.63161" lon="5.80438">
        <ele>1758.1</ele>
        <time>2015-06-30T12:03:12Z</time>
      </trkpt>
      <trkpt lat="44.63161" lon="5.80435">
        <ele>1758</ele>
        <time>2015-06-30T12:03:17Z</time>
      </trkpt>
      <trkpt lat="44.63163" lon="5.8043">
        <ele>1757.5</ele>
        <time>2015-06-30T12:03:22Z</time>
      </trkpt>
      <trkpt lat="44.63167" lon="5.80424">
        <ele>1756.7</ele>
        <time>2015-06-30T12:03:27Z</time>
      </trkpt>
      <trkpt lat="44.63172" lon="5.80423">
        <ele>1756.4</ele>
        <time>2015-06-30T12:03:32Z</time>
      </trkpt>
      <trkpt lat="44.63178" lon="5.80424">
        <ele>1756.6</ele>
        <time>2015-06-30T12:03:37Z</time>
      </trkpt>
      <trkpt lat="44.63184" lon="5.80424">
        <ele>1758.4</ele>
        <time>2015-06-30T12:03:42Z</time>
      </trkpt>
      <trkpt lat="44.6319" lon="5.80425">
        <ele>1760.3</ele>
        <time>2015-06-30T12:03:47Z</time>
      </trkpt>
      <trkpt lat="44.63197" lon="5.80427">
        <ele>1759.5</ele>
        <time>2015-06-30T12:03:52Z</time>
      </trkpt>
      <trkpt lat="44.63204" lon="5.8043">
        <ele>1757.6</ele>
        <time>2015-06-30T12:03:57Z</time>
      </trkpt>
      <trkpt lat="44.6321" lon="5.80428">
        <ele>1757.4</ele>
        <time>2015-06-30T12:04:02Z</time>
      </trkpt>
      <trkpt lat="44.63215" lon="5.80427">
        <ele>1758.3</ele>
        <time>2015-06-30T12:04:07Z</time>
      </trkpt>
      <trkpt lat="44.63221" lon="5.80425">
        <ele>1756.1</ele>
        <time>2015-06-30T12:04:14Z</time>
      </trkpt>
      <trkpt lat="44.63229" lon="5.80424">
        <ele>1755.8</ele>
        <time>2015-06-30T12:04:19Z</time>
      </trkpt>
      <trkpt lat="44.63235" lon="5.80421">
        <ele>1756.8</ele>
        <time>2015-06-30T12:04:24Z</time>
      </trkpt>
      <trkpt lat="44.63241" lon="5.80422">
        <ele>1756.3</ele>
        <time>2015-06-30T12:04:29Z</time>
      </trkpt>
      <trkpt lat="44.63247" lon="5.80423">
        <ele>1756.1</ele>
        <time>2015-06-30T12:04:34Z</time>
      </trkpt>
      <trkpt lat="44.63254" lon="5.80424">
        <ele>1754.1</ele>
        <time>2015-06-30T12:04:39Z</time>
      </trkpt>
      <trkpt lat="44.6326" lon="5.80425">
        <ele>1754.8</ele>
        <time>2015-06-30T12:04:44Z</time>
      </trkpt>
      <trkpt lat="44.63265" lon="5.80426">
        <ele>1755.2</ele>
        <time>2015-06-30T12:04:49Z</time>
      </trkpt>
      <trkpt lat="44.63271" lon="5.80425">
        <ele>1752.3</ele>
        <time>2015-06-30T12:04:54Z</time>
      </trkpt>
      <trkpt lat="44.63278" lon="5.80422">
        <ele>1750.1</ele>
        <time>2015-06-30T12:04:59Z</time>
      </trkpt>
      <trkpt lat="44.63286" lon="5.8042">
        <ele>1749.7</ele>
        <time>2015-06-30T12:05:06Z</time>
      </trkpt>
      <trkpt lat="44.63298" lon="5.80417">
        <ele>1744.6</ele>
        <time>2015-06-30T12:05:14Z</time>
      </trkpt>
      <trkpt lat="44.63305" lon="5.80414">
        <ele>1744.1</ele>
        <time>2015-06-30T12:05:19Z</time>
      </trkpt>
      <trkpt lat="44.63313" lon="5.80411">
        <ele>1742.7</ele>
        <time>2015-06-30T12:05:24Z</time>
      </trkpt>
      <trkpt lat="44.63315" lon="5.80403">
        <ele>1742.5</ele>
        <time>2015-06-30T12:05:29Z</time>
      </trkpt>
      <trkpt lat="44.6332" lon="5.80397">
        <ele>1743</ele>
        <time>2015-06-30T12:05:34Z</time>
      </trkpt>
      <trkpt lat="44.63324" lon="5.80396">
        <ele>1742.3</ele>
        <time>2015-06-30T12:05:39Z</time>
      </trkpt>
      <trkpt lat="44.63329" lon="5.80397">
        <ele>1745</ele>
        <time>2015-06-30T12:05:44Z</time>
      </trkpt>
      <trkpt lat="44.63332" lon="5.80405">
        <ele>1747.3</ele>
        <time>2015-06-30T12:05:49Z</time>
      </trkpt>
      <trkpt lat="44.63338" lon="5.80413">
        <ele>1748.7</ele>
        <time>2015-06-30T12:05:54Z</time>
      </trkpt>
      <trkpt lat="44.63344" lon="5.80414">
        <ele>1749.7</ele>
        <time>2015-06-30T12:05:59Z</time>
      </trkpt>
      <trkpt lat="44.63351" lon="5.80414">
        <ele>1749.1</ele>
        <time>2015-06-30T12:06:04Z</time>
      </trkpt>
      <trkpt lat="44.63358" lon="5.80415">
        <ele>1748.5</ele>
        <time>2015-06-30T12:06:09Z</time>
      </trkpt>
      <trkpt lat="44.63363" lon="5.80415">
        <ele>1747.9</ele>
        <time>2015-06-30T12:06:14Z</time>
      </trkpt>
      <trkpt lat="44.63369" lon="5.80415">
        <ele>1746.5</ele>
        <time>2015-06-30T12:06:19Z</time>
      </trkpt>
      <trkpt lat="44.63376" lon="5.80416">
        <ele>1745.7</ele>
        <time>2015-06-30T12:06:24Z</time>
      </trkpt>
      <trkpt lat="44.63382" lon="5.80417">
        <ele>1745.3</ele>
        <time>2015-06-30T12:06:29Z</time>
      </trkpt>
      <trkpt lat="44.63389" lon="5.80417">
        <ele>1744.3</ele>
        <time>2015-06-30T12:06:34Z</time>
      </trkpt>
      <trkpt lat="44.63395" lon="5.80416">
        <ele>1744.2</ele>
        <time>2015-06-30T12:06:39Z</time>
      </trkpt>
      <trkpt lat="44.63402" lon="5.80417">
        <ele>1742.8</ele>
        <time>2015-06-30T12:06:44Z</time>
      </trkpt>
      <trkpt lat="44.63408" lon="5.80419">
        <ele>1744.8</ele>
        <time>2015-06-30T12:06:49Z</time>
      </trkpt>
      <trkpt lat="44.63414" lon="5.8042">
        <ele>1745.8</ele>
        <time>2015-06-30T12:06:54Z</time>
      </trkpt>
      <trkpt lat="44.6342" lon="5.80422">
        <ele>1746.1</ele>
        <time>2015-06-30T12:06:59Z</time>
      </trkpt>
      <trkpt lat="44.63425" lon="5.80426">
        <ele>1746</ele>
        <time>2015-06-30T12:07:04Z</time>
      </trkpt>
      <trkpt lat="44.63431" lon="5.80428">
        <ele>1745.6</ele>
        <time>2015-06-30T12:07:09Z</time>
      </trkpt>
      <trkpt lat="44.63432" lon="5.80427">
        <ele>1745.1</ele>
        <time>2015-06-30T12:07:14Z</time>
      </trkpt>
      <trkpt lat="44.63435" lon="5.80424">
        <ele>1744</ele>
        <time>2015-06-30T12:07:19Z</time>
      </trkpt>
      <trkpt lat="44.63439" lon="5.8042">
        <ele>1743.5</ele>
        <time>2015-06-30T12:07:24Z</time>
      </trkpt>
      <trkpt lat="44.63444" lon="5.80426">
        <ele>1745.2</ele>
        <time>2015-06-30T12:07:29Z</time>
      </trkpt>
      <trkpt lat="44.63446" lon="5.80434">
        <ele>1747.1</ele>
        <time>2015-06-30T12:07:34Z</time>
      </trkpt>
      <trkpt lat="44.63449" lon="5.80443">
        <ele>1747.8</ele>
        <time>2015-06-30T12:07:39Z</time>
      </trkpt>
      <trkpt lat="44.63453" lon="5.80449">
        <ele>1747.9</ele>
        <time>2015-06-30T12:07:44Z</time>
      </trkpt>
      <trkpt lat="44.63458" lon="5.80457">
        <ele>1747.5</ele>
        <time>2015-06-30T12:07:49Z</time>
      </trkpt>
      <trkpt lat="44.63461" lon="5.8046">
        <ele>1746.9</ele>
        <time>2015-06-30T12:07:54Z</time>
      </trkpt>
      <trkpt lat="44.63467" lon="5.80463">
        <ele>1746.9</ele>
        <time>2015-06-30T12:07:59Z</time>
      </trkpt>
      <trkpt lat="44.63474" lon="5.80465">
        <ele>1747.4</ele>
        <time>2015-06-30T12:08:04Z</time>
      </trkpt>
      <trkpt lat="44.6348" lon="5.80467">
        <ele>1747.1</ele>
        <time>2015-06-30T12:08:09Z</time>
      </trkpt>
      <trkpt lat="44.63487" lon="5.80466">
        <ele>1747.6</ele>
        <time>2015-06-30T12:08:14Z</time>
      </trkpt>
      <trkpt lat="44.63493" lon="5.80465">
        <ele>1746.6</ele>
        <time>2015-06-30T12:08:19Z</time>
      </trkpt>
      <trkpt lat="44.63498" lon="5.80465">
        <ele>1746.3</ele>
        <time>2015-06-30T12:08:24Z</time>
      </trkpt>
      <trkpt lat="44.63504" lon="5.80465">
        <ele>1747</ele>
        <time>2015-06-30T12:08:29Z</time>
      </trkpt>
      <trkpt lat="44.63511" lon="5.80466">
        <ele>1744.9</ele>
        <time>2015-06-30T12:08:34Z</time>
      </trkpt>
      <trkpt lat="44.63516" lon="5.80471">
        <ele>1744.3</ele>
        <time>2015-06-30T12:08:39Z</time>
      </trkpt>
      <trkpt lat="44.63524" lon="5.80476">
        <ele>1742.6</ele>
        <time>2015-06-30T12:08:44Z</time>
      </trkpt>
      <trkpt lat="44.6353" lon="5.80478">
        <ele>1738.1</ele>
        <time>2015-06-30T12:08:49Z</time>
      </trkpt>
      <trkpt lat="44.63536" lon="5.80481">
        <ele>1738</ele>
        <time>2015-06-30T12:08:54Z</time>
      </trkpt>
      <trkpt lat="44.63542" lon="5.80483">
        <ele>1737.6</ele>
        <time>2015-06-30T12:08:59Z</time>
      </trkpt>
      <trkpt lat="44.63548" lon="5.80488">
        <ele>1738.2</ele>
        <time>2015-06-30T12:09:04Z</time>
      </trkpt>
      <trkpt lat="44.63553" lon="5.80494">
        <ele>1737.2</ele>
        <time>2015-06-30T12:09:09Z</time>
      </trkpt>
      <trkpt lat="44.63556" lon="5.805">
        <ele>1740.1</ele>
        <time>2015-06-30T12:09:14Z</time>
      </trkpt>
      <trkpt lat="44.63562" lon="5.80504">
        <ele>1736.7</ele>
        <time>2015-06-30T12:09:19Z</time>
      </trkpt>
      <trkpt lat="44.63572" lon="5.80505">
        <ele>1730.4</ele>
        <time>2015-06-30T12:09:24Z</time>
      </trkpt>
      <trkpt lat="44.6358" lon="5.80509">
        <ele>1726.1</ele>
        <time>2015-06-30T12:09:29Z</time>
      </trkpt>
      <trkpt lat="44.63585" lon="5.80514">
        <ele>1725.6</ele>
        <time>2015-06-30T12:09:34Z</time>
      </trkpt>
      <trkpt lat="44.63589" lon="5.80516">
        <ele>1727.1</ele>
        <time>2015-06-30T12:09:39Z</time>
      </trkpt>
      <trkpt lat="44.63595" lon="5.80521">
        <ele>1728</ele>
        <time>2015-06-30T12:09:44Z</time>
      </trkpt>
      <trkpt lat="44.636" lon="5.80524">
        <ele>1730.1</ele>
        <time>2015-06-30T12:09:49Z</time>
      </trkpt>
      <trkpt lat="44.63601" lon="5.80525">
        <ele>1732.8</ele>
        <time>2015-06-30T12:09:54Z</time>
      </trkpt>
      <trkpt lat="44.63605" lon="5.80528">
        <ele>1736.6</ele>
        <time>2015-06-30T12:09:59Z</time>
      </trkpt>
      <trkpt lat="44.63609" lon="5.80533">
        <ele>1742.2</ele>
        <time>2015-06-30T12:10:04Z</time>
      </trkpt>
      <trkpt lat="44.63613" lon="5.80541">
        <ele>1742.3</ele>
        <time>2015-06-30T12:10:09Z</time>
      </trkpt>
      <trkpt lat="44.6362" lon="5.80548">
        <ele>1741.2</ele>
        <time>2015-06-30T12:10:14Z</time>
      </trkpt>
      <trkpt lat="44.63628" lon="5.80547">
        <ele>1739.9</ele>
        <time>2015-06-30T12:10:19Z</time>
      </trkpt>
      <trkpt lat="44.63638" lon="5.80542">
        <ele>1730.6</ele>
        <time>2015-06-30T12:10:24Z</time>
      </trkpt>
      <trkpt lat="44.63644" lon="5.8054">
        <ele>1726.3</ele>
        <time>2015-06-30T12:10:29Z</time>
      </trkpt>
      <trkpt lat="44.63651" lon="5.80544">
        <ele>1727.2</ele>
        <time>2015-06-30T12:10:34Z</time>
      </trkpt>
      <trkpt lat="44.63656" lon="5.80547">
        <ele>1724.5</ele>
        <time>2015-06-30T12:10:39Z</time>
      </trkpt>
      <trkpt lat="44.63664" lon="5.80554">
        <ele>1718.5</ele>
        <time>2015-06-30T12:10:44Z</time>
      </trkpt>
      <trkpt lat="44.63672" lon="5.80546">
        <ele>1716.6</ele>
        <time>2015-06-30T12:10:49Z</time>
      </trkpt>
      <trkpt lat="44.6368" lon="5.80544">
        <ele>1712.4</ele>
        <time>2015-06-30T12:10:54Z</time>
      </trkpt>
      <trkpt lat="44.63685" lon="5.80545">
        <ele>1714</ele>
        <time>2015-06-30T12:10:59Z</time>
      </trkpt>
      <trkpt lat="44.6369" lon="5.80547">
        <ele>1717.6</ele>
        <time>2015-06-30T12:11:04Z</time>
      </trkpt>
      <trkpt lat="44.63695" lon="5.80556">
        <ele>1718.9</ele>
        <time>2015-06-30T12:11:09Z</time>
      </trkpt>
      <trkpt lat="44.63699" lon="5.80558">
        <ele>1722</ele>
        <time>2015-06-30T12:11:14Z</time>
      </trkpt>
      <trkpt lat="44.63701" lon="5.80563">
        <ele>1728.7</ele>
        <time>2015-06-30T12:11:19Z</time>
      </trkpt>
      <trkpt lat="44.63706" lon="5.80563">
        <ele>1732.1</ele>
        <time>2015-06-30T12:11:24Z</time>
      </trkpt>
      <trkpt lat="44.63711" lon="5.80565">
        <ele>1732.7</ele>
        <time>2015-06-30T12:11:29Z</time>
      </trkpt>
      <trkpt lat="44.63717" lon="5.80569">
        <ele>1731.9</ele>
        <time>2015-06-30T12:11:34Z</time>
      </trkpt>
      <trkpt lat="44.63722" lon="5.80569">
        <ele>1735.9</ele>
        <time>2015-06-30T12:11:39Z</time>
      </trkpt>
      <trkpt lat="44.63728" lon="5.80569">
        <ele>1734.2</ele>
        <time>2015-06-30T12:11:44Z</time>
      </trkpt>
      <trkpt lat="44.63735" lon="5.80569">
        <ele>1732.8</ele>
        <time>2015-06-30T12:11:49Z</time>
      </trkpt>
      <trkpt lat="44.63743" lon="5.8057">
        <ele>1727.7</ele>
        <time>2015-06-30T12:11:54Z</time>
      </trkpt>
      <trkpt lat="44.63748" lon="5.80571">
        <ele>1730.7</ele>
        <time>2015-06-30T12:11:59Z</time>
      </trkpt>
      <trkpt lat="44.63752" lon="5.80571">
        <ele>1737</ele>
        <time>2015-06-30T12:12:04Z</time>
      </trkpt>
      <trkpt lat="44.63758" lon="5.80572">
        <ele>1736.8</ele>
        <time>2015-06-30T12:12:09Z</time>
      </trkpt>
      <trkpt lat="44.63764" lon="5.80572">
        <ele>1739.9</ele>
        <time>2015-06-30T12:12:14Z</time>
      </trkpt>
      <trkpt lat="44.63771" lon="5.80573">
        <ele>1736.3</ele>
        <time>2015-06-30T12:12:19Z</time>
      </trkpt>
      <trkpt lat="44.63778" lon="5.80572">
        <ele>1732.7</ele>
        <time>2015-06-30T12:12:24Z</time>
      </trkpt>
      <trkpt lat="44.63784" lon="5.80573">
        <ele>1734</ele>
        <time>2015-06-30T12:12:29Z</time>
      </trkpt>
      <trkpt lat="44.63789" lon="5.80568">
        <ele>1733.1</ele>
        <time>2015-06-30T12:12:34Z</time>
      </trkpt>
      <trkpt lat="44.63793" lon="5.80565">
        <ele>1735.7</ele>
        <time>2015-06-30T12:12:39Z</time>
      </trkpt>
      <trkpt lat="44.63796" lon="5.80562">
        <ele>1740</ele>
        <time>2015-06-30T12:12:44Z</time>
      </trkpt>
      <trkpt lat="44.63799" lon="5.80564">
        <ele>1744.9</ele>
        <time>2015-06-30T12:12:49Z</time>
      </trkpt>
      <trkpt lat="44.63799" lon="5.8057">
        <ele>1745.9</ele>
        <time>2015-06-30T12:12:54Z</time>
      </trkpt>
      <trkpt lat="44.63801" lon="5.80577">
        <ele>1743.9</ele>
        <time>2015-06-30T12:12:59Z</time>
      </trkpt>
      <trkpt lat="44.63807" lon="5.80578">
        <ele>1743.2</ele>
        <time>2015-06-30T12:13:04Z</time>
      </trkpt>
      <trkpt lat="44.63813" lon="5.8058">
        <ele>1743</ele>
        <time>2015-06-30T12:13:09Z</time>
      </trkpt>
      <trkpt lat="44.6382" lon="5.80583">
        <ele>1740.1</ele>
        <time>2015-06-30T12:13:14Z</time>
      </trkpt>
      <trkpt lat="44.63825" lon="5.80586">
        <ele>1741.8</ele>
        <time>2015-06-30T12:13:19Z</time>
      </trkpt>
      <trkpt lat="44.63829" lon="5.80592">
        <ele>1743.5</ele>
        <time>2015-06-30T12:13:24Z</time>
      </trkpt>
      <trkpt lat="44.63833" lon="5.80595">
        <ele>1744.5</ele>
        <time>2015-06-30T12:13:29Z</time>
      </trkpt>
      <trkpt lat="44.63836" lon="5.806">
        <ele>1745.1</ele>
        <time>2015-06-30T12:13:34Z</time>
      </trkpt>
      <trkpt lat="44.63836" lon="5.80603">
        <ele>1746.6</ele>
        <time>2015-06-30T12:13:39Z</time>
      </trkpt>
      <trkpt lat="44.63836" lon="5.80602">
        <ele>1747.9</ele>
        <time>2015-06-30T12:13:44Z</time>
      </trkpt>
      <trkpt lat="44.63836" lon="5.80602">
        <ele>1747.4</ele>
        <time>2015-06-30T12:13:49Z</time>
      </trkpt>
      <trkpt lat="44.63835" lon="5.80606">
        <ele>1747</ele>
        <time>2015-06-30T12:13:54Z</time>
      </trkpt>
      <trkpt lat="44.63833" lon="5.80608">
        <ele>1747.9</ele>
        <time>2015-06-30T12:13:59Z</time>
      </trkpt>
      <trkpt lat="44.63829" lon="5.80611">
        <ele>1748</ele>
        <time>2015-06-30T12:14:04Z</time>
      </trkpt>
      <trkpt lat="44.63826" lon="5.80618">
        <ele>1749.6</ele>
        <time>2015-06-30T12:14:09Z</time>
      </trkpt>
      <trkpt lat="44.63825" lon="5.80624">
        <ele>1749.1</ele>
        <time>2015-06-30T12:14:14Z</time>
      </trkpt>
      <trkpt lat="44.63824" lon="5.80631">
        <ele>1748.3</ele>
        <time>2015-06-30T12:14:19Z</time>
      </trkpt>
      <trkpt lat="44.63821" lon="5.80638">
        <ele>1750.4</ele>
        <time>2015-06-30T12:14:24Z</time>
      </trkpt>
      <trkpt lat="44.6382" lon="5.80644">
        <ele>1751.3</ele>
        <time>2015-06-30T12:14:29Z</time>
      </trkpt>
      <trkpt lat="44.6382" lon="5.80652">
        <ele>1751.5</ele>
        <time>2015-06-30T12:14:34Z</time>
      </trkpt>
      <trkpt lat="44.63821" lon="5.80661">
        <ele>1751.1</ele>
        <time>2015-06-30T12:14:39Z</time>
      </trkpt>
      <trkpt lat="44.63823" lon="5.80667">
        <ele>1753.4</ele>
        <time>2015-06-30T12:14:44Z</time>
      </trkpt>
      <trkpt lat="44.63827" lon="5.80674">
        <ele>1755.2</ele>
        <time>2015-06-30T12:14:49Z</time>
      </trkpt>
      <trkpt lat="44.6383" lon="5.80672">
        <ele>1756.2</ele>
        <time>2015-06-30T12:14:54Z</time>
      </trkpt>
      <trkpt lat="44.63831" lon="5.80666">
        <ele>1756.7</ele>
        <time>2015-06-30T12:14:59Z</time>
      </trkpt>
      <trkpt lat="44.6383" lon="5.8066">
        <ele>1758.7</ele>
        <time>2015-06-30T12:15:04Z</time>
      </trkpt>
      <trkpt lat="44.63832" lon="5.80654">
        <ele>1760.4</ele>
        <time>2015-06-30T12:15:09Z</time>
      </trkpt>
      <trkpt lat="44.63833" lon="5.80652">
        <ele>1763.2</ele>
        <time>2015-06-30T12:15:14Z</time>
      </trkpt>
      <trkpt lat="44.63833" lon="5.80652">
        <ele>1764.5</ele>
        <time>2015-06-30T12:15:19Z</time>
      </trkpt>
      <trkpt lat="44.63836" lon="5.80648">
        <ele>1765.7</ele>
        <time>2015-06-30T12:15:24Z</time>
      </trkpt>
      <trkpt lat="44.63841" lon="5.80644">
        <ele>1767.4</ele>
        <time>2015-06-30T12:15:29Z</time>
      </trkpt>
      <trkpt lat="44.63846" lon="5.8064">
        <ele>1767.5</ele>
        <time>2015-06-30T12:15:34Z</time>
      </trkpt>
      <trkpt lat="44.6385" lon="5.80636">
        <ele>1769.2</ele>
        <time>2015-06-30T12:15:39Z</time>
      </trkpt>
      <trkpt lat="44.63856" lon="5.80633">
        <ele>1769.9</ele>
        <time>2015-06-30T12:15:44Z</time>
      </trkpt>
      <trkpt lat="44.63862" lon="5.8063">
        <ele>1768.6</ele>
        <time>2015-06-30T12:15:49Z</time>
      </trkpt>
      <trkpt lat="44.63867" lon="5.80626">
        <ele>1769.1</ele>
        <time>2015-06-30T12:15:54Z</time>
      </trkpt>
      <trkpt lat="44.63872" lon="5.80622">
        <ele>1769.1</ele>
        <time>2015-06-30T12:15:59Z</time>
      </trkpt>
      <trkpt lat="44.63877" lon="5.80617">
        <ele>1771.8</ele>
        <time>2015-06-30T12:16:04Z</time>
      </trkpt>
      <trkpt lat="44.63881" lon="5.80612">
        <ele>1770.9</ele>
        <time>2015-06-30T12:16:09Z</time>
      </trkpt>
      <trkpt lat="44.63886" lon="5.80608">
        <ele>1773.2</ele>
        <time>2015-06-30T12:16:14Z</time>
      </trkpt>
      <trkpt lat="44.63891" lon="5.80607">
        <ele>1774.3</ele>
        <time>2015-06-30T12:16:19Z</time>
      </trkpt>
      <trkpt lat="44.63895" lon="5.80604">
        <ele>1776.3</ele>
        <time>2015-06-30T12:16:24Z</time>
      </trkpt>
      <trkpt lat="44.639" lon="5.80605">
        <ele>1781</ele>
        <time>2015-06-30T12:16:29Z</time>
      </trkpt>
      <trkpt lat="44.63904" lon="5.80605">
        <ele>1784</ele>
        <time>2015-06-30T12:16:34Z</time>
      </trkpt>
      <trkpt lat="44.63909" lon="5.80607">
        <ele>1784.1</ele>
        <time>2015-06-30T12:16:39Z</time>
      </trkpt>
      <trkpt lat="44.6391" lon="5.806">
        <ele>1784.3</ele>
        <time>2015-06-30T12:16:44Z</time>
      </trkpt>
      <trkpt lat="44.63909" lon="5.80592">
        <ele>1787.1</ele>
        <time>2015-06-30T12:16:49Z</time>
      </trkpt>
      <trkpt lat="44.63908" lon="5.80584">
        <ele>1787.2</ele>
        <time>2015-06-30T12:16:54Z</time>
      </trkpt>
      <trkpt lat="44.63906" lon="5.80575">
        <ele>1788.9</ele>
        <time>2015-06-30T12:16:59Z</time>
      </trkpt>
      <trkpt lat="44.63906" lon="5.80567">
        <ele>1789</ele>
        <time>2015-06-30T12:17:04Z</time>
      </trkpt>
      <trkpt lat="44.63907" lon="5.80559">
        <ele>1788.4</ele>
        <time>2015-06-30T12:17:09Z</time>
      </trkpt>
      <trkpt lat="44.63907" lon="5.80551">
        <ele>1788.5</ele>
        <time>2015-06-30T12:17:14Z</time>
      </trkpt>
      <trkpt lat="44.63907" lon="5.80551">
        <ele>1788.3</ele>
        <time>2015-06-30T12:17:19Z</time>
      </trkpt>
      <trkpt lat="44.63907" lon="5.80551">
        <ele>1787.9</ele>
        <time>2015-06-30T12:17:24Z</time>
      </trkpt>
      <trkpt lat="44.63907" lon="5.80546">
        <ele>1787.2</ele>
        <time>2015-06-30T12:17:29Z</time>
      </trkpt>
      <trkpt lat="44.63911" lon="5.80551">
        <ele>1787.4</ele>
        <time>2015-06-30T12:17:34Z</time>
      </trkpt>
      <trkpt lat="44.63915" lon="5.80558">
        <ele>1789.4</ele>
        <time>2015-06-30T12:17:39Z</time>
      </trkpt>
      <trkpt lat="44.63918" lon="5.80564">
        <ele>1791.4</ele>
        <time>2015-06-30T12:17:44Z</time>
      </trkpt>
      <trkpt lat="44.63921" lon="5.80572">
        <ele>1791.3</ele>
        <time>2015-06-30T12:17:49Z</time>
      </trkpt>
      <trkpt lat="44.63924" lon="5.80579">
        <ele>1791.7</ele>
        <time>2015-06-30T12:17:54Z</time>
      </trkpt>
      <trkpt lat="44.63927" lon="5.80586">
        <ele>1793.2</ele>
        <time>2015-06-30T12:17:59Z</time>
      </trkpt>
      <trkpt lat="44.63929" lon="5.80593">
        <ele>1794.6</ele>
        <time>2015-06-30T12:18:04Z</time>
      </trkpt>
      <trkpt lat="44.63933" lon="5.80599">
        <ele>1795.4</ele>
        <time>2015-06-30T12:18:09Z</time>
      </trkpt>
      <trkpt lat="44.63937" lon="5.80605">
        <ele>1795.3</ele>
        <time>2015-06-30T12:18:14Z</time>
      </trkpt>
      <trkpt lat="44.63939" lon="5.80612">
        <ele>1795.5</ele>
        <time>2015-06-30T12:18:19Z</time>
      </trkpt>
      <trkpt lat="44.63943" lon="5.80618">
        <ele>1792.8</ele>
        <time>2015-06-30T12:18:24Z</time>
      </trkpt>
      <trkpt lat="44.63946" lon="5.80625">
        <ele>1794.7</ele>
        <time>2015-06-30T12:18:29Z</time>
      </trkpt>
      <trkpt lat="44.6395" lon="5.80633">
        <ele>1798.9</ele>
        <time>2015-06-30T12:18:34Z</time>
      </trkpt>
      <trkpt lat="44.63953" lon="5.80639">
        <ele>1800.2</ele>
        <time>2015-06-30T12:18:39Z</time>
      </trkpt>
      <trkpt lat="44.6396" lon="5.80643">
        <ele>1797.8</ele>
        <time>2015-06-30T12:18:44Z</time>
      </trkpt>
      <trkpt lat="44.63965" lon="5.80646">
        <ele>1800.3</ele>
        <time>2015-06-30T12:18:49Z</time>
      </trkpt>
      <trkpt lat="44.63971" lon="5.80647">
        <ele>1801.4</ele>
        <time>2015-06-30T12:18:54Z</time>
      </trkpt>
      <trkpt lat="44.63977" lon="5.80648">
        <ele>1800.6</ele>
        <time>2015-06-30T12:18:59Z</time>
      </trkpt>
      <trkpt lat="44.63982" lon="5.80646">
        <ele>1801.6</ele>
        <time>2015-06-30T12:19:04Z</time>
      </trkpt>
      <trkpt lat="44.63988" lon="5.80645">
        <ele>1802.4</ele>
        <time>2015-06-30T12:19:09Z</time>
      </trkpt>
      <trkpt lat="44.63993" lon="5.80644">
        <ele>1805</ele>
        <time>2015-06-30T12:19:14Z</time>
      </trkpt>
      <trkpt lat="44.63999" lon="5.80642">
        <ele>1804.5</ele>
        <time>2015-06-30T12:19:19Z</time>
      </trkpt>
      <trkpt lat="44.64003" lon="5.80636">
        <ele>1803.8</ele>
        <time>2015-06-30T12:19:24Z</time>
      </trkpt>
      <trkpt lat="44.64008" lon="5.80634">
        <ele>1804.6</ele>
        <time>2015-06-30T12:19:29Z</time>
      </trkpt>
      <trkpt lat="44.64013" lon="5.80631">
        <ele>1806.9</ele>
        <time>2015-06-30T12:19:34Z</time>
      </trkpt>
      <trkpt lat="44.64019" lon="5.80629">
        <ele>1805.3</ele>
        <time>2015-06-30T12:19:39Z</time>
      </trkpt>
      <trkpt lat="44.64024" lon="5.80626">
        <ele>1806.2</ele>
        <time>2015-06-30T12:19:44Z</time>
      </trkpt>
      <trkpt lat="44.64024" lon="5.80626">
        <ele>1809.3</ele>
        <time>2015-06-30T12:19:49Z</time>
      </trkpt>
      <trkpt lat="44.64025" lon="5.80623">
        <ele>1803.8</ele>
        <time>2015-06-30T12:19:54Z</time>
      </trkpt>
      <trkpt lat="44.64029" lon="5.80623">
        <ele>1805.7</ele>
        <time>2015-06-30T12:19:59Z</time>
      </trkpt>
      <trkpt lat="44.64034" lon="5.80619">
        <ele>1805.4</ele>
        <time>2015-06-30T12:20:04Z</time>
      </trkpt>
      <trkpt lat="44.64039" lon="5.80616">
        <ele>1809.3</ele>
        <time>2015-06-30T12:20:09Z</time>
      </trkpt>
      <trkpt lat="44.64044" lon="5.80614">
        <ele>1810.9</ele>
        <time>2015-06-30T12:20:14Z</time>
      </trkpt>
      <trkpt lat="44.6405" lon="5.80611">
        <ele>1813</ele>
        <time>2015-06-30T12:20:19Z</time>
      </trkpt>
      <trkpt lat="44.64052" lon="5.80606">
        <ele>1816</ele>
        <time>2015-06-30T12:20:24Z</time>
      </trkpt>
      <trkpt lat="44.64053" lon="5.80605">
        <ele>1816.9</ele>
        <time>2015-06-30T12:20:29Z</time>
      </trkpt>
      <trkpt lat="44.64052" lon="5.80605">
        <ele>1818.8</ele>
        <time>2015-06-30T12:20:34Z</time>
      </trkpt>
      <trkpt lat="44.64052" lon="5.80605">
        <ele>1817.7</ele>
        <time>2015-06-30T12:20:39Z</time>
      </trkpt>
      <trkpt lat="44.64056" lon="5.80605">
        <ele>1818</ele>
        <time>2015-06-30T12:20:44Z</time>
      </trkpt>
      <trkpt lat="44.64059" lon="5.80599">
        <ele>1819.3</ele>
        <time>2015-06-30T12:20:49Z</time>
      </trkpt>
      <trkpt lat="44.64063" lon="5.80597">
        <ele>1821.7</ele>
        <time>2015-06-30T12:20:54Z</time>
      </trkpt>
      <trkpt lat="44.64068" lon="5.80592">
        <ele>1824.1</ele>
        <time>2015-06-30T12:20:59Z</time>
      </trkpt>
      <trkpt lat="44.64072" lon="5.80589">
        <ele>1826.9</ele>
        <time>2015-06-30T12:21:04Z</time>
      </trkpt>
      <trkpt lat="44.64071" lon="5.80583">
        <ele>1828.9</ele>
        <time>2015-06-30T12:21:09Z</time>
      </trkpt>
      <trkpt lat="44.6407" lon="5.80577">
        <ele>1830.8</ele>
        <time>2015-06-30T12:21:14Z</time>
      </trkpt>
      <trkpt lat="44.64069" lon="5.80575">
        <ele>1832.4</ele>
        <time>2015-06-30T12:21:19Z</time>
      </trkpt>
      <trkpt lat="44.6407" lon="5.80574">
        <ele>1832.6</ele>
        <time>2015-06-30T12:21:24Z</time>
      </trkpt>
      <trkpt lat="44.6407" lon="5.80575">
        <ele>1831.5</ele>
        <time>2015-06-30T12:21:29Z</time>
      </trkpt>
      <trkpt lat="44.6407" lon="5.80575">
        <ele>1830.9</ele>
        <time>2015-06-30T12:21:34Z</time>
      </trkpt>
      <trkpt lat="44.6407" lon="5.80578">
        <ele>1830.1</ele>
        <time>2015-06-30T12:21:39Z</time>
      </trkpt>
      <trkpt lat="44.64072" lon="5.80585">
        <ele>1829.4</ele>
        <time>2015-06-30T12:21:44Z</time>
      </trkpt>
      <trkpt lat="44.64069" lon="5.80592">
        <ele>1830</ele>
        <time>2015-06-30T12:21:49Z</time>
      </trkpt>
      <trkpt lat="44.64066" lon="5.80598">
        <ele>1829.8</ele>
        <time>2015-06-30T12:21:54Z</time>
      </trkpt>
      <trkpt lat="44.64064" lon="5.80602">
        <ele>1829.4</ele>
        <time>2015-06-30T12:21:59Z</time>
      </trkpt>
      <trkpt lat="44.64061" lon="5.80607">
        <ele>1829</ele>
        <time>2015-06-30T12:22:04Z</time>
      </trkpt>
      <trkpt lat="44.64058" lon="5.80612">
        <ele>1828.9</ele>
        <time>2015-06-30T12:22:09Z</time>
      </trkpt>
      <trkpt lat="44.64055" lon="5.80618">
        <ele>1827.6</ele>
        <time>2015-06-30T12:22:14Z</time>
      </trkpt>
      <trkpt lat="44.64052" lon="5.80625">
        <ele>1826.9</ele>
        <time>2015-06-30T12:22:19Z</time>
      </trkpt>
      <trkpt lat="44.64049" lon="5.80628">
        <ele>1826.6</ele>
        <time>2015-06-30T12:22:24Z</time>
      </trkpt>
      <trkpt lat="44.64045" lon="5.80631">
        <ele>1826.1</ele>
        <time>2015-06-30T12:22:29Z</time>
      </trkpt>
      <trkpt lat="44.64042" lon="5.80635">
        <ele>1824</ele>
        <time>2015-06-30T12:22:34Z</time>
      </trkpt>
      <trkpt lat="44.64039" lon="5.80641">
        <ele>1821.9</ele>
        <time>2015-06-30T12:22:39Z</time>
      </trkpt>
      <trkpt lat="44.64035" lon="5.80646">
        <ele>1819.8</ele>
        <time>2015-06-30T12:22:44Z</time>
      </trkpt>
      <trkpt lat="44.64029" lon="5.80653">
        <ele>1820.2</ele>
        <time>2015-06-30T12:22:49Z</time>
      </trkpt>
      <trkpt lat="44.64024" lon="5.80657">
        <ele>1820.2</ele>
        <time>2015-06-30T12:22:54Z</time>
      </trkpt>
      <trkpt lat="44.64019" lon="5.80662">
        <ele>1819.9</ele>
        <time>2015-06-30T12:22:59Z</time>
      </trkpt>
      <trkpt lat="44.64015" lon="5.80667">
        <ele>1818.2</ele>
        <time>2015-06-30T12:23:04Z</time>
      </trkpt>
      <trkpt lat="44.64011" lon="5.80671">
        <ele>1816.2</ele>
        <time>2015-06-30T12:23:09Z</time>
      </trkpt>
      <trkpt lat="44.64004" lon="5.80676">
        <ele>1815.8</ele>
        <time>2015-06-30T12:23:14Z</time>
      </trkpt>
      <trkpt lat="44.63998" lon="5.8068">
        <ele>1815.6</ele>
        <time>2015-06-30T12:23:19Z</time>
      </trkpt>
      <trkpt lat="44.63992" lon="5.80685">
        <ele>1815.2</ele>
        <time>2015-06-30T12:23:24Z</time>
      </trkpt>
      <trkpt lat="44.63987" lon="5.8069">
        <ele>1814.3</ele>
        <time>2015-06-30T12:23:29Z</time>
      </trkpt>
      <trkpt lat="44.63982" lon="5.80694">
        <ele>1813.6</ele>
        <time>2015-06-30T12:23:34Z</time>
      </trkpt>
      <trkpt lat="44.63976" lon="5.80697">
        <ele>1812.8</ele>
        <time>2015-06-30T12:23:39Z</time>
      </trkpt>
      <trkpt lat="44.6397" lon="5.807">
        <ele>1812.8</ele>
        <time>2015-06-30T12:23:44Z</time>
      </trkpt>
      <trkpt lat="44.63964" lon="5.80705">
        <ele>1811.8</ele>
        <time>2015-06-30T12:23:49Z</time>
      </trkpt>
      <trkpt lat="44.63957" lon="5.80708">
        <ele>1813.6</ele>
        <time>2015-06-30T12:23:54Z</time>
      </trkpt>
      <trkpt lat="44.63949" lon="5.8071">
        <ele>1816</ele>
        <time>2015-06-30T12:23:59Z</time>
      </trkpt>
      <trkpt lat="44.63941" lon="5.80711">
        <ele>1816.8</ele>
        <time>2015-06-30T12:24:04Z</time>
      </trkpt>
      <trkpt lat="44.63935" lon="5.80711">
        <ele>1815.3</ele>
        <time>2015-06-30T12:24:09Z</time>
      </trkpt>
      <trkpt lat="44.63931" lon="5.80708">
        <ele>1813.7</ele>
        <time>2015-06-30T12:24:14Z</time>
      </trkpt>
      <trkpt lat="44.63931" lon="5.80705">
        <ele>1812.4</ele>
        <time>2015-06-30T12:24:19Z</time>
      </trkpt>
      <trkpt lat="44.63931" lon="5.80705">
        <ele>1812.4</ele>
        <time>2015-06-30T12:24:24Z</time>
      </trkpt>
      <trkpt lat="44.63932" lon="5.80702">
        <ele>1811.2</ele>
        <time>2015-06-30T12:24:29Z</time>
      </trkpt>
      <trkpt lat="44.63933" lon="5.80696">
        <ele>1809.2</ele>
        <time>2015-06-30T12:24:34Z</time>
      </trkpt>
      <trkpt lat="44.63934" lon="5.80689">
        <ele>1808.4</ele>
        <time>2015-06-30T12:24:39Z</time>
      </trkpt>
      <trkpt lat="44.63933" lon="5.80688">
        <ele>1809.5</ele>
        <time>2015-06-30T12:24:44Z</time>
      </trkpt>
      <trkpt lat="44.63933" lon="5.80689">
        <ele>1810.2</ele>
        <time>2015-06-30T12:24:49Z</time>
      </trkpt>
      <trkpt lat="44.63933" lon="5.80697">
        <ele>1809.7</ele>
        <time>2015-06-30T12:24:54Z</time>
      </trkpt>
      <trkpt lat="44.63936" lon="5.80705">
        <ele>1809.2</ele>
        <time>2015-06-30T12:24:59Z</time>
      </trkpt>
      <trkpt lat="44.63941" lon="5.80709">
        <ele>1810.4</ele>
        <time>2015-06-30T12:25:04Z</time>
      </trkpt>
      <trkpt lat="44.63946" lon="5.80709">
        <ele>1809</ele>
        <time>2015-06-30T12:25:09Z</time>
      </trkpt>
      <trkpt lat="44.63953" lon="5.80709">
        <ele>1805.9</ele>
        <time>2015-06-30T12:25:14Z</time>
      </trkpt>
      <trkpt lat="44.6396" lon="5.80708">
        <ele>1803.8</ele>
        <time>2015-06-30T12:25:19Z</time>
      </trkpt>
      <trkpt lat="44.63965" lon="5.80708">
        <ele>1804.1</ele>
        <time>2015-06-30T12:25:24Z</time>
      </trkpt>
      <trkpt lat="44.6397" lon="5.80704">
        <ele>1806.5</ele>
        <time>2015-06-30T12:25:29Z</time>
      </trkpt>
      <trkpt lat="44.63974" lon="5.80699">
        <ele>1806.5</ele>
        <time>2015-06-30T12:25:34Z</time>
      </trkpt>
      <trkpt lat="44.63982" lon="5.80697">
        <ele>1807.9</ele>
        <time>2015-06-30T12:25:39Z</time>
      </trkpt>
      <trkpt lat="44.63987" lon="5.80692">
        <ele>1808.4</ele>
        <time>2015-06-30T12:25:44Z</time>
      </trkpt>
      <trkpt lat="44.63991" lon="5.80687">
        <ele>1811.1</ele>
        <time>2015-06-30T12:25:49Z</time>
      </trkpt>
      <trkpt lat="44.63996" lon="5.80681">
        <ele>1810.9</ele>
        <time>2015-06-30T12:25:54Z</time>
      </trkpt>
      <trkpt lat="44.64002" lon="5.80679">
        <ele>1812.9</ele>
        <time>2015-06-30T12:25:59Z</time>
      </trkpt>
      <trkpt lat="44.64009" lon="5.80675">
        <ele>1809.8</ele>
        <time>2015-06-30T12:26:04Z</time>
      </trkpt>
      <trkpt lat="44.64014" lon="5.8067">
        <ele>1810.4</ele>
        <time>2015-06-30T12:26:09Z</time>
      </trkpt>
      <trkpt lat="44.64018" lon="5.80666">
        <ele>1811.5</ele>
        <time>2015-06-30T12:26:14Z</time>
      </trkpt>
      <trkpt lat="44.64021" lon="5.8066">
        <ele>1812.5</ele>
        <time>2015-06-30T12:26:19Z</time>
      </trkpt>
      <trkpt lat="44.64025" lon="5.80655">
        <ele>1815.2</ele>
        <time>2015-06-30T12:26:24Z</time>
      </trkpt>
      <trkpt lat="44.64029" lon="5.8065">
        <ele>1818.4</ele>
        <time>2015-06-30T12:26:29Z</time>
      </trkpt>
      <trkpt lat="44.64033" lon="5.80645">
        <ele>1818.6</ele>
        <time>2015-06-30T12:26:34Z</time>
      </trkpt>
      <trkpt lat="44.64038" lon="5.80641">
        <ele>1819.8</ele>
        <time>2015-06-30T12:26:39Z</time>
      </trkpt>
      <trkpt lat="44.64042" lon="5.80635">
        <ele>1820.2</ele>
        <time>2015-06-30T12:26:44Z</time>
      </trkpt>
      <trkpt lat="44.64045" lon="5.80629">
        <ele>1820</ele>
        <time>2015-06-30T12:26:49Z</time>
      </trkpt>
      <trkpt lat="44.64048" lon="5.80624">
        <ele>1819.1</ele>
        <time>2015-06-30T12:26:54Z</time>
      </trkpt>
      <trkpt lat="44.64052" lon="5.80619">
        <ele>1820.4</ele>
        <time>2015-06-30T12:26:59Z</time>
      </trkpt>
      <trkpt lat="44.64056" lon="5.80613">
        <ele>1821</ele>
        <time>2015-06-30T12:27:04Z</time>
      </trkpt>
      <trkpt lat="44.6406" lon="5.80607">
        <ele>1821</ele>
        <time>2015-06-30T12:27:09Z</time>
      </trkpt>
      <trkpt lat="44.64063" lon="5.80601">
        <ele>1822.7</ele>
        <time>2015-06-30T12:27:14Z</time>
      </trkpt>
      <trkpt lat="44.64068" lon="5.80596">
        <ele>1822.3</ele>
        <time>2015-06-30T12:27:19Z</time>
      </trkpt>
      <trkpt lat="44.64071" lon="5.80586">
        <ele>1824.3</ele>
        <time>2015-06-30T12:27:26Z</time>
      </trkpt>
      <trkpt lat="44.64071" lon="5.80583">
        <ele>1824.3</ele>
        <time>2015-06-30T12:27:31Z</time>
      </trkpt>
      <trkpt lat="44.64071" lon="5.80578">
        <ele>1824.1</ele>
        <time>2015-06-30T12:27:36Z</time>
      </trkpt>
      <trkpt lat="44.64073" lon="5.80577">
        <ele>1822.4</ele>
        <time>2015-06-30T12:27:41Z</time>
      </trkpt>
      <trkpt lat="44.64071" lon="5.80573">
        <ele>1823.6</ele>
        <time>2015-06-30T12:27:46Z</time>
      </trkpt>
      <trkpt lat="44.6407" lon="5.80571">
        <ele>1825.4</ele>
        <time>2015-06-30T12:27:51Z</time>
      </trkpt>
      <trkpt lat="44.64071" lon="5.80572">
        <ele>1826.8</ele>
        <time>2015-06-30T12:27:56Z</time>
      </trkpt>
      <trkpt lat="44.64073" lon="5.80573">
        <ele>1827.5</ele>
        <time>2015-06-30T12:28:01Z</time>
      </trkpt>
      <trkpt lat="44.64073" lon="5.80572">
        <ele>1829</ele>
        <time>2015-06-30T12:28:06Z</time>
      </trkpt>
      <trkpt lat="44.6407" lon="5.8057">
        <ele>1829</ele>
        <time>2015-06-30T12:28:11Z</time>
      </trkpt>
      <trkpt lat="44.6407" lon="5.80569">
        <ele>1829.1</ele>
        <time>2015-06-30T12:28:16Z</time>
      </trkpt>
      <trkpt lat="44.6407" lon="5.80571">
        <ele>1830.3</ele>
        <time>2015-06-30T12:28:21Z</time>
      </trkpt>
      <trkpt lat="44.6407" lon="5.80571">
        <ele>1830.4</ele>
        <time>2015-06-30T12:28:26Z</time>
      </trkpt>
      <trkpt lat="44.64069" lon="5.80571">
        <ele>1830.4</ele>
        <time>2015-06-30T12:28:31Z</time>
      </trkpt>
      <trkpt lat="44.6407" lon="5.80572">
        <ele>1830.2</ele>
        <time>2015-06-30T12:28:36Z</time>
      </trkpt>
      <trkpt lat="44.6407" lon="5.8057">
        <ele>1828.6</ele>
        <time>2015-06-30T12:28:41Z</time>
      </trkpt>
      <trkpt lat="44.64068" lon="5.8057">
        <ele>1829.1</ele>
        <time>2015-06-30T12:28:46Z</time>
      </trkpt>
      <trkpt lat="44.64073" lon="5.80572">
        <ele>1828.5</ele>
        <time>2015-06-30T12:28:51Z</time>
      </trkpt>
      <trkpt lat="44.64077" lon="5.80577">
        <ele>1829.7</ele>
        <time>2015-06-30T12:28:56Z</time>
      </trkpt>
      <trkpt lat="44.64079" lon="5.80583">
        <ele>1832.6</ele>
        <time>2015-06-30T12:29:01Z</time>
      </trkpt>
      <trkpt lat="44.64079" lon="5.80588">
        <ele>1835.2</ele>
        <time>2015-06-30T12:29:06Z</time>
      </trkpt>
      <trkpt lat="44.6408" lon="5.80595">
        <ele>1835.3</ele>
        <time>2015-06-30T12:29:11Z</time>
      </trkpt>
      <trkpt lat="44.64081" lon="5.80603">
        <ele>1833.4</ele>
        <time>2015-06-30T12:29:16Z</time>
      </trkpt>
      <trkpt lat="44.64082" lon="5.8061">
        <ele>1833.5</ele>
        <time>2015-06-30T12:29:21Z</time>
      </trkpt>
      <trkpt lat="44.64084" lon="5.80618">
        <ele>1832.1</ele>
        <time>2015-06-30T12:29:26Z</time>
      </trkpt>
      <trkpt lat="44.64084" lon="5.80625">
        <ele>1831.9</ele>
        <time>2015-06-30T12:29:31Z</time>
      </trkpt>
      <trkpt lat="44.64085" lon="5.80626">
        <ele>1830.2</ele>
        <time>2015-06-30T12:29:36Z</time>
      </trkpt>
      <trkpt lat="44.64086" lon="5.80628">
        <ele>1826.5</ele>
        <time>2015-06-30T12:29:41Z</time>
      </trkpt>
      <trkpt lat="44.64086" lon="5.80634">
        <ele>1829.6</ele>
        <time>2015-06-30T12:29:46Z</time>
      </trkpt>
      <trkpt lat="44.64085" lon="5.80626">
        <ele>1831.2</ele>
        <time>2015-06-30T12:29:51Z</time>
      </trkpt>
      <trkpt lat="44.64084" lon="5.80618">
        <ele>1831.6</ele>
        <time>2015-06-30T12:29:56Z</time>
      </trkpt>
      <trkpt lat="44.64082" lon="5.8061">
        <ele>1832.6</ele>
        <time>2015-06-30T12:30:01Z</time>
      </trkpt>
      <trkpt lat="44.64081" lon="5.80602">
        <ele>1833.7</ele>
        <time>2015-06-30T12:30:06Z</time>
      </trkpt>
      <trkpt lat="44.6408" lon="5.80593">
        <ele>1834.6</ele>
        <time>2015-06-30T12:30:11Z</time>
      </trkpt>
      <trkpt lat="44.64079" lon="5.80584">
        <ele>1833.3</ele>
        <time>2015-06-30T12:30:16Z</time>
      </trkpt>
      <trkpt lat="44.64076" lon="5.80576">
        <ele>1831.5</ele>
        <time>2015-06-30T12:30:21Z</time>
      </trkpt>
      <trkpt lat="44.64071" lon="5.80573">
        <ele>1830.3</ele>
        <time>2015-06-30T12:30:26Z</time>
      </trkpt>
      <trkpt lat="44.64069" lon="5.80572">
        <ele>1831.8</ele>
        <time>2015-06-30T12:30:31Z</time>
      </trkpt>
      <trkpt lat="44.64069" lon="5.80571">
        <ele>1832.7</ele>
        <time>2015-06-30T12:30:36Z</time>
      </trkpt>
      <trkpt lat="44.64068" lon="5.80571">
        <ele>1833.2</ele>
        <time>2015-06-30T12:30:41Z</time>
      </trkpt>
      <trkpt lat="44.64068" lon="5.8057">
        <ele>1832.7</ele>
        <time>2015-06-30T12:30:46Z</time>
      </trkpt>
      <trkpt lat="44.64069" lon="5.80573">
        <ele>1830.5</ele>
        <time>2015-06-30T12:30:51Z</time>
      </trkpt>
      <trkpt lat="44.64071" lon="5.80578">
        <ele>1828.8</ele>
        <time>2015-06-30T12:30:56Z</time>
      </trkpt>
      <trkpt lat="44.64073" lon="5.80585">
        <ele>1828.8</ele>
        <time>2015-06-30T12:31:01Z</time>
      </trkpt>
      <trkpt lat="44.6407" lon="5.8059">
        <ele>1828</ele>
        <time>2015-06-30T12:31:06Z</time>
      </trkpt>
      <trkpt lat="44.64069" lon="5.80595">
        <ele>1827.8</ele>
        <time>2015-06-30T12:31:11Z</time>
      </trkpt>
      <trkpt lat="44.6407" lon="5.80591">
        <ele>1828.3</ele>
        <time>2015-06-30T12:31:16Z</time>
      </trkpt>
      <trkpt lat="44.64066" lon="5.80593">
        <ele>1827.4</ele>
        <time>2015-06-30T12:31:21Z</time>
      </trkpt>
      <trkpt lat="44.64065" lon="5.80598">
        <ele>1826.3</ele>
        <time>2015-06-30T12:31:26Z</time>
      </trkpt>
      <trkpt lat="44.64068" lon="5.80598">
        <ele>1826.5</ele>
        <time>2015-06-30T12:31:31Z</time>
      </trkpt>
      <trkpt lat="44.6407" lon="5.80591">
        <ele>1827.2</ele>
        <time>2015-06-30T12:31:36Z</time>
      </trkpt>
      <trkpt lat="44.64072" lon="5.80587">
        <ele>1829.3</ele>
        <time>2015-06-30T12:31:41Z</time>
      </trkpt>
      <trkpt lat="44.64071" lon="5.80586">
        <ele>1829.4</ele>
        <time>2015-06-30T12:31:46Z</time>
      </trkpt>
      <trkpt lat="44.64071" lon="5.80586">
        <ele>1829</ele>
        <time>2015-06-30T12:31:51Z</time>
      </trkpt>
      <trkpt lat="44.64072" lon="5.80587">
        <ele>1828.5</ele>
        <time>2015-06-30T12:31:56Z</time>
      </trkpt>
      <trkpt lat="44.64071" lon="5.80589">
        <ele>1829.2</ele>
        <time>2015-06-30T12:32:01Z</time>
      </trkpt>
      <trkpt lat="44.64071" lon="5.80589">
        <ele>1828.7</ele>
        <time>2015-06-30T12:32:06Z</time>
      </trkpt>
      <trkpt lat="44.64071" lon="5.80588">
        <ele>1829.5</ele>
        <time>2015-06-30T12:32:11Z</time>
      </trkpt>
      <trkpt lat="44.6407" lon="5.80587">
        <ele>1829.5</ele>
        <time>2015-06-30T12:32:16Z</time>
      </trkpt>
      <trkpt lat="44.6407" lon="5.80587">
        <ele>1831.8</ele>
        <time>2015-06-30T12:32:21Z</time>
      </trkpt>
      <trkpt lat="44.64072" lon="5.80587">
        <ele>1825.6</ele>
        <time>2015-06-30T12:32:26Z</time>
      </trkpt>
      <trkpt lat="44.64074" lon="5.80588">
        <ele>1819.2</ele>
        <time>2015-06-30T12:32:31Z</time>
      </trkpt>
      <trkpt lat="44.64075" lon="5.80589">
        <ele>1815.9</ele>
        <time>2015-06-30T12:32:36Z</time>
      </trkpt>
      <trkpt lat="44.64075" lon="5.80589">
        <ele>1815.3</ele>
        <time>2015-06-30T12:32:41Z</time>
      </trkpt>
      <trkpt lat="44.64073" lon="5.80588">
        <ele>1820.3</ele>
        <time>2015-06-30T12:32:46Z</time>
      </trkpt>
      <trkpt lat="44.64072" lon="5.80588">
        <ele>1824</ele>
        <time>2015-06-30T12:32:51Z</time>
      </trkpt>
      <trkpt lat="44.64071" lon="5.80588">
        <ele>1825.3</ele>
        <time>2015-06-30T12:32:56Z</time>
      </trkpt>
      <trkpt lat="44.64068" lon="5.80594">
        <ele>1825</ele>
        <time>2015-06-30T12:33:01Z</time>
      </trkpt>
      <trkpt lat="44.64066" lon="5.806">
        <ele>1823.1</ele>
        <time>2015-06-30T12:33:06Z</time>
      </trkpt>
      <trkpt lat="44.64063" lon="5.80606">
        <ele>1821.7</ele>
        <time>2015-06-30T12:33:11Z</time>
      </trkpt>
      <trkpt lat="44.6406" lon="5.80612">
        <ele>1820.7</ele>
        <time>2015-06-30T12:33:16Z</time>
      </trkpt>
      <trkpt lat="44.64056" lon="5.80616">
        <ele>1819.7</ele>
        <time>2015-06-30T12:33:21Z</time>
      </trkpt>
      <trkpt lat="44.64052" lon="5.80616">
        <ele>1819.5</ele>
        <time>2015-06-30T12:33:26Z</time>
      </trkpt>
      <trkpt lat="44.64047" lon="5.80614">
        <ele>1819.5</ele>
        <time>2015-06-30T12:33:31Z</time>
      </trkpt>
      <trkpt lat="44.64041" lon="5.80611">
        <ele>1818.4</ele>
        <time>2015-06-30T12:33:36Z</time>
      </trkpt>
      <trkpt lat="44.64035" lon="5.80615">
        <ele>1816.6</ele>
        <time>2015-06-30T12:33:41Z</time>
      </trkpt>
      <trkpt lat="44.6403" lon="5.80618">
        <ele>1815.5</ele>
        <time>2015-06-30T12:33:46Z</time>
      </trkpt>
      <trkpt lat="44.64025" lon="5.80622">
        <ele>1813.6</ele>
        <time>2015-06-30T12:33:51Z</time>
      </trkpt>
      <trkpt lat="44.6402" lon="5.80625">
        <ele>1811.9</ele>
        <time>2015-06-30T12:33:56Z</time>
      </trkpt>
      <trkpt lat="44.64013" lon="5.80629">
        <ele>1810.7</ele>
        <time>2015-06-30T12:34:01Z</time>
      </trkpt>
      <trkpt lat="44.64007" lon="5.80631">
        <ele>1809.9</ele>
        <time>2015-06-30T12:34:06Z</time>
      </trkpt>
      <trkpt lat="44.64002" lon="5.80635">
        <ele>1808.7</ele>
        <time>2015-06-30T12:34:11Z</time>
      </trkpt>
      <trkpt lat="44.63997" lon="5.8064">
        <ele>1807</ele>
        <time>2015-06-30T12:34:16Z</time>
      </trkpt>
      <trkpt lat="44.63993" lon="5.80643">
        <ele>1805.1</ele>
        <time>2015-06-30T12:34:21Z</time>
      </trkpt>
      <trkpt lat="44.63987" lon="5.80643">
        <ele>1803.7</ele>
        <time>2015-06-30T12:34:26Z</time>
      </trkpt>
      <trkpt lat="44.63979" lon="5.80645">
        <ele>1802.5</ele>
        <time>2015-06-30T12:34:31Z</time>
      </trkpt>
      <trkpt lat="44.63973" lon="5.80646">
        <ele>1802.2</ele>
        <time>2015-06-30T12:34:36Z</time>
      </trkpt>
      <trkpt lat="44.63965" lon="5.80645">
        <ele>1802.3</ele>
        <time>2015-06-30T12:34:41Z</time>
      </trkpt>
      <trkpt lat="44.63958" lon="5.80643">
        <ele>1802.1</ele>
        <time>2015-06-30T12:34:46Z</time>
      </trkpt>
      <trkpt lat="44.63951" lon="5.80639">
        <ele>1803</ele>
        <time>2015-06-30T12:34:51Z</time>
      </trkpt>
      <trkpt lat="44.63947" lon="5.80632">
        <ele>1802.7</ele>
        <time>2015-06-30T12:34:56Z</time>
      </trkpt>
      <trkpt lat="44.63943" lon="5.80624">
        <ele>1801.7</ele>
        <time>2015-06-30T12:35:01Z</time>
      </trkpt>
      <trkpt lat="44.63939" lon="5.80618">
        <ele>1801.2</ele>
        <time>2015-06-30T12:35:06Z</time>
      </trkpt>
      <trkpt lat="44.63939" lon="5.80617">
        <ele>1800.8</ele>
        <time>2015-06-30T12:35:11Z</time>
      </trkpt>
      <trkpt lat="44.6394" lon="5.80616">
        <ele>1797.7</ele>
        <time>2015-06-30T12:35:16Z</time>
      </trkpt>
      <trkpt lat="44.6394" lon="5.80615">
        <ele>1796.5</ele>
        <time>2015-06-30T12:35:21Z</time>
      </trkpt>
      <trkpt lat="44.63939" lon="5.80612">
        <ele>1797</ele>
        <time>2015-06-30T12:35:26Z</time>
      </trkpt>
      <trkpt lat="44.6394" lon="5.80612">
        <ele>1796.6</ele>
        <time>2015-06-30T12:35:31Z</time>
      </trkpt>
      <trkpt lat="44.63941" lon="5.80612">
        <ele>1793.6</ele>
        <time>2015-06-30T12:35:36Z</time>
      </trkpt>
      <trkpt lat="44.63942" lon="5.80612">
        <ele>1792.8</ele>
        <time>2015-06-30T12:35:41Z</time>
      </trkpt>
      <trkpt lat="44.63942" lon="5.80613">
        <ele>1793.2</ele>
        <time>2015-06-30T12:35:46Z</time>
      </trkpt>
      <trkpt lat="44.63942" lon="5.80613">
        <ele>1792.5</ele>
        <time>2015-06-30T12:35:51Z</time>
      </trkpt>
      <trkpt lat="44.63942" lon="5.80613">
        <ele>1793.1</ele>
        <time>2015-06-30T12:35:56Z</time>
      </trkpt>
      <trkpt lat="44.63942" lon="5.80614">
        <ele>1793.7</ele>
        <time>2015-06-30T12:36:01Z</time>
      </trkpt>
      <trkpt lat="44.6394" lon="5.80615">
        <ele>1796.7</ele>
        <time>2015-06-30T12:36:06Z</time>
      </trkpt>
      <trkpt lat="44.6394" lon="5.80615">
        <ele>1798.4</ele>
        <time>2015-06-30T12:36:11Z</time>
      </trkpt>
      <trkpt lat="44.6394" lon="5.80615">
        <ele>1797.7</ele>
        <time>2015-06-30T12:36:16Z</time>
      </trkpt>
      <trkpt lat="44.63942" lon="5.80616">
        <ele>1795.4</ele>
        <time>2015-06-30T12:36:21Z</time>
      </trkpt>
      <trkpt lat="44.63942" lon="5.80616">
        <ele>1796.2</ele>
        <time>2015-06-30T12:36:26Z</time>
      </trkpt>
      <trkpt lat="44.63941" lon="5.80615">
        <ele>1797.4</ele>
        <time>2015-06-30T12:36:31Z</time>
      </trkpt>
      <trkpt lat="44.6394" lon="5.80615">
        <ele>1798.2</ele>
        <time>2015-06-30T12:36:36Z</time>
      </trkpt>
      <trkpt lat="44.6394" lon="5.80616">
        <ele>1798.4</ele>
        <time>2015-06-30T12:36:41Z</time>
      </trkpt>
      <trkpt lat="44.63939" lon="5.80614">
        <ele>1800.2</ele>
        <time>2015-06-30T12:36:46Z</time>
      </trkpt>
      <trkpt lat="44.63939" lon="5.80614">
        <ele>1800.7</ele>
        <time>2015-06-30T12:36:51Z</time>
      </trkpt>
      <trkpt lat="44.63939" lon="5.80615">
        <ele>1801.3</ele>
        <time>2015-06-30T12:36:56Z</time>
      </trkpt>
      <trkpt lat="44.63939" lon="5.80614">
        <ele>1801.6</ele>
        <time>2015-06-30T12:37:01Z</time>
      </trkpt>
      <trkpt lat="44.6394" lon="5.80614">
        <ele>1801.4</ele>
        <time>2015-06-30T12:37:06Z</time>
      </trkpt>
      <trkpt lat="44.63941" lon="5.80614">
        <ele>1800.3</ele>
        <time>2015-06-30T12:37:11Z</time>
      </trkpt>
      <trkpt lat="44.6394" lon="5.80614">
        <ele>1803.5</ele>
        <time>2015-06-30T12:37:16Z</time>
      </trkpt>
      <trkpt lat="44.6394" lon="5.80614">
        <ele>1803.1</ele>
        <time>2015-06-30T12:37:21Z</time>
      </trkpt>
      <trkpt lat="44.6394" lon="5.80614">
        <ele>1801.8</ele>
        <time>2015-06-30T12:37:26Z</time>
      </trkpt>
      <trkpt lat="44.6394" lon="5.80613">
        <ele>1801.8</ele>
        <time>2015-06-30T12:37:31Z</time>
      </trkpt>
      <trkpt lat="44.6394" lon="5.80611">
        <ele>1799.3</ele>
        <time>2015-06-30T12:37:36Z</time>
      </trkpt>
      <trkpt lat="44.6394" lon="5.80612">
        <ele>1797.2</ele>
        <time>2015-06-30T12:37:41Z</time>
      </trkpt>
      <trkpt lat="44.63941" lon="5.80612">
        <ele>1793.2</ele>
        <time>2015-06-30T12:37:46Z</time>
      </trkpt>
      <trkpt lat="44.63941" lon="5.80613">
        <ele>1794</ele>
        <time>2015-06-30T12:37:51Z</time>
      </trkpt>
      <trkpt lat="44.63939" lon="5.80613">
        <ele>1797.9</ele>
        <time>2015-06-30T12:37:56Z</time>
      </trkpt>
      <trkpt lat="44.63939" lon="5.80613">
        <ele>1797.5</ele>
        <time>2015-06-30T12:38:01Z</time>
      </trkpt>
      <trkpt lat="44.63939" lon="5.80611">
        <ele>1796.4</ele>
        <time>2015-06-30T12:38:06Z</time>
      </trkpt>
      <trkpt lat="44.63938" lon="5.80608">
        <ele>1797</ele>
        <time>2015-06-30T12:38:11Z</time>
      </trkpt>
      <trkpt lat="44.63936" lon="5.80603">
        <ele>1797.3</ele>
        <time>2015-06-30T12:38:16Z</time>
      </trkpt>
      <trkpt lat="44.63933" lon="5.80597">
        <ele>1797.3</ele>
        <time>2015-06-30T12:38:21Z</time>
      </trkpt>
      <trkpt lat="44.63931" lon="5.80592">
        <ele>1796.4</ele>
        <time>2015-06-30T12:38:26Z</time>
      </trkpt>
      <trkpt lat="44.63929" lon="5.80588">
        <ele>1795.3</ele>
        <time>2015-06-30T12:38:31Z</time>
      </trkpt>
      <trkpt lat="44.63927" lon="5.80584">
        <ele>1794.1</ele>
        <time>2015-06-30T12:38:36Z</time>
      </trkpt>
      <trkpt lat="44.63926" lon="5.80579">
        <ele>1793.5</ele>
        <time>2015-06-30T12:38:41Z</time>
      </trkpt>
      <trkpt lat="44.63925" lon="5.80578">
        <ele>1794.4</ele>
        <time>2015-06-30T12:38:46Z</time>
      </trkpt>
      <trkpt lat="44.63924" lon="5.80575">
        <ele>1795.2</ele>
        <time>2015-06-30T12:38:51Z</time>
      </trkpt>
      <trkpt lat="44.63923" lon="5.80572">
        <ele>1793</ele>
        <time>2015-06-30T12:38:56Z</time>
      </trkpt>
      <trkpt lat="44.63921" lon="5.80566">
        <ele>1791.8</ele>
        <time>2015-06-30T12:39:01Z</time>
      </trkpt>
      <trkpt lat="44.63919" lon="5.80562">
        <ele>1788.7</ele>
        <time>2015-06-30T12:39:06Z</time>
      </trkpt>
      <trkpt lat="44.63916" lon="5.80557">
        <ele>1788</ele>
        <time>2015-06-30T12:39:11Z</time>
      </trkpt>
      <trkpt lat="44.63913" lon="5.80551">
        <ele>1786.6</ele>
        <time>2015-06-30T12:39:16Z</time>
      </trkpt>
      <trkpt lat="44.63909" lon="5.80546">
        <ele>1785.7</ele>
        <time>2015-06-30T12:39:21Z</time>
      </trkpt>
      <trkpt lat="44.63909" lon="5.8055">
        <ele>1785.2</ele>
        <time>2015-06-30T12:39:26Z</time>
      </trkpt>
      <trkpt lat="44.63908" lon="5.80558">
        <ele>1784.4</ele>
        <time>2015-06-30T12:39:31Z</time>
      </trkpt>
      <trkpt lat="44.63908" lon="5.80566">
        <ele>1781.6</ele>
        <time>2015-06-30T12:39:36Z</time>
      </trkpt>
      <trkpt lat="44.63908" lon="5.80575">
        <ele>1779.9</ele>
        <time>2015-06-30T12:39:41Z</time>
      </trkpt>
      <trkpt lat="44.6391" lon="5.80583">
        <ele>1779.7</ele>
        <time>2015-06-30T12:39:46Z</time>
      </trkpt>
      <trkpt lat="44.63912" lon="5.80591">
        <ele>1779.2</ele>
        <time>2015-06-30T12:39:51Z</time>
      </trkpt>
      <trkpt lat="44.63912" lon="5.80601">
        <ele>1780.1</ele>
        <time>2015-06-30T12:39:56Z</time>
      </trkpt>
      <trkpt lat="44.63909" lon="5.80607">
        <ele>1780.7</ele>
        <time>2015-06-30T12:40:01Z</time>
      </trkpt>
      <trkpt lat="44.63904" lon="5.80606">
        <ele>1780.1</ele>
        <time>2015-06-30T12:40:06Z</time>
      </trkpt>
      <trkpt lat="44.63899" lon="5.80604">
        <ele>1780.3</ele>
        <time>2015-06-30T12:40:11Z</time>
      </trkpt>
      <trkpt lat="44.63893" lon="5.80604">
        <ele>1779.6</ele>
        <time>2015-06-30T12:40:16Z</time>
      </trkpt>
      <trkpt lat="44.63888" lon="5.80607">
        <ele>1777.4</ele>
        <time>2015-06-30T12:40:21Z</time>
      </trkpt>
      <trkpt lat="44.63884" lon="5.8061">
        <ele>1774.2</ele>
        <time>2015-06-30T12:40:26Z</time>
      </trkpt>
      <trkpt lat="44.63879" lon="5.80616">
        <ele>1772.8</ele>
        <time>2015-06-30T12:40:31Z</time>
      </trkpt>
      <trkpt lat="44.63875" lon="5.80621">
        <ele>1770.2</ele>
        <time>2015-06-30T12:40:36Z</time>
      </trkpt>
      <trkpt lat="44.6387" lon="5.80626">
        <ele>1769</ele>
        <time>2015-06-30T12:40:41Z</time>
      </trkpt>
      <trkpt lat="44.63865" lon="5.80629">
        <ele>1768.2</ele>
        <time>2015-06-30T12:40:46Z</time>
      </trkpt>
      <trkpt lat="44.63859" lon="5.80633">
        <ele>1768.1</ele>
        <time>2015-06-30T12:40:51Z</time>
      </trkpt>
      <trkpt lat="44.63854" lon="5.80636">
        <ele>1766.9</ele>
        <time>2015-06-30T12:40:56Z</time>
      </trkpt>
      <trkpt lat="44.63849" lon="5.80641">
        <ele>1765.4</ele>
        <time>2015-06-30T12:41:01Z</time>
      </trkpt>
      <trkpt lat="44.63843" lon="5.80646">
        <ele>1764.6</ele>
        <time>2015-06-30T12:41:06Z</time>
      </trkpt>
      <trkpt lat="44.63838" lon="5.80653">
        <ele>1764.1</ele>
        <time>2015-06-30T12:41:11Z</time>
      </trkpt>
      <trkpt lat="44.63834" lon="5.80659">
        <ele>1763</ele>
        <time>2015-06-30T12:41:16Z</time>
      </trkpt>
      <trkpt lat="44.63832" lon="5.80667">
        <ele>1762.3</ele>
        <time>2015-06-30T12:41:21Z</time>
      </trkpt>
      <trkpt lat="44.63831" lon="5.80673">
        <ele>1761.5</ele>
        <time>2015-06-30T12:41:26Z</time>
      </trkpt>
      <trkpt lat="44.63832" lon="5.80675">
        <ele>1762.9</ele>
        <time>2015-06-30T12:41:31Z</time>
      </trkpt>
      <trkpt lat="44.63833" lon="5.80674">
        <ele>1762.5</ele>
        <time>2015-06-30T12:41:36Z</time>
      </trkpt>
      <trkpt lat="44.63833" lon="5.8067">
        <ele>1760.1</ele>
        <time>2015-06-30T12:41:41Z</time>
      </trkpt>
      <trkpt lat="44.63832" lon="5.80671">
        <ele>1758.7</ele>
        <time>2015-06-30T12:41:46Z</time>
      </trkpt>
      <trkpt lat="44.63831" lon="5.80671">
        <ele>1756.8</ele>
        <time>2015-06-30T12:41:51Z</time>
      </trkpt>
      <trkpt lat="44.6383" lon="5.80672">
        <ele>1758.9</ele>
        <time>2015-06-30T12:41:56Z</time>
      </trkpt>
      <trkpt lat="44.63832" lon="5.80673">
        <ele>1758.6</ele>
        <time>2015-06-30T12:42:01Z</time>
      </trkpt>
      <trkpt lat="44.63831" lon="5.80675">
        <ele>1761.1</ele>
        <time>2015-06-30T12:42:06Z</time>
      </trkpt>
      <trkpt lat="44.63831" lon="5.80677">
        <ele>1761.7</ele>
        <time>2015-06-30T12:42:11Z</time>
      </trkpt>
      <trkpt lat="44.6383" lon="5.80677">
        <ele>1765.9</ele>
        <time>2015-06-30T12:42:16Z</time>
      </trkpt>
      <trkpt lat="44.63828" lon="5.80681">
        <ele>1767.2</ele>
        <time>2015-06-30T12:42:21Z</time>
      </trkpt>
      <trkpt lat="44.63827" lon="5.80684">
        <ele>1766.5</ele>
        <time>2015-06-30T12:42:26Z</time>
      </trkpt>
      <trkpt lat="44.63826" lon="5.80684">
        <ele>1763.9</ele>
        <time>2015-06-30T12:42:31Z</time>
      </trkpt>
      <trkpt lat="44.63828" lon="5.80681">
        <ele>1761.6</ele>
        <time>2015-06-30T12:42:36Z</time>
      </trkpt>
      <trkpt lat="44.63829" lon="5.80677">
        <ele>1759</ele>
        <time>2015-06-30T12:42:41Z</time>
      </trkpt>
      <trkpt lat="44.6383" lon="5.80675">
        <ele>1757.4</ele>
        <time>2015-06-30T12:42:46Z</time>
      </trkpt>
      <trkpt lat="44.6383" lon="5.80674">
        <ele>1754.4</ele>
        <time>2015-06-30T12:42:51Z</time>
      </trkpt>
      <trkpt lat="44.63828" lon="5.80672">
        <ele>1754.5</ele>
        <time>2015-06-30T12:42:56Z</time>
      </trkpt>
      <trkpt lat="44.63826" lon="5.80673">
        <ele>1758.6</ele>
        <time>2015-06-30T12:43:01Z</time>
      </trkpt>
      <trkpt lat="44.63825" lon="5.80674">
        <ele>1760.8</ele>
        <time>2015-06-30T12:43:06Z</time>
      </trkpt>
      <trkpt lat="44.63825" lon="5.80674">
        <ele>1760.8</ele>
        <time>2015-06-30T12:43:11Z</time>
      </trkpt>
      <trkpt lat="44.63826" lon="5.80674">
        <ele>1760.4</ele>
        <time>2015-06-30T12:43:16Z</time>
      </trkpt>
      <trkpt lat="44.63825" lon="5.80674">
        <ele>1760.9</ele>
        <time>2015-06-30T12:43:21Z</time>
      </trkpt>
      <trkpt lat="44.63825" lon="5.80675">
        <ele>1761.2</ele>
        <time>2015-06-30T12:43:26Z</time>
      </trkpt>
      <trkpt lat="44.63825" lon="5.80675">
        <ele>1758.6</ele>
        <time>2015-06-30T12:43:31Z</time>
      </trkpt>
      <trkpt lat="44.63826" lon="5.80671">
        <ele>1754.5</ele>
        <time>2015-06-30T12:43:36Z</time>
      </trkpt>
      <trkpt lat="44.63832" lon="5.80659">
        <ele>1752.2</ele>
        <time>2015-06-30T12:43:41Z</time>
      </trkpt>
      <trkpt lat="44.63831" lon="5.80663">
        <ele>1752.1</ele>
        <time>2015-06-30T12:43:46Z</time>
      </trkpt>
      <trkpt lat="44.6383" lon="5.80666">
        <ele>1752.1</ele>
        <time>2015-06-30T12:43:51Z</time>
      </trkpt>
      <trkpt lat="44.63829" lon="5.80667">
        <ele>1750.9</ele>
        <time>2015-06-30T12:43:56Z</time>
      </trkpt>
      <trkpt lat="44.63825" lon="5.80663">
        <ele>1757.7</ele>
        <time>2015-06-30T12:44:01Z</time>
      </trkpt>
      <trkpt lat="44.63824" lon="5.8066">
        <ele>1756</ele>
        <time>2015-06-30T12:44:06Z</time>
      </trkpt>
      <trkpt lat="44.63823" lon="5.80661">
        <ele>1757.7</ele>
        <time>2015-06-30T12:44:11Z</time>
      </trkpt>
      <trkpt lat="44.63822" lon="5.80661">
        <ele>1752.5</ele>
        <time>2015-06-30T12:44:16Z</time>
      </trkpt>
      <trkpt lat="44.63819" lon="5.80664">
        <ele>1756.3</ele>
        <time>2015-06-30T12:44:23Z</time>
      </trkpt>
      <trkpt lat="44.63821" lon="5.8066">
        <ele>1758.3</ele>
        <time>2015-06-30T12:44:28Z</time>
      </trkpt>
      <trkpt lat="44.63821" lon="5.80659">
        <ele>1760.1</ele>
        <time>2015-06-30T12:44:33Z</time>
      </trkpt>
      <trkpt lat="44.63821" lon="5.80659">
        <ele>1760.4</ele>
        <time>2015-06-30T12:44:38Z</time>
      </trkpt>
      <trkpt lat="44.63822" lon="5.8066">
        <ele>1759.5</ele>
        <time>2015-06-30T12:44:43Z</time>
      </trkpt>
      <trkpt lat="44.63819" lon="5.80659">
        <ele>1758.5</ele>
        <time>2015-06-30T12:44:48Z</time>
      </trkpt>
      <trkpt lat="44.6382" lon="5.80657">
        <ele>1758.1</ele>
        <time>2015-06-30T12:44:53Z</time>
      </trkpt>
      <trkpt lat="44.63819" lon="5.80652">
        <ele>1759</ele>
        <time>2015-06-30T12:44:58Z</time>
      </trkpt>
      <trkpt lat="44.63821" lon="5.80644">
        <ele>1759.1</ele>
        <time>2015-06-30T12:45:03Z</time>
      </trkpt>
      <trkpt lat="44.63823" lon="5.80636">
        <ele>1757.7</ele>
        <time>2015-06-30T12:45:08Z</time>
      </trkpt>
      <trkpt lat="44.63825" lon="5.80629">
        <ele>1755.6</ele>
        <time>2015-06-30T12:45:13Z</time>
      </trkpt>
      <trkpt lat="44.63825" lon="5.80627">
        <ele>1754</ele>
        <time>2015-06-30T12:45:18Z</time>
      </trkpt>
      <trkpt lat="44.63825" lon="5.80624">
        <ele>1748.7</ele>
        <time>2015-06-30T12:45:23Z</time>
      </trkpt>
      <trkpt lat="44.63824" lon="5.80626">
        <ele>1748.5</ele>
        <time>2015-06-30T12:45:28Z</time>
      </trkpt>
      <trkpt lat="44.63824" lon="5.80627">
        <ele>1747.3</ele>
        <time>2015-06-30T12:45:33Z</time>
      </trkpt>
      <trkpt lat="44.63827" lon="5.80625">
        <ele>1744.3</ele>
        <time>2015-06-30T12:45:38Z</time>
      </trkpt>
      <trkpt lat="44.63828" lon="5.8063">
        <ele>1746.4</ele>
        <time>2015-06-30T12:45:43Z</time>
      </trkpt>
      <trkpt lat="44.63827" lon="5.80632">
        <ele>1749</ele>
        <time>2015-06-30T12:45:48Z</time>
      </trkpt>
      <trkpt lat="44.63826" lon="5.80634">
        <ele>1748.7</ele>
        <time>2015-06-30T12:45:53Z</time>
      </trkpt>
      <trkpt lat="44.63825" lon="5.80637">
        <ele>1750.3</ele>
        <time>2015-06-30T12:45:58Z</time>
      </trkpt>
      <trkpt lat="44.63824" lon="5.80637">
        <ele>1752.7</ele>
        <time>2015-06-30T12:46:03Z</time>
      </trkpt>
      <trkpt lat="44.63823" lon="5.8064">
        <ele>1752.4</ele>
        <time>2015-06-30T12:46:08Z</time>
      </trkpt>
      <trkpt lat="44.63824" lon="5.80637">
        <ele>1747.5</ele>
        <time>2015-06-30T12:46:13Z</time>
      </trkpt>
      <trkpt lat="44.63824" lon="5.80639">
        <ele>1746.9</ele>
        <time>2015-06-30T12:46:18Z</time>
      </trkpt>
      <trkpt lat="44.63823" lon="5.80643">
        <ele>1752</ele>
        <time>2015-06-30T12:46:23Z</time>
      </trkpt>
      <trkpt lat="44.63822" lon="5.80648">
        <ele>1753.1</ele>
        <time>2015-06-30T12:46:28Z</time>
      </trkpt>
      <trkpt lat="44.63821" lon="5.80651">
        <ele>1754.4</ele>
        <time>2015-06-30T12:46:33Z</time>
      </trkpt>
      <trkpt lat="44.63822" lon="5.80652">
        <ele>1754.6</ele>
        <time>2015-06-30T12:46:38Z</time>
      </trkpt>
      <trkpt lat="44.63823" lon="5.80652">
        <ele>1754.8</ele>
        <time>2015-06-30T12:46:43Z</time>
      </trkpt>
      <trkpt lat="44.63821" lon="5.80653">
        <ele>1757.5</ele>
        <time>2015-06-30T12:46:48Z</time>
      </trkpt>
      <trkpt lat="44.6382" lon="5.80652">
        <ele>1757</ele>
        <time>2015-06-30T12:46:53Z</time>
      </trkpt>
      <trkpt lat="44.63818" lon="5.80649">
        <ele>1752.3</ele>
        <time>2015-06-30T12:46:58Z</time>
      </trkpt>
      <trkpt lat="44.6381" lon="5.80644">
        <ele>1747.4</ele>
        <time>2015-06-30T12:47:03Z</time>
      </trkpt>
      <trkpt lat="44.6381" lon="5.80641">
        <ele>1748.8</ele>
        <time>2015-06-30T12:47:08Z</time>
      </trkpt>
      <trkpt lat="44.63813" lon="5.80646">
        <ele>1752.8</ele>
        <time>2015-06-30T12:47:13Z</time>
      </trkpt>
      <trkpt lat="44.63816" lon="5.80646">
        <ele>1752.7</ele>
        <time>2015-06-30T12:47:18Z</time>
      </trkpt>
      <trkpt lat="44.63817" lon="5.80647">
        <ele>1755.7</ele>
        <time>2015-06-30T12:47:23Z</time>
      </trkpt>
      <trkpt lat="44.63817" lon="5.8065">
        <ele>1759.7</ele>
        <time>2015-06-30T12:47:28Z</time>
      </trkpt>
      <trkpt lat="44.63819" lon="5.80646">
        <ele>1758.5</ele>
        <time>2015-06-30T12:47:33Z</time>
      </trkpt>
      <trkpt lat="44.63821" lon="5.80642">
        <ele>1756.4</ele>
        <time>2015-06-30T12:47:40Z</time>
      </trkpt>
      <trkpt lat="44.63823" lon="5.80641">
        <ele>1754.4</ele>
        <time>2015-06-30T12:47:45Z</time>
      </trkpt>
      <trkpt lat="44.63823" lon="5.80642">
        <ele>1753.7</ele>
        <time>2015-06-30T12:47:50Z</time>
      </trkpt>
      <trkpt lat="44.63823" lon="5.80641">
        <ele>1754.3</ele>
        <time>2015-06-30T12:47:55Z</time>
      </trkpt>
      <trkpt lat="44.63824" lon="5.80639">
        <ele>1752.5</ele>
        <time>2015-06-30T12:48:00Z</time>
      </trkpt>
      <trkpt lat="44.63823" lon="5.80639">
        <ele>1757.4</ele>
        <time>2015-06-30T12:48:05Z</time>
      </trkpt>
      <trkpt lat="44.63821" lon="5.80639">
        <ele>1764.2</ele>
        <time>2015-06-30T12:48:10Z</time>
      </trkpt>
      <trkpt lat="44.63824" lon="5.80635">
        <ele>1759.1</ele>
        <time>2015-06-30T12:48:15Z</time>
      </trkpt>
      <trkpt lat="44.63826" lon="5.80633">
        <ele>1757.4</ele>
        <time>2015-06-30T12:48:20Z</time>
      </trkpt>
      <trkpt lat="44.63824" lon="5.80633">
        <ele>1757.7</ele>
        <time>2015-06-30T12:48:25Z</time>
      </trkpt>
      <trkpt lat="44.63823" lon="5.80634">
        <ele>1759.6</ele>
        <time>2015-06-30T12:48:30Z</time>
      </trkpt>
      <trkpt lat="44.63824" lon="5.80637">
        <ele>1759.2</ele>
        <time>2015-06-30T12:48:35Z</time>
      </trkpt>
      <trkpt lat="44.63825" lon="5.80639">
        <ele>1754.1</ele>
        <time>2015-06-30T12:48:40Z</time>
      </trkpt>
      <trkpt lat="44.63825" lon="5.80636">
        <ele>1751.2</ele>
        <time>2015-06-30T12:48:45Z</time>
      </trkpt>
      <trkpt lat="44.63826" lon="5.80631">
        <ele>1755</ele>
        <time>2015-06-30T12:48:50Z</time>
      </trkpt>
      <trkpt lat="44.63828" lon="5.80626">
        <ele>1753.8</ele>
        <time>2015-06-30T12:48:55Z</time>
      </trkpt>
      <trkpt lat="44.63831" lon="5.80622">
        <ele>1752.9</ele>
        <time>2015-06-30T12:49:00Z</time>
      </trkpt>
      <trkpt lat="44.63834" lon="5.80617">
        <ele>1751.2</ele>
        <time>2015-06-30T12:49:05Z</time>
      </trkpt>
      <trkpt lat="44.63836" lon="5.80611">
        <ele>1751.6</ele>
        <time>2015-06-30T12:49:10Z</time>
      </trkpt>
      <trkpt lat="44.63839" lon="5.80604">
        <ele>1753.7</ele>
        <time>2015-06-30T12:49:15Z</time>
      </trkpt>
      <trkpt lat="44.63837" lon="5.80596">
        <ele>1754.8</ele>
        <time>2015-06-30T12:49:20Z</time>
      </trkpt>
      <trkpt lat="44.63833" lon="5.8059">
        <ele>1753.1</ele>
        <time>2015-06-30T12:49:25Z</time>
      </trkpt>
      <trkpt lat="44.63827" lon="5.80587">
        <ele>1751.8</ele>
        <time>2015-06-30T12:49:30Z</time>
      </trkpt>
      <trkpt lat="44.63822" lon="5.80583">
        <ele>1751.9</ele>
        <time>2015-06-30T12:49:35Z</time>
      </trkpt>
      <trkpt lat="44.63817" lon="5.8058">
        <ele>1751.2</ele>
        <time>2015-06-30T12:49:40Z</time>
      </trkpt>
      <trkpt lat="44.63812" lon="5.80576">
        <ele>1750.4</ele>
        <time>2015-06-30T12:49:45Z</time>
      </trkpt>
      <trkpt lat="44.63806" lon="5.80574">
        <ele>1749.6</ele>
        <time>2015-06-30T12:49:50Z</time>
      </trkpt>
      <trkpt lat="44.63802" lon="5.8057">
        <ele>1748.8</ele>
        <time>2015-06-30T12:49:55Z</time>
      </trkpt>
      <trkpt lat="44.638" lon="5.80563">
        <ele>1748.2</ele>
        <time>2015-06-30T12:50:00Z</time>
      </trkpt>
      <trkpt lat="44.63796" lon="5.80559">
        <ele>1747.8</ele>
        <time>2015-06-30T12:50:05Z</time>
      </trkpt>
      <trkpt lat="44.63793" lon="5.80562">
        <ele>1747.5</ele>
        <time>2015-06-30T12:50:10Z</time>
      </trkpt>
      <trkpt lat="44.63789" lon="5.80566">
        <ele>1746.6</ele>
        <time>2015-06-30T12:50:15Z</time>
      </trkpt>
      <trkpt lat="44.63785" lon="5.8057">
        <ele>1745.1</ele>
        <time>2015-06-30T12:50:20Z</time>
      </trkpt>
      <trkpt lat="44.63783" lon="5.80572">
        <ele>1744.5</ele>
        <time>2015-06-30T12:50:25Z</time>
      </trkpt>
      <trkpt lat="44.63791" lon="5.80568">
        <ele>1745.8</ele>
        <time>2015-06-30T12:50:32Z</time>
      </trkpt>
      <trkpt lat="44.63789" lon="5.80572">
        <ele>1744.7</ele>
        <time>2015-06-30T12:50:37Z</time>
      </trkpt>
      <trkpt lat="44.63791" lon="5.8057">
        <ele>1733.4</ele>
        <time>2015-06-30T12:50:42Z</time>
      </trkpt>
      <trkpt lat="44.63788" lon="5.80572">
        <ele>1733.3</ele>
        <time>2015-06-30T12:50:47Z</time>
      </trkpt>
      <trkpt lat="44.63783" lon="5.80583">
        <ele>1730.9</ele>
        <time>2015-06-30T12:50:52Z</time>
      </trkpt>
      <trkpt lat="44.63783" lon="5.80579">
        <ele>1732.9</ele>
        <time>2015-06-30T12:50:57Z</time>
      </trkpt>
      <trkpt lat="44.6378" lon="5.80577">
        <ele>1732.9</ele>
        <time>2015-06-30T12:51:02Z</time>
      </trkpt>
      <trkpt lat="44.63776" lon="5.80574">
        <ele>1732.9</ele>
        <time>2015-06-30T12:51:07Z</time>
      </trkpt>
      <trkpt lat="44.6377" lon="5.80574">
        <ele>1733.9</ele>
        <time>2015-06-30T12:51:12Z</time>
      </trkpt>
      <trkpt lat="44.63766" lon="5.80573">
        <ele>1734.3</ele>
        <time>2015-06-30T12:51:17Z</time>
      </trkpt>
      <trkpt lat="44.6376" lon="5.80572">
        <ele>1734.3</ele>
        <time>2015-06-30T12:51:22Z</time>
      </trkpt>
      <trkpt lat="44.63755" lon="5.8057">
        <ele>1733.8</ele>
        <time>2015-06-30T12:51:27Z</time>
      </trkpt>
      <trkpt lat="44.6375" lon="5.80569">
        <ele>1734.5</ele>
        <time>2015-06-30T12:51:32Z</time>
      </trkpt>
      <trkpt lat="44.63744" lon="5.80569">
        <ele>1734.7</ele>
        <time>2015-06-30T12:51:37Z</time>
      </trkpt>
      <trkpt lat="44.63745" lon="5.80569">
        <ele>1733.5</ele>
        <time>2015-06-30T12:51:42Z</time>
      </trkpt>
      <trkpt lat="44.63745" lon="5.80568">
        <ele>1728.6</ele>
        <time>2015-06-30T12:51:47Z</time>
      </trkpt>
      <trkpt lat="44.63744" lon="5.80567">
        <ele>1726.3</ele>
        <time>2015-06-30T12:51:52Z</time>
      </trkpt>
      <trkpt lat="44.63743" lon="5.80566">
        <ele>1724.7</ele>
        <time>2015-06-30T12:51:57Z</time>
      </trkpt>
      <trkpt lat="44.63741" lon="5.80567">
        <ele>1728.8</ele>
        <time>2015-06-30T12:52:02Z</time>
      </trkpt>
      <trkpt lat="44.63737" lon="5.80568">
        <ele>1731.6</ele>
        <time>2015-06-30T12:52:07Z</time>
      </trkpt>
      <trkpt lat="44.63731" lon="5.80568">
        <ele>1731.6</ele>
        <time>2015-06-30T12:52:12Z</time>
      </trkpt>
      <trkpt lat="44.63726" lon="5.80569">
        <ele>1732</ele>
        <time>2015-06-30T12:52:17Z</time>
      </trkpt>
      <trkpt lat="44.63722" lon="5.80569">
        <ele>1730.8</ele>
        <time>2015-06-30T12:52:22Z</time>
      </trkpt>
      <trkpt lat="44.63717" lon="5.80567">
        <ele>1730.6</ele>
        <time>2015-06-30T12:52:27Z</time>
      </trkpt>
      <trkpt lat="44.63712" lon="5.80564">
        <ele>1733</ele>
        <time>2015-06-30T12:52:32Z</time>
      </trkpt>
      <trkpt lat="44.63706" lon="5.8056">
        <ele>1734</ele>
        <time>2015-06-30T12:52:37Z</time>
      </trkpt>
      <trkpt lat="44.63701" lon="5.80559">
        <ele>1734.9</ele>
        <time>2015-06-30T12:52:42Z</time>
      </trkpt>
      <trkpt lat="44.63696" lon="5.80558">
        <ele>1734.8</ele>
        <time>2015-06-30T12:52:47Z</time>
      </trkpt>
      <trkpt lat="44.6369" lon="5.80557">
        <ele>1733</ele>
        <time>2015-06-30T12:52:52Z</time>
      </trkpt>
      <trkpt lat="44.63686" lon="5.80556">
        <ele>1731.8</ele>
        <time>2015-06-30T12:52:57Z</time>
      </trkpt>
      <trkpt lat="44.6368" lon="5.80553">
        <ele>1731</ele>
        <time>2015-06-30T12:53:02Z</time>
      </trkpt>
      <trkpt lat="44.63675" lon="5.80552">
        <ele>1730</ele>
        <time>2015-06-30T12:53:07Z</time>
      </trkpt>
      <trkpt lat="44.6367" lon="5.8055">
        <ele>1729.2</ele>
        <time>2015-06-30T12:53:12Z</time>
      </trkpt>
      <trkpt lat="44.63666" lon="5.80549">
        <ele>1728.4</ele>
        <time>2015-06-30T12:53:17Z</time>
      </trkpt>
      <trkpt lat="44.63662" lon="5.80548">
        <ele>1724.4</ele>
        <time>2015-06-30T12:53:22Z</time>
      </trkpt>
      <trkpt lat="44.63657" lon="5.80549">
        <ele>1724.3</ele>
        <time>2015-06-30T12:53:27Z</time>
      </trkpt>
      <trkpt lat="44.6365" lon="5.80545">
        <ele>1728.2</ele>
        <time>2015-06-30T12:53:32Z</time>
      </trkpt>
      <trkpt lat="44.63644" lon="5.80544">
        <ele>1730.3</ele>
        <time>2015-06-30T12:53:37Z</time>
      </trkpt>
      <trkpt lat="44.63641" lon="5.80545">
        <ele>1740.3</ele>
        <time>2015-06-30T12:53:42Z</time>
      </trkpt>
      <trkpt lat="44.63638" lon="5.80545">
        <ele>1742.8</ele>
        <time>2015-06-30T12:53:47Z</time>
      </trkpt>
      <trkpt lat="44.63633" lon="5.80541">
        <ele>1740</ele>
        <time>2015-06-30T12:53:52Z</time>
      </trkpt>
      <trkpt lat="44.63629" lon="5.80537">
        <ele>1735.9</ele>
        <time>2015-06-30T12:53:57Z</time>
      </trkpt>
      <trkpt lat="44.63623" lon="5.80533">
        <ele>1740.8</ele>
        <time>2015-06-30T12:54:02Z</time>
      </trkpt>
      <trkpt lat="44.63619" lon="5.80532">
        <ele>1739.9</ele>
        <time>2015-06-30T12:54:07Z</time>
      </trkpt>
      <trkpt lat="44.63616" lon="5.8053">
        <ele>1735.7</ele>
        <time>2015-06-30T12:54:12Z</time>
      </trkpt>
      <trkpt lat="44.63612" lon="5.80526">
        <ele>1735.3</ele>
        <time>2015-06-30T12:54:17Z</time>
      </trkpt>
      <trkpt lat="44.63607" lon="5.80524">
        <ele>1735.9</ele>
        <time>2015-06-30T12:54:22Z</time>
      </trkpt>
      <trkpt lat="44.63604" lon="5.80524">
        <ele>1734.7</ele>
        <time>2015-06-30T12:54:27Z</time>
      </trkpt>
      <trkpt lat="44.636" lon="5.80523">
        <ele>1732.5</ele>
        <time>2015-06-30T12:54:32Z</time>
      </trkpt>
      <trkpt lat="44.63598" lon="5.80523">
        <ele>1731.9</ele>
        <time>2015-06-30T12:54:37Z</time>
      </trkpt>
      <trkpt lat="44.63597" lon="5.80526">
        <ele>1735.3</ele>
        <time>2015-06-30T12:54:42Z</time>
      </trkpt>
      <trkpt lat="44.63595" lon="5.80524">
        <ele>1735.8</ele>
        <time>2015-06-30T12:54:47Z</time>
      </trkpt>
      <trkpt lat="44.63594" lon="5.80524">
        <ele>1737.5</ele>
        <time>2015-06-30T12:54:52Z</time>
      </trkpt>
      <trkpt lat="44.6359" lon="5.80525">
        <ele>1735.5</ele>
        <time>2015-06-30T12:54:57Z</time>
      </trkpt>
      <trkpt lat="44.63588" lon="5.80525">
        <ele>1737.7</ele>
        <time>2015-06-30T12:55:02Z</time>
      </trkpt>
      <trkpt lat="44.63588" lon="5.80524">
        <ele>1737.1</ele>
        <time>2015-06-30T12:55:07Z</time>
      </trkpt>
      <trkpt lat="44.63585" lon="5.80522">
        <ele>1738.4</ele>
        <time>2015-06-30T12:55:12Z</time>
      </trkpt>
      <trkpt lat="44.63584" lon="5.8052">
        <ele>1737</ele>
        <time>2015-06-30T12:55:17Z</time>
      </trkpt>
      <trkpt lat="44.63581" lon="5.80517">
        <ele>1738.8</ele>
        <time>2015-06-30T12:55:22Z</time>
      </trkpt>
      <trkpt lat="44.63576" lon="5.80515">
        <ele>1739.9</ele>
        <time>2015-06-30T12:55:27Z</time>
      </trkpt>
      <trkpt lat="44.63572" lon="5.80509">
        <ele>1735.9</ele>
        <time>2015-06-30T12:55:32Z</time>
      </trkpt>
      <trkpt lat="44.63568" lon="5.80506">
        <ele>1736</ele>
        <time>2015-06-30T12:55:37Z</time>
      </trkpt>
      <trkpt lat="44.63564" lon="5.80502">
        <ele>1735</ele>
        <time>2015-06-30T12:55:42Z</time>
      </trkpt>
      <trkpt lat="44.63559" lon="5.805">
        <ele>1734.9</ele>
        <time>2015-06-30T12:55:47Z</time>
      </trkpt>
      <trkpt lat="44.63552" lon="5.80495">
        <ele>1742.7</ele>
        <time>2015-06-30T12:55:52Z</time>
      </trkpt>
      <trkpt lat="44.63547" lon="5.80492">
        <ele>1747.4</ele>
        <time>2015-06-30T12:55:57Z</time>
      </trkpt>
      <trkpt lat="44.63548" lon="5.80491">
        <ele>1744.6</ele>
        <time>2015-06-30T12:56:02Z</time>
      </trkpt>
      <trkpt lat="44.63549" lon="5.80492">
        <ele>1745.1</ele>
        <time>2015-06-30T12:56:07Z</time>
      </trkpt>
      <trkpt lat="44.63546" lon="5.8049">
        <ele>1744.8</ele>
        <time>2015-06-30T12:56:12Z</time>
      </trkpt>
      <trkpt lat="44.63542" lon="5.80488">
        <ele>1743.7</ele>
        <time>2015-06-30T12:56:17Z</time>
      </trkpt>
      <trkpt lat="44.63539" lon="5.80486">
        <ele>1743</ele>
        <time>2015-06-30T12:56:22Z</time>
      </trkpt>
      <trkpt lat="44.63536" lon="5.80485">
        <ele>1742.4</ele>
        <time>2015-06-30T12:56:27Z</time>
      </trkpt>
      <trkpt lat="44.63532" lon="5.80481">
        <ele>1742.5</ele>
        <time>2015-06-30T12:56:32Z</time>
      </trkpt>
      <trkpt lat="44.63529" lon="5.8048">
        <ele>1742.6</ele>
        <time>2015-06-30T12:56:37Z</time>
      </trkpt>
      <trkpt lat="44.63524" lon="5.80477">
        <ele>1745.6</ele>
        <time>2015-06-30T12:56:42Z</time>
      </trkpt>
      <trkpt lat="44.6352" lon="5.80475">
        <ele>1743.7</ele>
        <time>2015-06-30T12:56:47Z</time>
      </trkpt>
      <trkpt lat="44.6352" lon="5.80475">
        <ele>1743</ele>
        <time>2015-06-30T12:56:52Z</time>
      </trkpt>
      <trkpt lat="44.63519" lon="5.80472">
        <ele>1742.5</ele>
        <time>2015-06-30T12:56:57Z</time>
      </trkpt>
      <trkpt lat="44.63516" lon="5.80468">
        <ele>1741.3</ele>
        <time>2015-06-30T12:57:02Z</time>
      </trkpt>
      <trkpt lat="44.63512" lon="5.80466">
        <ele>1743.2</ele>
        <time>2015-06-30T12:57:07Z</time>
      </trkpt>
      <trkpt lat="44.63507" lon="5.80467">
        <ele>1743.8</ele>
        <time>2015-06-30T12:57:12Z</time>
      </trkpt>
      <trkpt lat="44.63503" lon="5.80466">
        <ele>1741.9</ele>
        <time>2015-06-30T12:57:17Z</time>
      </trkpt>
      <trkpt lat="44.63498" lon="5.80467">
        <ele>1742.1</ele>
        <time>2015-06-30T12:57:22Z</time>
      </trkpt>
      <trkpt lat="44.63493" lon="5.80467">
        <ele>1742.1</ele>
        <time>2015-06-30T12:57:27Z</time>
      </trkpt>
      <trkpt lat="44.63489" lon="5.80469">
        <ele>1746</ele>
        <time>2015-06-30T12:57:32Z</time>
      </trkpt>
      <trkpt lat="44.63488" lon="5.80468">
        <ele>1747.7</ele>
        <time>2015-06-30T12:57:37Z</time>
      </trkpt>
      <trkpt lat="44.63487" lon="5.80467">
        <ele>1746</ele>
        <time>2015-06-30T12:57:42Z</time>
      </trkpt>
      <trkpt lat="44.63482" lon="5.80468">
        <ele>1745.5</ele>
        <time>2015-06-30T12:57:47Z</time>
      </trkpt>
      <trkpt lat="44.63477" lon="5.80469">
        <ele>1744.9</ele>
        <time>2015-06-30T12:57:52Z</time>
      </trkpt>
      <trkpt lat="44.63472" lon="5.80468">
        <ele>1744</ele>
        <time>2015-06-30T12:57:57Z</time>
      </trkpt>
      <trkpt lat="44.63467" lon="5.80467">
        <ele>1743.5</ele>
        <time>2015-06-30T12:58:02Z</time>
      </trkpt>
      <trkpt lat="44.63464" lon="5.80464">
        <ele>1741.4</ele>
        <time>2015-06-30T12:58:07Z</time>
      </trkpt>
      <trkpt lat="44.63458" lon="5.80459">
        <ele>1745</ele>
        <time>2015-06-30T12:58:12Z</time>
      </trkpt>
      <trkpt lat="44.63453" lon="5.80453">
        <ele>1746.3</ele>
        <time>2015-06-30T12:58:17Z</time>
      </trkpt>
      <trkpt lat="44.63451" lon="5.8045">
        <ele>1750</ele>
        <time>2015-06-30T12:58:22Z</time>
      </trkpt>
      <trkpt lat="44.63451" lon="5.80449">
        <ele>1750.3</ele>
        <time>2015-06-30T12:58:27Z</time>
      </trkpt>
      <trkpt lat="44.6345" lon="5.80446">
        <ele>1749.6</ele>
        <time>2015-06-30T12:58:32Z</time>
      </trkpt>
      <trkpt lat="44.63448" lon="5.80442">
        <ele>1750.6</ele>
        <time>2015-06-30T12:58:37Z</time>
      </trkpt>
      <trkpt lat="44.63446" lon="5.80441">
        <ele>1749.6</ele>
        <time>2015-06-30T12:58:42Z</time>
      </trkpt>
      <trkpt lat="44.63445" lon="5.80438">
        <ele>1745.5</ele>
        <time>2015-06-30T12:58:47Z</time>
      </trkpt>
      <trkpt lat="44.63443" lon="5.80432">
        <ele>1742</ele>
        <time>2015-06-30T12:58:52Z</time>
      </trkpt>
      <trkpt lat="44.63442" lon="5.80426">
        <ele>1739.8</ele>
        <time>2015-06-30T12:58:57Z</time>
      </trkpt>
      <trkpt lat="44.63438" lon="5.80421">
        <ele>1740.1</ele>
        <time>2015-06-30T12:59:02Z</time>
      </trkpt>
      <trkpt lat="44.63434" lon="5.80424">
        <ele>1739.7</ele>
        <time>2015-06-30T12:59:07Z</time>
      </trkpt>
      <trkpt lat="44.63429" lon="5.80426">
        <ele>1740.6</ele>
        <time>2015-06-30T12:59:12Z</time>
      </trkpt>
      <trkpt lat="44.63424" lon="5.80424">
        <ele>1742.4</ele>
        <time>2015-06-30T12:59:17Z</time>
      </trkpt>
      <trkpt lat="44.6342" lon="5.80421">
        <ele>1743</ele>
        <time>2015-06-30T12:59:22Z</time>
      </trkpt>
      <trkpt lat="44.63416" lon="5.80421">
        <ele>1743</ele>
        <time>2015-06-30T12:59:27Z</time>
      </trkpt>
      <trkpt lat="44.63411" lon="5.80421">
        <ele>1741.9</ele>
        <time>2015-06-30T12:59:32Z</time>
      </trkpt>
      <trkpt lat="44.63407" lon="5.80419">
        <ele>1742.5</ele>
        <time>2015-06-30T12:59:37Z</time>
      </trkpt>
      <trkpt lat="44.63401" lon="5.80418">
        <ele>1743.3</ele>
        <time>2015-06-30T12:59:42Z</time>
      </trkpt>
      <trkpt lat="44.63395" lon="5.80418">
        <ele>1744.4</ele>
        <time>2015-06-30T12:59:47Z</time>
      </trkpt>
      <trkpt lat="44.63391" lon="5.80419">
        <ele>1744.2</ele>
        <time>2015-06-30T12:59:52Z</time>
      </trkpt>
      <trkpt lat="44.63385" lon="5.80418">
        <ele>1746.8</ele>
        <time>2015-06-30T12:59:57Z</time>
      </trkpt>
      <trkpt lat="44.6338" lon="5.80417">
        <ele>1745.9</ele>
        <time>2015-06-30T13:00:02Z</time>
      </trkpt>
      <trkpt lat="44.63375" lon="5.80415">
        <ele>1743.6</ele>
        <time>2015-06-30T13:00:07Z</time>
      </trkpt>
      <trkpt lat="44.63369" lon="5.80414">
        <ele>1744.3</ele>
        <time>2015-06-30T13:00:12Z</time>
      </trkpt>
      <trkpt lat="44.63365" lon="5.80413">
        <ele>1743.3</ele>
        <time>2015-06-30T13:00:17Z</time>
      </trkpt>
      <trkpt lat="44.6336" lon="5.80412">
        <ele>1741.2</ele>
        <time>2015-06-30T13:00:22Z</time>
      </trkpt>
      <trkpt lat="44.63355" lon="5.80412">
        <ele>1743.1</ele>
        <time>2015-06-30T13:00:27Z</time>
      </trkpt>
      <trkpt lat="44.6335" lon="5.80413">
        <ele>1742.3</ele>
        <time>2015-06-30T13:00:32Z</time>
      </trkpt>
      <trkpt lat="44.63347" lon="5.80416">
        <ele>1743</ele>
        <time>2015-06-30T13:00:37Z</time>
      </trkpt>
      <trkpt lat="44.63345" lon="5.80415">
        <ele>1742.5</ele>
        <time>2015-06-30T13:00:42Z</time>
      </trkpt>
      <trkpt lat="44.63344" lon="5.80417">
        <ele>1745.2</ele>
        <time>2015-06-30T13:00:47Z</time>
      </trkpt>
      <trkpt lat="44.63344" lon="5.8042">
        <ele>1746.8</ele>
        <time>2015-06-30T13:00:52Z</time>
      </trkpt>
      <trkpt lat="44.63344" lon="5.8042">
        <ele>1745</ele>
        <time>2015-06-30T13:00:57Z</time>
      </trkpt>
      <trkpt lat="44.63345" lon="5.80419">
        <ele>1744.6</ele>
        <time>2015-06-30T13:01:02Z</time>
      </trkpt>
      <trkpt lat="44.6334" lon="5.80417">
        <ele>1747</ele>
        <time>2015-06-30T13:01:07Z</time>
      </trkpt>
      <trkpt lat="44.63336" lon="5.80411">
        <ele>1748.5</ele>
        <time>2015-06-30T13:01:12Z</time>
      </trkpt>
      <trkpt lat="44.63333" lon="5.80404">
        <ele>1746.8</ele>
        <time>2015-06-30T13:01:17Z</time>
      </trkpt>
      <trkpt lat="44.63332" lon="5.804">
        <ele>1745.7</ele>
        <time>2015-06-30T13:01:22Z</time>
      </trkpt>
      <trkpt lat="44.63329" lon="5.80398">
        <ele>1747.8</ele>
        <time>2015-06-30T13:01:27Z</time>
      </trkpt>
      <trkpt lat="44.63324" lon="5.80401">
        <ele>1748.9</ele>
        <time>2015-06-30T13:01:32Z</time>
      </trkpt>
      <trkpt lat="44.63318" lon="5.80404">
        <ele>1749.9</ele>
        <time>2015-06-30T13:01:37Z</time>
      </trkpt>
      <trkpt lat="44.63314" lon="5.80408">
        <ele>1746.9</ele>
        <time>2015-06-30T13:01:42Z</time>
      </trkpt>
      <trkpt lat="44.63311" lon="5.80409">
        <ele>1743.6</ele>
        <time>2015-06-30T13:01:47Z</time>
      </trkpt>
      <trkpt lat="44.63306" lon="5.8041">
        <ele>1747.8</ele>
        <time>2015-06-30T13:01:52Z</time>
      </trkpt>
      <trkpt lat="44.63303" lon="5.80411">
        <ele>1747.7</ele>
        <time>2015-06-30T13:01:57Z</time>
      </trkpt>
      <trkpt lat="44.63305" lon="5.80412">
        <ele>1749.7</ele>
        <time>2015-06-30T13:02:02Z</time>
      </trkpt>
      <trkpt lat="44.63302" lon="5.80413">
        <ele>1750.4</ele>
        <time>2015-06-30T13:02:07Z</time>
      </trkpt>
      <trkpt lat="44.633" lon="5.80416">
        <ele>1749.3</ele>
        <time>2015-06-30T13:02:12Z</time>
      </trkpt>
      <trkpt lat="44.63296" lon="5.80421">
        <ele>1748.1</ele>
        <time>2015-06-30T13:02:17Z</time>
      </trkpt>
      <trkpt lat="44.63292" lon="5.80425">
        <ele>1746.2</ele>
        <time>2015-06-30T13:02:22Z</time>
      </trkpt>
      <trkpt lat="44.63289" lon="5.80429">
        <ele>1747.3</ele>
        <time>2015-06-30T13:02:27Z</time>
      </trkpt>
      <trkpt lat="44.63288" lon="5.80434">
        <ele>1747.2</ele>
        <time>2015-06-30T13:02:32Z</time>
      </trkpt>
      <trkpt lat="44.63287" lon="5.80433">
        <ele>1746.5</ele>
        <time>2015-06-30T13:02:37Z</time>
      </trkpt>
      <trkpt lat="44.63286" lon="5.80431">
        <ele>1746.4</ele>
        <time>2015-06-30T13:02:42Z</time>
      </trkpt>
      <trkpt lat="44.63284" lon="5.80432">
        <ele>1751.8</ele>
        <time>2015-06-30T13:02:47Z</time>
      </trkpt>
      <trkpt lat="44.63281" lon="5.80436">
        <ele>1756</ele>
        <time>2015-06-30T13:02:52Z</time>
      </trkpt>
      <trkpt lat="44.63279" lon="5.80445">
        <ele>1756.6</ele>
        <time>2015-06-30T13:02:57Z</time>
      </trkpt>
      <trkpt lat="44.63281" lon="5.80447">
        <ele>1751.5</ele>
        <time>2015-06-30T13:03:02Z</time>
      </trkpt>
      <trkpt lat="44.63286" lon="5.80447">
        <ele>1750.2</ele>
        <time>2015-06-30T13:03:07Z</time>
      </trkpt>
      <trkpt lat="44.63293" lon="5.80444">
        <ele>1748.5</ele>
        <time>2015-06-30T13:03:12Z</time>
      </trkpt>
      <trkpt lat="44.63299" lon="5.80441">
        <ele>1745.5</ele>
        <time>2015-06-30T13:03:17Z</time>
      </trkpt>
      <trkpt lat="44.63307" lon="5.8044">
        <ele>1746.1</ele>
        <time>2015-06-30T13:03:22Z</time>
      </trkpt>
      <trkpt lat="44.63313" lon="5.80436">
        <ele>1745.5</ele>
        <time>2015-06-30T13:03:27Z</time>
      </trkpt>
      <trkpt lat="44.63318" lon="5.80433">
        <ele>1744</ele>
        <time>2015-06-30T13:03:32Z</time>
      </trkpt>
      <trkpt lat="44.63323" lon="5.80432">
        <ele>1742.6</ele>
        <time>2015-06-30T13:03:37Z</time>
      </trkpt>
      <trkpt lat="44.63321" lon="5.80434">
        <ele>1739.5</ele>
        <time>2015-06-30T13:03:42Z</time>
      </trkpt>
      <trkpt lat="44.63321" lon="5.80431">
        <ele>1736.3</ele>
        <time>2015-06-30T13:03:47Z</time>
      </trkpt>
      <trkpt lat="44.63323" lon="5.80429">
        <ele>1737.2</ele>
        <time>2015-06-30T13:03:52Z</time>
      </trkpt>
      <trkpt lat="44.63319" lon="5.80428">
        <ele>1739.6</ele>
        <time>2015-06-30T13:03:57Z</time>
      </trkpt>
      <trkpt lat="44.63321" lon="5.80429">
        <ele>1741.9</ele>
        <time>2015-06-30T13:04:02Z</time>
      </trkpt>
      <trkpt lat="44.63321" lon="5.80432">
        <ele>1740.7</ele>
        <time>2015-06-30T13:04:07Z</time>
      </trkpt>
      <trkpt lat="44.63324" lon="5.80432">
        <ele>1741</ele>
        <time>2015-06-30T13:04:12Z</time>
      </trkpt>
      <trkpt lat="44.63324" lon="5.80435">
        <ele>1738.8</ele>
        <time>2015-06-30T13:04:17Z</time>
      </trkpt>
      <trkpt lat="44.63325" lon="5.80441">
        <ele>1735.5</ele>
        <time>2015-06-30T13:04:22Z</time>
      </trkpt>
      <trkpt lat="44.63331" lon="5.80441">
        <ele>1734.2</ele>
        <time>2015-06-30T13:04:27Z</time>
      </trkpt>
      <trkpt lat="44.63337" lon="5.80439">
        <ele>1732.4</ele>
        <time>2015-06-30T13:04:32Z</time>
      </trkpt>
      <trkpt lat="44.6334" lon="5.80447">
        <ele>1733</ele>
        <time>2015-06-30T13:04:37Z</time>
      </trkpt>
      <trkpt lat="44.63344" lon="5.80456">
        <ele>1733.9</ele>
        <time>2015-06-30T13:04:42Z</time>
      </trkpt>
      <trkpt lat="44.63349" lon="5.80462">
        <ele>1733.4</ele>
        <time>2015-06-30T13:04:47Z</time>
      </trkpt>
      <trkpt lat="44.63353" lon="5.80469">
        <ele>1732.8</ele>
        <time>2015-06-30T13:04:52Z</time>
      </trkpt>
      <trkpt lat="44.63359" lon="5.80473">
        <ele>1732</ele>
        <time>2015-06-30T13:04:57Z</time>
      </trkpt>
      <trkpt lat="44.63364" lon="5.80478">
        <ele>1731.2</ele>
        <time>2015-06-30T13:05:02Z</time>
      </trkpt>
      <trkpt lat="44.63369" lon="5.80482">
        <ele>1730.7</ele>
        <time>2015-06-30T13:05:07Z</time>
      </trkpt>
      <trkpt lat="44.63375" lon="5.80486">
        <ele>1730.5</ele>
        <time>2015-06-30T13:05:12Z</time>
      </trkpt>
      <trkpt lat="44.63381" lon="5.80486">
        <ele>1729.5</ele>
        <time>2015-06-30T13:05:17Z</time>
      </trkpt>
      <trkpt lat="44.63387" lon="5.80488">
        <ele>1729</ele>
        <time>2015-06-30T13:05:22Z</time>
      </trkpt>
      <trkpt lat="44.63392" lon="5.80492">
        <ele>1729.1</ele>
        <time>2015-06-30T13:05:27Z</time>
      </trkpt>
      <trkpt lat="44.63398" lon="5.80493">
        <ele>1727.7</ele>
        <time>2015-06-30T13:05:32Z</time>
      </trkpt>
      <trkpt lat="44.63404" lon="5.80494">
        <ele>1726.7</ele>
        <time>2015-06-30T13:05:37Z</time>
      </trkpt>
      <trkpt lat="44.63408" lon="5.80499">
        <ele>1725.7</ele>
        <time>2015-06-30T13:05:42Z</time>
      </trkpt>
      <trkpt lat="44.63414" lon="5.80504">
        <ele>1725.7</ele>
        <time>2015-06-30T13:05:47Z</time>
      </trkpt>
      <trkpt lat="44.63419" lon="5.80508">
        <ele>1725.9</ele>
        <time>2015-06-30T13:05:52Z</time>
      </trkpt>
      <trkpt lat="44.63425" lon="5.8051">
        <ele>1724.7</ele>
        <time>2015-06-30T13:05:57Z</time>
      </trkpt>
      <trkpt lat="44.63431" lon="5.80509">
        <ele>1723.4</ele>
        <time>2015-06-30T13:06:02Z</time>
      </trkpt>
      <trkpt lat="44.63435" lon="5.80516">
        <ele>1723</ele>
        <time>2015-06-30T13:06:07Z</time>
      </trkpt>
      <trkpt lat="44.63438" lon="5.80525">
        <ele>1722.8</ele>
        <time>2015-06-30T13:06:12Z</time>
      </trkpt>
      <trkpt lat="44.6344" lon="5.80531">
        <ele>1721.8</ele>
        <time>2015-06-30T13:06:17Z</time>
      </trkpt>
      <trkpt lat="44.63444" lon="5.80535">
        <ele>1720.5</ele>
        <time>2015-06-30T13:06:22Z</time>
      </trkpt>
      <trkpt lat="44.63445" lon="5.80541">
        <ele>1719.1</ele>
        <time>2015-06-30T13:06:27Z</time>
      </trkpt>
      <trkpt lat="44.63444" lon="5.80543">
        <ele>1718.3</ele>
        <time>2015-06-30T13:06:32Z</time>
      </trkpt>
      <trkpt lat="44.63444" lon="5.80544">
        <ele>1717</ele>
        <time>2015-06-30T13:06:37Z</time>
      </trkpt>
      <trkpt lat="44.63445" lon="5.80542">
        <ele>1713.2</ele>
        <time>2015-06-30T13:06:42Z</time>
      </trkpt>
      <trkpt lat="44.63446" lon="5.80542">
        <ele>1710.6</ele>
        <time>2015-06-30T13:06:47Z</time>
      </trkpt>
      <trkpt lat="44.63445" lon="5.80547">
        <ele>1708.2</ele>
        <time>2015-06-30T13:06:52Z</time>
      </trkpt>
      <trkpt lat="44.63441" lon="5.80554">
        <ele>1709.8</ele>
        <time>2015-06-30T13:06:57Z</time>
      </trkpt>
      <trkpt lat="44.63436" lon="5.80557">
        <ele>1709.5</ele>
        <time>2015-06-30T13:07:02Z</time>
      </trkpt>
      <trkpt lat="44.6343" lon="5.80558">
        <ele>1711.5</ele>
        <time>2015-06-30T13:07:07Z</time>
      </trkpt>
      <trkpt lat="44.63425" lon="5.80556">
        <ele>1712.9</ele>
        <time>2015-06-30T13:07:12Z</time>
      </trkpt>
      <trkpt lat="44.63422" lon="5.80562">
        <ele>1713.1</ele>
        <time>2015-06-30T13:07:17Z</time>
      </trkpt>
      <trkpt lat="44.63422" lon="5.8057">
        <ele>1713.7</ele>
        <time>2015-06-30T13:07:22Z</time>
      </trkpt>
      <trkpt lat="44.63426" lon="5.80577">
        <ele>1713.2</ele>
        <time>2015-06-30T13:07:27Z</time>
      </trkpt>
      <trkpt lat="44.63429" lon="5.80583">
        <ele>1712</ele>
        <time>2015-06-30T13:07:32Z</time>
      </trkpt>
      <trkpt lat="44.63434" lon="5.80588">
        <ele>1710.6</ele>
        <time>2015-06-30T13:07:37Z</time>
      </trkpt>
      <trkpt lat="44.63438" lon="5.80592">
        <ele>1709</ele>
        <time>2015-06-30T13:07:42Z</time>
      </trkpt>
      <trkpt lat="44.63443" lon="5.80596">
        <ele>1707.7</ele>
        <time>2015-06-30T13:07:47Z</time>
      </trkpt>
      <trkpt lat="44.63448" lon="5.806">
        <ele>1706.3</ele>
        <time>2015-06-30T13:07:52Z</time>
      </trkpt>
      <trkpt lat="44.63452" lon="5.80604">
        <ele>1705.3</ele>
        <time>2015-06-30T13:07:57Z</time>
      </trkpt>
      <trkpt lat="44.63457" lon="5.80609">
        <ele>1704.3</ele>
        <time>2015-06-30T13:08:02Z</time>
      </trkpt>
      <trkpt lat="44.63461" lon="5.80614">
        <ele>1703.1</ele>
        <time>2015-06-30T13:08:07Z</time>
      </trkpt>
      <trkpt lat="44.63466" lon="5.80619">
        <ele>1701.8</ele>
        <time>2015-06-30T13:08:12Z</time>
      </trkpt>
      <trkpt lat="44.6347" lon="5.80621">
        <ele>1700.1</ele>
        <time>2015-06-30T13:08:17Z</time>
      </trkpt>
      <trkpt lat="44.63474" lon="5.80626">
        <ele>1697.7</ele>
        <time>2015-06-30T13:08:22Z</time>
      </trkpt>
      <trkpt lat="44.63475" lon="5.80631">
        <ele>1696.2</ele>
        <time>2015-06-30T13:08:27Z</time>
      </trkpt>
      <trkpt lat="44.63477" lon="5.80637">
        <ele>1694.9</ele>
        <time>2015-06-30T13:08:32Z</time>
      </trkpt>
      <trkpt lat="44.6348" lon="5.80643">
        <ele>1693.7</ele>
        <time>2015-06-30T13:08:37Z</time>
      </trkpt>
      <trkpt lat="44.63482" lon="5.80647">
        <ele>1692.4</ele>
        <time>2015-06-30T13:08:42Z</time>
      </trkpt>
      <trkpt lat="44.63484" lon="5.80651">
        <ele>1690.9</ele>
        <time>2015-06-30T13:08:47Z</time>
      </trkpt>
      <trkpt lat="44.63488" lon="5.80654">
        <ele>1689.1</ele>
        <time>2015-06-30T13:08:52Z</time>
      </trkpt>
      <trkpt lat="44.63492" lon="5.8066">
        <ele>1688.1</ele>
        <time>2015-06-30T13:08:57Z</time>
      </trkpt>
      <trkpt lat="44.63496" lon="5.80666">
        <ele>1687</ele>
        <time>2015-06-30T13:09:02Z</time>
      </trkpt>
      <trkpt lat="44.635" lon="5.80672">
        <ele>1686.1</ele>
        <time>2015-06-30T13:09:07Z</time>
      </trkpt>
      <trkpt lat="44.63504" lon="5.80679">
        <ele>1685.2</ele>
        <time>2015-06-30T13:09:12Z</time>
      </trkpt>
      <trkpt lat="44.63508" lon="5.80685">
        <ele>1684.3</ele>
        <time>2015-06-30T13:09:17Z</time>
      </trkpt>
      <trkpt lat="44.63513" lon="5.80689">
        <ele>1683.6</ele>
        <time>2015-06-30T13:09:22Z</time>
      </trkpt>
      <trkpt lat="44.63517" lon="5.80694">
        <ele>1682.3</ele>
        <time>2015-06-30T13:09:27Z</time>
      </trkpt>
      <trkpt lat="44.63521" lon="5.80696">
        <ele>1680.4</ele>
        <time>2015-06-30T13:09:32Z</time>
      </trkpt>
      <trkpt lat="44.63525" lon="5.807">
        <ele>1678.8</ele>
        <time>2015-06-30T13:09:37Z</time>
      </trkpt>
      <trkpt lat="44.6353" lon="5.80703">
        <ele>1677.1</ele>
        <time>2015-06-30T13:09:42Z</time>
      </trkpt>
      <trkpt lat="44.63535" lon="5.80706">
        <ele>1675.6</ele>
        <time>2015-06-30T13:09:47Z</time>
      </trkpt>
      <trkpt lat="44.63539" lon="5.80712">
        <ele>1674.6</ele>
        <time>2015-06-30T13:09:52Z</time>
      </trkpt>
      <trkpt lat="44.63541" lon="5.8072">
        <ele>1673.3</ele>
        <time>2015-06-30T13:09:57Z</time>
      </trkpt>
      <trkpt lat="44.63542" lon="5.80728">
        <ele>1672.5</ele>
        <time>2015-06-30T13:10:02Z</time>
      </trkpt>
      <trkpt lat="44.63543" lon="5.80735">
        <ele>1671.2</ele>
        <time>2015-06-30T13:10:07Z</time>
      </trkpt>
      <trkpt lat="44.63545" lon="5.80742">
        <ele>1670.1</ele>
        <time>2015-06-30T13:10:12Z</time>
      </trkpt>
      <trkpt lat="44.63545" lon="5.80751">
        <ele>1669.3</ele>
        <time>2015-06-30T13:10:17Z</time>
      </trkpt>
      <trkpt lat="44.63545" lon="5.8076">
        <ele>1668.1</ele>
        <time>2015-06-30T13:10:22Z</time>
      </trkpt>
      <trkpt lat="44.63546" lon="5.80767">
        <ele>1666.8</ele>
        <time>2015-06-30T13:10:27Z</time>
      </trkpt>
      <trkpt lat="44.63549" lon="5.80774">
        <ele>1665.7</ele>
        <time>2015-06-30T13:10:32Z</time>
      </trkpt>
      <trkpt lat="44.63551" lon="5.80781">
        <ele>1664.6</ele>
        <time>2015-06-30T13:10:37Z</time>
      </trkpt>
      <trkpt lat="44.63554" lon="5.80787">
        <ele>1663.7</ele>
        <time>2015-06-30T13:10:42Z</time>
      </trkpt>
      <trkpt lat="44.63558" lon="5.80793">
        <ele>1662.7</ele>
        <time>2015-06-30T13:10:47Z</time>
      </trkpt>
      <trkpt lat="44.63561" lon="5.80798">
        <ele>1661.6</ele>
        <time>2015-06-30T13:10:52Z</time>
      </trkpt>
      <trkpt lat="44.63566" lon="5.80802">
        <ele>1660.7</ele>
        <time>2015-06-30T13:10:57Z</time>
      </trkpt>
      <trkpt lat="44.63572" lon="5.808">
        <ele>1658.9</ele>
        <time>2015-06-30T13:11:02Z</time>
      </trkpt>
      <trkpt lat="44.63577" lon="5.80799">
        <ele>1657.1</ele>
        <time>2015-06-30T13:11:07Z</time>
      </trkpt>
      <trkpt lat="44.63582" lon="5.80801">
        <ele>1655.6</ele>
        <time>2015-06-30T13:11:12Z</time>
      </trkpt>
      <trkpt lat="44.63587" lon="5.80805">
        <ele>1655</ele>
        <time>2015-06-30T13:11:17Z</time>
      </trkpt>
      <trkpt lat="44.63588" lon="5.80803">
        <ele>1653.5</ele>
        <time>2015-06-30T13:11:22Z</time>
      </trkpt>
      <trkpt lat="44.63588" lon="5.80803">
        <ele>1653.5</ele>
        <time>2015-06-30T13:11:27Z</time>
      </trkpt>
      <trkpt lat="44.63587" lon="5.80802">
        <ele>1652.8</ele>
        <time>2015-06-30T13:11:32Z</time>
      </trkpt>
      <trkpt lat="44.63587" lon="5.80801">
        <ele>1652.3</ele>
        <time>2015-06-30T13:11:37Z</time>
      </trkpt>
      <trkpt lat="44.63587" lon="5.808">
        <ele>1650.6</ele>
        <time>2015-06-30T13:11:42Z</time>
      </trkpt>
      <trkpt lat="44.63587" lon="5.80799">
        <ele>1648.4</ele>
        <time>2015-06-30T13:11:47Z</time>
      </trkpt>
      <trkpt lat="44.63587" lon="5.80798">
        <ele>1646.6</ele>
        <time>2015-06-30T13:11:52Z</time>
      </trkpt>
      <trkpt lat="44.63588" lon="5.80798">
        <ele>1645.9</ele>
        <time>2015-06-30T13:11:57Z</time>
      </trkpt>
      <trkpt lat="44.63588" lon="5.80798">
        <ele>1646</ele>
        <time>2015-06-30T13:12:02Z</time>
      </trkpt>
      <trkpt lat="44.63588" lon="5.80798">
        <ele>1647.5</ele>
        <time>2015-06-30T13:12:07Z</time>
      </trkpt>
      <trkpt lat="44.63587" lon="5.80797">
        <ele>1645.6</ele>
        <time>2015-06-30T13:12:12Z</time>
      </trkpt>
      <trkpt lat="44.63588" lon="5.80798">
        <ele>1645.9</ele>
        <time>2015-06-30T13:12:17Z</time>
      </trkpt>
      <trkpt lat="44.63588" lon="5.80798">
        <ele>1645.5</ele>
        <time>2015-06-30T13:12:22Z</time>
      </trkpt>
      <trkpt lat="44.63589" lon="5.80799">
        <ele>1645.8</ele>
        <time>2015-06-30T13:12:27Z</time>
      </trkpt>
      <trkpt lat="44.63589" lon="5.80798">
        <ele>1645.5</ele>
        <time>2015-06-30T13:12:32Z</time>
      </trkpt>
      <trkpt lat="44.6359" lon="5.80799">
        <ele>1646.3</ele>
        <time>2015-06-30T13:12:37Z</time>
      </trkpt>
      <trkpt lat="44.63589" lon="5.80799">
        <ele>1645.6</ele>
        <time>2015-06-30T13:12:42Z</time>
      </trkpt>
      <trkpt lat="44.63589" lon="5.80799">
        <ele>1646.1</ele>
        <time>2015-06-30T13:12:47Z</time>
      </trkpt>
      <trkpt lat="44.63589" lon="5.80799">
        <ele>1645.7</ele>
        <time>2015-06-30T13:12:52Z</time>
      </trkpt>
      <trkpt lat="44.63589" lon="5.808">
        <ele>1644.7</ele>
        <time>2015-06-30T13:12:57Z</time>
      </trkpt>
      <trkpt lat="44.63591" lon="5.80804">
        <ele>1645.1</ele>
        <time>2015-06-30T13:13:02Z</time>
      </trkpt>
      <trkpt lat="44.6359" lon="5.8081">
        <ele>1645.8</ele>
        <time>2015-06-30T13:13:07Z</time>
      </trkpt>
      <trkpt lat="44.6359" lon="5.80813">
        <ele>1645.9</ele>
        <time>2015-06-30T13:13:12Z</time>
      </trkpt>
      <trkpt lat="44.6359" lon="5.80812">
        <ele>1646.2</ele>
        <time>2015-06-30T13:13:17Z</time>
      </trkpt>
      <trkpt lat="44.6359" lon="5.80812">
        <ele>1645.8</ele>
        <time>2015-06-30T13:13:22Z</time>
      </trkpt>
      <trkpt lat="44.6359" lon="5.80813">
        <ele>1645.8</ele>
        <time>2015-06-30T13:13:27Z</time>
      </trkpt>
      <trkpt lat="44.63589" lon="5.80813">
        <ele>1646.2</ele>
        <time>2015-06-30T13:13:32Z</time>
      </trkpt>
      <trkpt lat="44.6359" lon="5.80817">
        <ele>1646.2</ele>
        <time>2015-06-30T13:13:37Z</time>
      </trkpt>
      <trkpt lat="44.63588" lon="5.80825">
        <ele>1646.8</ele>
        <time>2015-06-30T13:13:42Z</time>
      </trkpt>
      <trkpt lat="44.63586" lon="5.80832">
        <ele>1647.2</ele>
        <time>2015-06-30T13:13:47Z</time>
      </trkpt>
      <trkpt lat="44.63583" lon="5.80838">
        <ele>1646.7</ele>
        <time>2015-06-30T13:13:52Z</time>
      </trkpt>
      <trkpt lat="44.63582" lon="5.80844">
        <ele>1646</ele>
        <time>2015-06-30T13:13:57Z</time>
      </trkpt>
      <trkpt lat="44.63579" lon="5.8085">
        <ele>1645.3</ele>
        <time>2015-06-30T13:14:02Z</time>
      </trkpt>
      <trkpt lat="44.63577" lon="5.80856">
        <ele>1645</ele>
        <time>2015-06-30T13:14:07Z</time>
      </trkpt>
      <trkpt lat="44.63577" lon="5.80864">
        <ele>1645.7</ele>
        <time>2015-06-30T13:14:12Z</time>
      </trkpt>
      <trkpt lat="44.63575" lon="5.80873">
        <ele>1646.1</ele>
        <time>2015-06-30T13:14:17Z</time>
      </trkpt>
      <trkpt lat="44.63575" lon="5.80881">
        <ele>1645.8</ele>
        <time>2015-06-30T13:14:22Z</time>
      </trkpt>
      <trkpt lat="44.63575" lon="5.80888">
        <ele>1645.6</ele>
        <time>2015-06-30T13:14:27Z</time>
      </trkpt>
      <trkpt lat="44.63575" lon="5.80896">
        <ele>1645</ele>
        <time>2015-06-30T13:14:32Z</time>
      </trkpt>
      <trkpt lat="44.63576" lon="5.80903">
        <ele>1644.3</ele>
        <time>2015-06-30T13:14:37Z</time>
      </trkpt>
      <trkpt lat="44.63577" lon="5.80911">
        <ele>1643.8</ele>
        <time>2015-06-30T13:14:42Z</time>
      </trkpt>
      <trkpt lat="44.63578" lon="5.8092">
        <ele>1643.3</ele>
        <time>2015-06-30T13:14:47Z</time>
      </trkpt>
      <trkpt lat="44.63579" lon="5.80928">
        <ele>1642.3</ele>
        <time>2015-06-30T13:14:52Z</time>
      </trkpt>
      <trkpt lat="44.63579" lon="5.80935">
        <ele>1641.2</ele>
        <time>2015-06-30T13:14:57Z</time>
      </trkpt>
      <trkpt lat="44.63578" lon="5.80942">
        <ele>1640.4</ele>
        <time>2015-06-30T13:15:02Z</time>
      </trkpt>
      <trkpt lat="44.63577" lon="5.80949">
        <ele>1639.2</ele>
        <time>2015-06-30T13:15:07Z</time>
      </trkpt>
      <trkpt lat="44.63577" lon="5.80955">
        <ele>1638.5</ele>
        <time>2015-06-30T13:15:12Z</time>
      </trkpt>
      <trkpt lat="44.63579" lon="5.80962">
        <ele>1637.5</ele>
        <time>2015-06-30T13:15:17Z</time>
      </trkpt>
      <trkpt lat="44.63581" lon="5.80968">
        <ele>1636.2</ele>
        <time>2015-06-30T13:15:22Z</time>
      </trkpt>
      <trkpt lat="44.63584" lon="5.80974">
        <ele>1634.9</ele>
        <time>2015-06-30T13:15:27Z</time>
      </trkpt>
      <trkpt lat="44.63588" lon="5.80978">
        <ele>1633.6</ele>
        <time>2015-06-30T13:15:32Z</time>
      </trkpt>
      <trkpt lat="44.63592" lon="5.80982">
        <ele>1631.8</ele>
        <time>2015-06-30T13:15:37Z</time>
      </trkpt>
      <trkpt lat="44.63596" lon="5.80987">
        <ele>1630.1</ele>
        <time>2015-06-30T13:15:42Z</time>
      </trkpt>
      <trkpt lat="44.63601" lon="5.80993">
        <ele>1628.8</ele>
        <time>2015-06-30T13:15:47Z</time>
      </trkpt>
      <trkpt lat="44.63605" lon="5.80996">
        <ele>1627.6</ele>
        <time>2015-06-30T13:15:52Z</time>
      </trkpt>
      <trkpt lat="44.63607" lon="5.81002">
        <ele>1626.6</ele>
        <time>2015-06-30T13:15:57Z</time>
      </trkpt>
      <trkpt lat="44.63613" lon="5.81007">
        <ele>1625.7</ele>
        <time>2015-06-30T13:16:02Z</time>
      </trkpt>
      <trkpt lat="44.63612" lon="5.81015">
        <ele>1625.4</ele>
        <time>2015-06-30T13:16:07Z</time>
      </trkpt>
      <trkpt lat="44.63611" lon="5.81023">
        <ele>1624.9</ele>
        <time>2015-06-30T13:16:12Z</time>
      </trkpt>
      <trkpt lat="44.63611" lon="5.81029">
        <ele>1624</ele>
        <time>2015-06-30T13:16:17Z</time>
      </trkpt>
      <trkpt lat="44.63614" lon="5.8103">
        <ele>1624</ele>
        <time>2015-06-30T13:16:22Z</time>
      </trkpt>
      <trkpt lat="44.63614" lon="5.8103">
        <ele>1623.8</ele>
        <time>2015-06-30T13:16:27Z</time>
      </trkpt>
      <trkpt lat="44.63614" lon="5.81031">
        <ele>1623.8</ele>
        <time>2015-06-30T13:16:32Z</time>
      </trkpt>
      <trkpt lat="44.63614" lon="5.81029">
        <ele>1622.3</ele>
        <time>2015-06-30T13:16:37Z</time>
      </trkpt>
      <trkpt lat="44.63614" lon="5.81027">
        <ele>1621.5</ele>
        <time>2015-06-30T13:16:42Z</time>
      </trkpt>
      <trkpt lat="44.63614" lon="5.81026">
        <ele>1621.1</ele>
        <time>2015-06-30T13:16:47Z</time>
      </trkpt>
      <trkpt lat="44.63614" lon="5.81026">
        <ele>1621.1</ele>
        <time>2015-06-30T13:16:52Z</time>
      </trkpt>
      <trkpt lat="44.63615" lon="5.81026">
        <ele>1621.2</ele>
        <time>2015-06-30T13:16:57Z</time>
      </trkpt>
      <trkpt lat="44.63615" lon="5.81026">
        <ele>1620.9</ele>
        <time>2015-06-30T13:17:02Z</time>
      </trkpt>
      <trkpt lat="44.63614" lon="5.81027">
        <ele>1622.2</ele>
        <time>2015-06-30T13:17:07Z</time>
      </trkpt>
      <trkpt lat="44.63613" lon="5.81028">
        <ele>1622.2</ele>
        <time>2015-06-30T13:17:12Z</time>
      </trkpt>
      <trkpt lat="44.63614" lon="5.81028">
        <ele>1623.5</ele>
        <time>2015-06-30T13:17:17Z</time>
      </trkpt>
      <trkpt lat="44.63614" lon="5.81028">
        <ele>1622.5</ele>
        <time>2015-06-30T13:17:22Z</time>
      </trkpt>
      <trkpt lat="44.63613" lon="5.81027">
        <ele>1622.5</ele>
        <time>2015-06-30T13:17:27Z</time>
      </trkpt>
      <trkpt lat="44.63613" lon="5.81028">
        <ele>1623.3</ele>
        <time>2015-06-30T13:17:32Z</time>
      </trkpt>
      <trkpt lat="44.63612" lon="5.81027">
        <ele>1621.6</ele>
        <time>2015-06-30T13:17:37Z</time>
      </trkpt>
      <trkpt lat="44.63615" lon="5.81029">
        <ele>1620.7</ele>
        <time>2015-06-30T13:17:42Z</time>
      </trkpt>
      <trkpt lat="44.63614" lon="5.81031">
        <ele>1620.7</ele>
        <time>2015-06-30T13:17:47Z</time>
      </trkpt>
      <trkpt lat="44.63614" lon="5.81029">
        <ele>1619.7</ele>
        <time>2015-06-30T13:17:52Z</time>
      </trkpt>
      <trkpt lat="44.63614" lon="5.81032">
        <ele>1619.7</ele>
        <time>2015-06-30T13:17:57Z</time>
      </trkpt>
      <trkpt lat="44.63613" lon="5.81033">
        <ele>1620.3</ele>
        <time>2015-06-30T13:18:02Z</time>
      </trkpt>
      <trkpt lat="44.63614" lon="5.81034">
        <ele>1620.6</ele>
        <time>2015-06-30T13:18:07Z</time>
      </trkpt>
      <trkpt lat="44.63613" lon="5.81036">
        <ele>1620.4</ele>
        <time>2015-06-30T13:18:12Z</time>
      </trkpt>
      <trkpt lat="44.63613" lon="5.81041">
        <ele>1619.7</ele>
        <time>2015-06-30T13:18:17Z</time>
      </trkpt>
      <trkpt lat="44.63616" lon="5.81048">
        <ele>1619.1</ele>
        <time>2015-06-30T13:18:22Z</time>
      </trkpt>
      <trkpt lat="44.63619" lon="5.81054">
        <ele>1618.5</ele>
        <time>2015-06-30T13:18:27Z</time>
      </trkpt>
      <trkpt lat="44.63624" lon="5.81059">
        <ele>1617.6</ele>
        <time>2015-06-30T13:18:32Z</time>
      </trkpt>
      <trkpt lat="44.63625" lon="5.81066">
        <ele>1617.3</ele>
        <time>2015-06-30T13:18:37Z</time>
      </trkpt>
      <trkpt lat="44.63625" lon="5.81074">
        <ele>1616.8</ele>
        <time>2015-06-30T13:18:42Z</time>
      </trkpt>
      <trkpt lat="44.63624" lon="5.81081">
        <ele>1615.8</ele>
        <time>2015-06-30T13:18:47Z</time>
      </trkpt>
      <trkpt lat="44.63625" lon="5.8109">
        <ele>1615.2</ele>
        <time>2015-06-30T13:18:52Z</time>
      </trkpt>
      <trkpt lat="44.63624" lon="5.81098">
        <ele>1614.1</ele>
        <time>2015-06-30T13:18:57Z</time>
      </trkpt>
      <trkpt lat="44.63623" lon="5.81105">
        <ele>1613</ele>
        <time>2015-06-30T13:19:02Z</time>
      </trkpt>
      <trkpt lat="44.63621" lon="5.81113">
        <ele>1612.1</ele>
        <time>2015-06-30T13:19:07Z</time>
      </trkpt>
      <trkpt lat="44.6362" lon="5.81121">
        <ele>1610.9</ele>
        <time>2015-06-30T13:19:12Z</time>
      </trkpt>
      <trkpt lat="44.63619" lon="5.81129">
        <ele>1609.7</ele>
        <time>2015-06-30T13:19:17Z</time>
      </trkpt>
      <trkpt lat="44.63619" lon="5.81136">
        <ele>1608.2</ele>
        <time>2015-06-30T13:19:22Z</time>
      </trkpt>
      <trkpt lat="44.63619" lon="5.81138">
        <ele>1606.8</ele>
        <time>2015-06-30T13:19:27Z</time>
      </trkpt>
      <trkpt lat="44.63618" lon="5.81138">
        <ele>1605.5</ele>
        <time>2015-06-30T13:19:32Z</time>
      </trkpt>
      <trkpt lat="44.63617" lon="5.81143">
        <ele>1604.1</ele>
        <time>2015-06-30T13:19:37Z</time>
      </trkpt>
      <trkpt lat="44.63615" lon="5.81148">
        <ele>1603.1</ele>
        <time>2015-06-30T13:19:42Z</time>
      </trkpt>
      <trkpt lat="44.63612" lon="5.81153">
        <ele>1602.4</ele>
        <time>2015-06-30T13:19:47Z</time>
      </trkpt>
      <trkpt lat="44.63609" lon="5.81159">
        <ele>1601.5</ele>
        <time>2015-06-30T13:19:52Z</time>
      </trkpt>
      <trkpt lat="44.63606" lon="5.81166">
        <ele>1600.7</ele>
        <time>2015-06-30T13:19:57Z</time>
      </trkpt>
      <trkpt lat="44.63604" lon="5.81173">
        <ele>1599.7</ele>
        <time>2015-06-30T13:20:02Z</time>
      </trkpt>
      <trkpt lat="44.63601" lon="5.81179">
        <ele>1598.5</ele>
        <time>2015-06-30T13:20:07Z</time>
      </trkpt>
      <trkpt lat="44.63599" lon="5.81186">
        <ele>1597.7</ele>
        <time>2015-06-30T13:20:12Z</time>
      </trkpt>
      <trkpt lat="44.63597" lon="5.81192">
        <ele>1596.2</ele>
        <time>2015-06-30T13:20:17Z</time>
      </trkpt>
      <trkpt lat="44.63595" lon="5.81199">
        <ele>1594.9</ele>
        <time>2015-06-30T13:20:22Z</time>
      </trkpt>
      <trkpt lat="44.63592" lon="5.81206">
        <ele>1593.6</ele>
        <time>2015-06-30T13:20:27Z</time>
      </trkpt>
      <trkpt lat="44.6359" lon="5.81213">
        <ele>1592.3</ele>
        <time>2015-06-30T13:20:32Z</time>
      </trkpt>
      <trkpt lat="44.63587" lon="5.8122">
        <ele>1591.1</ele>
        <time>2015-06-30T13:20:37Z</time>
      </trkpt>
      <trkpt lat="44.63584" lon="5.81228">
        <ele>1590.5</ele>
        <time>2015-06-30T13:20:42Z</time>
      </trkpt>
      <trkpt lat="44.63582" lon="5.81236">
        <ele>1589.6</ele>
        <time>2015-06-30T13:20:47Z</time>
      </trkpt>
      <trkpt lat="44.63579" lon="5.81244">
        <ele>1588.6</ele>
        <time>2015-06-30T13:20:52Z</time>
      </trkpt>
      <trkpt lat="44.63578" lon="5.81252">
        <ele>1588.2</ele>
        <time>2015-06-30T13:20:57Z</time>
      </trkpt>
      <trkpt lat="44.63577" lon="5.8126">
        <ele>1587.4</ele>
        <time>2015-06-30T13:21:02Z</time>
      </trkpt>
      <trkpt lat="44.63575" lon="5.81266">
        <ele>1586</ele>
        <time>2015-06-30T13:21:07Z</time>
      </trkpt>
      <trkpt lat="44.63572" lon="5.81273">
        <ele>1585</ele>
        <time>2015-06-30T13:21:12Z</time>
      </trkpt>
      <trkpt lat="44.6357" lon="5.81281">
        <ele>1583.8</ele>
        <time>2015-06-30T13:21:17Z</time>
      </trkpt>
      <trkpt lat="44.6357" lon="5.81288">
        <ele>1582.8</ele>
        <time>2015-06-30T13:21:22Z</time>
      </trkpt>
      <trkpt lat="44.63569" lon="5.81295">
        <ele>1582</ele>
        <time>2015-06-30T13:21:27Z</time>
      </trkpt>
      <trkpt lat="44.63567" lon="5.813">
        <ele>1581.7</ele>
        <time>2015-06-30T13:21:32Z</time>
      </trkpt>
      <trkpt lat="44.63567" lon="5.813">
        <ele>1582.7</ele>
        <time>2015-06-30T13:21:37Z</time>
      </trkpt>
      <trkpt lat="44.63567" lon="5.81301">
        <ele>1584</ele>
        <time>2015-06-30T13:21:42Z</time>
      </trkpt>
      <trkpt lat="44.63565" lon="5.81301">
        <ele>1579</ele>
        <time>2015-06-30T13:21:47Z</time>
      </trkpt>
      <trkpt lat="44.63564" lon="5.81305">
        <ele>1574.6</ele>
        <time>2015-06-30T13:21:52Z</time>
      </trkpt>
      <trkpt lat="44.63564" lon="5.8131">
        <ele>1571.1</ele>
        <time>2015-06-30T13:21:57Z</time>
      </trkpt>
      <trkpt lat="44.63563" lon="5.81315">
        <ele>1568.4</ele>
        <time>2015-06-30T13:22:02Z</time>
      </trkpt>
      <trkpt lat="44.63562" lon="5.81323">
        <ele>1567.4</ele>
        <time>2015-06-30T13:22:07Z</time>
      </trkpt>
      <trkpt lat="44.63562" lon="5.81329">
        <ele>1565.6</ele>
        <time>2015-06-30T13:22:12Z</time>
      </trkpt>
      <trkpt lat="44.6356" lon="5.81335">
        <ele>1564.2</ele>
        <time>2015-06-30T13:22:17Z</time>
      </trkpt>
      <trkpt lat="44.63559" lon="5.81342">
        <ele>1563.5</ele>
        <time>2015-06-30T13:22:22Z</time>
      </trkpt>
      <trkpt lat="44.63558" lon="5.81348">
        <ele>1562.5</ele>
        <time>2015-06-30T13:22:27Z</time>
      </trkpt>
      <trkpt lat="44.63556" lon="5.81355">
        <ele>1562.9</ele>
        <time>2015-06-30T13:22:32Z</time>
      </trkpt>
      <trkpt lat="44.63553" lon="5.81362">
        <ele>1563.1</ele>
        <time>2015-06-30T13:22:37Z</time>
      </trkpt>
      <trkpt lat="44.63551" lon="5.8137">
        <ele>1562.9</ele>
        <time>2015-06-30T13:22:42Z</time>
      </trkpt>
      <trkpt lat="44.63549" lon="5.81378">
        <ele>1562.6</ele>
        <time>2015-06-30T13:22:47Z</time>
      </trkpt>
      <trkpt lat="44.63546" lon="5.81386">
        <ele>1562.2</ele>
        <time>2015-06-30T13:22:52Z</time>
      </trkpt>
      <trkpt lat="44.63544" lon="5.81395">
        <ele>1562</ele>
        <time>2015-06-30T13:22:57Z</time>
      </trkpt>
      <trkpt lat="44.63542" lon="5.81403">
        <ele>1561.9</ele>
        <time>2015-06-30T13:23:02Z</time>
      </trkpt>
      <trkpt lat="44.6354" lon="5.81411">
        <ele>1561.7</ele>
        <time>2015-06-30T13:23:07Z</time>
      </trkpt>
      <trkpt lat="44.63538" lon="5.81421">
        <ele>1561.7</ele>
        <time>2015-06-30T13:23:12Z</time>
      </trkpt>
      <trkpt lat="44.63537" lon="5.81429">
        <ele>1561.3</ele>
        <time>2015-06-30T13:23:17Z</time>
      </trkpt>
      <trkpt lat="44.63537" lon="5.81437">
        <ele>1560.1</ele>
        <time>2015-06-30T13:23:22Z</time>
      </trkpt>
      <trkpt lat="44.63536" lon="5.81445">
        <ele>1559.4</ele>
        <time>2015-06-30T13:23:27Z</time>
      </trkpt>
      <trkpt lat="44.63536" lon="5.81454">
        <ele>1558.4</ele>
        <time>2015-06-30T13:23:32Z</time>
      </trkpt>
      <trkpt lat="44.63536" lon="5.81461">
        <ele>1557.9</ele>
        <time>2015-06-30T13:23:37Z</time>
      </trkpt>
      <trkpt lat="44.63536" lon="5.81469">
        <ele>1557</ele>
        <time>2015-06-30T13:23:42Z</time>
      </trkpt>
      <trkpt lat="44.63538" lon="5.81475">
        <ele>1555.9</ele>
        <time>2015-06-30T13:23:47Z</time>
      </trkpt>
      <trkpt lat="44.6354" lon="5.81481">
        <ele>1555.3</ele>
        <time>2015-06-30T13:23:52Z</time>
      </trkpt>
      <trkpt lat="44.63542" lon="5.81488">
        <ele>1554.5</ele>
        <time>2015-06-30T13:23:57Z</time>
      </trkpt>
      <trkpt lat="44.63545" lon="5.81495">
        <ele>1553.5</ele>
        <time>2015-06-30T13:24:02Z</time>
      </trkpt>
      <trkpt lat="44.63548" lon="5.81503">
        <ele>1552.5</ele>
        <time>2015-06-30T13:24:07Z</time>
      </trkpt>
      <trkpt lat="44.63551" lon="5.8151">
        <ele>1551.6</ele>
        <time>2015-06-30T13:24:12Z</time>
      </trkpt>
      <trkpt lat="44.63553" lon="5.81517">
        <ele>1550.9</ele>
        <time>2015-06-30T13:24:17Z</time>
      </trkpt>
      <trkpt lat="44.63553" lon="5.81525">
        <ele>1550.1</ele>
        <time>2015-06-30T13:24:22Z</time>
      </trkpt>
      <trkpt lat="44.63555" lon="5.81531">
        <ele>1549</ele>
        <time>2015-06-30T13:24:27Z</time>
      </trkpt>
      <trkpt lat="44.63555" lon="5.81538">
        <ele>1547.3</ele>
        <time>2015-06-30T13:24:32Z</time>
      </trkpt>
      <trkpt lat="44.63556" lon="5.81544">
        <ele>1545.2</ele>
        <time>2015-06-30T13:24:37Z</time>
      </trkpt>
      <trkpt lat="44.63556" lon="5.81545">
        <ele>1543.8</ele>
        <time>2015-06-30T13:24:42Z</time>
      </trkpt>
      <trkpt lat="44.63556" lon="5.81544">
        <ele>1543.2</ele>
        <time>2015-06-30T13:24:47Z</time>
      </trkpt>
      <trkpt lat="44.63555" lon="5.81547">
        <ele>1542.4</ele>
        <time>2015-06-30T13:24:52Z</time>
      </trkpt>
      <trkpt lat="44.63555" lon="5.81546">
        <ele>1540.9</ele>
        <time>2015-06-30T13:24:57Z</time>
      </trkpt>
      <trkpt lat="44.63553" lon="5.81544">
        <ele>1535.2</ele>
        <time>2015-06-30T13:25:02Z</time>
      </trkpt>
      <trkpt lat="44.63553" lon="5.81543">
        <ele>1534.9</ele>
        <time>2015-06-30T13:25:07Z</time>
      </trkpt>
      <trkpt lat="44.63552" lon="5.81542">
        <ele>1536.9</ele>
        <time>2015-06-30T13:25:12Z</time>
      </trkpt>
      <trkpt lat="44.63552" lon="5.81543">
        <ele>1538.2</ele>
        <time>2015-06-30T13:25:17Z</time>
      </trkpt>
      <trkpt lat="44.63551" lon="5.81541">
        <ele>1539.3</ele>
        <time>2015-06-30T13:25:22Z</time>
      </trkpt>
      <trkpt lat="44.63552" lon="5.81545">
        <ele>1538.2</ele>
        <time>2015-06-30T13:25:27Z</time>
      </trkpt>
      <trkpt lat="44.63552" lon="5.8155">
        <ele>1537.6</ele>
        <time>2015-06-30T13:25:32Z</time>
      </trkpt>
      <trkpt lat="44.6355" lon="5.81551">
        <ele>1536.6</ele>
        <time>2015-06-30T13:25:37Z</time>
      </trkpt>
      <trkpt lat="44.63548" lon="5.8155">
        <ele>1535.2</ele>
        <time>2015-06-30T13:25:42Z</time>
      </trkpt>
      <trkpt lat="44.63552" lon="5.81552">
        <ele>1537</ele>
        <time>2015-06-30T13:25:47Z</time>
      </trkpt>
      <trkpt lat="44.63555" lon="5.81556">
        <ele>1537</ele>
        <time>2015-06-30T13:25:52Z</time>
      </trkpt>
      <trkpt lat="44.63554" lon="5.8156">
        <ele>1536</ele>
        <time>2015-06-30T13:25:57Z</time>
      </trkpt>
      <trkpt lat="44.63554" lon="5.81564">
        <ele>1536.1</ele>
        <time>2015-06-30T13:26:02Z</time>
      </trkpt>
      <trkpt lat="44.63554" lon="5.81562">
        <ele>1536.6</ele>
        <time>2015-06-30T13:26:07Z</time>
      </trkpt>
      <trkpt lat="44.63553" lon="5.81568">
        <ele>1534.8</ele>
        <time>2015-06-30T13:26:12Z</time>
      </trkpt>
      <trkpt lat="44.63553" lon="5.81573">
        <ele>1533.6</ele>
        <time>2015-06-30T13:26:17Z</time>
      </trkpt>
      <trkpt lat="44.63554" lon="5.81576">
        <ele>1532.4</ele>
        <time>2015-06-30T13:26:22Z</time>
      </trkpt>
      <trkpt lat="44.63551" lon="5.81581">
        <ele>1532</ele>
        <time>2015-06-30T13:26:27Z</time>
      </trkpt>
      <trkpt lat="44.63549" lon="5.81587">
        <ele>1531.3</ele>
        <time>2015-06-30T13:26:32Z</time>
      </trkpt>
      <trkpt lat="44.63547" lon="5.81592">
        <ele>1530.3</ele>
        <time>2015-06-30T13:26:37Z</time>
      </trkpt>
      <trkpt lat="44.63547" lon="5.81592">
        <ele>1527.3</ele>
        <time>2015-06-30T13:26:42Z</time>
      </trkpt>
      <trkpt lat="44.63548" lon="5.81598">
        <ele>1526.1</ele>
        <time>2015-06-30T13:26:47Z</time>
      </trkpt>
      <trkpt lat="44.63548" lon="5.81604">
        <ele>1525.5</ele>
        <time>2015-06-30T13:26:52Z</time>
      </trkpt>
      <trkpt lat="44.63546" lon="5.81609">
        <ele>1525.1</ele>
        <time>2015-06-30T13:26:57Z</time>
      </trkpt>
      <trkpt lat="44.63546" lon="5.81615">
        <ele>1524</ele>
        <time>2015-06-30T13:27:02Z</time>
      </trkpt>
      <trkpt lat="44.63551" lon="5.81615">
        <ele>1522.2</ele>
        <time>2015-06-30T13:27:07Z</time>
      </trkpt>
      <trkpt lat="44.63555" lon="5.81616">
        <ele>1521.2</ele>
        <time>2015-06-30T13:27:12Z</time>
      </trkpt>
      <trkpt lat="44.63559" lon="5.81616">
        <ele>1520.3</ele>
        <time>2015-06-30T13:27:17Z</time>
      </trkpt>
      <trkpt lat="44.63564" lon="5.81615">
        <ele>1519.1</ele>
        <time>2015-06-30T13:27:22Z</time>
      </trkpt>
      <trkpt lat="44.63569" lon="5.81614">
        <ele>1517.9</ele>
        <time>2015-06-30T13:27:27Z</time>
      </trkpt>
      <trkpt lat="44.63574" lon="5.81613">
        <ele>1517.2</ele>
        <time>2015-06-30T13:27:32Z</time>
      </trkpt>
      <trkpt lat="44.63575" lon="5.81613">
        <ele>1517.3</ele>
        <time>2015-06-30T13:27:37Z</time>
      </trkpt>
      <trkpt lat="44.63575" lon="5.81614">
        <ele>1517.2</ele>
        <time>2015-06-30T13:27:42Z</time>
      </trkpt>
      <trkpt lat="44.63575" lon="5.81613">
        <ele>1516.6</ele>
        <time>2015-06-30T13:27:47Z</time>
      </trkpt>
      <trkpt lat="44.63575" lon="5.81612">
        <ele>1516</ele>
        <time>2015-06-30T13:27:52Z</time>
      </trkpt>
      <trkpt lat="44.63574" lon="5.81611">
        <ele>1514.2</ele>
        <time>2015-06-30T13:27:57Z</time>
      </trkpt>
      <trkpt lat="44.63574" lon="5.81611">
        <ele>1512.8</ele>
        <time>2015-06-30T13:28:02Z</time>
      </trkpt>
      <trkpt lat="44.63576" lon="5.81614">
        <ele>1513.1</ele>
        <time>2015-06-30T13:28:07Z</time>
      </trkpt>
      <trkpt lat="44.63578" lon="5.81622">
        <ele>1513.6</ele>
        <time>2015-06-30T13:28:12Z</time>
      </trkpt>
      <trkpt lat="44.63578" lon="5.81629">
        <ele>1514.2</ele>
        <time>2015-06-30T13:28:17Z</time>
      </trkpt>
      <trkpt lat="44.6358" lon="5.81637">
        <ele>1514.5</ele>
        <time>2015-06-30T13:28:22Z</time>
      </trkpt>
      <trkpt lat="44.63579" lon="5.81644">
        <ele>1513.8</ele>
        <time>2015-06-30T13:28:27Z</time>
      </trkpt>
      <trkpt lat="44.6358" lon="5.81652">
        <ele>1513.3</ele>
        <time>2015-06-30T13:28:32Z</time>
      </trkpt>
      <trkpt lat="44.63578" lon="5.81654">
        <ele>1512.9</ele>
        <time>2015-06-30T13:28:37Z</time>
      </trkpt>
      <trkpt lat="44.63579" lon="5.81657">
        <ele>1512.9</ele>
        <time>2015-06-30T13:28:42Z</time>
      </trkpt>
      <trkpt lat="44.6358" lon="5.81664">
        <ele>1512.7</ele>
        <time>2015-06-30T13:28:47Z</time>
      </trkpt>
      <trkpt lat="44.63582" lon="5.81667">
        <ele>1512.2</ele>
        <time>2015-06-30T13:28:52Z</time>
      </trkpt>
      <trkpt lat="44.63582" lon="5.81666">
        <ele>1511.3</ele>
        <time>2015-06-30T13:28:57Z</time>
      </trkpt>
      <trkpt lat="44.63582" lon="5.81666">
        <ele>1510.9</ele>
        <time>2015-06-30T13:29:02Z</time>
      </trkpt>
      <trkpt lat="44.63581" lon="5.81666">
        <ele>1511.6</ele>
        <time>2015-06-30T13:29:07Z</time>
      </trkpt>
      <trkpt lat="44.63582" lon="5.81666">
        <ele>1512.6</ele>
        <time>2015-06-30T13:29:12Z</time>
      </trkpt>
      <trkpt lat="44.63582" lon="5.8167">
        <ele>1514.1</ele>
        <time>2015-06-30T13:29:17Z</time>
      </trkpt>
      <trkpt lat="44.63585" lon="5.81675">
        <ele>1514.9</ele>
        <time>2015-06-30T13:29:22Z</time>
      </trkpt>
      <trkpt lat="44.63588" lon="5.81681">
        <ele>1514.9</ele>
        <time>2015-06-30T13:29:27Z</time>
      </trkpt>
      <trkpt lat="44.63592" lon="5.81687">
        <ele>1515.1</ele>
        <time>2015-06-30T13:29:32Z</time>
      </trkpt>
      <trkpt lat="44.63596" lon="5.81693">
        <ele>1515.1</ele>
        <time>2015-06-30T13:29:37Z</time>
      </trkpt>
      <trkpt lat="44.636" lon="5.817">
        <ele>1515</ele>
        <time>2015-06-30T13:29:42Z</time>
      </trkpt>
      <trkpt lat="44.63603" lon="5.81706">
        <ele>1514.6</ele>
        <time>2015-06-30T13:29:47Z</time>
      </trkpt>
      <trkpt lat="44.63605" lon="5.81712">
        <ele>1514</ele>
        <time>2015-06-30T13:29:52Z</time>
      </trkpt>
      <trkpt lat="44.63607" lon="5.81721">
        <ele>1513.8</ele>
        <time>2015-06-30T13:29:57Z</time>
      </trkpt>
      <trkpt lat="44.6361" lon="5.81728">
        <ele>1513.6</ele>
        <time>2015-06-30T13:30:02Z</time>
      </trkpt>
      <trkpt lat="44.63614" lon="5.81735">
        <ele>1513.1</ele>
        <time>2015-06-30T13:30:07Z</time>
      </trkpt>
      <trkpt lat="44.63615" lon="5.81739">
        <ele>1513</ele>
        <time>2015-06-30T13:30:12Z</time>
      </trkpt>
      <trkpt lat="44.63616" lon="5.81742">
        <ele>1511.5</ele>
        <time>2015-06-30T13:30:17Z</time>
      </trkpt>
      <trkpt lat="44.63617" lon="5.8175">
        <ele>1509.6</ele>
        <time>2015-06-30T13:30:22Z</time>
      </trkpt>
      <trkpt lat="44.6362" lon="5.81757">
        <ele>1508.3</ele>
        <time>2015-06-30T13:30:27Z</time>
      </trkpt>
      <trkpt lat="44.63623" lon="5.81764">
        <ele>1507.2</ele>
        <time>2015-06-30T13:30:32Z</time>
      </trkpt>
      <trkpt lat="44.63625" lon="5.81772">
        <ele>1506.5</ele>
        <time>2015-06-30T13:30:37Z</time>
      </trkpt>
      <trkpt lat="44.63627" lon="5.8178">
        <ele>1505.7</ele>
        <time>2015-06-30T13:30:42Z</time>
      </trkpt>
      <trkpt lat="44.63628" lon="5.81788">
        <ele>1505</ele>
        <time>2015-06-30T13:30:47Z</time>
      </trkpt>
      <trkpt lat="44.6363" lon="5.81795">
        <ele>1504.4</ele>
        <time>2015-06-30T13:30:52Z</time>
      </trkpt>
      <trkpt lat="44.63632" lon="5.81804">
        <ele>1504.2</ele>
        <time>2015-06-30T13:30:57Z</time>
      </trkpt>
      <trkpt lat="44.63634" lon="5.81811">
        <ele>1504</ele>
        <time>2015-06-30T13:31:02Z</time>
      </trkpt>
      <trkpt lat="44.63637" lon="5.81819">
        <ele>1503.5</ele>
        <time>2015-06-30T13:31:07Z</time>
      </trkpt>
      <trkpt lat="44.6364" lon="5.81826">
        <ele>1503.3</ele>
        <time>2015-06-30T13:31:12Z</time>
      </trkpt>
      <trkpt lat="44.63644" lon="5.81832">
        <ele>1503.2</ele>
        <time>2015-06-30T13:31:17Z</time>
      </trkpt>
      <trkpt lat="44.63649" lon="5.81838">
        <ele>1503.5</ele>
        <time>2015-06-30T13:31:22Z</time>
      </trkpt>
      <trkpt lat="44.63653" lon="5.81842">
        <ele>1503.3</ele>
        <time>2015-06-30T13:31:27Z</time>
      </trkpt>
      <trkpt lat="44.63657" lon="5.8185">
        <ele>1503.6</ele>
        <time>2015-06-30T13:31:32Z</time>
      </trkpt>
      <trkpt lat="44.6366" lon="5.81857">
        <ele>1503.6</ele>
        <time>2015-06-30T13:31:37Z</time>
      </trkpt>
      <trkpt lat="44.63663" lon="5.81865">
        <ele>1503.6</ele>
        <time>2015-06-30T13:31:42Z</time>
      </trkpt>
      <trkpt lat="44.63664" lon="5.81875">
        <ele>1503.6</ele>
        <time>2015-06-30T13:31:47Z</time>
      </trkpt>
      <trkpt lat="44.63665" lon="5.81883">
        <ele>1503</ele>
        <time>2015-06-30T13:31:52Z</time>
      </trkpt>
      <trkpt lat="44.63664" lon="5.81889">
        <ele>1502.4</ele>
        <time>2015-06-30T13:31:57Z</time>
      </trkpt>
      <trkpt lat="44.63663" lon="5.81897">
        <ele>1502.5</ele>
        <time>2015-06-30T13:32:02Z</time>
      </trkpt>
      <trkpt lat="44.63663" lon="5.81905">
        <ele>1502.4</ele>
        <time>2015-06-30T13:32:07Z</time>
      </trkpt>
      <trkpt lat="44.63666" lon="5.81911">
        <ele>1502.8</ele>
        <time>2015-06-30T13:32:12Z</time>
      </trkpt>
      <trkpt lat="44.63669" lon="5.81918">
        <ele>1503</ele>
        <time>2015-06-30T13:32:17Z</time>
      </trkpt>
      <trkpt lat="44.63673" lon="5.81923">
        <ele>1503.7</ele>
        <time>2015-06-30T13:32:22Z</time>
      </trkpt>
      <trkpt lat="44.63677" lon="5.81926">
        <ele>1503.2</ele>
        <time>2015-06-30T13:32:27Z</time>
      </trkpt>
      <trkpt lat="44.63679" lon="5.81932">
        <ele>1502.9</ele>
        <time>2015-06-30T13:32:32Z</time>
      </trkpt>
      <trkpt lat="44.6368" lon="5.81937">
        <ele>1502</ele>
        <time>2015-06-30T13:32:37Z</time>
      </trkpt>
      <trkpt lat="44.6368" lon="5.81936">
        <ele>1499.9</ele>
        <time>2015-06-30T13:32:42Z</time>
      </trkpt>
      <trkpt lat="44.63679" lon="5.81935">
        <ele>1497.2</ele>
        <time>2015-06-30T13:32:47Z</time>
      </trkpt>
      <trkpt lat="44.63679" lon="5.81935">
        <ele>1496.9</ele>
        <time>2015-06-30T13:32:52Z</time>
      </trkpt>
      <trkpt lat="44.63679" lon="5.81937">
        <ele>1496.2</ele>
        <time>2015-06-30T13:32:57Z</time>
      </trkpt>
      <trkpt lat="44.63683" lon="5.81942">
        <ele>1496</ele>
        <time>2015-06-30T13:33:02Z</time>
      </trkpt>
      <trkpt lat="44.63681" lon="5.81948">
        <ele>1495.7</ele>
        <time>2015-06-30T13:33:07Z</time>
      </trkpt>
      <trkpt lat="44.63679" lon="5.81956">
        <ele>1495.6</ele>
        <time>2015-06-30T13:33:12Z</time>
      </trkpt>
      <trkpt lat="44.63679" lon="5.81964">
        <ele>1496</ele>
        <time>2015-06-30T13:33:17Z</time>
      </trkpt>
      <trkpt lat="44.6368" lon="5.81972">
        <ele>1496.7</ele>
        <time>2015-06-30T13:33:22Z</time>
      </trkpt>
      <trkpt lat="44.63681" lon="5.8198">
        <ele>1497.7</ele>
        <time>2015-06-30T13:33:27Z</time>
      </trkpt>
      <trkpt lat="44.63681" lon="5.81987">
        <ele>1496.5</ele>
        <time>2015-06-30T13:33:32Z</time>
      </trkpt>
      <trkpt lat="44.63681" lon="5.81995">
        <ele>1496.3</ele>
        <time>2015-06-30T13:33:37Z</time>
      </trkpt>
      <trkpt lat="44.63683" lon="5.82002">
        <ele>1496</ele>
        <time>2015-06-30T13:33:42Z</time>
      </trkpt>
      <trkpt lat="44.63685" lon="5.8201">
        <ele>1496</ele>
        <time>2015-06-30T13:33:47Z</time>
      </trkpt>
      <trkpt lat="44.63685" lon="5.82019">
        <ele>1496</ele>
        <time>2015-06-30T13:33:52Z</time>
      </trkpt>
      <trkpt lat="44.63686" lon="5.82026">
        <ele>1496</ele>
        <time>2015-06-30T13:33:57Z</time>
      </trkpt>
      <trkpt lat="44.63685" lon="5.82036">
        <ele>1496.4</ele>
        <time>2015-06-30T13:34:02Z</time>
      </trkpt>
      <trkpt lat="44.63683" lon="5.82045">
        <ele>1496.8</ele>
        <time>2015-06-30T13:34:07Z</time>
      </trkpt>
      <trkpt lat="44.63682" lon="5.82053">
        <ele>1497.2</ele>
        <time>2015-06-30T13:34:12Z</time>
      </trkpt>
      <trkpt lat="44.63682" lon="5.82061">
        <ele>1497.5</ele>
        <time>2015-06-30T13:34:17Z</time>
      </trkpt>
      <trkpt lat="44.63681" lon="5.82068">
        <ele>1497</ele>
        <time>2015-06-30T13:34:22Z</time>
      </trkpt>
      <trkpt lat="44.63681" lon="5.82076">
        <ele>1496.7</ele>
        <time>2015-06-30T13:34:27Z</time>
      </trkpt>
      <trkpt lat="44.63682" lon="5.82084">
        <ele>1496.7</ele>
        <time>2015-06-30T13:34:32Z</time>
      </trkpt>
      <trkpt lat="44.63683" lon="5.82092">
        <ele>1496.6</ele>
        <time>2015-06-30T13:34:37Z</time>
      </trkpt>
      <trkpt lat="44.63683" lon="5.82099">
        <ele>1496.2</ele>
        <time>2015-06-30T13:34:42Z</time>
      </trkpt>
      <trkpt lat="44.63685" lon="5.82106">
        <ele>1495.8</ele>
        <time>2015-06-30T13:34:47Z</time>
      </trkpt>
      <trkpt lat="44.63686" lon="5.82114">
        <ele>1495.1</ele>
        <time>2015-06-30T13:34:52Z</time>
      </trkpt>
      <trkpt lat="44.63688" lon="5.8212">
        <ele>1494.7</ele>
        <time>2015-06-30T13:34:57Z</time>
      </trkpt>
      <trkpt lat="44.6369" lon="5.82127">
        <ele>1494.4</ele>
        <time>2015-06-30T13:35:02Z</time>
      </trkpt>
      <trkpt lat="44.63693" lon="5.82134">
        <ele>1494.3</ele>
        <time>2015-06-30T13:35:07Z</time>
      </trkpt>
      <trkpt lat="44.63695" lon="5.82141">
        <ele>1494.1</ele>
        <time>2015-06-30T13:35:12Z</time>
      </trkpt>
      <trkpt lat="44.63696" lon="5.82149">
        <ele>1493.9</ele>
        <time>2015-06-30T13:35:17Z</time>
      </trkpt>
      <trkpt lat="44.63697" lon="5.82156">
        <ele>1493.6</ele>
        <time>2015-06-30T13:35:22Z</time>
      </trkpt>
      <trkpt lat="44.63698" lon="5.82163">
        <ele>1493.1</ele>
        <time>2015-06-30T13:35:27Z</time>
      </trkpt>
      <trkpt lat="44.63699" lon="5.8217">
        <ele>1492.7</ele>
        <time>2015-06-30T13:35:32Z</time>
      </trkpt>
      <trkpt lat="44.637" lon="5.82177">
        <ele>1492.2</ele>
        <time>2015-06-30T13:35:37Z</time>
      </trkpt>
      <trkpt lat="44.637" lon="5.82183">
        <ele>1491.6</ele>
        <time>2015-06-30T13:35:42Z</time>
      </trkpt>
      <trkpt lat="44.637" lon="5.82191">
        <ele>1491.2</ele>
        <time>2015-06-30T13:35:47Z</time>
      </trkpt>
      <trkpt lat="44.63702" lon="5.82199">
        <ele>1490.8</ele>
        <time>2015-06-30T13:35:52Z</time>
      </trkpt>
      <trkpt lat="44.63704" lon="5.82206">
        <ele>1490</ele>
        <time>2015-06-30T13:35:57Z</time>
      </trkpt>
      <trkpt lat="44.63703" lon="5.82213">
        <ele>1489.3</ele>
        <time>2015-06-30T13:36:02Z</time>
      </trkpt>
      <trkpt lat="44.63702" lon="5.82221">
        <ele>1488.7</ele>
        <time>2015-06-30T13:36:07Z</time>
      </trkpt>
      <trkpt lat="44.63702" lon="5.82229">
        <ele>1488.1</ele>
        <time>2015-06-30T13:36:12Z</time>
      </trkpt>
      <trkpt lat="44.63701" lon="5.82236">
        <ele>1487.3</ele>
        <time>2015-06-30T13:36:17Z</time>
      </trkpt>
      <trkpt lat="44.63699" lon="5.82244">
        <ele>1486.6</ele>
        <time>2015-06-30T13:36:22Z</time>
      </trkpt>
      <trkpt lat="44.63698" lon="5.82252">
        <ele>1486.1</ele>
        <time>2015-06-30T13:36:27Z</time>
      </trkpt>
      <trkpt lat="44.63697" lon="5.82259">
        <ele>1485.5</ele>
        <time>2015-06-30T13:36:32Z</time>
      </trkpt>
      <trkpt lat="44.63697" lon="5.82266">
        <ele>1484.7</ele>
        <time>2015-06-30T13:36:37Z</time>
      </trkpt>
      <trkpt lat="44.63698" lon="5.82274">
        <ele>1484.1</ele>
        <time>2015-06-30T13:36:42Z</time>
      </trkpt>
      <trkpt lat="44.63698" lon="5.82283">
        <ele>1483.6</ele>
        <time>2015-06-30T13:36:47Z</time>
      </trkpt>
      <trkpt lat="44.63699" lon="5.82291">
        <ele>1483</ele>
        <time>2015-06-30T13:36:52Z</time>
      </trkpt>
      <trkpt lat="44.63699" lon="5.823">
        <ele>1482.5</ele>
        <time>2015-06-30T13:36:57Z</time>
      </trkpt>
      <trkpt lat="44.63699" lon="5.82308">
        <ele>1482.2</ele>
        <time>2015-06-30T13:37:02Z</time>
      </trkpt>
      <trkpt lat="44.63698" lon="5.82317">
        <ele>1482</ele>
        <time>2015-06-30T13:37:07Z</time>
      </trkpt>
      <trkpt lat="44.63698" lon="5.82325">
        <ele>1481.9</ele>
        <time>2015-06-30T13:37:12Z</time>
      </trkpt>
      <trkpt lat="44.63698" lon="5.82333">
        <ele>1482.1</ele>
        <time>2015-06-30T13:37:17Z</time>
      </trkpt>
      <trkpt lat="44.63698" lon="5.82341">
        <ele>1482.3</ele>
        <time>2015-06-30T13:37:22Z</time>
      </trkpt>
      <trkpt lat="44.63698" lon="5.82348">
        <ele>1482.3</ele>
        <time>2015-06-30T13:37:27Z</time>
      </trkpt>
      <trkpt lat="44.63698" lon="5.82356">
        <ele>1482.2</ele>
        <time>2015-06-30T13:37:32Z</time>
      </trkpt>
      <trkpt lat="44.63698" lon="5.82364">
        <ele>1482.2</ele>
        <time>2015-06-30T13:37:37Z</time>
      </trkpt>
      <trkpt lat="44.63698" lon="5.82372">
        <ele>1482</ele>
        <time>2015-06-30T13:37:42Z</time>
      </trkpt>
      <trkpt lat="44.63698" lon="5.8238">
        <ele>1481.8</ele>
        <time>2015-06-30T13:37:47Z</time>
      </trkpt>
      <trkpt lat="44.63699" lon="5.82388">
        <ele>1481.5</ele>
        <time>2015-06-30T13:37:52Z</time>
      </trkpt>
      <trkpt lat="44.63699" lon="5.82396">
        <ele>1480.6</ele>
        <time>2015-06-30T13:37:57Z</time>
      </trkpt>
      <trkpt lat="44.63698" lon="5.82404">
        <ele>1479.8</ele>
        <time>2015-06-30T13:38:02Z</time>
      </trkpt>
      <trkpt lat="44.63698" lon="5.82412">
        <ele>1479.3</ele>
        <time>2015-06-30T13:38:07Z</time>
      </trkpt>
      <trkpt lat="44.63697" lon="5.82421">
        <ele>1478.9</ele>
        <time>2015-06-30T13:38:12Z</time>
      </trkpt>
      <trkpt lat="44.63695" lon="5.8243">
        <ele>1478.8</ele>
        <time>2015-06-30T13:38:17Z</time>
      </trkpt>
      <trkpt lat="44.63695" lon="5.82439">
        <ele>1479</ele>
        <time>2015-06-30T13:38:22Z</time>
      </trkpt>
      <trkpt lat="44.63693" lon="5.82447">
        <ele>1479.1</ele>
        <time>2015-06-30T13:38:27Z</time>
      </trkpt>
      <trkpt lat="44.63692" lon="5.82454">
        <ele>1479</ele>
        <time>2015-06-30T13:38:32Z</time>
      </trkpt>
      <trkpt lat="44.63692" lon="5.82453">
        <ele>1477.5</ele>
        <time>2015-06-30T13:38:37Z</time>
      </trkpt>
      <trkpt lat="44.63692" lon="5.82453">
        <ele>1476.5</ele>
        <time>2015-06-30T13:38:42Z</time>
      </trkpt>
      <trkpt lat="44.63692" lon="5.82453">
        <ele>1476.9</ele>
        <time>2015-06-30T13:38:47Z</time>
      </trkpt>
      <trkpt lat="44.63692" lon="5.82458">
        <ele>1476.6</ele>
        <time>2015-06-30T13:38:52Z</time>
      </trkpt>
      <trkpt lat="44.63692" lon="5.82461">
        <ele>1477.1</ele>
        <time>2015-06-30T13:38:57Z</time>
      </trkpt>
      <trkpt lat="44.63691" lon="5.82461">
        <ele>1477.4</ele>
        <time>2015-06-30T13:39:02Z</time>
      </trkpt>
      <trkpt lat="44.63691" lon="5.82458">
        <ele>1475.6</ele>
        <time>2015-06-30T13:39:07Z</time>
      </trkpt>
      <trkpt lat="44.63691" lon="5.82457">
        <ele>1475.2</ele>
        <time>2015-06-30T13:39:12Z</time>
      </trkpt>
      <trkpt lat="44.63693" lon="5.82465">
        <ele>1477.5</ele>
        <time>2015-06-30T13:39:17Z</time>
      </trkpt>
      <trkpt lat="44.63694" lon="5.82472">
        <ele>1477.7</ele>
        <time>2015-06-30T13:39:22Z</time>
      </trkpt>
      <trkpt lat="44.63695" lon="5.82479">
        <ele>1477.3</ele>
        <time>2015-06-30T13:39:27Z</time>
      </trkpt>
      <trkpt lat="44.63694" lon="5.82487">
        <ele>1476.6</ele>
        <time>2015-06-30T13:39:32Z</time>
      </trkpt>
      <trkpt lat="44.63693" lon="5.82495">
        <ele>1476.1</ele>
        <time>2015-06-30T13:39:37Z</time>
      </trkpt>
      <trkpt lat="44.6369" lon="5.82502">
        <ele>1475.4</ele>
        <time>2015-06-30T13:39:42Z</time>
      </trkpt>
      <trkpt lat="44.63687" lon="5.82509">
        <ele>1474.7</ele>
        <time>2015-06-30T13:39:47Z</time>
      </trkpt>
      <trkpt lat="44.63686" lon="5.82514">
        <ele>1474</ele>
        <time>2015-06-30T13:39:52Z</time>
      </trkpt>
      <trkpt lat="44.63683" lon="5.82522">
        <ele>1473.4</ele>
        <time>2015-06-30T13:39:57Z</time>
      </trkpt>
      <trkpt lat="44.6368" lon="5.8253">
        <ele>1472.6</ele>
        <time>2015-06-30T13:40:02Z</time>
      </trkpt>
      <trkpt lat="44.63678" lon="5.82538">
        <ele>1471.6</ele>
        <time>2015-06-30T13:40:07Z</time>
      </trkpt>
      <trkpt lat="44.63675" lon="5.82545">
        <ele>1470.6</ele>
        <time>2015-06-30T13:40:12Z</time>
      </trkpt>
      <trkpt lat="44.63673" lon="5.82552">
        <ele>1469.7</ele>
        <time>2015-06-30T13:40:17Z</time>
      </trkpt>
      <trkpt lat="44.6367" lon="5.82558">
        <ele>1468.7</ele>
        <time>2015-06-30T13:40:22Z</time>
      </trkpt>
      <trkpt lat="44.63668" lon="5.82565">
        <ele>1467.7</ele>
        <time>2015-06-30T13:40:27Z</time>
      </trkpt>
      <trkpt lat="44.63665" lon="5.82571">
        <ele>1466.7</ele>
        <time>2015-06-30T13:40:32Z</time>
      </trkpt>
      <trkpt lat="44.63664" lon="5.82576">
        <ele>1465.7</ele>
        <time>2015-06-30T13:40:37Z</time>
      </trkpt>
      <trkpt lat="44.63663" lon="5.82583">
        <ele>1464.9</ele>
        <time>2015-06-30T13:40:42Z</time>
      </trkpt>
      <trkpt lat="44.6366" lon="5.8259">
        <ele>1463.9</ele>
        <time>2015-06-30T13:40:47Z</time>
      </trkpt>
      <trkpt lat="44.63659" lon="5.82597">
        <ele>1463.1</ele>
        <time>2015-06-30T13:40:52Z</time>
      </trkpt>
      <trkpt lat="44.63656" lon="5.82603">
        <ele>1462.6</ele>
        <time>2015-06-30T13:40:57Z</time>
      </trkpt>
      <trkpt lat="44.63653" lon="5.82607">
        <ele>1461.3</ele>
        <time>2015-06-30T13:41:02Z</time>
      </trkpt>
      <trkpt lat="44.63652" lon="5.82614">
        <ele>1460.1</ele>
        <time>2015-06-30T13:41:07Z</time>
      </trkpt>
      <trkpt lat="44.6365" lon="5.82619">
        <ele>1458.4</ele>
        <time>2015-06-30T13:41:12Z</time>
      </trkpt>
      <trkpt lat="44.63647" lon="5.82624">
        <ele>1457</ele>
        <time>2015-06-30T13:41:17Z</time>
      </trkpt>
      <trkpt lat="44.63646" lon="5.82629">
        <ele>1455.8</ele>
        <time>2015-06-30T13:41:22Z</time>
      </trkpt>
      <trkpt lat="44.63644" lon="5.82634">
        <ele>1454.3</ele>
        <time>2015-06-30T13:41:27Z</time>
      </trkpt>
      <trkpt lat="44.63642" lon="5.82638">
        <ele>1453.3</ele>
        <time>2015-06-30T13:41:32Z</time>
      </trkpt>
      <trkpt lat="44.6364" lon="5.82644">
        <ele>1452.4</ele>
        <time>2015-06-30T13:41:37Z</time>
      </trkpt>
      <trkpt lat="44.63639" lon="5.8265">
        <ele>1451.7</ele>
        <time>2015-06-30T13:41:42Z</time>
      </trkpt>
      <trkpt lat="44.63637" lon="5.82655">
        <ele>1450.7</ele>
        <time>2015-06-30T13:41:47Z</time>
      </trkpt>
      <trkpt lat="44.63636" lon="5.82661">
        <ele>1449.5</ele>
        <time>2015-06-30T13:41:52Z</time>
      </trkpt>
      <trkpt lat="44.63636" lon="5.82666">
        <ele>1448.4</ele>
        <time>2015-06-30T13:41:57Z</time>
      </trkpt>
      <trkpt lat="44.63633" lon="5.82669">
        <ele>1447.5</ele>
        <time>2015-06-30T13:42:02Z</time>
      </trkpt>
      <trkpt lat="44.6363" lon="5.82668">
        <ele>1445.6</ele>
        <time>2015-06-30T13:42:07Z</time>
      </trkpt>
      <trkpt lat="44.63628" lon="5.82666">
        <ele>1443.6</ele>
        <time>2015-06-30T13:42:12Z</time>
      </trkpt>
      <trkpt lat="44.63628" lon="5.82667">
        <ele>1444.6</ele>
        <time>2015-06-30T13:42:17Z</time>
      </trkpt>
      <trkpt lat="44.63627" lon="5.82666">
        <ele>1444.1</ele>
        <time>2015-06-30T13:42:22Z</time>
      </trkpt>
      <trkpt lat="44.63625" lon="5.82666">
        <ele>1443.5</ele>
        <time>2015-06-30T13:42:27Z</time>
      </trkpt>
      <trkpt lat="44.63621" lon="5.82667">
        <ele>1443.3</ele>
        <time>2015-06-30T13:42:32Z</time>
      </trkpt>
      <trkpt lat="44.63617" lon="5.8267">
        <ele>1442.5</ele>
        <time>2015-06-30T13:42:37Z</time>
      </trkpt>
      <trkpt lat="44.63614" lon="5.82674">
        <ele>1441.8</ele>
        <time>2015-06-30T13:42:42Z</time>
      </trkpt>
      <trkpt lat="44.63611" lon="5.82672">
        <ele>1436.3</ele>
        <time>2015-06-30T13:42:47Z</time>
      </trkpt>
      <trkpt lat="44.63609" lon="5.82671">
        <ele>1434.4</ele>
        <time>2015-06-30T13:42:52Z</time>
      </trkpt>
      <trkpt lat="44.6361" lon="5.8267">
        <ele>1434.8</ele>
        <time>2015-06-30T13:42:57Z</time>
      </trkpt>
      <trkpt lat="44.63612" lon="5.8267">
        <ele>1435.2</ele>
        <time>2015-06-30T13:43:02Z</time>
      </trkpt>
      <trkpt lat="44.63613" lon="5.8267">
        <ele>1435.4</ele>
        <time>2015-06-30T13:43:07Z</time>
      </trkpt>
      <trkpt lat="44.63609" lon="5.82673">
        <ele>1435.3</ele>
        <time>2015-06-30T13:43:12Z</time>
      </trkpt>
      <trkpt lat="44.63606" lon="5.82677">
        <ele>1433.6</ele>
        <time>2015-06-30T13:43:17Z</time>
      </trkpt>
      <trkpt lat="44.63603" lon="5.8268">
        <ele>1431.4</ele>
        <time>2015-06-30T13:43:22Z</time>
      </trkpt>
      <trkpt lat="44.63602" lon="5.82687">
        <ele>1430.1</ele>
        <time>2015-06-30T13:43:27Z</time>
      </trkpt>
      <trkpt lat="44.63601" lon="5.82693">
        <ele>1429.4</ele>
        <time>2015-06-30T13:43:32Z</time>
      </trkpt>
      <trkpt lat="44.63601" lon="5.827">
        <ele>1429</ele>
        <time>2015-06-30T13:43:37Z</time>
      </trkpt>
      <trkpt lat="44.63603" lon="5.82709">
        <ele>1430.6</ele>
        <time>2015-06-30T13:43:42Z</time>
      </trkpt>
      <trkpt lat="44.63604" lon="5.82717">
        <ele>1431</ele>
        <time>2015-06-30T13:43:47Z</time>
      </trkpt>
      <trkpt lat="44.63606" lon="5.82728">
        <ele>1433.2</ele>
        <time>2015-06-30T13:43:52Z</time>
      </trkpt>
      <trkpt lat="44.63608" lon="5.82736">
        <ele>1432.9</ele>
        <time>2015-06-30T13:43:57Z</time>
      </trkpt>
      <trkpt lat="44.63611" lon="5.82742">
        <ele>1433.2</ele>
        <time>2015-06-30T13:44:02Z</time>
      </trkpt>
      <trkpt lat="44.63612" lon="5.8275">
        <ele>1433</ele>
        <time>2015-06-30T13:44:07Z</time>
      </trkpt>
      <trkpt lat="44.63615" lon="5.82756">
        <ele>1432.7</ele>
        <time>2015-06-30T13:44:12Z</time>
      </trkpt>
      <trkpt lat="44.63618" lon="5.82763">
        <ele>1432.6</ele>
        <time>2015-06-30T13:44:17Z</time>
      </trkpt>
      <trkpt lat="44.63623" lon="5.82765">
        <ele>1431.7</ele>
        <time>2015-06-30T13:44:22Z</time>
      </trkpt>
      <trkpt lat="44.63628" lon="5.82767">
        <ele>1431.3</ele>
        <time>2015-06-30T13:44:27Z</time>
      </trkpt>
      <trkpt lat="44.63633" lon="5.82767">
        <ele>1431.4</ele>
        <time>2015-06-30T13:44:32Z</time>
      </trkpt>
      <trkpt lat="44.63638" lon="5.82764">
        <ele>1431.8</ele>
        <time>2015-06-30T13:44:37Z</time>
      </trkpt>
      <trkpt lat="44.6364" lon="5.8276">
        <ele>1431.6</ele>
        <time>2015-06-30T13:44:42Z</time>
      </trkpt>
      <trkpt lat="44.63642" lon="5.8276">
        <ele>1432</ele>
        <time>2015-06-30T13:44:47Z</time>
      </trkpt>
      <trkpt lat="44.63643" lon="5.82761">
        <ele>1431.4</ele>
        <time>2015-06-30T13:44:52Z</time>
      </trkpt>
      <trkpt lat="44.63643" lon="5.82761">
        <ele>1430.4</ele>
        <time>2015-06-30T13:44:57Z</time>
      </trkpt>
      <trkpt lat="44.63643" lon="5.82761">
        <ele>1430.1</ele>
        <time>2015-06-30T13:45:02Z</time>
      </trkpt>
      <trkpt lat="44.63641" lon="5.82761">
        <ele>1431.5</ele>
        <time>2015-06-30T13:45:07Z</time>
      </trkpt>
      <trkpt lat="44.6364" lon="5.8276">
        <ele>1430.7</ele>
        <time>2015-06-30T13:45:12Z</time>
      </trkpt>
      <trkpt lat="44.6364" lon="5.82762">
        <ele>1432.5</ele>
        <time>2015-06-30T13:45:17Z</time>
      </trkpt>
      <trkpt lat="44.6364" lon="5.82762">
        <ele>1433.9</ele>
        <time>2015-06-30T13:45:22Z</time>
      </trkpt>
      <trkpt lat="44.6364" lon="5.82762">
        <ele>1434.3</ele>
        <time>2015-06-30T13:45:27Z</time>
      </trkpt>
      <trkpt lat="44.63641" lon="5.82763">
        <ele>1436.1</ele>
        <time>2015-06-30T13:45:32Z</time>
      </trkpt>
      <trkpt lat="44.63641" lon="5.82764">
        <ele>1437.4</ele>
        <time>2015-06-30T13:45:37Z</time>
      </trkpt>
      <trkpt lat="44.63642" lon="5.82763">
        <ele>1437.1</ele>
        <time>2015-06-30T13:45:42Z</time>
      </trkpt>
      <trkpt lat="44.63644" lon="5.82763">
        <ele>1437.3</ele>
        <time>2015-06-30T13:45:47Z</time>
      </trkpt>
      <trkpt lat="44.63644" lon="5.8276">
        <ele>1434.8</ele>
        <time>2015-06-30T13:45:52Z</time>
      </trkpt>
      <trkpt lat="44.63643" lon="5.82757">
        <ele>1432.7</ele>
        <time>2015-06-30T13:45:59Z</time>
      </trkpt>
      <trkpt lat="44.63639" lon="5.82755">
        <ele>1430.9</ele>
        <time>2015-06-30T13:46:04Z</time>
      </trkpt>
      <trkpt lat="44.6364" lon="5.82759">
        <ele>1431.2</ele>
        <time>2015-06-30T13:46:09Z</time>
      </trkpt>
      <trkpt lat="44.6364" lon="5.82758">
        <ele>1431.3</ele>
        <time>2015-06-30T13:46:14Z</time>
      </trkpt>
      <trkpt lat="44.63642" lon="5.82757">
        <ele>1428.4</ele>
        <time>2015-06-30T13:46:19Z</time>
      </trkpt>
      <trkpt lat="44.63641" lon="5.82753">
        <ele>1423.2</ele>
        <time>2015-06-30T13:46:24Z</time>
      </trkpt>
      <trkpt lat="44.63643" lon="5.82753">
        <ele>1421.5</ele>
        <time>2015-06-30T13:46:29Z</time>
      </trkpt>
      <trkpt lat="44.63641" lon="5.82754">
        <ele>1423.3</ele>
        <time>2015-06-30T13:46:34Z</time>
      </trkpt>
      <trkpt lat="44.6364" lon="5.82756">
        <ele>1429.2</ele>
        <time>2015-06-30T13:46:39Z</time>
      </trkpt>
      <trkpt lat="44.6364" lon="5.82757">
        <ele>1431</ele>
        <time>2015-06-30T13:46:44Z</time>
      </trkpt>
      <trkpt lat="44.6364" lon="5.82757">
        <ele>1432.8</ele>
        <time>2015-06-30T13:46:49Z</time>
      </trkpt>
      <trkpt lat="44.6364" lon="5.82759">
        <ele>1436.1</ele>
        <time>2015-06-30T13:46:54Z</time>
      </trkpt>
      <trkpt lat="44.6364" lon="5.82761">
        <ele>1438.9</ele>
        <time>2015-06-30T13:46:59Z</time>
      </trkpt>
      <trkpt lat="44.6364" lon="5.82761">
        <ele>1438.5</ele>
        <time>2015-06-30T13:47:04Z</time>
      </trkpt>
      <trkpt lat="44.63638" lon="5.82761">
        <ele>1435.7</ele>
        <time>2015-06-30T13:47:09Z</time>
      </trkpt>
      <trkpt lat="44.63639" lon="5.82763">
        <ele>1433.9</ele>
        <time>2015-06-30T13:47:14Z</time>
      </trkpt>
      <trkpt lat="44.63634" lon="5.82764">
        <ele>1431.7</ele>
        <time>2015-06-30T13:47:19Z</time>
      </trkpt>
      <trkpt lat="44.63628" lon="5.82762">
        <ele>1428.2</ele>
        <time>2015-06-30T13:47:24Z</time>
      </trkpt>
      <trkpt lat="44.63622" lon="5.82761">
        <ele>1428</ele>
        <time>2015-06-30T13:47:29Z</time>
      </trkpt>
      <trkpt lat="44.63617" lon="5.82757">
        <ele>1427.3</ele>
        <time>2015-06-30T13:47:34Z</time>
      </trkpt>
      <trkpt lat="44.63613" lon="5.82754">
        <ele>1428.2</ele>
        <time>2015-06-30T13:47:39Z</time>
      </trkpt>
      <trkpt lat="44.63611" lon="5.8275">
        <ele>1427.7</ele>
        <time>2015-06-30T13:47:44Z</time>
      </trkpt>
      <trkpt lat="44.63611" lon="5.8275">
        <ele>1429.2</ele>
        <time>2015-06-30T13:47:49Z</time>
      </trkpt>
      <trkpt lat="44.63611" lon="5.82749">
        <ele>1430</ele>
        <time>2015-06-30T13:47:54Z</time>
      </trkpt>
      <trkpt lat="44.63612" lon="5.82748">
        <ele>1430.5</ele>
        <time>2015-06-30T13:47:59Z</time>
      </trkpt>
      <trkpt lat="44.63613" lon="5.82747">
        <ele>1431.6</ele>
        <time>2015-06-30T13:48:04Z</time>
      </trkpt>
      <trkpt lat="44.63614" lon="5.82747">
        <ele>1432</ele>
        <time>2015-06-30T13:48:09Z</time>
      </trkpt>
      <trkpt lat="44.63613" lon="5.82747">
        <ele>1431.8</ele>
        <time>2015-06-30T13:48:14Z</time>
      </trkpt>
      <trkpt lat="44.63612" lon="5.82747">
        <ele>1431.2</ele>
        <time>2015-06-30T13:48:19Z</time>
      </trkpt>
      <trkpt lat="44.63611" lon="5.82747">
        <ele>1430.2</ele>
        <time>2015-06-30T13:48:24Z</time>
      </trkpt>
      <trkpt lat="44.63611" lon="5.82747">
        <ele>1430.1</ele>
        <time>2015-06-30T13:48:29Z</time>
      </trkpt>
      <trkpt lat="44.63611" lon="5.82747">
        <ele>1429.9</ele>
        <time>2015-06-30T13:48:34Z</time>
      </trkpt>
      <trkpt lat="44.6361" lon="5.82744">
        <ele>1429.4</ele>
        <time>2015-06-30T13:48:39Z</time>
      </trkpt>
      <trkpt lat="44.63608" lon="5.82738">
        <ele>1428.7</ele>
        <time>2015-06-30T13:48:44Z</time>
      </trkpt>
      <trkpt lat="44.63606" lon="5.82731">
        <ele>1427.7</ele>
        <time>2015-06-30T13:48:49Z</time>
      </trkpt>
      <trkpt lat="44.63604" lon="5.82724">
        <ele>1428.3</ele>
        <time>2015-06-30T13:48:54Z</time>
      </trkpt>
      <trkpt lat="44.63603" lon="5.82717">
        <ele>1427.8</ele>
        <time>2015-06-30T13:48:59Z</time>
      </trkpt>
      <trkpt lat="44.63602" lon="5.8271">
        <ele>1427.5</ele>
        <time>2015-06-30T13:49:04Z</time>
      </trkpt>
      <trkpt lat="44.63601" lon="5.82701">
        <ele>1426.5</ele>
        <time>2015-06-30T13:49:09Z</time>
      </trkpt>
      <trkpt lat="44.63599" lon="5.82693">
        <ele>1425.5</ele>
        <time>2015-06-30T13:49:14Z</time>
      </trkpt>
      <trkpt lat="44.63599" lon="5.82685">
        <ele>1424.8</ele>
        <time>2015-06-30T13:49:19Z</time>
      </trkpt>
      <trkpt lat="44.63599" lon="5.82678">
        <ele>1423.5</ele>
        <time>2015-06-30T13:49:24Z</time>
      </trkpt>
      <trkpt lat="44.63599" lon="5.82673">
        <ele>1424.5</ele>
        <time>2015-06-30T13:49:29Z</time>
      </trkpt>
      <trkpt lat="44.63601" lon="5.8267">
        <ele>1427.8</ele>
        <time>2015-06-30T13:49:34Z</time>
      </trkpt>
      <trkpt lat="44.63604" lon="5.8267">
        <ele>1430.8</ele>
        <time>2015-06-30T13:49:39Z</time>
      </trkpt>
      <trkpt lat="44.63609" lon="5.82667">
        <ele>1433.8</ele>
        <time>2015-06-30T13:49:44Z</time>
      </trkpt>
      <trkpt lat="44.63614" lon="5.82664">
        <ele>1435.5</ele>
        <time>2015-06-30T13:49:49Z</time>
      </trkpt>
      <trkpt lat="44.63617" lon="5.82662">
        <ele>1437.1</ele>
        <time>2015-06-30T13:49:54Z</time>
      </trkpt>
      <trkpt lat="44.63622" lon="5.82663">
        <ele>1439</ele>
        <time>2015-06-30T13:49:59Z</time>
      </trkpt>
      <trkpt lat="44.63626" lon="5.82659">
        <ele>1440.2</ele>
        <time>2015-06-30T13:50:04Z</time>
      </trkpt>
      <trkpt lat="44.63625" lon="5.82653">
        <ele>1440.7</ele>
        <time>2015-06-30T13:50:09Z</time>
      </trkpt>
      <trkpt lat="44.63623" lon="5.82647">
        <ele>1440</ele>
        <time>2015-06-30T13:50:14Z</time>
      </trkpt>
      <trkpt lat="44.63622" lon="5.82641">
        <ele>1439.4</ele>
        <time>2015-06-30T13:50:19Z</time>
      </trkpt>
      <trkpt lat="44.6362" lon="5.82634">
        <ele>1438.7</ele>
        <time>2015-06-30T13:50:24Z</time>
      </trkpt>
      <trkpt lat="44.63617" lon="5.82627">
        <ele>1437.4</ele>
        <time>2015-06-30T13:50:29Z</time>
      </trkpt>
      <trkpt lat="44.63615" lon="5.82618">
        <ele>1437.5</ele>
        <time>2015-06-30T13:50:34Z</time>
      </trkpt>
      <trkpt lat="44.63614" lon="5.82611">
        <ele>1439.3</ele>
        <time>2015-06-30T13:50:39Z</time>
      </trkpt>
      <trkpt lat="44.63612" lon="5.82602">
        <ele>1440.7</ele>
        <time>2015-06-30T13:50:44Z</time>
      </trkpt>
      <trkpt lat="44.63611" lon="5.82596">
        <ele>1441.8</ele>
        <time>2015-06-30T13:50:49Z</time>
      </trkpt>
      <trkpt lat="44.6361" lon="5.82589">
        <ele>1441.9</ele>
        <time>2015-06-30T13:50:54Z</time>
      </trkpt>
      <trkpt lat="44.63609" lon="5.82581">
        <ele>1441.8</ele>
        <time>2015-06-30T13:50:59Z</time>
      </trkpt>
      <trkpt lat="44.63607" lon="5.82573">
        <ele>1441.8</ele>
        <time>2015-06-30T13:51:04Z</time>
      </trkpt>
      <trkpt lat="44.63606" lon="5.82565">
        <ele>1440.9</ele>
        <time>2015-06-30T13:51:09Z</time>
      </trkpt>
      <trkpt lat="44.63604" lon="5.82558">
        <ele>1439.9</ele>
        <time>2015-06-30T13:51:14Z</time>
      </trkpt>
      <trkpt lat="44.63602" lon="5.82549">
        <ele>1437.4</ele>
        <time>2015-06-30T13:51:19Z</time>
      </trkpt>
      <trkpt lat="44.63601" lon="5.8254">
        <ele>1436.8</ele>
        <time>2015-06-30T13:51:24Z</time>
      </trkpt>
      <trkpt lat="44.63601" lon="5.82532">
        <ele>1438</ele>
        <time>2015-06-30T13:51:29Z</time>
      </trkpt>
      <trkpt lat="44.63599" lon="5.82523">
        <ele>1438.7</ele>
        <time>2015-06-30T13:51:34Z</time>
      </trkpt>
      <trkpt lat="44.63598" lon="5.82515">
        <ele>1439.2</ele>
        <time>2015-06-30T13:51:39Z</time>
      </trkpt>
      <trkpt lat="44.63596" lon="5.82506">
        <ele>1438.8</ele>
        <time>2015-06-30T13:51:44Z</time>
      </trkpt>
      <trkpt lat="44.63595" lon="5.82497">
        <ele>1438.4</ele>
        <time>2015-06-30T13:51:49Z</time>
      </trkpt>
      <trkpt lat="44.63593" lon="5.82489">
        <ele>1439.1</ele>
        <time>2015-06-30T13:51:54Z</time>
      </trkpt>
      <trkpt lat="44.6359" lon="5.8248">
        <ele>1438.6</ele>
        <time>2015-06-30T13:51:59Z</time>
      </trkpt>
      <trkpt lat="44.63586" lon="5.82471">
        <ele>1437.1</ele>
        <time>2015-06-30T13:52:04Z</time>
      </trkpt>
      <trkpt lat="44.63583" lon="5.82463">
        <ele>1436.3</ele>
        <time>2015-06-30T13:52:09Z</time>
      </trkpt>
      <trkpt lat="44.63578" lon="5.82456">
        <ele>1436.5</ele>
        <time>2015-06-30T13:52:14Z</time>
      </trkpt>
      <trkpt lat="44.63574" lon="5.8245">
        <ele>1437</ele>
        <time>2015-06-30T13:52:19Z</time>
      </trkpt>
      <trkpt lat="44.63569" lon="5.82443">
        <ele>1436.9</ele>
        <time>2015-06-30T13:52:24Z</time>
      </trkpt>
      <trkpt lat="44.63565" lon="5.82436">
        <ele>1435.9</ele>
        <time>2015-06-30T13:52:29Z</time>
      </trkpt>
      <trkpt lat="44.63563" lon="5.8243">
        <ele>1438.1</ele>
        <time>2015-06-30T13:52:34Z</time>
      </trkpt>
      <trkpt lat="44.63561" lon="5.82424">
        <ele>1438.3</ele>
        <time>2015-06-30T13:52:39Z</time>
      </trkpt>
      <trkpt lat="44.63559" lon="5.82416">
        <ele>1436.9</ele>
        <time>2015-06-30T13:52:44Z</time>
      </trkpt>
      <trkpt lat="44.6356" lon="5.82407">
        <ele>1436.9</ele>
        <time>2015-06-30T13:52:49Z</time>
      </trkpt>
      <trkpt lat="44.6356" lon="5.824">
        <ele>1436.9</ele>
        <time>2015-06-30T13:52:54Z</time>
      </trkpt>
      <trkpt lat="44.63559" lon="5.82394">
        <ele>1436.3</ele>
        <time>2015-06-30T13:52:59Z</time>
      </trkpt>
      <trkpt lat="44.63558" lon="5.82388">
        <ele>1434.4</ele>
        <time>2015-06-30T13:53:04Z</time>
      </trkpt>
      <trkpt lat="44.63557" lon="5.82381">
        <ele>1434.7</ele>
        <time>2015-06-30T13:53:09Z</time>
      </trkpt>
      <trkpt lat="44.63555" lon="5.82374">
        <ele>1434.5</ele>
        <time>2015-06-30T13:53:14Z</time>
      </trkpt>
      <trkpt lat="44.63553" lon="5.82368">
        <ele>1433.2</ele>
        <time>2015-06-30T13:53:19Z</time>
      </trkpt>
      <trkpt lat="44.63552" lon="5.8236">
        <ele>1433.5</ele>
        <time>2015-06-30T13:53:24Z</time>
      </trkpt>
      <trkpt lat="44.6355" lon="5.82353">
        <ele>1431.8</ele>
        <time>2015-06-30T13:53:29Z</time>
      </trkpt>
      <trkpt lat="44.63548" lon="5.82346">
        <ele>1430.3</ele>
        <time>2015-06-30T13:53:34Z</time>
      </trkpt>
      <trkpt lat="44.63545" lon="5.82338">
        <ele>1427.7</ele>
        <time>2015-06-30T13:53:39Z</time>
      </trkpt>
      <trkpt lat="44.63542" lon="5.8233">
        <ele>1426.4</ele>
        <time>2015-06-30T13:53:44Z</time>
      </trkpt>
      <trkpt lat="44.63539" lon="5.82323">
        <ele>1425.5</ele>
        <time>2015-06-30T13:53:49Z</time>
      </trkpt>
      <trkpt lat="44.63536" lon="5.82315">
        <ele>1425.4</ele>
        <time>2015-06-30T13:53:54Z</time>
      </trkpt>
      <trkpt lat="44.63533" lon="5.82308">
        <ele>1426.7</ele>
        <time>2015-06-30T13:53:59Z</time>
      </trkpt>
      <trkpt lat="44.6353" lon="5.82301">
        <ele>1426.5</ele>
        <time>2015-06-30T13:54:04Z</time>
      </trkpt>
      <trkpt lat="44.63527" lon="5.82293">
        <ele>1426.5</ele>
        <time>2015-06-30T13:54:09Z</time>
      </trkpt>
      <trkpt lat="44.63523" lon="5.82286">
        <ele>1426.6</ele>
        <time>2015-06-30T13:54:14Z</time>
      </trkpt>
      <trkpt lat="44.63521" lon="5.82278">
        <ele>1427.9</ele>
        <time>2015-06-30T13:54:19Z</time>
      </trkpt>
      <trkpt lat="44.63519" lon="5.8227">
        <ele>1428.6</ele>
        <time>2015-06-30T13:54:24Z</time>
      </trkpt>
      <trkpt lat="44.63517" lon="5.82262">
        <ele>1428.9</ele>
        <time>2015-06-30T13:54:29Z</time>
      </trkpt>
      <trkpt lat="44.63515" lon="5.82257">
        <ele>1430</ele>
        <time>2015-06-30T13:54:34Z</time>
      </trkpt>
      <trkpt lat="44.63514" lon="5.82252">
        <ele>1430.4</ele>
        <time>2015-06-30T13:54:39Z</time>
      </trkpt>
      <trkpt lat="44.63512" lon="5.82247">
        <ele>1430.2</ele>
        <time>2015-06-30T13:54:44Z</time>
      </trkpt>
      <trkpt lat="44.63509" lon="5.82241">
        <ele>1429.1</ele>
        <time>2015-06-30T13:54:49Z</time>
      </trkpt>
      <trkpt lat="44.63506" lon="5.82237">
        <ele>1427.5</ele>
        <time>2015-06-30T13:54:54Z</time>
      </trkpt>
      <trkpt lat="44.635" lon="5.8223">
        <ele>1424.2</ele>
        <time>2015-06-30T13:54:59Z</time>
      </trkpt>
      <trkpt lat="44.63497" lon="5.82225">
        <ele>1423.5</ele>
        <time>2015-06-30T13:55:04Z</time>
      </trkpt>
      <trkpt lat="44.63496" lon="5.8222">
        <ele>1424.5</ele>
        <time>2015-06-30T13:55:09Z</time>
      </trkpt>
      <trkpt lat="44.63493" lon="5.82213">
        <ele>1421.4</ele>
        <time>2015-06-30T13:55:14Z</time>
      </trkpt>
      <trkpt lat="44.6349" lon="5.82209">
        <ele>1419.4</ele>
        <time>2015-06-30T13:55:19Z</time>
      </trkpt>
      <trkpt lat="44.63489" lon="5.82204">
        <ele>1421.9</ele>
        <time>2015-06-30T13:55:24Z</time>
      </trkpt>
      <trkpt lat="44.63488" lon="5.82199">
        <ele>1422.1</ele>
        <time>2015-06-30T13:55:29Z</time>
      </trkpt>
      <trkpt lat="44.63487" lon="5.8219">
        <ele>1420.8</ele>
        <time>2015-06-30T13:55:34Z</time>
      </trkpt>
      <trkpt lat="44.63484" lon="5.82183">
        <ele>1414</ele>
        <time>2015-06-30T13:55:39Z</time>
      </trkpt>
      <trkpt lat="44.63483" lon="5.82181">
        <ele>1415.7</ele>
        <time>2015-06-30T13:55:44Z</time>
      </trkpt>
      <trkpt lat="44.63486" lon="5.82182">
        <ele>1419.1</ele>
        <time>2015-06-30T13:55:49Z</time>
      </trkpt>
      <trkpt lat="44.63487" lon="5.82182">
        <ele>1420.8</ele>
        <time>2015-06-30T13:55:54Z</time>
      </trkpt>
      <trkpt lat="44.63488" lon="5.82181">
        <ele>1422.4</ele>
        <time>2015-06-30T13:55:59Z</time>
      </trkpt>
      <trkpt lat="44.63484" lon="5.82181">
        <ele>1424.9</ele>
        <time>2015-06-30T13:56:04Z</time>
      </trkpt>
      <trkpt lat="44.63478" lon="5.82186">
        <ele>1423.3</ele>
        <time>2015-06-30T13:56:09Z</time>
      </trkpt>
      <trkpt lat="44.63478" lon="5.8219">
        <ele>1421</ele>
        <time>2015-06-30T13:56:14Z</time>
      </trkpt>
      <trkpt lat="44.63477" lon="5.82194">
        <ele>1425.8</ele>
        <time>2015-06-30T13:56:19Z</time>
      </trkpt>
      <trkpt lat="44.63477" lon="5.82198">
        <ele>1433.6</ele>
        <time>2015-06-30T13:56:24Z</time>
      </trkpt>
      <trkpt lat="44.6348" lon="5.82201">
        <ele>1437.1</ele>
        <time>2015-06-30T13:56:29Z</time>
      </trkpt>
      <trkpt lat="44.63481" lon="5.82202">
        <ele>1438</ele>
        <time>2015-06-30T13:56:34Z</time>
      </trkpt>
      <trkpt lat="44.63479" lon="5.82206">
        <ele>1438</ele>
        <time>2015-06-30T13:56:39Z</time>
      </trkpt>
      <trkpt lat="44.63477" lon="5.8221">
        <ele>1437.1</ele>
        <time>2015-06-30T13:56:44Z</time>
      </trkpt>
      <trkpt lat="44.63476" lon="5.82215">
        <ele>1436.1</ele>
        <time>2015-06-30T13:56:49Z</time>
      </trkpt>
      <trkpt lat="44.63474" lon="5.82219">
        <ele>1430.6</ele>
        <time>2015-06-30T13:56:54Z</time>
      </trkpt>
      <trkpt lat="44.63472" lon="5.82226">
        <ele>1431.5</ele>
        <time>2015-06-30T13:56:59Z</time>
      </trkpt>
      <trkpt lat="44.63472" lon="5.82233">
        <ele>1435.9</ele>
        <time>2015-06-30T13:57:04Z</time>
      </trkpt>
      <trkpt lat="44.63474" lon="5.8224">
        <ele>1438.3</ele>
        <time>2015-06-30T13:57:09Z</time>
      </trkpt>
      <trkpt lat="44.63474" lon="5.82246">
        <ele>1440.6</ele>
        <time>2015-06-30T13:57:14Z</time>
      </trkpt>
      <trkpt lat="44.63471" lon="5.82252">
        <ele>1441.2</ele>
        <time>2015-06-30T13:57:19Z</time>
      </trkpt>
      <trkpt lat="44.63469" lon="5.82258">
        <ele>1444.2</ele>
        <time>2015-06-30T13:57:24Z</time>
      </trkpt>
      <trkpt lat="44.63467" lon="5.82263">
        <ele>1446.2</ele>
        <time>2015-06-30T13:57:29Z</time>
      </trkpt>
      <trkpt lat="44.63467" lon="5.82268">
        <ele>1443.6</ele>
        <time>2015-06-30T13:57:34Z</time>
      </trkpt>
      <trkpt lat="44.63469" lon="5.82273">
        <ele>1441.1</ele>
        <time>2015-06-30T13:57:39Z</time>
      </trkpt>
      <trkpt lat="44.63467" lon="5.82276">
        <ele>1438.4</ele>
        <time>2015-06-30T13:57:44Z</time>
      </trkpt>
      <trkpt lat="44.63464" lon="5.8228">
        <ele>1436.1</ele>
        <time>2015-06-30T13:57:49Z</time>
      </trkpt>
      <trkpt lat="44.63464" lon="5.82285">
        <ele>1435.4</ele>
        <time>2015-06-30T13:57:54Z</time>
      </trkpt>
      <trkpt lat="44.63462" lon="5.8229">
        <ele>1435.3</ele>
        <time>2015-06-30T13:57:59Z</time>
      </trkpt>
      <trkpt lat="44.63461" lon="5.82295">
        <ele>1436.5</ele>
        <time>2015-06-30T13:58:04Z</time>
      </trkpt>
      <trkpt lat="44.63459" lon="5.82301">
        <ele>1436.1</ele>
        <time>2015-06-30T13:58:09Z</time>
      </trkpt>
      <trkpt lat="44.63458" lon="5.82307">
        <ele>1438.2</ele>
        <time>2015-06-30T13:58:14Z</time>
      </trkpt>
      <trkpt lat="44.63455" lon="5.82313">
        <ele>1438.3</ele>
        <time>2015-06-30T13:58:19Z</time>
      </trkpt>
      <trkpt lat="44.63454" lon="5.82319">
        <ele>1439.4</ele>
        <time>2015-06-30T13:58:24Z</time>
      </trkpt>
      <trkpt lat="44.63451" lon="5.82324">
        <ele>1439.3</ele>
        <time>2015-06-30T13:58:29Z</time>
      </trkpt>
      <trkpt lat="44.63449" lon="5.82329">
        <ele>1441.1</ele>
        <time>2015-06-30T13:58:34Z</time>
      </trkpt>
      <trkpt lat="44.63447" lon="5.82334">
        <ele>1440.6</ele>
        <time>2015-06-30T13:58:39Z</time>
      </trkpt>
      <trkpt lat="44.63443" lon="5.82338">
        <ele>1439.4</ele>
        <time>2015-06-30T13:58:44Z</time>
      </trkpt>
      <trkpt lat="44.63438" lon="5.82341">
        <ele>1439.3</ele>
        <time>2015-06-30T13:58:49Z</time>
      </trkpt>
      <trkpt lat="44.63435" lon="5.82344">
        <ele>1440.7</ele>
        <time>2015-06-30T13:58:54Z</time>
      </trkpt>
      <trkpt lat="44.63429" lon="5.82344">
        <ele>1441.7</ele>
        <time>2015-06-30T13:58:59Z</time>
      </trkpt>
      <trkpt lat="44.63421" lon="5.8234">
        <ele>1434.7</ele>
        <time>2015-06-30T13:59:04Z</time>
      </trkpt>
      <trkpt lat="44.63413" lon="5.8233">
        <ele>1423.8</ele>
        <time>2015-06-30T13:59:09Z</time>
      </trkpt>
      <trkpt lat="44.63407" lon="5.82323">
        <ele>1421.1</ele>
        <time>2015-06-30T13:59:14Z</time>
      </trkpt>
      <trkpt lat="44.63406" lon="5.82322">
        <ele>1425.8</ele>
        <time>2015-06-30T13:59:19Z</time>
      </trkpt>
      <trkpt lat="44.63401" lon="5.82317">
        <ele>1423.3</ele>
        <time>2015-06-30T13:59:24Z</time>
      </trkpt>
      <trkpt lat="44.63397" lon="5.82312">
        <ele>1422.5</ele>
        <time>2015-06-30T13:59:29Z</time>
      </trkpt>
      <trkpt lat="44.63392" lon="5.82308">
        <ele>1423</ele>
        <time>2015-06-30T13:59:34Z</time>
      </trkpt>
      <trkpt lat="44.63385" lon="5.82304">
        <ele>1421.1</ele>
        <time>2015-06-30T13:59:39Z</time>
      </trkpt>
      <trkpt lat="44.63379" lon="5.82303">
        <ele>1424.4</ele>
        <time>2015-06-30T13:59:44Z</time>
      </trkpt>
      <trkpt lat="44.63375" lon="5.82304">
        <ele>1427.2</ele>
        <time>2015-06-30T13:59:49Z</time>
      </trkpt>
      <trkpt lat="44.6337" lon="5.82305">
        <ele>1429.6</ele>
        <time>2015-06-30T13:59:54Z</time>
      </trkpt>
      <trkpt lat="44.63364" lon="5.82304">
        <ele>1427.3</ele>
        <time>2015-06-30T13:59:59Z</time>
      </trkpt>
      <trkpt lat="44.63359" lon="5.82303">
        <ele>1427.5</ele>
        <time>2015-06-30T14:00:04Z</time>
      </trkpt>
      <trkpt lat="44.63354" lon="5.82303">
        <ele>1428.1</ele>
        <time>2015-06-30T14:00:09Z</time>
      </trkpt>
      <trkpt lat="44.63349" lon="5.82302">
        <ele>1427.5</ele>
        <time>2015-06-30T14:00:14Z</time>
      </trkpt>
      <trkpt lat="44.63345" lon="5.82302">
        <ele>1423.7</ele>
        <time>2015-06-30T14:00:19Z</time>
      </trkpt>
      <trkpt lat="44.63341" lon="5.82301">
        <ele>1422.8</ele>
        <time>2015-06-30T14:00:24Z</time>
      </trkpt>
      <trkpt lat="44.6334" lon="5.82303">
        <ele>1432.2</ele>
        <time>2015-06-30T14:00:29Z</time>
      </trkpt>
      <trkpt lat="44.63341" lon="5.82304">
        <ele>1434.2</ele>
        <time>2015-06-30T14:00:34Z</time>
      </trkpt>
      <trkpt lat="44.63342" lon="5.82304">
        <ele>1434.5</ele>
        <time>2015-06-30T14:00:39Z</time>
      </trkpt>
      <trkpt lat="44.63342" lon="5.82304">
        <ele>1437.3</ele>
        <time>2015-06-30T14:00:44Z</time>
      </trkpt>
      <trkpt lat="44.63342" lon="5.82302">
        <ele>1441.8</ele>
        <time>2015-06-30T14:00:49Z</time>
      </trkpt>
      <trkpt lat="44.63342" lon="5.82301">
        <ele>1442.7</ele>
        <time>2015-06-30T14:00:54Z</time>
      </trkpt>
      <trkpt lat="44.63342" lon="5.82299">
        <ele>1447.1</ele>
        <time>2015-06-30T14:00:59Z</time>
      </trkpt>
      <trkpt lat="44.63345" lon="5.82298">
        <ele>1440.8</ele>
        <time>2015-06-30T14:01:04Z</time>
      </trkpt>
      <trkpt lat="44.63339" lon="5.82301">
        <ele>1438.4</ele>
        <time>2015-06-30T14:01:09Z</time>
      </trkpt>
      <trkpt lat="44.63335" lon="5.82307">
        <ele>1434.4</ele>
        <time>2015-06-30T14:01:14Z</time>
      </trkpt>
      <trkpt lat="44.63331" lon="5.82311">
        <ele>1430.2</ele>
        <time>2015-06-30T14:01:19Z</time>
      </trkpt>
      <trkpt lat="44.63328" lon="5.82316">
        <ele>1430</ele>
        <time>2015-06-30T14:01:24Z</time>
      </trkpt>
      <trkpt lat="44.63323" lon="5.82322">
        <ele>1427.6</ele>
        <time>2015-06-30T14:01:29Z</time>
      </trkpt>
      <trkpt lat="44.63316" lon="5.82324">
        <ele>1418.7</ele>
        <time>2015-06-30T14:01:34Z</time>
      </trkpt>
      <trkpt lat="44.63312" lon="5.82331">
        <ele>1419.6</ele>
        <time>2015-06-30T14:01:39Z</time>
      </trkpt>
      <trkpt lat="44.63306" lon="5.82334">
        <ele>1412.4</ele>
        <time>2015-06-30T14:01:44Z</time>
      </trkpt>
      <trkpt lat="44.63302" lon="5.82341">
        <ele>1406.5</ele>
        <time>2015-06-30T14:01:49Z</time>
      </trkpt>
      <trkpt lat="44.63301" lon="5.82352">
        <ele>1415.7</ele>
        <time>2015-06-30T14:01:54Z</time>
      </trkpt>
      <trkpt lat="44.63303" lon="5.82358">
        <ele>1419.1</ele>
        <time>2015-06-30T14:01:59Z</time>
      </trkpt>
      <trkpt lat="44.63306" lon="5.82358">
        <ele>1421.7</ele>
        <time>2015-06-30T14:02:04Z</time>
      </trkpt>
      <trkpt lat="44.63308" lon="5.82358">
        <ele>1426.1</ele>
        <time>2015-06-30T14:02:09Z</time>
      </trkpt>
      <trkpt lat="44.63309" lon="5.8236">
        <ele>1430.6</ele>
        <time>2015-06-30T14:02:14Z</time>
      </trkpt>
      <trkpt lat="44.63308" lon="5.82358">
        <ele>1429.7</ele>
        <time>2015-06-30T14:02:19Z</time>
      </trkpt>
      <trkpt lat="44.63306" lon="5.82358">
        <ele>1427.7</ele>
        <time>2015-06-30T14:02:24Z</time>
      </trkpt>
      <trkpt lat="44.63304" lon="5.82353">
        <ele>1417.7</ele>
        <time>2015-06-30T14:02:29Z</time>
      </trkpt>
      <trkpt lat="44.63305" lon="5.82354">
        <ele>1415</ele>
        <time>2015-06-30T14:02:34Z</time>
      </trkpt>
      <trkpt lat="44.63306" lon="5.82355">
        <ele>1420.1</ele>
        <time>2015-06-30T14:02:39Z</time>
      </trkpt>
      <trkpt lat="44.63308" lon="5.82355">
        <ele>1421.9</ele>
        <time>2015-06-30T14:02:44Z</time>
      </trkpt>
      <trkpt lat="44.63309" lon="5.82354">
        <ele>1423.7</ele>
        <time>2015-06-30T14:02:49Z</time>
      </trkpt>
      <trkpt lat="44.63308" lon="5.82356">
        <ele>1422.9</ele>
        <time>2015-06-30T14:02:54Z</time>
      </trkpt>
      <trkpt lat="44.63309" lon="5.82355">
        <ele>1425</ele>
        <time>2015-06-30T14:02:59Z</time>
      </trkpt>
      <trkpt lat="44.63314" lon="5.82354">
        <ele>1428.7</ele>
        <time>2015-06-30T14:03:04Z</time>
      </trkpt>
      <trkpt lat="44.63315" lon="5.82356">
        <ele>1430.1</ele>
        <time>2015-06-30T14:03:09Z</time>
      </trkpt>
      <trkpt lat="44.63315" lon="5.82359">
        <ele>1430.6</ele>
        <time>2015-06-30T14:03:14Z</time>
      </trkpt>
      <trkpt lat="44.63313" lon="5.82357">
        <ele>1426.1</ele>
        <time>2015-06-30T14:03:19Z</time>
      </trkpt>
      <trkpt lat="44.63313" lon="5.82359">
        <ele>1425.9</ele>
        <time>2015-06-30T14:03:24Z</time>
      </trkpt>
      <trkpt lat="44.6331" lon="5.82361">
        <ele>1426.2</ele>
        <time>2015-06-30T14:03:29Z</time>
      </trkpt>
      <trkpt lat="44.6331" lon="5.82361">
        <ele>1425.8</ele>
        <time>2015-06-30T14:03:34Z</time>
      </trkpt>
      <trkpt lat="44.6331" lon="5.82362">
        <ele>1427.1</ele>
        <time>2015-06-30T14:03:39Z</time>
      </trkpt>
      <trkpt lat="44.6331" lon="5.82363">
        <ele>1428.5</ele>
        <time>2015-06-30T14:03:44Z</time>
      </trkpt>
      <trkpt lat="44.6331" lon="5.82364">
        <ele>1429.9</ele>
        <time>2015-06-30T14:03:49Z</time>
      </trkpt>
      <trkpt lat="44.63311" lon="5.82365">
        <ele>1431.2</ele>
        <time>2015-06-30T14:03:54Z</time>
      </trkpt>
      <trkpt lat="44.63311" lon="5.82366">
        <ele>1432.3</ele>
        <time>2015-06-30T14:03:59Z</time>
      </trkpt>
      <trkpt lat="44.63311" lon="5.82366">
        <ele>1433.1</ele>
        <time>2015-06-30T14:04:04Z</time>
      </trkpt>
      <trkpt lat="44.63311" lon="5.82366">
        <ele>1433.7</ele>
        <time>2015-06-30T14:04:09Z</time>
      </trkpt>
      <trkpt lat="44.63311" lon="5.82366">
        <ele>1434.1</ele>
        <time>2015-06-30T14:04:14Z</time>
      </trkpt>
      <trkpt lat="44.63311" lon="5.82366">
        <ele>1434.2</ele>
        <time>2015-06-30T14:04:19Z</time>
      </trkpt>
      <trkpt lat="44.63311" lon="5.82366">
        <ele>1435.2</ele>
        <time>2015-06-30T14:04:24Z</time>
      </trkpt>
      <trkpt lat="44.63311" lon="5.82369">
        <ele>1436.6</ele>
        <time>2015-06-30T14:04:29Z</time>
      </trkpt>
      <trkpt lat="44.63313" lon="5.82368">
        <ele>1435.4</ele>
        <time>2015-06-30T14:04:34Z</time>
      </trkpt>
      <trkpt lat="44.63314" lon="5.8237">
        <ele>1436.9</ele>
        <time>2015-06-30T14:04:39Z</time>
      </trkpt>
      <trkpt lat="44.63314" lon="5.82371">
        <ele>1436.2</ele>
        <time>2015-06-30T14:04:44Z</time>
      </trkpt>
      <trkpt lat="44.63313" lon="5.82371">
        <ele>1434.9</ele>
        <time>2015-06-30T14:04:49Z</time>
      </trkpt>
      <trkpt lat="44.63315" lon="5.82371">
        <ele>1437.1</ele>
        <time>2015-06-30T14:04:54Z</time>
      </trkpt>
      <trkpt lat="44.63312" lon="5.82372">
        <ele>1440.6</ele>
        <time>2015-06-30T14:04:59Z</time>
      </trkpt>
      <trkpt lat="44.63317" lon="5.82375">
        <ele>1447.7</ele>
        <time>2015-06-30T14:05:04Z</time>
      </trkpt>
      <trkpt lat="44.6332" lon="5.82378">
        <ele>1451.2</ele>
        <time>2015-06-30T14:05:09Z</time>
      </trkpt>
      <trkpt lat="44.63321" lon="5.82376">
        <ele>1450</ele>
        <time>2015-06-30T14:05:14Z</time>
      </trkpt>
      <trkpt lat="44.63322" lon="5.82371">
        <ele>1447.3</ele>
        <time>2015-06-30T14:05:19Z</time>
      </trkpt>
      <trkpt lat="44.6332" lon="5.82365">
        <ele>1438.5</ele>
        <time>2015-06-30T14:05:24Z</time>
      </trkpt>
      <trkpt lat="44.63317" lon="5.82361">
        <ele>1434.5</ele>
        <time>2015-06-30T14:05:29Z</time>
      </trkpt>
      <trkpt lat="44.63317" lon="5.82361">
        <ele>1439.2</ele>
        <time>2015-06-30T14:05:34Z</time>
      </trkpt>
      <trkpt lat="44.63316" lon="5.82358">
        <ele>1434.2</ele>
        <time>2015-06-30T14:05:39Z</time>
      </trkpt>
      <trkpt lat="44.63317" lon="5.82357">
        <ele>1430.8</ele>
        <time>2015-06-30T14:05:44Z</time>
      </trkpt>
      <trkpt lat="44.63319" lon="5.82357">
        <ele>1438.1</ele>
        <time>2015-06-30T14:05:49Z</time>
      </trkpt>
      <trkpt lat="44.63319" lon="5.82354">
        <ele>1438.1</ele>
        <time>2015-06-30T14:05:54Z</time>
      </trkpt>
      <trkpt lat="44.63315" lon="5.82352">
        <ele>1440.2</ele>
        <time>2015-06-30T14:05:59Z</time>
      </trkpt>
      <trkpt lat="44.63311" lon="5.82352">
        <ele>1436.5</ele>
        <time>2015-06-30T14:06:04Z</time>
      </trkpt>
      <trkpt lat="44.63308" lon="5.82357">
        <ele>1439.8</ele>
        <time>2015-06-30T14:06:09Z</time>
      </trkpt>
      <trkpt lat="44.6331" lon="5.82358">
        <ele>1437.4</ele>
        <time>2015-06-30T14:06:14Z</time>
      </trkpt>
      <trkpt lat="44.63307" lon="5.82356">
        <ele>1433.2</ele>
        <time>2015-06-30T14:06:19Z</time>
      </trkpt>
      <trkpt lat="44.63305" lon="5.82351">
        <ele>1420.6</ele>
        <time>2015-06-30T14:06:24Z</time>
      </trkpt>
      <trkpt lat="44.63304" lon="5.82349">
        <ele>1421.7</ele>
        <time>2015-06-30T14:06:29Z</time>
      </trkpt>
      <trkpt lat="44.63305" lon="5.8235">
        <ele>1422.1</ele>
        <time>2015-06-30T14:06:34Z</time>
      </trkpt>
      <trkpt lat="44.63306" lon="5.82352">
        <ele>1422.6</ele>
        <time>2015-06-30T14:06:39Z</time>
      </trkpt>
      <trkpt lat="44.63307" lon="5.82353">
        <ele>1424.5</ele>
        <time>2015-06-30T14:06:44Z</time>
      </trkpt>
      <trkpt lat="44.63307" lon="5.82353">
        <ele>1424.2</ele>
        <time>2015-06-30T14:06:49Z</time>
      </trkpt>
      <trkpt lat="44.63308" lon="5.82354">
        <ele>1425.7</ele>
        <time>2015-06-30T14:06:54Z</time>
      </trkpt>
      <trkpt lat="44.63309" lon="5.82356">
        <ele>1426.9</ele>
        <time>2015-06-30T14:06:59Z</time>
      </trkpt>
      <trkpt lat="44.6331" lon="5.82357">
        <ele>1428.5</ele>
        <time>2015-06-30T14:07:04Z</time>
      </trkpt>
      <trkpt lat="44.63311" lon="5.82357">
        <ele>1432.1</ele>
        <time>2015-06-30T14:07:09Z</time>
      </trkpt>
      <trkpt lat="44.63309" lon="5.82355">
        <ele>1427</ele>
        <time>2015-06-30T14:07:14Z</time>
      </trkpt>
      <trkpt lat="44.63307" lon="5.82354">
        <ele>1424.9</ele>
        <time>2015-06-30T14:07:19Z</time>
      </trkpt>
      <trkpt lat="44.63306" lon="5.82353">
        <ele>1420.7</ele>
        <time>2015-06-30T14:07:24Z</time>
      </trkpt>
      <trkpt lat="44.63307" lon="5.82355">
        <ele>1424.6</ele>
        <time>2015-06-30T14:07:29Z</time>
      </trkpt>
      <trkpt lat="44.63307" lon="5.82356">
        <ele>1427.2</ele>
        <time>2015-06-30T14:07:34Z</time>
      </trkpt>
      <trkpt lat="44.63307" lon="5.82357">
        <ele>1428.4</ele>
        <time>2015-06-30T14:07:39Z</time>
      </trkpt>
      <trkpt lat="44.63306" lon="5.82357">
        <ele>1427.2</ele>
        <time>2015-06-30T14:07:44Z</time>
      </trkpt>
      <trkpt lat="44.63305" lon="5.82358">
        <ele>1428.1</ele>
        <time>2015-06-30T14:07:49Z</time>
      </trkpt>
      <trkpt lat="44.63307" lon="5.82355">
        <ele>1425.9</ele>
        <time>2015-06-30T14:07:54Z</time>
      </trkpt>
      <trkpt lat="44.63307" lon="5.82355">
        <ele>1423.9</ele>
        <time>2015-06-30T14:07:59Z</time>
      </trkpt>
      <trkpt lat="44.63307" lon="5.82356">
        <ele>1426.8</ele>
        <time>2015-06-30T14:08:04Z</time>
      </trkpt>
      <trkpt lat="44.63306" lon="5.82357">
        <ele>1426.3</ele>
        <time>2015-06-30T14:08:09Z</time>
      </trkpt>
      <trkpt lat="44.63308" lon="5.82357">
        <ele>1434.6</ele>
        <time>2015-06-30T14:08:14Z</time>
      </trkpt>
      <trkpt lat="44.63308" lon="5.8236">
        <ele>1436.1</ele>
        <time>2015-06-30T14:08:19Z</time>
      </trkpt>
      <trkpt lat="44.63308" lon="5.8236">
        <ele>1433</ele>
        <time>2015-06-30T14:08:24Z</time>
      </trkpt>
      <trkpt lat="44.63308" lon="5.82357">
        <ele>1424.8</ele>
        <time>2015-06-30T14:08:29Z</time>
      </trkpt>
      <trkpt lat="44.63307" lon="5.82358">
        <ele>1422.5</ele>
        <time>2015-06-30T14:08:34Z</time>
      </trkpt>
      <trkpt lat="44.63307" lon="5.82359">
        <ele>1422.9</ele>
        <time>2015-06-30T14:08:39Z</time>
      </trkpt>
      <trkpt lat="44.63306" lon="5.82362">
        <ele>1426.4</ele>
        <time>2015-06-30T14:08:44Z</time>
      </trkpt>
      <trkpt lat="44.63305" lon="5.82362">
        <ele>1426.5</ele>
        <time>2015-06-30T14:08:49Z</time>
      </trkpt>
      <trkpt lat="44.63307" lon="5.82364">
        <ele>1430.2</ele>
        <time>2015-06-30T14:08:54Z</time>
      </trkpt>
      <trkpt lat="44.63307" lon="5.82365">
        <ele>1430.6</ele>
        <time>2015-06-30T14:08:59Z</time>
      </trkpt>
      <trkpt lat="44.63307" lon="5.82362">
        <ele>1429.7</ele>
        <time>2015-06-30T14:09:04Z</time>
      </trkpt>
      <trkpt lat="44.63307" lon="5.82361">
        <ele>1430.4</ele>
        <time>2015-06-30T14:09:09Z</time>
      </trkpt>
      <trkpt lat="44.63305" lon="5.8236">
        <ele>1427.9</ele>
        <time>2015-06-30T14:09:14Z</time>
      </trkpt>
      <trkpt lat="44.63304" lon="5.82358">
        <ele>1424.3</ele>
        <time>2015-06-30T14:09:19Z</time>
      </trkpt>
      <trkpt lat="44.63299" lon="5.82359">
        <ele>1418.2</ele>
        <time>2015-06-30T14:09:24Z</time>
      </trkpt>
      <trkpt lat="44.63297" lon="5.82364">
        <ele>1421.5</ele>
        <time>2015-06-30T14:09:29Z</time>
      </trkpt>
      <trkpt lat="44.63294" lon="5.82369">
        <ele>1418.6</ele>
        <time>2015-06-30T14:09:34Z</time>
      </trkpt>
      <trkpt lat="44.63294" lon="5.82375">
        <ele>1418.2</ele>
        <time>2015-06-30T14:09:39Z</time>
      </trkpt>
      <trkpt lat="44.63295" lon="5.82384">
        <ele>1422.7</ele>
        <time>2015-06-30T14:09:44Z</time>
      </trkpt>
      <trkpt lat="44.63297" lon="5.82391">
        <ele>1425.5</ele>
        <time>2015-06-30T14:09:49Z</time>
      </trkpt>
      <trkpt lat="44.63298" lon="5.82401">
        <ele>1428.3</ele>
        <time>2015-06-30T14:09:54Z</time>
      </trkpt>
      <trkpt lat="44.63302" lon="5.82407">
        <ele>1429.2</ele>
        <time>2015-06-30T14:09:59Z</time>
      </trkpt>
      <trkpt lat="44.63305" lon="5.82414">
        <ele>1429.1</ele>
        <time>2015-06-30T14:10:04Z</time>
      </trkpt>
      <trkpt lat="44.63307" lon="5.82421">
        <ele>1428.9</ele>
        <time>2015-06-30T14:10:09Z</time>
      </trkpt>
      <trkpt lat="44.6331" lon="5.82427">
        <ele>1428.7</ele>
        <time>2015-06-30T14:10:14Z</time>
      </trkpt>
      <trkpt lat="44.63312" lon="5.82434">
        <ele>1429.7</ele>
        <time>2015-06-30T14:10:19Z</time>
      </trkpt>
      <trkpt lat="44.63314" lon="5.8244">
        <ele>1428.9</ele>
        <time>2015-06-30T14:10:24Z</time>
      </trkpt>
      <trkpt lat="44.63316" lon="5.82447">
        <ele>1428.4</ele>
        <time>2015-06-30T14:10:29Z</time>
      </trkpt>
      <trkpt lat="44.63316" lon="5.82454">
        <ele>1425.8</ele>
        <time>2015-06-30T14:10:34Z</time>
      </trkpt>
      <trkpt lat="44.63315" lon="5.82461">
        <ele>1422.6</ele>
        <time>2015-06-30T14:10:39Z</time>
      </trkpt>
      <trkpt lat="44.63313" lon="5.82468">
        <ele>1421</ele>
        <time>2015-06-30T14:10:44Z</time>
      </trkpt>
      <trkpt lat="44.63311" lon="5.82478">
        <ele>1422.7</ele>
        <time>2015-06-30T14:10:49Z</time>
      </trkpt>
      <trkpt lat="44.63308" lon="5.82486">
        <ele>1424</ele>
        <time>2015-06-30T14:10:54Z</time>
      </trkpt>
      <trkpt lat="44.63305" lon="5.82492">
        <ele>1420.6</ele>
        <time>2015-06-30T14:10:59Z</time>
      </trkpt>
      <trkpt lat="44.63304" lon="5.82499">
        <ele>1420.3</ele>
        <time>2015-06-30T14:11:04Z</time>
      </trkpt>
      <trkpt lat="44.63302" lon="5.82506">
        <ele>1418.9</ele>
        <time>2015-06-30T14:11:09Z</time>
      </trkpt>
      <trkpt lat="44.633" lon="5.82514">
        <ele>1419.1</ele>
        <time>2015-06-30T14:11:14Z</time>
      </trkpt>
      <trkpt lat="44.63298" lon="5.82521">
        <ele>1417.5</ele>
        <time>2015-06-30T14:11:19Z</time>
      </trkpt>
      <trkpt lat="44.63296" lon="5.82528">
        <ele>1416.5</ele>
        <time>2015-06-30T14:11:24Z</time>
      </trkpt>
      <trkpt lat="44.63294" lon="5.82535">
        <ele>1415.6</ele>
        <time>2015-06-30T14:11:29Z</time>
      </trkpt>
      <trkpt lat="44.63292" lon="5.82542">
        <ele>1414.5</ele>
        <time>2015-06-30T14:11:34Z</time>
      </trkpt>
      <trkpt lat="44.6329" lon="5.82549">
        <ele>1411.2</ele>
        <time>2015-06-30T14:11:39Z</time>
      </trkpt>
      <trkpt lat="44.6329" lon="5.82558">
        <ele>1412.7</ele>
        <time>2015-06-30T14:11:44Z</time>
      </trkpt>
      <trkpt lat="44.63288" lon="5.82566">
        <ele>1412.1</ele>
        <time>2015-06-30T14:11:49Z</time>
      </trkpt>
      <trkpt lat="44.63287" lon="5.82575">
        <ele>1415.4</ele>
        <time>2015-06-30T14:11:54Z</time>
      </trkpt>
      <trkpt lat="44.63286" lon="5.82585">
        <ele>1417.8</ele>
        <time>2015-06-30T14:11:59Z</time>
      </trkpt>
      <trkpt lat="44.63285" lon="5.82593">
        <ele>1418.7</ele>
        <time>2015-06-30T14:12:04Z</time>
      </trkpt>
      <trkpt lat="44.63284" lon="5.826">
        <ele>1416.5</ele>
        <time>2015-06-30T14:12:09Z</time>
      </trkpt>
      <trkpt lat="44.63283" lon="5.8261">
        <ele>1418.8</ele>
        <time>2015-06-30T14:12:14Z</time>
      </trkpt>
      <trkpt lat="44.63281" lon="5.82618">
        <ele>1417.3</ele>
        <time>2015-06-30T14:12:19Z</time>
      </trkpt>
      <trkpt lat="44.63279" lon="5.82625">
        <ele>1415.4</ele>
        <time>2015-06-30T14:12:24Z</time>
      </trkpt>
      <trkpt lat="44.63276" lon="5.82631">
        <ele>1411.9</ele>
        <time>2015-06-30T14:12:29Z</time>
      </trkpt>
      <trkpt lat="44.6327" lon="5.82635">
        <ele>1406.7</ele>
        <time>2015-06-30T14:12:34Z</time>
      </trkpt>
      <trkpt lat="44.63265" lon="5.82639">
        <ele>1402.9</ele>
        <time>2015-06-30T14:12:39Z</time>
      </trkpt>
      <trkpt lat="44.63259" lon="5.82643">
        <ele>1399</ele>
        <time>2015-06-30T14:12:44Z</time>
      </trkpt>
      <trkpt lat="44.63253" lon="5.82646">
        <ele>1393.1</ele>
        <time>2015-06-30T14:12:49Z</time>
      </trkpt>
      <trkpt lat="44.63248" lon="5.82651">
        <ele>1390.3</ele>
        <time>2015-06-30T14:12:54Z</time>
      </trkpt>
      <trkpt lat="44.63244" lon="5.82657">
        <ele>1390.6</ele>
        <time>2015-06-30T14:12:59Z</time>
      </trkpt>
      <trkpt lat="44.63242" lon="5.82665">
        <ele>1401</ele>
        <time>2015-06-30T14:13:04Z</time>
      </trkpt>
      <trkpt lat="44.6324" lon="5.82675">
        <ele>1405.4</ele>
        <time>2015-06-30T14:13:09Z</time>
      </trkpt>
      <trkpt lat="44.6324" lon="5.82685">
        <ele>1416.4</ele>
        <time>2015-06-30T14:13:14Z</time>
      </trkpt>
      <trkpt lat="44.63242" lon="5.82696">
        <ele>1426.6</ele>
        <time>2015-06-30T14:13:19Z</time>
      </trkpt>
      <trkpt lat="44.63247" lon="5.82702">
        <ele>1429.6</ele>
        <time>2015-06-30T14:13:24Z</time>
      </trkpt>
      <trkpt lat="44.63252" lon="5.82707">
        <ele>1427.9</ele>
        <time>2015-06-30T14:13:29Z</time>
      </trkpt>
      <trkpt lat="44.63257" lon="5.82713">
        <ele>1426.1</ele>
        <time>2015-06-30T14:13:34Z</time>
      </trkpt>
      <trkpt lat="44.6326" lon="5.8272">
        <ele>1424.8</ele>
        <time>2015-06-30T14:13:39Z</time>
      </trkpt>
      <trkpt lat="44.63264" lon="5.82726">
        <ele>1423.9</ele>
        <time>2015-06-30T14:13:44Z</time>
      </trkpt>
      <trkpt lat="44.63268" lon="5.82731">
        <ele>1422.4</ele>
        <time>2015-06-30T14:13:49Z</time>
      </trkpt>
      <trkpt lat="44.63271" lon="5.82736">
        <ele>1421.5</ele>
        <time>2015-06-30T14:13:54Z</time>
      </trkpt>
      <trkpt lat="44.63275" lon="5.82742">
        <ele>1420.2</ele>
        <time>2015-06-30T14:13:59Z</time>
      </trkpt>
      <trkpt lat="44.6328" lon="5.82747">
        <ele>1419.6</ele>
        <time>2015-06-30T14:14:04Z</time>
      </trkpt>
      <trkpt lat="44.63283" lon="5.82754">
        <ele>1420.2</ele>
        <time>2015-06-30T14:14:09Z</time>
      </trkpt>
      <trkpt lat="44.63287" lon="5.8276">
        <ele>1420.3</ele>
        <time>2015-06-30T14:14:14Z</time>
      </trkpt>
      <trkpt lat="44.63291" lon="5.82765">
        <ele>1422.1</ele>
        <time>2015-06-30T14:14:19Z</time>
      </trkpt>
      <trkpt lat="44.63294" lon="5.82771">
        <ele>1421.3</ele>
        <time>2015-06-30T14:14:24Z</time>
      </trkpt>
      <trkpt lat="44.63297" lon="5.82778">
        <ele>1420.3</ele>
        <time>2015-06-30T14:14:29Z</time>
      </trkpt>
      <trkpt lat="44.63298" lon="5.82787">
        <ele>1418.3</ele>
        <time>2015-06-30T14:14:34Z</time>
      </trkpt>
      <trkpt lat="44.63297" lon="5.82795">
        <ele>1412.8</ele>
        <time>2015-06-30T14:14:39Z</time>
      </trkpt>
      <trkpt lat="44.63294" lon="5.82803">
        <ele>1412.9</ele>
        <time>2015-06-30T14:14:44Z</time>
      </trkpt>
      <trkpt lat="44.6329" lon="5.82812">
        <ele>1413.2</ele>
        <time>2015-06-30T14:14:49Z</time>
      </trkpt>
      <trkpt lat="44.63286" lon="5.82821">
        <ele>1414.5</ele>
        <time>2015-06-30T14:14:54Z</time>
      </trkpt>
      <trkpt lat="44.63284" lon="5.82827">
        <ele>1411.2</ele>
        <time>2015-06-30T14:14:59Z</time>
      </trkpt>
      <trkpt lat="44.63284" lon="5.82836">
        <ele>1414</ele>
        <time>2015-06-30T14:15:04Z</time>
      </trkpt>
      <trkpt lat="44.63286" lon="5.82844">
        <ele>1420.4</ele>
        <time>2015-06-30T14:15:09Z</time>
      </trkpt>
      <trkpt lat="44.63293" lon="5.82851">
        <ele>1432.5</ele>
        <time>2015-06-30T14:15:14Z</time>
      </trkpt>
      <trkpt lat="44.63303" lon="5.82849">
        <ele>1436.7</ele>
        <time>2015-06-30T14:15:19Z</time>
      </trkpt>
      <trkpt lat="44.63311" lon="5.82848">
        <ele>1447.1</ele>
        <time>2015-06-30T14:15:24Z</time>
      </trkpt>
      <trkpt lat="44.63317" lon="5.82849">
        <ele>1445.2</ele>
        <time>2015-06-30T14:15:29Z</time>
      </trkpt>
      <trkpt lat="44.63324" lon="5.82851">
        <ele>1449.9</ele>
        <time>2015-06-30T14:15:34Z</time>
      </trkpt>
      <trkpt lat="44.63327" lon="5.82855">
        <ele>1448</ele>
        <time>2015-06-30T14:15:39Z</time>
      </trkpt>
      <trkpt lat="44.63333" lon="5.82857">
        <ele>1437.4</ele>
        <time>2015-06-30T14:15:44Z</time>
      </trkpt>
      <trkpt lat="44.63339" lon="5.82862">
        <ele>1432.2</ele>
        <time>2015-06-30T14:15:49Z</time>
      </trkpt>
      <trkpt lat="44.63344" lon="5.82868">
        <ele>1431.3</ele>
        <time>2015-06-30T14:15:54Z</time>
      </trkpt>
      <trkpt lat="44.63348" lon="5.82875">
        <ele>1428.5</ele>
        <time>2015-06-30T14:15:59Z</time>
      </trkpt>
      <trkpt lat="44.63352" lon="5.82881">
        <ele>1426.9</ele>
        <time>2015-06-30T14:16:04Z</time>
      </trkpt>
      <trkpt lat="44.63355" lon="5.82889">
        <ele>1426.4</ele>
        <time>2015-06-30T14:16:09Z</time>
      </trkpt>
      <trkpt lat="44.63356" lon="5.82896">
        <ele>1424.1</ele>
        <time>2015-06-30T14:16:14Z</time>
      </trkpt>
      <trkpt lat="44.63357" lon="5.82904">
        <ele>1423.1</ele>
        <time>2015-06-30T14:16:19Z</time>
      </trkpt>
      <trkpt lat="44.63358" lon="5.82912">
        <ele>1420.5</ele>
        <time>2015-06-30T14:16:24Z</time>
      </trkpt>
      <trkpt lat="44.6336" lon="5.82919">
        <ele>1420.2</ele>
        <time>2015-06-30T14:16:29Z</time>
      </trkpt>
      <trkpt lat="44.6336" lon="5.82926">
        <ele>1415.6</ele>
        <time>2015-06-30T14:16:34Z</time>
      </trkpt>
      <trkpt lat="44.63361" lon="5.82933">
        <ele>1415.7</ele>
        <time>2015-06-30T14:16:39Z</time>
      </trkpt>
      <trkpt lat="44.63364" lon="5.8294">
        <ele>1417.6</ele>
        <time>2015-06-30T14:16:44Z</time>
      </trkpt>
      <trkpt lat="44.63366" lon="5.82947">
        <ele>1415.2</ele>
        <time>2015-06-30T14:16:49Z</time>
      </trkpt>
      <trkpt lat="44.63365" lon="5.82957">
        <ele>1416.5</ele>
        <time>2015-06-30T14:16:54Z</time>
      </trkpt>
      <trkpt lat="44.63365" lon="5.82969">
        <ele>1422.2</ele>
        <time>2015-06-30T14:16:59Z</time>
      </trkpt>
      <trkpt lat="44.63366" lon="5.82981">
        <ele>1426.1</ele>
        <time>2015-06-30T14:17:04Z</time>
      </trkpt>
      <trkpt lat="44.63364" lon="5.8299">
        <ele>1423.2</ele>
        <time>2015-06-30T14:17:09Z</time>
      </trkpt>
      <trkpt lat="44.63366" lon="5.82997">
        <ele>1420.7</ele>
        <time>2015-06-30T14:17:14Z</time>
      </trkpt>
      <trkpt lat="44.63364" lon="5.83011">
        <ele>1419.5</ele>
        <time>2015-06-30T14:17:19Z</time>
      </trkpt>
      <trkpt lat="44.63364" lon="5.8302">
        <ele>1417.3</ele>
        <time>2015-06-30T14:17:24Z</time>
      </trkpt>
      <trkpt lat="44.63365" lon="5.83027">
        <ele>1415.6</ele>
        <time>2015-06-30T14:17:29Z</time>
      </trkpt>
      <trkpt lat="44.63366" lon="5.83034">
        <ele>1416.3</ele>
        <time>2015-06-30T14:17:34Z</time>
      </trkpt>
      <trkpt lat="44.63367" lon="5.83042">
        <ele>1415.1</ele>
        <time>2015-06-30T14:17:39Z</time>
      </trkpt>
      <trkpt lat="44.63367" lon="5.8305">
        <ele>1414.1</ele>
        <time>2015-06-30T14:17:44Z</time>
      </trkpt>
      <trkpt lat="44.63366" lon="5.8306">
        <ele>1414.8</ele>
        <time>2015-06-30T14:17:49Z</time>
      </trkpt>
      <trkpt lat="44.63365" lon="5.83069">
        <ele>1414.7</ele>
        <time>2015-06-30T14:17:54Z</time>
      </trkpt>
      <trkpt lat="44.63362" lon="5.83077">
        <ele>1415.7</ele>
        <time>2015-06-30T14:17:59Z</time>
      </trkpt>
      <trkpt lat="44.63363" lon="5.83086">
        <ele>1416.7</ele>
        <time>2015-06-30T14:18:04Z</time>
      </trkpt>
      <trkpt lat="44.63365" lon="5.83095">
        <ele>1421.8</ele>
        <time>2015-06-30T14:18:09Z</time>
      </trkpt>
      <trkpt lat="44.63368" lon="5.83105">
        <ele>1423.3</ele>
        <time>2015-06-30T14:18:14Z</time>
      </trkpt>
      <trkpt lat="44.63374" lon="5.83109">
        <ele>1423.7</ele>
        <time>2015-06-30T14:18:19Z</time>
      </trkpt>
      <trkpt lat="44.63379" lon="5.83113">
        <ele>1419.2</ele>
        <time>2015-06-30T14:18:24Z</time>
      </trkpt>
      <trkpt lat="44.63385" lon="5.83114">
        <ele>1417.6</ele>
        <time>2015-06-30T14:18:29Z</time>
      </trkpt>
      <trkpt lat="44.6339" lon="5.83117">
        <ele>1415.4</ele>
        <time>2015-06-30T14:18:34Z</time>
      </trkpt>
      <trkpt lat="44.63394" lon="5.83123">
        <ele>1414.7</ele>
        <time>2015-06-30T14:18:39Z</time>
      </trkpt>
      <trkpt lat="44.63396" lon="5.83129">
        <ele>1413.2</ele>
        <time>2015-06-30T14:18:44Z</time>
      </trkpt>
      <trkpt lat="44.63397" lon="5.83133">
        <ele>1408.8</ele>
        <time>2015-06-30T14:18:49Z</time>
      </trkpt>
      <trkpt lat="44.634" lon="5.8314">
        <ele>1411.1</ele>
        <time>2015-06-30T14:18:54Z</time>
      </trkpt>
      <trkpt lat="44.63401" lon="5.83147">
        <ele>1414.4</ele>
        <time>2015-06-30T14:18:59Z</time>
      </trkpt>
      <trkpt lat="44.63401" lon="5.83156">
        <ele>1417.1</ele>
        <time>2015-06-30T14:19:04Z</time>
      </trkpt>
      <trkpt lat="44.63401" lon="5.83163">
        <ele>1415</ele>
        <time>2015-06-30T14:19:09Z</time>
      </trkpt>
      <trkpt lat="44.63401" lon="5.83173">
        <ele>1411.9</ele>
        <time>2015-06-30T14:19:14Z</time>
      </trkpt>
      <trkpt lat="44.63402" lon="5.8318">
        <ele>1409</ele>
        <time>2015-06-30T14:19:19Z</time>
      </trkpt>
      <trkpt lat="44.63406" lon="5.83187">
        <ele>1406.7</ele>
        <time>2015-06-30T14:19:24Z</time>
      </trkpt>
      <trkpt lat="44.63409" lon="5.83194">
        <ele>1406.7</ele>
        <time>2015-06-30T14:19:29Z</time>
      </trkpt>
      <trkpt lat="44.63414" lon="5.83198">
        <ele>1404.7</ele>
        <time>2015-06-30T14:19:34Z</time>
      </trkpt>
      <trkpt lat="44.63419" lon="5.83202">
        <ele>1404.2</ele>
        <time>2015-06-30T14:19:39Z</time>
      </trkpt>
      <trkpt lat="44.63423" lon="5.83209">
        <ele>1403.9</ele>
        <time>2015-06-30T14:19:44Z</time>
      </trkpt>
      <trkpt lat="44.63425" lon="5.83217">
        <ele>1401.1</ele>
        <time>2015-06-30T14:19:49Z</time>
      </trkpt>
      <trkpt lat="44.63429" lon="5.83224">
        <ele>1399.8</ele>
        <time>2015-06-30T14:19:54Z</time>
      </trkpt>
      <trkpt lat="44.63435" lon="5.83228">
        <ele>1398.3</ele>
        <time>2015-06-30T14:19:59Z</time>
      </trkpt>
      <trkpt lat="44.6344" lon="5.83233">
        <ele>1397.3</ele>
        <time>2015-06-30T14:20:04Z</time>
      </trkpt>
      <trkpt lat="44.63442" lon="5.83241">
        <ele>1396.8</ele>
        <time>2015-06-30T14:20:09Z</time>
      </trkpt>
      <trkpt lat="44.63444" lon="5.83248">
        <ele>1394.8</ele>
        <time>2015-06-30T14:20:14Z</time>
      </trkpt>
      <trkpt lat="44.63448" lon="5.83253">
        <ele>1393</ele>
        <time>2015-06-30T14:20:19Z</time>
      </trkpt>
      <trkpt lat="44.63452" lon="5.83258">
        <ele>1393.1</ele>
        <time>2015-06-30T14:20:24Z</time>
      </trkpt>
      <trkpt lat="44.63455" lon="5.83265">
        <ele>1393.1</ele>
        <time>2015-06-30T14:20:29Z</time>
      </trkpt>
      <trkpt lat="44.63459" lon="5.83269">
        <ele>1392.3</ele>
        <time>2015-06-30T14:20:34Z</time>
      </trkpt>
      <trkpt lat="44.63464" lon="5.83274">
        <ele>1390.8</ele>
        <time>2015-06-30T14:20:39Z</time>
      </trkpt>
      <trkpt lat="44.63469" lon="5.83278">
        <ele>1388.8</ele>
        <time>2015-06-30T14:20:44Z</time>
      </trkpt>
      <trkpt lat="44.63471" lon="5.83286">
        <ele>1387.1</ele>
        <time>2015-06-30T14:20:49Z</time>
      </trkpt>
      <trkpt lat="44.63477" lon="5.83291">
        <ele>1386.2</ele>
        <time>2015-06-30T14:20:54Z</time>
      </trkpt>
      <trkpt lat="44.63479" lon="5.83297">
        <ele>1384.4</ele>
        <time>2015-06-30T14:20:59Z</time>
      </trkpt>
      <trkpt lat="44.63482" lon="5.83304">
        <ele>1383.4</ele>
        <time>2015-06-30T14:21:04Z</time>
      </trkpt>
      <trkpt lat="44.63485" lon="5.8331">
        <ele>1382.6</ele>
        <time>2015-06-30T14:21:09Z</time>
      </trkpt>
      <trkpt lat="44.63487" lon="5.83317">
        <ele>1381.2</ele>
        <time>2015-06-30T14:21:14Z</time>
      </trkpt>
      <trkpt lat="44.63491" lon="5.83321">
        <ele>1379.9</ele>
        <time>2015-06-30T14:21:19Z</time>
      </trkpt>
      <trkpt lat="44.63489" lon="5.83331">
        <ele>1378.2</ele>
        <time>2015-06-30T14:21:24Z</time>
      </trkpt>
      <trkpt lat="44.63491" lon="5.83337">
        <ele>1376.7</ele>
        <time>2015-06-30T14:21:29Z</time>
      </trkpt>
      <trkpt lat="44.63496" lon="5.83342">
        <ele>1376.7</ele>
        <time>2015-06-30T14:21:34Z</time>
      </trkpt>
      <trkpt lat="44.63502" lon="5.83344">
        <ele>1376.5</ele>
        <time>2015-06-30T14:21:39Z</time>
      </trkpt>
      <trkpt lat="44.63506" lon="5.8335">
        <ele>1375.8</ele>
        <time>2015-06-30T14:21:44Z</time>
      </trkpt>
      <trkpt lat="44.63509" lon="5.83357">
        <ele>1375.8</ele>
        <time>2015-06-30T14:21:49Z</time>
      </trkpt>
      <trkpt lat="44.63513" lon="5.83362">
        <ele>1375.5</ele>
        <time>2015-06-30T14:21:54Z</time>
      </trkpt>
      <trkpt lat="44.63516" lon="5.83369">
        <ele>1375.6</ele>
        <time>2015-06-30T14:21:59Z</time>
      </trkpt>
      <trkpt lat="44.6352" lon="5.83375">
        <ele>1375.8</ele>
        <time>2015-06-30T14:22:04Z</time>
      </trkpt>
      <trkpt lat="44.63522" lon="5.83383">
        <ele>1376.2</ele>
        <time>2015-06-30T14:22:09Z</time>
      </trkpt>
      <trkpt lat="44.63525" lon="5.8339">
        <ele>1376.5</ele>
        <time>2015-06-30T14:22:14Z</time>
      </trkpt>
      <trkpt lat="44.63526" lon="5.83397">
        <ele>1376.9</ele>
        <time>2015-06-30T14:22:19Z</time>
      </trkpt>
      <trkpt lat="44.63526" lon="5.83406">
        <ele>1376.9</ele>
        <time>2015-06-30T14:22:24Z</time>
      </trkpt>
      <trkpt lat="44.6353" lon="5.83413">
        <ele>1376.9</ele>
        <time>2015-06-30T14:22:29Z</time>
      </trkpt>
      <trkpt lat="44.63531" lon="5.83421">
        <ele>1375.6</ele>
        <time>2015-06-30T14:22:34Z</time>
      </trkpt>
      <trkpt lat="44.63536" lon="5.83427">
        <ele>1376.1</ele>
        <time>2015-06-30T14:22:39Z</time>
      </trkpt>
      <trkpt lat="44.6354" lon="5.83433">
        <ele>1374.9</ele>
        <time>2015-06-30T14:22:44Z</time>
      </trkpt>
      <trkpt lat="44.63543" lon="5.83441">
        <ele>1373.5</ele>
        <time>2015-06-30T14:22:49Z</time>
      </trkpt>
      <trkpt lat="44.63548" lon="5.83445">
        <ele>1372.3</ele>
        <time>2015-06-30T14:22:54Z</time>
      </trkpt>
      <trkpt lat="44.6355" lon="5.83451">
        <ele>1370.7</ele>
        <time>2015-06-30T14:22:59Z</time>
      </trkpt>
      <trkpt lat="44.63553" lon="5.83456">
        <ele>1368.9</ele>
        <time>2015-06-30T14:23:04Z</time>
      </trkpt>
      <trkpt lat="44.63557" lon="5.83462">
        <ele>1367</ele>
        <time>2015-06-30T14:23:09Z</time>
      </trkpt>
      <trkpt lat="44.63559" lon="5.83468">
        <ele>1364.3</ele>
        <time>2015-06-30T14:23:14Z</time>
      </trkpt>
      <trkpt lat="44.63562" lon="5.83475">
        <ele>1361.8</ele>
        <time>2015-06-30T14:23:19Z</time>
      </trkpt>
      <trkpt lat="44.63566" lon="5.83481">
        <ele>1360.7</ele>
        <time>2015-06-30T14:23:24Z</time>
      </trkpt>
      <trkpt lat="44.6357" lon="5.83488">
        <ele>1360.3</ele>
        <time>2015-06-30T14:23:29Z</time>
      </trkpt>
      <trkpt lat="44.63573" lon="5.83495">
        <ele>1358.7</ele>
        <time>2015-06-30T14:23:34Z</time>
      </trkpt>
      <trkpt lat="44.63576" lon="5.83502">
        <ele>1358</ele>
        <time>2015-06-30T14:23:39Z</time>
      </trkpt>
      <trkpt lat="44.63581" lon="5.83508">
        <ele>1358.1</ele>
        <time>2015-06-30T14:23:44Z</time>
      </trkpt>
      <trkpt lat="44.63583" lon="5.83515">
        <ele>1356.2</ele>
        <time>2015-06-30T14:23:49Z</time>
      </trkpt>
      <trkpt lat="44.63586" lon="5.83523">
        <ele>1355.6</ele>
        <time>2015-06-30T14:23:54Z</time>
      </trkpt>
      <trkpt lat="44.63591" lon="5.83528">
        <ele>1355.3</ele>
        <time>2015-06-30T14:23:59Z</time>
      </trkpt>
      <trkpt lat="44.63595" lon="5.83535">
        <ele>1354.2</ele>
        <time>2015-06-30T14:24:04Z</time>
      </trkpt>
      <trkpt lat="44.63598" lon="5.83542">
        <ele>1353.6</ele>
        <time>2015-06-30T14:24:09Z</time>
      </trkpt>
      <trkpt lat="44.63602" lon="5.83548">
        <ele>1353.6</ele>
        <time>2015-06-30T14:24:14Z</time>
      </trkpt>
      <trkpt lat="44.63607" lon="5.83554">
        <ele>1352.9</ele>
        <time>2015-06-30T14:24:19Z</time>
      </trkpt>
      <trkpt lat="44.63609" lon="5.83561">
        <ele>1350.5</ele>
        <time>2015-06-30T14:24:24Z</time>
      </trkpt>
      <trkpt lat="44.63614" lon="5.83567">
        <ele>1349.6</ele>
        <time>2015-06-30T14:24:29Z</time>
      </trkpt>
      <trkpt lat="44.63619" lon="5.83572">
        <ele>1350.6</ele>
        <time>2015-06-30T14:24:34Z</time>
      </trkpt>
      <trkpt lat="44.63627" lon="5.83573">
        <ele>1354.6</ele>
        <time>2015-06-30T14:24:39Z</time>
      </trkpt>
      <trkpt lat="44.6363" lon="5.8358">
        <ele>1353</ele>
        <time>2015-06-30T14:24:44Z</time>
      </trkpt>
      <trkpt lat="44.63634" lon="5.83576">
        <ele>1356.9</ele>
        <time>2015-06-30T14:24:49Z</time>
      </trkpt>
      <trkpt lat="44.63636" lon="5.83574">
        <ele>1357.3</ele>
        <time>2015-06-30T14:24:54Z</time>
      </trkpt>
      <trkpt lat="44.63637" lon="5.83574">
        <ele>1352.2</ele>
        <time>2015-06-30T14:24:59Z</time>
      </trkpt>
      <trkpt lat="44.63638" lon="5.83574">
        <ele>1349.6</ele>
        <time>2015-06-30T14:25:04Z</time>
      </trkpt>
      <trkpt lat="44.63643" lon="5.83577">
        <ele>1353</ele>
        <time>2015-06-30T14:25:09Z</time>
      </trkpt>
      <trkpt lat="44.63644" lon="5.83585">
        <ele>1353.6</ele>
        <time>2015-06-30T14:25:14Z</time>
      </trkpt>
      <trkpt lat="44.63646" lon="5.83592">
        <ele>1351.4</ele>
        <time>2015-06-30T14:25:19Z</time>
      </trkpt>
      <trkpt lat="44.63649" lon="5.83598">
        <ele>1349.8</ele>
        <time>2015-06-30T14:25:24Z</time>
      </trkpt>
      <trkpt lat="44.63653" lon="5.83605">
        <ele>1351.4</ele>
        <time>2015-06-30T14:25:29Z</time>
      </trkpt>
      <trkpt lat="44.63659" lon="5.83609">
        <ele>1354.6</ele>
        <time>2015-06-30T14:25:34Z</time>
      </trkpt>
      <trkpt lat="44.63664" lon="5.83611">
        <ele>1357.1</ele>
        <time>2015-06-30T14:25:39Z</time>
      </trkpt>
      <trkpt lat="44.63669" lon="5.83616">
        <ele>1359.5</ele>
        <time>2015-06-30T14:25:44Z</time>
      </trkpt>
      <trkpt lat="44.63672" lon="5.83621">
        <ele>1371.6</ele>
        <time>2015-06-30T14:25:49Z</time>
      </trkpt>
      <trkpt lat="44.63675" lon="5.83624">
        <ele>1371.2</ele>
        <time>2015-06-30T14:25:54Z</time>
      </trkpt>
      <trkpt lat="44.6368" lon="5.83628">
        <ele>1366.1</ele>
        <time>2015-06-30T14:25:59Z</time>
      </trkpt>
      <trkpt lat="44.63683" lon="5.83633">
        <ele>1359.9</ele>
        <time>2015-06-30T14:26:04Z</time>
      </trkpt>
      <trkpt lat="44.63688" lon="5.83635">
        <ele>1353.1</ele>
        <time>2015-06-30T14:26:09Z</time>
      </trkpt>
      <trkpt lat="44.63691" lon="5.83641">
        <ele>1348.4</ele>
        <time>2015-06-30T14:26:14Z</time>
      </trkpt>
      <trkpt lat="44.63694" lon="5.83648">
        <ele>1348.9</ele>
        <time>2015-06-30T14:26:19Z</time>
      </trkpt>
      <trkpt lat="44.63699" lon="5.83653">
        <ele>1347.4</ele>
        <time>2015-06-30T14:26:24Z</time>
      </trkpt>
      <trkpt lat="44.63703" lon="5.83657">
        <ele>1346.3</ele>
        <time>2015-06-30T14:26:29Z</time>
      </trkpt>
      <trkpt lat="44.63706" lon="5.83664">
        <ele>1345.9</ele>
        <time>2015-06-30T14:26:34Z</time>
      </trkpt>
      <trkpt lat="44.63708" lon="5.83671">
        <ele>1344</ele>
        <time>2015-06-30T14:26:39Z</time>
      </trkpt>
      <trkpt lat="44.63709" lon="5.83679">
        <ele>1342.8</ele>
        <time>2015-06-30T14:26:44Z</time>
      </trkpt>
      <trkpt lat="44.63712" lon="5.83685">
        <ele>1341.5</ele>
        <time>2015-06-30T14:26:49Z</time>
      </trkpt>
      <trkpt lat="44.63715" lon="5.83692">
        <ele>1340.3</ele>
        <time>2015-06-30T14:26:54Z</time>
      </trkpt>
      <trkpt lat="44.63718" lon="5.83697">
        <ele>1340.3</ele>
        <time>2015-06-30T14:26:59Z</time>
      </trkpt>
      <trkpt lat="44.63723" lon="5.83702">
        <ele>1339.8</ele>
        <time>2015-06-30T14:27:04Z</time>
      </trkpt>
      <trkpt lat="44.63725" lon="5.8371">
        <ele>1339.6</ele>
        <time>2015-06-30T14:27:09Z</time>
      </trkpt>
      <trkpt lat="44.63727" lon="5.83716">
        <ele>1338.6</ele>
        <time>2015-06-30T14:27:14Z</time>
      </trkpt>
      <trkpt lat="44.6373" lon="5.83722">
        <ele>1338.1</ele>
        <time>2015-06-30T14:27:19Z</time>
      </trkpt>
      <trkpt lat="44.63731" lon="5.83731">
        <ele>1339.3</ele>
        <time>2015-06-30T14:27:24Z</time>
      </trkpt>
      <trkpt lat="44.63735" lon="5.83737">
        <ele>1339</ele>
        <time>2015-06-30T14:27:29Z</time>
      </trkpt>
      <trkpt lat="44.63737" lon="5.83745">
        <ele>1340.8</ele>
        <time>2015-06-30T14:27:34Z</time>
      </trkpt>
      <trkpt lat="44.63738" lon="5.83752">
        <ele>1343</ele>
        <time>2015-06-30T14:27:39Z</time>
      </trkpt>
      <trkpt lat="44.63741" lon="5.83758">
        <ele>1342.6</ele>
        <time>2015-06-30T14:27:44Z</time>
      </trkpt>
      <trkpt lat="44.63743" lon="5.83766">
        <ele>1341.9</ele>
        <time>2015-06-30T14:27:49Z</time>
      </trkpt>
      <trkpt lat="44.63742" lon="5.8377">
        <ele>1341.8</ele>
        <time>2015-06-30T14:27:54Z</time>
      </trkpt>
      <trkpt lat="44.63744" lon="5.83769">
        <ele>1342</ele>
        <time>2015-06-30T14:27:59Z</time>
      </trkpt>
      <trkpt lat="44.63745" lon="5.83772">
        <ele>1339.4</ele>
        <time>2015-06-30T14:28:04Z</time>
      </trkpt>
      <trkpt lat="44.63746" lon="5.83779">
        <ele>1338</ele>
        <time>2015-06-30T14:28:09Z</time>
      </trkpt>
      <trkpt lat="44.63746" lon="5.83787">
        <ele>1337.1</ele>
        <time>2015-06-30T14:28:14Z</time>
      </trkpt>
      <trkpt lat="44.63746" lon="5.83795">
        <ele>1335.5</ele>
        <time>2015-06-30T14:28:19Z</time>
      </trkpt>
      <trkpt lat="44.63746" lon="5.83803">
        <ele>1335.1</ele>
        <time>2015-06-30T14:28:24Z</time>
      </trkpt>
      <trkpt lat="44.63744" lon="5.83811">
        <ele>1335</ele>
        <time>2015-06-30T14:28:29Z</time>
      </trkpt>
      <trkpt lat="44.63744" lon="5.83819">
        <ele>1334.3</ele>
        <time>2015-06-30T14:28:34Z</time>
      </trkpt>
      <trkpt lat="44.63742" lon="5.83827">
        <ele>1333.9</ele>
        <time>2015-06-30T14:28:39Z</time>
      </trkpt>
      <trkpt lat="44.63741" lon="5.83835">
        <ele>1333.5</ele>
        <time>2015-06-30T14:28:44Z</time>
      </trkpt>
      <trkpt lat="44.6374" lon="5.83843">
        <ele>1332.8</ele>
        <time>2015-06-30T14:28:49Z</time>
      </trkpt>
      <trkpt lat="44.63739" lon="5.83851">
        <ele>1332.3</ele>
        <time>2015-06-30T14:28:54Z</time>
      </trkpt>
      <trkpt lat="44.63738" lon="5.83859">
        <ele>1331.3</ele>
        <time>2015-06-30T14:28:59Z</time>
      </trkpt>
      <trkpt lat="44.63736" lon="5.83867">
        <ele>1330.1</ele>
        <time>2015-06-30T14:29:04Z</time>
      </trkpt>
      <trkpt lat="44.63735" lon="5.83875">
        <ele>1330.5</ele>
        <time>2015-06-30T14:29:09Z</time>
      </trkpt>
      <trkpt lat="44.63735" lon="5.83884">
        <ele>1330.8</ele>
        <time>2015-06-30T14:29:14Z</time>
      </trkpt>
      <trkpt lat="44.63733" lon="5.83894">
        <ele>1330.8</ele>
        <time>2015-06-30T14:29:19Z</time>
      </trkpt>
      <trkpt lat="44.63738" lon="5.83898">
        <ele>1331.3</ele>
        <time>2015-06-30T14:29:24Z</time>
      </trkpt>
      <trkpt lat="44.63741" lon="5.83894">
        <ele>1330.6</ele>
        <time>2015-06-30T14:29:29Z</time>
      </trkpt>
      <trkpt lat="44.63744" lon="5.83888">
        <ele>1330.7</ele>
        <time>2015-06-30T14:29:34Z</time>
      </trkpt>
      <trkpt lat="44.63747" lon="5.83887">
        <ele>1331.3</ele>
        <time>2015-06-30T14:29:39Z</time>
      </trkpt>
      <trkpt lat="44.63747" lon="5.83888">
        <ele>1332.2</ele>
        <time>2015-06-30T14:29:44Z</time>
      </trkpt>
      <trkpt lat="44.63747" lon="5.83889">
        <ele>1333.6</ele>
        <time>2015-06-30T14:29:49Z</time>
      </trkpt>
      <trkpt lat="44.63748" lon="5.83892">
        <ele>1335.7</ele>
        <time>2015-06-30T14:29:54Z</time>
      </trkpt>
      <trkpt lat="44.63746" lon="5.83886">
        <ele>1331.5</ele>
        <time>2015-06-30T14:29:59Z</time>
      </trkpt>
      <trkpt lat="44.63745" lon="5.83877">
        <ele>1327.6</ele>
        <time>2015-06-30T14:30:04Z</time>
      </trkpt>
      <trkpt lat="44.63745" lon="5.83869">
        <ele>1326.3</ele>
        <time>2015-06-30T14:30:09Z</time>
      </trkpt>
      <trkpt lat="44.63747" lon="5.8386">
        <ele>1323.1</ele>
        <time>2015-06-30T14:30:14Z</time>
      </trkpt>
      <trkpt lat="44.63748" lon="5.83853">
        <ele>1321.3</ele>
        <time>2015-06-30T14:30:19Z</time>
      </trkpt>
      <trkpt lat="44.6375" lon="5.83845">
        <ele>1315.2</ele>
        <time>2015-06-30T14:30:24Z</time>
      </trkpt>
      <trkpt lat="44.63751" lon="5.83838">
        <ele>1313.3</ele>
        <time>2015-06-30T14:30:29Z</time>
      </trkpt>
      <trkpt lat="44.63752" lon="5.83831">
        <ele>1312.5</ele>
        <time>2015-06-30T14:30:34Z</time>
      </trkpt>
      <trkpt lat="44.63754" lon="5.83823">
        <ele>1310.3</ele>
        <time>2015-06-30T14:30:39Z</time>
      </trkpt>
      <trkpt lat="44.63757" lon="5.83816">
        <ele>1310.3</ele>
        <time>2015-06-30T14:30:44Z</time>
      </trkpt>
      <trkpt lat="44.6376" lon="5.83808">
        <ele>1310.1</ele>
        <time>2015-06-30T14:30:49Z</time>
      </trkpt>
      <trkpt lat="44.63762" lon="5.838">
        <ele>1309.8</ele>
        <time>2015-06-30T14:30:54Z</time>
      </trkpt>
      <trkpt lat="44.63767" lon="5.8379">
        <ele>1312.4</ele>
        <time>2015-06-30T14:30:59Z</time>
      </trkpt>
      <trkpt lat="44.63768" lon="5.83782">
        <ele>1313.2</ele>
        <time>2015-06-30T14:31:04Z</time>
      </trkpt>
      <trkpt lat="44.63767" lon="5.83782">
        <ele>1314.2</ele>
        <time>2015-06-30T14:31:09Z</time>
      </trkpt>
      <trkpt lat="44.63768" lon="5.83777">
        <ele>1314.3</ele>
        <time>2015-06-30T14:31:14Z</time>
      </trkpt>
      <trkpt lat="44.63772" lon="5.83774">
        <ele>1315.8</ele>
        <time>2015-06-30T14:31:19Z</time>
      </trkpt>
      <trkpt lat="44.63773" lon="5.83767">
        <ele>1316.2</ele>
        <time>2015-06-30T14:31:24Z</time>
      </trkpt>
      <trkpt lat="44.63773" lon="5.83758">
        <ele>1315.6</ele>
        <time>2015-06-30T14:31:29Z</time>
      </trkpt>
      <trkpt lat="44.63778" lon="5.83752">
        <ele>1314.6</ele>
        <time>2015-06-30T14:31:34Z</time>
      </trkpt>
      <trkpt lat="44.63781" lon="5.83745">
        <ele>1312.9</ele>
        <time>2015-06-30T14:31:39Z</time>
      </trkpt>
      <trkpt lat="44.63788" lon="5.83739">
        <ele>1313.8</ele>
        <time>2015-06-30T14:31:44Z</time>
      </trkpt>
      <trkpt lat="44.63787" lon="5.83731">
        <ele>1313.6</ele>
        <time>2015-06-30T14:31:49Z</time>
      </trkpt>
      <trkpt lat="44.63789" lon="5.83724">
        <ele>1313.3</ele>
        <time>2015-06-30T14:31:54Z</time>
      </trkpt>
      <trkpt lat="44.63789" lon="5.83717">
        <ele>1314.2</ele>
        <time>2015-06-30T14:31:59Z</time>
      </trkpt>
      <trkpt lat="44.63788" lon="5.83708">
        <ele>1313.9</ele>
        <time>2015-06-30T14:32:04Z</time>
      </trkpt>
      <trkpt lat="44.63788" lon="5.83698">
        <ele>1310.6</ele>
        <time>2015-06-30T14:32:09Z</time>
      </trkpt>
      <trkpt lat="44.63789" lon="5.83691">
        <ele>1310</ele>
        <time>2015-06-30T14:32:14Z</time>
      </trkpt>
      <trkpt lat="44.63787" lon="5.83681">
        <ele>1308.1</ele>
        <time>2015-06-30T14:32:19Z</time>
      </trkpt>
      <trkpt lat="44.63787" lon="5.83673">
        <ele>1305</ele>
        <time>2015-06-30T14:32:24Z</time>
      </trkpt>
      <trkpt lat="44.63789" lon="5.83666">
        <ele>1302.9</ele>
        <time>2015-06-30T14:32:29Z</time>
      </trkpt>
      <trkpt lat="44.63785" lon="5.83656">
        <ele>1300.1</ele>
        <time>2015-06-30T14:32:34Z</time>
      </trkpt>
      <trkpt lat="44.63785" lon="5.8365">
        <ele>1301.8</ele>
        <time>2015-06-30T14:32:39Z</time>
      </trkpt>
      <trkpt lat="44.63784" lon="5.83641">
        <ele>1299.6</ele>
        <time>2015-06-30T14:32:44Z</time>
      </trkpt>
      <trkpt lat="44.63781" lon="5.83632">
        <ele>1297.6</ele>
        <time>2015-06-30T14:32:49Z</time>
      </trkpt>
      <trkpt lat="44.63779" lon="5.83624">
        <ele>1295</ele>
        <time>2015-06-30T14:32:54Z</time>
      </trkpt>
      <trkpt lat="44.63779" lon="5.83617">
        <ele>1292.2</ele>
        <time>2015-06-30T14:32:59Z</time>
      </trkpt>
      <trkpt lat="44.63778" lon="5.83609">
        <ele>1290.4</ele>
        <time>2015-06-30T14:33:04Z</time>
      </trkpt>
      <trkpt lat="44.63776" lon="5.83601">
        <ele>1289.3</ele>
        <time>2015-06-30T14:33:09Z</time>
      </trkpt>
      <trkpt lat="44.63773" lon="5.83592">
        <ele>1285.7</ele>
        <time>2015-06-30T14:33:14Z</time>
      </trkpt>
      <trkpt lat="44.6377" lon="5.83582">
        <ele>1284.2</ele>
        <time>2015-06-30T14:33:19Z</time>
      </trkpt>
      <trkpt lat="44.63768" lon="5.83573">
        <ele>1283.9</ele>
        <time>2015-06-30T14:33:24Z</time>
      </trkpt>
      <trkpt lat="44.63765" lon="5.83566">
        <ele>1281.3</ele>
        <time>2015-06-30T14:33:29Z</time>
      </trkpt>
      <trkpt lat="44.63762" lon="5.83558">
        <ele>1282.3</ele>
        <time>2015-06-30T14:33:34Z</time>
      </trkpt>
      <trkpt lat="44.63758" lon="5.83551">
        <ele>1282</ele>
        <time>2015-06-30T14:33:39Z</time>
      </trkpt>
      <trkpt lat="44.63754" lon="5.83545">
        <ele>1281.6</ele>
        <time>2015-06-30T14:33:44Z</time>
      </trkpt>
      <trkpt lat="44.63749" lon="5.83538">
        <ele>1279.1</ele>
        <time>2015-06-30T14:33:49Z</time>
      </trkpt>
      <trkpt lat="44.63745" lon="5.83532">
        <ele>1277.4</ele>
        <time>2015-06-30T14:33:54Z</time>
      </trkpt>
      <trkpt lat="44.63741" lon="5.83525">
        <ele>1276.8</ele>
        <time>2015-06-30T14:33:59Z</time>
      </trkpt>
      <trkpt lat="44.63738" lon="5.83519">
        <ele>1277.6</ele>
        <time>2015-06-30T14:34:04Z</time>
      </trkpt>
      <trkpt lat="44.63733" lon="5.83512">
        <ele>1277.3</ele>
        <time>2015-06-30T14:34:09Z</time>
      </trkpt>
      <trkpt lat="44.63729" lon="5.83507">
        <ele>1275.4</ele>
        <time>2015-06-30T14:34:14Z</time>
      </trkpt>
      <trkpt lat="44.63725" lon="5.835">
        <ele>1272.2</ele>
        <time>2015-06-30T14:34:19Z</time>
      </trkpt>
      <trkpt lat="44.63721" lon="5.83497">
        <ele>1271</ele>
        <time>2015-06-30T14:34:24Z</time>
      </trkpt>
      <trkpt lat="44.63722" lon="5.83497">
        <ele>1271.6</ele>
        <time>2015-06-30T14:34:29Z</time>
      </trkpt>
      <trkpt lat="44.63724" lon="5.83496">
        <ele>1278.8</ele>
        <time>2015-06-30T14:34:34Z</time>
      </trkpt>
      <trkpt lat="44.63723" lon="5.83493">
        <ele>1281.5</ele>
        <time>2015-06-30T14:34:39Z</time>
      </trkpt>
      <trkpt lat="44.63717" lon="5.83485">
        <ele>1279.7</ele>
        <time>2015-06-30T14:34:44Z</time>
      </trkpt>
      <trkpt lat="44.63713" lon="5.83477">
        <ele>1279.7</ele>
        <time>2015-06-30T14:34:49Z</time>
      </trkpt>
      <trkpt lat="44.63711" lon="5.83472">
        <ele>1280.7</ele>
        <time>2015-06-30T14:34:54Z</time>
      </trkpt>
      <trkpt lat="44.63713" lon="5.83468">
        <ele>1282.1</ele>
        <time>2015-06-30T14:34:59Z</time>
      </trkpt>
      <trkpt lat="44.63715" lon="5.83462">
        <ele>1281.6</ele>
        <time>2015-06-30T14:35:04Z</time>
      </trkpt>
      <trkpt lat="44.6371" lon="5.83455">
        <ele>1278.5</ele>
        <time>2015-06-30T14:35:09Z</time>
      </trkpt>
      <trkpt lat="44.63705" lon="5.83448">
        <ele>1276.7</ele>
        <time>2015-06-30T14:35:14Z</time>
      </trkpt>
      <trkpt lat="44.637" lon="5.8344">
        <ele>1275.5</ele>
        <time>2015-06-30T14:35:19Z</time>
      </trkpt>
      <trkpt lat="44.63695" lon="5.83432">
        <ele>1275.1</ele>
        <time>2015-06-30T14:35:24Z</time>
      </trkpt>
      <trkpt lat="44.63691" lon="5.83424">
        <ele>1274.2</ele>
        <time>2015-06-30T14:35:29Z</time>
      </trkpt>
      <trkpt lat="44.63687" lon="5.83415">
        <ele>1274.2</ele>
        <time>2015-06-30T14:35:34Z</time>
      </trkpt>
      <trkpt lat="44.63686" lon="5.83407">
        <ele>1273.9</ele>
        <time>2015-06-30T14:35:39Z</time>
      </trkpt>
      <trkpt lat="44.63687" lon="5.83398">
        <ele>1274.3</ele>
        <time>2015-06-30T14:35:44Z</time>
      </trkpt>
      <trkpt lat="44.63692" lon="5.83393">
        <ele>1274.5</ele>
        <time>2015-06-30T14:35:49Z</time>
      </trkpt>
      <trkpt lat="44.63699" lon="5.83395">
        <ele>1274.7</ele>
        <time>2015-06-30T14:35:54Z</time>
      </trkpt>
      <trkpt lat="44.63701" lon="5.83403">
        <ele>1269.5</ele>
        <time>2015-06-30T14:35:59Z</time>
      </trkpt>
      <trkpt lat="44.637" lon="5.83413">
        <ele>1263.9</ele>
        <time>2015-06-30T14:36:04Z</time>
      </trkpt>
      <trkpt lat="44.63706" lon="5.83418">
        <ele>1265</ele>
        <time>2015-06-30T14:36:09Z</time>
      </trkpt>
      <trkpt lat="44.63712" lon="5.83423">
        <ele>1265.4</ele>
        <time>2015-06-30T14:36:14Z</time>
      </trkpt>
      <trkpt lat="44.63715" lon="5.83428">
        <ele>1264.9</ele>
        <time>2015-06-30T14:36:19Z</time>
      </trkpt>
      <trkpt lat="44.6372" lon="5.83434">
        <ele>1264.3</ele>
        <time>2015-06-30T14:36:24Z</time>
      </trkpt>
      <trkpt lat="44.63727" lon="5.83437">
        <ele>1265.4</ele>
        <time>2015-06-30T14:36:29Z</time>
      </trkpt>
      <trkpt lat="44.63732" lon="5.83441">
        <ele>1264.8</ele>
        <time>2015-06-30T14:36:34Z</time>
      </trkpt>
      <trkpt lat="44.63738" lon="5.83445">
        <ele>1263.8</ele>
        <time>2015-06-30T14:36:39Z</time>
      </trkpt>
      <trkpt lat="44.63741" lon="5.83451">
        <ele>1260.5</ele>
        <time>2015-06-30T14:36:44Z</time>
      </trkpt>
      <trkpt lat="44.63746" lon="5.83457">
        <ele>1260</ele>
        <time>2015-06-30T14:36:49Z</time>
      </trkpt>
      <trkpt lat="44.63751" lon="5.83462">
        <ele>1257</ele>
        <time>2015-06-30T14:36:54Z</time>
      </trkpt>
      <trkpt lat="44.63751" lon="5.83464">
        <ele>1253.6</ele>
        <time>2015-06-30T14:36:59Z</time>
      </trkpt>
      <trkpt lat="44.63754" lon="5.83466">
        <ele>1253.8</ele>
        <time>2015-06-30T14:37:04Z</time>
      </trkpt>
      <trkpt lat="44.63759" lon="5.83471">
        <ele>1253.4</ele>
        <time>2015-06-30T14:37:09Z</time>
      </trkpt>
      <trkpt lat="44.6377" lon="5.83471">
        <ele>1260.6</ele>
        <time>2015-06-30T14:37:14Z</time>
      </trkpt>
      <trkpt lat="44.63776" lon="5.83475">
        <ele>1265.9</ele>
        <time>2015-06-30T14:37:19Z</time>
      </trkpt>
      <trkpt lat="44.63786" lon="5.83477">
        <ele>1276.7</ele>
        <time>2015-06-30T14:37:24Z</time>
      </trkpt>
      <trkpt lat="44.63798" lon="5.83479">
        <ele>1291</ele>
        <time>2015-06-30T14:37:29Z</time>
      </trkpt>
      <trkpt lat="44.6381" lon="5.83479">
        <ele>1300</ele>
        <time>2015-06-30T14:37:34Z</time>
      </trkpt>
      <trkpt lat="44.63823" lon="5.83478">
        <ele>1301.7</ele>
        <time>2015-06-30T14:37:39Z</time>
      </trkpt>
      <trkpt lat="44.63824" lon="5.83477">
        <ele>1294.1</ele>
        <time>2015-06-30T14:37:44Z</time>
      </trkpt>
      <trkpt lat="44.63822" lon="5.83479">
        <ele>1281.7</ele>
        <time>2015-06-30T14:37:49Z</time>
      </trkpt>
      <trkpt lat="44.63822" lon="5.83483">
        <ele>1272.7</ele>
        <time>2015-06-30T14:37:54Z</time>
      </trkpt>
      <trkpt lat="44.63826" lon="5.83487">
        <ele>1267.1</ele>
        <time>2015-06-30T14:37:59Z</time>
      </trkpt>
      <trkpt lat="44.63829" lon="5.83493">
        <ele>1261.5</ele>
        <time>2015-06-30T14:38:04Z</time>
      </trkpt>
      <trkpt lat="44.63833" lon="5.83498">
        <ele>1257.9</ele>
        <time>2015-06-30T14:38:09Z</time>
      </trkpt>
      <trkpt lat="44.63838" lon="5.83503">
        <ele>1256.8</ele>
        <time>2015-06-30T14:38:14Z</time>
      </trkpt>
      <trkpt lat="44.63841" lon="5.83508">
        <ele>1257.1</ele>
        <time>2015-06-30T14:38:19Z</time>
      </trkpt>
      <trkpt lat="44.63846" lon="5.83513">
        <ele>1256.7</ele>
        <time>2015-06-30T14:38:24Z</time>
      </trkpt>
      <trkpt lat="44.63851" lon="5.83517">
        <ele>1256.3</ele>
        <time>2015-06-30T14:38:29Z</time>
      </trkpt>
      <trkpt lat="44.63855" lon="5.83522">
        <ele>1257.3</ele>
        <time>2015-06-30T14:38:34Z</time>
      </trkpt>
      <trkpt lat="44.63861" lon="5.83528">
        <ele>1256.5</ele>
        <time>2015-06-30T14:38:39Z</time>
      </trkpt>
      <trkpt lat="44.63865" lon="5.83534">
        <ele>1255.9</ele>
        <time>2015-06-30T14:38:44Z</time>
      </trkpt>
      <trkpt lat="44.63868" lon="5.83541">
        <ele>1255.1</ele>
        <time>2015-06-30T14:38:49Z</time>
      </trkpt>
      <trkpt lat="44.63875" lon="5.83545">
        <ele>1253.7</ele>
        <time>2015-06-30T14:38:54Z</time>
      </trkpt>
      <trkpt lat="44.63881" lon="5.83549">
        <ele>1252.7</ele>
        <time>2015-06-30T14:38:59Z</time>
      </trkpt>
      <trkpt lat="44.63886" lon="5.83554">
        <ele>1252.9</ele>
        <time>2015-06-30T14:39:04Z</time>
      </trkpt>
      <trkpt lat="44.63891" lon="5.83558">
        <ele>1251.5</ele>
        <time>2015-06-30T14:39:09Z</time>
      </trkpt>
      <trkpt lat="44.63896" lon="5.83563">
        <ele>1251.6</ele>
        <time>2015-06-30T14:39:14Z</time>
      </trkpt>
      <trkpt lat="44.63901" lon="5.83569">
        <ele>1251</ele>
        <time>2015-06-30T14:39:19Z</time>
      </trkpt>
      <trkpt lat="44.63904" lon="5.83576">
        <ele>1250.1</ele>
        <time>2015-06-30T14:39:24Z</time>
      </trkpt>
      <trkpt lat="44.63907" lon="5.83583">
        <ele>1249.1</ele>
        <time>2015-06-30T14:39:29Z</time>
      </trkpt>
      <trkpt lat="44.6391" lon="5.83591">
        <ele>1247.8</ele>
        <time>2015-06-30T14:39:34Z</time>
      </trkpt>
      <trkpt lat="44.63912" lon="5.83598">
        <ele>1245.4</ele>
        <time>2015-06-30T14:39:39Z</time>
      </trkpt>
      <trkpt lat="44.63913" lon="5.83607">
        <ele>1244.2</ele>
        <time>2015-06-30T14:39:44Z</time>
      </trkpt>
      <trkpt lat="44.63915" lon="5.83616">
        <ele>1242.7</ele>
        <time>2015-06-30T14:39:49Z</time>
      </trkpt>
      <trkpt lat="44.63916" lon="5.83625">
        <ele>1241</ele>
        <time>2015-06-30T14:39:54Z</time>
      </trkpt>
      <trkpt lat="44.63917" lon="5.83633">
        <ele>1239.6</ele>
        <time>2015-06-30T14:39:59Z</time>
      </trkpt>
      <trkpt lat="44.63919" lon="5.83642">
        <ele>1239</ele>
        <time>2015-06-30T14:40:04Z</time>
      </trkpt>
      <trkpt lat="44.6392" lon="5.83651">
        <ele>1239.8</ele>
        <time>2015-06-30T14:40:09Z</time>
      </trkpt>
      <trkpt lat="44.63921" lon="5.83661">
        <ele>1240.2</ele>
        <time>2015-06-30T14:40:14Z</time>
      </trkpt>
      <trkpt lat="44.63924" lon="5.8367">
        <ele>1239.9</ele>
        <time>2015-06-30T14:40:19Z</time>
      </trkpt>
      <trkpt lat="44.63928" lon="5.83676">
        <ele>1239.5</ele>
        <time>2015-06-30T14:40:24Z</time>
      </trkpt>
      <trkpt lat="44.63933" lon="5.83681">
        <ele>1241.8</ele>
        <time>2015-06-30T14:40:29Z</time>
      </trkpt>
      <trkpt lat="44.63938" lon="5.83683">
        <ele>1240.6</ele>
        <time>2015-06-30T14:40:34Z</time>
      </trkpt>
      <trkpt lat="44.63944" lon="5.83685">
        <ele>1241.3</ele>
        <time>2015-06-30T14:40:39Z</time>
      </trkpt>
      <trkpt lat="44.63949" lon="5.83687">
        <ele>1241.2</ele>
        <time>2015-06-30T14:40:44Z</time>
      </trkpt>
      <trkpt lat="44.63955" lon="5.83688">
        <ele>1240.3</ele>
        <time>2015-06-30T14:40:49Z</time>
      </trkpt>
      <trkpt lat="44.63961" lon="5.83691">
        <ele>1239.8</ele>
        <time>2015-06-30T14:40:54Z</time>
      </trkpt>
      <trkpt lat="44.63968" lon="5.83692">
        <ele>1240.1</ele>
        <time>2015-06-30T14:40:59Z</time>
      </trkpt>
      <trkpt lat="44.63974" lon="5.83694">
        <ele>1240.1</ele>
        <time>2015-06-30T14:41:04Z</time>
      </trkpt>
      <trkpt lat="44.63979" lon="5.83696">
        <ele>1242.1</ele>
        <time>2015-06-30T14:41:09Z</time>
      </trkpt>
      <trkpt lat="44.63986" lon="5.83701">
        <ele>1245.5</ele>
        <time>2015-06-30T14:41:14Z</time>
      </trkpt>
      <trkpt lat="44.63992" lon="5.83704">
        <ele>1245.1</ele>
        <time>2015-06-30T14:41:19Z</time>
      </trkpt>
      <trkpt lat="44.63997" lon="5.8371">
        <ele>1245.3</ele>
        <time>2015-06-30T14:41:24Z</time>
      </trkpt>
      <trkpt lat="44.63999" lon="5.83715">
        <ele>1245.4</ele>
        <time>2015-06-30T14:41:29Z</time>
      </trkpt>
      <trkpt lat="44.64001" lon="5.83721">
        <ele>1244.9</ele>
        <time>2015-06-30T14:41:34Z</time>
      </trkpt>
      <trkpt lat="44.64003" lon="5.83729">
        <ele>1244</ele>
        <time>2015-06-30T14:41:39Z</time>
      </trkpt>
      <trkpt lat="44.64003" lon="5.83734">
        <ele>1242.3</ele>
        <time>2015-06-30T14:41:44Z</time>
      </trkpt>
      <trkpt lat="44.64" lon="5.8374">
        <ele>1241.8</ele>
        <time>2015-06-30T14:41:49Z</time>
      </trkpt>
      <trkpt lat="44.63998" lon="5.83747">
        <ele>1242.2</ele>
        <time>2015-06-30T14:41:54Z</time>
      </trkpt>
      <trkpt lat="44.63995" lon="5.83755">
        <ele>1243.1</ele>
        <time>2015-06-30T14:41:59Z</time>
      </trkpt>
      <trkpt lat="44.63993" lon="5.83762">
        <ele>1243.6</ele>
        <time>2015-06-30T14:42:04Z</time>
      </trkpt>
      <trkpt lat="44.6399" lon="5.83771">
        <ele>1244.3</ele>
        <time>2015-06-30T14:42:09Z</time>
      </trkpt>
      <trkpt lat="44.63987" lon="5.83779">
        <ele>1245.3</ele>
        <time>2015-06-30T14:42:14Z</time>
      </trkpt>
      <trkpt lat="44.63984" lon="5.83786">
        <ele>1244.9</ele>
        <time>2015-06-30T14:42:19Z</time>
      </trkpt>
      <trkpt lat="44.6398" lon="5.83793">
        <ele>1245.8</ele>
        <time>2015-06-30T14:42:24Z</time>
      </trkpt>
      <trkpt lat="44.63976" lon="5.83799">
        <ele>1244.8</ele>
        <time>2015-06-30T14:42:29Z</time>
      </trkpt>
      <trkpt lat="44.63973" lon="5.83807">
        <ele>1245.1</ele>
        <time>2015-06-30T14:42:34Z</time>
      </trkpt>
      <trkpt lat="44.63968" lon="5.83815">
        <ele>1247</ele>
        <time>2015-06-30T14:42:39Z</time>
      </trkpt>
      <trkpt lat="44.63964" lon="5.83822">
        <ele>1246.2</ele>
        <time>2015-06-30T14:42:44Z</time>
      </trkpt>
      <trkpt lat="44.63963" lon="5.8383">
        <ele>1244.3</ele>
        <time>2015-06-30T14:42:49Z</time>
      </trkpt>
      <trkpt lat="44.6396" lon="5.83839">
        <ele>1246.3</ele>
        <time>2015-06-30T14:42:54Z</time>
      </trkpt>
      <trkpt lat="44.63958" lon="5.83848">
        <ele>1247.3</ele>
        <time>2015-06-30T14:42:59Z</time>
      </trkpt>
      <trkpt lat="44.63957" lon="5.83856">
        <ele>1247.1</ele>
        <time>2015-06-30T14:43:04Z</time>
      </trkpt>
      <trkpt lat="44.63956" lon="5.83864">
        <ele>1247.3</ele>
        <time>2015-06-30T14:43:09Z</time>
      </trkpt>
      <trkpt lat="44.63955" lon="5.83873">
        <ele>1246.5</ele>
        <time>2015-06-30T14:43:14Z</time>
      </trkpt>
      <trkpt lat="44.63954" lon="5.83882">
        <ele>1246.2</ele>
        <time>2015-06-30T14:43:19Z</time>
      </trkpt>
      <trkpt lat="44.63953" lon="5.8389">
        <ele>1246.1</ele>
        <time>2015-06-30T14:43:24Z</time>
      </trkpt>
      <trkpt lat="44.63952" lon="5.83899">
        <ele>1244.2</ele>
        <time>2015-06-30T14:43:29Z</time>
      </trkpt>
      <trkpt lat="44.6395" lon="5.83907">
        <ele>1244.2</ele>
        <time>2015-06-30T14:43:34Z</time>
      </trkpt>
      <trkpt lat="44.63948" lon="5.83916">
        <ele>1246</ele>
        <time>2015-06-30T14:43:39Z</time>
      </trkpt>
      <trkpt lat="44.63945" lon="5.83925">
        <ele>1248.3</ele>
        <time>2015-06-30T14:43:44Z</time>
      </trkpt>
      <trkpt lat="44.63943" lon="5.83932">
        <ele>1246.7</ele>
        <time>2015-06-30T14:43:49Z</time>
      </trkpt>
      <trkpt lat="44.63941" lon="5.83939">
        <ele>1245.1</ele>
        <time>2015-06-30T14:43:54Z</time>
      </trkpt>
      <trkpt lat="44.63938" lon="5.83946">
        <ele>1244.4</ele>
        <time>2015-06-30T14:43:59Z</time>
      </trkpt>
      <trkpt lat="44.63935" lon="5.83953">
        <ele>1244.4</ele>
        <time>2015-06-30T14:44:04Z</time>
      </trkpt>
      <trkpt lat="44.63933" lon="5.83961">
        <ele>1244.4</ele>
        <time>2015-06-30T14:44:09Z</time>
      </trkpt>
      <trkpt lat="44.6393" lon="5.83968">
        <ele>1244.2</ele>
        <time>2015-06-30T14:44:14Z</time>
      </trkpt>
      <trkpt lat="44.63927" lon="5.83978">
        <ele>1245.4</ele>
        <time>2015-06-30T14:44:19Z</time>
      </trkpt>
      <trkpt lat="44.63925" lon="5.83985">
        <ele>1245.1</ele>
        <time>2015-06-30T14:44:24Z</time>
      </trkpt>
      <trkpt lat="44.63922" lon="5.83992">
        <ele>1245</ele>
        <time>2015-06-30T14:44:29Z</time>
      </trkpt>
      <trkpt lat="44.63919" lon="5.84">
        <ele>1245.6</ele>
        <time>2015-06-30T14:44:34Z</time>
      </trkpt>
      <trkpt lat="44.63916" lon="5.84007">
        <ele>1245.8</ele>
        <time>2015-06-30T14:44:39Z</time>
      </trkpt>
      <trkpt lat="44.63914" lon="5.84015">
        <ele>1246.7</ele>
        <time>2015-06-30T14:44:44Z</time>
      </trkpt>
      <trkpt lat="44.63911" lon="5.84023">
        <ele>1246.4</ele>
        <time>2015-06-30T14:44:49Z</time>
      </trkpt>
      <trkpt lat="44.63908" lon="5.84031">
        <ele>1246.2</ele>
        <time>2015-06-30T14:44:54Z</time>
      </trkpt>
      <trkpt lat="44.63905" lon="5.84041">
        <ele>1247.5</ele>
        <time>2015-06-30T14:44:59Z</time>
      </trkpt>
      <trkpt lat="44.63903" lon="5.84049">
        <ele>1246.8</ele>
        <time>2015-06-30T14:45:04Z</time>
      </trkpt>
      <trkpt lat="44.63902" lon="5.84057">
        <ele>1245.1</ele>
        <time>2015-06-30T14:45:09Z</time>
      </trkpt>
      <trkpt lat="44.639" lon="5.84067">
        <ele>1245.8</ele>
        <time>2015-06-30T14:45:14Z</time>
      </trkpt>
      <trkpt lat="44.63898" lon="5.84076">
        <ele>1246.9</ele>
        <time>2015-06-30T14:45:19Z</time>
      </trkpt>
      <trkpt lat="44.63895" lon="5.84084">
        <ele>1245.1</ele>
        <time>2015-06-30T14:45:24Z</time>
      </trkpt>
      <trkpt lat="44.63891" lon="5.84092">
        <ele>1244.9</ele>
        <time>2015-06-30T14:45:29Z</time>
      </trkpt>
      <trkpt lat="44.63889" lon="5.84099">
        <ele>1243.1</ele>
        <time>2015-06-30T14:45:34Z</time>
      </trkpt>
      <trkpt lat="44.63887" lon="5.84107">
        <ele>1244.9</ele>
        <time>2015-06-30T14:45:39Z</time>
      </trkpt>
      <trkpt lat="44.63887" lon="5.84117">
        <ele>1243.9</ele>
        <time>2015-06-30T14:45:44Z</time>
      </trkpt>
      <trkpt lat="44.63887" lon="5.84126">
        <ele>1242.9</ele>
        <time>2015-06-30T14:45:49Z</time>
      </trkpt>
      <trkpt lat="44.63887" lon="5.84135">
        <ele>1241.8</ele>
        <time>2015-06-30T14:45:54Z</time>
      </trkpt>
      <trkpt lat="44.63889" lon="5.84144">
        <ele>1241.2</ele>
        <time>2015-06-30T14:45:59Z</time>
      </trkpt>
      <trkpt lat="44.63891" lon="5.84152">
        <ele>1242.6</ele>
        <time>2015-06-30T14:46:04Z</time>
      </trkpt>
      <trkpt lat="44.63892" lon="5.84161">
        <ele>1244.9</ele>
        <time>2015-06-30T14:46:09Z</time>
      </trkpt>
      <trkpt lat="44.63895" lon="5.8417">
        <ele>1247.1</ele>
        <time>2015-06-30T14:46:14Z</time>
      </trkpt>
      <trkpt lat="44.63898" lon="5.84177">
        <ele>1244.6</ele>
        <time>2015-06-30T14:46:19Z</time>
      </trkpt>
      <trkpt lat="44.63902" lon="5.84184">
        <ele>1242.5</ele>
        <time>2015-06-30T14:46:24Z</time>
      </trkpt>
      <trkpt lat="44.63907" lon="5.84191">
        <ele>1241.4</ele>
        <time>2015-06-30T14:46:29Z</time>
      </trkpt>
      <trkpt lat="44.63912" lon="5.84195">
        <ele>1240.8</ele>
        <time>2015-06-30T14:46:34Z</time>
      </trkpt>
      <trkpt lat="44.63917" lon="5.84202">
        <ele>1242.1</ele>
        <time>2015-06-30T14:46:39Z</time>
      </trkpt>
      <trkpt lat="44.63922" lon="5.84208">
        <ele>1240.8</ele>
        <time>2015-06-30T14:46:44Z</time>
      </trkpt>
      <trkpt lat="44.63924" lon="5.84215">
        <ele>1240.7</ele>
        <time>2015-06-30T14:46:49Z</time>
      </trkpt>
      <trkpt lat="44.63923" lon="5.84224">
        <ele>1242.3</ele>
        <time>2015-06-30T14:46:54Z</time>
      </trkpt>
      <trkpt lat="44.63921" lon="5.84231">
        <ele>1241.3</ele>
        <time>2015-06-30T14:46:59Z</time>
      </trkpt>
      <trkpt lat="44.63918" lon="5.84238">
        <ele>1240.9</ele>
        <time>2015-06-30T14:47:04Z</time>
      </trkpt>
      <trkpt lat="44.63915" lon="5.84247">
        <ele>1240.6</ele>
        <time>2015-06-30T14:47:09Z</time>
      </trkpt>
      <trkpt lat="44.63915" lon="5.84256">
        <ele>1240</ele>
        <time>2015-06-30T14:47:14Z</time>
      </trkpt>
      <trkpt lat="44.63916" lon="5.84265">
        <ele>1239.2</ele>
        <time>2015-06-30T14:47:19Z</time>
      </trkpt>
      <trkpt lat="44.63917" lon="5.84272">
        <ele>1236.7</ele>
        <time>2015-06-30T14:47:24Z</time>
      </trkpt>
      <trkpt lat="44.63918" lon="5.84281">
        <ele>1236.8</ele>
        <time>2015-06-30T14:47:29Z</time>
      </trkpt>
      <trkpt lat="44.63917" lon="5.8429">
        <ele>1239</ele>
        <time>2015-06-30T14:47:34Z</time>
      </trkpt>
      <trkpt lat="44.63919" lon="5.84299">
        <ele>1238.3</ele>
        <time>2015-06-30T14:47:39Z</time>
      </trkpt>
      <trkpt lat="44.6392" lon="5.84307">
        <ele>1236.9</ele>
        <time>2015-06-30T14:47:44Z</time>
      </trkpt>
      <trkpt lat="44.63921" lon="5.84316">
        <ele>1237.7</ele>
        <time>2015-06-30T14:47:49Z</time>
      </trkpt>
      <trkpt lat="44.63922" lon="5.84324">
        <ele>1239.7</ele>
        <time>2015-06-30T14:47:54Z</time>
      </trkpt>
      <trkpt lat="44.63926" lon="5.84332">
        <ele>1240.5</ele>
        <time>2015-06-30T14:47:59Z</time>
      </trkpt>
      <trkpt lat="44.63929" lon="5.84339">
        <ele>1239.9</ele>
        <time>2015-06-30T14:48:04Z</time>
      </trkpt>
      <trkpt lat="44.63932" lon="5.84346">
        <ele>1238.4</ele>
        <time>2015-06-30T14:48:09Z</time>
      </trkpt>
      <trkpt lat="44.63935" lon="5.84354">
        <ele>1238.6</ele>
        <time>2015-06-30T14:48:14Z</time>
      </trkpt>
      <trkpt lat="44.63939" lon="5.84361">
        <ele>1237.7</ele>
        <time>2015-06-30T14:48:19Z</time>
      </trkpt>
      <trkpt lat="44.63941" lon="5.84369">
        <ele>1237.4</ele>
        <time>2015-06-30T14:48:24Z</time>
      </trkpt>
      <trkpt lat="44.63945" lon="5.84377">
        <ele>1237.1</ele>
        <time>2015-06-30T14:48:29Z</time>
      </trkpt>
      <trkpt lat="44.63949" lon="5.84384">
        <ele>1237</ele>
        <time>2015-06-30T14:48:34Z</time>
      </trkpt>
      <trkpt lat="44.63952" lon="5.84392">
        <ele>1236.5</ele>
        <time>2015-06-30T14:48:39Z</time>
      </trkpt>
      <trkpt lat="44.63956" lon="5.84399">
        <ele>1236.6</ele>
        <time>2015-06-30T14:48:44Z</time>
      </trkpt>
      <trkpt lat="44.63958" lon="5.84408">
        <ele>1238.1</ele>
        <time>2015-06-30T14:48:49Z</time>
      </trkpt>
      <trkpt lat="44.6396" lon="5.84416">
        <ele>1237.5</ele>
        <time>2015-06-30T14:48:54Z</time>
      </trkpt>
      <trkpt lat="44.63961" lon="5.84426">
        <ele>1236.8</ele>
        <time>2015-06-30T14:48:59Z</time>
      </trkpt>
      <trkpt lat="44.63962" lon="5.84435">
        <ele>1236.5</ele>
        <time>2015-06-30T14:49:04Z</time>
      </trkpt>
      <trkpt lat="44.63962" lon="5.84445">
        <ele>1237.4</ele>
        <time>2015-06-30T14:49:09Z</time>
      </trkpt>
      <trkpt lat="44.63962" lon="5.84454">
        <ele>1238.6</ele>
        <time>2015-06-30T14:49:14Z</time>
      </trkpt>
      <trkpt lat="44.63963" lon="5.84464">
        <ele>1239.5</ele>
        <time>2015-06-30T14:49:19Z</time>
      </trkpt>
      <trkpt lat="44.63965" lon="5.84473">
        <ele>1240.2</ele>
        <time>2015-06-30T14:49:24Z</time>
      </trkpt>
      <trkpt lat="44.63966" lon="5.84482">
        <ele>1240.9</ele>
        <time>2015-06-30T14:49:29Z</time>
      </trkpt>
      <trkpt lat="44.63968" lon="5.8449">
        <ele>1241.1</ele>
        <time>2015-06-30T14:49:34Z</time>
      </trkpt>
      <trkpt lat="44.63971" lon="5.84499">
        <ele>1240.6</ele>
        <time>2015-06-30T14:49:39Z</time>
      </trkpt>
      <trkpt lat="44.63975" lon="5.84506">
        <ele>1239.9</ele>
        <time>2015-06-30T14:49:44Z</time>
      </trkpt>
      <trkpt lat="44.63979" lon="5.84514">
        <ele>1239.9</ele>
        <time>2015-06-30T14:49:49Z</time>
      </trkpt>
      <trkpt lat="44.63983" lon="5.84523">
        <ele>1241</ele>
        <time>2015-06-30T14:49:54Z</time>
      </trkpt>
      <trkpt lat="44.63985" lon="5.84532">
        <ele>1242</ele>
        <time>2015-06-30T14:49:59Z</time>
      </trkpt>
      <trkpt lat="44.63987" lon="5.84541">
        <ele>1241.9</ele>
        <time>2015-06-30T14:50:04Z</time>
      </trkpt>
      <trkpt lat="44.63988" lon="5.8455">
        <ele>1241.7</ele>
        <time>2015-06-30T14:50:09Z</time>
      </trkpt>
      <trkpt lat="44.63989" lon="5.84558">
        <ele>1240.8</ele>
        <time>2015-06-30T14:50:14Z</time>
      </trkpt>
      <trkpt lat="44.63989" lon="5.84566">
        <ele>1240.1</ele>
        <time>2015-06-30T14:50:19Z</time>
      </trkpt>
      <trkpt lat="44.63987" lon="5.84574">
        <ele>1238.6</ele>
        <time>2015-06-30T14:50:24Z</time>
      </trkpt>
      <trkpt lat="44.63987" lon="5.84582">
        <ele>1236.1</ele>
        <time>2015-06-30T14:50:29Z</time>
      </trkpt>
      <trkpt lat="44.63986" lon="5.84588">
        <ele>1233.9</ele>
        <time>2015-06-30T14:50:34Z</time>
      </trkpt>
      <trkpt lat="44.63986" lon="5.84597">
        <ele>1233.7</ele>
        <time>2015-06-30T14:50:39Z</time>
      </trkpt>
      <trkpt lat="44.63986" lon="5.84605">
        <ele>1234.3</ele>
        <time>2015-06-30T14:50:44Z</time>
      </trkpt>
      <trkpt lat="44.63983" lon="5.84615">
        <ele>1237.1</ele>
        <time>2015-06-30T14:50:49Z</time>
      </trkpt>
      <trkpt lat="44.63981" lon="5.84625">
        <ele>1238.4</ele>
        <time>2015-06-30T14:50:54Z</time>
      </trkpt>
      <trkpt lat="44.63978" lon="5.84635">
        <ele>1240.8</ele>
        <time>2015-06-30T14:50:59Z</time>
      </trkpt>
      <trkpt lat="44.63976" lon="5.84644">
        <ele>1241.2</ele>
        <time>2015-06-30T14:51:04Z</time>
      </trkpt>
      <trkpt lat="44.63974" lon="5.84653">
        <ele>1240.3</ele>
        <time>2015-06-30T14:51:09Z</time>
      </trkpt>
      <trkpt lat="44.63973" lon="5.84662">
        <ele>1237.4</ele>
        <time>2015-06-30T14:51:14Z</time>
      </trkpt>
      <trkpt lat="44.63971" lon="5.8467">
        <ele>1237.2</ele>
        <time>2015-06-30T14:51:19Z</time>
      </trkpt>
      <trkpt lat="44.63968" lon="5.84678">
        <ele>1236.3</ele>
        <time>2015-06-30T14:51:24Z</time>
      </trkpt>
      <trkpt lat="44.63966" lon="5.84686">
        <ele>1235.5</ele>
        <time>2015-06-30T14:51:29Z</time>
      </trkpt>
      <trkpt lat="44.63965" lon="5.84695">
        <ele>1234.7</ele>
        <time>2015-06-30T14:51:34Z</time>
      </trkpt>
      <trkpt lat="44.63964" lon="5.84706">
        <ele>1235.9</ele>
        <time>2015-06-30T14:51:39Z</time>
      </trkpt>
      <trkpt lat="44.63963" lon="5.84714">
        <ele>1235</ele>
        <time>2015-06-30T14:51:44Z</time>
      </trkpt>
      <trkpt lat="44.63959" lon="5.84719">
        <ele>1236.7</ele>
        <time>2015-06-30T14:51:49Z</time>
      </trkpt>
      <trkpt lat="44.63953" lon="5.8472">
        <ele>1236.2</ele>
        <time>2015-06-30T14:51:54Z</time>
      </trkpt>
      <trkpt lat="44.63946" lon="5.84722">
        <ele>1235.2</ele>
        <time>2015-06-30T14:51:59Z</time>
      </trkpt>
      <trkpt lat="44.63941" lon="5.84725">
        <ele>1235.1</ele>
        <time>2015-06-30T14:52:04Z</time>
      </trkpt>
      <trkpt lat="44.63936" lon="5.8473">
        <ele>1235</ele>
        <time>2015-06-30T14:52:09Z</time>
      </trkpt>
      <trkpt lat="44.63933" lon="5.84736">
        <ele>1235.8</ele>
        <time>2015-06-30T14:52:14Z</time>
      </trkpt>
      <trkpt lat="44.6393" lon="5.84743">
        <ele>1239.6</ele>
        <time>2015-06-30T14:52:19Z</time>
      </trkpt>
      <trkpt lat="44.63928" lon="5.84752">
        <ele>1242.4</ele>
        <time>2015-06-30T14:52:24Z</time>
      </trkpt>
      <trkpt lat="44.63927" lon="5.8476">
        <ele>1240.1</ele>
        <time>2015-06-30T14:52:29Z</time>
      </trkpt>
      <trkpt lat="44.63926" lon="5.84767">
        <ele>1238.7</ele>
        <time>2015-06-30T14:52:34Z</time>
      </trkpt>
      <trkpt lat="44.63926" lon="5.84775">
        <ele>1240.1</ele>
        <time>2015-06-30T14:52:39Z</time>
      </trkpt>
      <trkpt lat="44.63926" lon="5.84783">
        <ele>1239.1</ele>
        <time>2015-06-30T14:52:44Z</time>
      </trkpt>
      <trkpt lat="44.63926" lon="5.8479">
        <ele>1238.3</ele>
        <time>2015-06-30T14:52:49Z</time>
      </trkpt>
      <trkpt lat="44.63926" lon="5.84797">
        <ele>1239.2</ele>
        <time>2015-06-30T14:52:54Z</time>
      </trkpt>
      <trkpt lat="44.63926" lon="5.84804">
        <ele>1240.1</ele>
        <time>2015-06-30T14:52:59Z</time>
      </trkpt>
      <trkpt lat="44.63924" lon="5.84806">
        <ele>1240.9</ele>
        <time>2015-06-30T14:53:04Z</time>
      </trkpt>
      <trkpt lat="44.63923" lon="5.84806">
        <ele>1241.3</ele>
        <time>2015-06-30T14:53:09Z</time>
      </trkpt>
      <trkpt lat="44.63923" lon="5.84806">
        <ele>1240.8</ele>
        <time>2015-06-30T14:53:14Z</time>
      </trkpt>
      <trkpt lat="44.63923" lon="5.84806">
        <ele>1239.3</ele>
        <time>2015-06-30T14:53:19Z</time>
      </trkpt>
      <trkpt lat="44.63922" lon="5.84806">
        <ele>1238.2</ele>
        <time>2015-06-30T14:53:24Z</time>
      </trkpt>
      <trkpt lat="44.63921" lon="5.84806">
        <ele>1237.9</ele>
        <time>2015-06-30T14:53:29Z</time>
      </trkpt>
      <trkpt lat="44.63921" lon="5.84806">
        <ele>1236.6</ele>
        <time>2015-06-30T14:53:34Z</time>
      </trkpt>
      <trkpt lat="44.63921" lon="5.84805">
        <ele>1235.4</ele>
        <time>2015-06-30T14:53:39Z</time>
      </trkpt>
      <trkpt lat="44.63922" lon="5.84805">
        <ele>1233.9</ele>
        <time>2015-06-30T14:53:44Z</time>
      </trkpt>
      <trkpt lat="44.63922" lon="5.84806">
        <ele>1234.6</ele>
        <time>2015-06-30T14:53:49Z</time>
      </trkpt>
      <trkpt lat="44.63923" lon="5.84804">
        <ele>1232.4</ele>
        <time>2015-06-30T14:53:54Z</time>
      </trkpt>
      <trkpt lat="44.63924" lon="5.84804">
        <ele>1231.9</ele>
        <time>2015-06-30T14:53:59Z</time>
      </trkpt>
      <trkpt lat="44.63924" lon="5.84805">
        <ele>1231.6</ele>
        <time>2015-06-30T14:54:04Z</time>
      </trkpt>
      <trkpt lat="44.63924" lon="5.84805">
        <ele>1230.7</ele>
        <time>2015-06-30T14:54:09Z</time>
      </trkpt>
      <trkpt lat="44.63924" lon="5.84805">
        <ele>1227.9</ele>
        <time>2015-06-30T14:54:14Z</time>
      </trkpt>
      <trkpt lat="44.63924" lon="5.84806">
        <ele>1227.7</ele>
        <time>2015-06-30T14:54:19Z</time>
      </trkpt>
      <trkpt lat="44.63924" lon="5.84806">
        <ele>1228</ele>
        <time>2015-06-30T14:54:24Z</time>
      </trkpt>
      <trkpt lat="44.64038" lon="5.85144">
        <ele>1242.6</ele>
        <time>2015-07-01T07:01:31Z</time>
      </trkpt>
      <trkpt lat="44.6406" lon="5.85126">
        <ele>1280.1</ele>
        <time>2015-07-01T07:01:35Z</time>
      </trkpt>
      <trkpt lat="44.64061" lon="5.85126">
        <ele>1290.5</ele>
        <time>2015-07-01T07:01:40Z</time>
      </trkpt>
      <trkpt lat="44.6406" lon="5.85131">
        <ele>1287</ele>
        <time>2015-07-01T07:01:45Z</time>
      </trkpt>
      <trkpt lat="44.64057" lon="5.85137">
        <ele>1283.9</ele>
        <time>2015-07-01T07:01:50Z</time>
      </trkpt>
      <trkpt lat="44.64053" lon="5.85143">
        <ele>1280.3</ele>
        <time>2015-07-01T07:01:55Z</time>
      </trkpt>
      <trkpt lat="44.64047" lon="5.8515">
        <ele>1273.9</ele>
        <time>2015-07-01T07:02:00Z</time>
      </trkpt>
      <trkpt lat="44.64049" lon="5.85151">
        <ele>1278.8</ele>
        <time>2015-07-01T07:02:05Z</time>
      </trkpt>
      <trkpt lat="44.64052" lon="5.85154">
        <ele>1280.6</ele>
        <time>2015-07-01T07:02:10Z</time>
      </trkpt>
      <trkpt lat="44.64053" lon="5.85154">
        <ele>1281.1</ele>
        <time>2015-07-01T07:02:15Z</time>
      </trkpt>
      <trkpt lat="44.64056" lon="5.85151">
        <ele>1275.2</ele>
        <time>2015-07-01T07:02:20Z</time>
      </trkpt>
      <trkpt lat="44.64055" lon="5.85152">
        <ele>1278.5</ele>
        <time>2015-07-01T07:02:25Z</time>
      </trkpt>
      <trkpt lat="44.64055" lon="5.85152">
        <ele>1278.9</ele>
        <time>2015-07-01T07:02:30Z</time>
      </trkpt>
      <trkpt lat="44.64054" lon="5.85153">
        <ele>1280.2</ele>
        <time>2015-07-01T07:02:35Z</time>
      </trkpt>
      <trkpt lat="44.64053" lon="5.85153">
        <ele>1279.6</ele>
        <time>2015-07-01T07:02:40Z</time>
      </trkpt>
      <trkpt lat="44.64055" lon="5.85151">
        <ele>1281.8</ele>
        <time>2015-07-01T07:02:45Z</time>
      </trkpt>
      <trkpt lat="44.64057" lon="5.85151">
        <ele>1283.2</ele>
        <time>2015-07-01T07:02:50Z</time>
      </trkpt>
      <trkpt lat="44.64057" lon="5.85152">
        <ele>1276</ele>
        <time>2015-07-01T07:02:55Z</time>
      </trkpt>
      <trkpt lat="44.64054" lon="5.85151">
        <ele>1275.5</ele>
        <time>2015-07-01T07:03:00Z</time>
      </trkpt>
      <trkpt lat="44.6405" lon="5.85151">
        <ele>1274.8</ele>
        <time>2015-07-01T07:03:05Z</time>
      </trkpt>
      <trkpt lat="44.64051" lon="5.85151">
        <ele>1275.2</ele>
        <time>2015-07-01T07:03:10Z</time>
      </trkpt>
      <trkpt lat="44.64053" lon="5.85153">
        <ele>1279.6</ele>
        <time>2015-07-01T07:03:15Z</time>
      </trkpt>
      <trkpt lat="44.64051" lon="5.8515">
        <ele>1287.9</ele>
        <time>2015-07-01T07:03:20Z</time>
      </trkpt>
      <trkpt lat="44.64047" lon="5.85149">
        <ele>1286.3</ele>
        <time>2015-07-01T07:03:25Z</time>
      </trkpt>
      <trkpt lat="44.6405" lon="5.85149">
        <ele>1286.4</ele>
        <time>2015-07-01T07:03:30Z</time>
      </trkpt>
      <trkpt lat="44.64051" lon="5.85147">
        <ele>1289.9</ele>
        <time>2015-07-01T07:03:35Z</time>
      </trkpt>
      <trkpt lat="44.6405" lon="5.85147">
        <ele>1292.7</ele>
        <time>2015-07-01T07:03:40Z</time>
      </trkpt>
      <trkpt lat="44.64051" lon="5.85147">
        <ele>1287.8</ele>
        <time>2015-07-01T07:03:45Z</time>
      </trkpt>
      <trkpt lat="44.64049" lon="5.8515">
        <ele>1285</ele>
        <time>2015-07-01T07:03:50Z</time>
      </trkpt>
      <trkpt lat="44.64053" lon="5.85151">
        <ele>1280.5</ele>
        <time>2015-07-01T07:03:55Z</time>
      </trkpt>
      <trkpt lat="44.64055" lon="5.85151">
        <ele>1277.1</ele>
        <time>2015-07-01T07:04:00Z</time>
      </trkpt>
      <trkpt lat="44.64057" lon="5.85149">
        <ele>1275.9</ele>
        <time>2015-07-01T07:04:05Z</time>
      </trkpt>
      <trkpt lat="44.64058" lon="5.85148">
        <ele>1275.4</ele>
        <time>2015-07-01T07:04:10Z</time>
      </trkpt>
      <trkpt lat="44.64056" lon="5.85148">
        <ele>1275.6</ele>
        <time>2015-07-01T07:04:15Z</time>
      </trkpt>
      <trkpt lat="44.64055" lon="5.85148">
        <ele>1277.1</ele>
        <time>2015-07-01T07:04:20Z</time>
      </trkpt>
      <trkpt lat="44.6405" lon="5.85151">
        <ele>1279.8</ele>
        <time>2015-07-01T07:04:25Z</time>
      </trkpt>
      <trkpt lat="44.6405" lon="5.85149">
        <ele>1279.7</ele>
        <time>2015-07-01T07:04:30Z</time>
      </trkpt>
      <trkpt lat="44.6405" lon="5.85151">
        <ele>1279</ele>
        <time>2015-07-01T07:04:35Z</time>
      </trkpt>
      <trkpt lat="44.6405" lon="5.85153">
        <ele>1282.3</ele>
        <time>2015-07-01T07:04:40Z</time>
      </trkpt>
      <trkpt lat="44.64054" lon="5.85152">
        <ele>1278.9</ele>
        <time>2015-07-01T07:04:45Z</time>
      </trkpt>
      <trkpt lat="44.64055" lon="5.85153">
        <ele>1281.9</ele>
        <time>2015-07-01T07:04:50Z</time>
      </trkpt>
      <trkpt lat="44.64056" lon="5.85153">
        <ele>1283.7</ele>
        <time>2015-07-01T07:04:55Z</time>
      </trkpt>
      <trkpt lat="44.64053" lon="5.85152">
        <ele>1281.6</ele>
        <time>2015-07-01T07:05:02Z</time>
      </trkpt>
      <trkpt lat="44.64047" lon="5.85152">
        <ele>1282.6</ele>
        <time>2015-07-01T07:05:07Z</time>
      </trkpt>
      <trkpt lat="44.64042" lon="5.85152">
        <ele>1284.5</ele>
        <time>2015-07-01T07:05:12Z</time>
      </trkpt>
      <trkpt lat="44.64039" lon="5.85154">
        <ele>1285</ele>
        <time>2015-07-01T07:05:17Z</time>
      </trkpt>
      <trkpt lat="44.64037" lon="5.85159">
        <ele>1286.3</ele>
        <time>2015-07-01T07:05:22Z</time>
      </trkpt>
      <trkpt lat="44.64036" lon="5.85165">
        <ele>1286</ele>
        <time>2015-07-01T07:05:27Z</time>
      </trkpt>
      <trkpt lat="44.64033" lon="5.85172">
        <ele>1285.5</ele>
        <time>2015-07-01T07:05:32Z</time>
      </trkpt>
      <trkpt lat="44.6403" lon="5.85178">
        <ele>1287.6</ele>
        <time>2015-07-01T07:05:37Z</time>
      </trkpt>
      <trkpt lat="44.64029" lon="5.85183">
        <ele>1288.7</ele>
        <time>2015-07-01T07:05:42Z</time>
      </trkpt>
      <trkpt lat="44.64027" lon="5.85189">
        <ele>1291.9</ele>
        <time>2015-07-01T07:05:47Z</time>
      </trkpt>
      <trkpt lat="44.64025" lon="5.85195">
        <ele>1293.6</ele>
        <time>2015-07-01T07:05:52Z</time>
      </trkpt>
      <trkpt lat="44.64022" lon="5.85203">
        <ele>1297.1</ele>
        <time>2015-07-01T07:05:57Z</time>
      </trkpt>
      <trkpt lat="44.64019" lon="5.8521">
        <ele>1299.2</ele>
        <time>2015-07-01T07:06:02Z</time>
      </trkpt>
      <trkpt lat="44.64015" lon="5.85214">
        <ele>1302.2</ele>
        <time>2015-07-01T07:06:07Z</time>
      </trkpt>
      <trkpt lat="44.6401" lon="5.8522">
        <ele>1304</ele>
        <time>2015-07-01T07:06:12Z</time>
      </trkpt>
      <trkpt lat="44.64007" lon="5.85226">
        <ele>1305.6</ele>
        <time>2015-07-01T07:06:17Z</time>
      </trkpt>
      <trkpt lat="44.64005" lon="5.85233">
        <ele>1306.6</ele>
        <time>2015-07-01T07:06:22Z</time>
      </trkpt>
      <trkpt lat="44.64001" lon="5.85238">
        <ele>1308.4</ele>
        <time>2015-07-01T07:06:27Z</time>
      </trkpt>
      <trkpt lat="44.63996" lon="5.85244">
        <ele>1310.4</ele>
        <time>2015-07-01T07:06:32Z</time>
      </trkpt>
      <trkpt lat="44.63993" lon="5.85251">
        <ele>1313.3</ele>
        <time>2015-07-01T07:06:37Z</time>
      </trkpt>
      <trkpt lat="44.63992" lon="5.85258">
        <ele>1315.5</ele>
        <time>2015-07-01T07:06:42Z</time>
      </trkpt>
      <trkpt lat="44.63989" lon="5.85265">
        <ele>1317</ele>
        <time>2015-07-01T07:06:47Z</time>
      </trkpt>
      <trkpt lat="44.63988" lon="5.85272">
        <ele>1318.1</ele>
        <time>2015-07-01T07:06:52Z</time>
      </trkpt>
      <trkpt lat="44.63986" lon="5.85279">
        <ele>1319.4</ele>
        <time>2015-07-01T07:06:57Z</time>
      </trkpt>
      <trkpt lat="44.63982" lon="5.85284">
        <ele>1318.8</ele>
        <time>2015-07-01T07:07:02Z</time>
      </trkpt>
      <trkpt lat="44.63979" lon="5.85291">
        <ele>1317.4</ele>
        <time>2015-07-01T07:07:07Z</time>
      </trkpt>
      <trkpt lat="44.63973" lon="5.85297">
        <ele>1313.1</ele>
        <time>2015-07-01T07:07:12Z</time>
      </trkpt>
      <trkpt lat="44.63974" lon="5.85304">
        <ele>1310.9</ele>
        <time>2015-07-01T07:07:17Z</time>
      </trkpt>
      <trkpt lat="44.63971" lon="5.85312">
        <ele>1309.5</ele>
        <time>2015-07-01T07:07:22Z</time>
      </trkpt>
      <trkpt lat="44.63965" lon="5.85319">
        <ele>1311.5</ele>
        <time>2015-07-01T07:07:27Z</time>
      </trkpt>
      <trkpt lat="44.63958" lon="5.85326">
        <ele>1315.6</ele>
        <time>2015-07-01T07:07:32Z</time>
      </trkpt>
      <trkpt lat="44.63954" lon="5.85332">
        <ele>1315.2</ele>
        <time>2015-07-01T07:07:37Z</time>
      </trkpt>
      <trkpt lat="44.63951" lon="5.85339">
        <ele>1317.1</ele>
        <time>2015-07-01T07:07:42Z</time>
      </trkpt>
      <trkpt lat="44.63947" lon="5.85345">
        <ele>1320.4</ele>
        <time>2015-07-01T07:07:47Z</time>
      </trkpt>
      <trkpt lat="44.63945" lon="5.85352">
        <ele>1319.8</ele>
        <time>2015-07-01T07:07:52Z</time>
      </trkpt>
      <trkpt lat="44.63943" lon="5.85359">
        <ele>1322.2</ele>
        <time>2015-07-01T07:07:57Z</time>
      </trkpt>
      <trkpt lat="44.6394" lon="5.85366">
        <ele>1324.9</ele>
        <time>2015-07-01T07:08:02Z</time>
      </trkpt>
      <trkpt lat="44.63938" lon="5.85374">
        <ele>1326.6</ele>
        <time>2015-07-01T07:08:07Z</time>
      </trkpt>
      <trkpt lat="44.63934" lon="5.8538">
        <ele>1325.5</ele>
        <time>2015-07-01T07:08:12Z</time>
      </trkpt>
      <trkpt lat="44.6393" lon="5.85387">
        <ele>1326.6</ele>
        <time>2015-07-01T07:08:17Z</time>
      </trkpt>
      <trkpt lat="44.63928" lon="5.85393">
        <ele>1327.9</ele>
        <time>2015-07-01T07:08:22Z</time>
      </trkpt>
      <trkpt lat="44.63924" lon="5.85399">
        <ele>1328.8</ele>
        <time>2015-07-01T07:08:27Z</time>
      </trkpt>
      <trkpt lat="44.63922" lon="5.85406">
        <ele>1331.1</ele>
        <time>2015-07-01T07:08:32Z</time>
      </trkpt>
      <trkpt lat="44.63919" lon="5.8541">
        <ele>1329.8</ele>
        <time>2015-07-01T07:08:37Z</time>
      </trkpt>
      <trkpt lat="44.63911" lon="5.85412">
        <ele>1331.2</ele>
        <time>2015-07-01T07:08:42Z</time>
      </trkpt>
      <trkpt lat="44.63907" lon="5.85414">
        <ele>1331.3</ele>
        <time>2015-07-01T07:08:47Z</time>
      </trkpt>
      <trkpt lat="44.63897" lon="5.85415">
        <ele>1332.1</ele>
        <time>2015-07-01T07:08:54Z</time>
      </trkpt>
      <trkpt lat="44.63889" lon="5.85414">
        <ele>1340</ele>
        <time>2015-07-01T07:08:59Z</time>
      </trkpt>
      <trkpt lat="44.63884" lon="5.85417">
        <ele>1341.1</ele>
        <time>2015-07-01T07:09:04Z</time>
      </trkpt>
      <trkpt lat="44.63877" lon="5.85416">
        <ele>1338.2</ele>
        <time>2015-07-01T07:09:09Z</time>
      </trkpt>
      <trkpt lat="44.63874" lon="5.85416">
        <ele>1338.1</ele>
        <time>2015-07-01T07:09:14Z</time>
      </trkpt>
      <trkpt lat="44.63869" lon="5.8542">
        <ele>1331.7</ele>
        <time>2015-07-01T07:09:21Z</time>
      </trkpt>
      <trkpt lat="44.63861" lon="5.85424">
        <ele>1331.7</ele>
        <time>2015-07-01T07:09:29Z</time>
      </trkpt>
      <trkpt lat="44.63856" lon="5.85428">
        <ele>1332</ele>
        <time>2015-07-01T07:09:34Z</time>
      </trkpt>
      <trkpt lat="44.63847" lon="5.85433">
        <ele>1337.3</ele>
        <time>2015-07-01T07:09:39Z</time>
      </trkpt>
      <trkpt lat="44.63844" lon="5.85438">
        <ele>1337.7</ele>
        <time>2015-07-01T07:09:44Z</time>
      </trkpt>
      <trkpt lat="44.63839" lon="5.85445">
        <ele>1334.7</ele>
        <time>2015-07-01T07:09:49Z</time>
      </trkpt>
      <trkpt lat="44.63839" lon="5.85454">
        <ele>1336.2</ele>
        <time>2015-07-01T07:09:54Z</time>
      </trkpt>
      <trkpt lat="44.63837" lon="5.8546">
        <ele>1335.1</ele>
        <time>2015-07-01T07:09:59Z</time>
      </trkpt>
      <trkpt lat="44.63831" lon="5.85466">
        <ele>1334.2</ele>
        <time>2015-07-01T07:10:04Z</time>
      </trkpt>
      <trkpt lat="44.63826" lon="5.8547">
        <ele>1332.5</ele>
        <time>2015-07-01T07:10:09Z</time>
      </trkpt>
      <trkpt lat="44.6382" lon="5.85471">
        <ele>1331.4</ele>
        <time>2015-07-01T07:10:14Z</time>
      </trkpt>
      <trkpt lat="44.63813" lon="5.85471">
        <ele>1330.9</ele>
        <time>2015-07-01T07:10:19Z</time>
      </trkpt>
      <trkpt lat="44.63809" lon="5.85474">
        <ele>1331.4</ele>
        <time>2015-07-01T07:10:24Z</time>
      </trkpt>
      <trkpt lat="44.638" lon="5.8548">
        <ele>1331.2</ele>
        <time>2015-07-01T07:10:29Z</time>
      </trkpt>
      <trkpt lat="44.63796" lon="5.8548">
        <ele>1333</ele>
        <time>2015-07-01T07:10:34Z</time>
      </trkpt>
      <trkpt lat="44.6379" lon="5.85482">
        <ele>1339</ele>
        <time>2015-07-01T07:10:39Z</time>
      </trkpt>
      <trkpt lat="44.63782" lon="5.85484">
        <ele>1343.3</ele>
        <time>2015-07-01T07:10:44Z</time>
      </trkpt>
      <trkpt lat="44.63776" lon="5.8549">
        <ele>1341.5</ele>
        <time>2015-07-01T07:10:49Z</time>
      </trkpt>
      <trkpt lat="44.63773" lon="5.85495">
        <ele>1344.4</ele>
        <time>2015-07-01T07:10:54Z</time>
      </trkpt>
      <trkpt lat="44.63776" lon="5.85497">
        <ele>1345.5</ele>
        <time>2015-07-01T07:10:59Z</time>
      </trkpt>
      <trkpt lat="44.63776" lon="5.855">
        <ele>1346.7</ele>
        <time>2015-07-01T07:11:04Z</time>
      </trkpt>
      <trkpt lat="44.63774" lon="5.85509">
        <ele>1348</ele>
        <time>2015-07-01T07:11:09Z</time>
      </trkpt>
      <trkpt lat="44.63773" lon="5.85515">
        <ele>1347.4</ele>
        <time>2015-07-01T07:11:14Z</time>
      </trkpt>
      <trkpt lat="44.63771" lon="5.85521">
        <ele>1346.3</ele>
        <time>2015-07-01T07:11:19Z</time>
      </trkpt>
      <trkpt lat="44.63767" lon="5.85526">
        <ele>1347.6</ele>
        <time>2015-07-01T07:11:24Z</time>
      </trkpt>
      <trkpt lat="44.63763" lon="5.85531">
        <ele>1349</ele>
        <time>2015-07-01T07:11:29Z</time>
      </trkpt>
      <trkpt lat="44.63759" lon="5.85537">
        <ele>1349.7</ele>
        <time>2015-07-01T07:11:34Z</time>
      </trkpt>
      <trkpt lat="44.63754" lon="5.85541">
        <ele>1352</ele>
        <time>2015-07-01T07:11:39Z</time>
      </trkpt>
      <trkpt lat="44.6375" lon="5.85543">
        <ele>1356.1</ele>
        <time>2015-07-01T07:11:44Z</time>
      </trkpt>
      <trkpt lat="44.63745" lon="5.85548">
        <ele>1357.9</ele>
        <time>2015-07-01T07:11:49Z</time>
      </trkpt>
      <trkpt lat="44.63741" lon="5.8555">
        <ele>1360.1</ele>
        <time>2015-07-01T07:11:54Z</time>
      </trkpt>
      <trkpt lat="44.63735" lon="5.85556">
        <ele>1360.5</ele>
        <time>2015-07-01T07:11:59Z</time>
      </trkpt>
      <trkpt lat="44.63731" lon="5.85559">
        <ele>1361.7</ele>
        <time>2015-07-01T07:12:04Z</time>
      </trkpt>
      <trkpt lat="44.63727" lon="5.85554">
        <ele>1361.4</ele>
        <time>2015-07-01T07:12:09Z</time>
      </trkpt>
      <trkpt lat="44.63723" lon="5.85549">
        <ele>1359.8</ele>
        <time>2015-07-01T07:12:14Z</time>
      </trkpt>
      <trkpt lat="44.63719" lon="5.85545">
        <ele>1358.8</ele>
        <time>2015-07-01T07:12:19Z</time>
      </trkpt>
      <trkpt lat="44.63715" lon="5.85541">
        <ele>1360.4</ele>
        <time>2015-07-01T07:12:24Z</time>
      </trkpt>
      <trkpt lat="44.63709" lon="5.85544">
        <ele>1364.3</ele>
        <time>2015-07-01T07:12:29Z</time>
      </trkpt>
      <trkpt lat="44.63706" lon="5.85549">
        <ele>1365.4</ele>
        <time>2015-07-01T07:12:34Z</time>
      </trkpt>
      <trkpt lat="44.63706" lon="5.85551">
        <ele>1362.1</ele>
        <time>2015-07-01T07:12:39Z</time>
      </trkpt>
      <trkpt lat="44.63706" lon="5.85554">
        <ele>1361.3</ele>
        <time>2015-07-01T07:12:44Z</time>
      </trkpt>
      <trkpt lat="44.63708" lon="5.85561">
        <ele>1359.1</ele>
        <time>2015-07-01T07:12:49Z</time>
      </trkpt>
      <trkpt lat="44.63707" lon="5.85567">
        <ele>1360.1</ele>
        <time>2015-07-01T07:12:54Z</time>
      </trkpt>
      <trkpt lat="44.63703" lon="5.85576">
        <ele>1364.6</ele>
        <time>2015-07-01T07:12:59Z</time>
      </trkpt>
      <trkpt lat="44.63701" lon="5.85583">
        <ele>1366.5</ele>
        <time>2015-07-01T07:13:04Z</time>
      </trkpt>
      <trkpt lat="44.63699" lon="5.8559">
        <ele>1368.2</ele>
        <time>2015-07-01T07:13:09Z</time>
      </trkpt>
      <trkpt lat="44.63696" lon="5.85597">
        <ele>1370.1</ele>
        <time>2015-07-01T07:13:14Z</time>
      </trkpt>
      <trkpt lat="44.63692" lon="5.85601">
        <ele>1370.7</ele>
        <time>2015-07-01T07:13:19Z</time>
      </trkpt>
      <trkpt lat="44.63687" lon="5.85602">
        <ele>1371.2</ele>
        <time>2015-07-01T07:13:24Z</time>
      </trkpt>
      <trkpt lat="44.63683" lon="5.85603">
        <ele>1371.5</ele>
        <time>2015-07-01T07:13:29Z</time>
      </trkpt>
      <trkpt lat="44.63679" lon="5.85604">
        <ele>1371.2</ele>
        <time>2015-07-01T07:13:34Z</time>
      </trkpt>
      <trkpt lat="44.63674" lon="5.85607">
        <ele>1371.4</ele>
        <time>2015-07-01T07:13:39Z</time>
      </trkpt>
      <trkpt lat="44.63669" lon="5.85612">
        <ele>1372.8</ele>
        <time>2015-07-01T07:13:44Z</time>
      </trkpt>
      <trkpt lat="44.63664" lon="5.85618">
        <ele>1373.1</ele>
        <time>2015-07-01T07:13:49Z</time>
      </trkpt>
      <trkpt lat="44.63658" lon="5.85623">
        <ele>1374.5</ele>
        <time>2015-07-01T07:13:54Z</time>
      </trkpt>
      <trkpt lat="44.63654" lon="5.85628">
        <ele>1374.6</ele>
        <time>2015-07-01T07:13:59Z</time>
      </trkpt>
      <trkpt lat="44.63651" lon="5.85633">
        <ele>1374.7</ele>
        <time>2015-07-01T07:14:04Z</time>
      </trkpt>
      <trkpt lat="44.63646" lon="5.85637">
        <ele>1374.6</ele>
        <time>2015-07-01T07:14:09Z</time>
      </trkpt>
      <trkpt lat="44.63642" lon="5.85642">
        <ele>1375.3</ele>
        <time>2015-07-01T07:14:14Z</time>
      </trkpt>
      <trkpt lat="44.63638" lon="5.85647">
        <ele>1376.2</ele>
        <time>2015-07-01T07:14:19Z</time>
      </trkpt>
      <trkpt lat="44.63633" lon="5.85652">
        <ele>1376.8</ele>
        <time>2015-07-01T07:14:24Z</time>
      </trkpt>
      <trkpt lat="44.6363" lon="5.85658">
        <ele>1376.5</ele>
        <time>2015-07-01T07:14:29Z</time>
      </trkpt>
      <trkpt lat="44.63628" lon="5.85665">
        <ele>1375.8</ele>
        <time>2015-07-01T07:14:34Z</time>
      </trkpt>
      <trkpt lat="44.63625" lon="5.85672">
        <ele>1377</ele>
        <time>2015-07-01T07:14:39Z</time>
      </trkpt>
      <trkpt lat="44.63623" lon="5.85679">
        <ele>1378.1</ele>
        <time>2015-07-01T07:14:44Z</time>
      </trkpt>
      <trkpt lat="44.6362" lon="5.85685">
        <ele>1379.6</ele>
        <time>2015-07-01T07:14:49Z</time>
      </trkpt>
      <trkpt lat="44.63617" lon="5.85693">
        <ele>1380.3</ele>
        <time>2015-07-01T07:14:54Z</time>
      </trkpt>
      <trkpt lat="44.63614" lon="5.85701">
        <ele>1381.1</ele>
        <time>2015-07-01T07:14:59Z</time>
      </trkpt>
      <trkpt lat="44.63611" lon="5.85709">
        <ele>1381.3</ele>
        <time>2015-07-01T07:15:04Z</time>
      </trkpt>
      <trkpt lat="44.63607" lon="5.85715">
        <ele>1381.5</ele>
        <time>2015-07-01T07:15:09Z</time>
      </trkpt>
      <trkpt lat="44.63603" lon="5.8572">
        <ele>1382.7</ele>
        <time>2015-07-01T07:15:14Z</time>
      </trkpt>
      <trkpt lat="44.63598" lon="5.85725">
        <ele>1384.3</ele>
        <time>2015-07-01T07:15:19Z</time>
      </trkpt>
      <trkpt lat="44.63594" lon="5.85732">
        <ele>1385.8</ele>
        <time>2015-07-01T07:15:24Z</time>
      </trkpt>
      <trkpt lat="44.63591" lon="5.85737">
        <ele>1384.6</ele>
        <time>2015-07-01T07:15:29Z</time>
      </trkpt>
      <trkpt lat="44.63586" lon="5.85741">
        <ele>1383.9</ele>
        <time>2015-07-01T07:15:34Z</time>
      </trkpt>
      <trkpt lat="44.63583" lon="5.85746">
        <ele>1382.9</ele>
        <time>2015-07-01T07:15:39Z</time>
      </trkpt>
      <trkpt lat="44.6358" lon="5.85751">
        <ele>1381.9</ele>
        <time>2015-07-01T07:15:44Z</time>
      </trkpt>
      <trkpt lat="44.63574" lon="5.85755">
        <ele>1381.7</ele>
        <time>2015-07-01T07:15:49Z</time>
      </trkpt>
      <trkpt lat="44.63569" lon="5.85758">
        <ele>1381.4</ele>
        <time>2015-07-01T07:15:54Z</time>
      </trkpt>
      <trkpt lat="44.63566" lon="5.85764">
        <ele>1382.3</ele>
        <time>2015-07-01T07:15:59Z</time>
      </trkpt>
      <trkpt lat="44.63562" lon="5.8577">
        <ele>1383.5</ele>
        <time>2015-07-01T07:16:04Z</time>
      </trkpt>
      <trkpt lat="44.63555" lon="5.85775">
        <ele>1383.3</ele>
        <time>2015-07-01T07:16:09Z</time>
      </trkpt>
      <trkpt lat="44.63548" lon="5.8578">
        <ele>1385</ele>
        <time>2015-07-01T07:16:14Z</time>
      </trkpt>
      <trkpt lat="44.63544" lon="5.85786">
        <ele>1388.4</ele>
        <time>2015-07-01T07:16:19Z</time>
      </trkpt>
      <trkpt lat="44.6354" lon="5.85792">
        <ele>1388.6</ele>
        <time>2015-07-01T07:16:24Z</time>
      </trkpt>
      <trkpt lat="44.63536" lon="5.85796">
        <ele>1390.2</ele>
        <time>2015-07-01T07:16:29Z</time>
      </trkpt>
      <trkpt lat="44.63531" lon="5.85799">
        <ele>1391.3</ele>
        <time>2015-07-01T07:16:34Z</time>
      </trkpt>
      <trkpt lat="44.63524" lon="5.85802">
        <ele>1393.7</ele>
        <time>2015-07-01T07:16:39Z</time>
      </trkpt>
      <trkpt lat="44.6352" lon="5.85807">
        <ele>1393.2</ele>
        <time>2015-07-01T07:16:44Z</time>
      </trkpt>
      <trkpt lat="44.63516" lon="5.85813">
        <ele>1393.8</ele>
        <time>2015-07-01T07:16:49Z</time>
      </trkpt>
      <trkpt lat="44.63514" lon="5.85818">
        <ele>1394.8</ele>
        <time>2015-07-01T07:16:54Z</time>
      </trkpt>
      <trkpt lat="44.63511" lon="5.85825">
        <ele>1396</ele>
        <time>2015-07-01T07:16:59Z</time>
      </trkpt>
      <trkpt lat="44.63508" lon="5.8583">
        <ele>1396.4</ele>
        <time>2015-07-01T07:17:04Z</time>
      </trkpt>
      <trkpt lat="44.63507" lon="5.85838">
        <ele>1396.1</ele>
        <time>2015-07-01T07:17:09Z</time>
      </trkpt>
      <trkpt lat="44.63508" lon="5.85847">
        <ele>1397.1</ele>
        <time>2015-07-01T07:17:14Z</time>
      </trkpt>
      <trkpt lat="44.63509" lon="5.85855">
        <ele>1397.6</ele>
        <time>2015-07-01T07:17:19Z</time>
      </trkpt>
      <trkpt lat="44.63509" lon="5.85858">
        <ele>1398.3</ele>
        <time>2015-07-01T07:17:24Z</time>
      </trkpt>
      <trkpt lat="44.63508" lon="5.85861">
        <ele>1397.4</ele>
        <time>2015-07-01T07:17:29Z</time>
      </trkpt>
      <trkpt lat="44.63509" lon="5.85869">
        <ele>1398</ele>
        <time>2015-07-01T07:17:34Z</time>
      </trkpt>
      <trkpt lat="44.6351" lon="5.85877">
        <ele>1398.7</ele>
        <time>2015-07-01T07:17:39Z</time>
      </trkpt>
      <trkpt lat="44.63512" lon="5.85883">
        <ele>1399.7</ele>
        <time>2015-07-01T07:17:44Z</time>
      </trkpt>
      <trkpt lat="44.63517" lon="5.85887">
        <ele>1399.2</ele>
        <time>2015-07-01T07:17:49Z</time>
      </trkpt>
      <trkpt lat="44.63521" lon="5.85892">
        <ele>1400</ele>
        <time>2015-07-01T07:17:54Z</time>
      </trkpt>
      <trkpt lat="44.63525" lon="5.85898">
        <ele>1401</ele>
        <time>2015-07-01T07:17:59Z</time>
      </trkpt>
      <trkpt lat="44.63529" lon="5.85903">
        <ele>1402</ele>
        <time>2015-07-01T07:18:04Z</time>
      </trkpt>
      <trkpt lat="44.63533" lon="5.85907">
        <ele>1402.8</ele>
        <time>2015-07-01T07:18:09Z</time>
      </trkpt>
      <trkpt lat="44.63539" lon="5.8591">
        <ele>1403.6</ele>
        <time>2015-07-01T07:18:14Z</time>
      </trkpt>
      <trkpt lat="44.63544" lon="5.85912">
        <ele>1404.4</ele>
        <time>2015-07-01T07:18:19Z</time>
      </trkpt>
      <trkpt lat="44.63549" lon="5.85914">
        <ele>1404</ele>
        <time>2015-07-01T07:18:24Z</time>
      </trkpt>
      <trkpt lat="44.63555" lon="5.85914">
        <ele>1404.7</ele>
        <time>2015-07-01T07:18:29Z</time>
      </trkpt>
      <trkpt lat="44.6356" lon="5.85913">
        <ele>1406.4</ele>
        <time>2015-07-01T07:18:34Z</time>
      </trkpt>
      <trkpt lat="44.63562" lon="5.85914">
        <ele>1405.6</ele>
        <time>2015-07-01T07:18:39Z</time>
      </trkpt>
      <trkpt lat="44.63562" lon="5.85914">
        <ele>1404.9</ele>
        <time>2015-07-01T07:18:44Z</time>
      </trkpt>
      <trkpt lat="44.63563" lon="5.85914">
        <ele>1404.7</ele>
        <time>2015-07-01T07:18:49Z</time>
      </trkpt>
      <trkpt lat="44.63568" lon="5.85912">
        <ele>1403.6</ele>
        <time>2015-07-01T07:18:54Z</time>
      </trkpt>
      <trkpt lat="44.63574" lon="5.8591">
        <ele>1403.5</ele>
        <time>2015-07-01T07:18:59Z</time>
      </trkpt>
      <trkpt lat="44.63578" lon="5.85908">
        <ele>1403.4</ele>
        <time>2015-07-01T07:19:04Z</time>
      </trkpt>
      <trkpt lat="44.63582" lon="5.85906">
        <ele>1403.2</ele>
        <time>2015-07-01T07:19:09Z</time>
      </trkpt>
      <trkpt lat="44.63587" lon="5.85906">
        <ele>1404.4</ele>
        <time>2015-07-01T07:19:14Z</time>
      </trkpt>
      <trkpt lat="44.63593" lon="5.85909">
        <ele>1404</ele>
        <time>2015-07-01T07:19:19Z</time>
      </trkpt>
      <trkpt lat="44.63599" lon="5.85913">
        <ele>1403.4</ele>
        <time>2015-07-01T07:19:24Z</time>
      </trkpt>
      <trkpt lat="44.63604" lon="5.85916">
        <ele>1405</ele>
        <time>2015-07-01T07:19:29Z</time>
      </trkpt>
      <trkpt lat="44.63609" lon="5.85921">
        <ele>1403.6</ele>
        <time>2015-07-01T07:19:34Z</time>
      </trkpt>
      <trkpt lat="44.63614" lon="5.85926">
        <ele>1405.2</ele>
        <time>2015-07-01T07:19:39Z</time>
      </trkpt>
      <trkpt lat="44.63619" lon="5.85928">
        <ele>1406.6</ele>
        <time>2015-07-01T07:19:44Z</time>
      </trkpt>
      <trkpt lat="44.63623" lon="5.85931">
        <ele>1408.7</ele>
        <time>2015-07-01T07:19:49Z</time>
      </trkpt>
      <trkpt lat="44.63628" lon="5.85933">
        <ele>1409.6</ele>
        <time>2015-07-01T07:19:54Z</time>
      </trkpt>
      <trkpt lat="44.63633" lon="5.85937">
        <ele>1410.1</ele>
        <time>2015-07-01T07:19:59Z</time>
      </trkpt>
      <trkpt lat="44.63637" lon="5.8594">
        <ele>1410.1</ele>
        <time>2015-07-01T07:20:04Z</time>
      </trkpt>
      <trkpt lat="44.63642" lon="5.85944">
        <ele>1410.6</ele>
        <time>2015-07-01T07:20:09Z</time>
      </trkpt>
      <trkpt lat="44.63643" lon="5.85951">
        <ele>1411.4</ele>
        <time>2015-07-01T07:20:14Z</time>
      </trkpt>
      <trkpt lat="44.63644" lon="5.85958">
        <ele>1412.7</ele>
        <time>2015-07-01T07:20:19Z</time>
      </trkpt>
      <trkpt lat="44.63646" lon="5.85963">
        <ele>1411.6</ele>
        <time>2015-07-01T07:20:24Z</time>
      </trkpt>
      <trkpt lat="44.63645" lon="5.85969">
        <ele>1409.7</ele>
        <time>2015-07-01T07:20:29Z</time>
      </trkpt>
      <trkpt lat="44.63646" lon="5.85977">
        <ele>1409</ele>
        <time>2015-07-01T07:20:34Z</time>
      </trkpt>
      <trkpt lat="44.63651" lon="5.85986">
        <ele>1409.9</ele>
        <time>2015-07-01T07:20:39Z</time>
      </trkpt>
      <trkpt lat="44.63654" lon="5.85993">
        <ele>1409.6</ele>
        <time>2015-07-01T07:20:44Z</time>
      </trkpt>
      <trkpt lat="44.63659" lon="5.85998">
        <ele>1409.6</ele>
        <time>2015-07-01T07:20:49Z</time>
      </trkpt>
      <trkpt lat="44.63662" lon="5.86003">
        <ele>1409.6</ele>
        <time>2015-07-01T07:20:54Z</time>
      </trkpt>
      <trkpt lat="44.63666" lon="5.86008">
        <ele>1410.3</ele>
        <time>2015-07-01T07:20:59Z</time>
      </trkpt>
      <trkpt lat="44.63671" lon="5.86012">
        <ele>1410.4</ele>
        <time>2015-07-01T07:21:04Z</time>
      </trkpt>
      <trkpt lat="44.63674" lon="5.86017">
        <ele>1411.5</ele>
        <time>2015-07-01T07:21:09Z</time>
      </trkpt>
      <trkpt lat="44.63679" lon="5.86019">
        <ele>1412.2</ele>
        <time>2015-07-01T07:21:14Z</time>
      </trkpt>
      <trkpt lat="44.63682" lon="5.86023">
        <ele>1410.8</ele>
        <time>2015-07-01T07:21:19Z</time>
      </trkpt>
      <trkpt lat="44.63687" lon="5.86026">
        <ele>1412.1</ele>
        <time>2015-07-01T07:21:24Z</time>
      </trkpt>
      <trkpt lat="44.63693" lon="5.86028">
        <ele>1414.6</ele>
        <time>2015-07-01T07:21:29Z</time>
      </trkpt>
      <trkpt lat="44.63699" lon="5.8603">
        <ele>1415.3</ele>
        <time>2015-07-01T07:21:34Z</time>
      </trkpt>
      <trkpt lat="44.63704" lon="5.86031">
        <ele>1415.5</ele>
        <time>2015-07-01T07:21:39Z</time>
      </trkpt>
      <trkpt lat="44.6371" lon="5.86032">
        <ele>1415.4</ele>
        <time>2015-07-01T07:21:44Z</time>
      </trkpt>
      <trkpt lat="44.63715" lon="5.86034">
        <ele>1413.6</ele>
        <time>2015-07-01T07:21:49Z</time>
      </trkpt>
      <trkpt lat="44.6372" lon="5.86038">
        <ele>1414.5</ele>
        <time>2015-07-01T07:21:54Z</time>
      </trkpt>
      <trkpt lat="44.63725" lon="5.86043">
        <ele>1413.8</ele>
        <time>2015-07-01T07:21:59Z</time>
      </trkpt>
      <trkpt lat="44.63728" lon="5.86049">
        <ele>1413.9</ele>
        <time>2015-07-01T07:22:04Z</time>
      </trkpt>
      <trkpt lat="44.63731" lon="5.86055">
        <ele>1413.7</ele>
        <time>2015-07-01T07:22:09Z</time>
      </trkpt>
      <trkpt lat="44.63734" lon="5.86062">
        <ele>1410.6</ele>
        <time>2015-07-01T07:22:14Z</time>
      </trkpt>
      <trkpt lat="44.63737" lon="5.86068">
        <ele>1408.1</ele>
        <time>2015-07-01T07:22:19Z</time>
      </trkpt>
      <trkpt lat="44.6374" lon="5.86074">
        <ele>1407</ele>
        <time>2015-07-01T07:22:24Z</time>
      </trkpt>
      <trkpt lat="44.63742" lon="5.86081">
        <ele>1406.8</ele>
        <time>2015-07-01T07:22:29Z</time>
      </trkpt>
      <trkpt lat="44.63744" lon="5.86088">
        <ele>1403.8</ele>
        <time>2015-07-01T07:22:34Z</time>
      </trkpt>
      <trkpt lat="44.63745" lon="5.86097">
        <ele>1402.3</ele>
        <time>2015-07-01T07:22:39Z</time>
      </trkpt>
      <trkpt lat="44.6375" lon="5.86105">
        <ele>1402.5</ele>
        <time>2015-07-01T07:22:44Z</time>
      </trkpt>
      <trkpt lat="44.63754" lon="5.86111">
        <ele>1408.2</ele>
        <time>2015-07-01T07:22:49Z</time>
      </trkpt>
      <trkpt lat="44.6376" lon="5.86112">
        <ele>1408.6</ele>
        <time>2015-07-01T07:22:54Z</time>
      </trkpt>
      <trkpt lat="44.63768" lon="5.86108">
        <ele>1412.9</ele>
        <time>2015-07-01T07:22:59Z</time>
      </trkpt>
      <trkpt lat="44.63774" lon="5.86104">
        <ele>1416.5</ele>
        <time>2015-07-01T07:23:04Z</time>
      </trkpt>
      <trkpt lat="44.6378" lon="5.86098">
        <ele>1419.8</ele>
        <time>2015-07-01T07:23:09Z</time>
      </trkpt>
      <trkpt lat="44.63783" lon="5.86094">
        <ele>1419.8</ele>
        <time>2015-07-01T07:23:14Z</time>
      </trkpt>
      <trkpt lat="44.63788" lon="5.8609">
        <ele>1419.5</ele>
        <time>2015-07-01T07:23:19Z</time>
      </trkpt>
      <trkpt lat="44.63794" lon="5.86087">
        <ele>1419.3</ele>
        <time>2015-07-01T07:23:24Z</time>
      </trkpt>
      <trkpt lat="44.63799" lon="5.86084">
        <ele>1419.3</ele>
        <time>2015-07-01T07:23:29Z</time>
      </trkpt>
      <trkpt lat="44.63803" lon="5.86079">
        <ele>1419.7</ele>
        <time>2015-07-01T07:23:34Z</time>
      </trkpt>
      <trkpt lat="44.63807" lon="5.86073">
        <ele>1420.7</ele>
        <time>2015-07-01T07:23:39Z</time>
      </trkpt>
      <trkpt lat="44.63811" lon="5.86068">
        <ele>1421.1</ele>
        <time>2015-07-01T07:23:44Z</time>
      </trkpt>
      <trkpt lat="44.63816" lon="5.86063">
        <ele>1421.1</ele>
        <time>2015-07-01T07:23:49Z</time>
      </trkpt>
      <trkpt lat="44.6382" lon="5.86059">
        <ele>1420.4</ele>
        <time>2015-07-01T07:23:54Z</time>
      </trkpt>
      <trkpt lat="44.63823" lon="5.8605">
        <ele>1421.7</ele>
        <time>2015-07-01T07:23:59Z</time>
      </trkpt>
      <trkpt lat="44.63828" lon="5.86043">
        <ele>1423</ele>
        <time>2015-07-01T07:24:04Z</time>
      </trkpt>
      <trkpt lat="44.63832" lon="5.86037">
        <ele>1423.9</ele>
        <time>2015-07-01T07:24:09Z</time>
      </trkpt>
      <trkpt lat="44.63836" lon="5.86033">
        <ele>1424.1</ele>
        <time>2015-07-01T07:24:14Z</time>
      </trkpt>
      <trkpt lat="44.6384" lon="5.86027">
        <ele>1424.2</ele>
        <time>2015-07-01T07:24:19Z</time>
      </trkpt>
      <trkpt lat="44.63844" lon="5.86022">
        <ele>1423.7</ele>
        <time>2015-07-01T07:24:24Z</time>
      </trkpt>
      <trkpt lat="44.63847" lon="5.86016">
        <ele>1425.6</ele>
        <time>2015-07-01T07:24:29Z</time>
      </trkpt>
      <trkpt lat="44.63851" lon="5.8601">
        <ele>1425.2</ele>
        <time>2015-07-01T07:24:34Z</time>
      </trkpt>
      <trkpt lat="44.63855" lon="5.86003">
        <ele>1428.1</ele>
        <time>2015-07-01T07:24:39Z</time>
      </trkpt>
      <trkpt lat="44.63859" lon="5.85999">
        <ele>1428.8</ele>
        <time>2015-07-01T07:24:44Z</time>
      </trkpt>
      <trkpt lat="44.63863" lon="5.85994">
        <ele>1429.2</ele>
        <time>2015-07-01T07:24:49Z</time>
      </trkpt>
      <trkpt lat="44.63866" lon="5.85986">
        <ele>1429.9</ele>
        <time>2015-07-01T07:24:54Z</time>
      </trkpt>
      <trkpt lat="44.63869" lon="5.85979">
        <ele>1431.1</ele>
        <time>2015-07-01T07:24:59Z</time>
      </trkpt>
      <trkpt lat="44.63871" lon="5.85972">
        <ele>1432.5</ele>
        <time>2015-07-01T07:25:04Z</time>
      </trkpt>
      <trkpt lat="44.63875" lon="5.85969">
        <ele>1432.5</ele>
        <time>2015-07-01T07:25:09Z</time>
      </trkpt>
      <trkpt lat="44.63879" lon="5.85963">
        <ele>1432.9</ele>
        <time>2015-07-01T07:25:14Z</time>
      </trkpt>
      <trkpt lat="44.63882" lon="5.85956">
        <ele>1433.8</ele>
        <time>2015-07-01T07:25:19Z</time>
      </trkpt>
      <trkpt lat="44.63885" lon="5.85949">
        <ele>1433.3</ele>
        <time>2015-07-01T07:25:24Z</time>
      </trkpt>
      <trkpt lat="44.63889" lon="5.85943">
        <ele>1433</ele>
        <time>2015-07-01T07:25:29Z</time>
      </trkpt>
      <trkpt lat="44.63892" lon="5.85936">
        <ele>1434</ele>
        <time>2015-07-01T07:25:34Z</time>
      </trkpt>
      <trkpt lat="44.63897" lon="5.85931">
        <ele>1433.8</ele>
        <time>2015-07-01T07:25:39Z</time>
      </trkpt>
      <trkpt lat="44.639" lon="5.85924">
        <ele>1434</ele>
        <time>2015-07-01T07:25:44Z</time>
      </trkpt>
      <trkpt lat="44.63902" lon="5.85916">
        <ele>1434.1</ele>
        <time>2015-07-01T07:25:49Z</time>
      </trkpt>
      <trkpt lat="44.63905" lon="5.85909">
        <ele>1434.1</ele>
        <time>2015-07-01T07:25:54Z</time>
      </trkpt>
      <trkpt lat="44.63908" lon="5.85902">
        <ele>1435.1</ele>
        <time>2015-07-01T07:25:59Z</time>
      </trkpt>
      <trkpt lat="44.63912" lon="5.85896">
        <ele>1434.7</ele>
        <time>2015-07-01T07:26:04Z</time>
      </trkpt>
      <trkpt lat="44.63916" lon="5.8589">
        <ele>1433.5</ele>
        <time>2015-07-01T07:26:09Z</time>
      </trkpt>
      <trkpt lat="44.6392" lon="5.85884">
        <ele>1434.1</ele>
        <time>2015-07-01T07:26:14Z</time>
      </trkpt>
      <trkpt lat="44.63924" lon="5.85877">
        <ele>1435</ele>
        <time>2015-07-01T07:26:19Z</time>
      </trkpt>
      <trkpt lat="44.63927" lon="5.85871">
        <ele>1433.3</ele>
        <time>2015-07-01T07:26:24Z</time>
      </trkpt>
      <trkpt lat="44.63928" lon="5.85863">
        <ele>1433.9</ele>
        <time>2015-07-01T07:26:29Z</time>
      </trkpt>
      <trkpt lat="44.63932" lon="5.85855">
        <ele>1433</ele>
        <time>2015-07-01T07:26:34Z</time>
      </trkpt>
      <trkpt lat="44.63935" lon="5.85848">
        <ele>1436.2</ele>
        <time>2015-07-01T07:26:39Z</time>
      </trkpt>
      <trkpt lat="44.63939" lon="5.85843">
        <ele>1437</ele>
        <time>2015-07-01T07:26:44Z</time>
      </trkpt>
      <trkpt lat="44.63945" lon="5.8584">
        <ele>1439.2</ele>
        <time>2015-07-01T07:26:49Z</time>
      </trkpt>
      <trkpt lat="44.63949" lon="5.85833">
        <ele>1439.1</ele>
        <time>2015-07-01T07:26:54Z</time>
      </trkpt>
      <trkpt lat="44.63949" lon="5.85824">
        <ele>1439.4</ele>
        <time>2015-07-01T07:26:59Z</time>
      </trkpt>
      <trkpt lat="44.6395" lon="5.85816">
        <ele>1439.5</ele>
        <time>2015-07-01T07:27:04Z</time>
      </trkpt>
      <trkpt lat="44.63952" lon="5.85809">
        <ele>1440.9</ele>
        <time>2015-07-01T07:27:09Z</time>
      </trkpt>
      <trkpt lat="44.63955" lon="5.85802">
        <ele>1441.7</ele>
        <time>2015-07-01T07:27:14Z</time>
      </trkpt>
      <trkpt lat="44.63963" lon="5.858">
        <ele>1444.2</ele>
        <time>2015-07-01T07:27:19Z</time>
      </trkpt>
      <trkpt lat="44.63967" lon="5.85797">
        <ele>1445.5</ele>
        <time>2015-07-01T07:27:24Z</time>
      </trkpt>
      <trkpt lat="44.6397" lon="5.85792">
        <ele>1444</ele>
        <time>2015-07-01T07:27:29Z</time>
      </trkpt>
      <trkpt lat="44.63975" lon="5.8579">
        <ele>1443.3</ele>
        <time>2015-07-01T07:27:34Z</time>
      </trkpt>
      <trkpt lat="44.63981" lon="5.85786">
        <ele>1444.9</ele>
        <time>2015-07-01T07:27:39Z</time>
      </trkpt>
      <trkpt lat="44.63986" lon="5.85781">
        <ele>1443.7</ele>
        <time>2015-07-01T07:27:44Z</time>
      </trkpt>
      <trkpt lat="44.63989" lon="5.85778">
        <ele>1440.8</ele>
        <time>2015-07-01T07:27:49Z</time>
      </trkpt>
      <trkpt lat="44.63989" lon="5.85769">
        <ele>1445.8</ele>
        <time>2015-07-01T07:27:54Z</time>
      </trkpt>
      <trkpt lat="44.63991" lon="5.85764">
        <ele>1450.6</ele>
        <time>2015-07-01T07:27:59Z</time>
      </trkpt>
      <trkpt lat="44.63993" lon="5.8576">
        <ele>1453.3</ele>
        <time>2015-07-01T07:28:04Z</time>
      </trkpt>
      <trkpt lat="44.63998" lon="5.85766">
        <ele>1451.4</ele>
        <time>2015-07-01T07:28:09Z</time>
      </trkpt>
      <trkpt lat="44.64006" lon="5.85769">
        <ele>1453.5</ele>
        <time>2015-07-01T07:28:14Z</time>
      </trkpt>
      <trkpt lat="44.64011" lon="5.8577">
        <ele>1454.2</ele>
        <time>2015-07-01T07:28:19Z</time>
      </trkpt>
      <trkpt lat="44.64017" lon="5.85771">
        <ele>1451.8</ele>
        <time>2015-07-01T07:28:24Z</time>
      </trkpt>
      <trkpt lat="44.64022" lon="5.85776">
        <ele>1446.9</ele>
        <time>2015-07-01T07:28:29Z</time>
      </trkpt>
      <trkpt lat="44.64026" lon="5.85781">
        <ele>1445.4</ele>
        <time>2015-07-01T07:28:34Z</time>
      </trkpt>
      <trkpt lat="44.64032" lon="5.85784">
        <ele>1445.1</ele>
        <time>2015-07-01T07:28:39Z</time>
      </trkpt>
      <trkpt lat="44.64036" lon="5.85788">
        <ele>1444.3</ele>
        <time>2015-07-01T07:28:44Z</time>
      </trkpt>
      <trkpt lat="44.64039" lon="5.85794">
        <ele>1445.6</ele>
        <time>2015-07-01T07:28:49Z</time>
      </trkpt>
      <trkpt lat="44.64043" lon="5.858">
        <ele>1445.2</ele>
        <time>2015-07-01T07:28:54Z</time>
      </trkpt>
      <trkpt lat="44.64046" lon="5.85806">
        <ele>1444.6</ele>
        <time>2015-07-01T07:28:59Z</time>
      </trkpt>
      <trkpt lat="44.64048" lon="5.85813">
        <ele>1446.2</ele>
        <time>2015-07-01T07:29:04Z</time>
      </trkpt>
      <trkpt lat="44.64051" lon="5.8582">
        <ele>1448</ele>
        <time>2015-07-01T07:29:09Z</time>
      </trkpt>
      <trkpt lat="44.64054" lon="5.85827">
        <ele>1450.1</ele>
        <time>2015-07-01T07:29:14Z</time>
      </trkpt>
      <trkpt lat="44.64056" lon="5.85834">
        <ele>1450.2</ele>
        <time>2015-07-01T07:29:19Z</time>
      </trkpt>
      <trkpt lat="44.64058" lon="5.85842">
        <ele>1450.8</ele>
        <time>2015-07-01T07:29:24Z</time>
      </trkpt>
      <trkpt lat="44.64059" lon="5.85849">
        <ele>1450.1</ele>
        <time>2015-07-01T07:29:29Z</time>
      </trkpt>
      <trkpt lat="44.64061" lon="5.85857">
        <ele>1449.9</ele>
        <time>2015-07-01T07:29:34Z</time>
      </trkpt>
      <trkpt lat="44.64061" lon="5.85864">
        <ele>1450.2</ele>
        <time>2015-07-01T07:29:39Z</time>
      </trkpt>
      <trkpt lat="44.64062" lon="5.85872">
        <ele>1450.4</ele>
        <time>2015-07-01T07:29:44Z</time>
      </trkpt>
      <trkpt lat="44.64064" lon="5.85878">
        <ele>1451.6</ele>
        <time>2015-07-01T07:29:49Z</time>
      </trkpt>
      <trkpt lat="44.64065" lon="5.85885">
        <ele>1452.7</ele>
        <time>2015-07-01T07:29:54Z</time>
      </trkpt>
      <trkpt lat="44.64066" lon="5.85893">
        <ele>1452.6</ele>
        <time>2015-07-01T07:29:59Z</time>
      </trkpt>
      <trkpt lat="44.64067" lon="5.85901">
        <ele>1455.1</ele>
        <time>2015-07-01T07:30:04Z</time>
      </trkpt>
      <trkpt lat="44.64067" lon="5.85908">
        <ele>1455.5</ele>
        <time>2015-07-01T07:30:09Z</time>
      </trkpt>
      <trkpt lat="44.64068" lon="5.85916">
        <ele>1457.9</ele>
        <time>2015-07-01T07:30:14Z</time>
      </trkpt>
      <trkpt lat="44.64069" lon="5.85923">
        <ele>1459.7</ele>
        <time>2015-07-01T07:30:19Z</time>
      </trkpt>
      <trkpt lat="44.6407" lon="5.8593">
        <ele>1460.5</ele>
        <time>2015-07-01T07:30:24Z</time>
      </trkpt>
      <trkpt lat="44.64074" lon="5.8594">
        <ele>1461.6</ele>
        <time>2015-07-01T07:30:31Z</time>
      </trkpt>
      <trkpt lat="44.64076" lon="5.85949">
        <ele>1458.2</ele>
        <time>2015-07-01T07:30:36Z</time>
      </trkpt>
      <trkpt lat="44.6408" lon="5.85954">
        <ele>1457.4</ele>
        <time>2015-07-01T07:30:41Z</time>
      </trkpt>
      <trkpt lat="44.64083" lon="5.85961">
        <ele>1459.4</ele>
        <time>2015-07-01T07:30:46Z</time>
      </trkpt>
      <trkpt lat="44.64087" lon="5.85968">
        <ele>1460.3</ele>
        <time>2015-07-01T07:30:51Z</time>
      </trkpt>
      <trkpt lat="44.6409" lon="5.85973">
        <ele>1460.9</ele>
        <time>2015-07-01T07:30:56Z</time>
      </trkpt>
      <trkpt lat="44.64093" lon="5.85979">
        <ele>1463.3</ele>
        <time>2015-07-01T07:31:01Z</time>
      </trkpt>
      <trkpt lat="44.64096" lon="5.85987">
        <ele>1461.6</ele>
        <time>2015-07-01T07:31:06Z</time>
      </trkpt>
      <trkpt lat="44.64099" lon="5.85993">
        <ele>1460.4</ele>
        <time>2015-07-01T07:31:11Z</time>
      </trkpt>
      <trkpt lat="44.64103" lon="5.85996">
        <ele>1458.8</ele>
        <time>2015-07-01T07:31:16Z</time>
      </trkpt>
      <trkpt lat="44.64108" lon="5.86001">
        <ele>1459.8</ele>
        <time>2015-07-01T07:31:21Z</time>
      </trkpt>
      <trkpt lat="44.64111" lon="5.86008">
        <ele>1459.7</ele>
        <time>2015-07-01T07:31:26Z</time>
      </trkpt>
      <trkpt lat="44.64114" lon="5.86014">
        <ele>1459.1</ele>
        <time>2015-07-01T07:31:31Z</time>
      </trkpt>
      <trkpt lat="44.64119" lon="5.86018">
        <ele>1459.9</ele>
        <time>2015-07-01T07:31:36Z</time>
      </trkpt>
      <trkpt lat="44.64124" lon="5.86023">
        <ele>1460.1</ele>
        <time>2015-07-01T07:31:41Z</time>
      </trkpt>
      <trkpt lat="44.64129" lon="5.86025">
        <ele>1460.8</ele>
        <time>2015-07-01T07:31:46Z</time>
      </trkpt>
      <trkpt lat="44.64135" lon="5.86024">
        <ele>1462.4</ele>
        <time>2015-07-01T07:31:51Z</time>
      </trkpt>
      <trkpt lat="44.6414" lon="5.8602">
        <ele>1464.9</ele>
        <time>2015-07-01T07:31:56Z</time>
      </trkpt>
      <trkpt lat="44.64146" lon="5.86016">
        <ele>1468.3</ele>
        <time>2015-07-01T07:32:01Z</time>
      </trkpt>
      <trkpt lat="44.64152" lon="5.86013">
        <ele>1466.4</ele>
        <time>2015-07-01T07:32:06Z</time>
      </trkpt>
      <trkpt lat="44.64156" lon="5.86015">
        <ele>1464.1</ele>
        <time>2015-07-01T07:32:11Z</time>
      </trkpt>
      <trkpt lat="44.6416" lon="5.8602">
        <ele>1461.5</ele>
        <time>2015-07-01T07:32:16Z</time>
      </trkpt>
      <trkpt lat="44.64164" lon="5.86025">
        <ele>1460.1</ele>
        <time>2015-07-01T07:32:21Z</time>
      </trkpt>
      <trkpt lat="44.64168" lon="5.86029">
        <ele>1460.6</ele>
        <time>2015-07-01T07:32:26Z</time>
      </trkpt>
      <trkpt lat="44.64173" lon="5.86031">
        <ele>1462.2</ele>
        <time>2015-07-01T07:32:31Z</time>
      </trkpt>
      <trkpt lat="44.64182" lon="5.86024">
        <ele>1464.5</ele>
        <time>2015-07-01T07:32:40Z</time>
      </trkpt>
      <trkpt lat="44.64187" lon="5.86018">
        <ele>1466.2</ele>
        <time>2015-07-01T07:32:45Z</time>
      </trkpt>
      <trkpt lat="44.64193" lon="5.86014">
        <ele>1469.7</ele>
        <time>2015-07-01T07:32:50Z</time>
      </trkpt>
      <trkpt lat="44.642" lon="5.86011">
        <ele>1471.3</ele>
        <time>2015-07-01T07:32:55Z</time>
      </trkpt>
      <trkpt lat="44.64202" lon="5.86013">
        <ele>1470.7</ele>
        <time>2015-07-01T07:33:00Z</time>
      </trkpt>
      <trkpt lat="44.64207" lon="5.86022">
        <ele>1469</ele>
        <time>2015-07-01T07:33:07Z</time>
      </trkpt>
      <trkpt lat="44.64212" lon="5.86026">
        <ele>1467.2</ele>
        <time>2015-07-01T07:33:12Z</time>
      </trkpt>
      <trkpt lat="44.64217" lon="5.86031">
        <ele>1467.1</ele>
        <time>2015-07-01T07:33:17Z</time>
      </trkpt>
      <trkpt lat="44.64222" lon="5.86033">
        <ele>1466.6</ele>
        <time>2015-07-01T07:33:22Z</time>
      </trkpt>
      <trkpt lat="44.64229" lon="5.86031">
        <ele>1470.5</ele>
        <time>2015-07-01T07:33:27Z</time>
      </trkpt>
      <trkpt lat="44.64235" lon="5.86028">
        <ele>1471.6</ele>
        <time>2015-07-01T07:33:32Z</time>
      </trkpt>
      <trkpt lat="44.6424" lon="5.86025">
        <ele>1472.4</ele>
        <time>2015-07-01T07:33:37Z</time>
      </trkpt>
      <trkpt lat="44.64246" lon="5.86026">
        <ele>1473.9</ele>
        <time>2015-07-01T07:33:42Z</time>
      </trkpt>
      <trkpt lat="44.64251" lon="5.86028">
        <ele>1473.9</ele>
        <time>2015-07-01T07:33:47Z</time>
      </trkpt>
      <trkpt lat="44.64253" lon="5.86031">
        <ele>1475.6</ele>
        <time>2015-07-01T07:33:52Z</time>
      </trkpt>
      <trkpt lat="44.64262" lon="5.86029">
        <ele>1476.4</ele>
        <time>2015-07-01T07:33:59Z</time>
      </trkpt>
      <trkpt lat="44.64269" lon="5.86024">
        <ele>1476.6</ele>
        <time>2015-07-01T07:34:04Z</time>
      </trkpt>
      <trkpt lat="44.64274" lon="5.86017">
        <ele>1479.8</ele>
        <time>2015-07-01T07:34:09Z</time>
      </trkpt>
      <trkpt lat="44.64278" lon="5.86011">
        <ele>1479.5</ele>
        <time>2015-07-01T07:34:14Z</time>
      </trkpt>
      <trkpt lat="44.64281" lon="5.86004">
        <ele>1482</ele>
        <time>2015-07-01T07:34:19Z</time>
      </trkpt>
      <trkpt lat="44.64285" lon="5.85997">
        <ele>1481.2</ele>
        <time>2015-07-01T07:34:24Z</time>
      </trkpt>
      <trkpt lat="44.64288" lon="5.8599">
        <ele>1482.7</ele>
        <time>2015-07-01T07:34:29Z</time>
      </trkpt>
      <trkpt lat="44.6429" lon="5.85983">
        <ele>1482.4</ele>
        <time>2015-07-01T07:34:34Z</time>
      </trkpt>
      <trkpt lat="44.64295" lon="5.85976">
        <ele>1485.6</ele>
        <time>2015-07-01T07:34:39Z</time>
      </trkpt>
      <trkpt lat="44.64298" lon="5.85968">
        <ele>1485.3</ele>
        <time>2015-07-01T07:34:44Z</time>
      </trkpt>
      <trkpt lat="44.64299" lon="5.85962">
        <ele>1485.2</ele>
        <time>2015-07-01T07:34:49Z</time>
      </trkpt>
      <trkpt lat="44.64302" lon="5.85954">
        <ele>1486</ele>
        <time>2015-07-01T07:34:54Z</time>
      </trkpt>
      <trkpt lat="44.64304" lon="5.85947">
        <ele>1486.9</ele>
        <time>2015-07-01T07:34:59Z</time>
      </trkpt>
      <trkpt lat="44.64306" lon="5.85941">
        <ele>1487.9</ele>
        <time>2015-07-01T07:35:04Z</time>
      </trkpt>
      <trkpt lat="44.64311" lon="5.85935">
        <ele>1483.2</ele>
        <time>2015-07-01T07:35:09Z</time>
      </trkpt>
      <trkpt lat="44.64316" lon="5.85931">
        <ele>1483.6</ele>
        <time>2015-07-01T07:35:14Z</time>
      </trkpt>
      <trkpt lat="44.64319" lon="5.85925">
        <ele>1484.8</ele>
        <time>2015-07-01T07:35:19Z</time>
      </trkpt>
      <trkpt lat="44.64324" lon="5.85921">
        <ele>1486.7</ele>
        <time>2015-07-01T07:35:24Z</time>
      </trkpt>
      <trkpt lat="44.6433" lon="5.8592">
        <ele>1487.5</ele>
        <time>2015-07-01T07:35:29Z</time>
      </trkpt>
      <trkpt lat="44.64337" lon="5.85915">
        <ele>1487.1</ele>
        <time>2015-07-01T07:35:34Z</time>
      </trkpt>
      <trkpt lat="44.6434" lon="5.8591">
        <ele>1486.7</ele>
        <time>2015-07-01T07:35:39Z</time>
      </trkpt>
      <trkpt lat="44.64344" lon="5.85906">
        <ele>1484.9</ele>
        <time>2015-07-01T07:35:44Z</time>
      </trkpt>
      <trkpt lat="44.64348" lon="5.85902">
        <ele>1483.2</ele>
        <time>2015-07-01T07:35:49Z</time>
      </trkpt>
      <trkpt lat="44.64352" lon="5.85897">
        <ele>1483.5</ele>
        <time>2015-07-01T07:35:54Z</time>
      </trkpt>
      <trkpt lat="44.64357" lon="5.85893">
        <ele>1485.7</ele>
        <time>2015-07-01T07:35:59Z</time>
      </trkpt>
      <trkpt lat="44.64361" lon="5.85888">
        <ele>1489.5</ele>
        <time>2015-07-01T07:36:04Z</time>
      </trkpt>
      <trkpt lat="44.64366" lon="5.85887">
        <ele>1489.5</ele>
        <time>2015-07-01T07:36:09Z</time>
      </trkpt>
      <trkpt lat="44.6437" lon="5.85884">
        <ele>1492.2</ele>
        <time>2015-07-01T07:36:14Z</time>
      </trkpt>
      <trkpt lat="44.64374" lon="5.85884">
        <ele>1491.4</ele>
        <time>2015-07-01T07:36:19Z</time>
      </trkpt>
      <trkpt lat="44.64378" lon="5.85883">
        <ele>1492.8</ele>
        <time>2015-07-01T07:36:24Z</time>
      </trkpt>
      <trkpt lat="44.64377" lon="5.85885">
        <ele>1494.4</ele>
        <time>2015-07-01T07:36:29Z</time>
      </trkpt>
      <trkpt lat="44.64385" lon="5.85886">
        <ele>1496</ele>
        <time>2015-07-01T07:36:36Z</time>
      </trkpt>
      <trkpt lat="44.64389" lon="5.8589">
        <ele>1495.9</ele>
        <time>2015-07-01T07:36:41Z</time>
      </trkpt>
      <trkpt lat="44.64393" lon="5.85891">
        <ele>1496.4</ele>
        <time>2015-07-01T07:36:46Z</time>
      </trkpt>
      <trkpt lat="44.64399" lon="5.85894">
        <ele>1492.6</ele>
        <time>2015-07-01T07:36:51Z</time>
      </trkpt>
      <trkpt lat="44.64406" lon="5.85896">
        <ele>1491.4</ele>
        <time>2015-07-01T07:36:56Z</time>
      </trkpt>
      <trkpt lat="44.64411" lon="5.85898">
        <ele>1491.8</ele>
        <time>2015-07-01T07:37:01Z</time>
      </trkpt>
      <trkpt lat="44.64415" lon="5.85901">
        <ele>1493.7</ele>
        <time>2015-07-01T07:37:06Z</time>
      </trkpt>
      <trkpt lat="44.6442" lon="5.85902">
        <ele>1496.2</ele>
        <time>2015-07-01T07:37:11Z</time>
      </trkpt>
      <trkpt lat="44.64425" lon="5.85903">
        <ele>1498.9</ele>
        <time>2015-07-01T07:37:16Z</time>
      </trkpt>
      <trkpt lat="44.6443" lon="5.85906">
        <ele>1497.8</ele>
        <time>2015-07-01T07:37:21Z</time>
      </trkpt>
      <trkpt lat="44.64435" lon="5.8591">
        <ele>1497.6</ele>
        <time>2015-07-01T07:37:26Z</time>
      </trkpt>
      <trkpt lat="44.64439" lon="5.85914">
        <ele>1498.4</ele>
        <time>2015-07-01T07:37:31Z</time>
      </trkpt>
      <trkpt lat="44.64446" lon="5.85918">
        <ele>1498.4</ele>
        <time>2015-07-01T07:37:36Z</time>
      </trkpt>
      <trkpt lat="44.64452" lon="5.85922">
        <ele>1498.9</ele>
        <time>2015-07-01T07:37:41Z</time>
      </trkpt>
      <trkpt lat="44.64457" lon="5.85925">
        <ele>1499.8</ele>
        <time>2015-07-01T07:37:46Z</time>
      </trkpt>
      <trkpt lat="44.6446" lon="5.85931">
        <ele>1502</ele>
        <time>2015-07-01T07:37:51Z</time>
      </trkpt>
      <trkpt lat="44.64465" lon="5.85936">
        <ele>1500.6</ele>
        <time>2015-07-01T07:37:56Z</time>
      </trkpt>
      <trkpt lat="44.64468" lon="5.85941">
        <ele>1498.8</ele>
        <time>2015-07-01T07:38:01Z</time>
      </trkpt>
      <trkpt lat="44.64473" lon="5.85945">
        <ele>1498.7</ele>
        <time>2015-07-01T07:38:06Z</time>
      </trkpt>
      <trkpt lat="44.64476" lon="5.85951">
        <ele>1497.4</ele>
        <time>2015-07-01T07:38:11Z</time>
      </trkpt>
      <trkpt lat="44.6448" lon="5.85956">
        <ele>1495.9</ele>
        <time>2015-07-01T07:38:16Z</time>
      </trkpt>
      <trkpt lat="44.64484" lon="5.8596">
        <ele>1496.6</ele>
        <time>2015-07-01T07:38:21Z</time>
      </trkpt>
      <trkpt lat="44.64488" lon="5.85964">
        <ele>1496.9</ele>
        <time>2015-07-01T07:38:26Z</time>
      </trkpt>
      <trkpt lat="44.64491" lon="5.8597">
        <ele>1499.1</ele>
        <time>2015-07-01T07:38:31Z</time>
      </trkpt>
      <trkpt lat="44.64494" lon="5.85977">
        <ele>1499.2</ele>
        <time>2015-07-01T07:38:36Z</time>
      </trkpt>
      <trkpt lat="44.64497" lon="5.85983">
        <ele>1499.5</ele>
        <time>2015-07-01T07:38:41Z</time>
      </trkpt>
      <trkpt lat="44.64499" lon="5.8599">
        <ele>1500.3</ele>
        <time>2015-07-01T07:38:46Z</time>
      </trkpt>
      <trkpt lat="44.64503" lon="5.85996">
        <ele>1501.7</ele>
        <time>2015-07-01T07:38:51Z</time>
      </trkpt>
      <trkpt lat="44.64506" lon="5.86002">
        <ele>1502.1</ele>
        <time>2015-07-01T07:38:56Z</time>
      </trkpt>
      <trkpt lat="44.64509" lon="5.86011">
        <ele>1502.5</ele>
        <time>2015-07-01T07:39:01Z</time>
      </trkpt>
      <trkpt lat="44.64512" lon="5.86018">
        <ele>1502</ele>
        <time>2015-07-01T07:39:06Z</time>
      </trkpt>
      <trkpt lat="44.64518" lon="5.86021">
        <ele>1500.9</ele>
        <time>2015-07-01T07:39:11Z</time>
      </trkpt>
      <trkpt lat="44.64521" lon="5.86028">
        <ele>1498.6</ele>
        <time>2015-07-01T07:39:16Z</time>
      </trkpt>
      <trkpt lat="44.64524" lon="5.86035">
        <ele>1497.3</ele>
        <time>2015-07-01T07:39:21Z</time>
      </trkpt>
      <trkpt lat="44.64527" lon="5.86043">
        <ele>1496.4</ele>
        <time>2015-07-01T07:39:26Z</time>
      </trkpt>
      <trkpt lat="44.6453" lon="5.8605">
        <ele>1495</ele>
        <time>2015-07-01T07:39:31Z</time>
      </trkpt>
      <trkpt lat="44.64534" lon="5.86056">
        <ele>1497.5</ele>
        <time>2015-07-01T07:39:36Z</time>
      </trkpt>
      <trkpt lat="44.6454" lon="5.86061">
        <ele>1497.2</ele>
        <time>2015-07-01T07:39:41Z</time>
      </trkpt>
      <trkpt lat="44.64545" lon="5.86066">
        <ele>1496.2</ele>
        <time>2015-07-01T07:39:46Z</time>
      </trkpt>
      <trkpt lat="44.64549" lon="5.86072">
        <ele>1495.7</ele>
        <time>2015-07-01T07:39:51Z</time>
      </trkpt>
      <trkpt lat="44.64552" lon="5.86077">
        <ele>1496.1</ele>
        <time>2015-07-01T07:39:56Z</time>
      </trkpt>
      <trkpt lat="44.64555" lon="5.86084">
        <ele>1496.3</ele>
        <time>2015-07-01T07:40:01Z</time>
      </trkpt>
      <trkpt lat="44.6456" lon="5.86089">
        <ele>1498.3</ele>
        <time>2015-07-01T07:40:06Z</time>
      </trkpt>
      <trkpt lat="44.64565" lon="5.86093">
        <ele>1500</ele>
        <time>2015-07-01T07:40:11Z</time>
      </trkpt>
      <trkpt lat="44.64569" lon="5.86096">
        <ele>1500.7</ele>
        <time>2015-07-01T07:40:16Z</time>
      </trkpt>
      <trkpt lat="44.64576" lon="5.86097">
        <ele>1502.2</ele>
        <time>2015-07-01T07:40:22Z</time>
      </trkpt>
      <trkpt lat="44.64583" lon="5.86097">
        <ele>1504.5</ele>
        <time>2015-07-01T07:40:27Z</time>
      </trkpt>
      <trkpt lat="44.64591" lon="5.86099">
        <ele>1504.8</ele>
        <time>2015-07-01T07:40:33Z</time>
      </trkpt>
      <trkpt lat="44.64596" lon="5.861">
        <ele>1503.2</ele>
        <time>2015-07-01T07:40:38Z</time>
      </trkpt>
      <trkpt lat="44.64603" lon="5.86099">
        <ele>1501.9</ele>
        <time>2015-07-01T07:40:43Z</time>
      </trkpt>
      <trkpt lat="44.64609" lon="5.86095">
        <ele>1499.9</ele>
        <time>2015-07-01T07:40:48Z</time>
      </trkpt>
      <trkpt lat="44.64613" lon="5.86087">
        <ele>1498.7</ele>
        <time>2015-07-01T07:40:53Z</time>
      </trkpt>
      <trkpt lat="44.64615" lon="5.86078">
        <ele>1496.4</ele>
        <time>2015-07-01T07:40:58Z</time>
      </trkpt>
      <trkpt lat="44.64621" lon="5.86072">
        <ele>1496.3</ele>
        <time>2015-07-01T07:41:03Z</time>
      </trkpt>
      <trkpt lat="44.64628" lon="5.86069">
        <ele>1497.7</ele>
        <time>2015-07-01T07:41:08Z</time>
      </trkpt>
      <trkpt lat="44.64634" lon="5.86065">
        <ele>1497</ele>
        <time>2015-07-01T07:41:13Z</time>
      </trkpt>
      <trkpt lat="44.64639" lon="5.86057">
        <ele>1501</ele>
        <time>2015-07-01T07:41:18Z</time>
      </trkpt>
      <trkpt lat="44.64642" lon="5.86052">
        <ele>1496.6</ele>
        <time>2015-07-01T07:41:23Z</time>
      </trkpt>
      <trkpt lat="44.64644" lon="5.86043">
        <ele>1495</ele>
        <time>2015-07-01T07:41:28Z</time>
      </trkpt>
      <trkpt lat="44.64645" lon="5.86035">
        <ele>1494.5</ele>
        <time>2015-07-01T07:41:33Z</time>
      </trkpt>
      <trkpt lat="44.64647" lon="5.86026">
        <ele>1494.2</ele>
        <time>2015-07-01T07:41:38Z</time>
      </trkpt>
      <trkpt lat="44.64651" lon="5.86018">
        <ele>1492.8</ele>
        <time>2015-07-01T07:41:43Z</time>
      </trkpt>
      <trkpt lat="44.64655" lon="5.86012">
        <ele>1489.8</ele>
        <time>2015-07-01T07:41:48Z</time>
      </trkpt>
      <trkpt lat="44.64657" lon="5.86003">
        <ele>1491.1</ele>
        <time>2015-07-01T07:41:53Z</time>
      </trkpt>
      <trkpt lat="44.6466" lon="5.85996">
        <ele>1488.8</ele>
        <time>2015-07-01T07:41:58Z</time>
      </trkpt>
      <trkpt lat="44.6466" lon="5.85986">
        <ele>1488</ele>
        <time>2015-07-01T07:42:03Z</time>
      </trkpt>
      <trkpt lat="44.64663" lon="5.85977">
        <ele>1486.1</ele>
        <time>2015-07-01T07:42:08Z</time>
      </trkpt>
      <trkpt lat="44.64665" lon="5.8597">
        <ele>1484.4</ele>
        <time>2015-07-01T07:42:13Z</time>
      </trkpt>
      <trkpt lat="44.64667" lon="5.8596">
        <ele>1483.9</ele>
        <time>2015-07-01T07:42:18Z</time>
      </trkpt>
      <trkpt lat="44.64668" lon="5.8595">
        <ele>1484.2</ele>
        <time>2015-07-01T07:42:23Z</time>
      </trkpt>
      <trkpt lat="44.6467" lon="5.8594">
        <ele>1484.4</ele>
        <time>2015-07-01T07:42:28Z</time>
      </trkpt>
      <trkpt lat="44.64673" lon="5.85931">
        <ele>1485.6</ele>
        <time>2015-07-01T07:42:33Z</time>
      </trkpt>
      <trkpt lat="44.64676" lon="5.85923">
        <ele>1487.2</ele>
        <time>2015-07-01T07:42:38Z</time>
      </trkpt>
      <trkpt lat="44.64678" lon="5.85915">
        <ele>1488.4</ele>
        <time>2015-07-01T07:42:43Z</time>
      </trkpt>
      <trkpt lat="44.64681" lon="5.85908">
        <ele>1490.7</ele>
        <time>2015-07-01T07:42:48Z</time>
      </trkpt>
      <trkpt lat="44.64688" lon="5.85906">
        <ele>1493</ele>
        <time>2015-07-01T07:42:53Z</time>
      </trkpt>
      <trkpt lat="44.64693" lon="5.85907">
        <ele>1491.4</ele>
        <time>2015-07-01T07:42:58Z</time>
      </trkpt>
      <trkpt lat="44.647" lon="5.85906">
        <ele>1491.2</ele>
        <time>2015-07-01T07:43:03Z</time>
      </trkpt>
      <trkpt lat="44.64708" lon="5.85907">
        <ele>1490</ele>
        <time>2015-07-01T07:43:08Z</time>
      </trkpt>
      <trkpt lat="44.64713" lon="5.8591">
        <ele>1490.3</ele>
        <time>2015-07-01T07:43:13Z</time>
      </trkpt>
      <trkpt lat="44.64719" lon="5.85912">
        <ele>1489.6</ele>
        <time>2015-07-01T07:43:18Z</time>
      </trkpt>
      <trkpt lat="44.64724" lon="5.85914">
        <ele>1487.7</ele>
        <time>2015-07-01T07:43:23Z</time>
      </trkpt>
      <trkpt lat="44.6473" lon="5.85912">
        <ele>1487.7</ele>
        <time>2015-07-01T07:43:28Z</time>
      </trkpt>
      <trkpt lat="44.64735" lon="5.85909">
        <ele>1489.5</ele>
        <time>2015-07-01T07:43:33Z</time>
      </trkpt>
      <trkpt lat="44.64743" lon="5.85907">
        <ele>1486.3</ele>
        <time>2015-07-01T07:43:38Z</time>
      </trkpt>
      <trkpt lat="44.6475" lon="5.85905">
        <ele>1486.4</ele>
        <time>2015-07-01T07:43:43Z</time>
      </trkpt>
      <trkpt lat="44.64757" lon="5.85903">
        <ele>1488.2</ele>
        <time>2015-07-01T07:43:48Z</time>
      </trkpt>
      <trkpt lat="44.64763" lon="5.85901">
        <ele>1487.3</ele>
        <time>2015-07-01T07:43:53Z</time>
      </trkpt>
      <trkpt lat="44.6477" lon="5.85902">
        <ele>1485.9</ele>
        <time>2015-07-01T07:43:58Z</time>
      </trkpt>
      <trkpt lat="44.64774" lon="5.85903">
        <ele>1482.4</ele>
        <time>2015-07-01T07:44:03Z</time>
      </trkpt>
      <trkpt lat="44.64784" lon="5.85906">
        <ele>1480.6</ele>
        <time>2015-07-01T07:44:10Z</time>
      </trkpt>
      <trkpt lat="44.6479" lon="5.85905">
        <ele>1481.4</ele>
        <time>2015-07-01T07:44:15Z</time>
      </trkpt>
      <trkpt lat="44.64796" lon="5.85903">
        <ele>1481.6</ele>
        <time>2015-07-01T07:44:20Z</time>
      </trkpt>
      <trkpt lat="44.64801" lon="5.85901">
        <ele>1480</ele>
        <time>2015-07-01T07:44:25Z</time>
      </trkpt>
      <trkpt lat="44.64806" lon="5.859">
        <ele>1476.9</ele>
        <time>2015-07-01T07:44:30Z</time>
      </trkpt>
      <trkpt lat="44.64812" lon="5.85899">
        <ele>1476.7</ele>
        <time>2015-07-01T07:44:35Z</time>
      </trkpt>
      <trkpt lat="44.64817" lon="5.85896">
        <ele>1477</ele>
        <time>2015-07-01T07:44:40Z</time>
      </trkpt>
      <trkpt lat="44.64824" lon="5.85897">
        <ele>1472.4</ele>
        <time>2015-07-01T07:44:45Z</time>
      </trkpt>
      <trkpt lat="44.6483" lon="5.85899">
        <ele>1472</ele>
        <time>2015-07-01T07:44:50Z</time>
      </trkpt>
      <trkpt lat="44.64833" lon="5.85903">
        <ele>1468.4</ele>
        <time>2015-07-01T07:44:55Z</time>
      </trkpt>
      <trkpt lat="44.64837" lon="5.85906">
        <ele>1464.9</ele>
        <time>2015-07-01T07:45:00Z</time>
      </trkpt>
      <trkpt lat="44.64843" lon="5.85906">
        <ele>1465.5</ele>
        <time>2015-07-01T07:45:05Z</time>
      </trkpt>
      <trkpt lat="44.64852" lon="5.85901">
        <ele>1465.7</ele>
        <time>2015-07-01T07:45:11Z</time>
      </trkpt>
      <trkpt lat="44.64859" lon="5.859">
        <ele>1466</ele>
        <time>2015-07-01T07:45:16Z</time>
      </trkpt>
      <trkpt lat="44.64863" lon="5.85902">
        <ele>1465.8</ele>
        <time>2015-07-01T07:45:21Z</time>
      </trkpt>
      <trkpt lat="44.64869" lon="5.85902">
        <ele>1468.1</ele>
        <time>2015-07-01T07:45:26Z</time>
      </trkpt>
      <trkpt lat="44.64879" lon="5.85898">
        <ele>1469.2</ele>
        <time>2015-07-01T07:45:33Z</time>
      </trkpt>
      <trkpt lat="44.64885" lon="5.85889">
        <ele>1472.2</ele>
        <time>2015-07-01T07:45:38Z</time>
      </trkpt>
      <trkpt lat="44.64891" lon="5.8589">
        <ele>1468.5</ele>
        <time>2015-07-01T07:45:43Z</time>
      </trkpt>
      <trkpt lat="44.64896" lon="5.85888">
        <ele>1467.4</ele>
        <time>2015-07-01T07:45:48Z</time>
      </trkpt>
      <trkpt lat="44.64901" lon="5.85889">
        <ele>1465.6</ele>
        <time>2015-07-01T07:45:53Z</time>
      </trkpt>
      <trkpt lat="44.64913" lon="5.85892">
        <ele>1465</ele>
        <time>2015-07-01T07:46:00Z</time>
      </trkpt>
      <trkpt lat="44.64918" lon="5.85896">
        <ele>1461.4</ele>
        <time>2015-07-01T07:46:05Z</time>
      </trkpt>
      <trkpt lat="44.64924" lon="5.85897">
        <ele>1462</ele>
        <time>2015-07-01T07:46:10Z</time>
      </trkpt>
      <trkpt lat="44.64929" lon="5.85898">
        <ele>1461.7</ele>
        <time>2015-07-01T07:46:15Z</time>
      </trkpt>
      <trkpt lat="44.64933" lon="5.85898">
        <ele>1462</ele>
        <time>2015-07-01T07:46:20Z</time>
      </trkpt>
      <trkpt lat="44.64938" lon="5.85902">
        <ele>1457.9</ele>
        <time>2015-07-01T07:46:25Z</time>
      </trkpt>
      <trkpt lat="44.64942" lon="5.85907">
        <ele>1451.7</ele>
        <time>2015-07-01T07:46:30Z</time>
      </trkpt>
      <trkpt lat="44.64948" lon="5.85909">
        <ele>1453.3</ele>
        <time>2015-07-01T07:46:35Z</time>
      </trkpt>
      <trkpt lat="44.64954" lon="5.8591">
        <ele>1452</ele>
        <time>2015-07-01T07:46:40Z</time>
      </trkpt>
      <trkpt lat="44.64962" lon="5.85908">
        <ele>1456.6</ele>
        <time>2015-07-01T07:46:45Z</time>
      </trkpt>
      <trkpt lat="44.64968" lon="5.85904">
        <ele>1458</ele>
        <time>2015-07-01T07:46:50Z</time>
      </trkpt>
      <trkpt lat="44.64974" lon="5.85898">
        <ele>1456.9</ele>
        <time>2015-07-01T07:46:55Z</time>
      </trkpt>
      <trkpt lat="44.6498" lon="5.85896">
        <ele>1459.7</ele>
        <time>2015-07-01T07:47:00Z</time>
      </trkpt>
      <trkpt lat="44.64983" lon="5.85895">
        <ele>1459.4</ele>
        <time>2015-07-01T07:47:05Z</time>
      </trkpt>
      <trkpt lat="44.64991" lon="5.85899">
        <ele>1458.1</ele>
        <time>2015-07-01T07:47:12Z</time>
      </trkpt>
      <trkpt lat="44.64997" lon="5.859">
        <ele>1457.7</ele>
        <time>2015-07-01T07:47:17Z</time>
      </trkpt>
      <trkpt lat="44.65002" lon="5.85903">
        <ele>1458.5</ele>
        <time>2015-07-01T07:47:22Z</time>
      </trkpt>
      <trkpt lat="44.65007" lon="5.85903">
        <ele>1460.4</ele>
        <time>2015-07-01T07:47:27Z</time>
      </trkpt>
      <trkpt lat="44.65012" lon="5.85901">
        <ele>1461.7</ele>
        <time>2015-07-01T07:47:32Z</time>
      </trkpt>
      <trkpt lat="44.65019" lon="5.85897">
        <ele>1465.1</ele>
        <time>2015-07-01T07:47:37Z</time>
      </trkpt>
      <trkpt lat="44.65027" lon="5.85894">
        <ele>1463.6</ele>
        <time>2015-07-01T07:47:44Z</time>
      </trkpt>
      <trkpt lat="44.65036" lon="5.85898">
        <ele>1456.9</ele>
        <time>2015-07-01T07:47:49Z</time>
      </trkpt>
      <trkpt lat="44.65043" lon="5.859">
        <ele>1452.4</ele>
        <time>2015-07-01T07:47:54Z</time>
      </trkpt>
      <trkpt lat="44.65048" lon="5.85902">
        <ele>1450.8</ele>
        <time>2015-07-01T07:47:59Z</time>
      </trkpt>
      <trkpt lat="44.65054" lon="5.85906">
        <ele>1453.6</ele>
        <time>2015-07-01T07:48:04Z</time>
      </trkpt>
      <trkpt lat="44.6506" lon="5.85909">
        <ele>1450.4</ele>
        <time>2015-07-01T07:48:09Z</time>
      </trkpt>
      <trkpt lat="44.65065" lon="5.85912">
        <ele>1448.6</ele>
        <time>2015-07-01T07:48:14Z</time>
      </trkpt>
      <trkpt lat="44.65069" lon="5.85917">
        <ele>1445.4</ele>
        <time>2015-07-01T07:48:19Z</time>
      </trkpt>
      <trkpt lat="44.65073" lon="5.85922">
        <ele>1443.9</ele>
        <time>2015-07-01T07:48:24Z</time>
      </trkpt>
      <trkpt lat="44.65079" lon="5.85919">
        <ele>1447.9</ele>
        <time>2015-07-01T07:48:29Z</time>
      </trkpt>
      <trkpt lat="44.65091" lon="5.85914">
        <ele>1447</ele>
        <time>2015-07-01T07:48:36Z</time>
      </trkpt>
      <trkpt lat="44.65097" lon="5.85905">
        <ele>1447.3</ele>
        <time>2015-07-01T07:48:41Z</time>
      </trkpt>
      <trkpt lat="44.65102" lon="5.85902">
        <ele>1445.9</ele>
        <time>2015-07-01T07:48:46Z</time>
      </trkpt>
      <trkpt lat="44.65109" lon="5.85902">
        <ele>1446.4</ele>
        <time>2015-07-01T07:48:51Z</time>
      </trkpt>
      <trkpt lat="44.65114" lon="5.85901">
        <ele>1443.1</ele>
        <time>2015-07-01T07:48:56Z</time>
      </trkpt>
      <trkpt lat="44.65119" lon="5.85903">
        <ele>1441.9</ele>
        <time>2015-07-01T07:49:01Z</time>
      </trkpt>
      <trkpt lat="44.65124" lon="5.85904">
        <ele>1439.1</ele>
        <time>2015-07-01T07:49:06Z</time>
      </trkpt>
      <trkpt lat="44.65133" lon="5.85905">
        <ele>1439</ele>
        <time>2015-07-01T07:49:13Z</time>
      </trkpt>
      <trkpt lat="44.65141" lon="5.85902">
        <ele>1440.6</ele>
        <time>2015-07-01T07:49:18Z</time>
      </trkpt>
      <trkpt lat="44.65146" lon="5.85899">
        <ele>1440.6</ele>
        <time>2015-07-01T07:49:23Z</time>
      </trkpt>
      <trkpt lat="44.65154" lon="5.85897">
        <ele>1440.1</ele>
        <time>2015-07-01T07:49:28Z</time>
      </trkpt>
      <trkpt lat="44.65162" lon="5.85896">
        <ele>1439.6</ele>
        <time>2015-07-01T07:49:35Z</time>
      </trkpt>
      <trkpt lat="44.65167" lon="5.85893">
        <ele>1439.6</ele>
        <time>2015-07-01T07:49:40Z</time>
      </trkpt>
      <trkpt lat="44.65172" lon="5.8589">
        <ele>1438.9</ele>
        <time>2015-07-01T07:49:45Z</time>
      </trkpt>
      <trkpt lat="44.6518" lon="5.85887">
        <ele>1437</ele>
        <time>2015-07-01T07:49:50Z</time>
      </trkpt>
      <trkpt lat="44.65186" lon="5.85884">
        <ele>1436</ele>
        <time>2015-07-01T07:49:55Z</time>
      </trkpt>
      <trkpt lat="44.65193" lon="5.85881">
        <ele>1437.5</ele>
        <time>2015-07-01T07:50:00Z</time>
      </trkpt>
      <trkpt lat="44.652" lon="5.85878">
        <ele>1440.2</ele>
        <time>2015-07-01T07:50:05Z</time>
      </trkpt>
      <trkpt lat="44.65206" lon="5.85877">
        <ele>1438.6</ele>
        <time>2015-07-01T07:50:10Z</time>
      </trkpt>
      <trkpt lat="44.65212" lon="5.85877">
        <ele>1437.5</ele>
        <time>2015-07-01T07:50:15Z</time>
      </trkpt>
      <trkpt lat="44.65217" lon="5.85876">
        <ele>1434.2</ele>
        <time>2015-07-01T07:50:20Z</time>
      </trkpt>
      <trkpt lat="44.65224" lon="5.85877">
        <ele>1436.5</ele>
        <time>2015-07-01T07:50:25Z</time>
      </trkpt>
      <trkpt lat="44.65228" lon="5.85876">
        <ele>1445.1</ele>
        <time>2015-07-01T07:50:30Z</time>
      </trkpt>
      <trkpt lat="44.65235" lon="5.85876">
        <ele>1444.5</ele>
        <time>2015-07-01T07:50:37Z</time>
      </trkpt>
      <trkpt lat="44.65241" lon="5.85873">
        <ele>1440.5</ele>
        <time>2015-07-01T07:50:42Z</time>
      </trkpt>
      <trkpt lat="44.65247" lon="5.8587">
        <ele>1436.8</ele>
        <time>2015-07-01T07:50:47Z</time>
      </trkpt>
      <trkpt lat="44.65254" lon="5.85872">
        <ele>1431</ele>
        <time>2015-07-01T07:50:53Z</time>
      </trkpt>
      <trkpt lat="44.65259" lon="5.85879">
        <ele>1430.1</ele>
        <time>2015-07-01T07:50:58Z</time>
      </trkpt>
      <trkpt lat="44.65265" lon="5.85887">
        <ele>1430</ele>
        <time>2015-07-01T07:51:05Z</time>
      </trkpt>
      <trkpt lat="44.6527" lon="5.85893">
        <ele>1427</ele>
        <time>2015-07-01T07:51:10Z</time>
      </trkpt>
      <trkpt lat="44.65275" lon="5.85899">
        <ele>1423.3</ele>
        <time>2015-07-01T07:51:15Z</time>
      </trkpt>
      <trkpt lat="44.65283" lon="5.85901">
        <ele>1422.2</ele>
        <time>2015-07-01T07:51:20Z</time>
      </trkpt>
      <trkpt lat="44.65289" lon="5.85905">
        <ele>1422.3</ele>
        <time>2015-07-01T07:51:25Z</time>
      </trkpt>
      <trkpt lat="44.65296" lon="5.85909">
        <ele>1427.4</ele>
        <time>2015-07-01T07:51:32Z</time>
      </trkpt>
      <trkpt lat="44.65296" lon="5.85918">
        <ele>1425.1</ele>
        <time>2015-07-01T07:51:37Z</time>
      </trkpt>
      <trkpt lat="44.65297" lon="5.85927">
        <ele>1422.2</ele>
        <time>2015-07-01T07:51:42Z</time>
      </trkpt>
      <trkpt lat="44.65299" lon="5.85935">
        <ele>1420</ele>
        <time>2015-07-01T07:51:47Z</time>
      </trkpt>
      <trkpt lat="44.65307" lon="5.85935">
        <ele>1419.9</ele>
        <time>2015-07-01T07:51:52Z</time>
      </trkpt>
      <trkpt lat="44.65314" lon="5.85935">
        <ele>1420.9</ele>
        <time>2015-07-01T07:51:57Z</time>
      </trkpt>
      <trkpt lat="44.65317" lon="5.85939">
        <ele>1425.3</ele>
        <time>2015-07-01T07:52:02Z</time>
      </trkpt>
      <trkpt lat="44.65323" lon="5.85938">
        <ele>1424.5</ele>
        <time>2015-07-01T07:52:09Z</time>
      </trkpt>
      <trkpt lat="44.65333" lon="5.85935">
        <ele>1428</ele>
        <time>2015-07-01T07:52:14Z</time>
      </trkpt>
      <trkpt lat="44.6534" lon="5.85935">
        <ele>1425.9</ele>
        <time>2015-07-01T07:52:19Z</time>
      </trkpt>
      <trkpt lat="44.65346" lon="5.85937">
        <ele>1421.4</ele>
        <time>2015-07-01T07:52:24Z</time>
      </trkpt>
      <trkpt lat="44.65353" lon="5.85931">
        <ele>1415.2</ele>
        <time>2015-07-01T07:52:31Z</time>
      </trkpt>
      <trkpt lat="44.6536" lon="5.85926">
        <ele>1412.4</ele>
        <time>2015-07-01T07:52:36Z</time>
      </trkpt>
      <trkpt lat="44.65376" lon="5.85919">
        <ele>1416.5</ele>
        <time>2015-07-01T07:52:47Z</time>
      </trkpt>
      <trkpt lat="44.65385" lon="5.85917">
        <ele>1428.7</ele>
        <time>2015-07-01T07:52:54Z</time>
      </trkpt>
      <trkpt lat="44.65392" lon="5.85916">
        <ele>1430.8</ele>
        <time>2015-07-01T07:52:59Z</time>
      </trkpt>
      <trkpt lat="44.65401" lon="5.85914">
        <ele>1428.8</ele>
        <time>2015-07-01T07:53:04Z</time>
      </trkpt>
      <trkpt lat="44.65405" lon="5.85908">
        <ele>1423.4</ele>
        <time>2015-07-01T07:53:11Z</time>
      </trkpt>
      <trkpt lat="44.6541" lon="5.85904">
        <ele>1416.1</ele>
        <time>2015-07-01T07:53:16Z</time>
      </trkpt>
      <trkpt lat="44.65417" lon="5.85901">
        <ele>1413.3</ele>
        <time>2015-07-01T07:53:21Z</time>
      </trkpt>
      <trkpt lat="44.65425" lon="5.85898">
        <ele>1416.8</ele>
        <time>2015-07-01T07:53:26Z</time>
      </trkpt>
      <trkpt lat="44.65431" lon="5.85894">
        <ele>1417</ele>
        <time>2015-07-01T07:53:31Z</time>
      </trkpt>
      <trkpt lat="44.65436" lon="5.8589">
        <ele>1416.7</ele>
        <time>2015-07-01T07:53:36Z</time>
      </trkpt>
      <trkpt lat="44.65442" lon="5.85886">
        <ele>1416.7</ele>
        <time>2015-07-01T07:53:41Z</time>
      </trkpt>
      <trkpt lat="44.65448" lon="5.85881">
        <ele>1416.9</ele>
        <time>2015-07-01T07:53:46Z</time>
      </trkpt>
      <trkpt lat="44.65455" lon="5.85876">
        <ele>1415</ele>
        <time>2015-07-01T07:53:51Z</time>
      </trkpt>
      <trkpt lat="44.65459" lon="5.85871">
        <ele>1414</ele>
        <time>2015-07-01T07:53:56Z</time>
      </trkpt>
      <trkpt lat="44.65464" lon="5.85866">
        <ele>1412.7</ele>
        <time>2015-07-01T07:54:01Z</time>
      </trkpt>
      <trkpt lat="44.65469" lon="5.85861">
        <ele>1410.6</ele>
        <time>2015-07-01T07:54:06Z</time>
      </trkpt>
      <trkpt lat="44.65474" lon="5.85857">
        <ele>1408.8</ele>
        <time>2015-07-01T07:54:11Z</time>
      </trkpt>
      <trkpt lat="44.6548" lon="5.85854">
        <ele>1407.1</ele>
        <time>2015-07-01T07:54:16Z</time>
      </trkpt>
      <trkpt lat="44.65488" lon="5.85849">
        <ele>1407.1</ele>
        <time>2015-07-01T07:54:21Z</time>
      </trkpt>
      <trkpt lat="44.65493" lon="5.85846">
        <ele>1404.1</ele>
        <time>2015-07-01T07:54:26Z</time>
      </trkpt>
      <trkpt lat="44.65499" lon="5.85843">
        <ele>1402.3</ele>
        <time>2015-07-01T07:54:31Z</time>
      </trkpt>
      <trkpt lat="44.65506" lon="5.8584">
        <ele>1403</ele>
        <time>2015-07-01T07:54:36Z</time>
      </trkpt>
      <trkpt lat="44.65511" lon="5.85836">
        <ele>1404.5</ele>
        <time>2015-07-01T07:54:41Z</time>
      </trkpt>
      <trkpt lat="44.65518" lon="5.85833">
        <ele>1406.3</ele>
        <time>2015-07-01T07:54:46Z</time>
      </trkpt>
      <trkpt lat="44.65525" lon="5.8583">
        <ele>1407</ele>
        <time>2015-07-01T07:54:51Z</time>
      </trkpt>
      <trkpt lat="44.65531" lon="5.85828">
        <ele>1407.6</ele>
        <time>2015-07-01T07:54:56Z</time>
      </trkpt>
      <trkpt lat="44.65537" lon="5.85826">
        <ele>1405.8</ele>
        <time>2015-07-01T07:55:01Z</time>
      </trkpt>
      <trkpt lat="44.65544" lon="5.85824">
        <ele>1406.1</ele>
        <time>2015-07-01T07:55:06Z</time>
      </trkpt>
      <trkpt lat="44.65552" lon="5.85821">
        <ele>1404.3</ele>
        <time>2015-07-01T07:55:11Z</time>
      </trkpt>
      <trkpt lat="44.65559" lon="5.85817">
        <ele>1404.8</ele>
        <time>2015-07-01T07:55:16Z</time>
      </trkpt>
      <trkpt lat="44.65566" lon="5.85813">
        <ele>1404.6</ele>
        <time>2015-07-01T07:55:21Z</time>
      </trkpt>
      <trkpt lat="44.65571" lon="5.85809">
        <ele>1403.7</ele>
        <time>2015-07-01T07:55:26Z</time>
      </trkpt>
      <trkpt lat="44.65576" lon="5.85808">
        <ele>1402.4</ele>
        <time>2015-07-01T07:55:31Z</time>
      </trkpt>
      <trkpt lat="44.65581" lon="5.85807">
        <ele>1401.9</ele>
        <time>2015-07-01T07:55:36Z</time>
      </trkpt>
      <trkpt lat="44.65586" lon="5.8581">
        <ele>1400</ele>
        <time>2015-07-01T07:55:41Z</time>
      </trkpt>
      <trkpt lat="44.65591" lon="5.85815">
        <ele>1399</ele>
        <time>2015-07-01T07:55:46Z</time>
      </trkpt>
      <trkpt lat="44.65596" lon="5.85818">
        <ele>1396.8</ele>
        <time>2015-07-01T07:55:51Z</time>
      </trkpt>
      <trkpt lat="44.65602" lon="5.8582">
        <ele>1397.1</ele>
        <time>2015-07-01T07:55:56Z</time>
      </trkpt>
      <trkpt lat="44.65608" lon="5.85822">
        <ele>1395</ele>
        <time>2015-07-01T07:56:01Z</time>
      </trkpt>
      <trkpt lat="44.65613" lon="5.85826">
        <ele>1393.1</ele>
        <time>2015-07-01T07:56:06Z</time>
      </trkpt>
      <trkpt lat="44.65622" lon="5.85828">
        <ele>1397.7</ele>
        <time>2015-07-01T07:56:11Z</time>
      </trkpt>
      <trkpt lat="44.65628" lon="5.85832">
        <ele>1398.8</ele>
        <time>2015-07-01T07:56:16Z</time>
      </trkpt>
      <trkpt lat="44.65635" lon="5.85835">
        <ele>1402.1</ele>
        <time>2015-07-01T07:56:21Z</time>
      </trkpt>
      <trkpt lat="44.6564" lon="5.85839">
        <ele>1403.4</ele>
        <time>2015-07-01T07:56:26Z</time>
      </trkpt>
      <trkpt lat="44.65646" lon="5.85843">
        <ele>1406.3</ele>
        <time>2015-07-01T07:56:31Z</time>
      </trkpt>
      <trkpt lat="44.65653" lon="5.85847">
        <ele>1408.4</ele>
        <time>2015-07-01T07:56:36Z</time>
      </trkpt>
      <trkpt lat="44.65658" lon="5.85851">
        <ele>1411.7</ele>
        <time>2015-07-01T07:56:41Z</time>
      </trkpt>
      <trkpt lat="44.65663" lon="5.85856">
        <ele>1411.6</ele>
        <time>2015-07-01T07:56:46Z</time>
      </trkpt>
      <trkpt lat="44.65668" lon="5.85859">
        <ele>1405.6</ele>
        <time>2015-07-01T07:56:51Z</time>
      </trkpt>
      <trkpt lat="44.65674" lon="5.85862">
        <ele>1405.4</ele>
        <time>2015-07-01T07:56:56Z</time>
      </trkpt>
      <trkpt lat="44.65681" lon="5.85867">
        <ele>1407.3</ele>
        <time>2015-07-01T07:57:01Z</time>
      </trkpt>
      <trkpt lat="44.65686" lon="5.85872">
        <ele>1408</ele>
        <time>2015-07-01T07:57:06Z</time>
      </trkpt>
      <trkpt lat="44.65692" lon="5.85877">
        <ele>1409.5</ele>
        <time>2015-07-01T07:57:11Z</time>
      </trkpt>
      <trkpt lat="44.65698" lon="5.85883">
        <ele>1412.9</ele>
        <time>2015-07-01T07:57:16Z</time>
      </trkpt>
      <trkpt lat="44.65703" lon="5.85887">
        <ele>1409.5</ele>
        <time>2015-07-01T07:57:21Z</time>
      </trkpt>
      <trkpt lat="44.65709" lon="5.8589">
        <ele>1406.8</ele>
        <time>2015-07-01T07:57:26Z</time>
      </trkpt>
      <trkpt lat="44.65715" lon="5.85892">
        <ele>1403.1</ele>
        <time>2015-07-01T07:57:31Z</time>
      </trkpt>
      <trkpt lat="44.65721" lon="5.85894">
        <ele>1399.6</ele>
        <time>2015-07-01T07:57:36Z</time>
      </trkpt>
      <trkpt lat="44.65728" lon="5.85896">
        <ele>1399.9</ele>
        <time>2015-07-01T07:57:41Z</time>
      </trkpt>
      <trkpt lat="44.65734" lon="5.85898">
        <ele>1397.9</ele>
        <time>2015-07-01T07:57:46Z</time>
      </trkpt>
      <trkpt lat="44.65742" lon="5.85897">
        <ele>1400.9</ele>
        <time>2015-07-01T07:57:51Z</time>
      </trkpt>
      <trkpt lat="44.65749" lon="5.85896">
        <ele>1403</ele>
        <time>2015-07-01T07:57:56Z</time>
      </trkpt>
      <trkpt lat="44.65757" lon="5.85896">
        <ele>1404.4</ele>
        <time>2015-07-01T07:58:01Z</time>
      </trkpt>
      <trkpt lat="44.65766" lon="5.85898">
        <ele>1402.9</ele>
        <time>2015-07-01T07:58:08Z</time>
      </trkpt>
      <trkpt lat="44.65771" lon="5.85899">
        <ele>1401.9</ele>
        <time>2015-07-01T07:58:13Z</time>
      </trkpt>
      <trkpt lat="44.65777" lon="5.85898">
        <ele>1403.6</ele>
        <time>2015-07-01T07:58:18Z</time>
      </trkpt>
      <trkpt lat="44.65785" lon="5.85897">
        <ele>1406.5</ele>
        <time>2015-07-01T07:58:23Z</time>
      </trkpt>
      <trkpt lat="44.6579" lon="5.85899">
        <ele>1407.7</ele>
        <time>2015-07-01T07:58:28Z</time>
      </trkpt>
      <trkpt lat="44.65797" lon="5.859">
        <ele>1406.2</ele>
        <time>2015-07-01T07:58:33Z</time>
      </trkpt>
      <trkpt lat="44.65804" lon="5.859">
        <ele>1408.2</ele>
        <time>2015-07-01T07:58:38Z</time>
      </trkpt>
      <trkpt lat="44.65811" lon="5.859">
        <ele>1408</ele>
        <time>2015-07-01T07:58:43Z</time>
      </trkpt>
      <trkpt lat="44.65818" lon="5.859">
        <ele>1410.5</ele>
        <time>2015-07-01T07:58:48Z</time>
      </trkpt>
      <trkpt lat="44.65824" lon="5.859">
        <ele>1411.6</ele>
        <time>2015-07-01T07:58:53Z</time>
      </trkpt>
      <trkpt lat="44.6583" lon="5.85897">
        <ele>1411.3</ele>
        <time>2015-07-01T07:58:58Z</time>
      </trkpt>
      <trkpt lat="44.65836" lon="5.85893">
        <ele>1411.9</ele>
        <time>2015-07-01T07:59:03Z</time>
      </trkpt>
      <trkpt lat="44.65842" lon="5.85889">
        <ele>1411.1</ele>
        <time>2015-07-01T07:59:08Z</time>
      </trkpt>
      <trkpt lat="44.65848" lon="5.85884">
        <ele>1410.3</ele>
        <time>2015-07-01T07:59:13Z</time>
      </trkpt>
      <trkpt lat="44.65855" lon="5.85881">
        <ele>1411.7</ele>
        <time>2015-07-01T07:59:18Z</time>
      </trkpt>
      <trkpt lat="44.65862" lon="5.85877">
        <ele>1415.2</ele>
        <time>2015-07-01T07:59:23Z</time>
      </trkpt>
      <trkpt lat="44.65867" lon="5.85874">
        <ele>1415.2</ele>
        <time>2015-07-01T07:59:28Z</time>
      </trkpt>
      <trkpt lat="44.65872" lon="5.85872">
        <ele>1416.7</ele>
        <time>2015-07-01T07:59:33Z</time>
      </trkpt>
      <trkpt lat="44.65878" lon="5.85871">
        <ele>1416</ele>
        <time>2015-07-01T07:59:38Z</time>
      </trkpt>
      <trkpt lat="44.65884" lon="5.85869">
        <ele>1422.4</ele>
        <time>2015-07-01T07:59:43Z</time>
      </trkpt>
      <trkpt lat="44.65891" lon="5.85867">
        <ele>1426</ele>
        <time>2015-07-01T07:59:48Z</time>
      </trkpt>
      <trkpt lat="44.65896" lon="5.85865">
        <ele>1422</ele>
        <time>2015-07-01T07:59:53Z</time>
      </trkpt>
      <trkpt lat="44.659" lon="5.85864">
        <ele>1419.6</ele>
        <time>2015-07-01T07:59:58Z</time>
      </trkpt>
      <trkpt lat="44.65906" lon="5.85864">
        <ele>1418.2</ele>
        <time>2015-07-01T08:00:03Z</time>
      </trkpt>
      <trkpt lat="44.65912" lon="5.85864">
        <ele>1420.3</ele>
        <time>2015-07-01T08:00:08Z</time>
      </trkpt>
      <trkpt lat="44.65917" lon="5.85866">
        <ele>1421.2</ele>
        <time>2015-07-01T08:00:13Z</time>
      </trkpt>
      <trkpt lat="44.65924" lon="5.85865">
        <ele>1422.4</ele>
        <time>2015-07-01T08:00:18Z</time>
      </trkpt>
      <trkpt lat="44.65931" lon="5.85865">
        <ele>1423.3</ele>
        <time>2015-07-01T08:00:23Z</time>
      </trkpt>
      <trkpt lat="44.65937" lon="5.85865">
        <ele>1423.5</ele>
        <time>2015-07-01T08:00:28Z</time>
      </trkpt>
      <trkpt lat="44.65944" lon="5.85865">
        <ele>1425.3</ele>
        <time>2015-07-01T08:00:33Z</time>
      </trkpt>
      <trkpt lat="44.65951" lon="5.85865">
        <ele>1425.1</ele>
        <time>2015-07-01T08:00:38Z</time>
      </trkpt>
      <trkpt lat="44.65957" lon="5.85867">
        <ele>1425.1</ele>
        <time>2015-07-01T08:00:43Z</time>
      </trkpt>
      <trkpt lat="44.65964" lon="5.85869">
        <ele>1425.5</ele>
        <time>2015-07-01T08:00:48Z</time>
      </trkpt>
      <trkpt lat="44.65969" lon="5.85872">
        <ele>1425.8</ele>
        <time>2015-07-01T08:00:53Z</time>
      </trkpt>
      <trkpt lat="44.65976" lon="5.85873">
        <ele>1426</ele>
        <time>2015-07-01T08:00:58Z</time>
      </trkpt>
      <trkpt lat="44.65983" lon="5.85875">
        <ele>1426.8</ele>
        <time>2015-07-01T08:01:03Z</time>
      </trkpt>
      <trkpt lat="44.65989" lon="5.85878">
        <ele>1427</ele>
        <time>2015-07-01T08:01:08Z</time>
      </trkpt>
      <trkpt lat="44.65994" lon="5.8588">
        <ele>1428.2</ele>
        <time>2015-07-01T08:01:13Z</time>
      </trkpt>
      <trkpt lat="44.66" lon="5.85883">
        <ele>1427.4</ele>
        <time>2015-07-01T08:01:18Z</time>
      </trkpt>
      <trkpt lat="44.66004" lon="5.85884">
        <ele>1428.5</ele>
        <time>2015-07-01T08:01:23Z</time>
      </trkpt>
      <trkpt lat="44.66004" lon="5.85883">
        <ele>1428.6</ele>
        <time>2015-07-01T08:01:28Z</time>
      </trkpt>
      <trkpt lat="44.66007" lon="5.85884">
        <ele>1429.3</ele>
        <time>2015-07-01T08:01:33Z</time>
      </trkpt>
      <trkpt lat="44.6601" lon="5.8589">
        <ele>1432</ele>
        <time>2015-07-01T08:01:38Z</time>
      </trkpt>
      <trkpt lat="44.66015" lon="5.85895">
        <ele>1432.3</ele>
        <time>2015-07-01T08:01:43Z</time>
      </trkpt>
      <trkpt lat="44.6602" lon="5.85899">
        <ele>1429.2</ele>
        <time>2015-07-01T08:01:48Z</time>
      </trkpt>
      <trkpt lat="44.66025" lon="5.85904">
        <ele>1428</ele>
        <time>2015-07-01T08:01:53Z</time>
      </trkpt>
      <trkpt lat="44.6603" lon="5.85907">
        <ele>1427.3</ele>
        <time>2015-07-01T08:01:58Z</time>
      </trkpt>
      <trkpt lat="44.66036" lon="5.85911">
        <ele>1426.9</ele>
        <time>2015-07-01T08:02:03Z</time>
      </trkpt>
      <trkpt lat="44.66041" lon="5.85914">
        <ele>1426.1</ele>
        <time>2015-07-01T08:02:08Z</time>
      </trkpt>
      <trkpt lat="44.66047" lon="5.85917">
        <ele>1427.7</ele>
        <time>2015-07-01T08:02:13Z</time>
      </trkpt>
      <trkpt lat="44.66053" lon="5.85923">
        <ele>1429.6</ele>
        <time>2015-07-01T08:02:18Z</time>
      </trkpt>
      <trkpt lat="44.66058" lon="5.85927">
        <ele>1430.6</ele>
        <time>2015-07-01T08:02:23Z</time>
      </trkpt>
      <trkpt lat="44.66064" lon="5.85933">
        <ele>1431.8</ele>
        <time>2015-07-01T08:02:28Z</time>
      </trkpt>
      <trkpt lat="44.66069" lon="5.85936">
        <ele>1432.7</ele>
        <time>2015-07-01T08:02:33Z</time>
      </trkpt>
      <trkpt lat="44.66075" lon="5.85939">
        <ele>1430.8</ele>
        <time>2015-07-01T08:02:38Z</time>
      </trkpt>
      <trkpt lat="44.66082" lon="5.85943">
        <ele>1432.3</ele>
        <time>2015-07-01T08:02:43Z</time>
      </trkpt>
      <trkpt lat="44.66088" lon="5.85947">
        <ele>1432.7</ele>
        <time>2015-07-01T08:02:48Z</time>
      </trkpt>
      <trkpt lat="44.66095" lon="5.85952">
        <ele>1432.8</ele>
        <time>2015-07-01T08:02:53Z</time>
      </trkpt>
      <trkpt lat="44.66101" lon="5.85956">
        <ele>1435.4</ele>
        <time>2015-07-01T08:02:58Z</time>
      </trkpt>
      <trkpt lat="44.66106" lon="5.85961">
        <ele>1435.2</ele>
        <time>2015-07-01T08:03:03Z</time>
      </trkpt>
      <trkpt lat="44.66112" lon="5.85966">
        <ele>1436.2</ele>
        <time>2015-07-01T08:03:08Z</time>
      </trkpt>
      <trkpt lat="44.66118" lon="5.85971">
        <ele>1436.5</ele>
        <time>2015-07-01T08:03:13Z</time>
      </trkpt>
      <trkpt lat="44.66124" lon="5.85976">
        <ele>1439.2</ele>
        <time>2015-07-01T08:03:18Z</time>
      </trkpt>
      <trkpt lat="44.6613" lon="5.85981">
        <ele>1438</ele>
        <time>2015-07-01T08:03:23Z</time>
      </trkpt>
      <trkpt lat="44.66134" lon="5.85985">
        <ele>1435.9</ele>
        <time>2015-07-01T08:03:28Z</time>
      </trkpt>
      <trkpt lat="44.6614" lon="5.8599">
        <ele>1437.3</ele>
        <time>2015-07-01T08:03:33Z</time>
      </trkpt>
      <trkpt lat="44.66146" lon="5.85993">
        <ele>1437.5</ele>
        <time>2015-07-01T08:03:38Z</time>
      </trkpt>
      <trkpt lat="44.66152" lon="5.85997">
        <ele>1438.7</ele>
        <time>2015-07-01T08:03:43Z</time>
      </trkpt>
      <trkpt lat="44.66157" lon="5.86003">
        <ele>1440.4</ele>
        <time>2015-07-01T08:03:48Z</time>
      </trkpt>
      <trkpt lat="44.66163" lon="5.86008">
        <ele>1440.7</ele>
        <time>2015-07-01T08:03:53Z</time>
      </trkpt>
      <trkpt lat="44.66168" lon="5.86013">
        <ele>1440</ele>
        <time>2015-07-01T08:03:58Z</time>
      </trkpt>
      <trkpt lat="44.66173" lon="5.86019">
        <ele>1440.6</ele>
        <time>2015-07-01T08:04:03Z</time>
      </trkpt>
      <trkpt lat="44.66177" lon="5.86024">
        <ele>1441</ele>
        <time>2015-07-01T08:04:08Z</time>
      </trkpt>
      <trkpt lat="44.66182" lon="5.86029">
        <ele>1442.1</ele>
        <time>2015-07-01T08:04:13Z</time>
      </trkpt>
      <trkpt lat="44.66185" lon="5.86037">
        <ele>1443</ele>
        <time>2015-07-01T08:04:18Z</time>
      </trkpt>
      <trkpt lat="44.66188" lon="5.86045">
        <ele>1443.5</ele>
        <time>2015-07-01T08:04:23Z</time>
      </trkpt>
      <trkpt lat="44.6619" lon="5.86054">
        <ele>1441</ele>
        <time>2015-07-01T08:04:28Z</time>
      </trkpt>
      <trkpt lat="44.66193" lon="5.86061">
        <ele>1440.7</ele>
        <time>2015-07-01T08:04:33Z</time>
      </trkpt>
      <trkpt lat="44.66196" lon="5.86069">
        <ele>1440.5</ele>
        <time>2015-07-01T08:04:38Z</time>
      </trkpt>
      <trkpt lat="44.66199" lon="5.86076">
        <ele>1440.9</ele>
        <time>2015-07-01T08:04:43Z</time>
      </trkpt>
      <trkpt lat="44.66202" lon="5.86084">
        <ele>1441.3</ele>
        <time>2015-07-01T08:04:48Z</time>
      </trkpt>
      <trkpt lat="44.66205" lon="5.86092">
        <ele>1440.7</ele>
        <time>2015-07-01T08:04:53Z</time>
      </trkpt>
      <trkpt lat="44.66208" lon="5.861">
        <ele>1441.1</ele>
        <time>2015-07-01T08:04:58Z</time>
      </trkpt>
      <trkpt lat="44.66211" lon="5.86108">
        <ele>1440.6</ele>
        <time>2015-07-01T08:05:03Z</time>
      </trkpt>
      <trkpt lat="44.66214" lon="5.86116">
        <ele>1441.6</ele>
        <time>2015-07-01T08:05:08Z</time>
      </trkpt>
      <trkpt lat="44.66216" lon="5.86125">
        <ele>1442</ele>
        <time>2015-07-01T08:05:13Z</time>
      </trkpt>
      <trkpt lat="44.66218" lon="5.86133">
        <ele>1442.6</ele>
        <time>2015-07-01T08:05:18Z</time>
      </trkpt>
      <trkpt lat="44.66221" lon="5.8614">
        <ele>1445.4</ele>
        <time>2015-07-01T08:05:23Z</time>
      </trkpt>
      <trkpt lat="44.66223" lon="5.86146">
        <ele>1444.8</ele>
        <time>2015-07-01T08:05:28Z</time>
      </trkpt>
      <trkpt lat="44.66227" lon="5.86149">
        <ele>1447.4</ele>
        <time>2015-07-01T08:05:33Z</time>
      </trkpt>
      <trkpt lat="44.6623" lon="5.86142">
        <ele>1448</ele>
        <time>2015-07-01T08:05:38Z</time>
      </trkpt>
      <trkpt lat="44.66229" lon="5.86141">
        <ele>1448.5</ele>
        <time>2015-07-01T08:05:43Z</time>
      </trkpt>
      <trkpt lat="44.66227" lon="5.86148">
        <ele>1447.1</ele>
        <time>2015-07-01T08:05:48Z</time>
      </trkpt>
      <trkpt lat="44.66227" lon="5.86157">
        <ele>1446.9</ele>
        <time>2015-07-01T08:05:53Z</time>
      </trkpt>
      <trkpt lat="44.66229" lon="5.86165">
        <ele>1446.4</ele>
        <time>2015-07-01T08:05:58Z</time>
      </trkpt>
      <trkpt lat="44.66234" lon="5.86173">
        <ele>1446.7</ele>
        <time>2015-07-01T08:06:03Z</time>
      </trkpt>
      <trkpt lat="44.66238" lon="5.86181">
        <ele>1446.3</ele>
        <time>2015-07-01T08:06:08Z</time>
      </trkpt>
      <trkpt lat="44.66243" lon="5.86188">
        <ele>1445.7</ele>
        <time>2015-07-01T08:06:13Z</time>
      </trkpt>
      <trkpt lat="44.66248" lon="5.86195">
        <ele>1448.5</ele>
        <time>2015-07-01T08:06:18Z</time>
      </trkpt>
      <trkpt lat="44.66251" lon="5.86203">
        <ele>1448.7</ele>
        <time>2015-07-01T08:06:23Z</time>
      </trkpt>
      <trkpt lat="44.66255" lon="5.86212">
        <ele>1445.8</ele>
        <time>2015-07-01T08:06:28Z</time>
      </trkpt>
      <trkpt lat="44.66258" lon="5.86219">
        <ele>1446.4</ele>
        <time>2015-07-01T08:06:33Z</time>
      </trkpt>
      <trkpt lat="44.66263" lon="5.86227">
        <ele>1447.9</ele>
        <time>2015-07-01T08:06:38Z</time>
      </trkpt>
      <trkpt lat="44.66266" lon="5.86235">
        <ele>1445.4</ele>
        <time>2015-07-01T08:06:43Z</time>
      </trkpt>
      <trkpt lat="44.66269" lon="5.86244">
        <ele>1444</ele>
        <time>2015-07-01T08:06:48Z</time>
      </trkpt>
      <trkpt lat="44.66272" lon="5.86249">
        <ele>1442.9</ele>
        <time>2015-07-01T08:06:53Z</time>
      </trkpt>
      <trkpt lat="44.66276" lon="5.86257">
        <ele>1440.2</ele>
        <time>2015-07-01T08:06:58Z</time>
      </trkpt>
      <trkpt lat="44.66279" lon="5.86265">
        <ele>1438.8</ele>
        <time>2015-07-01T08:07:03Z</time>
      </trkpt>
      <trkpt lat="44.66285" lon="5.8627">
        <ele>1443.2</ele>
        <time>2015-07-01T08:07:08Z</time>
      </trkpt>
      <trkpt lat="44.6629" lon="5.86276">
        <ele>1443.7</ele>
        <time>2015-07-01T08:07:13Z</time>
      </trkpt>
      <trkpt lat="44.66295" lon="5.86281">
        <ele>1445.6</ele>
        <time>2015-07-01T08:07:18Z</time>
      </trkpt>
      <trkpt lat="44.663" lon="5.86287">
        <ele>1445.3</ele>
        <time>2015-07-01T08:07:23Z</time>
      </trkpt>
      <trkpt lat="44.66305" lon="5.86294">
        <ele>1443</ele>
        <time>2015-07-01T08:07:28Z</time>
      </trkpt>
      <trkpt lat="44.6631" lon="5.86298">
        <ele>1443.4</ele>
        <time>2015-07-01T08:07:33Z</time>
      </trkpt>
      <trkpt lat="44.66315" lon="5.86305">
        <ele>1443</ele>
        <time>2015-07-01T08:07:38Z</time>
      </trkpt>
      <trkpt lat="44.66322" lon="5.86309">
        <ele>1448.9</ele>
        <time>2015-07-01T08:07:43Z</time>
      </trkpt>
      <trkpt lat="44.66327" lon="5.86314">
        <ele>1450.8</ele>
        <time>2015-07-01T08:07:48Z</time>
      </trkpt>
      <trkpt lat="44.66331" lon="5.8632">
        <ele>1450.5</ele>
        <time>2015-07-01T08:07:53Z</time>
      </trkpt>
      <trkpt lat="44.66335" lon="5.86328">
        <ele>1451</ele>
        <time>2015-07-01T08:07:58Z</time>
      </trkpt>
      <trkpt lat="44.66339" lon="5.86334">
        <ele>1452.3</ele>
        <time>2015-07-01T08:08:03Z</time>
      </trkpt>
      <trkpt lat="44.66342" lon="5.86341">
        <ele>1453.7</ele>
        <time>2015-07-01T08:08:08Z</time>
      </trkpt>
      <trkpt lat="44.66345" lon="5.86349">
        <ele>1455.5</ele>
        <time>2015-07-01T08:08:13Z</time>
      </trkpt>
      <trkpt lat="44.66346" lon="5.86356">
        <ele>1455.8</ele>
        <time>2015-07-01T08:08:18Z</time>
      </trkpt>
      <trkpt lat="44.66348" lon="5.86364">
        <ele>1455.9</ele>
        <time>2015-07-01T08:08:23Z</time>
      </trkpt>
      <trkpt lat="44.66348" lon="5.86373">
        <ele>1455.9</ele>
        <time>2015-07-01T08:08:28Z</time>
      </trkpt>
      <trkpt lat="44.66351" lon="5.86382">
        <ele>1456.5</ele>
        <time>2015-07-01T08:08:33Z</time>
      </trkpt>
      <trkpt lat="44.66353" lon="5.86391">
        <ele>1456.8</ele>
        <time>2015-07-01T08:08:38Z</time>
      </trkpt>
      <trkpt lat="44.66356" lon="5.86398">
        <ele>1456</ele>
        <time>2015-07-01T08:08:43Z</time>
      </trkpt>
      <trkpt lat="44.66359" lon="5.86407">
        <ele>1456</ele>
        <time>2015-07-01T08:08:48Z</time>
      </trkpt>
      <trkpt lat="44.66362" lon="5.86415">
        <ele>1456.2</ele>
        <time>2015-07-01T08:08:53Z</time>
      </trkpt>
      <trkpt lat="44.66366" lon="5.86423">
        <ele>1456.9</ele>
        <time>2015-07-01T08:08:58Z</time>
      </trkpt>
      <trkpt lat="44.6637" lon="5.86431">
        <ele>1457.2</ele>
        <time>2015-07-01T08:09:03Z</time>
      </trkpt>
      <trkpt lat="44.66374" lon="5.86439">
        <ele>1458.5</ele>
        <time>2015-07-01T08:09:08Z</time>
      </trkpt>
      <trkpt lat="44.66377" lon="5.86447">
        <ele>1459.2</ele>
        <time>2015-07-01T08:09:13Z</time>
      </trkpt>
      <trkpt lat="44.66381" lon="5.86455">
        <ele>1459.8</ele>
        <time>2015-07-01T08:09:18Z</time>
      </trkpt>
      <trkpt lat="44.66384" lon="5.86464">
        <ele>1455.4</ele>
        <time>2015-07-01T08:09:23Z</time>
      </trkpt>
      <trkpt lat="44.66387" lon="5.86472">
        <ele>1455.6</ele>
        <time>2015-07-01T08:09:28Z</time>
      </trkpt>
      <trkpt lat="44.66391" lon="5.8648">
        <ele>1456.1</ele>
        <time>2015-07-01T08:09:33Z</time>
      </trkpt>
      <trkpt lat="44.66394" lon="5.86487">
        <ele>1456.5</ele>
        <time>2015-07-01T08:09:38Z</time>
      </trkpt>
      <trkpt lat="44.66396" lon="5.86495">
        <ele>1456.5</ele>
        <time>2015-07-01T08:09:43Z</time>
      </trkpt>
      <trkpt lat="44.66398" lon="5.86505">
        <ele>1456.5</ele>
        <time>2015-07-01T08:09:48Z</time>
      </trkpt>
      <trkpt lat="44.66399" lon="5.86513">
        <ele>1455.9</ele>
        <time>2015-07-01T08:09:53Z</time>
      </trkpt>
      <trkpt lat="44.664" lon="5.86523">
        <ele>1455.6</ele>
        <time>2015-07-01T08:09:58Z</time>
      </trkpt>
      <trkpt lat="44.664" lon="5.86532">
        <ele>1455.8</ele>
        <time>2015-07-01T08:10:03Z</time>
      </trkpt>
      <trkpt lat="44.664" lon="5.86541">
        <ele>1455.8</ele>
        <time>2015-07-01T08:10:08Z</time>
      </trkpt>
      <trkpt lat="44.664" lon="5.86551">
        <ele>1455.7</ele>
        <time>2015-07-01T08:10:13Z</time>
      </trkpt>
      <trkpt lat="44.664" lon="5.8656">
        <ele>1455.5</ele>
        <time>2015-07-01T08:10:18Z</time>
      </trkpt>
      <trkpt lat="44.66399" lon="5.8657">
        <ele>1455.4</ele>
        <time>2015-07-01T08:10:23Z</time>
      </trkpt>
      <trkpt lat="44.66399" lon="5.86579">
        <ele>1455.1</ele>
        <time>2015-07-01T08:10:28Z</time>
      </trkpt>
      <trkpt lat="44.66398" lon="5.86589">
        <ele>1454.7</ele>
        <time>2015-07-01T08:10:33Z</time>
      </trkpt>
      <trkpt lat="44.66398" lon="5.86598">
        <ele>1454.4</ele>
        <time>2015-07-01T08:10:38Z</time>
      </trkpt>
      <trkpt lat="44.664" lon="5.86607">
        <ele>1454.5</ele>
        <time>2015-07-01T08:10:43Z</time>
      </trkpt>
      <trkpt lat="44.66402" lon="5.86614">
        <ele>1455.7</ele>
        <time>2015-07-01T08:10:48Z</time>
      </trkpt>
      <trkpt lat="44.66405" lon="5.8662">
        <ele>1455.8</ele>
        <time>2015-07-01T08:10:53Z</time>
      </trkpt>
      <trkpt lat="44.66408" lon="5.86627">
        <ele>1456.8</ele>
        <time>2015-07-01T08:10:58Z</time>
      </trkpt>
      <trkpt lat="44.66411" lon="5.86635">
        <ele>1457.7</ele>
        <time>2015-07-01T08:11:03Z</time>
      </trkpt>
      <trkpt lat="44.66414" lon="5.86642">
        <ele>1455</ele>
        <time>2015-07-01T08:11:08Z</time>
      </trkpt>
      <trkpt lat="44.66417" lon="5.86649">
        <ele>1455.2</ele>
        <time>2015-07-01T08:11:13Z</time>
      </trkpt>
      <trkpt lat="44.66421" lon="5.86656">
        <ele>1456.9</ele>
        <time>2015-07-01T08:11:18Z</time>
      </trkpt>
      <trkpt lat="44.66425" lon="5.86662">
        <ele>1458.4</ele>
        <time>2015-07-01T08:11:23Z</time>
      </trkpt>
      <trkpt lat="44.6643" lon="5.86669">
        <ele>1457.8</ele>
        <time>2015-07-01T08:11:28Z</time>
      </trkpt>
      <trkpt lat="44.66433" lon="5.86675">
        <ele>1457.6</ele>
        <time>2015-07-01T08:11:33Z</time>
      </trkpt>
      <trkpt lat="44.66437" lon="5.86677">
        <ele>1456.7</ele>
        <time>2015-07-01T08:11:38Z</time>
      </trkpt>
      <trkpt lat="44.6644" lon="5.86679">
        <ele>1456.5</ele>
        <time>2015-07-01T08:11:43Z</time>
      </trkpt>
      <trkpt lat="44.66444" lon="5.86683">
        <ele>1457.2</ele>
        <time>2015-07-01T08:11:48Z</time>
      </trkpt>
      <trkpt lat="44.66448" lon="5.86689">
        <ele>1458.1</ele>
        <time>2015-07-01T08:11:53Z</time>
      </trkpt>
      <trkpt lat="44.66452" lon="5.86695">
        <ele>1458</ele>
        <time>2015-07-01T08:11:58Z</time>
      </trkpt>
      <trkpt lat="44.66457" lon="5.86701">
        <ele>1457.1</ele>
        <time>2015-07-01T08:12:03Z</time>
      </trkpt>
      <trkpt lat="44.6646" lon="5.86706">
        <ele>1456.1</ele>
        <time>2015-07-01T08:12:08Z</time>
      </trkpt>
      <trkpt lat="44.66464" lon="5.86711">
        <ele>1456.7</ele>
        <time>2015-07-01T08:12:13Z</time>
      </trkpt>
      <trkpt lat="44.66468" lon="5.86716">
        <ele>1458.7</ele>
        <time>2015-07-01T08:12:18Z</time>
      </trkpt>
      <trkpt lat="44.66473" lon="5.86723">
        <ele>1459.8</ele>
        <time>2015-07-01T08:12:23Z</time>
      </trkpt>
      <trkpt lat="44.66477" lon="5.86728">
        <ele>1460.9</ele>
        <time>2015-07-01T08:12:28Z</time>
      </trkpt>
      <trkpt lat="44.66483" lon="5.86733">
        <ele>1460.4</ele>
        <time>2015-07-01T08:12:33Z</time>
      </trkpt>
      <trkpt lat="44.66488" lon="5.86737">
        <ele>1462.8</ele>
        <time>2015-07-01T08:12:38Z</time>
      </trkpt>
      <trkpt lat="44.66493" lon="5.86742">
        <ele>1464.1</ele>
        <time>2015-07-01T08:12:43Z</time>
      </trkpt>
      <trkpt lat="44.66496" lon="5.86747">
        <ele>1465.5</ele>
        <time>2015-07-01T08:12:48Z</time>
      </trkpt>
      <trkpt lat="44.66501" lon="5.86752">
        <ele>1466.1</ele>
        <time>2015-07-01T08:12:53Z</time>
      </trkpt>
      <trkpt lat="44.66505" lon="5.86758">
        <ele>1465.6</ele>
        <time>2015-07-01T08:12:58Z</time>
      </trkpt>
      <trkpt lat="44.66509" lon="5.86765">
        <ele>1465.5</ele>
        <time>2015-07-01T08:13:03Z</time>
      </trkpt>
      <trkpt lat="44.66513" lon="5.86769">
        <ele>1465.6</ele>
        <time>2015-07-01T08:13:08Z</time>
      </trkpt>
      <trkpt lat="44.66518" lon="5.86774">
        <ele>1466.1</ele>
        <time>2015-07-01T08:13:13Z</time>
      </trkpt>
      <trkpt lat="44.66522" lon="5.8678">
        <ele>1467.4</ele>
        <time>2015-07-01T08:13:18Z</time>
      </trkpt>
      <trkpt lat="44.66526" lon="5.86787">
        <ele>1466</ele>
        <time>2015-07-01T08:13:23Z</time>
      </trkpt>
      <trkpt lat="44.6653" lon="5.86793">
        <ele>1465.1</ele>
        <time>2015-07-01T08:13:28Z</time>
      </trkpt>
      <trkpt lat="44.66535" lon="5.86799">
        <ele>1465.8</ele>
        <time>2015-07-01T08:13:33Z</time>
      </trkpt>
      <trkpt lat="44.66539" lon="5.86805">
        <ele>1466.9</ele>
        <time>2015-07-01T08:13:38Z</time>
      </trkpt>
      <trkpt lat="44.66545" lon="5.8681">
        <ele>1468.5</ele>
        <time>2015-07-01T08:13:43Z</time>
      </trkpt>
      <trkpt lat="44.66549" lon="5.86816">
        <ele>1465.1</ele>
        <time>2015-07-01T08:13:48Z</time>
      </trkpt>
      <trkpt lat="44.66554" lon="5.8682">
        <ele>1464.6</ele>
        <time>2015-07-01T08:13:53Z</time>
      </trkpt>
      <trkpt lat="44.66557" lon="5.86826">
        <ele>1463.7</ele>
        <time>2015-07-01T08:13:58Z</time>
      </trkpt>
      <trkpt lat="44.66562" lon="5.8683">
        <ele>1463.8</ele>
        <time>2015-07-01T08:14:03Z</time>
      </trkpt>
      <trkpt lat="44.66567" lon="5.86835">
        <ele>1463.1</ele>
        <time>2015-07-01T08:14:08Z</time>
      </trkpt>
      <trkpt lat="44.66571" lon="5.86841">
        <ele>1462.2</ele>
        <time>2015-07-01T08:14:13Z</time>
      </trkpt>
      <trkpt lat="44.66575" lon="5.86849">
        <ele>1463.6</ele>
        <time>2015-07-01T08:14:18Z</time>
      </trkpt>
      <trkpt lat="44.66579" lon="5.86856">
        <ele>1465.4</ele>
        <time>2015-07-01T08:14:23Z</time>
      </trkpt>
      <trkpt lat="44.66583" lon="5.86862">
        <ele>1464.9</ele>
        <time>2015-07-01T08:14:28Z</time>
      </trkpt>
      <trkpt lat="44.66587" lon="5.86867">
        <ele>1464.4</ele>
        <time>2015-07-01T08:14:33Z</time>
      </trkpt>
      <trkpt lat="44.66591" lon="5.86874">
        <ele>1464.4</ele>
        <time>2015-07-01T08:14:38Z</time>
      </trkpt>
      <trkpt lat="44.66597" lon="5.86881">
        <ele>1465</ele>
        <time>2015-07-01T08:14:43Z</time>
      </trkpt>
      <trkpt lat="44.666" lon="5.86888">
        <ele>1466.3</ele>
        <time>2015-07-01T08:14:48Z</time>
      </trkpt>
      <trkpt lat="44.66604" lon="5.86895">
        <ele>1464.3</ele>
        <time>2015-07-01T08:14:53Z</time>
      </trkpt>
      <trkpt lat="44.66607" lon="5.86901">
        <ele>1462.1</ele>
        <time>2015-07-01T08:14:58Z</time>
      </trkpt>
      <trkpt lat="44.66607" lon="5.86909">
        <ele>1465.2</ele>
        <time>2015-07-01T08:15:03Z</time>
      </trkpt>
      <trkpt lat="44.6661" lon="5.86914">
        <ele>1463.1</ele>
        <time>2015-07-01T08:15:08Z</time>
      </trkpt>
      <trkpt lat="44.66612" lon="5.86922">
        <ele>1464.1</ele>
        <time>2015-07-01T08:15:14Z</time>
      </trkpt>
      <trkpt lat="44.66613" lon="5.86931">
        <ele>1459.4</ele>
        <time>2015-07-01T08:15:19Z</time>
      </trkpt>
      <trkpt lat="44.66612" lon="5.86945">
        <ele>1460.9</ele>
        <time>2015-07-01T08:15:26Z</time>
      </trkpt>
      <trkpt lat="44.66613" lon="5.86957">
        <ele>1461.4</ele>
        <time>2015-07-01T08:15:31Z</time>
      </trkpt>
      <trkpt lat="44.66615" lon="5.86964">
        <ele>1462.6</ele>
        <time>2015-07-01T08:15:36Z</time>
      </trkpt>
      <trkpt lat="44.66617" lon="5.8697">
        <ele>1461.3</ele>
        <time>2015-07-01T08:15:41Z</time>
      </trkpt>
      <trkpt lat="44.66621" lon="5.86976">
        <ele>1460.2</ele>
        <time>2015-07-01T08:15:46Z</time>
      </trkpt>
      <trkpt lat="44.66625" lon="5.86981">
        <ele>1460.2</ele>
        <time>2015-07-01T08:15:51Z</time>
      </trkpt>
      <trkpt lat="44.66625" lon="5.86985">
        <ele>1462.4</ele>
        <time>2015-07-01T08:15:56Z</time>
      </trkpt>
      <trkpt lat="44.66629" lon="5.8699">
        <ele>1464.4</ele>
        <time>2015-07-01T08:16:01Z</time>
      </trkpt>
      <trkpt lat="44.6663" lon="5.86998">
        <ele>1462.6</ele>
        <time>2015-07-01T08:16:06Z</time>
      </trkpt>
      <trkpt lat="44.66634" lon="5.87003">
        <ele>1464.2</ele>
        <time>2015-07-01T08:16:11Z</time>
      </trkpt>
      <trkpt lat="44.66638" lon="5.87011">
        <ele>1467.4</ele>
        <time>2015-07-01T08:16:16Z</time>
      </trkpt>
      <trkpt lat="44.66641" lon="5.87017">
        <ele>1462.1</ele>
        <time>2015-07-01T08:16:21Z</time>
      </trkpt>
      <trkpt lat="44.66644" lon="5.87025">
        <ele>1459.4</ele>
        <time>2015-07-01T08:16:26Z</time>
      </trkpt>
      <trkpt lat="44.66646" lon="5.87033">
        <ele>1464.8</ele>
        <time>2015-07-01T08:16:31Z</time>
      </trkpt>
      <trkpt lat="44.66647" lon="5.87043">
        <ele>1469.7</ele>
        <time>2015-07-01T08:16:36Z</time>
      </trkpt>
      <trkpt lat="44.66649" lon="5.87052">
        <ele>1471</ele>
        <time>2015-07-01T08:16:41Z</time>
      </trkpt>
      <trkpt lat="44.66651" lon="5.8706">
        <ele>1472.3</ele>
        <time>2015-07-01T08:16:46Z</time>
      </trkpt>
      <trkpt lat="44.66652" lon="5.87067">
        <ele>1471.3</ele>
        <time>2015-07-01T08:16:51Z</time>
      </trkpt>
      <trkpt lat="44.66655" lon="5.87074">
        <ele>1472</ele>
        <time>2015-07-01T08:16:56Z</time>
      </trkpt>
      <trkpt lat="44.66659" lon="5.8708">
        <ele>1472.2</ele>
        <time>2015-07-01T08:17:01Z</time>
      </trkpt>
      <trkpt lat="44.66665" lon="5.87085">
        <ele>1473.3</ele>
        <time>2015-07-01T08:17:06Z</time>
      </trkpt>
      <trkpt lat="44.6667" lon="5.87088">
        <ele>1474.2</ele>
        <time>2015-07-01T08:17:11Z</time>
      </trkpt>
      <trkpt lat="44.66676" lon="5.8709">
        <ele>1472.7</ele>
        <time>2015-07-01T08:17:16Z</time>
      </trkpt>
      <trkpt lat="44.66682" lon="5.87091">
        <ele>1470.1</ele>
        <time>2015-07-01T08:17:21Z</time>
      </trkpt>
      <trkpt lat="44.66689" lon="5.87091">
        <ele>1466.2</ele>
        <time>2015-07-01T08:17:26Z</time>
      </trkpt>
      <trkpt lat="44.66695" lon="5.87093">
        <ele>1461.3</ele>
        <time>2015-07-01T08:17:31Z</time>
      </trkpt>
      <trkpt lat="44.66702" lon="5.87095">
        <ele>1460.9</ele>
        <time>2015-07-01T08:17:36Z</time>
      </trkpt>
      <trkpt lat="44.66707" lon="5.871">
        <ele>1464</ele>
        <time>2015-07-01T08:17:41Z</time>
      </trkpt>
      <trkpt lat="44.66713" lon="5.87105">
        <ele>1462</ele>
        <time>2015-07-01T08:17:46Z</time>
      </trkpt>
      <trkpt lat="44.6672" lon="5.87106">
        <ele>1462</ele>
        <time>2015-07-01T08:17:51Z</time>
      </trkpt>
      <trkpt lat="44.66725" lon="5.87111">
        <ele>1458.7</ele>
        <time>2015-07-01T08:17:56Z</time>
      </trkpt>
      <trkpt lat="44.66733" lon="5.87111">
        <ele>1461.4</ele>
        <time>2015-07-01T08:18:01Z</time>
      </trkpt>
      <trkpt lat="44.66739" lon="5.87114">
        <ele>1460.8</ele>
        <time>2015-07-01T08:18:06Z</time>
      </trkpt>
      <trkpt lat="44.66746" lon="5.87113">
        <ele>1454.1</ele>
        <time>2015-07-01T08:18:11Z</time>
      </trkpt>
      <trkpt lat="44.66752" lon="5.87111">
        <ele>1450</ele>
        <time>2015-07-01T08:18:16Z</time>
      </trkpt>
      <trkpt lat="44.66758" lon="5.87109">
        <ele>1457.2</ele>
        <time>2015-07-01T08:18:21Z</time>
      </trkpt>
      <trkpt lat="44.66762" lon="5.87108">
        <ele>1464.2</ele>
        <time>2015-07-01T08:18:26Z</time>
      </trkpt>
      <trkpt lat="44.66768" lon="5.87107">
        <ele>1470</ele>
        <time>2015-07-01T08:18:31Z</time>
      </trkpt>
      <trkpt lat="44.66774" lon="5.87104">
        <ele>1472</ele>
        <time>2015-07-01T08:18:36Z</time>
      </trkpt>
      <trkpt lat="44.66779" lon="5.87102">
        <ele>1463.8</ele>
        <time>2015-07-01T08:18:41Z</time>
      </trkpt>
      <trkpt lat="44.66784" lon="5.871">
        <ele>1459.9</ele>
        <time>2015-07-01T08:18:46Z</time>
      </trkpt>
      <trkpt lat="44.66788" lon="5.871">
        <ele>1463.2</ele>
        <time>2015-07-01T08:18:51Z</time>
      </trkpt>
      <trkpt lat="44.66793" lon="5.871">
        <ele>1463.4</ele>
        <time>2015-07-01T08:18:56Z</time>
      </trkpt>
      <trkpt lat="44.66799" lon="5.87098">
        <ele>1463.7</ele>
        <time>2015-07-01T08:19:01Z</time>
      </trkpt>
      <trkpt lat="44.66805" lon="5.87098">
        <ele>1465.1</ele>
        <time>2015-07-01T08:19:06Z</time>
      </trkpt>
      <trkpt lat="44.6681" lon="5.87099">
        <ele>1466.4</ele>
        <time>2015-07-01T08:19:11Z</time>
      </trkpt>
      <trkpt lat="44.66815" lon="5.871">
        <ele>1463.7</ele>
        <time>2015-07-01T08:19:16Z</time>
      </trkpt>
      <trkpt lat="44.6682" lon="5.87101">
        <ele>1463.1</ele>
        <time>2015-07-01T08:19:21Z</time>
      </trkpt>
      <trkpt lat="44.66825" lon="5.87102">
        <ele>1465.4</ele>
        <time>2015-07-01T08:19:26Z</time>
      </trkpt>
      <trkpt lat="44.66831" lon="5.87103">
        <ele>1472</ele>
        <time>2015-07-01T08:19:31Z</time>
      </trkpt>
      <trkpt lat="44.66834" lon="5.87107">
        <ele>1469.7</ele>
        <time>2015-07-01T08:19:36Z</time>
      </trkpt>
      <trkpt lat="44.66838" lon="5.8711">
        <ele>1471.2</ele>
        <time>2015-07-01T08:19:41Z</time>
      </trkpt>
      <trkpt lat="44.66845" lon="5.87111">
        <ele>1472.7</ele>
        <time>2015-07-01T08:19:46Z</time>
      </trkpt>
      <trkpt lat="44.66852" lon="5.87113">
        <ele>1474.3</ele>
        <time>2015-07-01T08:19:51Z</time>
      </trkpt>
      <trkpt lat="44.66857" lon="5.87115">
        <ele>1476.1</ele>
        <time>2015-07-01T08:19:56Z</time>
      </trkpt>
      <trkpt lat="44.66863" lon="5.87116">
        <ele>1479.9</ele>
        <time>2015-07-01T08:20:01Z</time>
      </trkpt>
      <trkpt lat="44.66869" lon="5.87118">
        <ele>1481.1</ele>
        <time>2015-07-01T08:20:06Z</time>
      </trkpt>
      <trkpt lat="44.66874" lon="5.87122">
        <ele>1482.4</ele>
        <time>2015-07-01T08:20:11Z</time>
      </trkpt>
      <trkpt lat="44.6688" lon="5.87125">
        <ele>1480.7</ele>
        <time>2015-07-01T08:20:16Z</time>
      </trkpt>
      <trkpt lat="44.66887" lon="5.87123">
        <ele>1482.4</ele>
        <time>2015-07-01T08:20:21Z</time>
      </trkpt>
      <trkpt lat="44.66894" lon="5.87124">
        <ele>1481.1</ele>
        <time>2015-07-01T08:20:26Z</time>
      </trkpt>
      <trkpt lat="44.669" lon="5.87125">
        <ele>1481.5</ele>
        <time>2015-07-01T08:20:31Z</time>
      </trkpt>
      <trkpt lat="44.66907" lon="5.87127">
        <ele>1484</ele>
        <time>2015-07-01T08:20:38Z</time>
      </trkpt>
      <trkpt lat="44.66913" lon="5.87131">
        <ele>1480.7</ele>
        <time>2015-07-01T08:20:43Z</time>
      </trkpt>
      <trkpt lat="44.66919" lon="5.87133">
        <ele>1481.2</ele>
        <time>2015-07-01T08:20:48Z</time>
      </trkpt>
      <trkpt lat="44.66923" lon="5.87134">
        <ele>1476.5</ele>
        <time>2015-07-01T08:20:53Z</time>
      </trkpt>
      <trkpt lat="44.66927" lon="5.87132">
        <ele>1476</ele>
        <time>2015-07-01T08:20:58Z</time>
      </trkpt>
      <trkpt lat="44.66932" lon="5.87136">
        <ele>1475.9</ele>
        <time>2015-07-01T08:21:03Z</time>
      </trkpt>
      <trkpt lat="44.66939" lon="5.87139">
        <ele>1479.6</ele>
        <time>2015-07-01T08:21:08Z</time>
      </trkpt>
      <trkpt lat="44.66943" lon="5.87144">
        <ele>1482.5</ele>
        <time>2015-07-01T08:21:13Z</time>
      </trkpt>
      <trkpt lat="44.6695" lon="5.87146">
        <ele>1482.2</ele>
        <time>2015-07-01T08:21:18Z</time>
      </trkpt>
      <trkpt lat="44.66954" lon="5.87149">
        <ele>1480.6</ele>
        <time>2015-07-01T08:21:23Z</time>
      </trkpt>
      <trkpt lat="44.66959" lon="5.87152">
        <ele>1477.5</ele>
        <time>2015-07-01T08:21:28Z</time>
      </trkpt>
      <trkpt lat="44.66965" lon="5.87154">
        <ele>1478.3</ele>
        <time>2015-07-01T08:21:33Z</time>
      </trkpt>
      <trkpt lat="44.66971" lon="5.87157">
        <ele>1477.3</ele>
        <time>2015-07-01T08:21:38Z</time>
      </trkpt>
      <trkpt lat="44.66976" lon="5.8716">
        <ele>1474.4</ele>
        <time>2015-07-01T08:21:43Z</time>
      </trkpt>
      <trkpt lat="44.66982" lon="5.87164">
        <ele>1475</ele>
        <time>2015-07-01T08:21:48Z</time>
      </trkpt>
      <trkpt lat="44.66989" lon="5.87168">
        <ele>1473.8</ele>
        <time>2015-07-01T08:21:53Z</time>
      </trkpt>
      <trkpt lat="44.66994" lon="5.87175">
        <ele>1471.6</ele>
        <time>2015-07-01T08:21:58Z</time>
      </trkpt>
      <trkpt lat="44.66998" lon="5.87181">
        <ele>1470.6</ele>
        <time>2015-07-01T08:22:03Z</time>
      </trkpt>
      <trkpt lat="44.67001" lon="5.8719">
        <ele>1469.7</ele>
        <time>2015-07-01T08:22:08Z</time>
      </trkpt>
      <trkpt lat="44.67005" lon="5.87197">
        <ele>1469.1</ele>
        <time>2015-07-01T08:22:13Z</time>
      </trkpt>
      <trkpt lat="44.67011" lon="5.87202">
        <ele>1470.8</ele>
        <time>2015-07-01T08:22:18Z</time>
      </trkpt>
      <trkpt lat="44.67021" lon="5.87206">
        <ele>1470.3</ele>
        <time>2015-07-01T08:22:27Z</time>
      </trkpt>
      <trkpt lat="44.67027" lon="5.87208">
        <ele>1469.4</ele>
        <time>2015-07-01T08:22:32Z</time>
      </trkpt>
      <trkpt lat="44.67035" lon="5.87214">
        <ele>1469</ele>
        <time>2015-07-01T08:22:39Z</time>
      </trkpt>
      <trkpt lat="44.6704" lon="5.87218">
        <ele>1470</ele>
        <time>2015-07-01T08:22:44Z</time>
      </trkpt>
      <trkpt lat="44.67045" lon="5.87222">
        <ele>1473.9</ele>
        <time>2015-07-01T08:22:49Z</time>
      </trkpt>
      <trkpt lat="44.6705" lon="5.87229">
        <ele>1472.3</ele>
        <time>2015-07-01T08:22:54Z</time>
      </trkpt>
      <trkpt lat="44.67055" lon="5.87233">
        <ele>1471.4</ele>
        <time>2015-07-01T08:22:59Z</time>
      </trkpt>
      <trkpt lat="44.67059" lon="5.87237">
        <ele>1468.9</ele>
        <time>2015-07-01T08:23:04Z</time>
      </trkpt>
      <trkpt lat="44.67063" lon="5.87243">
        <ele>1466.5</ele>
        <time>2015-07-01T08:23:09Z</time>
      </trkpt>
      <trkpt lat="44.67067" lon="5.87249">
        <ele>1462.4</ele>
        <time>2015-07-01T08:23:14Z</time>
      </trkpt>
      <trkpt lat="44.67073" lon="5.87255">
        <ele>1464.2</ele>
        <time>2015-07-01T08:23:19Z</time>
      </trkpt>
      <trkpt lat="44.67079" lon="5.87259">
        <ele>1464.1</ele>
        <time>2015-07-01T08:23:24Z</time>
      </trkpt>
      <trkpt lat="44.67085" lon="5.87264">
        <ele>1463.9</ele>
        <time>2015-07-01T08:23:29Z</time>
      </trkpt>
      <trkpt lat="44.67091" lon="5.87268">
        <ele>1463.6</ele>
        <time>2015-07-01T08:23:34Z</time>
      </trkpt>
      <trkpt lat="44.67096" lon="5.87268">
        <ele>1465.9</ele>
        <time>2015-07-01T08:23:39Z</time>
      </trkpt>
      <trkpt lat="44.67103" lon="5.87272">
        <ele>1468.9</ele>
        <time>2015-07-01T08:23:44Z</time>
      </trkpt>
      <trkpt lat="44.67109" lon="5.87275">
        <ele>1465</ele>
        <time>2015-07-01T08:23:49Z</time>
      </trkpt>
      <trkpt lat="44.67114" lon="5.87279">
        <ele>1463.6</ele>
        <time>2015-07-01T08:23:54Z</time>
      </trkpt>
      <trkpt lat="44.67119" lon="5.87283">
        <ele>1463.3</ele>
        <time>2015-07-01T08:23:59Z</time>
      </trkpt>
      <trkpt lat="44.67125" lon="5.87287">
        <ele>1462.8</ele>
        <time>2015-07-01T08:24:04Z</time>
      </trkpt>
      <trkpt lat="44.6713" lon="5.8729">
        <ele>1460.1</ele>
        <time>2015-07-01T08:24:09Z</time>
      </trkpt>
      <trkpt lat="44.67135" lon="5.87292">
        <ele>1460</ele>
        <time>2015-07-01T08:24:14Z</time>
      </trkpt>
      <trkpt lat="44.67139" lon="5.87295">
        <ele>1457.7</ele>
        <time>2015-07-01T08:24:19Z</time>
      </trkpt>
      <trkpt lat="44.67144" lon="5.87299">
        <ele>1457.8</ele>
        <time>2015-07-01T08:24:24Z</time>
      </trkpt>
      <trkpt lat="44.67149" lon="5.87306">
        <ele>1459.8</ele>
        <time>2015-07-01T08:24:29Z</time>
      </trkpt>
      <trkpt lat="44.67152" lon="5.87307">
        <ele>1458.8</ele>
        <time>2015-07-01T08:24:34Z</time>
      </trkpt>
      <trkpt lat="44.67154" lon="5.87308">
        <ele>1462</ele>
        <time>2015-07-01T08:24:39Z</time>
      </trkpt>
      <trkpt lat="44.67155" lon="5.87311">
        <ele>1470.8</ele>
        <time>2015-07-01T08:24:44Z</time>
      </trkpt>
      <trkpt lat="44.67157" lon="5.87313">
        <ele>1474.3</ele>
        <time>2015-07-01T08:24:49Z</time>
      </trkpt>
      <trkpt lat="44.67159" lon="5.87312">
        <ele>1475</ele>
        <time>2015-07-01T08:24:54Z</time>
      </trkpt>
      <trkpt lat="44.67162" lon="5.87315">
        <ele>1472.3</ele>
        <time>2015-07-01T08:24:59Z</time>
      </trkpt>
      <trkpt lat="44.67165" lon="5.87317">
        <ele>1469.9</ele>
        <time>2015-07-01T08:25:04Z</time>
      </trkpt>
      <trkpt lat="44.67171" lon="5.8732">
        <ele>1468</ele>
        <time>2015-07-01T08:25:09Z</time>
      </trkpt>
      <trkpt lat="44.67174" lon="5.8732">
        <ele>1468.1</ele>
        <time>2015-07-01T08:25:14Z</time>
      </trkpt>
      <trkpt lat="44.67176" lon="5.87322">
        <ele>1466.7</ele>
        <time>2015-07-01T08:25:19Z</time>
      </trkpt>
      <trkpt lat="44.67176" lon="5.87321">
        <ele>1466.5</ele>
        <time>2015-07-01T08:25:24Z</time>
      </trkpt>
      <trkpt lat="44.67176" lon="5.87319">
        <ele>1466.7</ele>
        <time>2015-07-01T08:25:29Z</time>
      </trkpt>
      <trkpt lat="44.6718" lon="5.8732">
        <ele>1464.1</ele>
        <time>2015-07-01T08:25:34Z</time>
      </trkpt>
      <trkpt lat="44.67183" lon="5.87316">
        <ele>1458.2</ele>
        <time>2015-07-01T08:25:39Z</time>
      </trkpt>
      <trkpt lat="44.67189" lon="5.87317">
        <ele>1457.6</ele>
        <time>2015-07-01T08:25:44Z</time>
      </trkpt>
      <trkpt lat="44.67194" lon="5.87317">
        <ele>1458.4</ele>
        <time>2015-07-01T08:25:49Z</time>
      </trkpt>
      <trkpt lat="44.67194" lon="5.87316">
        <ele>1456.7</ele>
        <time>2015-07-01T08:25:54Z</time>
      </trkpt>
      <trkpt lat="44.67195" lon="5.87313">
        <ele>1457.1</ele>
        <time>2015-07-01T08:25:59Z</time>
      </trkpt>
      <trkpt lat="44.67197" lon="5.87312">
        <ele>1457.1</ele>
        <time>2015-07-01T08:26:04Z</time>
      </trkpt>
      <trkpt lat="44.67202" lon="5.87314">
        <ele>1457.8</ele>
        <time>2015-07-01T08:26:09Z</time>
      </trkpt>
      <trkpt lat="44.67205" lon="5.87314">
        <ele>1459.6</ele>
        <time>2015-07-01T08:26:14Z</time>
      </trkpt>
      <trkpt lat="44.67207" lon="5.87317">
        <ele>1459.3</ele>
        <time>2015-07-01T08:26:19Z</time>
      </trkpt>
      <trkpt lat="44.67208" lon="5.87316">
        <ele>1460.4</ele>
        <time>2015-07-01T08:26:24Z</time>
      </trkpt>
      <trkpt lat="44.67208" lon="5.87316">
        <ele>1459.9</ele>
        <time>2015-07-01T08:26:29Z</time>
      </trkpt>
      <trkpt lat="44.67208" lon="5.87314">
        <ele>1461.4</ele>
        <time>2015-07-01T08:26:34Z</time>
      </trkpt>
      <trkpt lat="44.67207" lon="5.87313">
        <ele>1462.3</ele>
        <time>2015-07-01T08:26:39Z</time>
      </trkpt>
      <trkpt lat="44.67208" lon="5.87315">
        <ele>1462.1</ele>
        <time>2015-07-01T08:26:44Z</time>
      </trkpt>
      <trkpt lat="44.67209" lon="5.87314">
        <ele>1463.9</ele>
        <time>2015-07-01T08:26:49Z</time>
      </trkpt>
      <trkpt lat="44.6721" lon="5.87314">
        <ele>1464.9</ele>
        <time>2015-07-01T08:26:54Z</time>
      </trkpt>
      <trkpt lat="44.6721" lon="5.87315">
        <ele>1462.9</ele>
        <time>2015-07-01T08:26:59Z</time>
      </trkpt>
      <trkpt lat="44.6721" lon="5.87316">
        <ele>1461.4</ele>
        <time>2015-07-01T08:27:04Z</time>
      </trkpt>
      <trkpt lat="44.6721" lon="5.87316">
        <ele>1460.9</ele>
        <time>2015-07-01T08:27:09Z</time>
      </trkpt>
      <trkpt lat="44.6721" lon="5.87316">
        <ele>1461.9</ele>
        <time>2015-07-01T08:27:14Z</time>
      </trkpt>
      <trkpt lat="44.67209" lon="5.87315">
        <ele>1459.7</ele>
        <time>2015-07-01T08:27:19Z</time>
      </trkpt>
      <trkpt lat="44.67207" lon="5.87313">
        <ele>1460.4</ele>
        <time>2015-07-01T08:27:24Z</time>
      </trkpt>
      <trkpt lat="44.67209" lon="5.87314">
        <ele>1461.8</ele>
        <time>2015-07-01T08:27:29Z</time>
      </trkpt>
      <trkpt lat="44.67208" lon="5.87313">
        <ele>1463</ele>
        <time>2015-07-01T08:27:34Z</time>
      </trkpt>
      <trkpt lat="44.67208" lon="5.87312">
        <ele>1464.8</ele>
        <time>2015-07-01T08:27:39Z</time>
      </trkpt>
      <trkpt lat="44.67208" lon="5.87312">
        <ele>1465.2</ele>
        <time>2015-07-01T08:27:44Z</time>
      </trkpt>
      <trkpt lat="44.67207" lon="5.87309">
        <ele>1467</ele>
        <time>2015-07-01T08:27:49Z</time>
      </trkpt>
      <trkpt lat="44.67207" lon="5.87311">
        <ele>1465.9</ele>
        <time>2015-07-01T08:27:54Z</time>
      </trkpt>
      <trkpt lat="44.67207" lon="5.87316">
        <ele>1463.5</ele>
        <time>2015-07-01T08:28:02Z</time>
      </trkpt>
      <trkpt lat="44.67206" lon="5.87317">
        <ele>1461.7</ele>
        <time>2015-07-01T08:28:07Z</time>
      </trkpt>
      <trkpt lat="44.67205" lon="5.87316">
        <ele>1459</ele>
        <time>2015-07-01T08:28:12Z</time>
      </trkpt>
      <trkpt lat="44.67204" lon="5.87315">
        <ele>1457</ele>
        <time>2015-07-01T08:28:17Z</time>
      </trkpt>
      <trkpt lat="44.67204" lon="5.87313">
        <ele>1457.7</ele>
        <time>2015-07-01T08:28:22Z</time>
      </trkpt>
      <trkpt lat="44.67204" lon="5.87312">
        <ele>1458.1</ele>
        <time>2015-07-01T08:28:27Z</time>
      </trkpt>
      <trkpt lat="44.67206" lon="5.87311">
        <ele>1460.3</ele>
        <time>2015-07-01T08:28:32Z</time>
      </trkpt>
      <trkpt lat="44.67207" lon="5.87309">
        <ele>1463.4</ele>
        <time>2015-07-01T08:28:37Z</time>
      </trkpt>
      <trkpt lat="44.67208" lon="5.8731">
        <ele>1464.7</ele>
        <time>2015-07-01T08:28:42Z</time>
      </trkpt>
      <trkpt lat="44.67207" lon="5.87309">
        <ele>1464.8</ele>
        <time>2015-07-01T08:28:47Z</time>
      </trkpt>
      <trkpt lat="44.67207" lon="5.8731">
        <ele>1464.4</ele>
        <time>2015-07-01T08:28:52Z</time>
      </trkpt>
      <trkpt lat="44.67206" lon="5.87309">
        <ele>1464.1</ele>
        <time>2015-07-01T08:28:57Z</time>
      </trkpt>
      <trkpt lat="44.67206" lon="5.87308">
        <ele>1464.7</ele>
        <time>2015-07-01T08:29:02Z</time>
      </trkpt>
      <trkpt lat="44.67206" lon="5.87308">
        <ele>1465.4</ele>
        <time>2015-07-01T08:29:07Z</time>
      </trkpt>
      <trkpt lat="44.67207" lon="5.87307">
        <ele>1466</ele>
        <time>2015-07-01T08:29:12Z</time>
      </trkpt>
      <trkpt lat="44.67207" lon="5.87309">
        <ele>1465.7</ele>
        <time>2015-07-01T08:29:17Z</time>
      </trkpt>
      <trkpt lat="44.67207" lon="5.8731">
        <ele>1466.9</ele>
        <time>2015-07-01T08:29:22Z</time>
      </trkpt>
      <trkpt lat="44.67207" lon="5.87312">
        <ele>1467.3</ele>
        <time>2015-07-01T08:29:27Z</time>
      </trkpt>
      <trkpt lat="44.67207" lon="5.87313">
        <ele>1466.8</ele>
        <time>2015-07-01T08:29:32Z</time>
      </trkpt>
      <trkpt lat="44.67207" lon="5.87313">
        <ele>1466.1</ele>
        <time>2015-07-01T08:29:37Z</time>
      </trkpt>
      <trkpt lat="44.67207" lon="5.87313">
        <ele>1464</ele>
        <time>2015-07-01T08:29:42Z</time>
      </trkpt>
      <trkpt lat="44.67206" lon="5.87315">
        <ele>1459.7</ele>
        <time>2015-07-01T08:29:47Z</time>
      </trkpt>
      <trkpt lat="44.67204" lon="5.87316">
        <ele>1455.7</ele>
        <time>2015-07-01T08:29:52Z</time>
      </trkpt>
      <trkpt lat="44.67204" lon="5.87317">
        <ele>1455.1</ele>
        <time>2015-07-01T08:29:57Z</time>
      </trkpt>
      <trkpt lat="44.67204" lon="5.87317">
        <ele>1454.6</ele>
        <time>2015-07-01T08:30:02Z</time>
      </trkpt>
      <trkpt lat="44.67206" lon="5.87317">
        <ele>1456.9</ele>
        <time>2015-07-01T08:30:07Z</time>
      </trkpt>
      <trkpt lat="44.67208" lon="5.87317">
        <ele>1460.8</ele>
        <time>2015-07-01T08:30:12Z</time>
      </trkpt>
      <trkpt lat="44.6721" lon="5.87318">
        <ele>1462.3</ele>
        <time>2015-07-01T08:30:17Z</time>
      </trkpt>
      <trkpt lat="44.67209" lon="5.87318">
        <ele>1459.3</ele>
        <time>2015-07-01T08:30:22Z</time>
      </trkpt>
      <trkpt lat="44.6721" lon="5.87319">
        <ele>1459.2</ele>
        <time>2015-07-01T08:30:27Z</time>
      </trkpt>
      <trkpt lat="44.67209" lon="5.87319">
        <ele>1458</ele>
        <time>2015-07-01T08:30:32Z</time>
      </trkpt>
      <trkpt lat="44.6721" lon="5.87319">
        <ele>1458.7</ele>
        <time>2015-07-01T08:30:37Z</time>
      </trkpt>
      <trkpt lat="44.67212" lon="5.87316">
        <ele>1460.6</ele>
        <time>2015-07-01T08:30:42Z</time>
      </trkpt>
      <trkpt lat="44.67211" lon="5.87317">
        <ele>1458.8</ele>
        <time>2015-07-01T08:30:47Z</time>
      </trkpt>
      <trkpt lat="44.67213" lon="5.87316">
        <ele>1462.9</ele>
        <time>2015-07-01T08:30:52Z</time>
      </trkpt>
      <trkpt lat="44.67212" lon="5.87315">
        <ele>1462.4</ele>
        <time>2015-07-01T08:30:57Z</time>
      </trkpt>
      <trkpt lat="44.6721" lon="5.87316">
        <ele>1463.1</ele>
        <time>2015-07-01T08:31:02Z</time>
      </trkpt>
      <trkpt lat="44.6721" lon="5.87318">
        <ele>1464.5</ele>
        <time>2015-07-01T08:31:07Z</time>
      </trkpt>
      <trkpt lat="44.6721" lon="5.8732">
        <ele>1463.8</ele>
        <time>2015-07-01T08:31:12Z</time>
      </trkpt>
      <trkpt lat="44.6721" lon="5.87323">
        <ele>1463.7</ele>
        <time>2015-07-01T08:31:17Z</time>
      </trkpt>
      <trkpt lat="44.6721" lon="5.87324">
        <ele>1462.6</ele>
        <time>2015-07-01T08:31:22Z</time>
      </trkpt>
      <trkpt lat="44.6721" lon="5.87322">
        <ele>1461.4</ele>
        <time>2015-07-01T08:31:27Z</time>
      </trkpt>
      <trkpt lat="44.67209" lon="5.87319">
        <ele>1461.7</ele>
        <time>2015-07-01T08:31:32Z</time>
      </trkpt>
      <trkpt lat="44.67209" lon="5.87318">
        <ele>1464.1</ele>
        <time>2015-07-01T08:31:37Z</time>
      </trkpt>
      <trkpt lat="44.67208" lon="5.87318">
        <ele>1464.1</ele>
        <time>2015-07-01T08:31:42Z</time>
      </trkpt>
      <trkpt lat="44.67207" lon="5.87317">
        <ele>1464.4</ele>
        <time>2015-07-01T08:31:47Z</time>
      </trkpt>
      <trkpt lat="44.67206" lon="5.87316">
        <ele>1465.4</ele>
        <time>2015-07-01T08:31:52Z</time>
      </trkpt>
      <trkpt lat="44.67205" lon="5.87315">
        <ele>1466.4</ele>
        <time>2015-07-01T08:31:57Z</time>
      </trkpt>
      <trkpt lat="44.67205" lon="5.87314">
        <ele>1467.8</ele>
        <time>2015-07-01T08:32:02Z</time>
      </trkpt>
      <trkpt lat="44.67205" lon="5.87314">
        <ele>1469.2</ele>
        <time>2015-07-01T08:32:07Z</time>
      </trkpt>
      <trkpt lat="44.67205" lon="5.87314">
        <ele>1469.9</ele>
        <time>2015-07-01T08:32:12Z</time>
      </trkpt>
      <trkpt lat="44.67205" lon="5.87313">
        <ele>1470.2</ele>
        <time>2015-07-01T08:32:17Z</time>
      </trkpt>
      <trkpt lat="44.67206" lon="5.87312">
        <ele>1470.5</ele>
        <time>2015-07-01T08:32:22Z</time>
      </trkpt>
      <trkpt lat="44.67206" lon="5.8731">
        <ele>1471.6</ele>
        <time>2015-07-01T08:32:27Z</time>
      </trkpt>
      <trkpt lat="44.67207" lon="5.87309">
        <ele>1472.8</ele>
        <time>2015-07-01T08:32:32Z</time>
      </trkpt>
      <trkpt lat="44.67207" lon="5.8731">
        <ele>1473.9</ele>
        <time>2015-07-01T08:32:37Z</time>
      </trkpt>
      <trkpt lat="44.67208" lon="5.87308">
        <ele>1477.6</ele>
        <time>2015-07-01T08:32:42Z</time>
      </trkpt>
      <trkpt lat="44.6721" lon="5.87308">
        <ele>1479.5</ele>
        <time>2015-07-01T08:32:47Z</time>
      </trkpt>
      <trkpt lat="44.6721" lon="5.87312">
        <ele>1477</ele>
        <time>2015-07-01T08:32:52Z</time>
      </trkpt>
      <trkpt lat="44.6721" lon="5.87315">
        <ele>1474.5</ele>
        <time>2015-07-01T08:32:57Z</time>
      </trkpt>
      <trkpt lat="44.67209" lon="5.87315">
        <ele>1473.2</ele>
        <time>2015-07-01T08:33:02Z</time>
      </trkpt>
      <trkpt lat="44.67209" lon="5.87317">
        <ele>1471.4</ele>
        <time>2015-07-01T08:33:07Z</time>
      </trkpt>
      <trkpt lat="44.67209" lon="5.87317">
        <ele>1469.3</ele>
        <time>2015-07-01T08:33:12Z</time>
      </trkpt>
      <trkpt lat="44.67209" lon="5.87317">
        <ele>1469</ele>
        <time>2015-07-01T08:33:17Z</time>
      </trkpt>
      <trkpt lat="44.6721" lon="5.87317">
        <ele>1469.3</ele>
        <time>2015-07-01T08:33:22Z</time>
      </trkpt>
      <trkpt lat="44.6721" lon="5.87317">
        <ele>1469.5</ele>
        <time>2015-07-01T08:33:27Z</time>
      </trkpt>
      <trkpt lat="44.67212" lon="5.87319">
        <ele>1469.1</ele>
        <time>2015-07-01T08:33:32Z</time>
      </trkpt>
      <trkpt lat="44.67212" lon="5.87319">
        <ele>1469.1</ele>
        <time>2015-07-01T08:33:37Z</time>
      </trkpt>
      <trkpt lat="44.67211" lon="5.87317">
        <ele>1470</ele>
        <time>2015-07-01T08:33:42Z</time>
      </trkpt>
      <trkpt lat="44.67211" lon="5.87317">
        <ele>1470.8</ele>
        <time>2015-07-01T08:33:47Z</time>
      </trkpt>
      <trkpt lat="44.67214" lon="5.87315">
        <ele>1474.2</ele>
        <time>2015-07-01T08:33:52Z</time>
      </trkpt>
      <trkpt lat="44.67218" lon="5.87316">
        <ele>1480.3</ele>
        <time>2015-07-01T08:33:57Z</time>
      </trkpt>
      <trkpt lat="44.67218" lon="5.87316">
        <ele>1479.7</ele>
        <time>2015-07-01T08:34:02Z</time>
      </trkpt>
      <trkpt lat="44.67215" lon="5.8731">
        <ele>1474.6</ele>
        <time>2015-07-01T08:34:07Z</time>
      </trkpt>
      <trkpt lat="44.67212" lon="5.87306">
        <ele>1474.8</ele>
        <time>2015-07-01T08:34:12Z</time>
      </trkpt>
      <trkpt lat="44.67209" lon="5.87305">
        <ele>1468.4</ele>
        <time>2015-07-01T08:34:17Z</time>
      </trkpt>
      <trkpt lat="44.67208" lon="5.87305">
        <ele>1462.5</ele>
        <time>2015-07-01T08:34:22Z</time>
      </trkpt>
      <trkpt lat="44.67211" lon="5.87308">
        <ele>1461.7</ele>
        <time>2015-07-01T08:34:27Z</time>
      </trkpt>
      <trkpt lat="44.67211" lon="5.87307">
        <ele>1462.4</ele>
        <time>2015-07-01T08:34:32Z</time>
      </trkpt>
      <trkpt lat="44.6721" lon="5.87304">
        <ele>1461</ele>
        <time>2015-07-01T08:34:37Z</time>
      </trkpt>
      <trkpt lat="44.67207" lon="5.87301">
        <ele>1462.3</ele>
        <time>2015-07-01T08:34:42Z</time>
      </trkpt>
      <trkpt lat="44.67208" lon="5.87301">
        <ele>1464.5</ele>
        <time>2015-07-01T08:34:47Z</time>
      </trkpt>
      <trkpt lat="44.67209" lon="5.87302">
        <ele>1467</ele>
        <time>2015-07-01T08:34:52Z</time>
      </trkpt>
      <trkpt lat="44.67212" lon="5.87305">
        <ele>1467.9</ele>
        <time>2015-07-01T08:34:57Z</time>
      </trkpt>
      <trkpt lat="44.67214" lon="5.87309">
        <ele>1465.2</ele>
        <time>2015-07-01T08:35:02Z</time>
      </trkpt>
      <trkpt lat="44.67216" lon="5.87313">
        <ele>1460.8</ele>
        <time>2015-07-01T08:35:07Z</time>
      </trkpt>
      <trkpt lat="44.67216" lon="5.87315">
        <ele>1459</ele>
        <time>2015-07-01T08:35:12Z</time>
      </trkpt>
      <trkpt lat="44.67217" lon="5.87314">
        <ele>1458.1</ele>
        <time>2015-07-01T08:35:17Z</time>
      </trkpt>
      <trkpt lat="44.67218" lon="5.87313">
        <ele>1457.2</ele>
        <time>2015-07-01T08:35:22Z</time>
      </trkpt>
      <trkpt lat="44.6722" lon="5.87312">
        <ele>1459.1</ele>
        <time>2015-07-01T08:35:27Z</time>
      </trkpt>
      <trkpt lat="44.67225" lon="5.87308">
        <ele>1470.9</ele>
        <time>2015-07-01T08:35:32Z</time>
      </trkpt>
      <trkpt lat="44.67223" lon="5.87305">
        <ele>1473.3</ele>
        <time>2015-07-01T08:35:37Z</time>
      </trkpt>
      <trkpt lat="44.67221" lon="5.87303">
        <ele>1473.5</ele>
        <time>2015-07-01T08:35:42Z</time>
      </trkpt>
      <trkpt lat="44.67222" lon="5.87304">
        <ele>1473.6</ele>
        <time>2015-07-01T08:35:47Z</time>
      </trkpt>
      <trkpt lat="44.67218" lon="5.87302">
        <ele>1470.2</ele>
        <time>2015-07-01T08:35:52Z</time>
      </trkpt>
      <trkpt lat="44.67217" lon="5.87301">
        <ele>1469.1</ele>
        <time>2015-07-01T08:35:57Z</time>
      </trkpt>
      <trkpt lat="44.67216" lon="5.87302">
        <ele>1466.3</ele>
        <time>2015-07-01T08:36:02Z</time>
      </trkpt>
      <trkpt lat="44.67212" lon="5.87298">
        <ele>1469.8</ele>
        <time>2015-07-01T08:36:07Z</time>
      </trkpt>
      <trkpt lat="44.67207" lon="5.87302">
        <ele>1466.6</ele>
        <time>2015-07-01T08:36:12Z</time>
      </trkpt>
      <trkpt lat="44.67205" lon="5.87308">
        <ele>1463.4</ele>
        <time>2015-07-01T08:36:17Z</time>
      </trkpt>
      <trkpt lat="44.67204" lon="5.87308">
        <ele>1464.8</ele>
        <time>2015-07-01T08:36:22Z</time>
      </trkpt>
      <trkpt lat="44.67204" lon="5.8731">
        <ele>1461.4</ele>
        <time>2015-07-01T08:36:27Z</time>
      </trkpt>
      <trkpt lat="44.67204" lon="5.87313">
        <ele>1460.1</ele>
        <time>2015-07-01T08:36:32Z</time>
      </trkpt>
      <trkpt lat="44.67204" lon="5.87312">
        <ele>1462.5</ele>
        <time>2015-07-01T08:36:37Z</time>
      </trkpt>
      <trkpt lat="44.67204" lon="5.87311">
        <ele>1462.6</ele>
        <time>2015-07-01T08:36:42Z</time>
      </trkpt>
      <trkpt lat="44.67202" lon="5.87311">
        <ele>1457.1</ele>
        <time>2015-07-01T08:36:47Z</time>
      </trkpt>
      <trkpt lat="44.67202" lon="5.87311">
        <ele>1458</ele>
        <time>2015-07-01T08:36:52Z</time>
      </trkpt>
      <trkpt lat="44.67206" lon="5.87314">
        <ele>1461.5</ele>
        <time>2015-07-01T08:36:57Z</time>
      </trkpt>
      <trkpt lat="44.67208" lon="5.87319">
        <ele>1463.6</ele>
        <time>2015-07-01T08:37:02Z</time>
      </trkpt>
      <trkpt lat="44.67209" lon="5.87319">
        <ele>1465.9</ele>
        <time>2015-07-01T08:37:07Z</time>
      </trkpt>
      <trkpt lat="44.6721" lon="5.87321">
        <ele>1466.4</ele>
        <time>2015-07-01T08:37:12Z</time>
      </trkpt>
      <trkpt lat="44.6721" lon="5.87319">
        <ele>1465.4</ele>
        <time>2015-07-01T08:37:17Z</time>
      </trkpt>
      <trkpt lat="44.67209" lon="5.87318">
        <ele>1464.6</ele>
        <time>2015-07-01T08:37:22Z</time>
      </trkpt>
      <trkpt lat="44.67211" lon="5.87317">
        <ele>1462.9</ele>
        <time>2015-07-01T08:37:27Z</time>
      </trkpt>
      <trkpt lat="44.67214" lon="5.87316">
        <ele>1462.6</ele>
        <time>2015-07-01T08:37:32Z</time>
      </trkpt>
      <trkpt lat="44.67216" lon="5.87319">
        <ele>1462.9</ele>
        <time>2015-07-01T08:37:37Z</time>
      </trkpt>
      <trkpt lat="44.67219" lon="5.87324">
        <ele>1462.5</ele>
        <time>2015-07-01T08:37:42Z</time>
      </trkpt>
      <trkpt lat="44.67223" lon="5.87329">
        <ele>1460.2</ele>
        <time>2015-07-01T08:37:47Z</time>
      </trkpt>
      <trkpt lat="44.67224" lon="5.87327">
        <ele>1461.5</ele>
        <time>2015-07-01T08:37:52Z</time>
      </trkpt>
      <trkpt lat="44.67223" lon="5.87325">
        <ele>1459.9</ele>
        <time>2015-07-01T08:37:57Z</time>
      </trkpt>
      <trkpt lat="44.67221" lon="5.87324">
        <ele>1459.8</ele>
        <time>2015-07-01T08:38:02Z</time>
      </trkpt>
      <trkpt lat="44.6722" lon="5.87324">
        <ele>1459.5</ele>
        <time>2015-07-01T08:38:07Z</time>
      </trkpt>
      <trkpt lat="44.6722" lon="5.87325">
        <ele>1460.9</ele>
        <time>2015-07-01T08:38:12Z</time>
      </trkpt>
      <trkpt lat="44.67224" lon="5.87328">
        <ele>1461.8</ele>
        <time>2015-07-01T08:38:17Z</time>
      </trkpt>
      <trkpt lat="44.6723" lon="5.87331">
        <ele>1462.7</ele>
        <time>2015-07-01T08:38:22Z</time>
      </trkpt>
      <trkpt lat="44.67236" lon="5.87335">
        <ele>1461.9</ele>
        <time>2015-07-01T08:38:27Z</time>
      </trkpt>
      <trkpt lat="44.67243" lon="5.87337">
        <ele>1461.8</ele>
        <time>2015-07-01T08:38:32Z</time>
      </trkpt>
      <trkpt lat="44.67249" lon="5.87342">
        <ele>1458.8</ele>
        <time>2015-07-01T08:38:37Z</time>
      </trkpt>
      <trkpt lat="44.67255" lon="5.87346">
        <ele>1461.4</ele>
        <time>2015-07-01T08:38:42Z</time>
      </trkpt>
      <trkpt lat="44.67262" lon="5.87349">
        <ele>1465.1</ele>
        <time>2015-07-01T08:38:47Z</time>
      </trkpt>
      <trkpt lat="44.67267" lon="5.87353">
        <ele>1461.5</ele>
        <time>2015-07-01T08:38:52Z</time>
      </trkpt>
      <trkpt lat="44.67272" lon="5.87357">
        <ele>1461.9</ele>
        <time>2015-07-01T08:38:57Z</time>
      </trkpt>
      <trkpt lat="44.67278" lon="5.87361">
        <ele>1461.8</ele>
        <time>2015-07-01T08:39:02Z</time>
      </trkpt>
      <trkpt lat="44.67284" lon="5.87364">
        <ele>1460.9</ele>
        <time>2015-07-01T08:39:07Z</time>
      </trkpt>
      <trkpt lat="44.67291" lon="5.87369">
        <ele>1461.7</ele>
        <time>2015-07-01T08:39:12Z</time>
      </trkpt>
      <trkpt lat="44.67296" lon="5.87374">
        <ele>1459.9</ele>
        <time>2015-07-01T08:39:17Z</time>
      </trkpt>
      <trkpt lat="44.67301" lon="5.87379">
        <ele>1461.5</ele>
        <time>2015-07-01T08:39:22Z</time>
      </trkpt>
      <trkpt lat="44.67305" lon="5.87385">
        <ele>1462.9</ele>
        <time>2015-07-01T08:39:27Z</time>
      </trkpt>
      <trkpt lat="44.67311" lon="5.87389">
        <ele>1460.8</ele>
        <time>2015-07-01T08:39:32Z</time>
      </trkpt>
      <trkpt lat="44.67317" lon="5.87393">
        <ele>1458.8</ele>
        <time>2015-07-01T08:39:37Z</time>
      </trkpt>
      <trkpt lat="44.67323" lon="5.87398">
        <ele>1455.6</ele>
        <time>2015-07-01T08:39:42Z</time>
      </trkpt>
      <trkpt lat="44.67328" lon="5.87403">
        <ele>1453.8</ele>
        <time>2015-07-01T08:39:47Z</time>
      </trkpt>
      <trkpt lat="44.67334" lon="5.87407">
        <ele>1452.9</ele>
        <time>2015-07-01T08:39:52Z</time>
      </trkpt>
      <trkpt lat="44.67339" lon="5.87415">
        <ele>1453.4</ele>
        <time>2015-07-01T08:39:57Z</time>
      </trkpt>
      <trkpt lat="44.67344" lon="5.87419">
        <ele>1453.8</ele>
        <time>2015-07-01T08:40:02Z</time>
      </trkpt>
      <trkpt lat="44.67351" lon="5.87422">
        <ele>1453.5</ele>
        <time>2015-07-01T08:40:07Z</time>
      </trkpt>
      <trkpt lat="44.67357" lon="5.87427">
        <ele>1452.3</ele>
        <time>2015-07-01T08:40:12Z</time>
      </trkpt>
      <trkpt lat="44.67364" lon="5.87431">
        <ele>1454.5</ele>
        <time>2015-07-01T08:40:17Z</time>
      </trkpt>
      <trkpt lat="44.6737" lon="5.87435">
        <ele>1453.5</ele>
        <time>2015-07-01T08:40:22Z</time>
      </trkpt>
      <trkpt lat="44.67375" lon="5.87439">
        <ele>1451.6</ele>
        <time>2015-07-01T08:40:27Z</time>
      </trkpt>
      <trkpt lat="44.67381" lon="5.87442">
        <ele>1452</ele>
        <time>2015-07-01T08:40:32Z</time>
      </trkpt>
      <trkpt lat="44.67387" lon="5.87445">
        <ele>1450.8</ele>
        <time>2015-07-01T08:40:37Z</time>
      </trkpt>
      <trkpt lat="44.67394" lon="5.87447">
        <ele>1448.5</ele>
        <time>2015-07-01T08:40:42Z</time>
      </trkpt>
      <trkpt lat="44.674" lon="5.8745">
        <ele>1447.4</ele>
        <time>2015-07-01T08:40:47Z</time>
      </trkpt>
      <trkpt lat="44.67406" lon="5.87453">
        <ele>1446</ele>
        <time>2015-07-01T08:40:52Z</time>
      </trkpt>
      <trkpt lat="44.67412" lon="5.87455">
        <ele>1445.4</ele>
        <time>2015-07-01T08:40:57Z</time>
      </trkpt>
      <trkpt lat="44.67415" lon="5.87459">
        <ele>1446.8</ele>
        <time>2015-07-01T08:41:02Z</time>
      </trkpt>
      <trkpt lat="44.6742" lon="5.87463">
        <ele>1449.5</ele>
        <time>2015-07-01T08:41:07Z</time>
      </trkpt>
      <trkpt lat="44.67425" lon="5.87468">
        <ele>1449.8</ele>
        <time>2015-07-01T08:41:12Z</time>
      </trkpt>
      <trkpt lat="44.6743" lon="5.87471">
        <ele>1447.2</ele>
        <time>2015-07-01T08:41:17Z</time>
      </trkpt>
      <trkpt lat="44.67433" lon="5.87475">
        <ele>1442</ele>
        <time>2015-07-01T08:41:22Z</time>
      </trkpt>
      <trkpt lat="44.67438" lon="5.87477">
        <ele>1442.8</ele>
        <time>2015-07-01T08:41:27Z</time>
      </trkpt>
      <trkpt lat="44.67442" lon="5.87481">
        <ele>1444.7</ele>
        <time>2015-07-01T08:41:32Z</time>
      </trkpt>
      <trkpt lat="44.67445" lon="5.87484">
        <ele>1448.6</ele>
        <time>2015-07-01T08:41:37Z</time>
      </trkpt>
      <trkpt lat="44.67451" lon="5.87487">
        <ele>1445.4</ele>
        <time>2015-07-01T08:41:42Z</time>
      </trkpt>
      <trkpt lat="44.67455" lon="5.87492">
        <ele>1447.8</ele>
        <time>2015-07-01T08:41:47Z</time>
      </trkpt>
      <trkpt lat="44.67455" lon="5.87497">
        <ele>1455.7</ele>
        <time>2015-07-01T08:41:52Z</time>
      </trkpt>
      <trkpt lat="44.6746" lon="5.87504">
        <ele>1455.4</ele>
        <time>2015-07-01T08:41:57Z</time>
      </trkpt>
      <trkpt lat="44.67463" lon="5.87508">
        <ele>1452.4</ele>
        <time>2015-07-01T08:42:02Z</time>
      </trkpt>
      <trkpt lat="44.67467" lon="5.87513">
        <ele>1449.8</ele>
        <time>2015-07-01T08:42:07Z</time>
      </trkpt>
      <trkpt lat="44.67471" lon="5.87517">
        <ele>1447.8</ele>
        <time>2015-07-01T08:42:12Z</time>
      </trkpt>
      <trkpt lat="44.67476" lon="5.8752">
        <ele>1450.4</ele>
        <time>2015-07-01T08:42:17Z</time>
      </trkpt>
      <trkpt lat="44.67481" lon="5.87524">
        <ele>1453.5</ele>
        <time>2015-07-01T08:42:22Z</time>
      </trkpt>
      <trkpt lat="44.67485" lon="5.8753">
        <ele>1456.7</ele>
        <time>2015-07-01T08:42:27Z</time>
      </trkpt>
      <trkpt lat="44.67487" lon="5.87535">
        <ele>1450.3</ele>
        <time>2015-07-01T08:42:32Z</time>
      </trkpt>
      <trkpt lat="44.67488" lon="5.8754">
        <ele>1448.1</ele>
        <time>2015-07-01T08:42:37Z</time>
      </trkpt>
      <trkpt lat="44.67494" lon="5.87538">
        <ele>1447.7</ele>
        <time>2015-07-01T08:42:42Z</time>
      </trkpt>
      <trkpt lat="44.67499" lon="5.87542">
        <ele>1451.9</ele>
        <time>2015-07-01T08:42:47Z</time>
      </trkpt>
      <trkpt lat="44.67501" lon="5.87547">
        <ele>1451.2</ele>
        <time>2015-07-01T08:42:52Z</time>
      </trkpt>
      <trkpt lat="44.67504" lon="5.87553">
        <ele>1448.9</ele>
        <time>2015-07-01T08:42:57Z</time>
      </trkpt>
      <trkpt lat="44.6751" lon="5.87559">
        <ele>1447.2</ele>
        <time>2015-07-01T08:43:02Z</time>
      </trkpt>
      <trkpt lat="44.67513" lon="5.87566">
        <ele>1445.1</ele>
        <time>2015-07-01T08:43:07Z</time>
      </trkpt>
      <trkpt lat="44.67515" lon="5.87574">
        <ele>1438.8</ele>
        <time>2015-07-01T08:43:12Z</time>
      </trkpt>
      <trkpt lat="44.6752" lon="5.87579">
        <ele>1445.2</ele>
        <time>2015-07-01T08:43:17Z</time>
      </trkpt>
      <trkpt lat="44.67525" lon="5.87584">
        <ele>1445.3</ele>
        <time>2015-07-01T08:43:22Z</time>
      </trkpt>
      <trkpt lat="44.67531" lon="5.87588">
        <ele>1440.7</ele>
        <time>2015-07-01T08:43:27Z</time>
      </trkpt>
      <trkpt lat="44.67542" lon="5.87592">
        <ele>1443.5</ele>
        <time>2015-07-01T08:43:34Z</time>
      </trkpt>
      <trkpt lat="44.67545" lon="5.87605">
        <ele>1441.1</ele>
        <time>2015-07-01T08:43:42Z</time>
      </trkpt>
      <trkpt lat="44.67552" lon="5.87609">
        <ele>1435.6</ele>
        <time>2015-07-01T08:43:47Z</time>
      </trkpt>
      <trkpt lat="44.67556" lon="5.87613">
        <ele>1438.8</ele>
        <time>2015-07-01T08:43:52Z</time>
      </trkpt>
      <trkpt lat="44.67562" lon="5.87617">
        <ele>1442.5</ele>
        <time>2015-07-01T08:43:57Z</time>
      </trkpt>
      <trkpt lat="44.67568" lon="5.87622">
        <ele>1445.6</ele>
        <time>2015-07-01T08:44:02Z</time>
      </trkpt>
      <trkpt lat="44.67574" lon="5.87624">
        <ele>1448</ele>
        <time>2015-07-01T08:44:07Z</time>
      </trkpt>
      <trkpt lat="44.67578" lon="5.87628">
        <ele>1445.4</ele>
        <time>2015-07-01T08:44:12Z</time>
      </trkpt>
      <trkpt lat="44.67583" lon="5.87631">
        <ele>1443.1</ele>
        <time>2015-07-01T08:44:17Z</time>
      </trkpt>
      <trkpt lat="44.67585" lon="5.87636">
        <ele>1440.7</ele>
        <time>2015-07-01T08:44:22Z</time>
      </trkpt>
      <trkpt lat="44.67589" lon="5.87643">
        <ele>1435.5</ele>
        <time>2015-07-01T08:44:27Z</time>
      </trkpt>
      <trkpt lat="44.6759" lon="5.87652">
        <ele>1438.2</ele>
        <time>2015-07-01T08:44:32Z</time>
      </trkpt>
      <trkpt lat="44.67593" lon="5.87658">
        <ele>1438.4</ele>
        <time>2015-07-01T08:44:37Z</time>
      </trkpt>
      <trkpt lat="44.67598" lon="5.87664">
        <ele>1439</ele>
        <time>2015-07-01T08:44:42Z</time>
      </trkpt>
      <trkpt lat="44.676" lon="5.87673">
        <ele>1439.9</ele>
        <time>2015-07-01T08:44:47Z</time>
      </trkpt>
      <trkpt lat="44.67607" lon="5.87678">
        <ele>1440.3</ele>
        <time>2015-07-01T08:44:52Z</time>
      </trkpt>
      <trkpt lat="44.67614" lon="5.87685">
        <ele>1446</ele>
        <time>2015-07-01T08:44:57Z</time>
      </trkpt>
      <trkpt lat="44.6762" lon="5.87689">
        <ele>1447.9</ele>
        <time>2015-07-01T08:45:02Z</time>
      </trkpt>
      <trkpt lat="44.67627" lon="5.87692">
        <ele>1447.1</ele>
        <time>2015-07-01T08:45:07Z</time>
      </trkpt>
      <trkpt lat="44.67634" lon="5.87698">
        <ele>1444.7</ele>
        <time>2015-07-01T08:45:12Z</time>
      </trkpt>
      <trkpt lat="44.67639" lon="5.87704">
        <ele>1441.1</ele>
        <time>2015-07-01T08:45:17Z</time>
      </trkpt>
      <trkpt lat="44.67641" lon="5.87712">
        <ele>1439.5</ele>
        <time>2015-07-01T08:45:22Z</time>
      </trkpt>
      <trkpt lat="44.67642" lon="5.87721">
        <ele>1431.7</ele>
        <time>2015-07-01T08:45:27Z</time>
      </trkpt>
      <trkpt lat="44.67648" lon="5.87728">
        <ele>1431.2</ele>
        <time>2015-07-01T08:45:32Z</time>
      </trkpt>
      <trkpt lat="44.67651" lon="5.87732">
        <ele>1421.1</ele>
        <time>2015-07-01T08:45:37Z</time>
      </trkpt>
      <trkpt lat="44.67656" lon="5.87736">
        <ele>1417.2</ele>
        <time>2015-07-01T08:45:42Z</time>
      </trkpt>
      <trkpt lat="44.67661" lon="5.87742">
        <ele>1418</ele>
        <time>2015-07-01T08:45:47Z</time>
      </trkpt>
      <trkpt lat="44.67666" lon="5.87747">
        <ele>1425.5</ele>
        <time>2015-07-01T08:45:52Z</time>
      </trkpt>
      <trkpt lat="44.67671" lon="5.87754">
        <ele>1430.7</ele>
        <time>2015-07-01T08:45:57Z</time>
      </trkpt>
      <trkpt lat="44.67677" lon="5.87761">
        <ele>1430.1</ele>
        <time>2015-07-01T08:46:02Z</time>
      </trkpt>
      <trkpt lat="44.67682" lon="5.87769">
        <ele>1429.6</ele>
        <time>2015-07-01T08:46:07Z</time>
      </trkpt>
      <trkpt lat="44.67685" lon="5.87776">
        <ele>1422.5</ele>
        <time>2015-07-01T08:46:12Z</time>
      </trkpt>
      <trkpt lat="44.67694" lon="5.87782">
        <ele>1422</ele>
        <time>2015-07-01T08:46:19Z</time>
      </trkpt>
      <trkpt lat="44.67702" lon="5.87791">
        <ele>1422.5</ele>
        <time>2015-07-01T08:46:24Z</time>
      </trkpt>
      <trkpt lat="44.67709" lon="5.87799">
        <ele>1429.1</ele>
        <time>2015-07-01T08:46:31Z</time>
      </trkpt>
      <trkpt lat="44.67713" lon="5.87808">
        <ele>1450.6</ele>
        <time>2015-07-01T08:46:36Z</time>
      </trkpt>
      <trkpt lat="44.67719" lon="5.87813">
        <ele>1460.3</ele>
        <time>2015-07-01T08:46:41Z</time>
      </trkpt>
      <trkpt lat="44.67728" lon="5.87812">
        <ele>1463.1</ele>
        <time>2015-07-01T08:46:46Z</time>
      </trkpt>
      <trkpt lat="44.67736" lon="5.87811">
        <ele>1464.3</ele>
        <time>2015-07-01T08:46:51Z</time>
      </trkpt>
      <trkpt lat="44.67745" lon="5.87805">
        <ele>1454.4</ele>
        <time>2015-07-01T08:47:00Z</time>
      </trkpt>
      <trkpt lat="44.67749" lon="5.87808">
        <ele>1451.8</ele>
        <time>2015-07-01T08:47:05Z</time>
      </trkpt>
      <trkpt lat="44.67754" lon="5.87811">
        <ele>1450.5</ele>
        <time>2015-07-01T08:47:10Z</time>
      </trkpt>
      <trkpt lat="44.67759" lon="5.87814">
        <ele>1448.9</ele>
        <time>2015-07-01T08:47:15Z</time>
      </trkpt>
      <trkpt lat="44.67765" lon="5.87819">
        <ele>1451.7</ele>
        <time>2015-07-01T08:47:20Z</time>
      </trkpt>
      <trkpt lat="44.6777" lon="5.87819">
        <ele>1451.2</ele>
        <time>2015-07-01T08:47:25Z</time>
      </trkpt>
      <trkpt lat="44.67778" lon="5.87819">
        <ele>1448.2</ele>
        <time>2015-07-01T08:47:30Z</time>
      </trkpt>
      <trkpt lat="44.67786" lon="5.87819">
        <ele>1446.9</ele>
        <time>2015-07-01T08:47:35Z</time>
      </trkpt>
      <trkpt lat="44.67796" lon="5.87819">
        <ele>1447.9</ele>
        <time>2015-07-01T08:47:42Z</time>
      </trkpt>
      <trkpt lat="44.67804" lon="5.87824">
        <ele>1442.7</ele>
        <time>2015-07-01T08:47:47Z</time>
      </trkpt>
      <trkpt lat="44.6781" lon="5.87827">
        <ele>1441.9</ele>
        <time>2015-07-01T08:47:52Z</time>
      </trkpt>
      <trkpt lat="44.67815" lon="5.87829">
        <ele>1446.6</ele>
        <time>2015-07-01T08:47:57Z</time>
      </trkpt>
      <trkpt lat="44.67818" lon="5.87832">
        <ele>1444.9</ele>
        <time>2015-07-01T08:48:02Z</time>
      </trkpt>
      <trkpt lat="44.67823" lon="5.87838">
        <ele>1449.5</ele>
        <time>2015-07-01T08:48:07Z</time>
      </trkpt>
      <trkpt lat="44.67826" lon="5.87843">
        <ele>1456.4</ele>
        <time>2015-07-01T08:48:12Z</time>
      </trkpt>
      <trkpt lat="44.67832" lon="5.8785">
        <ele>1456.3</ele>
        <time>2015-07-01T08:48:17Z</time>
      </trkpt>
      <trkpt lat="44.67836" lon="5.87855">
        <ele>1463.4</ele>
        <time>2015-07-01T08:48:22Z</time>
      </trkpt>
      <trkpt lat="44.67842" lon="5.87865">
        <ele>1461.2</ele>
        <time>2015-07-01T08:48:27Z</time>
      </trkpt>
      <trkpt lat="44.67847" lon="5.87867">
        <ele>1455.9</ele>
        <time>2015-07-01T08:48:32Z</time>
      </trkpt>
      <trkpt lat="44.67852" lon="5.87865">
        <ele>1450.9</ele>
        <time>2015-07-01T08:48:37Z</time>
      </trkpt>
      <trkpt lat="44.67854" lon="5.87863">
        <ele>1449.4</ele>
        <time>2015-07-01T08:48:42Z</time>
      </trkpt>
      <trkpt lat="44.67857" lon="5.87861">
        <ele>1449.4</ele>
        <time>2015-07-01T08:48:47Z</time>
      </trkpt>
      <trkpt lat="44.6786" lon="5.87859">
        <ele>1447.8</ele>
        <time>2015-07-01T08:48:52Z</time>
      </trkpt>
      <trkpt lat="44.67866" lon="5.87857">
        <ele>1447.5</ele>
        <time>2015-07-01T08:48:57Z</time>
      </trkpt>
      <trkpt lat="44.67872" lon="5.87857">
        <ele>1447.3</ele>
        <time>2015-07-01T08:49:02Z</time>
      </trkpt>
      <trkpt lat="44.67876" lon="5.8786">
        <ele>1443.9</ele>
        <time>2015-07-01T08:49:07Z</time>
      </trkpt>
      <trkpt lat="44.67881" lon="5.87862">
        <ele>1442.6</ele>
        <time>2015-07-01T08:49:12Z</time>
      </trkpt>
      <trkpt lat="44.67887" lon="5.87864">
        <ele>1440.9</ele>
        <time>2015-07-01T08:49:17Z</time>
      </trkpt>
      <trkpt lat="44.67893" lon="5.87866">
        <ele>1439.3</ele>
        <time>2015-07-01T08:49:22Z</time>
      </trkpt>
      <trkpt lat="44.679" lon="5.8787">
        <ele>1438.2</ele>
        <time>2015-07-01T08:49:27Z</time>
      </trkpt>
      <trkpt lat="44.67905" lon="5.87874">
        <ele>1440.1</ele>
        <time>2015-07-01T08:49:32Z</time>
      </trkpt>
      <trkpt lat="44.6791" lon="5.87879">
        <ele>1442.5</ele>
        <time>2015-07-01T08:49:37Z</time>
      </trkpt>
      <trkpt lat="44.67914" lon="5.87885">
        <ele>1437.9</ele>
        <time>2015-07-01T08:49:42Z</time>
      </trkpt>
      <trkpt lat="44.6792" lon="5.87889">
        <ele>1435.1</ele>
        <time>2015-07-01T08:49:47Z</time>
      </trkpt>
      <trkpt lat="44.67926" lon="5.87894">
        <ele>1435.8</ele>
        <time>2015-07-01T08:49:52Z</time>
      </trkpt>
      <trkpt lat="44.6793" lon="5.87898">
        <ele>1433.3</ele>
        <time>2015-07-01T08:49:57Z</time>
      </trkpt>
      <trkpt lat="44.67936" lon="5.87904">
        <ele>1435.5</ele>
        <time>2015-07-01T08:50:02Z</time>
      </trkpt>
      <trkpt lat="44.6794" lon="5.87909">
        <ele>1428.2</ele>
        <time>2015-07-01T08:50:07Z</time>
      </trkpt>
      <trkpt lat="44.67945" lon="5.87916">
        <ele>1429.2</ele>
        <time>2015-07-01T08:50:12Z</time>
      </trkpt>
      <trkpt lat="44.67949" lon="5.87922">
        <ele>1423.6</ele>
        <time>2015-07-01T08:50:17Z</time>
      </trkpt>
      <trkpt lat="44.67957" lon="5.87923">
        <ele>1430.1</ele>
        <time>2015-07-01T08:50:22Z</time>
      </trkpt>
      <trkpt lat="44.67965" lon="5.87924">
        <ele>1438.9</ele>
        <time>2015-07-01T08:50:27Z</time>
      </trkpt>
      <trkpt lat="44.6797" lon="5.8793">
        <ele>1446.1</ele>
        <time>2015-07-01T08:50:32Z</time>
      </trkpt>
      <trkpt lat="44.67975" lon="5.87938">
        <ele>1453.7</ele>
        <time>2015-07-01T08:50:37Z</time>
      </trkpt>
      <trkpt lat="44.67979" lon="5.87944">
        <ele>1455.2</ele>
        <time>2015-07-01T08:50:42Z</time>
      </trkpt>
      <trkpt lat="44.67982" lon="5.87952">
        <ele>1453.4</ele>
        <time>2015-07-01T08:50:47Z</time>
      </trkpt>
      <trkpt lat="44.67984" lon="5.87962">
        <ele>1452.4</ele>
        <time>2015-07-01T08:50:52Z</time>
      </trkpt>
      <trkpt lat="44.67986" lon="5.8797">
        <ele>1445.4</ele>
        <time>2015-07-01T08:50:57Z</time>
      </trkpt>
      <trkpt lat="44.67994" lon="5.87973">
        <ele>1444.1</ele>
        <time>2015-07-01T08:51:02Z</time>
      </trkpt>
      <trkpt lat="44.68002" lon="5.87974">
        <ele>1443.7</ele>
        <time>2015-07-01T08:51:07Z</time>
      </trkpt>
      <trkpt lat="44.68011" lon="5.87974">
        <ele>1451.5</ele>
        <time>2015-07-01T08:51:12Z</time>
      </trkpt>
      <trkpt lat="44.68015" lon="5.87981">
        <ele>1452</ele>
        <time>2015-07-01T08:51:17Z</time>
      </trkpt>
      <trkpt lat="44.68016" lon="5.87995">
        <ele>1444.5</ele>
        <time>2015-07-01T08:51:22Z</time>
      </trkpt>
      <trkpt lat="44.68021" lon="5.88003">
        <ele>1442</ele>
        <time>2015-07-01T08:51:27Z</time>
      </trkpt>
      <trkpt lat="44.68026" lon="5.88011">
        <ele>1449.5</ele>
        <time>2015-07-01T08:51:32Z</time>
      </trkpt>
      <trkpt lat="44.68031" lon="5.88015">
        <ele>1447.9</ele>
        <time>2015-07-01T08:51:37Z</time>
      </trkpt>
      <trkpt lat="44.68038" lon="5.88018">
        <ele>1443.9</ele>
        <time>2015-07-01T08:51:42Z</time>
      </trkpt>
      <trkpt lat="44.68047" lon="5.88021">
        <ele>1447.8</ele>
        <time>2015-07-01T08:51:47Z</time>
      </trkpt>
      <trkpt lat="44.68052" lon="5.88021">
        <ele>1445.7</ele>
        <time>2015-07-01T08:51:52Z</time>
      </trkpt>
      <trkpt lat="44.68057" lon="5.88019">
        <ele>1443.6</ele>
        <time>2015-07-01T08:51:57Z</time>
      </trkpt>
      <trkpt lat="44.68061" lon="5.88025">
        <ele>1437.1</ele>
        <time>2015-07-01T08:52:02Z</time>
      </trkpt>
      <trkpt lat="44.68067" lon="5.8803">
        <ele>1434</ele>
        <time>2015-07-01T08:52:07Z</time>
      </trkpt>
      <trkpt lat="44.68069" lon="5.88038">
        <ele>1420.1</ele>
        <time>2015-07-01T08:52:12Z</time>
      </trkpt>
      <trkpt lat="44.68073" lon="5.88045">
        <ele>1408.6</ele>
        <time>2015-07-01T08:52:17Z</time>
      </trkpt>
      <trkpt lat="44.6808" lon="5.88049">
        <ele>1413.8</ele>
        <time>2015-07-01T08:52:22Z</time>
      </trkpt>
      <trkpt lat="44.68089" lon="5.88052">
        <ele>1417.1</ele>
        <time>2015-07-01T08:52:27Z</time>
      </trkpt>
      <trkpt lat="44.68092" lon="5.88054">
        <ele>1417.8</ele>
        <time>2015-07-01T08:52:32Z</time>
      </trkpt>
      <trkpt lat="44.68099" lon="5.8806">
        <ele>1422</ele>
        <time>2015-07-01T08:52:37Z</time>
      </trkpt>
      <trkpt lat="44.68106" lon="5.8806">
        <ele>1427.2</ele>
        <time>2015-07-01T08:52:42Z</time>
      </trkpt>
      <trkpt lat="44.68113" lon="5.88062">
        <ele>1434.8</ele>
        <time>2015-07-01T08:52:47Z</time>
      </trkpt>
      <trkpt lat="44.6812" lon="5.88064">
        <ele>1436.2</ele>
        <time>2015-07-01T08:52:52Z</time>
      </trkpt>
      <trkpt lat="44.68125" lon="5.88065">
        <ele>1438.2</ele>
        <time>2015-07-01T08:52:57Z</time>
      </trkpt>
      <trkpt lat="44.68129" lon="5.88072">
        <ele>1436.5</ele>
        <time>2015-07-01T08:53:02Z</time>
      </trkpt>
      <trkpt lat="44.68132" lon="5.88077">
        <ele>1436.9</ele>
        <time>2015-07-01T08:53:07Z</time>
      </trkpt>
      <trkpt lat="44.68138" lon="5.88083">
        <ele>1437.2</ele>
        <time>2015-07-01T08:53:12Z</time>
      </trkpt>
      <trkpt lat="44.68142" lon="5.88091">
        <ele>1429.9</ele>
        <time>2015-07-01T08:53:17Z</time>
      </trkpt>
      <trkpt lat="44.68145" lon="5.88096">
        <ele>1424</ele>
        <time>2015-07-01T08:53:22Z</time>
      </trkpt>
      <trkpt lat="44.68151" lon="5.88101">
        <ele>1428</ele>
        <time>2015-07-01T08:53:27Z</time>
      </trkpt>
      <trkpt lat="44.68155" lon="5.88107">
        <ele>1427.7</ele>
        <time>2015-07-01T08:53:32Z</time>
      </trkpt>
      <trkpt lat="44.6816" lon="5.88113">
        <ele>1428.9</ele>
        <time>2015-07-01T08:53:37Z</time>
      </trkpt>
      <trkpt lat="44.68166" lon="5.88116">
        <ele>1430.7</ele>
        <time>2015-07-01T08:53:42Z</time>
      </trkpt>
      <trkpt lat="44.68174" lon="5.8812">
        <ele>1432.7</ele>
        <time>2015-07-01T08:53:47Z</time>
      </trkpt>
      <trkpt lat="44.68181" lon="5.88122">
        <ele>1436.6</ele>
        <time>2015-07-01T08:53:52Z</time>
      </trkpt>
      <trkpt lat="44.68186" lon="5.88125">
        <ele>1436.8</ele>
        <time>2015-07-01T08:53:57Z</time>
      </trkpt>
      <trkpt lat="44.68191" lon="5.88129">
        <ele>1434.4</ele>
        <time>2015-07-01T08:54:02Z</time>
      </trkpt>
      <trkpt lat="44.68197" lon="5.88132">
        <ele>1437.4</ele>
        <time>2015-07-01T08:54:07Z</time>
      </trkpt>
      <trkpt lat="44.68202" lon="5.88134">
        <ele>1435.6</ele>
        <time>2015-07-01T08:54:12Z</time>
      </trkpt>
      <trkpt lat="44.68207" lon="5.88136">
        <ele>1431.4</ele>
        <time>2015-07-01T08:54:17Z</time>
      </trkpt>
      <trkpt lat="44.68212" lon="5.88141">
        <ele>1429.1</ele>
        <time>2015-07-01T08:54:22Z</time>
      </trkpt>
      <trkpt lat="44.68217" lon="5.88144">
        <ele>1430</ele>
        <time>2015-07-01T08:54:27Z</time>
      </trkpt>
      <trkpt lat="44.68222" lon="5.88151">
        <ele>1432.7</ele>
        <time>2015-07-01T08:54:32Z</time>
      </trkpt>
      <trkpt lat="44.68227" lon="5.88155">
        <ele>1429</ele>
        <time>2015-07-01T08:54:37Z</time>
      </trkpt>
      <trkpt lat="44.68232" lon="5.8816">
        <ele>1426.3</ele>
        <time>2015-07-01T08:54:42Z</time>
      </trkpt>
      <trkpt lat="44.68238" lon="5.88165">
        <ele>1426.6</ele>
        <time>2015-07-01T08:54:47Z</time>
      </trkpt>
      <trkpt lat="44.68243" lon="5.8817">
        <ele>1423.8</ele>
        <time>2015-07-01T08:54:52Z</time>
      </trkpt>
      <trkpt lat="44.6825" lon="5.88173">
        <ele>1425.7</ele>
        <time>2015-07-01T08:54:57Z</time>
      </trkpt>
      <trkpt lat="44.68255" lon="5.88176">
        <ele>1425.8</ele>
        <time>2015-07-01T08:55:02Z</time>
      </trkpt>
      <trkpt lat="44.6826" lon="5.88182">
        <ele>1424.3</ele>
        <time>2015-07-01T08:55:07Z</time>
      </trkpt>
      <trkpt lat="44.68264" lon="5.88187">
        <ele>1423.2</ele>
        <time>2015-07-01T08:55:12Z</time>
      </trkpt>
      <trkpt lat="44.6827" lon="5.8819">
        <ele>1426.1</ele>
        <time>2015-07-01T08:55:17Z</time>
      </trkpt>
      <trkpt lat="44.68274" lon="5.88195">
        <ele>1422.1</ele>
        <time>2015-07-01T08:55:22Z</time>
      </trkpt>
      <trkpt lat="44.6828" lon="5.88199">
        <ele>1424.5</ele>
        <time>2015-07-01T08:55:27Z</time>
      </trkpt>
      <trkpt lat="44.68285" lon="5.88202">
        <ele>1427.2</ele>
        <time>2015-07-01T08:55:32Z</time>
      </trkpt>
      <trkpt lat="44.6829" lon="5.88206">
        <ele>1430.7</ele>
        <time>2015-07-01T08:55:37Z</time>
      </trkpt>
      <trkpt lat="44.68299" lon="5.88207">
        <ele>1432.5</ele>
        <time>2015-07-01T08:55:42Z</time>
      </trkpt>
      <trkpt lat="44.68304" lon="5.88214">
        <ele>1429.1</ele>
        <time>2015-07-01T08:55:47Z</time>
      </trkpt>
      <trkpt lat="44.68307" lon="5.88223">
        <ele>1427.8</ele>
        <time>2015-07-01T08:55:52Z</time>
      </trkpt>
      <trkpt lat="44.68312" lon="5.88229">
        <ele>1429</ele>
        <time>2015-07-01T08:55:57Z</time>
      </trkpt>
      <trkpt lat="44.68316" lon="5.88233">
        <ele>1430</ele>
        <time>2015-07-01T08:56:02Z</time>
      </trkpt>
      <trkpt lat="44.6832" lon="5.88239">
        <ele>1433.1</ele>
        <time>2015-07-01T08:56:07Z</time>
      </trkpt>
      <trkpt lat="44.68325" lon="5.88244">
        <ele>1433.2</ele>
        <time>2015-07-01T08:56:12Z</time>
      </trkpt>
      <trkpt lat="44.68328" lon="5.8825">
        <ele>1431.3</ele>
        <time>2015-07-01T08:56:17Z</time>
      </trkpt>
      <trkpt lat="44.68335" lon="5.88254">
        <ele>1427.9</ele>
        <time>2015-07-01T08:56:22Z</time>
      </trkpt>
      <trkpt lat="44.68341" lon="5.88261">
        <ele>1422.9</ele>
        <time>2015-07-01T08:56:29Z</time>
      </trkpt>
      <trkpt lat="44.68348" lon="5.88269">
        <ele>1422.5</ele>
        <time>2015-07-01T08:56:34Z</time>
      </trkpt>
      <trkpt lat="44.68353" lon="5.88274">
        <ele>1422.5</ele>
        <time>2015-07-01T08:56:39Z</time>
      </trkpt>
      <trkpt lat="44.68359" lon="5.88277">
        <ele>1426.2</ele>
        <time>2015-07-01T08:56:44Z</time>
      </trkpt>
      <trkpt lat="44.68362" lon="5.88284">
        <ele>1421.7</ele>
        <time>2015-07-01T08:56:49Z</time>
      </trkpt>
      <trkpt lat="44.68368" lon="5.88291">
        <ele>1413.6</ele>
        <time>2015-07-01T08:56:54Z</time>
      </trkpt>
      <trkpt lat="44.68371" lon="5.88296">
        <ele>1404.8</ele>
        <time>2015-07-01T08:56:59Z</time>
      </trkpt>
      <trkpt lat="44.68377" lon="5.88299">
        <ele>1405.7</ele>
        <time>2015-07-01T08:57:04Z</time>
      </trkpt>
      <trkpt lat="44.68384" lon="5.883">
        <ele>1410.6</ele>
        <time>2015-07-01T08:57:09Z</time>
      </trkpt>
      <trkpt lat="44.68387" lon="5.88305">
        <ele>1406.8</ele>
        <time>2015-07-01T08:57:14Z</time>
      </trkpt>
      <trkpt lat="44.68397" lon="5.88314">
        <ele>1409.6</ele>
        <time>2015-07-01T08:57:21Z</time>
      </trkpt>
      <trkpt lat="44.68403" lon="5.88318">
        <ele>1419.7</ele>
        <time>2015-07-01T08:57:26Z</time>
      </trkpt>
      <trkpt lat="44.68408" lon="5.88323">
        <ele>1425.8</ele>
        <time>2015-07-01T08:57:31Z</time>
      </trkpt>
      <trkpt lat="44.68412" lon="5.88327">
        <ele>1428.8</ele>
        <time>2015-07-01T08:57:36Z</time>
      </trkpt>
      <trkpt lat="44.6841" lon="5.88328">
        <ele>1431.2</ele>
        <time>2015-07-01T08:57:41Z</time>
      </trkpt>
      <trkpt lat="44.68411" lon="5.88328">
        <ele>1429.3</ele>
        <time>2015-07-01T08:57:46Z</time>
      </trkpt>
      <trkpt lat="44.68414" lon="5.88333">
        <ele>1429.2</ele>
        <time>2015-07-01T08:57:51Z</time>
      </trkpt>
      <trkpt lat="44.68419" lon="5.88341">
        <ele>1431</ele>
        <time>2015-07-01T08:57:56Z</time>
      </trkpt>
      <trkpt lat="44.68422" lon="5.88351">
        <ele>1426.2</ele>
        <time>2015-07-01T08:58:01Z</time>
      </trkpt>
      <trkpt lat="44.68426" lon="5.88357">
        <ele>1421.7</ele>
        <time>2015-07-01T08:58:06Z</time>
      </trkpt>
      <trkpt lat="44.68429" lon="5.88362">
        <ele>1416.2</ele>
        <time>2015-07-01T08:58:11Z</time>
      </trkpt>
      <trkpt lat="44.68432" lon="5.88371">
        <ele>1408.6</ele>
        <time>2015-07-01T08:58:16Z</time>
      </trkpt>
      <trkpt lat="44.68436" lon="5.88377">
        <ele>1405.3</ele>
        <time>2015-07-01T08:58:21Z</time>
      </trkpt>
      <trkpt lat="44.68441" lon="5.88384">
        <ele>1410</ele>
        <time>2015-07-01T08:58:26Z</time>
      </trkpt>
      <trkpt lat="44.68444" lon="5.88393">
        <ele>1416.5</ele>
        <time>2015-07-01T08:58:31Z</time>
      </trkpt>
      <trkpt lat="44.68448" lon="5.88398">
        <ele>1413.4</ele>
        <time>2015-07-01T08:58:36Z</time>
      </trkpt>
      <trkpt lat="44.68454" lon="5.88403">
        <ele>1420.6</ele>
        <time>2015-07-01T08:58:41Z</time>
      </trkpt>
      <trkpt lat="44.6846" lon="5.88408">
        <ele>1425.6</ele>
        <time>2015-07-01T08:58:46Z</time>
      </trkpt>
      <trkpt lat="44.68468" lon="5.88416">
        <ele>1426.7</ele>
        <time>2015-07-01T08:58:51Z</time>
      </trkpt>
      <trkpt lat="44.68474" lon="5.8842">
        <ele>1421.8</ele>
        <time>2015-07-01T08:58:56Z</time>
      </trkpt>
      <trkpt lat="44.68477" lon="5.88426">
        <ele>1418</ele>
        <time>2015-07-01T08:59:01Z</time>
      </trkpt>
      <trkpt lat="44.68481" lon="5.88432">
        <ele>1410.9</ele>
        <time>2015-07-01T08:59:06Z</time>
      </trkpt>
      <trkpt lat="44.68487" lon="5.88448">
        <ele>1407.1</ele>
        <time>2015-07-01T08:59:13Z</time>
      </trkpt>
      <trkpt lat="44.68492" lon="5.8846">
        <ele>1414.9</ele>
        <time>2015-07-01T08:59:18Z</time>
      </trkpt>
      <trkpt lat="44.68498" lon="5.88466">
        <ele>1423.2</ele>
        <time>2015-07-01T08:59:23Z</time>
      </trkpt>
      <trkpt lat="44.68503" lon="5.88471">
        <ele>1433</ele>
        <time>2015-07-01T08:59:28Z</time>
      </trkpt>
      <trkpt lat="44.68507" lon="5.88473">
        <ele>1435.3</ele>
        <time>2015-07-01T08:59:33Z</time>
      </trkpt>
      <trkpt lat="44.68513" lon="5.88476">
        <ele>1441.6</ele>
        <time>2015-07-01T08:59:38Z</time>
      </trkpt>
      <trkpt lat="44.68519" lon="5.88475">
        <ele>1443.8</ele>
        <time>2015-07-01T08:59:43Z</time>
      </trkpt>
      <trkpt lat="44.68526" lon="5.88476">
        <ele>1441.1</ele>
        <time>2015-07-01T08:59:48Z</time>
      </trkpt>
      <trkpt lat="44.68534" lon="5.88487">
        <ele>1440.6</ele>
        <time>2015-07-01T08:59:56Z</time>
      </trkpt>
      <trkpt lat="44.68542" lon="5.88488">
        <ele>1444.7</ele>
        <time>2015-07-01T09:00:01Z</time>
      </trkpt>
      <trkpt lat="44.68544" lon="5.88492">
        <ele>1440.7</ele>
        <time>2015-07-01T09:00:06Z</time>
      </trkpt>
      <trkpt lat="44.68547" lon="5.885">
        <ele>1443.4</ele>
        <time>2015-07-01T09:00:11Z</time>
      </trkpt>
      <trkpt lat="44.68553" lon="5.88505">
        <ele>1446.3</ele>
        <time>2015-07-01T09:00:16Z</time>
      </trkpt>
      <trkpt lat="44.6856" lon="5.88504">
        <ele>1446.3</ele>
        <time>2015-07-01T09:00:21Z</time>
      </trkpt>
      <trkpt lat="44.68565" lon="5.88508">
        <ele>1445</ele>
        <time>2015-07-01T09:00:26Z</time>
      </trkpt>
      <trkpt lat="44.68572" lon="5.8851">
        <ele>1441.3</ele>
        <time>2015-07-01T09:00:31Z</time>
      </trkpt>
      <trkpt lat="44.68577" lon="5.88513">
        <ele>1439.7</ele>
        <time>2015-07-01T09:00:36Z</time>
      </trkpt>
      <trkpt lat="44.68581" lon="5.88519">
        <ele>1434.6</ele>
        <time>2015-07-01T09:00:43Z</time>
      </trkpt>
      <trkpt lat="44.68589" lon="5.88531">
        <ele>1429.6</ele>
        <time>2015-07-01T09:00:50Z</time>
      </trkpt>
      <trkpt lat="44.686" lon="5.8854">
        <ele>1424.8</ele>
        <time>2015-07-01T09:00:59Z</time>
      </trkpt>
      <trkpt lat="44.68605" lon="5.88541">
        <ele>1429.9</ele>
        <time>2015-07-01T09:01:04Z</time>
      </trkpt>
      <trkpt lat="44.68611" lon="5.88545">
        <ele>1432.5</ele>
        <time>2015-07-01T09:01:09Z</time>
      </trkpt>
      <trkpt lat="44.68615" lon="5.8855">
        <ele>1433.7</ele>
        <time>2015-07-01T09:01:14Z</time>
      </trkpt>
      <trkpt lat="44.68621" lon="5.88555">
        <ele>1436.7</ele>
        <time>2015-07-01T09:01:19Z</time>
      </trkpt>
      <trkpt lat="44.68627" lon="5.88558">
        <ele>1437.9</ele>
        <time>2015-07-01T09:01:24Z</time>
      </trkpt>
      <trkpt lat="44.68631" lon="5.88563">
        <ele>1437</ele>
        <time>2015-07-01T09:01:29Z</time>
      </trkpt>
      <trkpt lat="44.68637" lon="5.88569">
        <ele>1439.6</ele>
        <time>2015-07-01T09:01:34Z</time>
      </trkpt>
      <trkpt lat="44.68641" lon="5.88572">
        <ele>1440.9</ele>
        <time>2015-07-01T09:01:39Z</time>
      </trkpt>
      <trkpt lat="44.68647" lon="5.88575">
        <ele>1441.1</ele>
        <time>2015-07-01T09:01:44Z</time>
      </trkpt>
      <trkpt lat="44.68652" lon="5.88578">
        <ele>1443.3</ele>
        <time>2015-07-01T09:01:49Z</time>
      </trkpt>
      <trkpt lat="44.68657" lon="5.88582">
        <ele>1441.9</ele>
        <time>2015-07-01T09:01:54Z</time>
      </trkpt>
      <trkpt lat="44.68662" lon="5.88587">
        <ele>1443.2</ele>
        <time>2015-07-01T09:01:59Z</time>
      </trkpt>
      <trkpt lat="44.68667" lon="5.88591">
        <ele>1444.1</ele>
        <time>2015-07-01T09:02:04Z</time>
      </trkpt>
      <trkpt lat="44.68672" lon="5.88601">
        <ele>1443.2</ele>
        <time>2015-07-01T09:02:11Z</time>
      </trkpt>
      <trkpt lat="44.68675" lon="5.8861">
        <ele>1439.3</ele>
        <time>2015-07-01T09:02:16Z</time>
      </trkpt>
      <trkpt lat="44.6868" lon="5.88616">
        <ele>1437.3</ele>
        <time>2015-07-01T09:02:21Z</time>
      </trkpt>
      <trkpt lat="44.68686" lon="5.88621">
        <ele>1439.5</ele>
        <time>2015-07-01T09:02:26Z</time>
      </trkpt>
      <trkpt lat="44.68688" lon="5.88626">
        <ele>1440</ele>
        <time>2015-07-01T09:02:31Z</time>
      </trkpt>
      <trkpt lat="44.68693" lon="5.8863">
        <ele>1438.2</ele>
        <time>2015-07-01T09:02:36Z</time>
      </trkpt>
      <trkpt lat="44.68696" lon="5.88636">
        <ele>1436.2</ele>
        <time>2015-07-01T09:02:41Z</time>
      </trkpt>
      <trkpt lat="44.68703" lon="5.88641">
        <ele>1440.3</ele>
        <time>2015-07-01T09:02:46Z</time>
      </trkpt>
      <trkpt lat="44.68707" lon="5.88645">
        <ele>1444.7</ele>
        <time>2015-07-01T09:02:51Z</time>
      </trkpt>
      <trkpt lat="44.68713" lon="5.88647">
        <ele>1447</ele>
        <time>2015-07-01T09:02:56Z</time>
      </trkpt>
      <trkpt lat="44.68718" lon="5.88648">
        <ele>1448.7</ele>
        <time>2015-07-01T09:03:01Z</time>
      </trkpt>
      <trkpt lat="44.68723" lon="5.88649">
        <ele>1448.4</ele>
        <time>2015-07-01T09:03:06Z</time>
      </trkpt>
      <trkpt lat="44.68729" lon="5.88652">
        <ele>1450.5</ele>
        <time>2015-07-01T09:03:11Z</time>
      </trkpt>
      <trkpt lat="44.68736" lon="5.88654">
        <ele>1453</ele>
        <time>2015-07-01T09:03:16Z</time>
      </trkpt>
      <trkpt lat="44.68742" lon="5.88656">
        <ele>1453.8</ele>
        <time>2015-07-01T09:03:21Z</time>
      </trkpt>
      <trkpt lat="44.68746" lon="5.88659">
        <ele>1453.7</ele>
        <time>2015-07-01T09:03:26Z</time>
      </trkpt>
      <trkpt lat="44.68752" lon="5.88663">
        <ele>1452.8</ele>
        <time>2015-07-01T09:03:31Z</time>
      </trkpt>
      <trkpt lat="44.68762" lon="5.88671">
        <ele>1449.8</ele>
        <time>2015-07-01T09:03:39Z</time>
      </trkpt>
      <trkpt lat="44.68768" lon="5.88674">
        <ele>1450</ele>
        <time>2015-07-01T09:03:44Z</time>
      </trkpt>
      <trkpt lat="44.68771" lon="5.8868">
        <ele>1451.2</ele>
        <time>2015-07-01T09:03:49Z</time>
      </trkpt>
      <trkpt lat="44.68776" lon="5.88685">
        <ele>1446.7</ele>
        <time>2015-07-01T09:03:54Z</time>
      </trkpt>
      <trkpt lat="44.6878" lon="5.8869">
        <ele>1445.1</ele>
        <time>2015-07-01T09:03:59Z</time>
      </trkpt>
      <trkpt lat="44.68784" lon="5.88697">
        <ele>1444.2</ele>
        <time>2015-07-01T09:04:04Z</time>
      </trkpt>
      <trkpt lat="44.68786" lon="5.88703">
        <ele>1442.1</ele>
        <time>2015-07-01T09:04:09Z</time>
      </trkpt>
      <trkpt lat="44.68789" lon="5.8871">
        <ele>1443.4</ele>
        <time>2015-07-01T09:04:14Z</time>
      </trkpt>
      <trkpt lat="44.68792" lon="5.88716">
        <ele>1443.6</ele>
        <time>2015-07-01T09:04:19Z</time>
      </trkpt>
      <trkpt lat="44.68795" lon="5.88723">
        <ele>1443.2</ele>
        <time>2015-07-01T09:04:24Z</time>
      </trkpt>
      <trkpt lat="44.68801" lon="5.88729">
        <ele>1442.7</ele>
        <time>2015-07-01T09:04:29Z</time>
      </trkpt>
      <trkpt lat="44.68806" lon="5.88735">
        <ele>1444</ele>
        <time>2015-07-01T09:04:34Z</time>
      </trkpt>
      <trkpt lat="44.68812" lon="5.88737">
        <ele>1443.6</ele>
        <time>2015-07-01T09:04:39Z</time>
      </trkpt>
      <trkpt lat="44.68818" lon="5.88739">
        <ele>1442.5</ele>
        <time>2015-07-01T09:04:44Z</time>
      </trkpt>
      <trkpt lat="44.68823" lon="5.88743">
        <ele>1443.1</ele>
        <time>2015-07-01T09:04:49Z</time>
      </trkpt>
      <trkpt lat="44.68828" lon="5.88747">
        <ele>1441.3</ele>
        <time>2015-07-01T09:04:54Z</time>
      </trkpt>
      <trkpt lat="44.68833" lon="5.88751">
        <ele>1441.3</ele>
        <time>2015-07-01T09:04:59Z</time>
      </trkpt>
      <trkpt lat="44.68839" lon="5.88755">
        <ele>1442.9</ele>
        <time>2015-07-01T09:05:04Z</time>
      </trkpt>
      <trkpt lat="44.68845" lon="5.88759">
        <ele>1448.2</ele>
        <time>2015-07-01T09:05:09Z</time>
      </trkpt>
      <trkpt lat="44.68849" lon="5.88768">
        <ele>1450.8</ele>
        <time>2015-07-01T09:05:14Z</time>
      </trkpt>
      <trkpt lat="44.68851" lon="5.88776">
        <ele>1446.6</ele>
        <time>2015-07-01T09:05:19Z</time>
      </trkpt>
      <trkpt lat="44.68854" lon="5.88783">
        <ele>1443</ele>
        <time>2015-07-01T09:05:24Z</time>
      </trkpt>
      <trkpt lat="44.68856" lon="5.88792">
        <ele>1439.2</ele>
        <time>2015-07-01T09:05:29Z</time>
      </trkpt>
      <trkpt lat="44.68858" lon="5.88802">
        <ele>1438.4</ele>
        <time>2015-07-01T09:05:34Z</time>
      </trkpt>
      <trkpt lat="44.6886" lon="5.88812">
        <ele>1439</ele>
        <time>2015-07-01T09:05:39Z</time>
      </trkpt>
      <trkpt lat="44.68862" lon="5.88821">
        <ele>1439.4</ele>
        <time>2015-07-01T09:05:44Z</time>
      </trkpt>
      <trkpt lat="44.68864" lon="5.88831">
        <ele>1440.8</ele>
        <time>2015-07-01T09:05:49Z</time>
      </trkpt>
      <trkpt lat="44.68867" lon="5.88839">
        <ele>1440.1</ele>
        <time>2015-07-01T09:05:54Z</time>
      </trkpt>
      <trkpt lat="44.68871" lon="5.88847">
        <ele>1438.5</ele>
        <time>2015-07-01T09:05:59Z</time>
      </trkpt>
      <trkpt lat="44.68874" lon="5.88855">
        <ele>1437.4</ele>
        <time>2015-07-01T09:06:04Z</time>
      </trkpt>
      <trkpt lat="44.68879" lon="5.88862">
        <ele>1435.3</ele>
        <time>2015-07-01T09:06:09Z</time>
      </trkpt>
      <trkpt lat="44.68883" lon="5.88869">
        <ele>1432.7</ele>
        <time>2015-07-01T09:06:14Z</time>
      </trkpt>
      <trkpt lat="44.68887" lon="5.88876">
        <ele>1427.3</ele>
        <time>2015-07-01T09:06:19Z</time>
      </trkpt>
      <trkpt lat="44.68892" lon="5.88883">
        <ele>1427.5</ele>
        <time>2015-07-01T09:06:24Z</time>
      </trkpt>
      <trkpt lat="44.68897" lon="5.88889">
        <ele>1428.8</ele>
        <time>2015-07-01T09:06:29Z</time>
      </trkpt>
      <trkpt lat="44.68902" lon="5.88894">
        <ele>1428.3</ele>
        <time>2015-07-01T09:06:34Z</time>
      </trkpt>
      <trkpt lat="44.68907" lon="5.889">
        <ele>1425.3</ele>
        <time>2015-07-01T09:06:39Z</time>
      </trkpt>
      <trkpt lat="44.68913" lon="5.88905">
        <ele>1427</ele>
        <time>2015-07-01T09:06:44Z</time>
      </trkpt>
      <trkpt lat="44.68918" lon="5.88911">
        <ele>1427.4</ele>
        <time>2015-07-01T09:06:49Z</time>
      </trkpt>
      <trkpt lat="44.68925" lon="5.88914">
        <ele>1434.2</ele>
        <time>2015-07-01T09:06:54Z</time>
      </trkpt>
      <trkpt lat="44.68931" lon="5.8892">
        <ele>1435</ele>
        <time>2015-07-01T09:06:59Z</time>
      </trkpt>
      <trkpt lat="44.68934" lon="5.88927">
        <ele>1431.8</ele>
        <time>2015-07-01T09:07:04Z</time>
      </trkpt>
      <trkpt lat="44.68939" lon="5.88934">
        <ele>1433.1</ele>
        <time>2015-07-01T09:07:09Z</time>
      </trkpt>
      <trkpt lat="44.68942" lon="5.88941">
        <ele>1433.8</ele>
        <time>2015-07-01T09:07:14Z</time>
      </trkpt>
      <trkpt lat="44.68947" lon="5.88948">
        <ele>1432.7</ele>
        <time>2015-07-01T09:07:19Z</time>
      </trkpt>
      <trkpt lat="44.6895" lon="5.88956">
        <ele>1432.6</ele>
        <time>2015-07-01T09:07:24Z</time>
      </trkpt>
      <trkpt lat="44.68952" lon="5.88962">
        <ele>1429.6</ele>
        <time>2015-07-01T09:07:29Z</time>
      </trkpt>
      <trkpt lat="44.68953" lon="5.88972">
        <ele>1426.3</ele>
        <time>2015-07-01T09:07:34Z</time>
      </trkpt>
      <trkpt lat="44.68953" lon="5.88983">
        <ele>1420.1</ele>
        <time>2015-07-01T09:07:39Z</time>
      </trkpt>
      <trkpt lat="44.68954" lon="5.88993">
        <ele>1421.1</ele>
        <time>2015-07-01T09:07:44Z</time>
      </trkpt>
      <trkpt lat="44.68957" lon="5.89002">
        <ele>1424</ele>
        <time>2015-07-01T09:07:49Z</time>
      </trkpt>
      <trkpt lat="44.6896" lon="5.8901">
        <ele>1427.8</ele>
        <time>2015-07-01T09:07:54Z</time>
      </trkpt>
      <trkpt lat="44.68963" lon="5.89018">
        <ele>1429.2</ele>
        <time>2015-07-01T09:07:59Z</time>
      </trkpt>
      <trkpt lat="44.68965" lon="5.89027">
        <ele>1429.7</ele>
        <time>2015-07-01T09:08:04Z</time>
      </trkpt>
      <trkpt lat="44.68968" lon="5.89035">
        <ele>1429</ele>
        <time>2015-07-01T09:08:09Z</time>
      </trkpt>
      <trkpt lat="44.68972" lon="5.89043">
        <ele>1429.8</ele>
        <time>2015-07-01T09:08:14Z</time>
      </trkpt>
      <trkpt lat="44.68977" lon="5.89049">
        <ele>1431.8</ele>
        <time>2015-07-01T09:08:19Z</time>
      </trkpt>
      <trkpt lat="44.68982" lon="5.89057">
        <ele>1429.5</ele>
        <time>2015-07-01T09:08:24Z</time>
      </trkpt>
      <trkpt lat="44.68985" lon="5.89063">
        <ele>1432</ele>
        <time>2015-07-01T09:08:29Z</time>
      </trkpt>
      <trkpt lat="44.6899" lon="5.8907">
        <ele>1434.8</ele>
        <time>2015-07-01T09:08:34Z</time>
      </trkpt>
      <trkpt lat="44.68993" lon="5.89077">
        <ele>1436.4</ele>
        <time>2015-07-01T09:08:39Z</time>
      </trkpt>
      <trkpt lat="44.68997" lon="5.89084">
        <ele>1434</ele>
        <time>2015-07-01T09:08:44Z</time>
      </trkpt>
      <trkpt lat="44.69" lon="5.8909">
        <ele>1432.3</ele>
        <time>2015-07-01T09:08:49Z</time>
      </trkpt>
      <trkpt lat="44.69" lon="5.891">
        <ele>1432.4</ele>
        <time>2015-07-01T09:08:54Z</time>
      </trkpt>
      <trkpt lat="44.69" lon="5.89109">
        <ele>1435</ele>
        <time>2015-07-01T09:08:59Z</time>
      </trkpt>
      <trkpt lat="44.69" lon="5.89117">
        <ele>1436.8</ele>
        <time>2015-07-01T09:09:04Z</time>
      </trkpt>
      <trkpt lat="44.69002" lon="5.89125">
        <ele>1437.6</ele>
        <time>2015-07-01T09:09:09Z</time>
      </trkpt>
      <trkpt lat="44.69003" lon="5.89135">
        <ele>1436.7</ele>
        <time>2015-07-01T09:09:14Z</time>
      </trkpt>
      <trkpt lat="44.69004" lon="5.89143">
        <ele>1437.5</ele>
        <time>2015-07-01T09:09:19Z</time>
      </trkpt>
      <trkpt lat="44.69006" lon="5.89151">
        <ele>1436.8</ele>
        <time>2015-07-01T09:09:24Z</time>
      </trkpt>
      <trkpt lat="44.69009" lon="5.89158">
        <ele>1438.2</ele>
        <time>2015-07-01T09:09:29Z</time>
      </trkpt>
      <trkpt lat="44.69012" lon="5.89165">
        <ele>1439.8</ele>
        <time>2015-07-01T09:09:34Z</time>
      </trkpt>
      <trkpt lat="44.69016" lon="5.8917">
        <ele>1439</ele>
        <time>2015-07-01T09:09:39Z</time>
      </trkpt>
      <trkpt lat="44.69021" lon="5.89175">
        <ele>1440.4</ele>
        <time>2015-07-01T09:09:44Z</time>
      </trkpt>
      <trkpt lat="44.69026" lon="5.89179">
        <ele>1443.5</ele>
        <time>2015-07-01T09:09:49Z</time>
      </trkpt>
      <trkpt lat="44.69029" lon="5.89186">
        <ele>1445.2</ele>
        <time>2015-07-01T09:09:54Z</time>
      </trkpt>
      <trkpt lat="44.69032" lon="5.89193">
        <ele>1444.5</ele>
        <time>2015-07-01T09:09:59Z</time>
      </trkpt>
      <trkpt lat="44.69037" lon="5.89199">
        <ele>1444.2</ele>
        <time>2015-07-01T09:10:04Z</time>
      </trkpt>
      <trkpt lat="44.69041" lon="5.89205">
        <ele>1442.2</ele>
        <time>2015-07-01T09:10:09Z</time>
      </trkpt>
      <trkpt lat="44.69045" lon="5.89211">
        <ele>1443.1</ele>
        <time>2015-07-01T09:10:14Z</time>
      </trkpt>
      <trkpt lat="44.69048" lon="5.89218">
        <ele>1443.5</ele>
        <time>2015-07-01T09:10:19Z</time>
      </trkpt>
      <trkpt lat="44.69052" lon="5.89224">
        <ele>1444.8</ele>
        <time>2015-07-01T09:10:24Z</time>
      </trkpt>
      <trkpt lat="44.69056" lon="5.89229">
        <ele>1446.1</ele>
        <time>2015-07-01T09:10:29Z</time>
      </trkpt>
      <trkpt lat="44.69059" lon="5.89236">
        <ele>1443.4</ele>
        <time>2015-07-01T09:10:34Z</time>
      </trkpt>
      <trkpt lat="44.69063" lon="5.89243">
        <ele>1442.8</ele>
        <time>2015-07-01T09:10:39Z</time>
      </trkpt>
      <trkpt lat="44.69067" lon="5.89249">
        <ele>1442.1</ele>
        <time>2015-07-01T09:10:44Z</time>
      </trkpt>
      <trkpt lat="44.69071" lon="5.89256">
        <ele>1441</ele>
        <time>2015-07-01T09:10:49Z</time>
      </trkpt>
      <trkpt lat="44.69074" lon="5.89262">
        <ele>1442.7</ele>
        <time>2015-07-01T09:10:54Z</time>
      </trkpt>
      <trkpt lat="44.69077" lon="5.89269">
        <ele>1445.7</ele>
        <time>2015-07-01T09:10:59Z</time>
      </trkpt>
      <trkpt lat="44.6908" lon="5.89275">
        <ele>1446.9</ele>
        <time>2015-07-01T09:11:04Z</time>
      </trkpt>
      <trkpt lat="44.69083" lon="5.89281">
        <ele>1446.7</ele>
        <time>2015-07-01T09:11:09Z</time>
      </trkpt>
      <trkpt lat="44.69086" lon="5.8929">
        <ele>1446.9</ele>
        <time>2015-07-01T09:11:14Z</time>
      </trkpt>
      <trkpt lat="44.69088" lon="5.89298">
        <ele>1446.3</ele>
        <time>2015-07-01T09:11:19Z</time>
      </trkpt>
      <trkpt lat="44.6909" lon="5.89305">
        <ele>1447.5</ele>
        <time>2015-07-01T09:11:24Z</time>
      </trkpt>
      <trkpt lat="44.69092" lon="5.89312">
        <ele>1447.5</ele>
        <time>2015-07-01T09:11:29Z</time>
      </trkpt>
      <trkpt lat="44.69094" lon="5.8932">
        <ele>1447.1</ele>
        <time>2015-07-01T09:11:34Z</time>
      </trkpt>
      <trkpt lat="44.69096" lon="5.89328">
        <ele>1446.8</ele>
        <time>2015-07-01T09:11:39Z</time>
      </trkpt>
      <trkpt lat="44.69098" lon="5.89337">
        <ele>1446.8</ele>
        <time>2015-07-01T09:11:44Z</time>
      </trkpt>
      <trkpt lat="44.69101" lon="5.89345">
        <ele>1447.7</ele>
        <time>2015-07-01T09:11:49Z</time>
      </trkpt>
      <trkpt lat="44.69103" lon="5.89352">
        <ele>1448.8</ele>
        <time>2015-07-01T09:11:54Z</time>
      </trkpt>
      <trkpt lat="44.69105" lon="5.8936">
        <ele>1449.8</ele>
        <time>2015-07-01T09:11:59Z</time>
      </trkpt>
      <trkpt lat="44.69107" lon="5.89367">
        <ele>1450.6</ele>
        <time>2015-07-01T09:12:04Z</time>
      </trkpt>
      <trkpt lat="44.69109" lon="5.89375">
        <ele>1449.8</ele>
        <time>2015-07-01T09:12:09Z</time>
      </trkpt>
      <trkpt lat="44.69112" lon="5.89383">
        <ele>1450.6</ele>
        <time>2015-07-01T09:12:14Z</time>
      </trkpt>
      <trkpt lat="44.69114" lon="5.89389">
        <ele>1451.9</ele>
        <time>2015-07-01T09:12:19Z</time>
      </trkpt>
      <trkpt lat="44.69116" lon="5.89398">
        <ele>1451.9</ele>
        <time>2015-07-01T09:12:24Z</time>
      </trkpt>
      <trkpt lat="44.69117" lon="5.89406">
        <ele>1451.5</ele>
        <time>2015-07-01T09:12:29Z</time>
      </trkpt>
      <trkpt lat="44.6912" lon="5.89415">
        <ele>1453.9</ele>
        <time>2015-07-01T09:12:34Z</time>
      </trkpt>
      <trkpt lat="44.69121" lon="5.89422">
        <ele>1457</ele>
        <time>2015-07-01T09:12:39Z</time>
      </trkpt>
      <trkpt lat="44.69121" lon="5.89423">
        <ele>1458.5</ele>
        <time>2015-07-01T09:12:44Z</time>
      </trkpt>
      <trkpt lat="44.69124" lon="5.89429">
        <ele>1459.7</ele>
        <time>2015-07-01T09:12:49Z</time>
      </trkpt>
      <trkpt lat="44.69129" lon="5.89436">
        <ele>1459.8</ele>
        <time>2015-07-01T09:12:54Z</time>
      </trkpt>
      <trkpt lat="44.69133" lon="5.89439">
        <ele>1458.8</ele>
        <time>2015-07-01T09:12:59Z</time>
      </trkpt>
      <trkpt lat="44.69137" lon="5.89441">
        <ele>1459.2</ele>
        <time>2015-07-01T09:13:04Z</time>
      </trkpt>
      <trkpt lat="44.69146" lon="5.89446">
        <ele>1455.6</ele>
        <time>2015-07-01T09:13:09Z</time>
      </trkpt>
      <trkpt lat="44.69151" lon="5.8945">
        <ele>1452.8</ele>
        <time>2015-07-01T09:13:14Z</time>
      </trkpt>
      <trkpt lat="44.69156" lon="5.89452">
        <ele>1449.9</ele>
        <time>2015-07-01T09:13:19Z</time>
      </trkpt>
      <trkpt lat="44.69162" lon="5.8945">
        <ele>1451</ele>
        <time>2015-07-01T09:13:24Z</time>
      </trkpt>
      <trkpt lat="44.69169" lon="5.89449">
        <ele>1447.9</ele>
        <time>2015-07-01T09:13:29Z</time>
      </trkpt>
      <trkpt lat="44.69176" lon="5.89448">
        <ele>1449.7</ele>
        <time>2015-07-01T09:13:34Z</time>
      </trkpt>
      <trkpt lat="44.69182" lon="5.89447">
        <ele>1453.3</ele>
        <time>2015-07-01T09:13:39Z</time>
      </trkpt>
      <trkpt lat="44.69188" lon="5.89444">
        <ele>1459.1</ele>
        <time>2015-07-01T09:13:44Z</time>
      </trkpt>
      <trkpt lat="44.69192" lon="5.89447">
        <ele>1455.9</ele>
        <time>2015-07-01T09:13:49Z</time>
      </trkpt>
      <trkpt lat="44.69195" lon="5.89452">
        <ele>1458.7</ele>
        <time>2015-07-01T09:13:54Z</time>
      </trkpt>
      <trkpt lat="44.69198" lon="5.89459">
        <ele>1459</ele>
        <time>2015-07-01T09:13:59Z</time>
      </trkpt>
      <trkpt lat="44.69201" lon="5.89466">
        <ele>1460</ele>
        <time>2015-07-01T09:14:04Z</time>
      </trkpt>
      <trkpt lat="44.69204" lon="5.89472">
        <ele>1459.1</ele>
        <time>2015-07-01T09:14:09Z</time>
      </trkpt>
      <trkpt lat="44.69206" lon="5.89477">
        <ele>1460.8</ele>
        <time>2015-07-01T09:14:14Z</time>
      </trkpt>
      <trkpt lat="44.69215" lon="5.89481">
        <ele>1460.3</ele>
        <time>2015-07-01T09:14:21Z</time>
      </trkpt>
      <trkpt lat="44.69221" lon="5.89485">
        <ele>1458.7</ele>
        <time>2015-07-01T09:14:26Z</time>
      </trkpt>
      <trkpt lat="44.69226" lon="5.89488">
        <ele>1460.3</ele>
        <time>2015-07-01T09:14:31Z</time>
      </trkpt>
      <trkpt lat="44.69231" lon="5.89495">
        <ele>1461.6</ele>
        <time>2015-07-01T09:14:36Z</time>
      </trkpt>
      <trkpt lat="44.69236" lon="5.895">
        <ele>1461.9</ele>
        <time>2015-07-01T09:14:41Z</time>
      </trkpt>
      <trkpt lat="44.6924" lon="5.89505">
        <ele>1460.7</ele>
        <time>2015-07-01T09:14:46Z</time>
      </trkpt>
      <trkpt lat="44.69243" lon="5.89511">
        <ele>1461.3</ele>
        <time>2015-07-01T09:14:51Z</time>
      </trkpt>
      <trkpt lat="44.69244" lon="5.89519">
        <ele>1459.8</ele>
        <time>2015-07-01T09:14:56Z</time>
      </trkpt>
      <trkpt lat="44.69246" lon="5.89526">
        <ele>1460.6</ele>
        <time>2015-07-01T09:15:01Z</time>
      </trkpt>
      <trkpt lat="44.69246" lon="5.89534">
        <ele>1460.2</ele>
        <time>2015-07-01T09:15:06Z</time>
      </trkpt>
      <trkpt lat="44.69248" lon="5.89541">
        <ele>1460.2</ele>
        <time>2015-07-01T09:15:11Z</time>
      </trkpt>
      <trkpt lat="44.69249" lon="5.89546">
        <ele>1458.4</ele>
        <time>2015-07-01T09:15:16Z</time>
      </trkpt>
      <trkpt lat="44.69252" lon="5.8955">
        <ele>1462.3</ele>
        <time>2015-07-01T09:15:21Z</time>
      </trkpt>
      <trkpt lat="44.69253" lon="5.89557">
        <ele>1465.5</ele>
        <time>2015-07-01T09:15:26Z</time>
      </trkpt>
      <trkpt lat="44.69253" lon="5.89564">
        <ele>1462.5</ele>
        <time>2015-07-01T09:15:31Z</time>
      </trkpt>
      <trkpt lat="44.69255" lon="5.8957">
        <ele>1461.9</ele>
        <time>2015-07-01T09:15:36Z</time>
      </trkpt>
      <trkpt lat="44.69258" lon="5.89578">
        <ele>1458.2</ele>
        <time>2015-07-01T09:15:41Z</time>
      </trkpt>
      <trkpt lat="44.69265" lon="5.89581">
        <ele>1461.1</ele>
        <time>2015-07-01T09:15:46Z</time>
      </trkpt>
      <trkpt lat="44.69266" lon="5.89591">
        <ele>1459.3</ele>
        <time>2015-07-01T09:15:51Z</time>
      </trkpt>
      <trkpt lat="44.69267" lon="5.89598">
        <ele>1460.1</ele>
        <time>2015-07-01T09:15:56Z</time>
      </trkpt>
      <trkpt lat="44.69269" lon="5.89601">
        <ele>1460.3</ele>
        <time>2015-07-01T09:16:01Z</time>
      </trkpt>
      <trkpt lat="44.69269" lon="5.89598">
        <ele>1459.1</ele>
        <time>2015-07-01T09:16:06Z</time>
      </trkpt>
      <trkpt lat="44.69268" lon="5.89599">
        <ele>1460.9</ele>
        <time>2015-07-01T09:16:11Z</time>
      </trkpt>
      <trkpt lat="44.69267" lon="5.89605">
        <ele>1462.3</ele>
        <time>2015-07-01T09:16:16Z</time>
      </trkpt>
      <trkpt lat="44.69263" lon="5.8961">
        <ele>1466.9</ele>
        <time>2015-07-01T09:16:21Z</time>
      </trkpt>
      <trkpt lat="44.69258" lon="5.89617">
        <ele>1468.5</ele>
        <time>2015-07-01T09:16:26Z</time>
      </trkpt>
      <trkpt lat="44.69256" lon="5.89622">
        <ele>1468.1</ele>
        <time>2015-07-01T09:16:31Z</time>
      </trkpt>
      <trkpt lat="44.69252" lon="5.89629">
        <ele>1465.9</ele>
        <time>2015-07-01T09:16:36Z</time>
      </trkpt>
      <trkpt lat="44.69254" lon="5.89639">
        <ele>1466</ele>
        <time>2015-07-01T09:16:41Z</time>
      </trkpt>
      <trkpt lat="44.69257" lon="5.89648">
        <ele>1464.3</ele>
        <time>2015-07-01T09:16:46Z</time>
      </trkpt>
      <trkpt lat="44.69262" lon="5.89659">
        <ele>1459.6</ele>
        <time>2015-07-01T09:16:53Z</time>
      </trkpt>
      <trkpt lat="44.69266" lon="5.89667">
        <ele>1455.6</ele>
        <time>2015-07-01T09:16:58Z</time>
      </trkpt>
      <trkpt lat="44.69267" lon="5.89676">
        <ele>1450.4</ele>
        <time>2015-07-01T09:17:03Z</time>
      </trkpt>
      <trkpt lat="44.6927" lon="5.89688">
        <ele>1442.7</ele>
        <time>2015-07-01T09:17:10Z</time>
      </trkpt>
      <trkpt lat="44.69269" lon="5.89699">
        <ele>1447.7</ele>
        <time>2015-07-01T09:17:17Z</time>
      </trkpt>
      <trkpt lat="44.69266" lon="5.89706">
        <ele>1450.8</ele>
        <time>2015-07-01T09:17:22Z</time>
      </trkpt>
      <trkpt lat="44.69263" lon="5.89715">
        <ele>1454.9</ele>
        <time>2015-07-01T09:17:27Z</time>
      </trkpt>
      <trkpt lat="44.69259" lon="5.8972">
        <ele>1461.2</ele>
        <time>2015-07-01T09:17:32Z</time>
      </trkpt>
      <trkpt lat="44.69257" lon="5.89728">
        <ele>1462.2</ele>
        <time>2015-07-01T09:17:37Z</time>
      </trkpt>
      <trkpt lat="44.69254" lon="5.89735">
        <ele>1465</ele>
        <time>2015-07-01T09:17:42Z</time>
      </trkpt>
      <trkpt lat="44.69256" lon="5.89745">
        <ele>1470.5</ele>
        <time>2015-07-01T09:17:47Z</time>
      </trkpt>
      <trkpt lat="44.69259" lon="5.89754">
        <ele>1473.7</ele>
        <time>2015-07-01T09:17:52Z</time>
      </trkpt>
      <trkpt lat="44.69262" lon="5.89762">
        <ele>1474.1</ele>
        <time>2015-07-01T09:17:57Z</time>
      </trkpt>
      <trkpt lat="44.69267" lon="5.89773">
        <ele>1471.5</ele>
        <time>2015-07-01T09:18:02Z</time>
      </trkpt>
      <trkpt lat="44.69271" lon="5.89786">
        <ele>1468.1</ele>
        <time>2015-07-01T09:18:07Z</time>
      </trkpt>
      <trkpt lat="44.69277" lon="5.898">
        <ele>1456.7</ele>
        <time>2015-07-01T09:18:12Z</time>
      </trkpt>
      <trkpt lat="44.69278" lon="5.89811">
        <ele>1452.4</ele>
        <time>2015-07-01T09:18:17Z</time>
      </trkpt>
      <trkpt lat="44.6928" lon="5.89822">
        <ele>1449.5</ele>
        <time>2015-07-01T09:18:22Z</time>
      </trkpt>
      <trkpt lat="44.69279" lon="5.89831">
        <ele>1448.4</ele>
        <time>2015-07-01T09:18:27Z</time>
      </trkpt>
      <trkpt lat="44.69278" lon="5.89841">
        <ele>1447.6</ele>
        <time>2015-07-01T09:18:32Z</time>
      </trkpt>
      <trkpt lat="44.69278" lon="5.8985">
        <ele>1446.1</ele>
        <time>2015-07-01T09:18:37Z</time>
      </trkpt>
      <trkpt lat="44.69277" lon="5.89859">
        <ele>1447.3</ele>
        <time>2015-07-01T09:18:42Z</time>
      </trkpt>
      <trkpt lat="44.69277" lon="5.89868">
        <ele>1448.8</ele>
        <time>2015-07-01T09:18:47Z</time>
      </trkpt>
      <trkpt lat="44.69277" lon="5.89875">
        <ele>1448</ele>
        <time>2015-07-01T09:18:52Z</time>
      </trkpt>
      <trkpt lat="44.69278" lon="5.89883">
        <ele>1447.8</ele>
        <time>2015-07-01T09:18:57Z</time>
      </trkpt>
      <trkpt lat="44.69279" lon="5.89892">
        <ele>1448.4</ele>
        <time>2015-07-01T09:19:02Z</time>
      </trkpt>
      <trkpt lat="44.6928" lon="5.899">
        <ele>1449.7</ele>
        <time>2015-07-01T09:19:07Z</time>
      </trkpt>
      <trkpt lat="44.6928" lon="5.89909">
        <ele>1450.1</ele>
        <time>2015-07-01T09:19:12Z</time>
      </trkpt>
      <trkpt lat="44.69283" lon="5.89917">
        <ele>1451.8</ele>
        <time>2015-07-01T09:19:17Z</time>
      </trkpt>
      <trkpt lat="44.69284" lon="5.89927">
        <ele>1450</ele>
        <time>2015-07-01T09:19:22Z</time>
      </trkpt>
      <trkpt lat="44.69285" lon="5.89937">
        <ele>1450.5</ele>
        <time>2015-07-01T09:19:27Z</time>
      </trkpt>
      <trkpt lat="44.69286" lon="5.89947">
        <ele>1447.9</ele>
        <time>2015-07-01T09:19:32Z</time>
      </trkpt>
      <trkpt lat="44.69286" lon="5.89957">
        <ele>1448.2</ele>
        <time>2015-07-01T09:19:37Z</time>
      </trkpt>
      <trkpt lat="44.69286" lon="5.89965">
        <ele>1449.3</ele>
        <time>2015-07-01T09:19:42Z</time>
      </trkpt>
      <trkpt lat="44.69285" lon="5.89971">
        <ele>1449.4</ele>
        <time>2015-07-01T09:19:47Z</time>
      </trkpt>
      <trkpt lat="44.69281" lon="5.89974">
        <ele>1450</ele>
        <time>2015-07-01T09:19:52Z</time>
      </trkpt>
      <trkpt lat="44.69277" lon="5.8998">
        <ele>1450.1</ele>
        <time>2015-07-01T09:19:57Z</time>
      </trkpt>
      <trkpt lat="44.69273" lon="5.89987">
        <ele>1449.8</ele>
        <time>2015-07-01T09:20:02Z</time>
      </trkpt>
      <trkpt lat="44.69271" lon="5.89992">
        <ele>1450.4</ele>
        <time>2015-07-01T09:20:07Z</time>
      </trkpt>
      <trkpt lat="44.69268" lon="5.9">
        <ele>1449.5</ele>
        <time>2015-07-01T09:20:12Z</time>
      </trkpt>
      <trkpt lat="44.69267" lon="5.9001">
        <ele>1448.8</ele>
        <time>2015-07-01T09:20:17Z</time>
      </trkpt>
      <trkpt lat="44.69265" lon="5.9002">
        <ele>1447.1</ele>
        <time>2015-07-01T09:20:22Z</time>
      </trkpt>
      <trkpt lat="44.69264" lon="5.9003">
        <ele>1445.9</ele>
        <time>2015-07-01T09:20:27Z</time>
      </trkpt>
      <trkpt lat="44.69262" lon="5.90039">
        <ele>1445.4</ele>
        <time>2015-07-01T09:20:32Z</time>
      </trkpt>
      <trkpt lat="44.69262" lon="5.90048">
        <ele>1442.6</ele>
        <time>2015-07-01T09:20:37Z</time>
      </trkpt>
      <trkpt lat="44.69259" lon="5.90057">
        <ele>1440.8</ele>
        <time>2015-07-01T09:20:42Z</time>
      </trkpt>
      <trkpt lat="44.69257" lon="5.90065">
        <ele>1441.6</ele>
        <time>2015-07-01T09:20:47Z</time>
      </trkpt>
      <trkpt lat="44.69257" lon="5.90074">
        <ele>1440.7</ele>
        <time>2015-07-01T09:20:52Z</time>
      </trkpt>
      <trkpt lat="44.69256" lon="5.90082">
        <ele>1441.9</ele>
        <time>2015-07-01T09:20:57Z</time>
      </trkpt>
      <trkpt lat="44.69257" lon="5.90089">
        <ele>1442.5</ele>
        <time>2015-07-01T09:21:02Z</time>
      </trkpt>
      <trkpt lat="44.69257" lon="5.90098">
        <ele>1441</ele>
        <time>2015-07-01T09:21:07Z</time>
      </trkpt>
      <trkpt lat="44.69257" lon="5.90107">
        <ele>1441.2</ele>
        <time>2015-07-01T09:21:12Z</time>
      </trkpt>
      <trkpt lat="44.69257" lon="5.90116">
        <ele>1442.7</ele>
        <time>2015-07-01T09:21:17Z</time>
      </trkpt>
      <trkpt lat="44.69257" lon="5.90124">
        <ele>1443</ele>
        <time>2015-07-01T09:21:22Z</time>
      </trkpt>
      <trkpt lat="44.6926" lon="5.90132">
        <ele>1444.1</ele>
        <time>2015-07-01T09:21:27Z</time>
      </trkpt>
      <trkpt lat="44.69264" lon="5.90138">
        <ele>1446.6</ele>
        <time>2015-07-01T09:21:32Z</time>
      </trkpt>
      <trkpt lat="44.69269" lon="5.90145">
        <ele>1445</ele>
        <time>2015-07-01T09:21:37Z</time>
      </trkpt>
      <trkpt lat="44.69273" lon="5.9015">
        <ele>1446.4</ele>
        <time>2015-07-01T09:21:42Z</time>
      </trkpt>
      <trkpt lat="44.69277" lon="5.90157">
        <ele>1445.9</ele>
        <time>2015-07-01T09:21:47Z</time>
      </trkpt>
      <trkpt lat="44.6928" lon="5.90164">
        <ele>1443.6</ele>
        <time>2015-07-01T09:21:52Z</time>
      </trkpt>
      <trkpt lat="44.69283" lon="5.90171">
        <ele>1445.2</ele>
        <time>2015-07-01T09:21:57Z</time>
      </trkpt>
      <trkpt lat="44.69283" lon="5.90179">
        <ele>1444</ele>
        <time>2015-07-01T09:22:02Z</time>
      </trkpt>
      <trkpt lat="44.69284" lon="5.90184">
        <ele>1450.9</ele>
        <time>2015-07-01T09:22:07Z</time>
      </trkpt>
      <trkpt lat="44.69283" lon="5.90186">
        <ele>1454.7</ele>
        <time>2015-07-01T09:22:12Z</time>
      </trkpt>
      <trkpt lat="44.69284" lon="5.90196">
        <ele>1454.1</ele>
        <time>2015-07-01T09:22:17Z</time>
      </trkpt>
      <trkpt lat="44.69284" lon="5.90204">
        <ele>1455.3</ele>
        <time>2015-07-01T09:22:22Z</time>
      </trkpt>
      <trkpt lat="44.69283" lon="5.90212">
        <ele>1453.3</ele>
        <time>2015-07-01T09:22:27Z</time>
      </trkpt>
      <trkpt lat="44.69284" lon="5.9022">
        <ele>1454.2</ele>
        <time>2015-07-01T09:22:32Z</time>
      </trkpt>
      <trkpt lat="44.69286" lon="5.90227">
        <ele>1455.8</ele>
        <time>2015-07-01T09:22:37Z</time>
      </trkpt>
      <trkpt lat="44.69285" lon="5.90235">
        <ele>1456.7</ele>
        <time>2015-07-01T09:22:42Z</time>
      </trkpt>
      <trkpt lat="44.69284" lon="5.90243">
        <ele>1457</ele>
        <time>2015-07-01T09:22:47Z</time>
      </trkpt>
      <trkpt lat="44.69284" lon="5.9025">
        <ele>1457.8</ele>
        <time>2015-07-01T09:22:52Z</time>
      </trkpt>
      <trkpt lat="44.69285" lon="5.90259">
        <ele>1458</ele>
        <time>2015-07-01T09:22:57Z</time>
      </trkpt>
      <trkpt lat="44.69285" lon="5.90266">
        <ele>1458</ele>
        <time>2015-07-01T09:23:02Z</time>
      </trkpt>
      <trkpt lat="44.69285" lon="5.90274">
        <ele>1458.8</ele>
        <time>2015-07-01T09:23:07Z</time>
      </trkpt>
      <trkpt lat="44.69286" lon="5.90283">
        <ele>1459.4</ele>
        <time>2015-07-01T09:23:12Z</time>
      </trkpt>
      <trkpt lat="44.69288" lon="5.90291">
        <ele>1459.8</ele>
        <time>2015-07-01T09:23:17Z</time>
      </trkpt>
      <trkpt lat="44.69289" lon="5.90299">
        <ele>1460</ele>
        <time>2015-07-01T09:23:22Z</time>
      </trkpt>
      <trkpt lat="44.6929" lon="5.90307">
        <ele>1460.3</ele>
        <time>2015-07-01T09:23:27Z</time>
      </trkpt>
      <trkpt lat="44.69292" lon="5.90315">
        <ele>1461.6</ele>
        <time>2015-07-01T09:23:32Z</time>
      </trkpt>
      <trkpt lat="44.69293" lon="5.90324">
        <ele>1460.3</ele>
        <time>2015-07-01T09:23:37Z</time>
      </trkpt>
      <trkpt lat="44.69296" lon="5.90331">
        <ele>1459.9</ele>
        <time>2015-07-01T09:23:42Z</time>
      </trkpt>
      <trkpt lat="44.693" lon="5.90338">
        <ele>1459.3</ele>
        <time>2015-07-01T09:23:47Z</time>
      </trkpt>
      <trkpt lat="44.69303" lon="5.90345">
        <ele>1458.1</ele>
        <time>2015-07-01T09:23:52Z</time>
      </trkpt>
      <trkpt lat="44.69306" lon="5.9035">
        <ele>1458.8</ele>
        <time>2015-07-01T09:23:57Z</time>
      </trkpt>
      <trkpt lat="44.6931" lon="5.90357">
        <ele>1457.1</ele>
        <time>2015-07-01T09:24:02Z</time>
      </trkpt>
      <trkpt lat="44.69315" lon="5.90361">
        <ele>1459.7</ele>
        <time>2015-07-01T09:24:07Z</time>
      </trkpt>
      <trkpt lat="44.6932" lon="5.90364">
        <ele>1462</ele>
        <time>2015-07-01T09:24:12Z</time>
      </trkpt>
      <trkpt lat="44.69322" lon="5.90368">
        <ele>1462</ele>
        <time>2015-07-01T09:24:17Z</time>
      </trkpt>
      <trkpt lat="44.69325" lon="5.90375">
        <ele>1461.9</ele>
        <time>2015-07-01T09:24:22Z</time>
      </trkpt>
      <trkpt lat="44.69325" lon="5.90383">
        <ele>1463.2</ele>
        <time>2015-07-01T09:24:27Z</time>
      </trkpt>
      <trkpt lat="44.69327" lon="5.90389">
        <ele>1463.3</ele>
        <time>2015-07-01T09:24:32Z</time>
      </trkpt>
      <trkpt lat="44.6933" lon="5.90395">
        <ele>1466.1</ele>
        <time>2015-07-01T09:24:37Z</time>
      </trkpt>
      <trkpt lat="44.69333" lon="5.90402">
        <ele>1468.9</ele>
        <time>2015-07-01T09:24:42Z</time>
      </trkpt>
      <trkpt lat="44.69336" lon="5.90407">
        <ele>1468.7</ele>
        <time>2015-07-01T09:24:47Z</time>
      </trkpt>
      <trkpt lat="44.69338" lon="5.90414">
        <ele>1467.7</ele>
        <time>2015-07-01T09:24:52Z</time>
      </trkpt>
      <trkpt lat="44.69339" lon="5.90421">
        <ele>1467.7</ele>
        <time>2015-07-01T09:24:57Z</time>
      </trkpt>
      <trkpt lat="44.6934" lon="5.90428">
        <ele>1469</ele>
        <time>2015-07-01T09:25:02Z</time>
      </trkpt>
      <trkpt lat="44.6934" lon="5.90434">
        <ele>1472.5</ele>
        <time>2015-07-01T09:25:07Z</time>
      </trkpt>
      <trkpt lat="44.69335" lon="5.90436">
        <ele>1476</ele>
        <time>2015-07-01T09:25:12Z</time>
      </trkpt>
      <trkpt lat="44.6933" lon="5.90437">
        <ele>1478.2</ele>
        <time>2015-07-01T09:25:17Z</time>
      </trkpt>
      <trkpt lat="44.69325" lon="5.90435">
        <ele>1479.6</ele>
        <time>2015-07-01T09:25:22Z</time>
      </trkpt>
      <trkpt lat="44.6932" lon="5.90435">
        <ele>1480.8</ele>
        <time>2015-07-01T09:25:27Z</time>
      </trkpt>
      <trkpt lat="44.69315" lon="5.90436">
        <ele>1481.7</ele>
        <time>2015-07-01T09:25:32Z</time>
      </trkpt>
      <trkpt lat="44.6931" lon="5.90436">
        <ele>1483.2</ele>
        <time>2015-07-01T09:25:37Z</time>
      </trkpt>
      <trkpt lat="44.69305" lon="5.90435">
        <ele>1485.1</ele>
        <time>2015-07-01T09:25:42Z</time>
      </trkpt>
      <trkpt lat="44.693" lon="5.90433">
        <ele>1485.7</ele>
        <time>2015-07-01T09:25:47Z</time>
      </trkpt>
      <trkpt lat="44.69294" lon="5.90431">
        <ele>1485.2</ele>
        <time>2015-07-01T09:25:52Z</time>
      </trkpt>
      <trkpt lat="44.69288" lon="5.90431">
        <ele>1485.3</ele>
        <time>2015-07-01T09:25:57Z</time>
      </trkpt>
      <trkpt lat="44.69284" lon="5.9043">
        <ele>1486</ele>
        <time>2015-07-01T09:26:02Z</time>
      </trkpt>
      <trkpt lat="44.69275" lon="5.90428">
        <ele>1485</ele>
        <time>2015-07-01T09:26:09Z</time>
      </trkpt>
      <trkpt lat="44.69271" lon="5.90427">
        <ele>1482.9</ele>
        <time>2015-07-01T09:26:14Z</time>
      </trkpt>
      <trkpt lat="44.69268" lon="5.90426">
        <ele>1483.8</ele>
        <time>2015-07-01T09:26:19Z</time>
      </trkpt>
      <trkpt lat="44.69263" lon="5.90423">
        <ele>1484.4</ele>
        <time>2015-07-01T09:26:24Z</time>
      </trkpt>
      <trkpt lat="44.69254" lon="5.90418">
        <ele>1485.1</ele>
        <time>2015-07-01T09:26:29Z</time>
      </trkpt>
      <trkpt lat="44.69249" lon="5.90416">
        <ele>1485.5</ele>
        <time>2015-07-01T09:26:34Z</time>
      </trkpt>
      <trkpt lat="44.69243" lon="5.90414">
        <ele>1484.8</ele>
        <time>2015-07-01T09:26:39Z</time>
      </trkpt>
      <trkpt lat="44.69239" lon="5.90409">
        <ele>1488</ele>
        <time>2015-07-01T09:26:44Z</time>
      </trkpt>
      <trkpt lat="44.69234" lon="5.90407">
        <ele>1488.1</ele>
        <time>2015-07-01T09:26:49Z</time>
      </trkpt>
      <trkpt lat="44.69227" lon="5.90405">
        <ele>1488.2</ele>
        <time>2015-07-01T09:26:54Z</time>
      </trkpt>
      <trkpt lat="44.69222" lon="5.90403">
        <ele>1489.8</ele>
        <time>2015-07-01T09:26:59Z</time>
      </trkpt>
      <trkpt lat="44.69216" lon="5.90404">
        <ele>1488.4</ele>
        <time>2015-07-01T09:27:04Z</time>
      </trkpt>
      <trkpt lat="44.6921" lon="5.90402">
        <ele>1488.4</ele>
        <time>2015-07-01T09:27:09Z</time>
      </trkpt>
      <trkpt lat="44.69205" lon="5.904">
        <ele>1489.4</ele>
        <time>2015-07-01T09:27:14Z</time>
      </trkpt>
      <trkpt lat="44.69199" lon="5.90398">
        <ele>1491.7</ele>
        <time>2015-07-01T09:27:19Z</time>
      </trkpt>
      <trkpt lat="44.69193" lon="5.90395">
        <ele>1494.4</ele>
        <time>2015-07-01T09:27:24Z</time>
      </trkpt>
      <trkpt lat="44.69189" lon="5.90391">
        <ele>1495.6</ele>
        <time>2015-07-01T09:27:29Z</time>
      </trkpt>
      <trkpt lat="44.69182" lon="5.90388">
        <ele>1495.1</ele>
        <time>2015-07-01T09:27:34Z</time>
      </trkpt>
      <trkpt lat="44.69175" lon="5.90385">
        <ele>1494.1</ele>
        <time>2015-07-01T09:27:39Z</time>
      </trkpt>
      <trkpt lat="44.69169" lon="5.90385">
        <ele>1494.5</ele>
        <time>2015-07-01T09:27:44Z</time>
      </trkpt>
      <trkpt lat="44.69162" lon="5.90383">
        <ele>1494.9</ele>
        <time>2015-07-01T09:27:49Z</time>
      </trkpt>
      <trkpt lat="44.69156" lon="5.90381">
        <ele>1494</ele>
        <time>2015-07-01T09:27:54Z</time>
      </trkpt>
      <trkpt lat="44.6915" lon="5.90377">
        <ele>1494</ele>
        <time>2015-07-01T09:27:59Z</time>
      </trkpt>
      <trkpt lat="44.69145" lon="5.90374">
        <ele>1497.2</ele>
        <time>2015-07-01T09:28:04Z</time>
      </trkpt>
      <trkpt lat="44.6914" lon="5.90373">
        <ele>1497.7</ele>
        <time>2015-07-01T09:28:09Z</time>
      </trkpt>
      <trkpt lat="44.69131" lon="5.9037">
        <ele>1499</ele>
        <time>2015-07-01T09:28:18Z</time>
      </trkpt>
      <trkpt lat="44.69127" lon="5.90367">
        <ele>1500</ele>
        <time>2015-07-01T09:28:23Z</time>
      </trkpt>
      <trkpt lat="44.6912" lon="5.90366">
        <ele>1501.2</ele>
        <time>2015-07-01T09:28:28Z</time>
      </trkpt>
      <trkpt lat="44.69115" lon="5.90367">
        <ele>1502.7</ele>
        <time>2015-07-01T09:28:33Z</time>
      </trkpt>
      <trkpt lat="44.69109" lon="5.90364">
        <ele>1502.1</ele>
        <time>2015-07-01T09:28:38Z</time>
      </trkpt>
      <trkpt lat="44.69104" lon="5.90361">
        <ele>1501.6</ele>
        <time>2015-07-01T09:28:43Z</time>
      </trkpt>
      <trkpt lat="44.69098" lon="5.90359">
        <ele>1502.1</ele>
        <time>2015-07-01T09:28:48Z</time>
      </trkpt>
      <trkpt lat="44.69092" lon="5.90359">
        <ele>1504.4</ele>
        <time>2015-07-01T09:28:53Z</time>
      </trkpt>
      <trkpt lat="44.69086" lon="5.9036">
        <ele>1506.2</ele>
        <time>2015-07-01T09:28:58Z</time>
      </trkpt>
      <trkpt lat="44.69081" lon="5.90363">
        <ele>1507.4</ele>
        <time>2015-07-01T09:29:03Z</time>
      </trkpt>
      <trkpt lat="44.69075" lon="5.90363">
        <ele>1508.1</ele>
        <time>2015-07-01T09:29:08Z</time>
      </trkpt>
      <trkpt lat="44.69069" lon="5.90363">
        <ele>1508.8</ele>
        <time>2015-07-01T09:29:13Z</time>
      </trkpt>
      <trkpt lat="44.69066" lon="5.90363">
        <ele>1509.3</ele>
        <time>2015-07-01T09:29:18Z</time>
      </trkpt>
      <trkpt lat="44.6906" lon="5.90362">
        <ele>1510</ele>
        <time>2015-07-01T09:29:23Z</time>
      </trkpt>
      <trkpt lat="44.69054" lon="5.90362">
        <ele>1511.5</ele>
        <time>2015-07-01T09:29:28Z</time>
      </trkpt>
      <trkpt lat="44.69048" lon="5.90364">
        <ele>1513</ele>
        <time>2015-07-01T09:29:33Z</time>
      </trkpt>
      <trkpt lat="44.69043" lon="5.90366">
        <ele>1514.6</ele>
        <time>2015-07-01T09:29:38Z</time>
      </trkpt>
      <trkpt lat="44.69038" lon="5.90368">
        <ele>1516.1</ele>
        <time>2015-07-01T09:29:43Z</time>
      </trkpt>
      <trkpt lat="44.69032" lon="5.90367">
        <ele>1517.5</ele>
        <time>2015-07-01T09:29:48Z</time>
      </trkpt>
      <trkpt lat="44.69027" lon="5.90367">
        <ele>1519.6</ele>
        <time>2015-07-01T09:29:53Z</time>
      </trkpt>
      <trkpt lat="44.69022" lon="5.90367">
        <ele>1519.9</ele>
        <time>2015-07-01T09:29:58Z</time>
      </trkpt>
      <trkpt lat="44.69017" lon="5.90367">
        <ele>1519.9</ele>
        <time>2015-07-01T09:30:03Z</time>
      </trkpt>
      <trkpt lat="44.69011" lon="5.90365">
        <ele>1521.7</ele>
        <time>2015-07-01T09:30:08Z</time>
      </trkpt>
      <trkpt lat="44.69006" lon="5.90366">
        <ele>1523.4</ele>
        <time>2015-07-01T09:30:13Z</time>
      </trkpt>
      <trkpt lat="44.69" lon="5.90367">
        <ele>1523.2</ele>
        <time>2015-07-01T09:30:18Z</time>
      </trkpt>
      <trkpt lat="44.68994" lon="5.90366">
        <ele>1524</ele>
        <time>2015-07-01T09:30:23Z</time>
      </trkpt>
      <trkpt lat="44.6899" lon="5.9037">
        <ele>1524.8</ele>
        <time>2015-07-01T09:30:28Z</time>
      </trkpt>
      <trkpt lat="44.68986" lon="5.90375">
        <ele>1525.8</ele>
        <time>2015-07-01T09:30:33Z</time>
      </trkpt>
      <trkpt lat="44.6898" lon="5.90377">
        <ele>1525.4</ele>
        <time>2015-07-01T09:30:38Z</time>
      </trkpt>
      <trkpt lat="44.68974" lon="5.90379">
        <ele>1525</ele>
        <time>2015-07-01T09:30:43Z</time>
      </trkpt>
      <trkpt lat="44.68969" lon="5.90382">
        <ele>1525.7</ele>
        <time>2015-07-01T09:30:48Z</time>
      </trkpt>
      <trkpt lat="44.68964" lon="5.90382">
        <ele>1527.9</ele>
        <time>2015-07-01T09:30:53Z</time>
      </trkpt>
      <trkpt lat="44.68959" lon="5.90383">
        <ele>1525.2</ele>
        <time>2015-07-01T09:30:58Z</time>
      </trkpt>
      <trkpt lat="44.68954" lon="5.90389">
        <ele>1524.9</ele>
        <time>2015-07-01T09:31:03Z</time>
      </trkpt>
      <trkpt lat="44.68948" lon="5.90391">
        <ele>1525</ele>
        <time>2015-07-01T09:31:08Z</time>
      </trkpt>
      <trkpt lat="44.68943" lon="5.90394">
        <ele>1526.6</ele>
        <time>2015-07-01T09:31:13Z</time>
      </trkpt>
      <trkpt lat="44.68939" lon="5.90397">
        <ele>1528.7</ele>
        <time>2015-07-01T09:31:18Z</time>
      </trkpt>
      <trkpt lat="44.68932" lon="5.90401">
        <ele>1529</ele>
        <time>2015-07-01T09:31:23Z</time>
      </trkpt>
      <trkpt lat="44.68926" lon="5.90406">
        <ele>1529.5</ele>
        <time>2015-07-01T09:31:28Z</time>
      </trkpt>
      <trkpt lat="44.68919" lon="5.90411">
        <ele>1529.1</ele>
        <time>2015-07-01T09:31:33Z</time>
      </trkpt>
      <trkpt lat="44.68915" lon="5.90417">
        <ele>1529</ele>
        <time>2015-07-01T09:31:38Z</time>
      </trkpt>
      <trkpt lat="44.68911" lon="5.90423">
        <ele>1528</ele>
        <time>2015-07-01T09:31:43Z</time>
      </trkpt>
      <trkpt lat="44.68908" lon="5.9043">
        <ele>1530.1</ele>
        <time>2015-07-01T09:31:48Z</time>
      </trkpt>
      <trkpt lat="44.68905" lon="5.90432">
        <ele>1531.2</ele>
        <time>2015-07-01T09:31:53Z</time>
      </trkpt>
      <trkpt lat="44.68903" lon="5.90431">
        <ele>1530</ele>
        <time>2015-07-01T09:31:58Z</time>
      </trkpt>
      <trkpt lat="44.68902" lon="5.90431">
        <ele>1530.6</ele>
        <time>2015-07-01T09:32:03Z</time>
      </trkpt>
      <trkpt lat="44.68902" lon="5.9043">
        <ele>1531.1</ele>
        <time>2015-07-01T09:32:08Z</time>
      </trkpt>
      <trkpt lat="44.68901" lon="5.9043">
        <ele>1530.6</ele>
        <time>2015-07-01T09:32:13Z</time>
      </trkpt>
      <trkpt lat="44.68898" lon="5.90434">
        <ele>1531.5</ele>
        <time>2015-07-01T09:32:18Z</time>
      </trkpt>
      <trkpt lat="44.68895" lon="5.90443">
        <ele>1531.2</ele>
        <time>2015-07-01T09:32:23Z</time>
      </trkpt>
      <trkpt lat="44.68892" lon="5.90452">
        <ele>1532.2</ele>
        <time>2015-07-01T09:32:28Z</time>
      </trkpt>
      <trkpt lat="44.68889" lon="5.9046">
        <ele>1529</ele>
        <time>2015-07-01T09:32:33Z</time>
      </trkpt>
      <trkpt lat="44.68886" lon="5.90464">
        <ele>1530.4</ele>
        <time>2015-07-01T09:32:38Z</time>
      </trkpt>
      <trkpt lat="44.68884" lon="5.90473">
        <ele>1529.7</ele>
        <time>2015-07-01T09:32:43Z</time>
      </trkpt>
      <trkpt lat="44.68881" lon="5.9049">
        <ele>1530.7</ele>
        <time>2015-07-01T09:32:52Z</time>
      </trkpt>
      <trkpt lat="44.68879" lon="5.90499">
        <ele>1529.7</ele>
        <time>2015-07-01T09:32:57Z</time>
      </trkpt>
      <trkpt lat="44.68877" lon="5.90503">
        <ele>1531.7</ele>
        <time>2015-07-01T09:33:02Z</time>
      </trkpt>
      <trkpt lat="44.68877" lon="5.9051">
        <ele>1532.2</ele>
        <time>2015-07-01T09:33:07Z</time>
      </trkpt>
      <trkpt lat="44.68874" lon="5.90519">
        <ele>1532</ele>
        <time>2015-07-01T09:33:12Z</time>
      </trkpt>
      <trkpt lat="44.68873" lon="5.90527">
        <ele>1532.2</ele>
        <time>2015-07-01T09:33:17Z</time>
      </trkpt>
      <trkpt lat="44.68871" lon="5.90535">
        <ele>1530.8</ele>
        <time>2015-07-01T09:33:22Z</time>
      </trkpt>
      <trkpt lat="44.68868" lon="5.90541">
        <ele>1531.6</ele>
        <time>2015-07-01T09:33:27Z</time>
      </trkpt>
      <trkpt lat="44.68863" lon="5.90555">
        <ele>1532.1</ele>
        <time>2015-07-01T09:33:35Z</time>
      </trkpt>
      <trkpt lat="44.68861" lon="5.90559">
        <ele>1531.9</ele>
        <time>2015-07-01T09:33:40Z</time>
      </trkpt>
      <trkpt lat="44.68858" lon="5.90562">
        <ele>1531.6</ele>
        <time>2015-07-01T09:33:45Z</time>
      </trkpt>
      <trkpt lat="44.68856" lon="5.90565">
        <ele>1532.2</ele>
        <time>2015-07-01T09:33:50Z</time>
      </trkpt>
      <trkpt lat="44.68853" lon="5.90573">
        <ele>1530.6</ele>
        <time>2015-07-01T09:33:57Z</time>
      </trkpt>
      <trkpt lat="44.68848" lon="5.90582">
        <ele>1529.2</ele>
        <time>2015-07-01T09:34:02Z</time>
      </trkpt>
      <trkpt lat="44.68842" lon="5.90588">
        <ele>1527.4</ele>
        <time>2015-07-01T09:34:07Z</time>
      </trkpt>
      <trkpt lat="44.68837" lon="5.90594">
        <ele>1530</ele>
        <time>2015-07-01T09:34:12Z</time>
      </trkpt>
      <trkpt lat="44.68831" lon="5.90597">
        <ele>1532.4</ele>
        <time>2015-07-01T09:34:17Z</time>
      </trkpt>
      <trkpt lat="44.68827" lon="5.90601">
        <ele>1530.9</ele>
        <time>2015-07-01T09:34:22Z</time>
      </trkpt>
      <trkpt lat="44.68823" lon="5.90608">
        <ele>1530.9</ele>
        <time>2015-07-01T09:34:27Z</time>
      </trkpt>
      <trkpt lat="44.68817" lon="5.90611">
        <ele>1529.5</ele>
        <time>2015-07-01T09:34:32Z</time>
      </trkpt>
      <trkpt lat="44.68813" lon="5.90617">
        <ele>1524.4</ele>
        <time>2015-07-01T09:34:37Z</time>
      </trkpt>
      <trkpt lat="44.68807" lon="5.90623">
        <ele>1525.8</ele>
        <time>2015-07-01T09:34:42Z</time>
      </trkpt>
      <trkpt lat="44.68803" lon="5.90626">
        <ele>1523.7</ele>
        <time>2015-07-01T09:34:47Z</time>
      </trkpt>
      <trkpt lat="44.68801" lon="5.90632">
        <ele>1527.5</ele>
        <time>2015-07-01T09:34:52Z</time>
      </trkpt>
      <trkpt lat="44.68798" lon="5.90639">
        <ele>1528.5</ele>
        <time>2015-07-01T09:34:57Z</time>
      </trkpt>
      <trkpt lat="44.68791" lon="5.90651">
        <ele>1527.3</ele>
        <time>2015-07-01T09:35:04Z</time>
      </trkpt>
      <trkpt lat="44.68787" lon="5.90659">
        <ele>1528.4</ele>
        <time>2015-07-01T09:35:09Z</time>
      </trkpt>
      <trkpt lat="44.68783" lon="5.90667">
        <ele>1527.2</ele>
        <time>2015-07-01T09:35:14Z</time>
      </trkpt>
      <trkpt lat="44.68779" lon="5.90675">
        <ele>1527.4</ele>
        <time>2015-07-01T09:35:19Z</time>
      </trkpt>
      <trkpt lat="44.68775" lon="5.90681">
        <ele>1527.2</ele>
        <time>2015-07-01T09:35:24Z</time>
      </trkpt>
      <trkpt lat="44.68773" lon="5.90688">
        <ele>1527</ele>
        <time>2015-07-01T09:35:29Z</time>
      </trkpt>
      <trkpt lat="44.68772" lon="5.90694">
        <ele>1529.9</ele>
        <time>2015-07-01T09:35:34Z</time>
      </trkpt>
      <trkpt lat="44.68771" lon="5.90697">
        <ele>1533.7</ele>
        <time>2015-07-01T09:35:39Z</time>
      </trkpt>
      <trkpt lat="44.68768" lon="5.90703">
        <ele>1537</ele>
        <time>2015-07-01T09:35:44Z</time>
      </trkpt>
      <trkpt lat="44.68765" lon="5.90711">
        <ele>1538.4</ele>
        <time>2015-07-01T09:35:49Z</time>
      </trkpt>
      <trkpt lat="44.68764" lon="5.90719">
        <ele>1537.9</ele>
        <time>2015-07-01T09:35:54Z</time>
      </trkpt>
      <trkpt lat="44.68762" lon="5.90727">
        <ele>1537.7</ele>
        <time>2015-07-01T09:35:59Z</time>
      </trkpt>
      <trkpt lat="44.6876" lon="5.90733">
        <ele>1538.6</ele>
        <time>2015-07-01T09:36:04Z</time>
      </trkpt>
      <trkpt lat="44.68758" lon="5.90741">
        <ele>1536.3</ele>
        <time>2015-07-01T09:36:09Z</time>
      </trkpt>
      <trkpt lat="44.68755" lon="5.90752">
        <ele>1532.7</ele>
        <time>2015-07-01T09:36:14Z</time>
      </trkpt>
      <trkpt lat="44.68752" lon="5.90758">
        <ele>1535.6</ele>
        <time>2015-07-01T09:36:21Z</time>
      </trkpt>
      <trkpt lat="44.6875" lon="5.9076">
        <ele>1535.2</ele>
        <time>2015-07-01T09:36:26Z</time>
      </trkpt>
      <trkpt lat="44.68747" lon="5.9076">
        <ele>1538</ele>
        <time>2015-07-01T09:36:31Z</time>
      </trkpt>
      <trkpt lat="44.68747" lon="5.90762">
        <ele>1541.2</ele>
        <time>2015-07-01T09:36:36Z</time>
      </trkpt>
      <trkpt lat="44.6875" lon="5.90762">
        <ele>1535.9</ele>
        <time>2015-07-01T09:36:41Z</time>
      </trkpt>
      <trkpt lat="44.68747" lon="5.90766">
        <ele>1537.3</ele>
        <time>2015-07-01T09:36:48Z</time>
      </trkpt>
      <trkpt lat="44.68743" lon="5.90767">
        <ele>1538.4</ele>
        <time>2015-07-01T09:36:55Z</time>
      </trkpt>
      <trkpt lat="44.68742" lon="5.90777">
        <ele>1539.8</ele>
        <time>2015-07-01T09:37:00Z</time>
      </trkpt>
      <trkpt lat="44.68739" lon="5.90783">
        <ele>1539.2</ele>
        <time>2015-07-01T09:37:05Z</time>
      </trkpt>
      <trkpt lat="44.68736" lon="5.90788">
        <ele>1540.4</ele>
        <time>2015-07-01T09:37:10Z</time>
      </trkpt>
      <trkpt lat="44.68734" lon="5.90794">
        <ele>1538.8</ele>
        <time>2015-07-01T09:37:15Z</time>
      </trkpt>
      <trkpt lat="44.68731" lon="5.908">
        <ele>1538.2</ele>
        <time>2015-07-01T09:37:20Z</time>
      </trkpt>
      <trkpt lat="44.68729" lon="5.90807">
        <ele>1539.8</ele>
        <time>2015-07-01T09:37:25Z</time>
      </trkpt>
      <trkpt lat="44.68726" lon="5.90815">
        <ele>1539.6</ele>
        <time>2015-07-01T09:37:30Z</time>
      </trkpt>
      <trkpt lat="44.68726" lon="5.90824">
        <ele>1539.9</ele>
        <time>2015-07-01T09:37:35Z</time>
      </trkpt>
      <trkpt lat="44.68725" lon="5.90833">
        <ele>1540.1</ele>
        <time>2015-07-01T09:37:40Z</time>
      </trkpt>
      <trkpt lat="44.68724" lon="5.90841">
        <ele>1542.1</ele>
        <time>2015-07-01T09:37:45Z</time>
      </trkpt>
      <trkpt lat="44.68722" lon="5.90851">
        <ele>1540.8</ele>
        <time>2015-07-01T09:37:50Z</time>
      </trkpt>
      <trkpt lat="44.6872" lon="5.90858">
        <ele>1537.5</ele>
        <time>2015-07-01T09:37:55Z</time>
      </trkpt>
      <trkpt lat="44.68718" lon="5.90868">
        <ele>1537.3</ele>
        <time>2015-07-01T09:38:00Z</time>
      </trkpt>
      <trkpt lat="44.68715" lon="5.90876">
        <ele>1539.9</ele>
        <time>2015-07-01T09:38:05Z</time>
      </trkpt>
      <trkpt lat="44.68713" lon="5.90883">
        <ele>1541.4</ele>
        <time>2015-07-01T09:38:10Z</time>
      </trkpt>
      <trkpt lat="44.68712" lon="5.9089">
        <ele>1541.8</ele>
        <time>2015-07-01T09:38:15Z</time>
      </trkpt>
      <trkpt lat="44.68709" lon="5.90902">
        <ele>1542.8</ele>
        <time>2015-07-01T09:38:22Z</time>
      </trkpt>
      <trkpt lat="44.68709" lon="5.90912">
        <ele>1543.7</ele>
        <time>2015-07-01T09:38:27Z</time>
      </trkpt>
      <trkpt lat="44.68709" lon="5.90917">
        <ele>1544.2</ele>
        <time>2015-07-01T09:38:32Z</time>
      </trkpt>
      <trkpt lat="44.6871" lon="5.90922">
        <ele>1541.8</ele>
        <time>2015-07-01T09:38:37Z</time>
      </trkpt>
      <trkpt lat="44.68712" lon="5.90928">
        <ele>1539.3</ele>
        <time>2015-07-01T09:38:42Z</time>
      </trkpt>
      <trkpt lat="44.68709" lon="5.90936">
        <ele>1540</ele>
        <time>2015-07-01T09:38:47Z</time>
      </trkpt>
      <trkpt lat="44.68706" lon="5.90943">
        <ele>1543.6</ele>
        <time>2015-07-01T09:38:52Z</time>
      </trkpt>
      <trkpt lat="44.68704" lon="5.90949">
        <ele>1543.8</ele>
        <time>2015-07-01T09:38:57Z</time>
      </trkpt>
      <trkpt lat="44.68702" lon="5.90962">
        <ele>1545.2</ele>
        <time>2015-07-01T09:39:04Z</time>
      </trkpt>
      <trkpt lat="44.68702" lon="5.90971">
        <ele>1541.1</ele>
        <time>2015-07-01T09:39:09Z</time>
      </trkpt>
      <trkpt lat="44.68703" lon="5.90979">
        <ele>1539.2</ele>
        <time>2015-07-01T09:39:14Z</time>
      </trkpt>
      <trkpt lat="44.68705" lon="5.90987">
        <ele>1539.8</ele>
        <time>2015-07-01T09:39:19Z</time>
      </trkpt>
      <trkpt lat="44.68706" lon="5.90995">
        <ele>1538.4</ele>
        <time>2015-07-01T09:39:24Z</time>
      </trkpt>
      <trkpt lat="44.68707" lon="5.91013">
        <ele>1540.1</ele>
        <time>2015-07-01T09:39:31Z</time>
      </trkpt>
      <trkpt lat="44.68706" lon="5.91022">
        <ele>1542.4</ele>
        <time>2015-07-01T09:39:36Z</time>
      </trkpt>
      <trkpt lat="44.6871" lon="5.91029">
        <ele>1545.8</ele>
        <time>2015-07-01T09:39:41Z</time>
      </trkpt>
      <trkpt lat="44.68713" lon="5.91038">
        <ele>1548.5</ele>
        <time>2015-07-01T09:39:46Z</time>
      </trkpt>
      <trkpt lat="44.68715" lon="5.91044">
        <ele>1548.5</ele>
        <time>2015-07-01T09:39:51Z</time>
      </trkpt>
      <trkpt lat="44.68719" lon="5.9105">
        <ele>1550.4</ele>
        <time>2015-07-01T09:39:56Z</time>
      </trkpt>
      <trkpt lat="44.68724" lon="5.9106">
        <ele>1547.2</ele>
        <time>2015-07-01T09:40:01Z</time>
      </trkpt>
      <trkpt lat="44.68727" lon="5.91065">
        <ele>1543.7</ele>
        <time>2015-07-01T09:40:06Z</time>
      </trkpt>
      <trkpt lat="44.68731" lon="5.9107">
        <ele>1540.2</ele>
        <time>2015-07-01T09:40:11Z</time>
      </trkpt>
      <trkpt lat="44.68735" lon="5.91074">
        <ele>1539</ele>
        <time>2015-07-01T09:40:16Z</time>
      </trkpt>
      <trkpt lat="44.68736" lon="5.91077">
        <ele>1539.9</ele>
        <time>2015-07-01T09:40:21Z</time>
      </trkpt>
      <trkpt lat="44.68738" lon="5.91083">
        <ele>1546.8</ele>
        <time>2015-07-01T09:40:26Z</time>
      </trkpt>
      <trkpt lat="44.6874" lon="5.9109">
        <ele>1548.7</ele>
        <time>2015-07-01T09:40:31Z</time>
      </trkpt>
      <trkpt lat="44.68742" lon="5.91098">
        <ele>1547.9</ele>
        <time>2015-07-01T09:40:36Z</time>
      </trkpt>
      <trkpt lat="44.68746" lon="5.91104">
        <ele>1546.4</ele>
        <time>2015-07-01T09:40:41Z</time>
      </trkpt>
      <trkpt lat="44.68749" lon="5.91107">
        <ele>1545.9</ele>
        <time>2015-07-01T09:40:46Z</time>
      </trkpt>
      <trkpt lat="44.68756" lon="5.91116">
        <ele>1545.5</ele>
        <time>2015-07-01T09:40:53Z</time>
      </trkpt>
      <trkpt lat="44.68758" lon="5.91123">
        <ele>1543.5</ele>
        <time>2015-07-01T09:40:58Z</time>
      </trkpt>
      <trkpt lat="44.68762" lon="5.9113">
        <ele>1543.3</ele>
        <time>2015-07-01T09:41:03Z</time>
      </trkpt>
      <trkpt lat="44.68766" lon="5.91137">
        <ele>1544.4</ele>
        <time>2015-07-01T09:41:08Z</time>
      </trkpt>
      <trkpt lat="44.68769" lon="5.91143">
        <ele>1543.9</ele>
        <time>2015-07-01T09:41:13Z</time>
      </trkpt>
      <trkpt lat="44.68774" lon="5.9115">
        <ele>1541.5</ele>
        <time>2015-07-01T09:41:18Z</time>
      </trkpt>
      <trkpt lat="44.68779" lon="5.91157">
        <ele>1542.7</ele>
        <time>2015-07-01T09:41:23Z</time>
      </trkpt>
      <trkpt lat="44.68783" lon="5.91164">
        <ele>1543.5</ele>
        <time>2015-07-01T09:41:28Z</time>
      </trkpt>
      <trkpt lat="44.68786" lon="5.91171">
        <ele>1541.8</ele>
        <time>2015-07-01T09:41:33Z</time>
      </trkpt>
      <trkpt lat="44.6879" lon="5.91181">
        <ele>1543.4</ele>
        <time>2015-07-01T09:41:38Z</time>
      </trkpt>
      <trkpt lat="44.68795" lon="5.9119">
        <ele>1545.3</ele>
        <time>2015-07-01T09:41:43Z</time>
      </trkpt>
      <trkpt lat="44.68801" lon="5.91195">
        <ele>1547.9</ele>
        <time>2015-07-01T09:41:48Z</time>
      </trkpt>
      <trkpt lat="44.68807" lon="5.91199">
        <ele>1546.7</ele>
        <time>2015-07-01T09:41:53Z</time>
      </trkpt>
      <trkpt lat="44.68811" lon="5.912">
        <ele>1547.6</ele>
        <time>2015-07-01T09:41:58Z</time>
      </trkpt>
      <trkpt lat="44.68815" lon="5.91204">
        <ele>1550.9</ele>
        <time>2015-07-01T09:42:03Z</time>
      </trkpt>
      <trkpt lat="44.68825" lon="5.91204">
        <ele>1553.1</ele>
        <time>2015-07-01T09:42:11Z</time>
      </trkpt>
      <trkpt lat="44.68833" lon="5.91201">
        <ele>1549.9</ele>
        <time>2015-07-01T09:42:16Z</time>
      </trkpt>
      <trkpt lat="44.6884" lon="5.91203">
        <ele>1546.9</ele>
        <time>2015-07-01T09:42:21Z</time>
      </trkpt>
      <trkpt lat="44.68846" lon="5.91204">
        <ele>1542.1</ele>
        <time>2015-07-01T09:42:26Z</time>
      </trkpt>
      <trkpt lat="44.68853" lon="5.91203">
        <ele>1540.2</ele>
        <time>2015-07-01T09:42:31Z</time>
      </trkpt>
      <trkpt lat="44.6886" lon="5.91201">
        <ele>1540.9</ele>
        <time>2015-07-01T09:42:36Z</time>
      </trkpt>
      <trkpt lat="44.68868" lon="5.91198">
        <ele>1543.9</ele>
        <time>2015-07-01T09:42:41Z</time>
      </trkpt>
      <trkpt lat="44.68873" lon="5.91196">
        <ele>1544.1</ele>
        <time>2015-07-01T09:42:46Z</time>
      </trkpt>
      <trkpt lat="44.68874" lon="5.91195">
        <ele>1544.7</ele>
        <time>2015-07-01T09:42:51Z</time>
      </trkpt>
      <trkpt lat="44.68874" lon="5.91195">
        <ele>1531.8</ele>
        <time>2015-07-01T09:42:56Z</time>
      </trkpt>
      <trkpt lat="44.68871" lon="5.91197">
        <ele>1532.6</ele>
        <time>2015-07-01T09:43:01Z</time>
      </trkpt>
      <trkpt lat="44.68866" lon="5.91199">
        <ele>1530.9</ele>
        <time>2015-07-01T09:43:06Z</time>
      </trkpt>
      <trkpt lat="44.6886" lon="5.91203">
        <ele>1527.9</ele>
        <time>2015-07-01T09:43:11Z</time>
      </trkpt>
      <trkpt lat="44.68856" lon="5.91204">
        <ele>1527.5</ele>
        <time>2015-07-01T09:43:16Z</time>
      </trkpt>
      <trkpt lat="44.6885" lon="5.91205">
        <ele>1527.6</ele>
        <time>2015-07-01T09:43:21Z</time>
      </trkpt>
      <trkpt lat="44.68844" lon="5.91207">
        <ele>1527.7</ele>
        <time>2015-07-01T09:43:26Z</time>
      </trkpt>
      <trkpt lat="44.68835" lon="5.91204">
        <ele>1531.8</ele>
        <time>2015-07-01T09:43:31Z</time>
      </trkpt>
      <trkpt lat="44.68828" lon="5.91202">
        <ele>1533.2</ele>
        <time>2015-07-01T09:43:36Z</time>
      </trkpt>
      <trkpt lat="44.68821" lon="5.91202">
        <ele>1533.6</ele>
        <time>2015-07-01T09:43:41Z</time>
      </trkpt>
      <trkpt lat="44.68815" lon="5.91201">
        <ele>1535.8</ele>
        <time>2015-07-01T09:43:46Z</time>
      </trkpt>
      <trkpt lat="44.6881" lon="5.91198">
        <ele>1536.3</ele>
        <time>2015-07-01T09:43:51Z</time>
      </trkpt>
      <trkpt lat="44.68802" lon="5.91191">
        <ele>1539.1</ele>
        <time>2015-07-01T09:43:56Z</time>
      </trkpt>
      <trkpt lat="44.68796" lon="5.91186">
        <ele>1539.9</ele>
        <time>2015-07-01T09:44:01Z</time>
      </trkpt>
      <trkpt lat="44.68791" lon="5.9118">
        <ele>1539.8</ele>
        <time>2015-07-01T09:44:06Z</time>
      </trkpt>
      <trkpt lat="44.6879" lon="5.91185">
        <ele>1542.1</ele>
        <time>2015-07-01T09:44:11Z</time>
      </trkpt>
      <trkpt lat="44.6879" lon="5.91191">
        <ele>1546.1</ele>
        <time>2015-07-01T09:44:16Z</time>
      </trkpt>
      <trkpt lat="44.6879" lon="5.91199">
        <ele>1547.6</ele>
        <time>2015-07-01T09:44:21Z</time>
      </trkpt>
      <trkpt lat="44.68791" lon="5.91206">
        <ele>1549.5</ele>
        <time>2015-07-01T09:44:26Z</time>
      </trkpt>
      <trkpt lat="44.68789" lon="5.91206">
        <ele>1556.2</ele>
        <time>2015-07-01T09:44:31Z</time>
      </trkpt>
      <trkpt lat="44.68791" lon="5.91214">
        <ele>1558.4</ele>
        <time>2015-07-01T09:44:36Z</time>
      </trkpt>
      <trkpt lat="44.68791" lon="5.91218">
        <ele>1559</ele>
        <time>2015-07-01T09:44:41Z</time>
      </trkpt>
      <trkpt lat="44.68789" lon="5.9122">
        <ele>1563.4</ele>
        <time>2015-07-01T09:44:46Z</time>
      </trkpt>
      <trkpt lat="44.68786" lon="5.91225">
        <ele>1563.7</ele>
        <time>2015-07-01T09:44:51Z</time>
      </trkpt>
      <trkpt lat="44.68787" lon="5.91231">
        <ele>1565.6</ele>
        <time>2015-07-01T09:44:56Z</time>
      </trkpt>
      <trkpt lat="44.68791" lon="5.91232">
        <ele>1569</ele>
        <time>2015-07-01T09:45:01Z</time>
      </trkpt>
      <trkpt lat="44.6879" lon="5.91243">
        <ele>1564.7</ele>
        <time>2015-07-01T09:45:06Z</time>
      </trkpt>
      <trkpt lat="44.68797" lon="5.91251">
        <ele>1568.5</ele>
        <time>2015-07-01T09:45:11Z</time>
      </trkpt>
      <trkpt lat="44.68799" lon="5.91263">
        <ele>1564.8</ele>
        <time>2015-07-01T09:45:16Z</time>
      </trkpt>
      <trkpt lat="44.68803" lon="5.91271">
        <ele>1562.5</ele>
        <time>2015-07-01T09:45:21Z</time>
      </trkpt>
      <trkpt lat="44.68808" lon="5.91277">
        <ele>1563.6</ele>
        <time>2015-07-01T09:45:26Z</time>
      </trkpt>
      <trkpt lat="44.68813" lon="5.9128">
        <ele>1564.7</ele>
        <time>2015-07-01T09:45:31Z</time>
      </trkpt>
      <trkpt lat="44.68818" lon="5.91284">
        <ele>1564.5</ele>
        <time>2015-07-01T09:45:36Z</time>
      </trkpt>
      <trkpt lat="44.68823" lon="5.91288">
        <ele>1565.3</ele>
        <time>2015-07-01T09:45:41Z</time>
      </trkpt>
      <trkpt lat="44.68827" lon="5.91296">
        <ele>1567.9</ele>
        <time>2015-07-01T09:45:46Z</time>
      </trkpt>
      <trkpt lat="44.6883" lon="5.91301">
        <ele>1571.1</ele>
        <time>2015-07-01T09:45:51Z</time>
      </trkpt>
      <trkpt lat="44.68832" lon="5.91307">
        <ele>1573.7</ele>
        <time>2015-07-01T09:45:56Z</time>
      </trkpt>
      <trkpt lat="44.6883" lon="5.91305">
        <ele>1575.6</ele>
        <time>2015-07-01T09:46:01Z</time>
      </trkpt>
      <trkpt lat="44.68829" lon="5.91306">
        <ele>1575.9</ele>
        <time>2015-07-01T09:46:06Z</time>
      </trkpt>
      <trkpt lat="44.68828" lon="5.91311">
        <ele>1578.3</ele>
        <time>2015-07-01T09:46:11Z</time>
      </trkpt>
      <trkpt lat="44.68831" lon="5.91321">
        <ele>1580.7</ele>
        <time>2015-07-01T09:46:16Z</time>
      </trkpt>
      <trkpt lat="44.68837" lon="5.91326">
        <ele>1580.8</ele>
        <time>2015-07-01T09:46:21Z</time>
      </trkpt>
      <trkpt lat="44.68842" lon="5.91331">
        <ele>1581.9</ele>
        <time>2015-07-01T09:46:26Z</time>
      </trkpt>
      <trkpt lat="44.68844" lon="5.91337">
        <ele>1587.6</ele>
        <time>2015-07-01T09:46:31Z</time>
      </trkpt>
      <trkpt lat="44.68845" lon="5.91342">
        <ele>1588.8</ele>
        <time>2015-07-01T09:46:36Z</time>
      </trkpt>
      <trkpt lat="44.68846" lon="5.91349">
        <ele>1592</ele>
        <time>2015-07-01T09:46:41Z</time>
      </trkpt>
      <trkpt lat="44.68846" lon="5.91351">
        <ele>1594.2</ele>
        <time>2015-07-01T09:46:46Z</time>
      </trkpt>
      <trkpt lat="44.68849" lon="5.91352">
        <ele>1587.4</ele>
        <time>2015-07-01T09:46:51Z</time>
      </trkpt>
      <trkpt lat="44.68851" lon="5.91353">
        <ele>1586.3</ele>
        <time>2015-07-01T09:46:56Z</time>
      </trkpt>
      <trkpt lat="44.68852" lon="5.91354">
        <ele>1583.2</ele>
        <time>2015-07-01T09:47:01Z</time>
      </trkpt>
      <trkpt lat="44.68852" lon="5.91361">
        <ele>1583.7</ele>
        <time>2015-07-01T09:47:06Z</time>
      </trkpt>
      <trkpt lat="44.6885" lon="5.91366">
        <ele>1583.4</ele>
        <time>2015-07-01T09:47:11Z</time>
      </trkpt>
      <trkpt lat="44.68845" lon="5.91368">
        <ele>1583.7</ele>
        <time>2015-07-01T09:47:16Z</time>
      </trkpt>
      <trkpt lat="44.6884" lon="5.91369">
        <ele>1584.6</ele>
        <time>2015-07-01T09:47:21Z</time>
      </trkpt>
      <trkpt lat="44.68836" lon="5.9137">
        <ele>1585.5</ele>
        <time>2015-07-01T09:47:26Z</time>
      </trkpt>
      <trkpt lat="44.68833" lon="5.91371">
        <ele>1587.4</ele>
        <time>2015-07-01T09:47:31Z</time>
      </trkpt>
      <trkpt lat="44.68835" lon="5.91375">
        <ele>1586.2</ele>
        <time>2015-07-01T09:47:36Z</time>
      </trkpt>
      <trkpt lat="44.68836" lon="5.91376">
        <ele>1585.2</ele>
        <time>2015-07-01T09:47:41Z</time>
      </trkpt>
      <trkpt lat="44.68832" lon="5.91373">
        <ele>1585.6</ele>
        <time>2015-07-01T09:47:46Z</time>
      </trkpt>
      <trkpt lat="44.68826" lon="5.91374">
        <ele>1587.1</ele>
        <time>2015-07-01T09:47:51Z</time>
      </trkpt>
      <trkpt lat="44.68821" lon="5.91374">
        <ele>1590.3</ele>
        <time>2015-07-01T09:47:56Z</time>
      </trkpt>
      <trkpt lat="44.68815" lon="5.91373">
        <ele>1592.4</ele>
        <time>2015-07-01T09:48:01Z</time>
      </trkpt>
      <trkpt lat="44.68809" lon="5.91374">
        <ele>1594.2</ele>
        <time>2015-07-01T09:48:06Z</time>
      </trkpt>
      <trkpt lat="44.68805" lon="5.91374">
        <ele>1595.2</ele>
        <time>2015-07-01T09:48:11Z</time>
      </trkpt>
      <trkpt lat="44.68806" lon="5.91374">
        <ele>1595.9</ele>
        <time>2015-07-01T09:48:16Z</time>
      </trkpt>
      <trkpt lat="44.68805" lon="5.91373">
        <ele>1595.7</ele>
        <time>2015-07-01T09:48:21Z</time>
      </trkpt>
      <trkpt lat="44.68805" lon="5.91374">
        <ele>1596.8</ele>
        <time>2015-07-01T09:48:26Z</time>
      </trkpt>
      <trkpt lat="44.68802" lon="5.91374">
        <ele>1598.6</ele>
        <time>2015-07-01T09:48:31Z</time>
      </trkpt>
      <trkpt lat="44.68796" lon="5.91374">
        <ele>1599.1</ele>
        <time>2015-07-01T09:48:36Z</time>
      </trkpt>
      <trkpt lat="44.6879" lon="5.91376">
        <ele>1599.7</ele>
        <time>2015-07-01T09:48:41Z</time>
      </trkpt>
      <trkpt lat="44.68785" lon="5.91378">
        <ele>1600.4</ele>
        <time>2015-07-01T09:48:46Z</time>
      </trkpt>
      <trkpt lat="44.68784" lon="5.9138">
        <ele>1596.9</ele>
        <time>2015-07-01T09:48:51Z</time>
      </trkpt>
      <trkpt lat="44.68784" lon="5.91379">
        <ele>1595.7</ele>
        <time>2015-07-01T09:48:56Z</time>
      </trkpt>
      <trkpt lat="44.6878" lon="5.91378">
        <ele>1597.8</ele>
        <time>2015-07-01T09:49:01Z</time>
      </trkpt>
      <trkpt lat="44.68774" lon="5.91379">
        <ele>1600.2</ele>
        <time>2015-07-01T09:49:06Z</time>
      </trkpt>
      <trkpt lat="44.68768" lon="5.9138">
        <ele>1603</ele>
        <time>2015-07-01T09:49:11Z</time>
      </trkpt>
      <trkpt lat="44.68762" lon="5.91384">
        <ele>1604.5</ele>
        <time>2015-07-01T09:49:16Z</time>
      </trkpt>
      <trkpt lat="44.68757" lon="5.91386">
        <ele>1606.8</ele>
        <time>2015-07-01T09:49:21Z</time>
      </trkpt>
      <trkpt lat="44.68756" lon="5.91388">
        <ele>1607.1</ele>
        <time>2015-07-01T09:49:26Z</time>
      </trkpt>
      <trkpt lat="44.68752" lon="5.91394">
        <ele>1608.5</ele>
        <time>2015-07-01T09:49:31Z</time>
      </trkpt>
      <trkpt lat="44.68747" lon="5.91401">
        <ele>1611.2</ele>
        <time>2015-07-01T09:49:36Z</time>
      </trkpt>
      <trkpt lat="44.68742" lon="5.91399">
        <ele>1613.2</ele>
        <time>2015-07-01T09:49:41Z</time>
      </trkpt>
      <trkpt lat="44.68739" lon="5.91392">
        <ele>1613.6</ele>
        <time>2015-07-01T09:49:46Z</time>
      </trkpt>
      <trkpt lat="44.68735" lon="5.91386">
        <ele>1613.6</ele>
        <time>2015-07-01T09:49:51Z</time>
      </trkpt>
      <trkpt lat="44.68731" lon="5.91377">
        <ele>1613.4</ele>
        <time>2015-07-01T09:49:56Z</time>
      </trkpt>
      <trkpt lat="44.68727" lon="5.91372">
        <ele>1613.7</ele>
        <time>2015-07-01T09:50:01Z</time>
      </trkpt>
      <trkpt lat="44.68722" lon="5.91361">
        <ele>1615.2</ele>
        <time>2015-07-01T09:50:06Z</time>
      </trkpt>
      <trkpt lat="44.68718" lon="5.91359">
        <ele>1616.2</ele>
        <time>2015-07-01T09:50:11Z</time>
      </trkpt>
      <trkpt lat="44.68713" lon="5.91358">
        <ele>1617.8</ele>
        <time>2015-07-01T09:50:16Z</time>
      </trkpt>
      <trkpt lat="44.68707" lon="5.91362">
        <ele>1617.4</ele>
        <time>2015-07-01T09:50:21Z</time>
      </trkpt>
      <trkpt lat="44.68702" lon="5.91366">
        <ele>1619.1</ele>
        <time>2015-07-01T09:50:26Z</time>
      </trkpt>
      <trkpt lat="44.68698" lon="5.91372">
        <ele>1618.9</ele>
        <time>2015-07-01T09:50:31Z</time>
      </trkpt>
      <trkpt lat="44.68695" lon="5.9138">
        <ele>1621.5</ele>
        <time>2015-07-01T09:50:36Z</time>
      </trkpt>
      <trkpt lat="44.68692" lon="5.91387">
        <ele>1622.4</ele>
        <time>2015-07-01T09:50:41Z</time>
      </trkpt>
      <trkpt lat="44.68688" lon="5.91392">
        <ele>1622.4</ele>
        <time>2015-07-01T09:50:46Z</time>
      </trkpt>
      <trkpt lat="44.68682" lon="5.91396">
        <ele>1622.2</ele>
        <time>2015-07-01T09:50:51Z</time>
      </trkpt>
      <trkpt lat="44.68677" lon="5.91398">
        <ele>1621.3</ele>
        <time>2015-07-01T09:50:56Z</time>
      </trkpt>
      <trkpt lat="44.68672" lon="5.914">
        <ele>1621.4</ele>
        <time>2015-07-01T09:51:01Z</time>
      </trkpt>
      <trkpt lat="44.68666" lon="5.91401">
        <ele>1621.9</ele>
        <time>2015-07-01T09:51:06Z</time>
      </trkpt>
      <trkpt lat="44.6866" lon="5.91405">
        <ele>1623.1</ele>
        <time>2015-07-01T09:51:11Z</time>
      </trkpt>
      <trkpt lat="44.68657" lon="5.91406">
        <ele>1623.6</ele>
        <time>2015-07-01T09:51:16Z</time>
      </trkpt>
      <trkpt lat="44.68657" lon="5.91406">
        <ele>1624.7</ele>
        <time>2015-07-01T09:51:21Z</time>
      </trkpt>
      <trkpt lat="44.68657" lon="5.91407">
        <ele>1625.4</ele>
        <time>2015-07-01T09:51:26Z</time>
      </trkpt>
      <trkpt lat="44.68657" lon="5.91409">
        <ele>1623.8</ele>
        <time>2015-07-01T09:51:31Z</time>
      </trkpt>
      <trkpt lat="44.68656" lon="5.91409">
        <ele>1623</ele>
        <time>2015-07-01T09:51:36Z</time>
      </trkpt>
      <trkpt lat="44.68656" lon="5.9141">
        <ele>1623.3</ele>
        <time>2015-07-01T09:51:41Z</time>
      </trkpt>
      <trkpt lat="44.68655" lon="5.91411">
        <ele>1623.9</ele>
        <time>2015-07-01T09:51:46Z</time>
      </trkpt>
      <trkpt lat="44.68652" lon="5.91415">
        <ele>1622.3</ele>
        <time>2015-07-01T09:51:51Z</time>
      </trkpt>
      <trkpt lat="44.68647" lon="5.91419">
        <ele>1619.8</ele>
        <time>2015-07-01T09:51:56Z</time>
      </trkpt>
      <trkpt lat="44.68642" lon="5.91421">
        <ele>1617.4</ele>
        <time>2015-07-01T09:52:01Z</time>
      </trkpt>
      <trkpt lat="44.68636" lon="5.91423">
        <ele>1617.7</ele>
        <time>2015-07-01T09:52:06Z</time>
      </trkpt>
      <trkpt lat="44.68631" lon="5.91426">
        <ele>1617</ele>
        <time>2015-07-01T09:52:11Z</time>
      </trkpt>
      <trkpt lat="44.68625" lon="5.91429">
        <ele>1613.8</ele>
        <time>2015-07-01T09:52:16Z</time>
      </trkpt>
      <trkpt lat="44.6862" lon="5.91431">
        <ele>1616.8</ele>
        <time>2015-07-01T09:52:21Z</time>
      </trkpt>
      <trkpt lat="44.68614" lon="5.91434">
        <ele>1618.9</ele>
        <time>2015-07-01T09:52:26Z</time>
      </trkpt>
      <trkpt lat="44.68608" lon="5.91433">
        <ele>1622.6</ele>
        <time>2015-07-01T09:52:31Z</time>
      </trkpt>
      <trkpt lat="44.68605" lon="5.9143">
        <ele>1622.9</ele>
        <time>2015-07-01T09:52:36Z</time>
      </trkpt>
      <trkpt lat="44.68602" lon="5.9143">
        <ele>1625.5</ele>
        <time>2015-07-01T09:52:41Z</time>
      </trkpt>
      <trkpt lat="44.68602" lon="5.9143">
        <ele>1624.1</ele>
        <time>2015-07-01T09:52:46Z</time>
      </trkpt>
      <trkpt lat="44.68602" lon="5.9143">
        <ele>1622.7</ele>
        <time>2015-07-01T09:52:51Z</time>
      </trkpt>
      <trkpt lat="44.68602" lon="5.91432">
        <ele>1625.1</ele>
        <time>2015-07-01T09:52:56Z</time>
      </trkpt>
      <trkpt lat="44.68598" lon="5.91435">
        <ele>1624.9</ele>
        <time>2015-07-01T09:53:01Z</time>
      </trkpt>
      <trkpt lat="44.68598" lon="5.91436">
        <ele>1625.3</ele>
        <time>2015-07-01T09:53:06Z</time>
      </trkpt>
      <trkpt lat="44.68598" lon="5.91435">
        <ele>1626.6</ele>
        <time>2015-07-01T09:53:11Z</time>
      </trkpt>
      <trkpt lat="44.68598" lon="5.91435">
        <ele>1627.7</ele>
        <time>2015-07-01T09:53:16Z</time>
      </trkpt>
      <trkpt lat="44.68599" lon="5.91435">
        <ele>1625.7</ele>
        <time>2015-07-01T09:53:21Z</time>
      </trkpt>
      <trkpt lat="44.68596" lon="5.91436">
        <ele>1627.2</ele>
        <time>2015-07-01T09:53:26Z</time>
      </trkpt>
      <trkpt lat="44.68596" lon="5.91436">
        <ele>1626.5</ele>
        <time>2015-07-01T09:53:31Z</time>
      </trkpt>
      <trkpt lat="44.68596" lon="5.91436">
        <ele>1626.4</ele>
        <time>2015-07-01T09:53:36Z</time>
      </trkpt>
      <trkpt lat="44.68596" lon="5.91435">
        <ele>1623.3</ele>
        <time>2015-07-01T09:53:41Z</time>
      </trkpt>
      <trkpt lat="44.68596" lon="5.91434">
        <ele>1621.6</ele>
        <time>2015-07-01T09:53:46Z</time>
      </trkpt>
      <trkpt lat="44.68597" lon="5.91433">
        <ele>1622.8</ele>
        <time>2015-07-01T09:53:51Z</time>
      </trkpt>
      <trkpt lat="44.68595" lon="5.91432">
        <ele>1622.9</ele>
        <time>2015-07-01T09:53:56Z</time>
      </trkpt>
      <trkpt lat="44.68596" lon="5.91436">
        <ele>1622.4</ele>
        <time>2015-07-01T09:54:01Z</time>
      </trkpt>
      <trkpt lat="44.68597" lon="5.91436">
        <ele>1621.7</ele>
        <time>2015-07-01T09:54:06Z</time>
      </trkpt>
      <trkpt lat="44.68597" lon="5.91436">
        <ele>1621.5</ele>
        <time>2015-07-01T09:54:11Z</time>
      </trkpt>
      <trkpt lat="44.68598" lon="5.91436">
        <ele>1622.2</ele>
        <time>2015-07-01T09:54:16Z</time>
      </trkpt>
      <trkpt lat="44.68599" lon="5.91437">
        <ele>1622.6</ele>
        <time>2015-07-01T09:54:21Z</time>
      </trkpt>
      <trkpt lat="44.68599" lon="5.91437">
        <ele>1623.7</ele>
        <time>2015-07-01T09:54:26Z</time>
      </trkpt>
      <trkpt lat="44.68599" lon="5.91439">
        <ele>1625.6</ele>
        <time>2015-07-01T09:54:31Z</time>
      </trkpt>
      <trkpt lat="44.68599" lon="5.91439">
        <ele>1625.4</ele>
        <time>2015-07-01T09:54:36Z</time>
      </trkpt>
      <trkpt lat="44.68599" lon="5.91438">
        <ele>1624.8</ele>
        <time>2015-07-01T09:54:41Z</time>
      </trkpt>
      <trkpt lat="44.68597" lon="5.91437">
        <ele>1624.7</ele>
        <time>2015-07-01T09:54:46Z</time>
      </trkpt>
      <trkpt lat="44.68596" lon="5.91434">
        <ele>1623.3</ele>
        <time>2015-07-01T09:54:51Z</time>
      </trkpt>
      <trkpt lat="44.68596" lon="5.91432">
        <ele>1625</ele>
        <time>2015-07-01T09:54:56Z</time>
      </trkpt>
      <trkpt lat="44.68596" lon="5.91432">
        <ele>1619.7</ele>
        <time>2015-07-01T09:55:01Z</time>
      </trkpt>
      <trkpt lat="44.68596" lon="5.91434">
        <ele>1618.2</ele>
        <time>2015-07-01T09:55:06Z</time>
      </trkpt>
      <trkpt lat="44.68597" lon="5.91435">
        <ele>1620.5</ele>
        <time>2015-07-01T09:55:13Z</time>
      </trkpt>
      <trkpt lat="44.68595" lon="5.91435">
        <ele>1621.4</ele>
        <time>2015-07-01T09:55:18Z</time>
      </trkpt>
      <trkpt lat="44.68594" lon="5.91434">
        <ele>1621.3</ele>
        <time>2015-07-01T09:55:23Z</time>
      </trkpt>
      <trkpt lat="44.68592" lon="5.91432">
        <ele>1622.8</ele>
        <time>2015-07-01T09:55:28Z</time>
      </trkpt>
      <trkpt lat="44.68593" lon="5.91436">
        <ele>1629.7</ele>
        <time>2015-07-01T09:55:33Z</time>
      </trkpt>
      <trkpt lat="44.68593" lon="5.9144">
        <ele>1631.4</ele>
        <time>2015-07-01T09:55:38Z</time>
      </trkpt>
      <trkpt lat="44.68594" lon="5.91441">
        <ele>1632.8</ele>
        <time>2015-07-01T09:55:43Z</time>
      </trkpt>
      <trkpt lat="44.68592" lon="5.9144">
        <ele>1633.6</ele>
        <time>2015-07-01T09:55:48Z</time>
      </trkpt>
      <trkpt lat="44.6859" lon="5.9144">
        <ele>1634.8</ele>
        <time>2015-07-01T09:55:53Z</time>
      </trkpt>
      <trkpt lat="44.68591" lon="5.91439">
        <ele>1636</ele>
        <time>2015-07-01T09:55:58Z</time>
      </trkpt>
      <trkpt lat="44.68592" lon="5.91437">
        <ele>1634.7</ele>
        <time>2015-07-01T09:56:03Z</time>
      </trkpt>
      <trkpt lat="44.68593" lon="5.91436">
        <ele>1632.8</ele>
        <time>2015-07-01T09:56:08Z</time>
      </trkpt>
      <trkpt lat="44.68596" lon="5.91436">
        <ele>1633.6</ele>
        <time>2015-07-01T09:56:13Z</time>
      </trkpt>
      <trkpt lat="44.68597" lon="5.91436">
        <ele>1630</ele>
        <time>2015-07-01T09:56:18Z</time>
      </trkpt>
      <trkpt lat="44.68599" lon="5.91434">
        <ele>1626.3</ele>
        <time>2015-07-01T09:56:23Z</time>
      </trkpt>
      <trkpt lat="44.68599" lon="5.91433">
        <ele>1623.8</ele>
        <time>2015-07-01T09:56:28Z</time>
      </trkpt>
      <trkpt lat="44.68599" lon="5.91433">
        <ele>1625.5</ele>
        <time>2015-07-01T09:56:33Z</time>
      </trkpt>
      <trkpt lat="44.68601" lon="5.91432">
        <ele>1622.8</ele>
        <time>2015-07-01T09:56:38Z</time>
      </trkpt>
      <trkpt lat="44.68601" lon="5.91433">
        <ele>1622.9</ele>
        <time>2015-07-01T09:56:43Z</time>
      </trkpt>
      <trkpt lat="44.68603" lon="5.91435">
        <ele>1625.6</ele>
        <time>2015-07-01T09:56:50Z</time>
      </trkpt>
      <trkpt lat="44.68602" lon="5.91433">
        <ele>1624.4</ele>
        <time>2015-07-01T09:56:55Z</time>
      </trkpt>
      <trkpt lat="44.68601" lon="5.91432">
        <ele>1625.9</ele>
        <time>2015-07-01T09:57:00Z</time>
      </trkpt>
      <trkpt lat="44.68603" lon="5.91432">
        <ele>1624</ele>
        <time>2015-07-01T09:57:05Z</time>
      </trkpt>
      <trkpt lat="44.68602" lon="5.91433">
        <ele>1626</ele>
        <time>2015-07-01T09:57:10Z</time>
      </trkpt>
      <trkpt lat="44.68602" lon="5.91434">
        <ele>1626.6</ele>
        <time>2015-07-01T09:57:15Z</time>
      </trkpt>
      <trkpt lat="44.68599" lon="5.91433">
        <ele>1627.6</ele>
        <time>2015-07-01T09:57:20Z</time>
      </trkpt>
      <trkpt lat="44.68599" lon="5.91433">
        <ele>1626.2</ele>
        <time>2015-07-01T09:57:25Z</time>
      </trkpt>
      <trkpt lat="44.68602" lon="5.91433">
        <ele>1625.7</ele>
        <time>2015-07-01T09:57:30Z</time>
      </trkpt>
      <trkpt lat="44.68599" lon="5.91435">
        <ele>1629.1</ele>
        <time>2015-07-01T09:57:35Z</time>
      </trkpt>
      <trkpt lat="44.68599" lon="5.91435">
        <ele>1628.3</ele>
        <time>2015-07-01T09:57:40Z</time>
      </trkpt>
      <trkpt lat="44.68598" lon="5.91434">
        <ele>1625.7</ele>
        <time>2015-07-01T09:57:45Z</time>
      </trkpt>
      <trkpt lat="44.68597" lon="5.91433">
        <ele>1622.9</ele>
        <time>2015-07-01T09:57:50Z</time>
      </trkpt>
      <trkpt lat="44.68598" lon="5.91433">
        <ele>1622.1</ele>
        <time>2015-07-01T09:57:55Z</time>
      </trkpt>
      <trkpt lat="44.686" lon="5.91433">
        <ele>1623.4</ele>
        <time>2015-07-01T09:58:00Z</time>
      </trkpt>
      <trkpt lat="44.68597" lon="5.91433">
        <ele>1624.5</ele>
        <time>2015-07-01T09:58:05Z</time>
      </trkpt>
      <trkpt lat="44.68597" lon="5.91434">
        <ele>1624.5</ele>
        <time>2015-07-01T09:58:10Z</time>
      </trkpt>
      <trkpt lat="44.68599" lon="5.91436">
        <ele>1624.5</ele>
        <time>2015-07-01T09:58:15Z</time>
      </trkpt>
      <trkpt lat="44.686" lon="5.91436">
        <ele>1620.6</ele>
        <time>2015-07-01T09:58:20Z</time>
      </trkpt>
      <trkpt lat="44.68598" lon="5.9144">
        <ele>1623.8</ele>
        <time>2015-07-01T09:58:25Z</time>
      </trkpt>
      <trkpt lat="44.68595" lon="5.91445">
        <ele>1627.7</ele>
        <time>2015-07-01T09:58:30Z</time>
      </trkpt>
      <trkpt lat="44.68593" lon="5.91446">
        <ele>1626.5</ele>
        <time>2015-07-01T09:58:37Z</time>
      </trkpt>
      <trkpt lat="44.68592" lon="5.91442">
        <ele>1626.1</ele>
        <time>2015-07-01T09:58:42Z</time>
      </trkpt>
      <trkpt lat="44.68589" lon="5.91439">
        <ele>1626.1</ele>
        <time>2015-07-01T09:58:47Z</time>
      </trkpt>
      <trkpt lat="44.68587" lon="5.91438">
        <ele>1628.5</ele>
        <time>2015-07-01T09:58:52Z</time>
      </trkpt>
      <trkpt lat="44.68585" lon="5.91439">
        <ele>1630.9</ele>
        <time>2015-07-01T09:58:57Z</time>
      </trkpt>
      <trkpt lat="44.68588" lon="5.9144">
        <ele>1629.9</ele>
        <time>2015-07-01T09:59:02Z</time>
      </trkpt>
      <trkpt lat="44.68589" lon="5.91439">
        <ele>1631.7</ele>
        <time>2015-07-01T09:59:07Z</time>
      </trkpt>
      <trkpt lat="44.68588" lon="5.91437">
        <ele>1628.1</ele>
        <time>2015-07-01T09:59:12Z</time>
      </trkpt>
      <trkpt lat="44.68588" lon="5.91438">
        <ele>1626.3</ele>
        <time>2015-07-01T09:59:17Z</time>
      </trkpt>
      <trkpt lat="44.68591" lon="5.91442">
        <ele>1627.9</ele>
        <time>2015-07-01T09:59:24Z</time>
      </trkpt>
      <trkpt lat="44.68592" lon="5.91444">
        <ele>1625.4</ele>
        <time>2015-07-01T09:59:29Z</time>
      </trkpt>
      <trkpt lat="44.68595" lon="5.91447">
        <ele>1631.2</ele>
        <time>2015-07-01T09:59:34Z</time>
      </trkpt>
      <trkpt lat="44.68596" lon="5.91446">
        <ele>1629.3</ele>
        <time>2015-07-01T09:59:39Z</time>
      </trkpt>
      <trkpt lat="44.68596" lon="5.91445">
        <ele>1627.6</ele>
        <time>2015-07-01T09:59:44Z</time>
      </trkpt>
      <trkpt lat="44.68598" lon="5.91444">
        <ele>1624.7</ele>
        <time>2015-07-01T09:59:49Z</time>
      </trkpt>
      <trkpt lat="44.68597" lon="5.91443">
        <ele>1622.8</ele>
        <time>2015-07-01T09:59:54Z</time>
      </trkpt>
      <trkpt lat="44.68595" lon="5.9144">
        <ele>1623.3</ele>
        <time>2015-07-01T09:59:59Z</time>
      </trkpt>
      <trkpt lat="44.68595" lon="5.91441">
        <ele>1625.3</ele>
        <time>2015-07-01T10:00:04Z</time>
      </trkpt>
      <trkpt lat="44.68594" lon="5.9144">
        <ele>1626.7</ele>
        <time>2015-07-01T10:00:09Z</time>
      </trkpt>
      <trkpt lat="44.68593" lon="5.91437">
        <ele>1625</ele>
        <time>2015-07-01T10:00:14Z</time>
      </trkpt>
      <trkpt lat="44.68594" lon="5.91444">
        <ele>1624.5</ele>
        <time>2015-07-01T10:00:19Z</time>
      </trkpt>
      <trkpt lat="44.68592" lon="5.91454">
        <ele>1629.2</ele>
        <time>2015-07-01T10:00:24Z</time>
      </trkpt>
      <trkpt lat="44.68598" lon="5.91443">
        <ele>1624.2</ele>
        <time>2015-07-01T10:00:29Z</time>
      </trkpt>
      <trkpt lat="44.68599" lon="5.91441">
        <ele>1625.6</ele>
        <time>2015-07-01T10:00:34Z</time>
      </trkpt>
      <trkpt lat="44.68597" lon="5.91449">
        <ele>1634.1</ele>
        <time>2015-07-01T10:00:39Z</time>
      </trkpt>
      <trkpt lat="44.68593" lon="5.91453">
        <ele>1637.5</ele>
        <time>2015-07-01T10:00:44Z</time>
      </trkpt>
      <trkpt lat="44.68596" lon="5.91457">
        <ele>1636.6</ele>
        <time>2015-07-01T10:00:49Z</time>
      </trkpt>
      <trkpt lat="44.68595" lon="5.91454">
        <ele>1635</ele>
        <time>2015-07-01T10:00:54Z</time>
      </trkpt>
      <trkpt lat="44.68594" lon="5.91451">
        <ele>1634.4</ele>
        <time>2015-07-01T10:00:59Z</time>
      </trkpt>
      <trkpt lat="44.68594" lon="5.91447">
        <ele>1633.8</ele>
        <time>2015-07-01T10:01:04Z</time>
      </trkpt>
      <trkpt lat="44.68594" lon="5.91443">
        <ele>1627.9</ele>
        <time>2015-07-01T10:01:09Z</time>
      </trkpt>
      <trkpt lat="44.68594" lon="5.91438">
        <ele>1624.2</ele>
        <time>2015-07-01T10:01:14Z</time>
      </trkpt>
      <trkpt lat="44.68595" lon="5.91437">
        <ele>1627.2</ele>
        <time>2015-07-01T10:01:19Z</time>
      </trkpt>
      <trkpt lat="44.68595" lon="5.91437">
        <ele>1629.9</ele>
        <time>2015-07-01T10:01:24Z</time>
      </trkpt>
      <trkpt lat="44.68591" lon="5.91438">
        <ele>1631.5</ele>
        <time>2015-07-01T10:01:29Z</time>
      </trkpt>
      <trkpt lat="44.68591" lon="5.91438">
        <ele>1635.2</ele>
        <time>2015-07-01T10:01:34Z</time>
      </trkpt>
      <trkpt lat="44.68588" lon="5.91441">
        <ele>1641.6</ele>
        <time>2015-07-01T10:01:39Z</time>
      </trkpt>
      <trkpt lat="44.68586" lon="5.91439">
        <ele>1642</ele>
        <time>2015-07-01T10:01:44Z</time>
      </trkpt>
      <trkpt lat="44.68586" lon="5.9144">
        <ele>1640.7</ele>
        <time>2015-07-01T10:01:50Z</time>
      </trkpt>
      <trkpt lat="44.68593" lon="5.91443">
        <ele>1637.6</ele>
        <time>2015-07-01T10:01:55Z</time>
      </trkpt>
      <trkpt lat="44.68601" lon="5.91446">
        <ele>1638.2</ele>
        <time>2015-07-01T10:02:00Z</time>
      </trkpt>
      <trkpt lat="44.68602" lon="5.91443">
        <ele>1633.8</ele>
        <time>2015-07-01T10:02:05Z</time>
      </trkpt>
      <trkpt lat="44.68602" lon="5.9144">
        <ele>1629</ele>
        <time>2015-07-01T10:02:10Z</time>
      </trkpt>
      <trkpt lat="44.68605" lon="5.91441">
        <ele>1628</ele>
        <time>2015-07-01T10:02:15Z</time>
      </trkpt>
      <trkpt lat="44.68604" lon="5.9144">
        <ele>1626</ele>
        <time>2015-07-01T10:02:20Z</time>
      </trkpt>
      <trkpt lat="44.68604" lon="5.9144">
        <ele>1623.6</ele>
        <time>2015-07-01T10:02:25Z</time>
      </trkpt>
      <trkpt lat="44.68603" lon="5.91438">
        <ele>1621.2</ele>
        <time>2015-07-01T10:02:30Z</time>
      </trkpt>
      <trkpt lat="44.68603" lon="5.91436">
        <ele>1620.5</ele>
        <time>2015-07-01T10:02:35Z</time>
      </trkpt>
      <trkpt lat="44.68603" lon="5.91436">
        <ele>1621.2</ele>
        <time>2015-07-01T10:02:40Z</time>
      </trkpt>
      <trkpt lat="44.68603" lon="5.91435">
        <ele>1622.2</ele>
        <time>2015-07-01T10:02:45Z</time>
      </trkpt>
      <trkpt lat="44.68602" lon="5.91435">
        <ele>1625.3</ele>
        <time>2015-07-01T10:02:50Z</time>
      </trkpt>
      <trkpt lat="44.68602" lon="5.91435">
        <ele>1623</ele>
        <time>2015-07-01T10:02:55Z</time>
      </trkpt>
      <trkpt lat="44.68602" lon="5.91435">
        <ele>1620.2</ele>
        <time>2015-07-01T10:03:00Z</time>
      </trkpt>
      <trkpt lat="44.68602" lon="5.91436">
        <ele>1619.5</ele>
        <time>2015-07-01T10:03:05Z</time>
      </trkpt>
      <trkpt lat="44.68602" lon="5.91435">
        <ele>1620.1</ele>
        <time>2015-07-01T10:03:10Z</time>
      </trkpt>
      <trkpt lat="44.68602" lon="5.91437">
        <ele>1625.1</ele>
        <time>2015-07-01T10:03:15Z</time>
      </trkpt>
      <trkpt lat="44.68602" lon="5.91434">
        <ele>1621.7</ele>
        <time>2015-07-01T10:03:20Z</time>
      </trkpt>
      <trkpt lat="44.68601" lon="5.91433">
        <ele>1622.7</ele>
        <time>2015-07-01T10:03:25Z</time>
      </trkpt>
      <trkpt lat="44.68603" lon="5.91433">
        <ele>1624.3</ele>
        <time>2015-07-01T10:03:30Z</time>
      </trkpt>
      <trkpt lat="44.68602" lon="5.9143">
        <ele>1624.3</ele>
        <time>2015-07-01T10:03:35Z</time>
      </trkpt>
      <trkpt lat="44.68603" lon="5.91432">
        <ele>1626.9</ele>
        <time>2015-07-01T10:03:40Z</time>
      </trkpt>
      <trkpt lat="44.68601" lon="5.91435">
        <ele>1626.9</ele>
        <time>2015-07-01T10:03:45Z</time>
      </trkpt>
      <trkpt lat="44.68599" lon="5.91433">
        <ele>1623.2</ele>
        <time>2015-07-01T10:03:50Z</time>
      </trkpt>
      <trkpt lat="44.686" lon="5.9143">
        <ele>1617.5</ele>
        <time>2015-07-01T10:03:55Z</time>
      </trkpt>
      <trkpt lat="44.68599" lon="5.9143">
        <ele>1618.4</ele>
        <time>2015-07-01T10:04:00Z</time>
      </trkpt>
      <trkpt lat="44.68597" lon="5.91433">
        <ele>1622.5</ele>
        <time>2015-07-01T10:04:05Z</time>
      </trkpt>
      <trkpt lat="44.68596" lon="5.91434">
        <ele>1624.8</ele>
        <time>2015-07-01T10:04:10Z</time>
      </trkpt>
      <trkpt lat="44.68601" lon="5.91437">
        <ele>1625.7</ele>
        <time>2015-07-01T10:04:15Z</time>
      </trkpt>
      <trkpt lat="44.68601" lon="5.91437">
        <ele>1625.3</ele>
        <time>2015-07-01T10:04:20Z</time>
      </trkpt>
      <trkpt lat="44.68601" lon="5.91434">
        <ele>1619.7</ele>
        <time>2015-07-01T10:04:25Z</time>
      </trkpt>
      <trkpt lat="44.68601" lon="5.91433">
        <ele>1614.7</ele>
        <time>2015-07-01T10:04:30Z</time>
      </trkpt>
      <trkpt lat="44.68601" lon="5.91432">
        <ele>1615.1</ele>
        <time>2015-07-01T10:04:36Z</time>
      </trkpt>
      <trkpt lat="44.68602" lon="5.91434">
        <ele>1619.8</ele>
        <time>2015-07-01T10:04:41Z</time>
      </trkpt>
      <trkpt lat="44.68599" lon="5.91433">
        <ele>1620.2</ele>
        <time>2015-07-01T10:04:46Z</time>
      </trkpt>
      <trkpt lat="44.68598" lon="5.91434">
        <ele>1621.4</ele>
        <time>2015-07-01T10:04:51Z</time>
      </trkpt>
      <trkpt lat="44.686" lon="5.91437">
        <ele>1621.7</ele>
        <time>2015-07-01T10:04:56Z</time>
      </trkpt>
      <trkpt lat="44.68596" lon="5.9144">
        <ele>1625.5</ele>
        <time>2015-07-01T10:05:01Z</time>
      </trkpt>
      <trkpt lat="44.68596" lon="5.9144">
        <ele>1627.8</ele>
        <time>2015-07-01T10:05:06Z</time>
      </trkpt>
      <trkpt lat="44.68593" lon="5.91442">
        <ele>1630.7</ele>
        <time>2015-07-01T10:05:11Z</time>
      </trkpt>
      <trkpt lat="44.68589" lon="5.91444">
        <ele>1628.6</ele>
        <time>2015-07-01T10:05:16Z</time>
      </trkpt>
      <trkpt lat="44.68588" lon="5.91447">
        <ele>1629.6</ele>
        <time>2015-07-01T10:05:21Z</time>
      </trkpt>
      <trkpt lat="44.68589" lon="5.91449">
        <ele>1630.7</ele>
        <time>2015-07-01T10:05:26Z</time>
      </trkpt>
      <trkpt lat="44.68592" lon="5.91444">
        <ele>1627.3</ele>
        <time>2015-07-01T10:05:31Z</time>
      </trkpt>
      <trkpt lat="44.68592" lon="5.91441">
        <ele>1624.3</ele>
        <time>2015-07-01T10:05:36Z</time>
      </trkpt>
      <trkpt lat="44.68591" lon="5.91436">
        <ele>1622.4</ele>
        <time>2015-07-01T10:05:43Z</time>
      </trkpt>
      <trkpt lat="44.68594" lon="5.91433">
        <ele>1618.9</ele>
        <time>2015-07-01T10:05:48Z</time>
      </trkpt>
      <trkpt lat="44.68596" lon="5.91431">
        <ele>1613.2</ele>
        <time>2015-07-01T10:05:53Z</time>
      </trkpt>
      <trkpt lat="44.68597" lon="5.9143">
        <ele>1612</ele>
        <time>2015-07-01T10:05:58Z</time>
      </trkpt>
      <trkpt lat="44.68597" lon="5.91431">
        <ele>1612.8</ele>
        <time>2015-07-01T10:06:03Z</time>
      </trkpt>
      <trkpt lat="44.68597" lon="5.91432">
        <ele>1613.8</ele>
        <time>2015-07-01T10:06:08Z</time>
      </trkpt>
      <trkpt lat="44.68597" lon="5.91432">
        <ele>1614.7</ele>
        <time>2015-07-01T10:06:13Z</time>
      </trkpt>
      <trkpt lat="44.68597" lon="5.91433">
        <ele>1615.8</ele>
        <time>2015-07-01T10:06:18Z</time>
      </trkpt>
      <trkpt lat="44.68596" lon="5.91434">
        <ele>1616.5</ele>
        <time>2015-07-01T10:06:23Z</time>
      </trkpt>
      <trkpt lat="44.68596" lon="5.91434">
        <ele>1616.9</ele>
        <time>2015-07-01T10:06:28Z</time>
      </trkpt>
      <trkpt lat="44.68596" lon="5.91435">
        <ele>1617.1</ele>
        <time>2015-07-01T10:06:33Z</time>
      </trkpt>
      <trkpt lat="44.68596" lon="5.91435">
        <ele>1616.8</ele>
        <time>2015-07-01T10:06:38Z</time>
      </trkpt>
      <trkpt lat="44.68596" lon="5.91436">
        <ele>1616.8</ele>
        <time>2015-07-01T10:06:43Z</time>
      </trkpt>
      <trkpt lat="44.68596" lon="5.91436">
        <ele>1616.5</ele>
        <time>2015-07-01T10:06:48Z</time>
      </trkpt>
      <trkpt lat="44.68596" lon="5.91437">
        <ele>1615.3</ele>
        <time>2015-07-01T10:06:53Z</time>
      </trkpt>
      <trkpt lat="44.68597" lon="5.91437">
        <ele>1613.9</ele>
        <time>2015-07-01T10:06:58Z</time>
      </trkpt>
      <trkpt lat="44.68597" lon="5.91435">
        <ele>1613.5</ele>
        <time>2015-07-01T10:07:03Z</time>
      </trkpt>
      <trkpt lat="44.68598" lon="5.91434">
        <ele>1610.5</ele>
        <time>2015-07-01T10:07:08Z</time>
      </trkpt>
      <trkpt lat="44.68596" lon="5.91439">
        <ele>1615.8</ele>
        <time>2015-07-01T10:07:13Z</time>
      </trkpt>
      <trkpt lat="44.68595" lon="5.91441">
        <ele>1621.1</ele>
        <time>2015-07-01T10:07:18Z</time>
      </trkpt>
      <trkpt lat="44.68593" lon="5.91441">
        <ele>1623.6</ele>
        <time>2015-07-01T10:07:23Z</time>
      </trkpt>
      <trkpt lat="44.68593" lon="5.91443">
        <ele>1625</ele>
        <time>2015-07-01T10:07:28Z</time>
      </trkpt>
      <trkpt lat="44.68591" lon="5.91445">
        <ele>1632.9</ele>
        <time>2015-07-01T10:07:33Z</time>
      </trkpt>
      <trkpt lat="44.68589" lon="5.91447">
        <ele>1636.6</ele>
        <time>2015-07-01T10:07:38Z</time>
      </trkpt>
      <trkpt lat="44.68589" lon="5.91444">
        <ele>1633.1</ele>
        <time>2015-07-01T10:07:43Z</time>
      </trkpt>
      <trkpt lat="44.68591" lon="5.91444">
        <ele>1629.4</ele>
        <time>2015-07-01T10:07:48Z</time>
      </trkpt>
      <trkpt lat="44.68588" lon="5.91446">
        <ele>1633.5</ele>
        <time>2015-07-01T10:07:53Z</time>
      </trkpt>
      <trkpt lat="44.68588" lon="5.91449">
        <ele>1633.5</ele>
        <time>2015-07-01T10:07:58Z</time>
      </trkpt>
      <trkpt lat="44.68589" lon="5.91447">
        <ele>1630.5</ele>
        <time>2015-07-01T10:08:03Z</time>
      </trkpt>
      <trkpt lat="44.68593" lon="5.91442">
        <ele>1624.4</ele>
        <time>2015-07-01T10:08:08Z</time>
      </trkpt>
      <trkpt lat="44.68593" lon="5.91441">
        <ele>1625.8</ele>
        <time>2015-07-01T10:08:13Z</time>
      </trkpt>
      <trkpt lat="44.68593" lon="5.9144">
        <ele>1626</ele>
        <time>2015-07-01T10:08:18Z</time>
      </trkpt>
      <trkpt lat="44.68593" lon="5.91438">
        <ele>1622.6</ele>
        <time>2015-07-01T10:08:23Z</time>
      </trkpt>
      <trkpt lat="44.68592" lon="5.91438">
        <ele>1624.2</ele>
        <time>2015-07-01T10:08:30Z</time>
      </trkpt>
      <trkpt lat="44.68592" lon="5.91438">
        <ele>1627</ele>
        <time>2015-07-01T10:08:35Z</time>
      </trkpt>
      <trkpt lat="44.68593" lon="5.91435">
        <ele>1622.7</ele>
        <time>2015-07-01T10:08:40Z</time>
      </trkpt>
      <trkpt lat="44.68592" lon="5.91437">
        <ele>1624.8</ele>
        <time>2015-07-01T10:08:45Z</time>
      </trkpt>
      <trkpt lat="44.68593" lon="5.9144">
        <ele>1627</ele>
        <time>2015-07-01T10:08:50Z</time>
      </trkpt>
      <trkpt lat="44.68594" lon="5.91442">
        <ele>1626.3</ele>
        <time>2015-07-01T10:08:55Z</time>
      </trkpt>
      <trkpt lat="44.68596" lon="5.91443">
        <ele>1624.9</ele>
        <time>2015-07-01T10:09:00Z</time>
      </trkpt>
      <trkpt lat="44.68597" lon="5.91442">
        <ele>1620.7</ele>
        <time>2015-07-01T10:09:05Z</time>
      </trkpt>
      <trkpt lat="44.68597" lon="5.91442">
        <ele>1625.9</ele>
        <time>2015-07-01T10:09:10Z</time>
      </trkpt>
      <trkpt lat="44.68599" lon="5.91442">
        <ele>1626.8</ele>
        <time>2015-07-01T10:09:15Z</time>
      </trkpt>
      <trkpt lat="44.686" lon="5.91439">
        <ele>1625.5</ele>
        <time>2015-07-01T10:09:20Z</time>
      </trkpt>
      <trkpt lat="44.68601" lon="5.91439">
        <ele>1618.8</ele>
        <time>2015-07-01T10:09:25Z</time>
      </trkpt>
      <trkpt lat="44.68601" lon="5.91439">
        <ele>1614.2</ele>
        <time>2015-07-01T10:09:30Z</time>
      </trkpt>
      <trkpt lat="44.68601" lon="5.91438">
        <ele>1616</ele>
        <time>2015-07-01T10:09:35Z</time>
      </trkpt>
      <trkpt lat="44.68601" lon="5.91439">
        <ele>1608.4</ele>
        <time>2015-07-01T10:09:40Z</time>
      </trkpt>
      <trkpt lat="44.68601" lon="5.91439">
        <ele>1606.2</ele>
        <time>2015-07-01T10:09:45Z</time>
      </trkpt>
      <trkpt lat="44.68601" lon="5.91439">
        <ele>1605.6</ele>
        <time>2015-07-01T10:09:50Z</time>
      </trkpt>
      <trkpt lat="44.686" lon="5.91439">
        <ele>1611.8</ele>
        <time>2015-07-01T10:09:55Z</time>
      </trkpt>
      <trkpt lat="44.686" lon="5.91439">
        <ele>1615.3</ele>
        <time>2015-07-01T10:10:00Z</time>
      </trkpt>
      <trkpt lat="44.68601" lon="5.91438">
        <ele>1617.2</ele>
        <time>2015-07-01T10:10:05Z</time>
      </trkpt>
      <trkpt lat="44.68602" lon="5.91437">
        <ele>1616</ele>
        <time>2015-07-01T10:10:10Z</time>
      </trkpt>
      <trkpt lat="44.68601" lon="5.91438">
        <ele>1616.2</ele>
        <time>2015-07-01T10:10:15Z</time>
      </trkpt>
      <trkpt lat="44.68601" lon="5.91437">
        <ele>1612.7</ele>
        <time>2015-07-01T10:10:20Z</time>
      </trkpt>
      <trkpt lat="44.686" lon="5.91441">
        <ele>1615.9</ele>
        <time>2015-07-01T10:10:25Z</time>
      </trkpt>
      <trkpt lat="44.68597" lon="5.91442">
        <ele>1615.2</ele>
        <time>2015-07-01T10:10:30Z</time>
      </trkpt>
      <trkpt lat="44.68598" lon="5.91442">
        <ele>1618.8</ele>
        <time>2015-07-01T10:10:35Z</time>
      </trkpt>
      <trkpt lat="44.68593" lon="5.91445">
        <ele>1631.3</ele>
        <time>2015-07-01T10:10:40Z</time>
      </trkpt>
      <trkpt lat="44.68592" lon="5.91447">
        <ele>1633.3</ele>
        <time>2015-07-01T10:10:45Z</time>
      </trkpt>
      <trkpt lat="44.68592" lon="5.91454">
        <ele>1637.7</ele>
        <time>2015-07-01T10:10:50Z</time>
      </trkpt>
      <trkpt lat="44.68592" lon="5.91458">
        <ele>1640.9</ele>
        <time>2015-07-01T10:10:55Z</time>
      </trkpt>
      <trkpt lat="44.68591" lon="5.91459">
        <ele>1641.2</ele>
        <time>2015-07-01T10:11:00Z</time>
      </trkpt>
      <trkpt lat="44.68592" lon="5.91458">
        <ele>1639.6</ele>
        <time>2015-07-01T10:11:05Z</time>
      </trkpt>
      <trkpt lat="44.68592" lon="5.91457">
        <ele>1637.5</ele>
        <time>2015-07-01T10:11:10Z</time>
      </trkpt>
      <trkpt lat="44.68594" lon="5.91454">
        <ele>1633.9</ele>
        <time>2015-07-01T10:11:15Z</time>
      </trkpt>
      <trkpt lat="44.68593" lon="5.91452">
        <ele>1631</ele>
        <time>2015-07-01T10:11:20Z</time>
      </trkpt>
      <trkpt lat="44.68592" lon="5.91451">
        <ele>1631.5</ele>
        <time>2015-07-01T10:11:25Z</time>
      </trkpt>
      <trkpt lat="44.68592" lon="5.9145">
        <ele>1632.6</ele>
        <time>2015-07-01T10:11:30Z</time>
      </trkpt>
      <trkpt lat="44.68593" lon="5.91447">
        <ele>1630.8</ele>
        <time>2015-07-01T10:11:35Z</time>
      </trkpt>
      <trkpt lat="44.68598" lon="5.91446">
        <ele>1625.7</ele>
        <time>2015-07-01T10:11:40Z</time>
      </trkpt>
      <trkpt lat="44.68599" lon="5.91444">
        <ele>1621.3</ele>
        <time>2015-07-01T10:11:45Z</time>
      </trkpt>
      <trkpt lat="44.68602" lon="5.91448">
        <ele>1619.8</ele>
        <time>2015-07-01T10:11:50Z</time>
      </trkpt>
      <trkpt lat="44.68603" lon="5.91451">
        <ele>1617.2</ele>
        <time>2015-07-01T10:11:55Z</time>
      </trkpt>
      <trkpt lat="44.68602" lon="5.91443">
        <ele>1614.1</ele>
        <time>2015-07-01T10:12:02Z</time>
      </trkpt>
      <trkpt lat="44.68599" lon="5.91439">
        <ele>1613.2</ele>
        <time>2015-07-01T10:12:07Z</time>
      </trkpt>
      <trkpt lat="44.68596" lon="5.91439">
        <ele>1614.2</ele>
        <time>2015-07-01T10:12:12Z</time>
      </trkpt>
      <trkpt lat="44.68599" lon="5.91443">
        <ele>1613.5</ele>
        <time>2015-07-01T10:12:17Z</time>
      </trkpt>
      <trkpt lat="44.68602" lon="5.91444">
        <ele>1610</ele>
        <time>2015-07-01T10:12:22Z</time>
      </trkpt>
      <trkpt lat="44.68607" lon="5.91445">
        <ele>1603.3</ele>
        <time>2015-07-01T10:12:27Z</time>
      </trkpt>
      <trkpt lat="44.68607" lon="5.91444">
        <ele>1598.5</ele>
        <time>2015-07-01T10:12:32Z</time>
      </trkpt>
      <trkpt lat="44.68605" lon="5.91448">
        <ele>1612</ele>
        <time>2015-07-01T10:12:37Z</time>
      </trkpt>
      <trkpt lat="44.68599" lon="5.91442">
        <ele>1620.6</ele>
        <time>2015-07-01T10:12:42Z</time>
      </trkpt>
      <trkpt lat="44.68596" lon="5.9144">
        <ele>1626.6</ele>
        <time>2015-07-01T10:12:47Z</time>
      </trkpt>
      <trkpt lat="44.68596" lon="5.91441">
        <ele>1627.9</ele>
        <time>2015-07-01T10:12:52Z</time>
      </trkpt>
      <trkpt lat="44.68597" lon="5.91441">
        <ele>1625.4</ele>
        <time>2015-07-01T10:12:57Z</time>
      </trkpt>
      <trkpt lat="44.68597" lon="5.91442">
        <ele>1619.8</ele>
        <time>2015-07-01T10:13:02Z</time>
      </trkpt>
      <trkpt lat="44.68598" lon="5.91446">
        <ele>1617</ele>
        <time>2015-07-01T10:13:07Z</time>
      </trkpt>
      <trkpt lat="44.68596" lon="5.91446">
        <ele>1619.7</ele>
        <time>2015-07-01T10:13:12Z</time>
      </trkpt>
      <trkpt lat="44.68594" lon="5.91445">
        <ele>1622.4</ele>
        <time>2015-07-01T10:13:17Z</time>
      </trkpt>
      <trkpt lat="44.68595" lon="5.91446">
        <ele>1620.3</ele>
        <time>2015-07-01T10:13:22Z</time>
      </trkpt>
      <trkpt lat="44.68595" lon="5.91449">
        <ele>1623.3</ele>
        <time>2015-07-01T10:13:27Z</time>
      </trkpt>
      <trkpt lat="44.68594" lon="5.91449">
        <ele>1623.4</ele>
        <time>2015-07-01T10:13:32Z</time>
      </trkpt>
      <trkpt lat="44.68595" lon="5.91452">
        <ele>1626</ele>
        <time>2015-07-01T10:13:37Z</time>
      </trkpt>
      <trkpt lat="44.68591" lon="5.9145">
        <ele>1631.8</ele>
        <time>2015-07-01T10:13:42Z</time>
      </trkpt>
      <trkpt lat="44.68587" lon="5.91447">
        <ele>1635.2</ele>
        <time>2015-07-01T10:13:47Z</time>
      </trkpt>
      <trkpt lat="44.68582" lon="5.91448">
        <ele>1644</ele>
        <time>2015-07-01T10:13:52Z</time>
      </trkpt>
      <trkpt lat="44.68585" lon="5.91448">
        <ele>1641.4</ele>
        <time>2015-07-01T10:13:57Z</time>
      </trkpt>
      <trkpt lat="44.68583" lon="5.91449">
        <ele>1643.5</ele>
        <time>2015-07-01T10:14:02Z</time>
      </trkpt>
      <trkpt lat="44.68582" lon="5.9145">
        <ele>1647.2</ele>
        <time>2015-07-01T10:14:07Z</time>
      </trkpt>
      <trkpt lat="44.68586" lon="5.91449">
        <ele>1644</ele>
        <time>2015-07-01T10:14:12Z</time>
      </trkpt>
      <trkpt lat="44.68594" lon="5.91446">
        <ele>1635.3</ele>
        <time>2015-07-01T10:14:20Z</time>
      </trkpt>
      <trkpt lat="44.68593" lon="5.91445">
        <ele>1633</ele>
        <time>2015-07-01T10:14:25Z</time>
      </trkpt>
      <trkpt lat="44.68593" lon="5.91444">
        <ele>1631.5</ele>
        <time>2015-07-01T10:14:30Z</time>
      </trkpt>
      <trkpt lat="44.68594" lon="5.91442">
        <ele>1629.5</ele>
        <time>2015-07-01T10:14:35Z</time>
      </trkpt>
      <trkpt lat="44.68593" lon="5.91442">
        <ele>1628.9</ele>
        <time>2015-07-01T10:14:40Z</time>
      </trkpt>
      <trkpt lat="44.68593" lon="5.91443">
        <ele>1627.3</ele>
        <time>2015-07-01T10:14:45Z</time>
      </trkpt>
      <trkpt lat="44.68593" lon="5.91444">
        <ele>1625.8</ele>
        <time>2015-07-01T10:14:50Z</time>
      </trkpt>
      <trkpt lat="44.68593" lon="5.91444">
        <ele>1624.9</ele>
        <time>2015-07-01T10:14:55Z</time>
      </trkpt>
      <trkpt lat="44.68592" lon="5.91444">
        <ele>1625</ele>
        <time>2015-07-01T10:15:00Z</time>
      </trkpt>
      <trkpt lat="44.68591" lon="5.91444">
        <ele>1624.9</ele>
        <time>2015-07-01T10:15:05Z</time>
      </trkpt>
      <trkpt lat="44.68591" lon="5.91444">
        <ele>1624.3</ele>
        <time>2015-07-01T10:15:10Z</time>
      </trkpt>
      <trkpt lat="44.68591" lon="5.91444">
        <ele>1623.8</ele>
        <time>2015-07-01T10:15:15Z</time>
      </trkpt>
      <trkpt lat="44.68591" lon="5.91444">
        <ele>1623.3</ele>
        <time>2015-07-01T10:15:20Z</time>
      </trkpt>
      <trkpt lat="44.68591" lon="5.91444">
        <ele>1622.9</ele>
        <time>2015-07-01T10:15:25Z</time>
      </trkpt>
      <trkpt lat="44.68591" lon="5.91445">
        <ele>1622.5</ele>
        <time>2015-07-01T10:15:30Z</time>
      </trkpt>
      <trkpt lat="44.68591" lon="5.91445">
        <ele>1622.4</ele>
        <time>2015-07-01T10:15:35Z</time>
      </trkpt>
      <trkpt lat="44.68591" lon="5.91445">
        <ele>1622</ele>
        <time>2015-07-01T10:15:40Z</time>
      </trkpt>
      <trkpt lat="44.68591" lon="5.91445">
        <ele>1621.2</ele>
        <time>2015-07-01T10:15:45Z</time>
      </trkpt>
      <trkpt lat="44.68592" lon="5.91444">
        <ele>1620.1</ele>
        <time>2015-07-01T10:15:50Z</time>
      </trkpt>
      <trkpt lat="44.68593" lon="5.91443">
        <ele>1619.3</ele>
        <time>2015-07-01T10:15:55Z</time>
      </trkpt>
      <trkpt lat="44.68593" lon="5.91442">
        <ele>1618.9</ele>
        <time>2015-07-01T10:16:00Z</time>
      </trkpt>
      <trkpt lat="44.68593" lon="5.91442">
        <ele>1618.5</ele>
        <time>2015-07-01T10:16:05Z</time>
      </trkpt>
      <trkpt lat="44.68593" lon="5.91442">
        <ele>1618.2</ele>
        <time>2015-07-01T10:16:10Z</time>
      </trkpt>
      <trkpt lat="44.68592" lon="5.91443">
        <ele>1622.9</ele>
        <time>2015-07-01T10:16:15Z</time>
      </trkpt>
      <trkpt lat="44.68594" lon="5.91442">
        <ele>1623.1</ele>
        <time>2015-07-01T10:16:20Z</time>
      </trkpt>
      <trkpt lat="44.68596" lon="5.91441">
        <ele>1620.1</ele>
        <time>2015-07-01T10:16:25Z</time>
      </trkpt>
      <trkpt lat="44.68596" lon="5.91441">
        <ele>1618.3</ele>
        <time>2015-07-01T10:16:30Z</time>
      </trkpt>
      <trkpt lat="44.68596" lon="5.91442">
        <ele>1616</ele>
        <time>2015-07-01T10:16:35Z</time>
      </trkpt>
      <trkpt lat="44.68597" lon="5.9144">
        <ele>1614.8</ele>
        <time>2015-07-01T10:16:40Z</time>
      </trkpt>
      <trkpt lat="44.68596" lon="5.9144">
        <ele>1620.9</ele>
        <time>2015-07-01T10:16:45Z</time>
      </trkpt>
      <trkpt lat="44.68595" lon="5.9144">
        <ele>1625.4</ele>
        <time>2015-07-01T10:16:50Z</time>
      </trkpt>
      <trkpt lat="44.68594" lon="5.9144">
        <ele>1627.8</ele>
        <time>2015-07-01T10:16:55Z</time>
      </trkpt>
      <trkpt lat="44.68595" lon="5.91438">
        <ele>1625.4</ele>
        <time>2015-07-01T10:17:00Z</time>
      </trkpt>
      <trkpt lat="44.68595" lon="5.91437">
        <ele>1623.9</ele>
        <time>2015-07-01T10:17:05Z</time>
      </trkpt>
      <trkpt lat="44.68596" lon="5.91438">
        <ele>1624</ele>
        <time>2015-07-01T10:17:10Z</time>
      </trkpt>
      <trkpt lat="44.68595" lon="5.9144">
        <ele>1625.8</ele>
        <time>2015-07-01T10:17:15Z</time>
      </trkpt>
      <trkpt lat="44.68592" lon="5.9144">
        <ele>1622.1</ele>
        <time>2015-07-01T10:17:20Z</time>
      </trkpt>
      <trkpt lat="44.68593" lon="5.9144">
        <ele>1625.1</ele>
        <time>2015-07-01T10:17:25Z</time>
      </trkpt>
      <trkpt lat="44.68588" lon="5.91442">
        <ele>1625.7</ele>
        <time>2015-07-01T10:17:30Z</time>
      </trkpt>
      <trkpt lat="44.68591" lon="5.91443">
        <ele>1621.4</ele>
        <time>2015-07-01T10:17:35Z</time>
      </trkpt>
      <trkpt lat="44.6859" lon="5.91444">
        <ele>1623.2</ele>
        <time>2015-07-01T10:17:40Z</time>
      </trkpt>
      <trkpt lat="44.68591" lon="5.91442">
        <ele>1622.1</ele>
        <time>2015-07-01T10:17:45Z</time>
      </trkpt>
      <trkpt lat="44.68593" lon="5.9144">
        <ele>1621.2</ele>
        <time>2015-07-01T10:17:50Z</time>
      </trkpt>
      <trkpt lat="44.68594" lon="5.9144">
        <ele>1619.7</ele>
        <time>2015-07-01T10:17:55Z</time>
      </trkpt>
      <trkpt lat="44.68598" lon="5.91435">
        <ele>1612.8</ele>
        <time>2015-07-01T10:18:00Z</time>
      </trkpt>
      <trkpt lat="44.68601" lon="5.91433">
        <ele>1608.1</ele>
        <time>2015-07-01T10:18:05Z</time>
      </trkpt>
      <trkpt lat="44.68603" lon="5.91431">
        <ele>1604</ele>
        <time>2015-07-01T10:18:10Z</time>
      </trkpt>
      <trkpt lat="44.68603" lon="5.91431">
        <ele>1603.7</ele>
        <time>2015-07-01T10:18:15Z</time>
      </trkpt>
      <trkpt lat="44.68601" lon="5.91434">
        <ele>1608.6</ele>
        <time>2015-07-01T10:18:20Z</time>
      </trkpt>
      <trkpt lat="44.68597" lon="5.91439">
        <ele>1616.2</ele>
        <time>2015-07-01T10:18:25Z</time>
      </trkpt>
      <trkpt lat="44.68599" lon="5.91441">
        <ele>1611.3</ele>
        <time>2015-07-01T10:18:30Z</time>
      </trkpt>
      <trkpt lat="44.68601" lon="5.9144">
        <ele>1601.1</ele>
        <time>2015-07-01T10:18:35Z</time>
      </trkpt>
      <trkpt lat="44.68599" lon="5.91441">
        <ele>1600.5</ele>
        <time>2015-07-01T10:18:40Z</time>
      </trkpt>
      <trkpt lat="44.686" lon="5.91442">
        <ele>1601.8</ele>
        <time>2015-07-01T10:18:45Z</time>
      </trkpt>
      <trkpt lat="44.68601" lon="5.91438">
        <ele>1600.3</ele>
        <time>2015-07-01T10:18:50Z</time>
      </trkpt>
      <trkpt lat="44.68599" lon="5.91436">
        <ele>1602.6</ele>
        <time>2015-07-01T10:18:55Z</time>
      </trkpt>
      <trkpt lat="44.68599" lon="5.91435">
        <ele>1603.1</ele>
        <time>2015-07-01T10:19:00Z</time>
      </trkpt>
      <trkpt lat="44.68599" lon="5.91435">
        <ele>1601.7</ele>
        <time>2015-07-01T10:19:05Z</time>
      </trkpt>
      <trkpt lat="44.68599" lon="5.91435">
        <ele>1604.3</ele>
        <time>2015-07-01T10:19:10Z</time>
      </trkpt>
      <trkpt lat="44.68595" lon="5.91438">
        <ele>1611.2</ele>
        <time>2015-07-01T10:19:15Z</time>
      </trkpt>
      <trkpt lat="44.68594" lon="5.91438">
        <ele>1614.9</ele>
        <time>2015-07-01T10:19:20Z</time>
      </trkpt>
      <trkpt lat="44.68593" lon="5.91438">
        <ele>1616.7</ele>
        <time>2015-07-01T10:19:25Z</time>
      </trkpt>
      <trkpt lat="44.68593" lon="5.91437">
        <ele>1617.3</ele>
        <time>2015-07-01T10:19:30Z</time>
      </trkpt>
      <trkpt lat="44.68594" lon="5.91437">
        <ele>1617.4</ele>
        <time>2015-07-01T10:19:35Z</time>
      </trkpt>
      <trkpt lat="44.68593" lon="5.91438">
        <ele>1622</ele>
        <time>2015-07-01T10:19:40Z</time>
      </trkpt>
      <trkpt lat="44.68592" lon="5.91438">
        <ele>1624.2</ele>
        <time>2015-07-01T10:19:45Z</time>
      </trkpt>
      <trkpt lat="44.68591" lon="5.91441">
        <ele>1625.9</ele>
        <time>2015-07-01T10:19:50Z</time>
      </trkpt>
      <trkpt lat="44.68589" lon="5.91443">
        <ele>1626.1</ele>
        <time>2015-07-01T10:19:55Z</time>
      </trkpt>
      <trkpt lat="44.68592" lon="5.91443">
        <ele>1624.4</ele>
        <time>2015-07-01T10:20:00Z</time>
      </trkpt>
      <trkpt lat="44.68595" lon="5.9144">
        <ele>1622.5</ele>
        <time>2015-07-01T10:20:05Z</time>
      </trkpt>
      <trkpt lat="44.68598" lon="5.91437">
        <ele>1618.7</ele>
        <time>2015-07-01T10:20:10Z</time>
      </trkpt>
      <trkpt lat="44.686" lon="5.91437">
        <ele>1618.1</ele>
        <time>2015-07-01T10:20:15Z</time>
      </trkpt>
      <trkpt lat="44.68599" lon="5.91438">
        <ele>1620.6</ele>
        <time>2015-07-01T10:20:20Z</time>
      </trkpt>
      <trkpt lat="44.68603" lon="5.91436">
        <ele>1616.4</ele>
        <time>2015-07-01T10:20:25Z</time>
      </trkpt>
      <trkpt lat="44.68606" lon="5.91433">
        <ele>1612.4</ele>
        <time>2015-07-01T10:20:30Z</time>
      </trkpt>
      <trkpt lat="44.68606" lon="5.91434">
        <ele>1615.8</ele>
        <time>2015-07-01T10:20:35Z</time>
      </trkpt>
      <trkpt lat="44.68604" lon="5.91434">
        <ele>1615.7</ele>
        <time>2015-07-01T10:20:40Z</time>
      </trkpt>
      <trkpt lat="44.68603" lon="5.91433">
        <ele>1618.5</ele>
        <time>2015-07-01T10:20:45Z</time>
      </trkpt>
      <trkpt lat="44.68601" lon="5.91434">
        <ele>1616.2</ele>
        <time>2015-07-01T10:20:50Z</time>
      </trkpt>
      <trkpt lat="44.68601" lon="5.91435">
        <ele>1620.9</ele>
        <time>2015-07-01T10:20:55Z</time>
      </trkpt>
      <trkpt lat="44.68601" lon="5.91436">
        <ele>1621.9</ele>
        <time>2015-07-01T10:21:00Z</time>
      </trkpt>
      <trkpt lat="44.68601" lon="5.91437">
        <ele>1621.3</ele>
        <time>2015-07-01T10:21:05Z</time>
      </trkpt>
      <trkpt lat="44.68603" lon="5.91435">
        <ele>1617.1</ele>
        <time>2015-07-01T10:21:10Z</time>
      </trkpt>
      <trkpt lat="44.68604" lon="5.91435">
        <ele>1616.3</ele>
        <time>2015-07-01T10:21:15Z</time>
      </trkpt>
      <trkpt lat="44.68602" lon="5.91436">
        <ele>1617.4</ele>
        <time>2015-07-01T10:21:20Z</time>
      </trkpt>
      <trkpt lat="44.68601" lon="5.91436">
        <ele>1620.1</ele>
        <time>2015-07-01T10:21:25Z</time>
      </trkpt>
      <trkpt lat="44.68602" lon="5.91436">
        <ele>1621.1</ele>
        <time>2015-07-01T10:21:30Z</time>
      </trkpt>
      <trkpt lat="44.68603" lon="5.91437">
        <ele>1622.4</ele>
        <time>2015-07-01T10:21:35Z</time>
      </trkpt>
      <trkpt lat="44.686" lon="5.91438">
        <ele>1625.9</ele>
        <time>2015-07-01T10:21:40Z</time>
      </trkpt>
      <trkpt lat="44.68597" lon="5.91438">
        <ele>1624.3</ele>
        <time>2015-07-01T10:21:45Z</time>
      </trkpt>
      <trkpt lat="44.68595" lon="5.91438">
        <ele>1625.2</ele>
        <time>2015-07-01T10:21:50Z</time>
      </trkpt>
      <trkpt lat="44.68594" lon="5.91438">
        <ele>1625.5</ele>
        <time>2015-07-01T10:21:55Z</time>
      </trkpt>
      <trkpt lat="44.68594" lon="5.91437">
        <ele>1624.8</ele>
        <time>2015-07-01T10:22:00Z</time>
      </trkpt>
      <trkpt lat="44.68593" lon="5.91437">
        <ele>1626.2</ele>
        <time>2015-07-01T10:22:05Z</time>
      </trkpt>
      <trkpt lat="44.68592" lon="5.91436">
        <ele>1628.8</ele>
        <time>2015-07-01T10:22:10Z</time>
      </trkpt>
      <trkpt lat="44.68593" lon="5.91436">
        <ele>1628</ele>
        <time>2015-07-01T10:22:15Z</time>
      </trkpt>
      <trkpt lat="44.68594" lon="5.91436">
        <ele>1627.3</ele>
        <time>2015-07-01T10:22:20Z</time>
      </trkpt>
      <trkpt lat="44.68592" lon="5.91436">
        <ele>1625.5</ele>
        <time>2015-07-01T10:22:25Z</time>
      </trkpt>
      <trkpt lat="44.68595" lon="5.91432">
        <ele>1623.7</ele>
        <time>2015-07-01T10:22:30Z</time>
      </trkpt>
      <trkpt lat="44.68593" lon="5.91433">
        <ele>1625.4</ele>
        <time>2015-07-01T10:22:35Z</time>
      </trkpt>
      <trkpt lat="44.68594" lon="5.91432">
        <ele>1627.5</ele>
        <time>2015-07-01T10:22:40Z</time>
      </trkpt>
      <trkpt lat="44.68595" lon="5.9143">
        <ele>1630.4</ele>
        <time>2015-07-01T10:22:45Z</time>
      </trkpt>
      <trkpt lat="44.68595" lon="5.91429">
        <ele>1633.1</ele>
        <time>2015-07-01T10:22:50Z</time>
      </trkpt>
      <trkpt lat="44.68594" lon="5.9143">
        <ele>1631.8</ele>
        <time>2015-07-01T10:22:55Z</time>
      </trkpt>
      <trkpt lat="44.68594" lon="5.91431">
        <ele>1630.1</ele>
        <time>2015-07-01T10:23:00Z</time>
      </trkpt>
      <trkpt lat="44.68594" lon="5.91432">
        <ele>1628.9</ele>
        <time>2015-07-01T10:23:05Z</time>
      </trkpt>
      <trkpt lat="44.68594" lon="5.91433">
        <ele>1627.5</ele>
        <time>2015-07-01T10:23:10Z</time>
      </trkpt>
      <trkpt lat="44.68594" lon="5.91434">
        <ele>1626.5</ele>
        <time>2015-07-01T10:23:15Z</time>
      </trkpt>
      <trkpt lat="44.68594" lon="5.91434">
        <ele>1625.6</ele>
        <time>2015-07-01T10:23:20Z</time>
      </trkpt>
      <trkpt lat="44.68594" lon="5.91434">
        <ele>1626.5</ele>
        <time>2015-07-01T10:23:25Z</time>
      </trkpt>
      <trkpt lat="44.68594" lon="5.91434">
        <ele>1627.1</ele>
        <time>2015-07-01T10:23:30Z</time>
      </trkpt>
      <trkpt lat="44.68593" lon="5.91437">
        <ele>1627.8</ele>
        <time>2015-07-01T10:23:35Z</time>
      </trkpt>
      <trkpt lat="44.68593" lon="5.91439">
        <ele>1627.1</ele>
        <time>2015-07-01T10:23:40Z</time>
      </trkpt>
      <trkpt lat="44.68594" lon="5.91439">
        <ele>1625.9</ele>
        <time>2015-07-01T10:23:45Z</time>
      </trkpt>
      <trkpt lat="44.68594" lon="5.91437">
        <ele>1623.5</ele>
        <time>2015-07-01T10:23:50Z</time>
      </trkpt>
      <trkpt lat="44.68596" lon="5.91436">
        <ele>1624.2</ele>
        <time>2015-07-01T10:23:55Z</time>
      </trkpt>
      <trkpt lat="44.68594" lon="5.9144">
        <ele>1628.6</ele>
        <time>2015-07-01T10:24:00Z</time>
      </trkpt>
      <trkpt lat="44.68592" lon="5.91443">
        <ele>1629</ele>
        <time>2015-07-01T10:24:05Z</time>
      </trkpt>
      <trkpt lat="44.68593" lon="5.91441">
        <ele>1625.8</ele>
        <time>2015-07-01T10:24:10Z</time>
      </trkpt>
      <trkpt lat="44.68595" lon="5.91439">
        <ele>1621.1</ele>
        <time>2015-07-01T10:24:15Z</time>
      </trkpt>
      <trkpt lat="44.68596" lon="5.91439">
        <ele>1617.8</ele>
        <time>2015-07-01T10:24:20Z</time>
      </trkpt>
      <trkpt lat="44.68596" lon="5.9144">
        <ele>1616.4</ele>
        <time>2015-07-01T10:24:25Z</time>
      </trkpt>
      <trkpt lat="44.68595" lon="5.91442">
        <ele>1623.4</ele>
        <time>2015-07-01T10:24:30Z</time>
      </trkpt>
      <trkpt lat="44.68596" lon="5.91445">
        <ele>1623.4</ele>
        <time>2015-07-01T10:24:35Z</time>
      </trkpt>
      <trkpt lat="44.68596" lon="5.91443">
        <ele>1627.2</ele>
        <time>2015-07-01T10:24:40Z</time>
      </trkpt>
      <trkpt lat="44.68594" lon="5.91442">
        <ele>1631.1</ele>
        <time>2015-07-01T10:24:45Z</time>
      </trkpt>
      <trkpt lat="44.68594" lon="5.91442">
        <ele>1631.9</ele>
        <time>2015-07-01T10:24:50Z</time>
      </trkpt>
      <trkpt lat="44.68595" lon="5.9144">
        <ele>1629.9</ele>
        <time>2015-07-01T10:24:55Z</time>
      </trkpt>
      <trkpt lat="44.68596" lon="5.91436">
        <ele>1628.4</ele>
        <time>2015-07-01T10:25:00Z</time>
      </trkpt>
      <trkpt lat="44.68597" lon="5.91435">
        <ele>1626.3</ele>
        <time>2015-07-01T10:25:05Z</time>
      </trkpt>
      <trkpt lat="44.68599" lon="5.91432">
        <ele>1619.1</ele>
        <time>2015-07-01T10:25:10Z</time>
      </trkpt>
      <trkpt lat="44.68602" lon="5.91429">
        <ele>1610.9</ele>
        <time>2015-07-01T10:25:15Z</time>
      </trkpt>
      <trkpt lat="44.68608" lon="5.91426">
        <ele>1601.4</ele>
        <time>2015-07-01T10:25:20Z</time>
      </trkpt>
      <trkpt lat="44.68609" lon="5.91427">
        <ele>1596</ele>
        <time>2015-07-01T10:25:25Z</time>
      </trkpt>
      <trkpt lat="44.68609" lon="5.9143">
        <ele>1595.6</ele>
        <time>2015-07-01T10:25:30Z</time>
      </trkpt>
      <trkpt lat="44.68605" lon="5.91433">
        <ele>1599.4</ele>
        <time>2015-07-01T10:25:35Z</time>
      </trkpt>
      <trkpt lat="44.68602" lon="5.91435">
        <ele>1601.9</ele>
        <time>2015-07-01T10:25:40Z</time>
      </trkpt>
      <trkpt lat="44.68599" lon="5.91438">
        <ele>1610.4</ele>
        <time>2015-07-01T10:25:45Z</time>
      </trkpt>
      <trkpt lat="44.68597" lon="5.91439">
        <ele>1614.6</ele>
        <time>2015-07-01T10:25:50Z</time>
      </trkpt>
      <trkpt lat="44.68595" lon="5.9144">
        <ele>1617.1</ele>
        <time>2015-07-01T10:25:55Z</time>
      </trkpt>
      <trkpt lat="44.68594" lon="5.91441">
        <ele>1620.1</ele>
        <time>2015-07-01T10:26:00Z</time>
      </trkpt>
      <trkpt lat="44.68595" lon="5.91439">
        <ele>1619.1</ele>
        <time>2015-07-01T10:26:05Z</time>
      </trkpt>
      <trkpt lat="44.68597" lon="5.9144">
        <ele>1621.6</ele>
        <time>2015-07-01T10:26:10Z</time>
      </trkpt>
      <trkpt lat="44.68599" lon="5.91437">
        <ele>1622.9</ele>
        <time>2015-07-01T10:26:15Z</time>
      </trkpt>
      <trkpt lat="44.68601" lon="5.91437">
        <ele>1624</ele>
        <time>2015-07-01T10:26:20Z</time>
      </trkpt>
      <trkpt lat="44.68602" lon="5.91434">
        <ele>1619.7</ele>
        <time>2015-07-01T10:26:25Z</time>
      </trkpt>
      <trkpt lat="44.68602" lon="5.91433">
        <ele>1616.5</ele>
        <time>2015-07-01T10:26:30Z</time>
      </trkpt>
      <trkpt lat="44.68602" lon="5.91431">
        <ele>1612.5</ele>
        <time>2015-07-01T10:26:35Z</time>
      </trkpt>
      <trkpt lat="44.68599" lon="5.91432">
        <ele>1613.7</ele>
        <time>2015-07-01T10:26:40Z</time>
      </trkpt>
      <trkpt lat="44.68598" lon="5.91433">
        <ele>1612</ele>
        <time>2015-07-01T10:26:45Z</time>
      </trkpt>
      <trkpt lat="44.68601" lon="5.91432">
        <ele>1609.3</ele>
        <time>2015-07-01T10:26:50Z</time>
      </trkpt>
      <trkpt lat="44.68602" lon="5.9143">
        <ele>1606.6</ele>
        <time>2015-07-01T10:26:55Z</time>
      </trkpt>
      <trkpt lat="44.68602" lon="5.9143">
        <ele>1605</ele>
        <time>2015-07-01T10:27:00Z</time>
      </trkpt>
      <trkpt lat="44.68602" lon="5.9143">
        <ele>1608.5</ele>
        <time>2015-07-01T10:27:05Z</time>
      </trkpt>
      <trkpt lat="44.68601" lon="5.91431">
        <ele>1608.6</ele>
        <time>2015-07-01T10:27:10Z</time>
      </trkpt>
      <trkpt lat="44.68599" lon="5.91433">
        <ele>1613.1</ele>
        <time>2015-07-01T10:27:15Z</time>
      </trkpt>
      <trkpt lat="44.68599" lon="5.91435">
        <ele>1615.3</ele>
        <time>2015-07-01T10:27:20Z</time>
      </trkpt>
      <trkpt lat="44.68599" lon="5.91435">
        <ele>1613.7</ele>
        <time>2015-07-01T10:27:25Z</time>
      </trkpt>
      <trkpt lat="44.68597" lon="5.91437">
        <ele>1618.5</ele>
        <time>2015-07-01T10:27:30Z</time>
      </trkpt>
      <trkpt lat="44.68598" lon="5.9144">
        <ele>1625</ele>
        <time>2015-07-01T10:27:35Z</time>
      </trkpt>
      <trkpt lat="44.68602" lon="5.91441">
        <ele>1626.5</ele>
        <time>2015-07-01T10:27:40Z</time>
      </trkpt>
      <trkpt lat="44.68602" lon="5.91443">
        <ele>1630.8</ele>
        <time>2015-07-01T10:27:45Z</time>
      </trkpt>
      <trkpt lat="44.68603" lon="5.91443">
        <ele>1631.6</ele>
        <time>2015-07-01T10:27:50Z</time>
      </trkpt>
      <trkpt lat="44.686" lon="5.91442">
        <ele>1632.6</ele>
        <time>2015-07-01T10:27:55Z</time>
      </trkpt>
      <trkpt lat="44.686" lon="5.91442">
        <ele>1630.1</ele>
        <time>2015-07-01T10:28:00Z</time>
      </trkpt>
      <trkpt lat="44.686" lon="5.91441">
        <ele>1626.7</ele>
        <time>2015-07-01T10:28:05Z</time>
      </trkpt>
      <trkpt lat="44.68602" lon="5.9144">
        <ele>1626.4</ele>
        <time>2015-07-01T10:28:10Z</time>
      </trkpt>
      <trkpt lat="44.68603" lon="5.91438">
        <ele>1623.3</ele>
        <time>2015-07-01T10:28:15Z</time>
      </trkpt>
      <trkpt lat="44.68602" lon="5.9144">
        <ele>1625.7</ele>
        <time>2015-07-01T10:28:20Z</time>
      </trkpt>
      <trkpt lat="44.68602" lon="5.9144">
        <ele>1626.7</ele>
        <time>2015-07-01T10:28:25Z</time>
      </trkpt>
      <trkpt lat="44.68603" lon="5.91438">
        <ele>1628.1</ele>
        <time>2015-07-01T10:28:30Z</time>
      </trkpt>
      <trkpt lat="44.68606" lon="5.91435">
        <ele>1624.4</ele>
        <time>2015-07-01T10:28:35Z</time>
      </trkpt>
      <trkpt lat="44.68605" lon="5.91433">
        <ele>1623.5</ele>
        <time>2015-07-01T10:28:40Z</time>
      </trkpt>
      <trkpt lat="44.68605" lon="5.91429">
        <ele>1620.4</ele>
        <time>2015-07-01T10:28:45Z</time>
      </trkpt>
      <trkpt lat="44.68604" lon="5.9143">
        <ele>1623.7</ele>
        <time>2015-07-01T10:28:50Z</time>
      </trkpt>
      <trkpt lat="44.68604" lon="5.91431">
        <ele>1623.8</ele>
        <time>2015-07-01T10:28:55Z</time>
      </trkpt>
      <trkpt lat="44.68604" lon="5.91432">
        <ele>1625.7</ele>
        <time>2015-07-01T10:29:00Z</time>
      </trkpt>
      <trkpt lat="44.68606" lon="5.91431">
        <ele>1619.8</ele>
        <time>2015-07-01T10:29:05Z</time>
      </trkpt>
      <trkpt lat="44.68605" lon="5.9143">
        <ele>1615.8</ele>
        <time>2015-07-01T10:29:10Z</time>
      </trkpt>
      <trkpt lat="44.68606" lon="5.91429">
        <ele>1616.2</ele>
        <time>2015-07-01T10:29:15Z</time>
      </trkpt>
      <trkpt lat="44.68605" lon="5.91431">
        <ele>1619.2</ele>
        <time>2015-07-01T10:29:22Z</time>
      </trkpt>
      <trkpt lat="44.68603" lon="5.91431">
        <ele>1625.1</ele>
        <time>2015-07-01T10:29:27Z</time>
      </trkpt>
      <trkpt lat="44.68603" lon="5.91432">
        <ele>1626.2</ele>
        <time>2015-07-01T10:29:32Z</time>
      </trkpt>
      <trkpt lat="44.68605" lon="5.91433">
        <ele>1626.6</ele>
        <time>2015-07-01T10:29:37Z</time>
      </trkpt>
      <trkpt lat="44.68605" lon="5.91432">
        <ele>1627.5</ele>
        <time>2015-07-01T10:29:42Z</time>
      </trkpt>
      <trkpt lat="44.68604" lon="5.91433">
        <ele>1624.3</ele>
        <time>2015-07-01T10:29:47Z</time>
      </trkpt>
      <trkpt lat="44.68603" lon="5.91431">
        <ele>1623</ele>
        <time>2015-07-01T10:29:52Z</time>
      </trkpt>
      <trkpt lat="44.68603" lon="5.91432">
        <ele>1624.2</ele>
        <time>2015-07-01T10:29:57Z</time>
      </trkpt>
      <trkpt lat="44.68608" lon="5.91429">
        <ele>1618.7</ele>
        <time>2015-07-01T10:30:02Z</time>
      </trkpt>
      <trkpt lat="44.6861" lon="5.9143">
        <ele>1616.6</ele>
        <time>2015-07-01T10:30:07Z</time>
      </trkpt>
      <trkpt lat="44.68612" lon="5.91429">
        <ele>1613.9</ele>
        <time>2015-07-01T10:30:12Z</time>
      </trkpt>
      <trkpt lat="44.68612" lon="5.91428">
        <ele>1614.8</ele>
        <time>2015-07-01T10:30:17Z</time>
      </trkpt>
      <trkpt lat="44.68614" lon="5.91427">
        <ele>1617</ele>
        <time>2015-07-01T10:30:22Z</time>
      </trkpt>
      <trkpt lat="44.68612" lon="5.91425">
        <ele>1614.2</ele>
        <time>2015-07-01T10:30:27Z</time>
      </trkpt>
      <trkpt lat="44.6861" lon="5.91425">
        <ele>1615.6</ele>
        <time>2015-07-01T10:30:32Z</time>
      </trkpt>
      <trkpt lat="44.6861" lon="5.91425">
        <ele>1616.1</ele>
        <time>2015-07-01T10:30:37Z</time>
      </trkpt>
      <trkpt lat="44.68612" lon="5.91425">
        <ele>1616.8</ele>
        <time>2015-07-01T10:30:42Z</time>
      </trkpt>
      <trkpt lat="44.6861" lon="5.91427">
        <ele>1622.6</ele>
        <time>2015-07-01T10:30:47Z</time>
      </trkpt>
      <trkpt lat="44.68611" lon="5.91427">
        <ele>1623.3</ele>
        <time>2015-07-01T10:30:52Z</time>
      </trkpt>
      <trkpt lat="44.68612" lon="5.91424">
        <ele>1621.7</ele>
        <time>2015-07-01T10:30:57Z</time>
      </trkpt>
      <trkpt lat="44.68611" lon="5.91428">
        <ele>1632.8</ele>
        <time>2015-07-01T10:31:02Z</time>
      </trkpt>
      <trkpt lat="44.68604" lon="5.91429">
        <ele>1633.6</ele>
        <time>2015-07-01T10:31:07Z</time>
      </trkpt>
      <trkpt lat="44.68602" lon="5.91428">
        <ele>1634</ele>
        <time>2015-07-01T10:31:12Z</time>
      </trkpt>
      <trkpt lat="44.68602" lon="5.91427">
        <ele>1637.1</ele>
        <time>2015-07-01T10:31:17Z</time>
      </trkpt>
      <trkpt lat="44.68606" lon="5.91427">
        <ele>1633.6</ele>
        <time>2015-07-01T10:31:22Z</time>
      </trkpt>
      <trkpt lat="44.68605" lon="5.91429">
        <ele>1630.5</ele>
        <time>2015-07-01T10:31:27Z</time>
      </trkpt>
      <trkpt lat="44.686" lon="5.91432">
        <ele>1628.7</ele>
        <time>2015-07-01T10:31:32Z</time>
      </trkpt>
      <trkpt lat="44.68597" lon="5.91433">
        <ele>1629.1</ele>
        <time>2015-07-01T10:31:38Z</time>
      </trkpt>
      <trkpt lat="44.68596" lon="5.9143">
        <ele>1633.6</ele>
        <time>2015-07-01T10:31:43Z</time>
      </trkpt>
      <trkpt lat="44.68593" lon="5.91429">
        <ele>1635.2</ele>
        <time>2015-07-01T10:31:48Z</time>
      </trkpt>
      <trkpt lat="44.68594" lon="5.91427">
        <ele>1629.2</ele>
        <time>2015-07-01T10:31:53Z</time>
      </trkpt>
      <trkpt lat="44.68596" lon="5.91428">
        <ele>1624</ele>
        <time>2015-07-01T10:31:58Z</time>
      </trkpt>
      <trkpt lat="44.68598" lon="5.91428">
        <ele>1624.5</ele>
        <time>2015-07-01T10:32:03Z</time>
      </trkpt>
      <trkpt lat="44.68597" lon="5.91429">
        <ele>1624.5</ele>
        <time>2015-07-01T10:32:08Z</time>
      </trkpt>
      <trkpt lat="44.68598" lon="5.91433">
        <ele>1625.5</ele>
        <time>2015-07-01T10:32:13Z</time>
      </trkpt>
      <trkpt lat="44.68599" lon="5.91435">
        <ele>1627.2</ele>
        <time>2015-07-01T10:32:18Z</time>
      </trkpt>
      <trkpt lat="44.68599" lon="5.91436">
        <ele>1628.3</ele>
        <time>2015-07-01T10:32:23Z</time>
      </trkpt>
      <trkpt lat="44.68597" lon="5.91435">
        <ele>1626.9</ele>
        <time>2015-07-01T10:32:28Z</time>
      </trkpt>
      <trkpt lat="44.68597" lon="5.91434">
        <ele>1627.9</ele>
        <time>2015-07-01T10:32:33Z</time>
      </trkpt>
      <trkpt lat="44.68597" lon="5.91434">
        <ele>1626.7</ele>
        <time>2015-07-01T10:32:38Z</time>
      </trkpt>
      <trkpt lat="44.68596" lon="5.91435">
        <ele>1626.3</ele>
        <time>2015-07-01T10:32:43Z</time>
      </trkpt>
      <trkpt lat="44.68595" lon="5.91437">
        <ele>1627.4</ele>
        <time>2015-07-01T10:32:48Z</time>
      </trkpt>
      <trkpt lat="44.68594" lon="5.91437">
        <ele>1625</ele>
        <time>2015-07-01T10:32:53Z</time>
      </trkpt>
      <trkpt lat="44.68596" lon="5.91437">
        <ele>1624.4</ele>
        <time>2015-07-01T10:32:58Z</time>
      </trkpt>
      <trkpt lat="44.68596" lon="5.91436">
        <ele>1627.1</ele>
        <time>2015-07-01T10:33:03Z</time>
      </trkpt>
      <trkpt lat="44.68596" lon="5.91436">
        <ele>1630</ele>
        <time>2015-07-01T10:33:08Z</time>
      </trkpt>
      <trkpt lat="44.68599" lon="5.91436">
        <ele>1625.4</ele>
        <time>2015-07-01T10:33:13Z</time>
      </trkpt>
      <trkpt lat="44.68601" lon="5.91436">
        <ele>1621.8</ele>
        <time>2015-07-01T10:33:18Z</time>
      </trkpt>
      <trkpt lat="44.68601" lon="5.91434">
        <ele>1614.9</ele>
        <time>2015-07-01T10:33:23Z</time>
      </trkpt>
      <trkpt lat="44.68599" lon="5.91435">
        <ele>1610.7</ele>
        <time>2015-07-01T10:33:28Z</time>
      </trkpt>
      <trkpt lat="44.68599" lon="5.91434">
        <ele>1610.8</ele>
        <time>2015-07-01T10:33:33Z</time>
      </trkpt>
      <trkpt lat="44.68601" lon="5.91433">
        <ele>1612.9</ele>
        <time>2015-07-01T10:33:38Z</time>
      </trkpt>
      <trkpt lat="44.68599" lon="5.91433">
        <ele>1613.5</ele>
        <time>2015-07-01T10:33:43Z</time>
      </trkpt>
      <trkpt lat="44.68599" lon="5.91433">
        <ele>1615.4</ele>
        <time>2015-07-01T10:33:48Z</time>
      </trkpt>
      <trkpt lat="44.68598" lon="5.91436">
        <ele>1617.4</ele>
        <time>2015-07-01T10:33:53Z</time>
      </trkpt>
      <trkpt lat="44.68597" lon="5.91438">
        <ele>1617.4</ele>
        <time>2015-07-01T10:33:58Z</time>
      </trkpt>
      <trkpt lat="44.68595" lon="5.91438">
        <ele>1618.5</ele>
        <time>2015-07-01T10:34:03Z</time>
      </trkpt>
      <trkpt lat="44.68596" lon="5.91437">
        <ele>1621.1</ele>
        <time>2015-07-01T10:34:08Z</time>
      </trkpt>
      <trkpt lat="44.68595" lon="5.91437">
        <ele>1622</ele>
        <time>2015-07-01T10:34:13Z</time>
      </trkpt>
      <trkpt lat="44.68595" lon="5.91437">
        <ele>1620.8</ele>
        <time>2015-07-01T10:34:18Z</time>
      </trkpt>
      <trkpt lat="44.68597" lon="5.91434">
        <ele>1622.4</ele>
        <time>2015-07-01T10:34:23Z</time>
      </trkpt>
      <trkpt lat="44.68596" lon="5.91433">
        <ele>1625.9</ele>
        <time>2015-07-01T10:34:28Z</time>
      </trkpt>
      <trkpt lat="44.68596" lon="5.91433">
        <ele>1629.1</ele>
        <time>2015-07-01T10:34:33Z</time>
      </trkpt>
      <trkpt lat="44.68595" lon="5.91433">
        <ele>1633.7</ele>
        <time>2015-07-01T10:34:38Z</time>
      </trkpt>
      <trkpt lat="44.68594" lon="5.91433">
        <ele>1637.2</ele>
        <time>2015-07-01T10:34:43Z</time>
      </trkpt>
      <trkpt lat="44.68593" lon="5.91433">
        <ele>1638.9</ele>
        <time>2015-07-01T10:34:48Z</time>
      </trkpt>
      <trkpt lat="44.68593" lon="5.91433">
        <ele>1639.1</ele>
        <time>2015-07-01T10:34:53Z</time>
      </trkpt>
      <trkpt lat="44.68593" lon="5.91433">
        <ele>1639.5</ele>
        <time>2015-07-01T10:34:58Z</time>
      </trkpt>
      <trkpt lat="44.68594" lon="5.91434">
        <ele>1637.5</ele>
        <time>2015-07-01T10:35:03Z</time>
      </trkpt>
      <trkpt lat="44.68597" lon="5.91436">
        <ele>1634.1</ele>
        <time>2015-07-01T10:35:08Z</time>
      </trkpt>
      <trkpt lat="44.68596" lon="5.91437">
        <ele>1631.3</ele>
        <time>2015-07-01T10:35:13Z</time>
      </trkpt>
      <trkpt lat="44.68597" lon="5.91437">
        <ele>1626.6</ele>
        <time>2015-07-01T10:35:18Z</time>
      </trkpt>
      <trkpt lat="44.68597" lon="5.91436">
        <ele>1625</ele>
        <time>2015-07-01T10:35:23Z</time>
      </trkpt>
      <trkpt lat="44.68598" lon="5.91435">
        <ele>1623.5</ele>
        <time>2015-07-01T10:35:28Z</time>
      </trkpt>
      <trkpt lat="44.68599" lon="5.91434">
        <ele>1623.3</ele>
        <time>2015-07-01T10:35:33Z</time>
      </trkpt>
      <trkpt lat="44.68598" lon="5.91433">
        <ele>1621</ele>
        <time>2015-07-01T10:35:38Z</time>
      </trkpt>
      <trkpt lat="44.68597" lon="5.91432">
        <ele>1620.2</ele>
        <time>2015-07-01T10:35:43Z</time>
      </trkpt>
      <trkpt lat="44.68596" lon="5.91434">
        <ele>1621.6</ele>
        <time>2015-07-01T10:35:48Z</time>
      </trkpt>
      <trkpt lat="44.68596" lon="5.91435">
        <ele>1623.7</ele>
        <time>2015-07-01T10:35:53Z</time>
      </trkpt>
      <trkpt lat="44.68597" lon="5.91434">
        <ele>1624.2</ele>
        <time>2015-07-01T10:35:58Z</time>
      </trkpt>
      <trkpt lat="44.68597" lon="5.91434">
        <ele>1626.7</ele>
        <time>2015-07-01T10:36:03Z</time>
      </trkpt>
      <trkpt lat="44.68597" lon="5.91435">
        <ele>1626.3</ele>
        <time>2015-07-01T10:36:08Z</time>
      </trkpt>
      <trkpt lat="44.68596" lon="5.91434">
        <ele>1625.3</ele>
        <time>2015-07-01T10:36:13Z</time>
      </trkpt>
      <trkpt lat="44.68596" lon="5.91435">
        <ele>1624.1</ele>
        <time>2015-07-01T10:36:18Z</time>
      </trkpt>
      <trkpt lat="44.68595" lon="5.91436">
        <ele>1624.6</ele>
        <time>2015-07-01T10:36:23Z</time>
      </trkpt>
      <trkpt lat="44.68599" lon="5.91432">
        <ele>1613.9</ele>
        <time>2015-07-01T10:36:28Z</time>
      </trkpt>
      <trkpt lat="44.68602" lon="5.9143">
        <ele>1610.5</ele>
        <time>2015-07-01T10:36:33Z</time>
      </trkpt>
      <trkpt lat="44.68599" lon="5.91434">
        <ele>1610.2</ele>
        <time>2015-07-01T10:36:38Z</time>
      </trkpt>
      <trkpt lat="44.68599" lon="5.91438">
        <ele>1608.7</ele>
        <time>2015-07-01T10:36:43Z</time>
      </trkpt>
      <trkpt lat="44.68597" lon="5.91438">
        <ele>1612</ele>
        <time>2015-07-01T10:36:48Z</time>
      </trkpt>
      <trkpt lat="44.68594" lon="5.91438">
        <ele>1621</ele>
        <time>2015-07-01T10:36:53Z</time>
      </trkpt>
      <trkpt lat="44.68594" lon="5.91438">
        <ele>1618.9</ele>
        <time>2015-07-01T10:36:58Z</time>
      </trkpt>
      <trkpt lat="44.68595" lon="5.91435">
        <ele>1619.1</ele>
        <time>2015-07-01T10:37:03Z</time>
      </trkpt>
      <trkpt lat="44.68592" lon="5.91433">
        <ele>1618.3</ele>
        <time>2015-07-01T10:37:08Z</time>
      </trkpt>
      <trkpt lat="44.68589" lon="5.9144">
        <ele>1627.7</ele>
        <time>2015-07-01T10:37:13Z</time>
      </trkpt>
      <trkpt lat="44.6859" lon="5.91438">
        <ele>1630</ele>
        <time>2015-07-01T10:37:20Z</time>
      </trkpt>
      <trkpt lat="44.68592" lon="5.91447">
        <ele>1633.7</ele>
        <time>2015-07-01T10:37:25Z</time>
      </trkpt>
      <trkpt lat="44.68594" lon="5.91446">
        <ele>1631.7</ele>
        <time>2015-07-01T10:37:30Z</time>
      </trkpt>
      <trkpt lat="44.68593" lon="5.91446">
        <ele>1630.2</ele>
        <time>2015-07-01T10:37:35Z</time>
      </trkpt>
      <trkpt lat="44.68594" lon="5.9144">
        <ele>1623.4</ele>
        <time>2015-07-01T10:37:40Z</time>
      </trkpt>
      <trkpt lat="44.68593" lon="5.91442">
        <ele>1626.6</ele>
        <time>2015-07-01T10:37:45Z</time>
      </trkpt>
      <trkpt lat="44.68595" lon="5.91445">
        <ele>1630.7</ele>
        <time>2015-07-01T10:37:50Z</time>
      </trkpt>
      <trkpt lat="44.68595" lon="5.91442">
        <ele>1627.2</ele>
        <time>2015-07-01T10:37:55Z</time>
      </trkpt>
      <trkpt lat="44.68596" lon="5.91438">
        <ele>1621.5</ele>
        <time>2015-07-01T10:38:00Z</time>
      </trkpt>
      <trkpt lat="44.68599" lon="5.91439">
        <ele>1627.2</ele>
        <time>2015-07-01T10:38:05Z</time>
      </trkpt>
      <trkpt lat="44.68601" lon="5.91441">
        <ele>1634.7</ele>
        <time>2015-07-01T10:38:10Z</time>
      </trkpt>
      <trkpt lat="44.68602" lon="5.91435">
        <ele>1630</ele>
        <time>2015-07-01T10:38:15Z</time>
      </trkpt>
      <trkpt lat="44.68597" lon="5.91433">
        <ele>1636.9</ele>
        <time>2015-07-01T10:38:20Z</time>
      </trkpt>
      <trkpt lat="44.68597" lon="5.91434">
        <ele>1642.2</ele>
        <time>2015-07-01T10:38:25Z</time>
      </trkpt>
      <trkpt lat="44.68601" lon="5.91439">
        <ele>1640</ele>
        <time>2015-07-01T10:38:30Z</time>
      </trkpt>
      <trkpt lat="44.68599" lon="5.91439">
        <ele>1639.2</ele>
        <time>2015-07-01T10:38:35Z</time>
      </trkpt>
      <trkpt lat="44.68604" lon="5.91425">
        <ele>1633.1</ele>
        <time>2015-07-01T10:38:40Z</time>
      </trkpt>
      <trkpt lat="44.68603" lon="5.9143">
        <ele>1622.9</ele>
        <time>2015-07-01T10:38:45Z</time>
      </trkpt>
      <trkpt lat="44.686" lon="5.91434">
        <ele>1624.5</ele>
        <time>2015-07-01T10:38:50Z</time>
      </trkpt>
      <trkpt lat="44.686" lon="5.91435">
        <ele>1626.5</ele>
        <time>2015-07-01T10:38:55Z</time>
      </trkpt>
      <trkpt lat="44.68599" lon="5.91437">
        <ele>1626.6</ele>
        <time>2015-07-01T10:39:00Z</time>
      </trkpt>
      <trkpt lat="44.68592" lon="5.91441">
        <ele>1636.4</ele>
        <time>2015-07-01T10:39:05Z</time>
      </trkpt>
      <trkpt lat="44.68589" lon="5.9144">
        <ele>1637.7</ele>
        <time>2015-07-01T10:39:10Z</time>
      </trkpt>
      <trkpt lat="44.68589" lon="5.9144">
        <ele>1632.7</ele>
        <time>2015-07-01T10:39:15Z</time>
      </trkpt>
      <trkpt lat="44.68591" lon="5.91443">
        <ele>1627.5</ele>
        <time>2015-07-01T10:39:20Z</time>
      </trkpt>
      <trkpt lat="44.68592" lon="5.91437">
        <ele>1622.4</ele>
        <time>2015-07-01T10:39:25Z</time>
      </trkpt>
      <trkpt lat="44.68589" lon="5.9144">
        <ele>1617.3</ele>
        <time>2015-07-01T10:39:30Z</time>
      </trkpt>
      <trkpt lat="44.68591" lon="5.91439">
        <ele>1615.9</ele>
        <time>2015-07-01T10:39:35Z</time>
      </trkpt>
      <trkpt lat="44.6859" lon="5.9144">
        <ele>1611.6</ele>
        <time>2015-07-01T10:39:40Z</time>
      </trkpt>
      <trkpt lat="44.68588" lon="5.91444">
        <ele>1614.9</ele>
        <time>2015-07-01T10:39:45Z</time>
      </trkpt>
      <trkpt lat="44.68588" lon="5.91443">
        <ele>1614.7</ele>
        <time>2015-07-01T10:39:50Z</time>
      </trkpt>
      <trkpt lat="44.68587" lon="5.91444">
        <ele>1619.5</ele>
        <time>2015-07-01T10:39:55Z</time>
      </trkpt>
      <trkpt lat="44.68587" lon="5.91442">
        <ele>1619.7</ele>
        <time>2015-07-01T10:40:00Z</time>
      </trkpt>
      <trkpt lat="44.68586" lon="5.91444">
        <ele>1617.6</ele>
        <time>2015-07-01T10:40:05Z</time>
      </trkpt>
      <trkpt lat="44.68593" lon="5.91439">
        <ele>1611</ele>
        <time>2015-07-01T10:40:10Z</time>
      </trkpt>
      <trkpt lat="44.68589" lon="5.91437">
        <ele>1615.1</ele>
        <time>2015-07-01T10:40:15Z</time>
      </trkpt>
      <trkpt lat="44.68588" lon="5.91439">
        <ele>1613.7</ele>
        <time>2015-07-01T10:40:20Z</time>
      </trkpt>
      <trkpt lat="44.68588" lon="5.91439">
        <ele>1617.6</ele>
        <time>2015-07-01T10:40:25Z</time>
      </trkpt>
      <trkpt lat="44.68588" lon="5.9144">
        <ele>1623</ele>
        <time>2015-07-01T10:40:30Z</time>
      </trkpt>
      <trkpt lat="44.68589" lon="5.91439">
        <ele>1625.6</ele>
        <time>2015-07-01T10:40:35Z</time>
      </trkpt>
      <trkpt lat="44.6859" lon="5.9144">
        <ele>1622.8</ele>
        <time>2015-07-01T10:40:40Z</time>
      </trkpt>
      <trkpt lat="44.68592" lon="5.91438">
        <ele>1617.2</ele>
        <time>2015-07-01T10:40:45Z</time>
      </trkpt>
      <trkpt lat="44.68595" lon="5.91434">
        <ele>1614.1</ele>
        <time>2015-07-01T10:40:50Z</time>
      </trkpt>
      <trkpt lat="44.68594" lon="5.91435">
        <ele>1611.2</ele>
        <time>2015-07-01T10:40:55Z</time>
      </trkpt>
      <trkpt lat="44.68593" lon="5.91437">
        <ele>1611.3</ele>
        <time>2015-07-01T10:41:00Z</time>
      </trkpt>
      <trkpt lat="44.68593" lon="5.91438">
        <ele>1611.9</ele>
        <time>2015-07-01T10:41:05Z</time>
      </trkpt>
      <trkpt lat="44.68593" lon="5.91439">
        <ele>1610.8</ele>
        <time>2015-07-01T10:41:10Z</time>
      </trkpt>
      <trkpt lat="44.68594" lon="5.91436">
        <ele>1608.6</ele>
        <time>2015-07-01T10:41:15Z</time>
      </trkpt>
      <trkpt lat="44.68593" lon="5.91437">
        <ele>1612</ele>
        <time>2015-07-01T10:41:20Z</time>
      </trkpt>
      <trkpt lat="44.68593" lon="5.91437">
        <ele>1615.7</ele>
        <time>2015-07-01T10:41:25Z</time>
      </trkpt>
      <trkpt lat="44.68591" lon="5.91439">
        <ele>1622</ele>
        <time>2015-07-01T10:41:30Z</time>
      </trkpt>
      <trkpt lat="44.68589" lon="5.91442">
        <ele>1625.6</ele>
        <time>2015-07-01T10:41:35Z</time>
      </trkpt>
      <trkpt lat="44.68589" lon="5.91441">
        <ele>1624.9</ele>
        <time>2015-07-01T10:41:40Z</time>
      </trkpt>
      <trkpt lat="44.68589" lon="5.9144">
        <ele>1626.3</ele>
        <time>2015-07-01T10:41:45Z</time>
      </trkpt>
      <trkpt lat="44.68589" lon="5.91441">
        <ele>1632.7</ele>
        <time>2015-07-01T10:41:50Z</time>
      </trkpt>
      <trkpt lat="44.68588" lon="5.91442">
        <ele>1641.4</ele>
        <time>2015-07-01T10:41:55Z</time>
      </trkpt>
      <trkpt lat="44.68586" lon="5.91442">
        <ele>1643.4</ele>
        <time>2015-07-01T10:42:00Z</time>
      </trkpt>
      <trkpt lat="44.68588" lon="5.91438">
        <ele>1637.4</ele>
        <time>2015-07-01T10:42:05Z</time>
      </trkpt>
      <trkpt lat="44.68589" lon="5.91437">
        <ele>1636.9</ele>
        <time>2015-07-01T10:42:10Z</time>
      </trkpt>
      <trkpt lat="44.68589" lon="5.91438">
        <ele>1633.9</ele>
        <time>2015-07-01T10:42:15Z</time>
      </trkpt>
      <trkpt lat="44.68589" lon="5.91437">
        <ele>1631.8</ele>
        <time>2015-07-01T10:42:20Z</time>
      </trkpt>
      <trkpt lat="44.68589" lon="5.9144">
        <ele>1637</ele>
        <time>2015-07-01T10:42:25Z</time>
      </trkpt>
      <trkpt lat="44.68589" lon="5.91442">
        <ele>1639.5</ele>
        <time>2015-07-01T10:42:30Z</time>
      </trkpt>
      <trkpt lat="44.68589" lon="5.9144">
        <ele>1636.2</ele>
        <time>2015-07-01T10:42:35Z</time>
      </trkpt>
      <trkpt lat="44.68589" lon="5.91439">
        <ele>1634.3</ele>
        <time>2015-07-01T10:42:40Z</time>
      </trkpt>
      <trkpt lat="44.6859" lon="5.91438">
        <ele>1628.4</ele>
        <time>2015-07-01T10:42:45Z</time>
      </trkpt>
      <trkpt lat="44.68589" lon="5.91441">
        <ele>1629.1</ele>
        <time>2015-07-01T10:42:50Z</time>
      </trkpt>
      <trkpt lat="44.68589" lon="5.91443">
        <ele>1629.7</ele>
        <time>2015-07-01T10:42:55Z</time>
      </trkpt>
      <trkpt lat="44.68589" lon="5.91441">
        <ele>1628.6</ele>
        <time>2015-07-01T10:43:00Z</time>
      </trkpt>
      <trkpt lat="44.68589" lon="5.91442">
        <ele>1627</ele>
        <time>2015-07-01T10:43:05Z</time>
      </trkpt>
      <trkpt lat="44.68591" lon="5.9144">
        <ele>1623.1</ele>
        <time>2015-07-01T10:43:10Z</time>
      </trkpt>
      <trkpt lat="44.68591" lon="5.91441">
        <ele>1616.3</ele>
        <time>2015-07-01T10:43:15Z</time>
      </trkpt>
      <trkpt lat="44.68592" lon="5.9144">
        <ele>1609.9</ele>
        <time>2015-07-01T10:43:20Z</time>
      </trkpt>
      <trkpt lat="44.68595" lon="5.91437">
        <ele>1608.8</ele>
        <time>2015-07-01T10:43:25Z</time>
      </trkpt>
      <trkpt lat="44.68594" lon="5.91438">
        <ele>1615.4</ele>
        <time>2015-07-01T10:43:30Z</time>
      </trkpt>
      <trkpt lat="44.68591" lon="5.91439">
        <ele>1622.5</ele>
        <time>2015-07-01T10:43:35Z</time>
      </trkpt>
      <trkpt lat="44.68589" lon="5.91442">
        <ele>1625.2</ele>
        <time>2015-07-01T10:43:40Z</time>
      </trkpt>
      <trkpt lat="44.68585" lon="5.91444">
        <ele>1629.6</ele>
        <time>2015-07-01T10:43:47Z</time>
      </trkpt>
      <trkpt lat="44.68586" lon="5.91447">
        <ele>1632.5</ele>
        <time>2015-07-01T10:43:52Z</time>
      </trkpt>
      <trkpt lat="44.68581" lon="5.91451">
        <ele>1639.4</ele>
        <time>2015-07-01T10:43:57Z</time>
      </trkpt>
      <trkpt lat="44.68587" lon="5.91445">
        <ele>1631.5</ele>
        <time>2015-07-01T10:44:02Z</time>
      </trkpt>
      <trkpt lat="44.6859" lon="5.91441">
        <ele>1627</ele>
        <time>2015-07-01T10:44:07Z</time>
      </trkpt>
      <trkpt lat="44.68591" lon="5.91439">
        <ele>1625.6</ele>
        <time>2015-07-01T10:44:12Z</time>
      </trkpt>
      <trkpt lat="44.68589" lon="5.91438">
        <ele>1623</ele>
        <time>2015-07-01T10:44:17Z</time>
      </trkpt>
      <trkpt lat="44.68588" lon="5.91437">
        <ele>1620.8</ele>
        <time>2015-07-01T10:44:22Z</time>
      </trkpt>
      <trkpt lat="44.68588" lon="5.91437">
        <ele>1620.6</ele>
        <time>2015-07-01T10:44:27Z</time>
      </trkpt>
      <trkpt lat="44.6859" lon="5.91434">
        <ele>1618.4</ele>
        <time>2015-07-01T10:44:32Z</time>
      </trkpt>
      <trkpt lat="44.68589" lon="5.91435">
        <ele>1618</ele>
        <time>2015-07-01T10:44:37Z</time>
      </trkpt>
      <trkpt lat="44.68589" lon="5.91435">
        <ele>1619.7</ele>
        <time>2015-07-01T10:44:42Z</time>
      </trkpt>
      <trkpt lat="44.68589" lon="5.91436">
        <ele>1620.6</ele>
        <time>2015-07-01T10:44:47Z</time>
      </trkpt>
      <trkpt lat="44.68592" lon="5.91435">
        <ele>1618.8</ele>
        <time>2015-07-01T10:44:52Z</time>
      </trkpt>
      <trkpt lat="44.68592" lon="5.91434">
        <ele>1617</ele>
        <time>2015-07-01T10:44:57Z</time>
      </trkpt>
      <trkpt lat="44.68594" lon="5.91433">
        <ele>1620.5</ele>
        <time>2015-07-01T10:45:02Z</time>
      </trkpt>
      <trkpt lat="44.68594" lon="5.91433">
        <ele>1621.6</ele>
        <time>2015-07-01T10:45:07Z</time>
      </trkpt>
      <trkpt lat="44.68593" lon="5.91434">
        <ele>1623</ele>
        <time>2015-07-01T10:45:12Z</time>
      </trkpt>
      <trkpt lat="44.68592" lon="5.91436">
        <ele>1625.1</ele>
        <time>2015-07-01T10:45:17Z</time>
      </trkpt>
      <trkpt lat="44.68595" lon="5.91437">
        <ele>1620.2</ele>
        <time>2015-07-01T10:45:22Z</time>
      </trkpt>
      <trkpt lat="44.68593" lon="5.91439">
        <ele>1618.5</ele>
        <time>2015-07-01T10:45:27Z</time>
      </trkpt>
      <trkpt lat="44.68593" lon="5.9144">
        <ele>1619.9</ele>
        <time>2015-07-01T10:45:32Z</time>
      </trkpt>
      <trkpt lat="44.6859" lon="5.91442">
        <ele>1622.5</ele>
        <time>2015-07-01T10:45:37Z</time>
      </trkpt>
      <trkpt lat="44.68593" lon="5.9144">
        <ele>1617</ele>
        <time>2015-07-01T10:45:42Z</time>
      </trkpt>
      <trkpt lat="44.68591" lon="5.9144">
        <ele>1616.7</ele>
        <time>2015-07-01T10:45:47Z</time>
      </trkpt>
      <trkpt lat="44.68591" lon="5.9144">
        <ele>1617.4</ele>
        <time>2015-07-01T10:45:52Z</time>
      </trkpt>
      <trkpt lat="44.68596" lon="5.91439">
        <ele>1620.7</ele>
        <time>2015-07-01T10:45:57Z</time>
      </trkpt>
      <trkpt lat="44.68596" lon="5.91437">
        <ele>1621.9</ele>
        <time>2015-07-01T10:46:02Z</time>
      </trkpt>
      <trkpt lat="44.68599" lon="5.91435">
        <ele>1619.2</ele>
        <time>2015-07-01T10:46:07Z</time>
      </trkpt>
      <trkpt lat="44.68599" lon="5.91433">
        <ele>1616.1</ele>
        <time>2015-07-01T10:46:12Z</time>
      </trkpt>
      <trkpt lat="44.68599" lon="5.91433">
        <ele>1614.9</ele>
        <time>2015-07-01T10:46:17Z</time>
      </trkpt>
      <trkpt lat="44.68598" lon="5.91432">
        <ele>1614.7</ele>
        <time>2015-07-01T10:46:22Z</time>
      </trkpt>
      <trkpt lat="44.68599" lon="5.91431">
        <ele>1615.9</ele>
        <time>2015-07-01T10:46:27Z</time>
      </trkpt>
      <trkpt lat="44.686" lon="5.91431">
        <ele>1617.6</ele>
        <time>2015-07-01T10:46:32Z</time>
      </trkpt>
      <trkpt lat="44.68598" lon="5.91432">
        <ele>1625.4</ele>
        <time>2015-07-01T10:46:37Z</time>
      </trkpt>
      <trkpt lat="44.68598" lon="5.91433">
        <ele>1628.8</ele>
        <time>2015-07-01T10:46:42Z</time>
      </trkpt>
      <trkpt lat="44.68596" lon="5.91436">
        <ele>1631.8</ele>
        <time>2015-07-01T10:46:47Z</time>
      </trkpt>
      <trkpt lat="44.68593" lon="5.91438">
        <ele>1633.2</ele>
        <time>2015-07-01T10:46:52Z</time>
      </trkpt>
      <trkpt lat="44.68595" lon="5.91433">
        <ele>1634.3</ele>
        <time>2015-07-01T10:46:57Z</time>
      </trkpt>
      <trkpt lat="44.68597" lon="5.91432">
        <ele>1632</ele>
        <time>2015-07-01T10:47:02Z</time>
      </trkpt>
      <trkpt lat="44.686" lon="5.91429">
        <ele>1627.3</ele>
        <time>2015-07-01T10:47:07Z</time>
      </trkpt>
      <trkpt lat="44.68602" lon="5.91425">
        <ele>1616.6</ele>
        <time>2015-07-01T10:47:12Z</time>
      </trkpt>
      <trkpt lat="44.68603" lon="5.91426">
        <ele>1617.7</ele>
        <time>2015-07-01T10:47:17Z</time>
      </trkpt>
      <trkpt lat="44.68602" lon="5.91428">
        <ele>1618.1</ele>
        <time>2015-07-01T10:47:22Z</time>
      </trkpt>
      <trkpt lat="44.68602" lon="5.91428">
        <ele>1619.6</ele>
        <time>2015-07-01T10:47:27Z</time>
      </trkpt>
      <trkpt lat="44.68602" lon="5.91429">
        <ele>1621.8</ele>
        <time>2015-07-01T10:47:32Z</time>
      </trkpt>
      <trkpt lat="44.68601" lon="5.9143">
        <ele>1618.5</ele>
        <time>2015-07-01T10:47:37Z</time>
      </trkpt>
      <trkpt lat="44.686" lon="5.91431">
        <ele>1620.6</ele>
        <time>2015-07-01T10:47:42Z</time>
      </trkpt>
      <trkpt lat="44.68601" lon="5.9143">
        <ele>1621.5</ele>
        <time>2015-07-01T10:47:47Z</time>
      </trkpt>
      <trkpt lat="44.68601" lon="5.9143">
        <ele>1624.5</ele>
        <time>2015-07-01T10:47:52Z</time>
      </trkpt>
      <trkpt lat="44.68601" lon="5.9143">
        <ele>1621.6</ele>
        <time>2015-07-01T10:47:57Z</time>
      </trkpt>
      <trkpt lat="44.68601" lon="5.9143">
        <ele>1622.3</ele>
        <time>2015-07-01T10:48:02Z</time>
      </trkpt>
      <trkpt lat="44.68602" lon="5.91428">
        <ele>1613.5</ele>
        <time>2015-07-01T10:48:07Z</time>
      </trkpt>
      <trkpt lat="44.68602" lon="5.91428">
        <ele>1607.4</ele>
        <time>2015-07-01T10:48:12Z</time>
      </trkpt>
      <trkpt lat="44.68602" lon="5.91429">
        <ele>1610.6</ele>
        <time>2015-07-01T10:48:17Z</time>
      </trkpt>
      <trkpt lat="44.68601" lon="5.91431">
        <ele>1613.9</ele>
        <time>2015-07-01T10:48:22Z</time>
      </trkpt>
      <trkpt lat="44.68601" lon="5.91432">
        <ele>1615</ele>
        <time>2015-07-01T10:48:27Z</time>
      </trkpt>
      <trkpt lat="44.68601" lon="5.91432">
        <ele>1614.8</ele>
        <time>2015-07-01T10:48:32Z</time>
      </trkpt>
      <trkpt lat="44.68602" lon="5.9143">
        <ele>1612.9</ele>
        <time>2015-07-01T10:48:37Z</time>
      </trkpt>
      <trkpt lat="44.68602" lon="5.9143">
        <ele>1613</ele>
        <time>2015-07-01T10:48:42Z</time>
      </trkpt>
      <trkpt lat="44.68604" lon="5.9143">
        <ele>1614.2</ele>
        <time>2015-07-01T10:48:47Z</time>
      </trkpt>
      <trkpt lat="44.68604" lon="5.91431">
        <ele>1617.5</ele>
        <time>2015-07-01T10:48:52Z</time>
      </trkpt>
      <trkpt lat="44.68605" lon="5.91431">
        <ele>1618.7</ele>
        <time>2015-07-01T10:48:57Z</time>
      </trkpt>
      <trkpt lat="44.68604" lon="5.9143">
        <ele>1616.2</ele>
        <time>2015-07-01T10:49:02Z</time>
      </trkpt>
      <trkpt lat="44.68604" lon="5.91428">
        <ele>1609.7</ele>
        <time>2015-07-01T10:49:07Z</time>
      </trkpt>
      <trkpt lat="44.68604" lon="5.91424">
        <ele>1598.7</ele>
        <time>2015-07-01T10:49:12Z</time>
      </trkpt>
      <trkpt lat="44.68605" lon="5.91424">
        <ele>1601.5</ele>
        <time>2015-07-01T10:49:17Z</time>
      </trkpt>
      <trkpt lat="44.68603" lon="5.91423">
        <ele>1599.5</ele>
        <time>2015-07-01T10:49:22Z</time>
      </trkpt>
      <trkpt lat="44.68604" lon="5.91424">
        <ele>1603.3</ele>
        <time>2015-07-01T10:49:27Z</time>
      </trkpt>
      <trkpt lat="44.68602" lon="5.9143">
        <ele>1615.9</ele>
        <time>2015-07-01T10:49:32Z</time>
      </trkpt>
      <trkpt lat="44.68599" lon="5.9143">
        <ele>1612.3</ele>
        <time>2015-07-01T10:49:37Z</time>
      </trkpt>
      <trkpt lat="44.686" lon="5.91429">
        <ele>1612.1</ele>
        <time>2015-07-01T10:49:42Z</time>
      </trkpt>
      <trkpt lat="44.68599" lon="5.91428">
        <ele>1611.1</ele>
        <time>2015-07-01T10:49:47Z</time>
      </trkpt>
      <trkpt lat="44.68601" lon="5.91427">
        <ele>1609.4</ele>
        <time>2015-07-01T10:49:52Z</time>
      </trkpt>
      <trkpt lat="44.68602" lon="5.9143">
        <ele>1611.5</ele>
        <time>2015-07-01T10:49:57Z</time>
      </trkpt>
      <trkpt lat="44.68601" lon="5.9143">
        <ele>1615.1</ele>
        <time>2015-07-01T10:50:02Z</time>
      </trkpt>
      <trkpt lat="44.686" lon="5.91432">
        <ele>1618</ele>
        <time>2015-07-01T10:50:07Z</time>
      </trkpt>
      <trkpt lat="44.686" lon="5.91433">
        <ele>1626.9</ele>
        <time>2015-07-01T10:50:12Z</time>
      </trkpt>
      <trkpt lat="44.686" lon="5.91431">
        <ele>1627.2</ele>
        <time>2015-07-01T10:50:17Z</time>
      </trkpt>
      <trkpt lat="44.68603" lon="5.91431">
        <ele>1631.6</ele>
        <time>2015-07-01T10:50:22Z</time>
      </trkpt>
      <trkpt lat="44.68601" lon="5.9143">
        <ele>1627.2</ele>
        <time>2015-07-01T10:50:27Z</time>
      </trkpt>
      <trkpt lat="44.686" lon="5.91429">
        <ele>1627.1</ele>
        <time>2015-07-01T10:50:32Z</time>
      </trkpt>
      <trkpt lat="44.68598" lon="5.9143">
        <ele>1627.3</ele>
        <time>2015-07-01T10:50:38Z</time>
      </trkpt>
      <trkpt lat="44.68599" lon="5.9143">
        <ele>1627</ele>
        <time>2015-07-01T10:50:43Z</time>
      </trkpt>
      <trkpt lat="44.68599" lon="5.91429">
        <ele>1622.9</ele>
        <time>2015-07-01T10:50:48Z</time>
      </trkpt>
      <trkpt lat="44.68599" lon="5.91429">
        <ele>1620.6</ele>
        <time>2015-07-01T10:50:53Z</time>
      </trkpt>
      <trkpt lat="44.68597" lon="5.91429">
        <ele>1624</ele>
        <time>2015-07-01T10:50:58Z</time>
      </trkpt>
      <trkpt lat="44.68598" lon="5.91428">
        <ele>1623</ele>
        <time>2015-07-01T10:51:03Z</time>
      </trkpt>
      <trkpt lat="44.68596" lon="5.91428">
        <ele>1624.6</ele>
        <time>2015-07-01T10:51:08Z</time>
      </trkpt>
      <trkpt lat="44.68595" lon="5.91428">
        <ele>1624.1</ele>
        <time>2015-07-01T10:51:13Z</time>
      </trkpt>
      <trkpt lat="44.68594" lon="5.9143">
        <ele>1624.6</ele>
        <time>2015-07-01T10:51:18Z</time>
      </trkpt>
      <trkpt lat="44.68595" lon="5.9143">
        <ele>1619.8</ele>
        <time>2015-07-01T10:51:23Z</time>
      </trkpt>
      <trkpt lat="44.68595" lon="5.91431">
        <ele>1618.1</ele>
        <time>2015-07-01T10:51:28Z</time>
      </trkpt>
      <trkpt lat="44.68596" lon="5.91432">
        <ele>1622.6</ele>
        <time>2015-07-01T10:51:33Z</time>
      </trkpt>
      <trkpt lat="44.68595" lon="5.91433">
        <ele>1626.2</ele>
        <time>2015-07-01T10:51:38Z</time>
      </trkpt>
      <trkpt lat="44.68595" lon="5.91433">
        <ele>1625.8</ele>
        <time>2015-07-01T10:51:43Z</time>
      </trkpt>
      <trkpt lat="44.68596" lon="5.91432">
        <ele>1624.4</ele>
        <time>2015-07-01T10:51:48Z</time>
      </trkpt>
      <trkpt lat="44.68597" lon="5.91432">
        <ele>1625.8</ele>
        <time>2015-07-01T10:51:53Z</time>
      </trkpt>
      <trkpt lat="44.68597" lon="5.91429">
        <ele>1617.4</ele>
        <time>2015-07-01T10:51:58Z</time>
      </trkpt>
      <trkpt lat="44.686" lon="5.91427">
        <ele>1607.5</ele>
        <time>2015-07-01T10:52:03Z</time>
      </trkpt>
      <trkpt lat="44.68601" lon="5.91426">
        <ele>1608.5</ele>
        <time>2015-07-01T10:52:08Z</time>
      </trkpt>
      <trkpt lat="44.686" lon="5.91429">
        <ele>1609.2</ele>
        <time>2015-07-01T10:52:13Z</time>
      </trkpt>
      <trkpt lat="44.68602" lon="5.91433">
        <ele>1612.7</ele>
        <time>2015-07-01T10:52:18Z</time>
      </trkpt>
      <trkpt lat="44.68602" lon="5.91431">
        <ele>1608</ele>
        <time>2015-07-01T10:52:23Z</time>
      </trkpt>
      <trkpt lat="44.68601" lon="5.91432">
        <ele>1612.3</ele>
        <time>2015-07-01T10:52:28Z</time>
      </trkpt>
      <trkpt lat="44.68602" lon="5.91433">
        <ele>1612.3</ele>
        <time>2015-07-01T10:52:33Z</time>
      </trkpt>
      <trkpt lat="44.68602" lon="5.91433">
        <ele>1613.8</ele>
        <time>2015-07-01T10:52:38Z</time>
      </trkpt>
      <trkpt lat="44.68601" lon="5.91434">
        <ele>1614.7</ele>
        <time>2015-07-01T10:52:43Z</time>
      </trkpt>
      <trkpt lat="44.68601" lon="5.91436">
        <ele>1620.3</ele>
        <time>2015-07-01T10:52:48Z</time>
      </trkpt>
      <trkpt lat="44.68601" lon="5.91439">
        <ele>1621.8</ele>
        <time>2015-07-01T10:52:53Z</time>
      </trkpt>
      <trkpt lat="44.68602" lon="5.91437">
        <ele>1622.4</ele>
        <time>2015-07-01T10:52:58Z</time>
      </trkpt>
      <trkpt lat="44.68603" lon="5.91439">
        <ele>1623.6</ele>
        <time>2015-07-01T10:53:03Z</time>
      </trkpt>
      <trkpt lat="44.68604" lon="5.91441">
        <ele>1628.7</ele>
        <time>2015-07-01T10:53:08Z</time>
      </trkpt>
      <trkpt lat="44.68603" lon="5.91438">
        <ele>1624</ele>
        <time>2015-07-01T10:53:13Z</time>
      </trkpt>
      <trkpt lat="44.68602" lon="5.91438">
        <ele>1623.5</ele>
        <time>2015-07-01T10:53:18Z</time>
      </trkpt>
      <trkpt lat="44.68602" lon="5.91439">
        <ele>1623.9</ele>
        <time>2015-07-01T10:53:23Z</time>
      </trkpt>
      <trkpt lat="44.68601" lon="5.91437">
        <ele>1624.4</ele>
        <time>2015-07-01T10:53:28Z</time>
      </trkpt>
      <trkpt lat="44.68599" lon="5.91435">
        <ele>1622.9</ele>
        <time>2015-07-01T10:53:33Z</time>
      </trkpt>
      <trkpt lat="44.68595" lon="5.91432">
        <ele>1620.7</ele>
        <time>2015-07-01T10:53:38Z</time>
      </trkpt>
      <trkpt lat="44.68596" lon="5.9143">
        <ele>1617.5</ele>
        <time>2015-07-01T10:53:43Z</time>
      </trkpt>
      <trkpt lat="44.68596" lon="5.91429">
        <ele>1618.1</ele>
        <time>2015-07-01T10:53:48Z</time>
      </trkpt>
      <trkpt lat="44.68598" lon="5.91429">
        <ele>1617.2</ele>
        <time>2015-07-01T10:53:53Z</time>
      </trkpt>
      <trkpt lat="44.68597" lon="5.91432">
        <ele>1619</ele>
        <time>2015-07-01T10:53:58Z</time>
      </trkpt>
      <trkpt lat="44.68599" lon="5.91434">
        <ele>1619.3</ele>
        <time>2015-07-01T10:54:03Z</time>
      </trkpt>
      <trkpt lat="44.68598" lon="5.91435">
        <ele>1615.6</ele>
        <time>2015-07-01T10:54:08Z</time>
      </trkpt>
      <trkpt lat="44.68599" lon="5.91437">
        <ele>1617.1</ele>
        <time>2015-07-01T10:54:13Z</time>
      </trkpt>
      <trkpt lat="44.68602" lon="5.91442">
        <ele>1618.9</ele>
        <time>2015-07-01T10:54:18Z</time>
      </trkpt>
      <trkpt lat="44.68605" lon="5.91446">
        <ele>1616.4</ele>
        <time>2015-07-01T10:54:23Z</time>
      </trkpt>
      <trkpt lat="44.68607" lon="5.91452">
        <ele>1616.3</ele>
        <time>2015-07-01T10:54:28Z</time>
      </trkpt>
      <trkpt lat="44.68609" lon="5.91459">
        <ele>1619.8</ele>
        <time>2015-07-01T10:54:33Z</time>
      </trkpt>
      <trkpt lat="44.68609" lon="5.91467">
        <ele>1621.3</ele>
        <time>2015-07-01T10:54:38Z</time>
      </trkpt>
      <trkpt lat="44.6861" lon="5.91475">
        <ele>1621.1</ele>
        <time>2015-07-01T10:54:43Z</time>
      </trkpt>
      <trkpt lat="44.68608" lon="5.91482">
        <ele>1623.8</ele>
        <time>2015-07-01T10:54:48Z</time>
      </trkpt>
      <trkpt lat="44.68606" lon="5.91491">
        <ele>1624</ele>
        <time>2015-07-01T10:54:53Z</time>
      </trkpt>
      <trkpt lat="44.68605" lon="5.915">
        <ele>1622.4</ele>
        <time>2015-07-01T10:54:58Z</time>
      </trkpt>
      <trkpt lat="44.68604" lon="5.9151">
        <ele>1619.7</ele>
        <time>2015-07-01T10:55:03Z</time>
      </trkpt>
      <trkpt lat="44.68604" lon="5.91519">
        <ele>1617.7</ele>
        <time>2015-07-01T10:55:08Z</time>
      </trkpt>
      <trkpt lat="44.68603" lon="5.91528">
        <ele>1617.7</ele>
        <time>2015-07-01T10:55:13Z</time>
      </trkpt>
      <trkpt lat="44.68602" lon="5.91537">
        <ele>1616.1</ele>
        <time>2015-07-01T10:55:18Z</time>
      </trkpt>
      <trkpt lat="44.68599" lon="5.91544">
        <ele>1615.6</ele>
        <time>2015-07-01T10:55:23Z</time>
      </trkpt>
      <trkpt lat="44.68597" lon="5.91552">
        <ele>1618.1</ele>
        <time>2015-07-01T10:55:28Z</time>
      </trkpt>
      <trkpt lat="44.68594" lon="5.91559">
        <ele>1618.2</ele>
        <time>2015-07-01T10:55:33Z</time>
      </trkpt>
      <trkpt lat="44.68592" lon="5.91567">
        <ele>1617.9</ele>
        <time>2015-07-01T10:55:38Z</time>
      </trkpt>
      <trkpt lat="44.68588" lon="5.91574">
        <ele>1621.4</ele>
        <time>2015-07-01T10:55:43Z</time>
      </trkpt>
      <trkpt lat="44.68583" lon="5.91582">
        <ele>1623.3</ele>
        <time>2015-07-01T10:55:48Z</time>
      </trkpt>
      <trkpt lat="44.68581" lon="5.91591">
        <ele>1622.4</ele>
        <time>2015-07-01T10:55:53Z</time>
      </trkpt>
      <trkpt lat="44.6858" lon="5.91599">
        <ele>1621.8</ele>
        <time>2015-07-01T10:55:58Z</time>
      </trkpt>
      <trkpt lat="44.68579" lon="5.91608">
        <ele>1620.1</ele>
        <time>2015-07-01T10:56:03Z</time>
      </trkpt>
      <trkpt lat="44.68578" lon="5.91616">
        <ele>1619.2</ele>
        <time>2015-07-01T10:56:08Z</time>
      </trkpt>
      <trkpt lat="44.68577" lon="5.91624">
        <ele>1618.5</ele>
        <time>2015-07-01T10:56:13Z</time>
      </trkpt>
      <trkpt lat="44.68575" lon="5.91632">
        <ele>1618.1</ele>
        <time>2015-07-01T10:56:18Z</time>
      </trkpt>
      <trkpt lat="44.68574" lon="5.91639">
        <ele>1616.3</ele>
        <time>2015-07-01T10:56:23Z</time>
      </trkpt>
      <trkpt lat="44.68572" lon="5.91647">
        <ele>1614.9</ele>
        <time>2015-07-01T10:56:28Z</time>
      </trkpt>
      <trkpt lat="44.68569" lon="5.91653">
        <ele>1617.7</ele>
        <time>2015-07-01T10:56:33Z</time>
      </trkpt>
      <trkpt lat="44.68565" lon="5.91659">
        <ele>1618.1</ele>
        <time>2015-07-01T10:56:38Z</time>
      </trkpt>
      <trkpt lat="44.68562" lon="5.91665">
        <ele>1615.3</ele>
        <time>2015-07-01T10:56:43Z</time>
      </trkpt>
      <trkpt lat="44.68559" lon="5.91671">
        <ele>1613.8</ele>
        <time>2015-07-01T10:56:48Z</time>
      </trkpt>
      <trkpt lat="44.68556" lon="5.91678">
        <ele>1613.1</ele>
        <time>2015-07-01T10:56:53Z</time>
      </trkpt>
      <trkpt lat="44.68554" lon="5.91686">
        <ele>1611.9</ele>
        <time>2015-07-01T10:56:58Z</time>
      </trkpt>
      <trkpt lat="44.68551" lon="5.91693">
        <ele>1613.7</ele>
        <time>2015-07-01T10:57:03Z</time>
      </trkpt>
      <trkpt lat="44.68547" lon="5.91701">
        <ele>1612.5</ele>
        <time>2015-07-01T10:57:08Z</time>
      </trkpt>
      <trkpt lat="44.68544" lon="5.91708">
        <ele>1613.2</ele>
        <time>2015-07-01T10:57:13Z</time>
      </trkpt>
      <trkpt lat="44.68542" lon="5.91715">
        <ele>1614.6</ele>
        <time>2015-07-01T10:57:18Z</time>
      </trkpt>
      <trkpt lat="44.6854" lon="5.91724">
        <ele>1616.2</ele>
        <time>2015-07-01T10:57:23Z</time>
      </trkpt>
      <trkpt lat="44.68535" lon="5.91732">
        <ele>1615.6</ele>
        <time>2015-07-01T10:57:28Z</time>
      </trkpt>
      <trkpt lat="44.68533" lon="5.9174">
        <ele>1614.7</ele>
        <time>2015-07-01T10:57:33Z</time>
      </trkpt>
      <trkpt lat="44.68532" lon="5.91749">
        <ele>1614.9</ele>
        <time>2015-07-01T10:57:38Z</time>
      </trkpt>
      <trkpt lat="44.68533" lon="5.91756">
        <ele>1612.5</ele>
        <time>2015-07-01T10:57:43Z</time>
      </trkpt>
      <trkpt lat="44.68532" lon="5.91765">
        <ele>1612.4</ele>
        <time>2015-07-01T10:57:48Z</time>
      </trkpt>
      <trkpt lat="44.68531" lon="5.91774">
        <ele>1611.4</ele>
        <time>2015-07-01T10:57:53Z</time>
      </trkpt>
      <trkpt lat="44.68531" lon="5.91783">
        <ele>1611.1</ele>
        <time>2015-07-01T10:57:58Z</time>
      </trkpt>
      <trkpt lat="44.68531" lon="5.91791">
        <ele>1607.3</ele>
        <time>2015-07-01T10:58:03Z</time>
      </trkpt>
      <trkpt lat="44.68531" lon="5.91798">
        <ele>1606.8</ele>
        <time>2015-07-01T10:58:08Z</time>
      </trkpt>
      <trkpt lat="44.6853" lon="5.91806">
        <ele>1603.3</ele>
        <time>2015-07-01T10:58:13Z</time>
      </trkpt>
      <trkpt lat="44.68529" lon="5.91813">
        <ele>1603.4</ele>
        <time>2015-07-01T10:58:18Z</time>
      </trkpt>
      <trkpt lat="44.68529" lon="5.91819">
        <ele>1605.1</ele>
        <time>2015-07-01T10:58:23Z</time>
      </trkpt>
      <trkpt lat="44.6853" lon="5.91827">
        <ele>1608.1</ele>
        <time>2015-07-01T10:58:28Z</time>
      </trkpt>
      <trkpt lat="44.68529" lon="5.91833">
        <ele>1603.8</ele>
        <time>2015-07-01T10:58:33Z</time>
      </trkpt>
      <trkpt lat="44.68527" lon="5.9184">
        <ele>1599.2</ele>
        <time>2015-07-01T10:58:38Z</time>
      </trkpt>
      <trkpt lat="44.68524" lon="5.91847">
        <ele>1599</ele>
        <time>2015-07-01T10:58:43Z</time>
      </trkpt>
      <trkpt lat="44.68521" lon="5.91853">
        <ele>1595</ele>
        <time>2015-07-01T10:58:48Z</time>
      </trkpt>
      <trkpt lat="44.6852" lon="5.91862">
        <ele>1595.4</ele>
        <time>2015-07-01T10:58:53Z</time>
      </trkpt>
      <trkpt lat="44.68519" lon="5.9187">
        <ele>1595.2</ele>
        <time>2015-07-01T10:58:58Z</time>
      </trkpt>
      <trkpt lat="44.68519" lon="5.91879">
        <ele>1594.9</ele>
        <time>2015-07-01T10:59:03Z</time>
      </trkpt>
      <trkpt lat="44.6852" lon="5.91887">
        <ele>1593</ele>
        <time>2015-07-01T10:59:08Z</time>
      </trkpt>
      <trkpt lat="44.6852" lon="5.91896">
        <ele>1594.6</ele>
        <time>2015-07-01T10:59:13Z</time>
      </trkpt>
      <trkpt lat="44.6852" lon="5.91903">
        <ele>1587.9</ele>
        <time>2015-07-01T10:59:18Z</time>
      </trkpt>
      <trkpt lat="44.68524" lon="5.91912">
        <ele>1587.2</ele>
        <time>2015-07-01T10:59:23Z</time>
      </trkpt>
      <trkpt lat="44.68525" lon="5.91921">
        <ele>1587.8</ele>
        <time>2015-07-01T10:59:28Z</time>
      </trkpt>
      <trkpt lat="44.68526" lon="5.9193">
        <ele>1586.6</ele>
        <time>2015-07-01T10:59:33Z</time>
      </trkpt>
      <trkpt lat="44.68525" lon="5.91941">
        <ele>1586.4</ele>
        <time>2015-07-01T10:59:38Z</time>
      </trkpt>
      <trkpt lat="44.68526" lon="5.91949">
        <ele>1582.3</ele>
        <time>2015-07-01T10:59:43Z</time>
      </trkpt>
      <trkpt lat="44.68526" lon="5.91957">
        <ele>1583.3</ele>
        <time>2015-07-01T10:59:48Z</time>
      </trkpt>
      <trkpt lat="44.68526" lon="5.91966">
        <ele>1584.2</ele>
        <time>2015-07-01T10:59:53Z</time>
      </trkpt>
      <trkpt lat="44.68525" lon="5.91974">
        <ele>1583.8</ele>
        <time>2015-07-01T10:59:58Z</time>
      </trkpt>
      <trkpt lat="44.68528" lon="5.91983">
        <ele>1585.3</ele>
        <time>2015-07-01T11:00:03Z</time>
      </trkpt>
      <trkpt lat="44.6853" lon="5.9199">
        <ele>1586.6</ele>
        <time>2015-07-01T11:00:08Z</time>
      </trkpt>
      <trkpt lat="44.6853" lon="5.91999">
        <ele>1586.4</ele>
        <time>2015-07-01T11:00:13Z</time>
      </trkpt>
      <trkpt lat="44.68529" lon="5.92005">
        <ele>1583.6</ele>
        <time>2015-07-01T11:00:18Z</time>
      </trkpt>
      <trkpt lat="44.68527" lon="5.92011">
        <ele>1582.8</ele>
        <time>2015-07-01T11:00:23Z</time>
      </trkpt>
      <trkpt lat="44.68525" lon="5.92017">
        <ele>1585.6</ele>
        <time>2015-07-01T11:00:28Z</time>
      </trkpt>
      <trkpt lat="44.68522" lon="5.92024">
        <ele>1585.3</ele>
        <time>2015-07-01T11:00:33Z</time>
      </trkpt>
      <trkpt lat="44.6852" lon="5.92031">
        <ele>1581.7</ele>
        <time>2015-07-01T11:00:38Z</time>
      </trkpt>
      <trkpt lat="44.68516" lon="5.92035">
        <ele>1585.5</ele>
        <time>2015-07-01T11:00:43Z</time>
      </trkpt>
      <trkpt lat="44.68511" lon="5.92036">
        <ele>1585.7</ele>
        <time>2015-07-01T11:00:48Z</time>
      </trkpt>
      <trkpt lat="44.68507" lon="5.92041">
        <ele>1585.3</ele>
        <time>2015-07-01T11:00:53Z</time>
      </trkpt>
      <trkpt lat="44.68503" lon="5.92046">
        <ele>1581.9</ele>
        <time>2015-07-01T11:00:58Z</time>
      </trkpt>
      <trkpt lat="44.68499" lon="5.92051">
        <ele>1577.2</ele>
        <time>2015-07-01T11:01:03Z</time>
      </trkpt>
      <trkpt lat="44.68496" lon="5.92056">
        <ele>1573.6</ele>
        <time>2015-07-01T11:01:08Z</time>
      </trkpt>
      <trkpt lat="44.68492" lon="5.92062">
        <ele>1570.6</ele>
        <time>2015-07-01T11:01:13Z</time>
      </trkpt>
      <trkpt lat="44.68488" lon="5.92069">
        <ele>1571.5</ele>
        <time>2015-07-01T11:01:18Z</time>
      </trkpt>
      <trkpt lat="44.68485" lon="5.92077">
        <ele>1572.7</ele>
        <time>2015-07-01T11:01:23Z</time>
      </trkpt>
      <trkpt lat="44.68482" lon="5.92083">
        <ele>1567.4</ele>
        <time>2015-07-01T11:01:28Z</time>
      </trkpt>
      <trkpt lat="44.6848" lon="5.9209">
        <ele>1566.7</ele>
        <time>2015-07-01T11:01:33Z</time>
      </trkpt>
      <trkpt lat="44.68476" lon="5.92097">
        <ele>1568.8</ele>
        <time>2015-07-01T11:01:38Z</time>
      </trkpt>
      <trkpt lat="44.68473" lon="5.92102">
        <ele>1567.7</ele>
        <time>2015-07-01T11:01:43Z</time>
      </trkpt>
      <trkpt lat="44.6847" lon="5.92106">
        <ele>1565.6</ele>
        <time>2015-07-01T11:01:48Z</time>
      </trkpt>
      <trkpt lat="44.68464" lon="5.92109">
        <ele>1571.1</ele>
        <time>2015-07-01T11:01:53Z</time>
      </trkpt>
      <trkpt lat="44.6846" lon="5.92115">
        <ele>1569.9</ele>
        <time>2015-07-01T11:01:58Z</time>
      </trkpt>
      <trkpt lat="44.68455" lon="5.92118">
        <ele>1574</ele>
        <time>2015-07-01T11:02:03Z</time>
      </trkpt>
      <trkpt lat="44.68449" lon="5.92122">
        <ele>1572.5</ele>
        <time>2015-07-01T11:02:08Z</time>
      </trkpt>
      <trkpt lat="44.68445" lon="5.92128">
        <ele>1565.8</ele>
        <time>2015-07-01T11:02:13Z</time>
      </trkpt>
      <trkpt lat="44.68442" lon="5.92135">
        <ele>1558.1</ele>
        <time>2015-07-01T11:02:18Z</time>
      </trkpt>
      <trkpt lat="44.6844" lon="5.92145">
        <ele>1557.5</ele>
        <time>2015-07-01T11:02:23Z</time>
      </trkpt>
      <trkpt lat="44.68437" lon="5.92154">
        <ele>1556.5</ele>
        <time>2015-07-01T11:02:28Z</time>
      </trkpt>
      <trkpt lat="44.68435" lon="5.92162">
        <ele>1557.5</ele>
        <time>2015-07-01T11:02:33Z</time>
      </trkpt>
      <trkpt lat="44.68433" lon="5.92171">
        <ele>1557.1</ele>
        <time>2015-07-01T11:02:38Z</time>
      </trkpt>
      <trkpt lat="44.68429" lon="5.9218">
        <ele>1557.3</ele>
        <time>2015-07-01T11:02:43Z</time>
      </trkpt>
      <trkpt lat="44.68426" lon="5.92188">
        <ele>1555.3</ele>
        <time>2015-07-01T11:02:48Z</time>
      </trkpt>
      <trkpt lat="44.68422" lon="5.92195">
        <ele>1554.2</ele>
        <time>2015-07-01T11:02:53Z</time>
      </trkpt>
      <trkpt lat="44.68419" lon="5.92201">
        <ele>1555.8</ele>
        <time>2015-07-01T11:02:58Z</time>
      </trkpt>
      <trkpt lat="44.68415" lon="5.92206">
        <ele>1553.5</ele>
        <time>2015-07-01T11:03:03Z</time>
      </trkpt>
      <trkpt lat="44.68411" lon="5.92213">
        <ele>1550</ele>
        <time>2015-07-01T11:03:08Z</time>
      </trkpt>
      <trkpt lat="44.68408" lon="5.92221">
        <ele>1545.7</ele>
        <time>2015-07-01T11:03:13Z</time>
      </trkpt>
      <trkpt lat="44.68405" lon="5.92229">
        <ele>1543.6</ele>
        <time>2015-07-01T11:03:18Z</time>
      </trkpt>
      <trkpt lat="44.68402" lon="5.92237">
        <ele>1541.3</ele>
        <time>2015-07-01T11:03:23Z</time>
      </trkpt>
      <trkpt lat="44.684" lon="5.92245">
        <ele>1539.8</ele>
        <time>2015-07-01T11:03:28Z</time>
      </trkpt>
      <trkpt lat="44.68397" lon="5.92253">
        <ele>1541.5</ele>
        <time>2015-07-01T11:03:33Z</time>
      </trkpt>
      <trkpt lat="44.68394" lon="5.92262">
        <ele>1541.1</ele>
        <time>2015-07-01T11:03:38Z</time>
      </trkpt>
      <trkpt lat="44.68392" lon="5.9227">
        <ele>1539.5</ele>
        <time>2015-07-01T11:03:43Z</time>
      </trkpt>
      <trkpt lat="44.68391" lon="5.92279">
        <ele>1538.4</ele>
        <time>2015-07-01T11:03:48Z</time>
      </trkpt>
      <trkpt lat="44.68387" lon="5.92285">
        <ele>1539.6</ele>
        <time>2015-07-01T11:03:53Z</time>
      </trkpt>
      <trkpt lat="44.68382" lon="5.9229">
        <ele>1539.9</ele>
        <time>2015-07-01T11:03:58Z</time>
      </trkpt>
      <trkpt lat="44.68378" lon="5.92298">
        <ele>1542</ele>
        <time>2015-07-01T11:04:03Z</time>
      </trkpt>
      <trkpt lat="44.68373" lon="5.92305">
        <ele>1543.6</ele>
        <time>2015-07-01T11:04:08Z</time>
      </trkpt>
      <trkpt lat="44.68368" lon="5.92312">
        <ele>1543.8</ele>
        <time>2015-07-01T11:04:13Z</time>
      </trkpt>
      <trkpt lat="44.68365" lon="5.9232">
        <ele>1544.3</ele>
        <time>2015-07-01T11:04:18Z</time>
      </trkpt>
      <trkpt lat="44.68362" lon="5.92328">
        <ele>1541.8</ele>
        <time>2015-07-01T11:04:23Z</time>
      </trkpt>
      <trkpt lat="44.68359" lon="5.92337">
        <ele>1540.5</ele>
        <time>2015-07-01T11:04:28Z</time>
      </trkpt>
      <trkpt lat="44.68355" lon="5.92346">
        <ele>1540.1</ele>
        <time>2015-07-01T11:04:33Z</time>
      </trkpt>
      <trkpt lat="44.68353" lon="5.92356">
        <ele>1540.1</ele>
        <time>2015-07-01T11:04:38Z</time>
      </trkpt>
      <trkpt lat="44.68351" lon="5.92364">
        <ele>1538.1</ele>
        <time>2015-07-01T11:04:43Z</time>
      </trkpt>
      <trkpt lat="44.68348" lon="5.92375">
        <ele>1540.1</ele>
        <time>2015-07-01T11:04:48Z</time>
      </trkpt>
      <trkpt lat="44.68347" lon="5.92385">
        <ele>1542.5</ele>
        <time>2015-07-01T11:04:53Z</time>
      </trkpt>
      <trkpt lat="44.68345" lon="5.92394">
        <ele>1542.4</ele>
        <time>2015-07-01T11:04:58Z</time>
      </trkpt>
      <trkpt lat="44.68345" lon="5.92403">
        <ele>1540.9</ele>
        <time>2015-07-01T11:05:03Z</time>
      </trkpt>
      <trkpt lat="44.68344" lon="5.92412">
        <ele>1540.4</ele>
        <time>2015-07-01T11:05:08Z</time>
      </trkpt>
      <trkpt lat="44.68342" lon="5.92421">
        <ele>1542</ele>
        <time>2015-07-01T11:05:13Z</time>
      </trkpt>
      <trkpt lat="44.68342" lon="5.92423">
        <ele>1537.4</ele>
        <time>2015-07-01T11:05:18Z</time>
      </trkpt>
      <trkpt lat="44.68341" lon="5.92422">
        <ele>1534.3</ele>
        <time>2015-07-01T11:05:23Z</time>
      </trkpt>
      <trkpt lat="44.68339" lon="5.9243">
        <ele>1532.7</ele>
        <time>2015-07-01T11:05:28Z</time>
      </trkpt>
      <trkpt lat="44.68337" lon="5.92437">
        <ele>1530.3</ele>
        <time>2015-07-01T11:05:33Z</time>
      </trkpt>
      <trkpt lat="44.68335" lon="5.92444">
        <ele>1529.9</ele>
        <time>2015-07-01T11:05:38Z</time>
      </trkpt>
      <trkpt lat="44.6833" lon="5.92451">
        <ele>1531</ele>
        <time>2015-07-01T11:05:43Z</time>
      </trkpt>
      <trkpt lat="44.68327" lon="5.92457">
        <ele>1529.7</ele>
        <time>2015-07-01T11:05:48Z</time>
      </trkpt>
      <trkpt lat="44.68324" lon="5.92465">
        <ele>1533.2</ele>
        <time>2015-07-01T11:05:53Z</time>
      </trkpt>
      <trkpt lat="44.68321" lon="5.92472">
        <ele>1533.3</ele>
        <time>2015-07-01T11:05:58Z</time>
      </trkpt>
      <trkpt lat="44.68319" lon="5.9248">
        <ele>1530.7</ele>
        <time>2015-07-01T11:06:03Z</time>
      </trkpt>
      <trkpt lat="44.68317" lon="5.9249">
        <ele>1530.8</ele>
        <time>2015-07-01T11:06:08Z</time>
      </trkpt>
      <trkpt lat="44.68314" lon="5.92498">
        <ele>1530.4</ele>
        <time>2015-07-01T11:06:13Z</time>
      </trkpt>
      <trkpt lat="44.68313" lon="5.92508">
        <ele>1532.4</ele>
        <time>2015-07-01T11:06:18Z</time>
      </trkpt>
      <trkpt lat="44.68312" lon="5.92518">
        <ele>1534.6</ele>
        <time>2015-07-01T11:06:23Z</time>
      </trkpt>
      <trkpt lat="44.68312" lon="5.92527">
        <ele>1535.7</ele>
        <time>2015-07-01T11:06:28Z</time>
      </trkpt>
      <trkpt lat="44.68312" lon="5.92534">
        <ele>1535.7</ele>
        <time>2015-07-01T11:06:33Z</time>
      </trkpt>
      <trkpt lat="44.68312" lon="5.92539">
        <ele>1537.4</ele>
        <time>2015-07-01T11:06:38Z</time>
      </trkpt>
      <trkpt lat="44.68312" lon="5.9254">
        <ele>1539</ele>
        <time>2015-07-01T11:06:43Z</time>
      </trkpt>
      <trkpt lat="44.68312" lon="5.9254">
        <ele>1540.6</ele>
        <time>2015-07-01T11:06:48Z</time>
      </trkpt>
      <trkpt lat="44.68312" lon="5.92542">
        <ele>1540.7</ele>
        <time>2015-07-01T11:06:53Z</time>
      </trkpt>
      <trkpt lat="44.68311" lon="5.92545">
        <ele>1541</ele>
        <time>2015-07-01T11:06:58Z</time>
      </trkpt>
      <trkpt lat="44.6831" lon="5.92551">
        <ele>1541.5</ele>
        <time>2015-07-01T11:07:03Z</time>
      </trkpt>
      <trkpt lat="44.68309" lon="5.92558">
        <ele>1541.1</ele>
        <time>2015-07-01T11:07:08Z</time>
      </trkpt>
      <trkpt lat="44.68308" lon="5.92566">
        <ele>1540.4</ele>
        <time>2015-07-01T11:07:13Z</time>
      </trkpt>
      <trkpt lat="44.68307" lon="5.92573">
        <ele>1539.6</ele>
        <time>2015-07-01T11:07:18Z</time>
      </trkpt>
      <trkpt lat="44.68304" lon="5.92582">
        <ele>1540.3</ele>
        <time>2015-07-01T11:07:23Z</time>
      </trkpt>
      <trkpt lat="44.68302" lon="5.9259">
        <ele>1540</ele>
        <time>2015-07-01T11:07:28Z</time>
      </trkpt>
      <trkpt lat="44.68299" lon="5.92597">
        <ele>1538.5</ele>
        <time>2015-07-01T11:07:33Z</time>
      </trkpt>
      <trkpt lat="44.68295" lon="5.92604">
        <ele>1539.5</ele>
        <time>2015-07-01T11:07:38Z</time>
      </trkpt>
      <trkpt lat="44.68291" lon="5.9261">
        <ele>1540.3</ele>
        <time>2015-07-01T11:07:43Z</time>
      </trkpt>
      <trkpt lat="44.68289" lon="5.92618">
        <ele>1540</ele>
        <time>2015-07-01T11:07:48Z</time>
      </trkpt>
      <trkpt lat="44.68286" lon="5.92626">
        <ele>1540.7</ele>
        <time>2015-07-01T11:07:53Z</time>
      </trkpt>
      <trkpt lat="44.68285" lon="5.92635">
        <ele>1540.9</ele>
        <time>2015-07-01T11:07:58Z</time>
      </trkpt>
      <trkpt lat="44.68284" lon="5.92644">
        <ele>1539.4</ele>
        <time>2015-07-01T11:08:03Z</time>
      </trkpt>
      <trkpt lat="44.68282" lon="5.92653">
        <ele>1539.8</ele>
        <time>2015-07-01T11:08:08Z</time>
      </trkpt>
      <trkpt lat="44.6828" lon="5.92661">
        <ele>1540.7</ele>
        <time>2015-07-01T11:08:13Z</time>
      </trkpt>
      <trkpt lat="44.68279" lon="5.92668">
        <ele>1535.7</ele>
        <time>2015-07-01T11:08:18Z</time>
      </trkpt>
      <trkpt lat="44.68278" lon="5.92675">
        <ele>1530</ele>
        <time>2015-07-01T11:08:23Z</time>
      </trkpt>
      <trkpt lat="44.68276" lon="5.92683">
        <ele>1529.8</ele>
        <time>2015-07-01T11:08:28Z</time>
      </trkpt>
      <trkpt lat="44.68273" lon="5.92692">
        <ele>1529</ele>
        <time>2015-07-01T11:08:33Z</time>
      </trkpt>
      <trkpt lat="44.68271" lon="5.927">
        <ele>1529</ele>
        <time>2015-07-01T11:08:38Z</time>
      </trkpt>
      <trkpt lat="44.68269" lon="5.92709">
        <ele>1529</ele>
        <time>2015-07-01T11:08:43Z</time>
      </trkpt>
      <trkpt lat="44.68268" lon="5.92711">
        <ele>1529.9</ele>
        <time>2015-07-01T11:08:48Z</time>
      </trkpt>
      <trkpt lat="44.68267" lon="5.92719">
        <ele>1530.3</ele>
        <time>2015-07-01T11:08:53Z</time>
      </trkpt>
      <trkpt lat="44.68267" lon="5.92726">
        <ele>1529.8</ele>
        <time>2015-07-01T11:08:58Z</time>
      </trkpt>
      <trkpt lat="44.68266" lon="5.92736">
        <ele>1531.7</ele>
        <time>2015-07-01T11:09:03Z</time>
      </trkpt>
      <trkpt lat="44.68264" lon="5.92745">
        <ele>1532.8</ele>
        <time>2015-07-01T11:09:08Z</time>
      </trkpt>
      <trkpt lat="44.68263" lon="5.92751">
        <ele>1532.7</ele>
        <time>2015-07-01T11:09:13Z</time>
      </trkpt>
      <trkpt lat="44.68263" lon="5.92751">
        <ele>1533.4</ele>
        <time>2015-07-01T11:09:18Z</time>
      </trkpt>
      <trkpt lat="44.68263" lon="5.92756">
        <ele>1530.6</ele>
        <time>2015-07-01T11:09:23Z</time>
      </trkpt>
      <trkpt lat="44.68265" lon="5.9276">
        <ele>1528.5</ele>
        <time>2015-07-01T11:09:28Z</time>
      </trkpt>
      <trkpt lat="44.68268" lon="5.92757">
        <ele>1527.6</ele>
        <time>2015-07-01T11:09:33Z</time>
      </trkpt>
      <trkpt lat="44.68273" lon="5.92753">
        <ele>1527.3</ele>
        <time>2015-07-01T11:09:38Z</time>
      </trkpt>
      <trkpt lat="44.68278" lon="5.92749">
        <ele>1527.2</ele>
        <time>2015-07-01T11:09:43Z</time>
      </trkpt>
      <trkpt lat="44.68283" lon="5.92745">
        <ele>1527.3</ele>
        <time>2015-07-01T11:09:48Z</time>
      </trkpt>
      <trkpt lat="44.68289" lon="5.9274">
        <ele>1527.3</ele>
        <time>2015-07-01T11:09:53Z</time>
      </trkpt>
      <trkpt lat="44.68294" lon="5.92735">
        <ele>1526.9</ele>
        <time>2015-07-01T11:09:58Z</time>
      </trkpt>
      <trkpt lat="44.683" lon="5.9273">
        <ele>1526.6</ele>
        <time>2015-07-01T11:10:03Z</time>
      </trkpt>
      <trkpt lat="44.68305" lon="5.92726">
        <ele>1527.1</ele>
        <time>2015-07-01T11:10:08Z</time>
      </trkpt>
      <trkpt lat="44.68311" lon="5.92722">
        <ele>1526.8</ele>
        <time>2015-07-01T11:10:13Z</time>
      </trkpt>
      <trkpt lat="44.68316" lon="5.92717">
        <ele>1527.2</ele>
        <time>2015-07-01T11:10:18Z</time>
      </trkpt>
      <trkpt lat="44.68321" lon="5.92712">
        <ele>1528.3</ele>
        <time>2015-07-01T11:10:23Z</time>
      </trkpt>
      <trkpt lat="44.68326" lon="5.92708">
        <ele>1529.1</ele>
        <time>2015-07-01T11:10:28Z</time>
      </trkpt>
      <trkpt lat="44.68332" lon="5.92704">
        <ele>1530.3</ele>
        <time>2015-07-01T11:10:33Z</time>
      </trkpt>
      <trkpt lat="44.68337" lon="5.92699">
        <ele>1530.5</ele>
        <time>2015-07-01T11:10:38Z</time>
      </trkpt>
      <trkpt lat="44.68342" lon="5.92695">
        <ele>1530.3</ele>
        <time>2015-07-01T11:10:43Z</time>
      </trkpt>
      <trkpt lat="44.68348" lon="5.92692">
        <ele>1530.3</ele>
        <time>2015-07-01T11:10:48Z</time>
      </trkpt>
      <trkpt lat="44.68353" lon="5.9269">
        <ele>1530.4</ele>
        <time>2015-07-01T11:10:53Z</time>
      </trkpt>
      <trkpt lat="44.6836" lon="5.92689">
        <ele>1530.4</ele>
        <time>2015-07-01T11:10:58Z</time>
      </trkpt>
      <trkpt lat="44.68366" lon="5.9269">
        <ele>1532.8</ele>
        <time>2015-07-01T11:11:03Z</time>
      </trkpt>
      <trkpt lat="44.68373" lon="5.92689">
        <ele>1533.1</ele>
        <time>2015-07-01T11:11:08Z</time>
      </trkpt>
      <trkpt lat="44.68379" lon="5.92688">
        <ele>1532.1</ele>
        <time>2015-07-01T11:11:13Z</time>
      </trkpt>
      <trkpt lat="44.68384" lon="5.92687">
        <ele>1530.8</ele>
        <time>2015-07-01T11:11:18Z</time>
      </trkpt>
      <trkpt lat="44.68392" lon="5.92688">
        <ele>1533.2</ele>
        <time>2015-07-01T11:11:23Z</time>
      </trkpt>
      <trkpt lat="44.684" lon="5.92688">
        <ele>1534.2</ele>
        <time>2015-07-01T11:11:28Z</time>
      </trkpt>
      <trkpt lat="44.68405" lon="5.92689">
        <ele>1533.4</ele>
        <time>2015-07-01T11:11:33Z</time>
      </trkpt>
      <trkpt lat="44.68412" lon="5.92692">
        <ele>1534.1</ele>
        <time>2015-07-01T11:11:38Z</time>
      </trkpt>
      <trkpt lat="44.68416" lon="5.92699">
        <ele>1534.4</ele>
        <time>2015-07-01T11:11:43Z</time>
      </trkpt>
      <trkpt lat="44.68418" lon="5.92707">
        <ele>1534.4</ele>
        <time>2015-07-01T11:11:48Z</time>
      </trkpt>
      <trkpt lat="44.68419" lon="5.92716">
        <ele>1535.6</ele>
        <time>2015-07-01T11:11:53Z</time>
      </trkpt>
      <trkpt lat="44.68419" lon="5.92725">
        <ele>1535.8</ele>
        <time>2015-07-01T11:11:58Z</time>
      </trkpt>
      <trkpt lat="44.68419" lon="5.92733">
        <ele>1535.5</ele>
        <time>2015-07-01T11:12:03Z</time>
      </trkpt>
      <trkpt lat="44.68419" lon="5.9274">
        <ele>1535.7</ele>
        <time>2015-07-01T11:12:08Z</time>
      </trkpt>
      <trkpt lat="44.68416" lon="5.92748">
        <ele>1534.5</ele>
        <time>2015-07-01T11:12:13Z</time>
      </trkpt>
      <trkpt lat="44.68413" lon="5.92755">
        <ele>1532</ele>
        <time>2015-07-01T11:12:18Z</time>
      </trkpt>
      <trkpt lat="44.68411" lon="5.92763">
        <ele>1533</ele>
        <time>2015-07-01T11:12:23Z</time>
      </trkpt>
      <trkpt lat="44.68407" lon="5.92771">
        <ele>1534.1</ele>
        <time>2015-07-01T11:12:28Z</time>
      </trkpt>
      <trkpt lat="44.68404" lon="5.92781">
        <ele>1532.3</ele>
        <time>2015-07-01T11:12:33Z</time>
      </trkpt>
      <trkpt lat="44.68401" lon="5.92788">
        <ele>1532.5</ele>
        <time>2015-07-01T11:12:38Z</time>
      </trkpt>
      <trkpt lat="44.68399" lon="5.92794">
        <ele>1529.7</ele>
        <time>2015-07-01T11:12:43Z</time>
      </trkpt>
      <trkpt lat="44.68396" lon="5.92802">
        <ele>1528</ele>
        <time>2015-07-01T11:12:48Z</time>
      </trkpt>
      <trkpt lat="44.68393" lon="5.92808">
        <ele>1524.8</ele>
        <time>2015-07-01T11:12:53Z</time>
      </trkpt>
      <trkpt lat="44.68391" lon="5.92816">
        <ele>1520</ele>
        <time>2015-07-01T11:12:58Z</time>
      </trkpt>
      <trkpt lat="44.68392" lon="5.9282">
        <ele>1516</ele>
        <time>2015-07-01T11:13:03Z</time>
      </trkpt>
      <trkpt lat="44.6839" lon="5.92822">
        <ele>1515.1</ele>
        <time>2015-07-01T11:13:08Z</time>
      </trkpt>
      <trkpt lat="44.6839" lon="5.92823">
        <ele>1517.1</ele>
        <time>2015-07-01T11:13:13Z</time>
      </trkpt>
      <trkpt lat="44.68391" lon="5.92825">
        <ele>1520.2</ele>
        <time>2015-07-01T11:13:18Z</time>
      </trkpt>
      <trkpt lat="44.68391" lon="5.92827">
        <ele>1524.5</ele>
        <time>2015-07-01T11:13:23Z</time>
      </trkpt>
      <trkpt lat="44.6839" lon="5.9283">
        <ele>1527.5</ele>
        <time>2015-07-01T11:13:28Z</time>
      </trkpt>
      <trkpt lat="44.6839" lon="5.9283">
        <ele>1527.9</ele>
        <time>2015-07-01T11:13:33Z</time>
      </trkpt>
      <trkpt lat="44.68389" lon="5.9283">
        <ele>1525.7</ele>
        <time>2015-07-01T11:13:38Z</time>
      </trkpt>
      <trkpt lat="44.68389" lon="5.92827">
        <ele>1520.9</ele>
        <time>2015-07-01T11:13:43Z</time>
      </trkpt>
      <trkpt lat="44.68387" lon="5.92827">
        <ele>1515.1</ele>
        <time>2015-07-01T11:13:48Z</time>
      </trkpt>
      <trkpt lat="44.68384" lon="5.9283">
        <ele>1513.8</ele>
        <time>2015-07-01T11:13:53Z</time>
      </trkpt>
      <trkpt lat="44.6838" lon="5.92835">
        <ele>1514.7</ele>
        <time>2015-07-01T11:13:58Z</time>
      </trkpt>
      <trkpt lat="44.68377" lon="5.9284">
        <ele>1514.4</ele>
        <time>2015-07-01T11:14:03Z</time>
      </trkpt>
      <trkpt lat="44.68373" lon="5.92847">
        <ele>1517.5</ele>
        <time>2015-07-01T11:14:08Z</time>
      </trkpt>
      <trkpt lat="44.68369" lon="5.92853">
        <ele>1520.2</ele>
        <time>2015-07-01T11:14:13Z</time>
      </trkpt>
      <trkpt lat="44.68365" lon="5.92862">
        <ele>1524.6</ele>
        <time>2015-07-01T11:14:18Z</time>
      </trkpt>
      <trkpt lat="44.68364" lon="5.92869">
        <ele>1522.6</ele>
        <time>2015-07-01T11:14:23Z</time>
      </trkpt>
      <trkpt lat="44.6836" lon="5.9288">
        <ele>1527.5</ele>
        <time>2015-07-01T11:14:28Z</time>
      </trkpt>
      <trkpt lat="44.68358" lon="5.92887">
        <ele>1524.4</ele>
        <time>2015-07-01T11:14:33Z</time>
      </trkpt>
      <trkpt lat="44.68356" lon="5.92893">
        <ele>1525.3</ele>
        <time>2015-07-01T11:14:38Z</time>
      </trkpt>
      <trkpt lat="44.68354" lon="5.929">
        <ele>1523.7</ele>
        <time>2015-07-01T11:14:43Z</time>
      </trkpt>
      <trkpt lat="44.68355" lon="5.92903">
        <ele>1522.7</ele>
        <time>2015-07-01T11:14:48Z</time>
      </trkpt>
      <trkpt lat="44.68353" lon="5.92908">
        <ele>1521.4</ele>
        <time>2015-07-01T11:14:53Z</time>
      </trkpt>
      <trkpt lat="44.68352" lon="5.92917">
        <ele>1520.3</ele>
        <time>2015-07-01T11:14:58Z</time>
      </trkpt>
      <trkpt lat="44.68353" lon="5.92925">
        <ele>1520.1</ele>
        <time>2015-07-01T11:15:03Z</time>
      </trkpt>
      <trkpt lat="44.68354" lon="5.92934">
        <ele>1523.7</ele>
        <time>2015-07-01T11:15:08Z</time>
      </trkpt>
      <trkpt lat="44.68356" lon="5.92942">
        <ele>1527.6</ele>
        <time>2015-07-01T11:15:13Z</time>
      </trkpt>
      <trkpt lat="44.68358" lon="5.92951">
        <ele>1527.9</ele>
        <time>2015-07-01T11:15:18Z</time>
      </trkpt>
      <trkpt lat="44.68359" lon="5.9296">
        <ele>1524.6</ele>
        <time>2015-07-01T11:15:23Z</time>
      </trkpt>
      <trkpt lat="44.6836" lon="5.92969">
        <ele>1521.7</ele>
        <time>2015-07-01T11:15:28Z</time>
      </trkpt>
      <trkpt lat="44.68361" lon="5.92977">
        <ele>1520.1</ele>
        <time>2015-07-01T11:15:33Z</time>
      </trkpt>
      <trkpt lat="44.6836" lon="5.92986">
        <ele>1516.6</ele>
        <time>2015-07-01T11:15:38Z</time>
      </trkpt>
      <trkpt lat="44.68361" lon="5.92993">
        <ele>1518.1</ele>
        <time>2015-07-01T11:15:43Z</time>
      </trkpt>
      <trkpt lat="44.68361" lon="5.93">
        <ele>1516</ele>
        <time>2015-07-01T11:15:48Z</time>
      </trkpt>
      <trkpt lat="44.6836" lon="5.93007">
        <ele>1511.6</ele>
        <time>2015-07-01T11:15:53Z</time>
      </trkpt>
      <trkpt lat="44.68361" lon="5.93015">
        <ele>1513</ele>
        <time>2015-07-01T11:15:58Z</time>
      </trkpt>
      <trkpt lat="44.68362" lon="5.93023">
        <ele>1512.3</ele>
        <time>2015-07-01T11:16:03Z</time>
      </trkpt>
      <trkpt lat="44.68362" lon="5.93031">
        <ele>1509.8</ele>
        <time>2015-07-01T11:16:08Z</time>
      </trkpt>
      <trkpt lat="44.68363" lon="5.93038">
        <ele>1507.8</ele>
        <time>2015-07-01T11:16:13Z</time>
      </trkpt>
      <trkpt lat="44.68364" lon="5.93044">
        <ele>1506.4</ele>
        <time>2015-07-01T11:16:18Z</time>
      </trkpt>
      <trkpt lat="44.68364" lon="5.93054">
        <ele>1510.8</ele>
        <time>2015-07-01T11:16:23Z</time>
      </trkpt>
      <trkpt lat="44.68364" lon="5.93063">
        <ele>1512.4</ele>
        <time>2015-07-01T11:16:28Z</time>
      </trkpt>
      <trkpt lat="44.68366" lon="5.9307">
        <ele>1512.7</ele>
        <time>2015-07-01T11:16:33Z</time>
      </trkpt>
      <trkpt lat="44.68367" lon="5.93076">
        <ele>1511</ele>
        <time>2015-07-01T11:16:38Z</time>
      </trkpt>
      <trkpt lat="44.68369" lon="5.93084">
        <ele>1510.3</ele>
        <time>2015-07-01T11:16:43Z</time>
      </trkpt>
      <trkpt lat="44.68369" lon="5.93092">
        <ele>1510.2</ele>
        <time>2015-07-01T11:16:48Z</time>
      </trkpt>
      <trkpt lat="44.68372" lon="5.93098">
        <ele>1508.7</ele>
        <time>2015-07-01T11:16:53Z</time>
      </trkpt>
      <trkpt lat="44.68372" lon="5.93109">
        <ele>1513.2</ele>
        <time>2015-07-01T11:16:58Z</time>
      </trkpt>
      <trkpt lat="44.68373" lon="5.93117">
        <ele>1515</ele>
        <time>2015-07-01T11:17:03Z</time>
      </trkpt>
      <trkpt lat="44.68373" lon="5.93127">
        <ele>1516</ele>
        <time>2015-07-01T11:17:08Z</time>
      </trkpt>
      <trkpt lat="44.68373" lon="5.93139">
        <ele>1516.6</ele>
        <time>2015-07-01T11:17:13Z</time>
      </trkpt>
      <trkpt lat="44.68374" lon="5.93149">
        <ele>1516.7</ele>
        <time>2015-07-01T11:17:18Z</time>
      </trkpt>
      <trkpt lat="44.68377" lon="5.93156">
        <ele>1511.1</ele>
        <time>2015-07-01T11:17:23Z</time>
      </trkpt>
      <trkpt lat="44.68378" lon="5.93165">
        <ele>1510.6</ele>
        <time>2015-07-01T11:17:28Z</time>
      </trkpt>
      <trkpt lat="44.68381" lon="5.93173">
        <ele>1507.3</ele>
        <time>2015-07-01T11:17:33Z</time>
      </trkpt>
      <trkpt lat="44.68385" lon="5.9318">
        <ele>1504</ele>
        <time>2015-07-01T11:17:38Z</time>
      </trkpt>
      <trkpt lat="44.68389" lon="5.93187">
        <ele>1502.9</ele>
        <time>2015-07-01T11:17:43Z</time>
      </trkpt>
      <trkpt lat="44.68394" lon="5.93194">
        <ele>1502.8</ele>
        <time>2015-07-01T11:17:48Z</time>
      </trkpt>
      <trkpt lat="44.68399" lon="5.93202">
        <ele>1501.6</ele>
        <time>2015-07-01T11:17:53Z</time>
      </trkpt>
      <trkpt lat="44.68403" lon="5.93207">
        <ele>1498.8</ele>
        <time>2015-07-01T11:17:58Z</time>
      </trkpt>
      <trkpt lat="44.68409" lon="5.93215">
        <ele>1499.8</ele>
        <time>2015-07-01T11:18:03Z</time>
      </trkpt>
      <trkpt lat="44.68415" lon="5.93221">
        <ele>1498.7</ele>
        <time>2015-07-01T11:18:08Z</time>
      </trkpt>
      <trkpt lat="44.68419" lon="5.93225">
        <ele>1497.2</ele>
        <time>2015-07-01T11:18:13Z</time>
      </trkpt>
      <trkpt lat="44.68424" lon="5.93228">
        <ele>1492.4</ele>
        <time>2015-07-01T11:18:18Z</time>
      </trkpt>
      <trkpt lat="44.68429" lon="5.93232">
        <ele>1490.8</ele>
        <time>2015-07-01T11:18:23Z</time>
      </trkpt>
      <trkpt lat="44.68435" lon="5.93235">
        <ele>1489.4</ele>
        <time>2015-07-01T11:18:28Z</time>
      </trkpt>
      <trkpt lat="44.68442" lon="5.93242">
        <ele>1494.7</ele>
        <time>2015-07-01T11:18:33Z</time>
      </trkpt>
      <trkpt lat="44.68447" lon="5.93248">
        <ele>1500</ele>
        <time>2015-07-01T11:18:38Z</time>
      </trkpt>
      <trkpt lat="44.68453" lon="5.93251">
        <ele>1500</ele>
        <time>2015-07-01T11:18:43Z</time>
      </trkpt>
      <trkpt lat="44.68456" lon="5.93257">
        <ele>1502.3</ele>
        <time>2015-07-01T11:18:48Z</time>
      </trkpt>
      <trkpt lat="44.68462" lon="5.9326">
        <ele>1499.9</ele>
        <time>2015-07-01T11:18:53Z</time>
      </trkpt>
      <trkpt lat="44.68468" lon="5.93264">
        <ele>1497</ele>
        <time>2015-07-01T11:18:58Z</time>
      </trkpt>
      <trkpt lat="44.68477" lon="5.93267">
        <ele>1494.5</ele>
        <time>2015-07-01T11:19:03Z</time>
      </trkpt>
      <trkpt lat="44.68484" lon="5.93269">
        <ele>1493.1</ele>
        <time>2015-07-01T11:19:08Z</time>
      </trkpt>
      <trkpt lat="44.68491" lon="5.93271">
        <ele>1491.8</ele>
        <time>2015-07-01T11:19:13Z</time>
      </trkpt>
      <trkpt lat="44.68496" lon="5.93272">
        <ele>1488.9</ele>
        <time>2015-07-01T11:19:18Z</time>
      </trkpt>
      <trkpt lat="44.68501" lon="5.93275">
        <ele>1487.4</ele>
        <time>2015-07-01T11:19:23Z</time>
      </trkpt>
      <trkpt lat="44.68507" lon="5.93279">
        <ele>1490.8</ele>
        <time>2015-07-01T11:19:28Z</time>
      </trkpt>
      <trkpt lat="44.68511" lon="5.93284">
        <ele>1491.2</ele>
        <time>2015-07-01T11:19:33Z</time>
      </trkpt>
      <trkpt lat="44.68516" lon="5.93287">
        <ele>1492.3</ele>
        <time>2015-07-01T11:19:38Z</time>
      </trkpt>
      <trkpt lat="44.68522" lon="5.93287">
        <ele>1494.7</ele>
        <time>2015-07-01T11:19:43Z</time>
      </trkpt>
      <trkpt lat="44.68527" lon="5.93292">
        <ele>1499.5</ele>
        <time>2015-07-01T11:19:48Z</time>
      </trkpt>
      <trkpt lat="44.68534" lon="5.93295">
        <ele>1504.7</ele>
        <time>2015-07-01T11:19:53Z</time>
      </trkpt>
      <trkpt lat="44.68541" lon="5.93296">
        <ele>1501.9</ele>
        <time>2015-07-01T11:19:58Z</time>
      </trkpt>
      <trkpt lat="44.68548" lon="5.93298">
        <ele>1498.2</ele>
        <time>2015-07-01T11:20:03Z</time>
      </trkpt>
      <trkpt lat="44.68554" lon="5.93301">
        <ele>1495.6</ele>
        <time>2015-07-01T11:20:08Z</time>
      </trkpt>
      <trkpt lat="44.68562" lon="5.93301">
        <ele>1492</ele>
        <time>2015-07-01T11:20:13Z</time>
      </trkpt>
      <trkpt lat="44.6857" lon="5.93302">
        <ele>1492.8</ele>
        <time>2015-07-01T11:20:18Z</time>
      </trkpt>
      <trkpt lat="44.68576" lon="5.93304">
        <ele>1493.8</ele>
        <time>2015-07-01T11:20:23Z</time>
      </trkpt>
      <trkpt lat="44.68584" lon="5.93304">
        <ele>1493</ele>
        <time>2015-07-01T11:20:28Z</time>
      </trkpt>
      <trkpt lat="44.68589" lon="5.93305">
        <ele>1491.7</ele>
        <time>2015-07-01T11:20:33Z</time>
      </trkpt>
      <trkpt lat="44.68595" lon="5.93307">
        <ele>1489.5</ele>
        <time>2015-07-01T11:20:38Z</time>
      </trkpt>
      <trkpt lat="44.68601" lon="5.93308">
        <ele>1486.8</ele>
        <time>2015-07-01T11:20:43Z</time>
      </trkpt>
      <trkpt lat="44.68606" lon="5.9331">
        <ele>1486.8</ele>
        <time>2015-07-01T11:20:48Z</time>
      </trkpt>
      <trkpt lat="44.68613" lon="5.93311">
        <ele>1484.8</ele>
        <time>2015-07-01T11:20:53Z</time>
      </trkpt>
      <trkpt lat="44.68618" lon="5.93316">
        <ele>1483.7</ele>
        <time>2015-07-01T11:20:58Z</time>
      </trkpt>
      <trkpt lat="44.68625" lon="5.93322">
        <ele>1484.3</ele>
        <time>2015-07-01T11:21:03Z</time>
      </trkpt>
      <trkpt lat="44.6863" lon="5.93326">
        <ele>1482.2</ele>
        <time>2015-07-01T11:21:08Z</time>
      </trkpt>
      <trkpt lat="44.68637" lon="5.93331">
        <ele>1483.6</ele>
        <time>2015-07-01T11:21:13Z</time>
      </trkpt>
      <trkpt lat="44.68643" lon="5.9333">
        <ele>1481</ele>
        <time>2015-07-01T11:21:18Z</time>
      </trkpt>
      <trkpt lat="44.68649" lon="5.93329">
        <ele>1478.7</ele>
        <time>2015-07-01T11:21:23Z</time>
      </trkpt>
      <trkpt lat="44.68654" lon="5.93328">
        <ele>1475</ele>
        <time>2015-07-01T11:21:28Z</time>
      </trkpt>
      <trkpt lat="44.6866" lon="5.93328">
        <ele>1475.6</ele>
        <time>2015-07-01T11:21:33Z</time>
      </trkpt>
      <trkpt lat="44.68666" lon="5.93331">
        <ele>1479.7</ele>
        <time>2015-07-01T11:21:38Z</time>
      </trkpt>
      <trkpt lat="44.68671" lon="5.93332">
        <ele>1479.8</ele>
        <time>2015-07-01T11:21:43Z</time>
      </trkpt>
      <trkpt lat="44.68679" lon="5.9333">
        <ele>1478.9</ele>
        <time>2015-07-01T11:21:48Z</time>
      </trkpt>
      <trkpt lat="44.68687" lon="5.93332">
        <ele>1478.8</ele>
        <time>2015-07-01T11:21:53Z</time>
      </trkpt>
      <trkpt lat="44.68696" lon="5.93338">
        <ele>1484.9</ele>
        <time>2015-07-01T11:21:58Z</time>
      </trkpt>
      <trkpt lat="44.68704" lon="5.93343">
        <ele>1487.6</ele>
        <time>2015-07-01T11:22:03Z</time>
      </trkpt>
      <trkpt lat="44.68713" lon="5.93345">
        <ele>1489.7</ele>
        <time>2015-07-01T11:22:08Z</time>
      </trkpt>
      <trkpt lat="44.68718" lon="5.93345">
        <ele>1487.8</ele>
        <time>2015-07-01T11:22:13Z</time>
      </trkpt>
      <trkpt lat="44.68724" lon="5.93346">
        <ele>1487.4</ele>
        <time>2015-07-01T11:22:18Z</time>
      </trkpt>
      <trkpt lat="44.68729" lon="5.93347">
        <ele>1486</ele>
        <time>2015-07-01T11:22:23Z</time>
      </trkpt>
      <trkpt lat="44.68737" lon="5.93345">
        <ele>1484.9</ele>
        <time>2015-07-01T11:22:28Z</time>
      </trkpt>
      <trkpt lat="44.68744" lon="5.93343">
        <ele>1484.4</ele>
        <time>2015-07-01T11:22:33Z</time>
      </trkpt>
      <trkpt lat="44.68746" lon="5.93345">
        <ele>1487.3</ele>
        <time>2015-07-01T11:22:38Z</time>
      </trkpt>
      <trkpt lat="44.68746" lon="5.93349">
        <ele>1490.8</ele>
        <time>2015-07-01T11:22:43Z</time>
      </trkpt>
      <trkpt lat="44.68744" lon="5.93353">
        <ele>1497.8</ele>
        <time>2015-07-01T11:22:48Z</time>
      </trkpt>
      <trkpt lat="44.68748" lon="5.93351">
        <ele>1495.9</ele>
        <time>2015-07-01T11:22:53Z</time>
      </trkpt>
      <trkpt lat="44.68756" lon="5.93345">
        <ele>1493.8</ele>
        <time>2015-07-01T11:22:58Z</time>
      </trkpt>
      <trkpt lat="44.68762" lon="5.93343">
        <ele>1490.2</ele>
        <time>2015-07-01T11:23:03Z</time>
      </trkpt>
      <trkpt lat="44.68768" lon="5.9334">
        <ele>1490.1</ele>
        <time>2015-07-01T11:23:08Z</time>
      </trkpt>
      <trkpt lat="44.68774" lon="5.9334">
        <ele>1487.8</ele>
        <time>2015-07-01T11:23:13Z</time>
      </trkpt>
      <trkpt lat="44.68778" lon="5.93337">
        <ele>1483.1</ele>
        <time>2015-07-01T11:23:18Z</time>
      </trkpt>
      <trkpt lat="44.68784" lon="5.93335">
        <ele>1480.6</ele>
        <time>2015-07-01T11:23:23Z</time>
      </trkpt>
      <trkpt lat="44.68791" lon="5.93333">
        <ele>1480.1</ele>
        <time>2015-07-01T11:23:28Z</time>
      </trkpt>
      <trkpt lat="44.68797" lon="5.93333">
        <ele>1480.3</ele>
        <time>2015-07-01T11:23:33Z</time>
      </trkpt>
      <trkpt lat="44.68804" lon="5.93332">
        <ele>1480.1</ele>
        <time>2015-07-01T11:23:38Z</time>
      </trkpt>
      <trkpt lat="44.68809" lon="5.93332">
        <ele>1478.7</ele>
        <time>2015-07-01T11:23:43Z</time>
      </trkpt>
      <trkpt lat="44.68817" lon="5.93329">
        <ele>1478.5</ele>
        <time>2015-07-01T11:23:48Z</time>
      </trkpt>
      <trkpt lat="44.68824" lon="5.9333">
        <ele>1480.8</ele>
        <time>2015-07-01T11:23:53Z</time>
      </trkpt>
      <trkpt lat="44.68831" lon="5.93331">
        <ele>1483</ele>
        <time>2015-07-01T11:23:58Z</time>
      </trkpt>
      <trkpt lat="44.68837" lon="5.93329">
        <ele>1480.4</ele>
        <time>2015-07-01T11:24:03Z</time>
      </trkpt>
      <trkpt lat="44.68842" lon="5.93329">
        <ele>1478.6</ele>
        <time>2015-07-01T11:24:08Z</time>
      </trkpt>
      <trkpt lat="44.68849" lon="5.9333">
        <ele>1480.1</ele>
        <time>2015-07-01T11:24:13Z</time>
      </trkpt>
      <trkpt lat="44.68856" lon="5.93329">
        <ele>1480.8</ele>
        <time>2015-07-01T11:24:18Z</time>
      </trkpt>
      <trkpt lat="44.68863" lon="5.93329">
        <ele>1480.4</ele>
        <time>2015-07-01T11:24:23Z</time>
      </trkpt>
      <trkpt lat="44.68869" lon="5.9333">
        <ele>1480.4</ele>
        <time>2015-07-01T11:24:28Z</time>
      </trkpt>
      <trkpt lat="44.68874" lon="5.93329">
        <ele>1480.2</ele>
        <time>2015-07-01T11:24:33Z</time>
      </trkpt>
      <trkpt lat="44.68881" lon="5.93326">
        <ele>1478.3</ele>
        <time>2015-07-01T11:24:38Z</time>
      </trkpt>
      <trkpt lat="44.68889" lon="5.93323">
        <ele>1476.9</ele>
        <time>2015-07-01T11:24:43Z</time>
      </trkpt>
      <trkpt lat="44.68895" lon="5.93323">
        <ele>1475.1</ele>
        <time>2015-07-01T11:24:48Z</time>
      </trkpt>
      <trkpt lat="44.689" lon="5.93324">
        <ele>1473.3</ele>
        <time>2015-07-01T11:24:53Z</time>
      </trkpt>
      <trkpt lat="44.68908" lon="5.93323">
        <ele>1476.6</ele>
        <time>2015-07-01T11:24:58Z</time>
      </trkpt>
      <trkpt lat="44.68913" lon="5.93321">
        <ele>1476.9</ele>
        <time>2015-07-01T11:25:03Z</time>
      </trkpt>
      <trkpt lat="44.68919" lon="5.93321">
        <ele>1475.6</ele>
        <time>2015-07-01T11:25:08Z</time>
      </trkpt>
      <trkpt lat="44.68924" lon="5.9332">
        <ele>1472.5</ele>
        <time>2015-07-01T11:25:13Z</time>
      </trkpt>
      <trkpt lat="44.68929" lon="5.9332">
        <ele>1470.8</ele>
        <time>2015-07-01T11:25:18Z</time>
      </trkpt>
      <trkpt lat="44.68934" lon="5.9332">
        <ele>1470.4</ele>
        <time>2015-07-01T11:25:23Z</time>
      </trkpt>
      <trkpt lat="44.6894" lon="5.93321">
        <ele>1470.4</ele>
        <time>2015-07-01T11:25:28Z</time>
      </trkpt>
      <trkpt lat="44.68947" lon="5.9332">
        <ele>1471.6</ele>
        <time>2015-07-01T11:25:33Z</time>
      </trkpt>
      <trkpt lat="44.68954" lon="5.93318">
        <ele>1472.1</ele>
        <time>2015-07-01T11:25:38Z</time>
      </trkpt>
      <trkpt lat="44.68961" lon="5.93317">
        <ele>1474.3</ele>
        <time>2015-07-01T11:25:43Z</time>
      </trkpt>
      <trkpt lat="44.68967" lon="5.93318">
        <ele>1477.3</ele>
        <time>2015-07-01T11:25:48Z</time>
      </trkpt>
      <trkpt lat="44.68973" lon="5.93317">
        <ele>1478.9</ele>
        <time>2015-07-01T11:25:53Z</time>
      </trkpt>
      <trkpt lat="44.68979" lon="5.93314">
        <ele>1478.7</ele>
        <time>2015-07-01T11:25:58Z</time>
      </trkpt>
      <trkpt lat="44.68985" lon="5.93311">
        <ele>1477.4</ele>
        <time>2015-07-01T11:26:03Z</time>
      </trkpt>
      <trkpt lat="44.68991" lon="5.93309">
        <ele>1479.1</ele>
        <time>2015-07-01T11:26:08Z</time>
      </trkpt>
      <trkpt lat="44.68999" lon="5.93306">
        <ele>1478.9</ele>
        <time>2015-07-01T11:26:13Z</time>
      </trkpt>
      <trkpt lat="44.69005" lon="5.93304">
        <ele>1478</ele>
        <time>2015-07-01T11:26:18Z</time>
      </trkpt>
      <trkpt lat="44.69005" lon="5.93302">
        <ele>1478.9</ele>
        <time>2015-07-01T11:26:23Z</time>
      </trkpt>
      <trkpt lat="44.69005" lon="5.933">
        <ele>1478.9</ele>
        <time>2015-07-01T11:26:28Z</time>
      </trkpt>
      <trkpt lat="44.69005" lon="5.93299">
        <ele>1477.1</ele>
        <time>2015-07-01T11:26:33Z</time>
      </trkpt>
      <trkpt lat="44.69003" lon="5.93296">
        <ele>1473.7</ele>
        <time>2015-07-01T11:26:38Z</time>
      </trkpt>
      <trkpt lat="44.69001" lon="5.93295">
        <ele>1474.4</ele>
        <time>2015-07-01T11:26:43Z</time>
      </trkpt>
      <trkpt lat="44.69003" lon="5.93295">
        <ele>1474.8</ele>
        <time>2015-07-01T11:26:48Z</time>
      </trkpt>
      <trkpt lat="44.69007" lon="5.93294">
        <ele>1474</ele>
        <time>2015-07-01T11:26:53Z</time>
      </trkpt>
      <trkpt lat="44.69013" lon="5.93293">
        <ele>1474.2</ele>
        <time>2015-07-01T11:26:58Z</time>
      </trkpt>
      <trkpt lat="44.69016" lon="5.93291">
        <ele>1474.4</ele>
        <time>2015-07-01T11:27:03Z</time>
      </trkpt>
      <trkpt lat="44.69016" lon="5.93291">
        <ele>1477.2</ele>
        <time>2015-07-01T11:27:08Z</time>
      </trkpt>
      <trkpt lat="44.69016" lon="5.93291">
        <ele>1477</ele>
        <time>2015-07-01T11:27:13Z</time>
      </trkpt>
      <trkpt lat="44.69017" lon="5.9329">
        <ele>1475</ele>
        <time>2015-07-01T11:27:18Z</time>
      </trkpt>
      <trkpt lat="44.6902" lon="5.93289">
        <ele>1474.6</ele>
        <time>2015-07-01T11:27:23Z</time>
      </trkpt>
      <trkpt lat="44.69016" lon="5.9329">
        <ele>1474</ele>
        <time>2015-07-01T11:27:28Z</time>
      </trkpt>
      <trkpt lat="44.69017" lon="5.93289">
        <ele>1473.5</ele>
        <time>2015-07-01T11:27:33Z</time>
      </trkpt>
      <trkpt lat="44.69016" lon="5.93295">
        <ele>1482.9</ele>
        <time>2015-07-01T11:27:38Z</time>
      </trkpt>
      <trkpt lat="44.69015" lon="5.93295">
        <ele>1482.5</ele>
        <time>2015-07-01T11:27:43Z</time>
      </trkpt>
      <trkpt lat="44.69014" lon="5.93295">
        <ele>1482.1</ele>
        <time>2015-07-01T11:27:48Z</time>
      </trkpt>
      <trkpt lat="44.69015" lon="5.93297">
        <ele>1480</ele>
        <time>2015-07-01T11:27:53Z</time>
      </trkpt>
      <trkpt lat="44.6902" lon="5.93297">
        <ele>1480.4</ele>
        <time>2015-07-01T11:27:58Z</time>
      </trkpt>
      <trkpt lat="44.69026" lon="5.93293">
        <ele>1478.1</ele>
        <time>2015-07-01T11:28:03Z</time>
      </trkpt>
      <trkpt lat="44.69032" lon="5.9329">
        <ele>1478.7</ele>
        <time>2015-07-01T11:28:08Z</time>
      </trkpt>
      <trkpt lat="44.6904" lon="5.93286">
        <ele>1480.8</ele>
        <time>2015-07-01T11:28:13Z</time>
      </trkpt>
      <trkpt lat="44.69046" lon="5.93283">
        <ele>1478.1</ele>
        <time>2015-07-01T11:28:18Z</time>
      </trkpt>
      <trkpt lat="44.69053" lon="5.93281">
        <ele>1476.3</ele>
        <time>2015-07-01T11:28:23Z</time>
      </trkpt>
      <trkpt lat="44.69059" lon="5.93279">
        <ele>1475.2</ele>
        <time>2015-07-01T11:28:28Z</time>
      </trkpt>
      <trkpt lat="44.69067" lon="5.93278">
        <ele>1477.2</ele>
        <time>2015-07-01T11:28:33Z</time>
      </trkpt>
      <trkpt lat="44.69076" lon="5.93275">
        <ele>1477.3</ele>
        <time>2015-07-01T11:28:38Z</time>
      </trkpt>
      <trkpt lat="44.69081" lon="5.93274">
        <ele>1475.9</ele>
        <time>2015-07-01T11:28:43Z</time>
      </trkpt>
      <trkpt lat="44.69086" lon="5.93274">
        <ele>1479</ele>
        <time>2015-07-01T11:28:48Z</time>
      </trkpt>
      <trkpt lat="44.69092" lon="5.93271">
        <ele>1477.7</ele>
        <time>2015-07-01T11:28:53Z</time>
      </trkpt>
      <trkpt lat="44.69095" lon="5.93269">
        <ele>1478.8</ele>
        <time>2015-07-01T11:28:58Z</time>
      </trkpt>
      <trkpt lat="44.69102" lon="5.93268">
        <ele>1478</ele>
        <time>2015-07-01T11:29:03Z</time>
      </trkpt>
      <trkpt lat="44.6911" lon="5.93265">
        <ele>1478.8</ele>
        <time>2015-07-01T11:29:08Z</time>
      </trkpt>
      <trkpt lat="44.69117" lon="5.9326">
        <ele>1477.2</ele>
        <time>2015-07-01T11:29:13Z</time>
      </trkpt>
      <trkpt lat="44.69124" lon="5.93256">
        <ele>1477.6</ele>
        <time>2015-07-01T11:29:18Z</time>
      </trkpt>
      <trkpt lat="44.6913" lon="5.93252">
        <ele>1476</ele>
        <time>2015-07-01T11:29:23Z</time>
      </trkpt>
      <trkpt lat="44.69137" lon="5.93253">
        <ele>1481.1</ele>
        <time>2015-07-01T11:29:28Z</time>
      </trkpt>
      <trkpt lat="44.69144" lon="5.93251">
        <ele>1480.2</ele>
        <time>2015-07-01T11:29:33Z</time>
      </trkpt>
      <trkpt lat="44.69149" lon="5.93248">
        <ele>1479</ele>
        <time>2015-07-01T11:29:38Z</time>
      </trkpt>
      <trkpt lat="44.69157" lon="5.93242">
        <ele>1477.1</ele>
        <time>2015-07-01T11:29:44Z</time>
      </trkpt>
      <trkpt lat="44.69167" lon="5.93235">
        <ele>1473.9</ele>
        <time>2015-07-01T11:29:50Z</time>
      </trkpt>
      <trkpt lat="44.69174" lon="5.93233">
        <ele>1474.7</ele>
        <time>2015-07-01T11:29:56Z</time>
      </trkpt>
      <trkpt lat="44.69182" lon="5.93231">
        <ele>1478.1</ele>
        <time>2015-07-01T11:30:01Z</time>
      </trkpt>
      <trkpt lat="44.69189" lon="5.93229">
        <ele>1480.9</ele>
        <time>2015-07-01T11:30:06Z</time>
      </trkpt>
      <trkpt lat="44.69195" lon="5.93226">
        <ele>1483.6</ele>
        <time>2015-07-01T11:30:11Z</time>
      </trkpt>
      <trkpt lat="44.69203" lon="5.93219">
        <ele>1483.9</ele>
        <time>2015-07-01T11:30:17Z</time>
      </trkpt>
      <trkpt lat="44.69207" lon="5.93216">
        <ele>1484.4</ele>
        <time>2015-07-01T11:30:22Z</time>
      </trkpt>
      <trkpt lat="44.69213" lon="5.93213">
        <ele>1486.8</ele>
        <time>2015-07-01T11:30:28Z</time>
      </trkpt>
      <trkpt lat="44.69221" lon="5.93209">
        <ele>1488</ele>
        <time>2015-07-01T11:30:33Z</time>
      </trkpt>
      <trkpt lat="44.69226" lon="5.93206">
        <ele>1486.7</ele>
        <time>2015-07-01T11:30:38Z</time>
      </trkpt>
      <trkpt lat="44.69232" lon="5.93203">
        <ele>1487.2</ele>
        <time>2015-07-01T11:30:43Z</time>
      </trkpt>
      <trkpt lat="44.6924" lon="5.93202">
        <ele>1487</ele>
        <time>2015-07-01T11:30:48Z</time>
      </trkpt>
      <trkpt lat="44.69247" lon="5.932">
        <ele>1490.2</ele>
        <time>2015-07-01T11:30:53Z</time>
      </trkpt>
      <trkpt lat="44.69254" lon="5.932">
        <ele>1488.2</ele>
        <time>2015-07-01T11:30:58Z</time>
      </trkpt>
      <trkpt lat="44.6926" lon="5.93197">
        <ele>1486.7</ele>
        <time>2015-07-01T11:31:03Z</time>
      </trkpt>
      <trkpt lat="44.69266" lon="5.93195">
        <ele>1486.6</ele>
        <time>2015-07-01T11:31:08Z</time>
      </trkpt>
      <trkpt lat="44.69272" lon="5.93192">
        <ele>1486.1</ele>
        <time>2015-07-01T11:31:13Z</time>
      </trkpt>
      <trkpt lat="44.69278" lon="5.9319">
        <ele>1486.5</ele>
        <time>2015-07-01T11:31:18Z</time>
      </trkpt>
      <trkpt lat="44.69283" lon="5.93187">
        <ele>1488.2</ele>
        <time>2015-07-01T11:31:23Z</time>
      </trkpt>
      <trkpt lat="44.69289" lon="5.93188">
        <ele>1490.2</ele>
        <time>2015-07-01T11:31:28Z</time>
      </trkpt>
      <trkpt lat="44.69295" lon="5.93186">
        <ele>1490.5</ele>
        <time>2015-07-01T11:31:33Z</time>
      </trkpt>
      <trkpt lat="44.69302" lon="5.93184">
        <ele>1490.6</ele>
        <time>2015-07-01T11:31:38Z</time>
      </trkpt>
      <trkpt lat="44.69309" lon="5.93183">
        <ele>1492.5</ele>
        <time>2015-07-01T11:31:43Z</time>
      </trkpt>
      <trkpt lat="44.69313" lon="5.93178">
        <ele>1491</ele>
        <time>2015-07-01T11:31:48Z</time>
      </trkpt>
      <trkpt lat="44.69321" lon="5.93175">
        <ele>1492.7</ele>
        <time>2015-07-01T11:31:53Z</time>
      </trkpt>
      <trkpt lat="44.69326" lon="5.93177">
        <ele>1491.9</ele>
        <time>2015-07-01T11:31:58Z</time>
      </trkpt>
      <trkpt lat="44.69333" lon="5.93175">
        <ele>1490.9</ele>
        <time>2015-07-01T11:32:03Z</time>
      </trkpt>
      <trkpt lat="44.69341" lon="5.93175">
        <ele>1491.4</ele>
        <time>2015-07-01T11:32:08Z</time>
      </trkpt>
      <trkpt lat="44.69347" lon="5.93171">
        <ele>1491.4</ele>
        <time>2015-07-01T11:32:13Z</time>
      </trkpt>
      <trkpt lat="44.69354" lon="5.93171">
        <ele>1491.4</ele>
        <time>2015-07-01T11:32:18Z</time>
      </trkpt>
      <trkpt lat="44.69361" lon="5.9317">
        <ele>1492.2</ele>
        <time>2015-07-01T11:32:23Z</time>
      </trkpt>
      <trkpt lat="44.69366" lon="5.93171">
        <ele>1492.6</ele>
        <time>2015-07-01T11:32:28Z</time>
      </trkpt>
      <trkpt lat="44.69373" lon="5.93168">
        <ele>1493.9</ele>
        <time>2015-07-01T11:32:33Z</time>
      </trkpt>
      <trkpt lat="44.6938" lon="5.93165">
        <ele>1494.9</ele>
        <time>2015-07-01T11:32:38Z</time>
      </trkpt>
      <trkpt lat="44.69386" lon="5.9316">
        <ele>1493.6</ele>
        <time>2015-07-01T11:32:43Z</time>
      </trkpt>
      <trkpt lat="44.69391" lon="5.93157">
        <ele>1495.6</ele>
        <time>2015-07-01T11:32:48Z</time>
      </trkpt>
      <trkpt lat="44.69398" lon="5.93156">
        <ele>1496.9</ele>
        <time>2015-07-01T11:32:53Z</time>
      </trkpt>
      <trkpt lat="44.69402" lon="5.93152">
        <ele>1497.5</ele>
        <time>2015-07-01T11:32:58Z</time>
      </trkpt>
      <trkpt lat="44.69405" lon="5.93149">
        <ele>1497.8</ele>
        <time>2015-07-01T11:33:03Z</time>
      </trkpt>
      <trkpt lat="44.69412" lon="5.93144">
        <ele>1497.9</ele>
        <time>2015-07-01T11:33:08Z</time>
      </trkpt>
      <trkpt lat="44.69418" lon="5.93137">
        <ele>1500.1</ele>
        <time>2015-07-01T11:33:13Z</time>
      </trkpt>
      <trkpt lat="44.69423" lon="5.93128">
        <ele>1499.5</ele>
        <time>2015-07-01T11:33:18Z</time>
      </trkpt>
      <trkpt lat="44.69428" lon="5.93124">
        <ele>1501.9</ele>
        <time>2015-07-01T11:33:23Z</time>
      </trkpt>
      <trkpt lat="44.69433" lon="5.93117">
        <ele>1503</ele>
        <time>2015-07-01T11:33:28Z</time>
      </trkpt>
      <trkpt lat="44.69437" lon="5.93111">
        <ele>1504.8</ele>
        <time>2015-07-01T11:33:33Z</time>
      </trkpt>
      <trkpt lat="44.69443" lon="5.93103">
        <ele>1503.9</ele>
        <time>2015-07-01T11:33:38Z</time>
      </trkpt>
      <trkpt lat="44.69447" lon="5.93093">
        <ele>1495.8</ele>
        <time>2015-07-01T11:33:43Z</time>
      </trkpt>
      <trkpt lat="44.6945" lon="5.93087">
        <ele>1492.2</ele>
        <time>2015-07-01T11:33:48Z</time>
      </trkpt>
      <trkpt lat="44.69456" lon="5.9308">
        <ele>1495.1</ele>
        <time>2015-07-01T11:33:53Z</time>
      </trkpt>
      <trkpt lat="44.6946" lon="5.93075">
        <ele>1495</ele>
        <time>2015-07-01T11:33:58Z</time>
      </trkpt>
      <trkpt lat="44.69463" lon="5.93072">
        <ele>1495.6</ele>
        <time>2015-07-01T11:34:03Z</time>
      </trkpt>
      <trkpt lat="44.6946" lon="5.93073">
        <ele>1500.6</ele>
        <time>2015-07-01T11:34:08Z</time>
      </trkpt>
      <trkpt lat="44.69456" lon="5.9308">
        <ele>1503.5</ele>
        <time>2015-07-01T11:34:13Z</time>
      </trkpt>
      <trkpt lat="44.69451" lon="5.93087">
        <ele>1502.5</ele>
        <time>2015-07-01T11:34:18Z</time>
      </trkpt>
      <trkpt lat="44.69446" lon="5.93091">
        <ele>1498.7</ele>
        <time>2015-07-01T11:34:23Z</time>
      </trkpt>
      <trkpt lat="44.69441" lon="5.93096">
        <ele>1499.2</ele>
        <time>2015-07-01T11:34:28Z</time>
      </trkpt>
      <trkpt lat="44.69436" lon="5.93101">
        <ele>1499.6</ele>
        <time>2015-07-01T11:34:33Z</time>
      </trkpt>
      <trkpt lat="44.69429" lon="5.93111">
        <ele>1501.4</ele>
        <time>2015-07-01T11:34:38Z</time>
      </trkpt>
      <trkpt lat="44.69425" lon="5.93118">
        <ele>1498.6</ele>
        <time>2015-07-01T11:34:43Z</time>
      </trkpt>
      <trkpt lat="44.69417" lon="5.93124">
        <ele>1498.8</ele>
        <time>2015-07-01T11:34:49Z</time>
      </trkpt>
      <trkpt lat="44.69413" lon="5.93129">
        <ele>1499</ele>
        <time>2015-07-01T11:34:54Z</time>
      </trkpt>
      <trkpt lat="44.69408" lon="5.93135">
        <ele>1495.5</ele>
        <time>2015-07-01T11:34:59Z</time>
      </trkpt>
      <trkpt lat="44.69403" lon="5.9314">
        <ele>1496.6</ele>
        <time>2015-07-01T11:35:04Z</time>
      </trkpt>
      <trkpt lat="44.69396" lon="5.93144">
        <ele>1497.6</ele>
        <time>2015-07-01T11:35:09Z</time>
      </trkpt>
      <trkpt lat="44.6939" lon="5.9315">
        <ele>1494</ele>
        <time>2015-07-01T11:35:15Z</time>
      </trkpt>
      <trkpt lat="44.69383" lon="5.93147">
        <ele>1488.7</ele>
        <time>2015-07-01T11:35:20Z</time>
      </trkpt>
      <trkpt lat="44.69375" lon="5.93148">
        <ele>1489.6</ele>
        <time>2015-07-01T11:35:25Z</time>
      </trkpt>
      <trkpt lat="44.69367" lon="5.93151">
        <ele>1492.4</ele>
        <time>2015-07-01T11:35:30Z</time>
      </trkpt>
      <trkpt lat="44.6936" lon="5.93154">
        <ele>1490.7</ele>
        <time>2015-07-01T11:35:35Z</time>
      </trkpt>
      <trkpt lat="44.69354" lon="5.93157">
        <ele>1490.4</ele>
        <time>2015-07-01T11:35:40Z</time>
      </trkpt>
      <trkpt lat="44.69346" lon="5.9316">
        <ele>1490.6</ele>
        <time>2015-07-01T11:35:45Z</time>
      </trkpt>
      <trkpt lat="44.69338" lon="5.93163">
        <ele>1489.7</ele>
        <time>2015-07-01T11:35:50Z</time>
      </trkpt>
      <trkpt lat="44.69331" lon="5.93165">
        <ele>1490.8</ele>
        <time>2015-07-01T11:35:55Z</time>
      </trkpt>
      <trkpt lat="44.69326" lon="5.93164">
        <ele>1487.7</ele>
        <time>2015-07-01T11:36:01Z</time>
      </trkpt>
      <trkpt lat="44.69318" lon="5.93163">
        <ele>1485.4</ele>
        <time>2015-07-01T11:36:06Z</time>
      </trkpt>
      <trkpt lat="44.69307" lon="5.93168">
        <ele>1485.9</ele>
        <time>2015-07-01T11:36:12Z</time>
      </trkpt>
      <trkpt lat="44.69296" lon="5.93173">
        <ele>1489.6</ele>
        <time>2015-07-01T11:36:18Z</time>
      </trkpt>
      <trkpt lat="44.6929" lon="5.93173">
        <ele>1490.8</ele>
        <time>2015-07-01T11:36:23Z</time>
      </trkpt>
      <trkpt lat="44.69283" lon="5.93177">
        <ele>1494.6</ele>
        <time>2015-07-01T11:36:28Z</time>
      </trkpt>
      <trkpt lat="44.69275" lon="5.9318">
        <ele>1493.7</ele>
        <time>2015-07-01T11:36:33Z</time>
      </trkpt>
      <trkpt lat="44.69269" lon="5.93185">
        <ele>1496.3</ele>
        <time>2015-07-01T11:36:38Z</time>
      </trkpt>
      <trkpt lat="44.6926" lon="5.93191">
        <ele>1503.8</ele>
        <time>2015-07-01T11:36:43Z</time>
      </trkpt>
      <trkpt lat="44.69254" lon="5.93192">
        <ele>1504.5</ele>
        <time>2015-07-01T11:36:48Z</time>
      </trkpt>
      <trkpt lat="44.69249" lon="5.9319">
        <ele>1495.1</ele>
        <time>2015-07-01T11:36:53Z</time>
      </trkpt>
      <trkpt lat="44.69243" lon="5.93192">
        <ele>1490.6</ele>
        <time>2015-07-01T11:36:58Z</time>
      </trkpt>
      <trkpt lat="44.69236" lon="5.93192">
        <ele>1490.1</ele>
        <time>2015-07-01T11:37:03Z</time>
      </trkpt>
      <trkpt lat="44.6923" lon="5.93189">
        <ele>1481</ele>
        <time>2015-07-01T11:37:08Z</time>
      </trkpt>
      <trkpt lat="44.69219" lon="5.93192">
        <ele>1483.3</ele>
        <time>2015-07-01T11:37:14Z</time>
      </trkpt>
      <trkpt lat="44.69213" lon="5.93196">
        <ele>1482.3</ele>
        <time>2015-07-01T11:37:19Z</time>
      </trkpt>
      <trkpt lat="44.69207" lon="5.93204">
        <ele>1478.2</ele>
        <time>2015-07-01T11:37:26Z</time>
      </trkpt>
      <trkpt lat="44.69199" lon="5.93211">
        <ele>1477.9</ele>
        <time>2015-07-01T11:37:31Z</time>
      </trkpt>
      <trkpt lat="44.69193" lon="5.93217">
        <ele>1480.9</ele>
        <time>2015-07-01T11:37:36Z</time>
      </trkpt>
      <trkpt lat="44.69185" lon="5.93223">
        <ele>1485.2</ele>
        <time>2015-07-01T11:37:41Z</time>
      </trkpt>
      <trkpt lat="44.69177" lon="5.93223">
        <ele>1479.5</ele>
        <time>2015-07-01T11:37:48Z</time>
      </trkpt>
      <trkpt lat="44.6917" lon="5.93226">
        <ele>1473.4</ele>
        <time>2015-07-01T11:37:53Z</time>
      </trkpt>
      <trkpt lat="44.69168" lon="5.93228">
        <ele>1462.9</ele>
        <time>2015-07-01T11:38:00Z</time>
      </trkpt>
      <trkpt lat="44.69162" lon="5.93231">
        <ele>1461.6</ele>
        <time>2015-07-01T11:38:05Z</time>
      </trkpt>
      <trkpt lat="44.69149" lon="5.93236">
        <ele>1462</ele>
        <time>2015-07-01T11:38:14Z</time>
      </trkpt>
      <trkpt lat="44.69138" lon="5.93241">
        <ele>1464.2</ele>
        <time>2015-07-01T11:38:19Z</time>
      </trkpt>
      <trkpt lat="44.69132" lon="5.93246">
        <ele>1470.3</ele>
        <time>2015-07-01T11:38:24Z</time>
      </trkpt>
      <trkpt lat="44.69122" lon="5.93251">
        <ele>1476.8</ele>
        <time>2015-07-01T11:38:29Z</time>
      </trkpt>
      <trkpt lat="44.69113" lon="5.93256">
        <ele>1478.2</ele>
        <time>2015-07-01T11:38:34Z</time>
      </trkpt>
      <trkpt lat="44.69105" lon="5.93262">
        <ele>1484.2</ele>
        <time>2015-07-01T11:38:39Z</time>
      </trkpt>
      <trkpt lat="44.69095" lon="5.93268">
        <ele>1490.1</ele>
        <time>2015-07-01T11:38:44Z</time>
      </trkpt>
      <trkpt lat="44.69091" lon="5.9327">
        <ele>1493.1</ele>
        <time>2015-07-01T11:38:49Z</time>
      </trkpt>
      <trkpt lat="44.69082" lon="5.93272">
        <ele>1493.5</ele>
        <time>2015-07-01T11:38:54Z</time>
      </trkpt>
      <trkpt lat="44.69071" lon="5.93272">
        <ele>1485</ele>
        <time>2015-07-01T11:39:01Z</time>
      </trkpt>
      <trkpt lat="44.6906" lon="5.93276">
        <ele>1488</ele>
        <time>2015-07-01T11:39:06Z</time>
      </trkpt>
      <trkpt lat="44.69054" lon="5.93274">
        <ele>1484.5</ele>
        <time>2015-07-01T11:39:12Z</time>
      </trkpt>
      <trkpt lat="44.69044" lon="5.93281">
        <ele>1493.6</ele>
        <time>2015-07-01T11:39:17Z</time>
      </trkpt>
      <trkpt lat="44.69036" lon="5.93283">
        <ele>1493.6</ele>
        <time>2015-07-01T11:39:22Z</time>
      </trkpt>
      <trkpt lat="44.6903" lon="5.93285">
        <ele>1494.6</ele>
        <time>2015-07-01T11:39:27Z</time>
      </trkpt>
      <trkpt lat="44.69025" lon="5.93285">
        <ele>1485</ele>
        <time>2015-07-01T11:39:33Z</time>
      </trkpt>
      <trkpt lat="44.69017" lon="5.93285">
        <ele>1475</ele>
        <time>2015-07-01T11:39:38Z</time>
      </trkpt>
      <trkpt lat="44.69009" lon="5.93292">
        <ele>1477.5</ele>
        <time>2015-07-01T11:39:43Z</time>
      </trkpt>
      <trkpt lat="44.69003" lon="5.93296">
        <ele>1475.1</ele>
        <time>2015-07-01T11:39:48Z</time>
      </trkpt>
      <trkpt lat="44.68995" lon="5.93296">
        <ele>1475.9</ele>
        <time>2015-07-01T11:39:53Z</time>
      </trkpt>
      <trkpt lat="44.6899" lon="5.93298">
        <ele>1470.5</ele>
        <time>2015-07-01T11:39:58Z</time>
      </trkpt>
      <trkpt lat="44.68983" lon="5.933">
        <ele>1470</ele>
        <time>2015-07-01T11:40:03Z</time>
      </trkpt>
      <trkpt lat="44.68976" lon="5.93305">
        <ele>1470.3</ele>
        <time>2015-07-01T11:40:08Z</time>
      </trkpt>
      <trkpt lat="44.68969" lon="5.93307">
        <ele>1465.6</ele>
        <time>2015-07-01T11:40:13Z</time>
      </trkpt>
      <trkpt lat="44.6896" lon="5.93311">
        <ele>1469.2</ele>
        <time>2015-07-01T11:40:18Z</time>
      </trkpt>
      <trkpt lat="44.68952" lon="5.93312">
        <ele>1473.4</ele>
        <time>2015-07-01T11:40:23Z</time>
      </trkpt>
      <trkpt lat="44.68946" lon="5.93316">
        <ele>1472.2</ele>
        <time>2015-07-01T11:40:28Z</time>
      </trkpt>
      <trkpt lat="44.68939" lon="5.93314">
        <ele>1469.2</ele>
        <time>2015-07-01T11:40:33Z</time>
      </trkpt>
      <trkpt lat="44.68932" lon="5.93315">
        <ele>1467.7</ele>
        <time>2015-07-01T11:40:38Z</time>
      </trkpt>
      <trkpt lat="44.68926" lon="5.93315">
        <ele>1466.2</ele>
        <time>2015-07-01T11:40:43Z</time>
      </trkpt>
      <trkpt lat="44.68918" lon="5.93314">
        <ele>1464.3</ele>
        <time>2015-07-01T11:40:49Z</time>
      </trkpt>
      <trkpt lat="44.68907" lon="5.9332">
        <ele>1475.1</ele>
        <time>2015-07-01T11:40:54Z</time>
      </trkpt>
      <trkpt lat="44.68898" lon="5.93318">
        <ele>1478.9</ele>
        <time>2015-07-01T11:40:59Z</time>
      </trkpt>
      <trkpt lat="44.68889" lon="5.93321">
        <ele>1486</ele>
        <time>2015-07-01T11:41:04Z</time>
      </trkpt>
      <trkpt lat="44.68883" lon="5.93323">
        <ele>1489.6</ele>
        <time>2015-07-01T11:41:09Z</time>
      </trkpt>
      <trkpt lat="44.68876" lon="5.93328">
        <ele>1497.6</ele>
        <time>2015-07-01T11:41:14Z</time>
      </trkpt>
      <trkpt lat="44.68869" lon="5.93326">
        <ele>1498.9</ele>
        <time>2015-07-01T11:41:19Z</time>
      </trkpt>
      <trkpt lat="44.68863" lon="5.93327">
        <ele>1492.9</ele>
        <time>2015-07-01T11:41:24Z</time>
      </trkpt>
      <trkpt lat="44.68857" lon="5.93327">
        <ele>1491.6</ele>
        <time>2015-07-01T11:41:29Z</time>
      </trkpt>
      <trkpt lat="44.68851" lon="5.93329">
        <ele>1491</ele>
        <time>2015-07-01T11:41:34Z</time>
      </trkpt>
      <trkpt lat="44.68847" lon="5.93331">
        <ele>1489.5</ele>
        <time>2015-07-01T11:41:39Z</time>
      </trkpt>
      <trkpt lat="44.68844" lon="5.93325">
        <ele>1483.8</ele>
        <time>2015-07-01T11:41:45Z</time>
      </trkpt>
      <trkpt lat="44.68834" lon="5.93326">
        <ele>1479.9</ele>
        <time>2015-07-01T11:41:51Z</time>
      </trkpt>
      <trkpt lat="44.68824" lon="5.93332">
        <ele>1484.2</ele>
        <time>2015-07-01T11:41:57Z</time>
      </trkpt>
      <trkpt lat="44.68817" lon="5.93329">
        <ele>1478.8</ele>
        <time>2015-07-01T11:42:02Z</time>
      </trkpt>
      <trkpt lat="44.68814" lon="5.93323">
        <ele>1481</ele>
        <time>2015-07-01T11:42:07Z</time>
      </trkpt>
      <trkpt lat="44.68803" lon="5.93325">
        <ele>1486.6</ele>
        <time>2015-07-01T11:42:12Z</time>
      </trkpt>
      <trkpt lat="44.68795" lon="5.93325">
        <ele>1484</ele>
        <time>2015-07-01T11:42:17Z</time>
      </trkpt>
      <trkpt lat="44.6879" lon="5.93323">
        <ele>1481.2</ele>
        <time>2015-07-01T11:42:22Z</time>
      </trkpt>
      <trkpt lat="44.68783" lon="5.93324">
        <ele>1478.5</ele>
        <time>2015-07-01T11:42:27Z</time>
      </trkpt>
      <trkpt lat="44.68776" lon="5.93326">
        <ele>1475.9</ele>
        <time>2015-07-01T11:42:32Z</time>
      </trkpt>
      <trkpt lat="44.68763" lon="5.93327">
        <ele>1476.5</ele>
        <time>2015-07-01T11:42:41Z</time>
      </trkpt>
      <trkpt lat="44.68755" lon="5.93329">
        <ele>1473.6</ele>
        <time>2015-07-01T11:42:46Z</time>
      </trkpt>
      <trkpt lat="44.68748" lon="5.93332">
        <ele>1468.3</ele>
        <time>2015-07-01T11:42:51Z</time>
      </trkpt>
      <trkpt lat="44.68736" lon="5.93337">
        <ele>1474.1</ele>
        <time>2015-07-01T11:42:56Z</time>
      </trkpt>
      <trkpt lat="44.68731" lon="5.93335">
        <ele>1471.7</ele>
        <time>2015-07-01T11:43:01Z</time>
      </trkpt>
      <trkpt lat="44.68725" lon="5.93334">
        <ele>1472</ele>
        <time>2015-07-01T11:43:06Z</time>
      </trkpt>
      <trkpt lat="44.68718" lon="5.93333">
        <ele>1471.4</ele>
        <time>2015-07-01T11:43:11Z</time>
      </trkpt>
      <trkpt lat="44.68712" lon="5.93333">
        <ele>1472.5</ele>
        <time>2015-07-01T11:43:16Z</time>
      </trkpt>
      <trkpt lat="44.68703" lon="5.93333">
        <ele>1474.5</ele>
        <time>2015-07-01T11:43:21Z</time>
      </trkpt>
      <trkpt lat="44.68696" lon="5.93332">
        <ele>1480.6</ele>
        <time>2015-07-01T11:43:26Z</time>
      </trkpt>
      <trkpt lat="44.68692" lon="5.9333">
        <ele>1483.8</ele>
        <time>2015-07-01T11:43:31Z</time>
      </trkpt>
      <trkpt lat="44.6868" lon="5.93333">
        <ele>1500.2</ele>
        <time>2015-07-01T11:43:39Z</time>
      </trkpt>
      <trkpt lat="44.68669" lon="5.93333">
        <ele>1505.2</ele>
        <time>2015-07-01T11:43:44Z</time>
      </trkpt>
      <trkpt lat="44.68657" lon="5.93332">
        <ele>1500.4</ele>
        <time>2015-07-01T11:43:49Z</time>
      </trkpt>
      <trkpt lat="44.68651" lon="5.93335">
        <ele>1497.1</ele>
        <time>2015-07-01T11:43:54Z</time>
      </trkpt>
      <trkpt lat="44.68645" lon="5.93337">
        <ele>1494.1</ele>
        <time>2015-07-01T11:43:59Z</time>
      </trkpt>
      <trkpt lat="44.68641" lon="5.93335">
        <ele>1491</ele>
        <time>2015-07-01T11:44:04Z</time>
      </trkpt>
      <trkpt lat="44.68636" lon="5.93331">
        <ele>1487.9</ele>
        <time>2015-07-01T11:44:09Z</time>
      </trkpt>
      <trkpt lat="44.6863" lon="5.93328">
        <ele>1491.6</ele>
        <time>2015-07-01T11:44:14Z</time>
      </trkpt>
      <trkpt lat="44.68626" lon="5.93324">
        <ele>1492</ele>
        <time>2015-07-01T11:44:19Z</time>
      </trkpt>
      <trkpt lat="44.68623" lon="5.93317">
        <ele>1493.4</ele>
        <time>2015-07-01T11:44:24Z</time>
      </trkpt>
      <trkpt lat="44.68618" lon="5.93311">
        <ele>1493.1</ele>
        <time>2015-07-01T11:44:29Z</time>
      </trkpt>
      <trkpt lat="44.68612" lon="5.93308">
        <ele>1494.6</ele>
        <time>2015-07-01T11:44:34Z</time>
      </trkpt>
      <trkpt lat="44.68606" lon="5.93305">
        <ele>1493.5</ele>
        <time>2015-07-01T11:44:39Z</time>
      </trkpt>
      <trkpt lat="44.68598" lon="5.93305">
        <ele>1494.5</ele>
        <time>2015-07-01T11:44:44Z</time>
      </trkpt>
      <trkpt lat="44.68592" lon="5.93304">
        <ele>1494.7</ele>
        <time>2015-07-01T11:44:49Z</time>
      </trkpt>
      <trkpt lat="44.68586" lon="5.933">
        <ele>1493</ele>
        <time>2015-07-01T11:44:54Z</time>
      </trkpt>
      <trkpt lat="44.68579" lon="5.93298">
        <ele>1492.7</ele>
        <time>2015-07-01T11:44:59Z</time>
      </trkpt>
      <trkpt lat="44.68573" lon="5.93295">
        <ele>1491.6</ele>
        <time>2015-07-01T11:45:04Z</time>
      </trkpt>
      <trkpt lat="44.68567" lon="5.93291">
        <ele>1493.2</ele>
        <time>2015-07-01T11:45:09Z</time>
      </trkpt>
      <trkpt lat="44.68561" lon="5.9329">
        <ele>1495.4</ele>
        <time>2015-07-01T11:45:14Z</time>
      </trkpt>
      <trkpt lat="44.68554" lon="5.93289">
        <ele>1494.5</ele>
        <time>2015-07-01T11:45:19Z</time>
      </trkpt>
      <trkpt lat="44.68546" lon="5.93285">
        <ele>1493.4</ele>
        <time>2015-07-01T11:45:24Z</time>
      </trkpt>
      <trkpt lat="44.68538" lon="5.93283">
        <ele>1494.1</ele>
        <time>2015-07-01T11:45:29Z</time>
      </trkpt>
      <trkpt lat="44.6853" lon="5.9328">
        <ele>1493.9</ele>
        <time>2015-07-01T11:45:34Z</time>
      </trkpt>
      <trkpt lat="44.68521" lon="5.93277">
        <ele>1494.5</ele>
        <time>2015-07-01T11:45:39Z</time>
      </trkpt>
      <trkpt lat="44.68512" lon="5.93276">
        <ele>1497.6</ele>
        <time>2015-07-01T11:45:44Z</time>
      </trkpt>
      <trkpt lat="44.68509" lon="5.93274">
        <ele>1498.5</ele>
        <time>2015-07-01T11:45:49Z</time>
      </trkpt>
      <trkpt lat="44.68504" lon="5.93271">
        <ele>1500.3</ele>
        <time>2015-07-01T11:45:54Z</time>
      </trkpt>
      <trkpt lat="44.68496" lon="5.93267">
        <ele>1502</ele>
        <time>2015-07-01T11:46:00Z</time>
      </trkpt>
      <trkpt lat="44.68488" lon="5.93263">
        <ele>1498.6</ele>
        <time>2015-07-01T11:46:05Z</time>
      </trkpt>
      <trkpt lat="44.68482" lon="5.93256">
        <ele>1496.2</ele>
        <time>2015-07-01T11:46:10Z</time>
      </trkpt>
      <trkpt lat="44.68475" lon="5.93254">
        <ele>1496.9</ele>
        <time>2015-07-01T11:46:15Z</time>
      </trkpt>
      <trkpt lat="44.68467" lon="5.93251">
        <ele>1494.8</ele>
        <time>2015-07-01T11:46:20Z</time>
      </trkpt>
      <trkpt lat="44.68462" lon="5.93244">
        <ele>1495.5</ele>
        <time>2015-07-01T11:46:25Z</time>
      </trkpt>
      <trkpt lat="44.68453" lon="5.9324">
        <ele>1497.4</ele>
        <time>2015-07-01T11:46:30Z</time>
      </trkpt>
      <trkpt lat="44.68447" lon="5.93239">
        <ele>1497.7</ele>
        <time>2015-07-01T11:46:35Z</time>
      </trkpt>
      <trkpt lat="44.6844" lon="5.93238">
        <ele>1501.3</ele>
        <time>2015-07-01T11:46:40Z</time>
      </trkpt>
      <trkpt lat="44.68433" lon="5.93235">
        <ele>1500.6</ele>
        <time>2015-07-01T11:46:45Z</time>
      </trkpt>
      <trkpt lat="44.68428" lon="5.93231">
        <ele>1499.1</ele>
        <time>2015-07-01T11:46:50Z</time>
      </trkpt>
      <trkpt lat="44.68424" lon="5.93228">
        <ele>1500.7</ele>
        <time>2015-07-01T11:46:55Z</time>
      </trkpt>
      <trkpt lat="44.68418" lon="5.93224">
        <ele>1499.8</ele>
        <time>2015-07-01T11:47:00Z</time>
      </trkpt>
      <trkpt lat="44.68413" lon="5.93216">
        <ele>1501.6</ele>
        <time>2015-07-01T11:47:05Z</time>
      </trkpt>
      <trkpt lat="44.68407" lon="5.9321">
        <ele>1502.9</ele>
        <time>2015-07-01T11:47:10Z</time>
      </trkpt>
      <trkpt lat="44.68402" lon="5.93204">
        <ele>1502.3</ele>
        <time>2015-07-01T11:47:15Z</time>
      </trkpt>
      <trkpt lat="44.68398" lon="5.93195">
        <ele>1500.8</ele>
        <time>2015-07-01T11:47:20Z</time>
      </trkpt>
      <trkpt lat="44.68392" lon="5.93189">
        <ele>1500.9</ele>
        <time>2015-07-01T11:47:25Z</time>
      </trkpt>
      <trkpt lat="44.68385" lon="5.93184">
        <ele>1498.3</ele>
        <time>2015-07-01T11:47:30Z</time>
      </trkpt>
      <trkpt lat="44.68382" lon="5.93177">
        <ele>1497.8</ele>
        <time>2015-07-01T11:47:35Z</time>
      </trkpt>
      <trkpt lat="44.68379" lon="5.93169">
        <ele>1499.4</ele>
        <time>2015-07-01T11:47:40Z</time>
      </trkpt>
      <trkpt lat="44.6838" lon="5.93158">
        <ele>1503.6</ele>
        <time>2015-07-01T11:47:45Z</time>
      </trkpt>
      <trkpt lat="44.6838" lon="5.93148">
        <ele>1502.1</ele>
        <time>2015-07-01T11:47:50Z</time>
      </trkpt>
      <trkpt lat="44.68383" lon="5.93138">
        <ele>1498.1</ele>
        <time>2015-07-01T11:47:55Z</time>
      </trkpt>
      <trkpt lat="44.68382" lon="5.9313">
        <ele>1494.6</ele>
        <time>2015-07-01T11:48:00Z</time>
      </trkpt>
      <trkpt lat="44.68383" lon="5.93121">
        <ele>1489.3</ele>
        <time>2015-07-01T11:48:05Z</time>
      </trkpt>
      <trkpt lat="44.68381" lon="5.93111">
        <ele>1489.1</ele>
        <time>2015-07-01T11:48:10Z</time>
      </trkpt>
      <trkpt lat="44.68377" lon="5.93103">
        <ele>1492.8</ele>
        <time>2015-07-01T11:48:15Z</time>
      </trkpt>
      <trkpt lat="44.68375" lon="5.93094">
        <ele>1496.9</ele>
        <time>2015-07-01T11:48:20Z</time>
      </trkpt>
      <trkpt lat="44.68374" lon="5.93084">
        <ele>1499.7</ele>
        <time>2015-07-01T11:48:25Z</time>
      </trkpt>
      <trkpt lat="44.68369" lon="5.93075">
        <ele>1503.3</ele>
        <time>2015-07-01T11:48:30Z</time>
      </trkpt>
      <trkpt lat="44.68368" lon="5.93065">
        <ele>1502.9</ele>
        <time>2015-07-01T11:48:35Z</time>
      </trkpt>
      <trkpt lat="44.68367" lon="5.93056">
        <ele>1501.6</ele>
        <time>2015-07-01T11:48:40Z</time>
      </trkpt>
      <trkpt lat="44.68367" lon="5.93045">
        <ele>1503.2</ele>
        <time>2015-07-01T11:48:45Z</time>
      </trkpt>
      <trkpt lat="44.68366" lon="5.93036">
        <ele>1504.7</ele>
        <time>2015-07-01T11:48:50Z</time>
      </trkpt>
      <trkpt lat="44.68367" lon="5.93027">
        <ele>1503.7</ele>
        <time>2015-07-01T11:48:55Z</time>
      </trkpt>
      <trkpt lat="44.68366" lon="5.93017">
        <ele>1503</ele>
        <time>2015-07-01T11:49:00Z</time>
      </trkpt>
      <trkpt lat="44.68366" lon="5.93008">
        <ele>1502.5</ele>
        <time>2015-07-01T11:49:05Z</time>
      </trkpt>
      <trkpt lat="44.68367" lon="5.92997">
        <ele>1503.9</ele>
        <time>2015-07-01T11:49:10Z</time>
      </trkpt>
      <trkpt lat="44.68365" lon="5.92989">
        <ele>1504.7</ele>
        <time>2015-07-01T11:49:15Z</time>
      </trkpt>
      <trkpt lat="44.68364" lon="5.92979">
        <ele>1504.9</ele>
        <time>2015-07-01T11:49:20Z</time>
      </trkpt>
      <trkpt lat="44.68364" lon="5.9297">
        <ele>1499.5</ele>
        <time>2015-07-01T11:49:25Z</time>
      </trkpt>
      <trkpt lat="44.68366" lon="5.92959">
        <ele>1502.4</ele>
        <time>2015-07-01T11:49:30Z</time>
      </trkpt>
      <trkpt lat="44.68365" lon="5.9295">
        <ele>1502.4</ele>
        <time>2015-07-01T11:49:35Z</time>
      </trkpt>
      <trkpt lat="44.68361" lon="5.92942">
        <ele>1505.6</ele>
        <time>2015-07-01T11:49:40Z</time>
      </trkpt>
      <trkpt lat="44.68361" lon="5.92933">
        <ele>1507.8</ele>
        <time>2015-07-01T11:49:45Z</time>
      </trkpt>
      <trkpt lat="44.68358" lon="5.92925">
        <ele>1511</ele>
        <time>2015-07-01T11:49:50Z</time>
      </trkpt>
      <trkpt lat="44.68355" lon="5.92923">
        <ele>1513.4</ele>
        <time>2015-07-01T11:49:55Z</time>
      </trkpt>
      <trkpt lat="44.68354" lon="5.92917">
        <ele>1515.6</ele>
        <time>2015-07-01T11:50:00Z</time>
      </trkpt>
      <trkpt lat="44.68353" lon="5.92916">
        <ele>1518.3</ele>
        <time>2015-07-01T11:50:05Z</time>
      </trkpt>
      <trkpt lat="44.68352" lon="5.92913">
        <ele>1519.2</ele>
        <time>2015-07-01T11:50:10Z</time>
      </trkpt>
      <trkpt lat="44.68354" lon="5.92911">
        <ele>1520.6</ele>
        <time>2015-07-01T11:50:15Z</time>
      </trkpt>
      <trkpt lat="44.68353" lon="5.92906">
        <ele>1520.5</ele>
        <time>2015-07-01T11:50:20Z</time>
      </trkpt>
      <trkpt lat="44.68351" lon="5.92903">
        <ele>1522.8</ele>
        <time>2015-07-01T11:50:25Z</time>
      </trkpt>
      <trkpt lat="44.68353" lon="5.92907">
        <ele>1522</ele>
        <time>2015-07-01T11:50:30Z</time>
      </trkpt>
      <trkpt lat="44.68354" lon="5.92909">
        <ele>1520.8</ele>
        <time>2015-07-01T11:50:35Z</time>
      </trkpt>
      <trkpt lat="44.68355" lon="5.9291">
        <ele>1520.8</ele>
        <time>2015-07-01T11:50:40Z</time>
      </trkpt>
      <trkpt lat="44.68357" lon="5.92909">
        <ele>1520</ele>
        <time>2015-07-01T11:50:45Z</time>
      </trkpt>
      <trkpt lat="44.68358" lon="5.92908">
        <ele>1517.8</ele>
        <time>2015-07-01T11:50:50Z</time>
      </trkpt>
      <trkpt lat="44.68358" lon="5.92907">
        <ele>1515</ele>
        <time>2015-07-01T11:50:55Z</time>
      </trkpt>
      <trkpt lat="44.68359" lon="5.92906">
        <ele>1513.3</ele>
        <time>2015-07-01T11:51:00Z</time>
      </trkpt>
      <trkpt lat="44.6836" lon="5.92905">
        <ele>1514.7</ele>
        <time>2015-07-01T11:51:05Z</time>
      </trkpt>
      <trkpt lat="44.68358" lon="5.92904">
        <ele>1515.5</ele>
        <time>2015-07-01T11:51:10Z</time>
      </trkpt>
      <trkpt lat="44.68355" lon="5.92902">
        <ele>1517.1</ele>
        <time>2015-07-01T11:51:15Z</time>
      </trkpt>
      <trkpt lat="44.68354" lon="5.92901">
        <ele>1518</ele>
        <time>2015-07-01T11:51:20Z</time>
      </trkpt>
      <trkpt lat="44.68353" lon="5.929">
        <ele>1518.1</ele>
        <time>2015-07-01T11:51:25Z</time>
      </trkpt>
      <trkpt lat="44.68353" lon="5.929">
        <ele>1517.4</ele>
        <time>2015-07-01T11:51:30Z</time>
      </trkpt>
      <trkpt lat="44.68354" lon="5.929">
        <ele>1522.6</ele>
        <time>2015-07-01T11:51:35Z</time>
      </trkpt>
      <trkpt lat="44.68353" lon="5.92901">
        <ele>1522.5</ele>
        <time>2015-07-01T11:51:40Z</time>
      </trkpt>
      <trkpt lat="44.68349" lon="5.92905">
        <ele>1520</ele>
        <time>2015-07-01T11:51:45Z</time>
      </trkpt>
      <trkpt lat="44.6835" lon="5.92904">
        <ele>1517.4</ele>
        <time>2015-07-01T11:51:50Z</time>
      </trkpt>
      <trkpt lat="44.6835" lon="5.92905">
        <ele>1518.5</ele>
        <time>2015-07-01T11:51:55Z</time>
      </trkpt>
      <trkpt lat="44.6835" lon="5.92905">
        <ele>1514.8</ele>
        <time>2015-07-01T11:52:00Z</time>
      </trkpt>
      <trkpt lat="44.68351" lon="5.92903">
        <ele>1514</ele>
        <time>2015-07-01T11:52:05Z</time>
      </trkpt>
      <trkpt lat="44.68351" lon="5.92902">
        <ele>1509.4</ele>
        <time>2015-07-01T11:52:10Z</time>
      </trkpt>
      <trkpt lat="44.68349" lon="5.92904">
        <ele>1507.4</ele>
        <time>2015-07-01T11:52:15Z</time>
      </trkpt>
      <trkpt lat="44.68347" lon="5.92903">
        <ele>1506.7</ele>
        <time>2015-07-01T11:52:20Z</time>
      </trkpt>
      <trkpt lat="44.68352" lon="5.92899">
        <ele>1503.2</ele>
        <time>2015-07-01T11:52:25Z</time>
      </trkpt>
      <trkpt lat="44.68348" lon="5.92902">
        <ele>1510.2</ele>
        <time>2015-07-01T11:52:30Z</time>
      </trkpt>
      <trkpt lat="44.68349" lon="5.92904">
        <ele>1517.3</ele>
        <time>2015-07-01T11:52:35Z</time>
      </trkpt>
      <trkpt lat="44.68351" lon="5.92904">
        <ele>1520.1</ele>
        <time>2015-07-01T11:52:40Z</time>
      </trkpt>
      <trkpt lat="44.68352" lon="5.92906">
        <ele>1515.3</ele>
        <time>2015-07-01T11:52:45Z</time>
      </trkpt>
      <trkpt lat="44.68353" lon="5.92908">
        <ele>1513.9</ele>
        <time>2015-07-01T11:52:50Z</time>
      </trkpt>
      <trkpt lat="44.68351" lon="5.92906">
        <ele>1516.8</ele>
        <time>2015-07-01T11:52:55Z</time>
      </trkpt>
      <trkpt lat="44.68356" lon="5.929">
        <ele>1521.7</ele>
        <time>2015-07-01T11:53:00Z</time>
      </trkpt>
      <trkpt lat="44.68358" lon="5.92897">
        <ele>1523.5</ele>
        <time>2015-07-01T11:53:05Z</time>
      </trkpt>
      <trkpt lat="44.68359" lon="5.92894">
        <ele>1525.4</ele>
        <time>2015-07-01T11:53:12Z</time>
      </trkpt>
      <trkpt lat="44.68358" lon="5.92894">
        <ele>1522.1</ele>
        <time>2015-07-01T11:53:17Z</time>
      </trkpt>
      <trkpt lat="44.68358" lon="5.92894">
        <ele>1517.6</ele>
        <time>2015-07-01T11:53:22Z</time>
      </trkpt>
      <trkpt lat="44.68358" lon="5.92897">
        <ele>1519.1</ele>
        <time>2015-07-01T11:53:27Z</time>
      </trkpt>
      <trkpt lat="44.68358" lon="5.92898">
        <ele>1520.7</ele>
        <time>2015-07-01T11:53:32Z</time>
      </trkpt>
      <trkpt lat="44.68356" lon="5.929">
        <ele>1520.6</ele>
        <time>2015-07-01T11:53:37Z</time>
      </trkpt>
      <trkpt lat="44.68358" lon="5.92899">
        <ele>1521</ele>
        <time>2015-07-01T11:53:42Z</time>
      </trkpt>
      <trkpt lat="44.6836" lon="5.92897">
        <ele>1521.3</ele>
        <time>2015-07-01T11:53:47Z</time>
      </trkpt>
      <trkpt lat="44.68356" lon="5.92903">
        <ele>1520.4</ele>
        <time>2015-07-01T11:53:52Z</time>
      </trkpt>
      <trkpt lat="44.68356" lon="5.92907">
        <ele>1517.7</ele>
        <time>2015-07-01T11:53:57Z</time>
      </trkpt>
      <trkpt lat="44.6835" lon="5.92915">
        <ele>1517.5</ele>
        <time>2015-07-01T11:54:02Z</time>
      </trkpt>
      <trkpt lat="44.68345" lon="5.92925">
        <ele>1518</ele>
        <time>2015-07-01T11:54:07Z</time>
      </trkpt>
      <trkpt lat="44.68343" lon="5.92934">
        <ele>1517.5</ele>
        <time>2015-07-01T11:54:12Z</time>
      </trkpt>
      <trkpt lat="44.68341" lon="5.92943">
        <ele>1515.6</ele>
        <time>2015-07-01T11:54:17Z</time>
      </trkpt>
      <trkpt lat="44.68338" lon="5.92952">
        <ele>1515.4</ele>
        <time>2015-07-01T11:54:22Z</time>
      </trkpt>
      <trkpt lat="44.68335" lon="5.92962">
        <ele>1515.5</ele>
        <time>2015-07-01T11:54:27Z</time>
      </trkpt>
      <trkpt lat="44.68332" lon="5.9297">
        <ele>1513.6</ele>
        <time>2015-07-01T11:54:32Z</time>
      </trkpt>
      <trkpt lat="44.68331" lon="5.9298">
        <ele>1513.8</ele>
        <time>2015-07-01T11:54:37Z</time>
      </trkpt>
      <trkpt lat="44.68328" lon="5.9299">
        <ele>1515.8</ele>
        <time>2015-07-01T11:54:42Z</time>
      </trkpt>
      <trkpt lat="44.68326" lon="5.92999">
        <ele>1517.2</ele>
        <time>2015-07-01T11:54:47Z</time>
      </trkpt>
      <trkpt lat="44.68322" lon="5.93008">
        <ele>1516.9</ele>
        <time>2015-07-01T11:54:52Z</time>
      </trkpt>
      <trkpt lat="44.68319" lon="5.93017">
        <ele>1516.3</ele>
        <time>2015-07-01T11:54:57Z</time>
      </trkpt>
      <trkpt lat="44.68318" lon="5.93025">
        <ele>1518.1</ele>
        <time>2015-07-01T11:55:02Z</time>
      </trkpt>
      <trkpt lat="44.68314" lon="5.93033">
        <ele>1516.6</ele>
        <time>2015-07-01T11:55:07Z</time>
      </trkpt>
      <trkpt lat="44.68309" lon="5.9304">
        <ele>1512.9</ele>
        <time>2015-07-01T11:55:12Z</time>
      </trkpt>
      <trkpt lat="44.68304" lon="5.93045">
        <ele>1511.2</ele>
        <time>2015-07-01T11:55:17Z</time>
      </trkpt>
      <trkpt lat="44.68298" lon="5.93049">
        <ele>1510.1</ele>
        <time>2015-07-01T11:55:22Z</time>
      </trkpt>
      <trkpt lat="44.68291" lon="5.93052">
        <ele>1508.6</ele>
        <time>2015-07-01T11:55:27Z</time>
      </trkpt>
      <trkpt lat="44.68285" lon="5.93056">
        <ele>1508.5</ele>
        <time>2015-07-01T11:55:32Z</time>
      </trkpt>
      <trkpt lat="44.68278" lon="5.93058">
        <ele>1507.3</ele>
        <time>2015-07-01T11:55:37Z</time>
      </trkpt>
      <trkpt lat="44.68272" lon="5.93058">
        <ele>1507.1</ele>
        <time>2015-07-01T11:55:42Z</time>
      </trkpt>
      <trkpt lat="44.68269" lon="5.93063">
        <ele>1507.6</ele>
        <time>2015-07-01T11:55:47Z</time>
      </trkpt>
      <trkpt lat="44.68268" lon="5.9307">
        <ele>1508.1</ele>
        <time>2015-07-01T11:55:52Z</time>
      </trkpt>
      <trkpt lat="44.68269" lon="5.93078">
        <ele>1506.6</ele>
        <time>2015-07-01T11:55:57Z</time>
      </trkpt>
      <trkpt lat="44.68266" lon="5.93086">
        <ele>1504.8</ele>
        <time>2015-07-01T11:56:02Z</time>
      </trkpt>
      <trkpt lat="44.68268" lon="5.93095">
        <ele>1504.9</ele>
        <time>2015-07-01T11:56:07Z</time>
      </trkpt>
      <trkpt lat="44.68268" lon="5.93105">
        <ele>1505</ele>
        <time>2015-07-01T11:56:12Z</time>
      </trkpt>
      <trkpt lat="44.68268" lon="5.93116">
        <ele>1504.4</ele>
        <time>2015-07-01T11:56:17Z</time>
      </trkpt>
      <trkpt lat="44.68268" lon="5.93126">
        <ele>1502.5</ele>
        <time>2015-07-01T11:56:22Z</time>
      </trkpt>
      <trkpt lat="44.68268" lon="5.93137">
        <ele>1503.9</ele>
        <time>2015-07-01T11:56:27Z</time>
      </trkpt>
      <trkpt lat="44.68271" lon="5.93146">
        <ele>1505.5</ele>
        <time>2015-07-01T11:56:32Z</time>
      </trkpt>
      <trkpt lat="44.68272" lon="5.93156">
        <ele>1505</ele>
        <time>2015-07-01T11:56:37Z</time>
      </trkpt>
      <trkpt lat="44.6827" lon="5.93165">
        <ele>1505.4</ele>
        <time>2015-07-01T11:56:42Z</time>
      </trkpt>
      <trkpt lat="44.68272" lon="5.93174">
        <ele>1503.3</ele>
        <time>2015-07-01T11:56:47Z</time>
      </trkpt>
      <trkpt lat="44.68274" lon="5.93184">
        <ele>1501</ele>
        <time>2015-07-01T11:56:52Z</time>
      </trkpt>
      <trkpt lat="44.68276" lon="5.93194">
        <ele>1497.8</ele>
        <time>2015-07-01T11:56:57Z</time>
      </trkpt>
      <trkpt lat="44.68277" lon="5.93205">
        <ele>1495.4</ele>
        <time>2015-07-01T11:57:02Z</time>
      </trkpt>
      <trkpt lat="44.68278" lon="5.93216">
        <ele>1493.2</ele>
        <time>2015-07-01T11:57:07Z</time>
      </trkpt>
      <trkpt lat="44.68276" lon="5.93227">
        <ele>1488.6</ele>
        <time>2015-07-01T11:57:12Z</time>
      </trkpt>
      <trkpt lat="44.68275" lon="5.93237">
        <ele>1487.8</ele>
        <time>2015-07-01T11:57:17Z</time>
      </trkpt>
      <trkpt lat="44.68275" lon="5.93247">
        <ele>1486.4</ele>
        <time>2015-07-01T11:57:22Z</time>
      </trkpt>
      <trkpt lat="44.68272" lon="5.93256">
        <ele>1482.4</ele>
        <time>2015-07-01T11:57:27Z</time>
      </trkpt>
      <trkpt lat="44.68271" lon="5.93267">
        <ele>1483.9</ele>
        <time>2015-07-01T11:57:32Z</time>
      </trkpt>
      <trkpt lat="44.68271" lon="5.93278">
        <ele>1484.8</ele>
        <time>2015-07-01T11:57:37Z</time>
      </trkpt>
      <trkpt lat="44.68275" lon="5.93284">
        <ele>1485.4</ele>
        <time>2015-07-01T11:57:42Z</time>
      </trkpt>
      <trkpt lat="44.68277" lon="5.93295">
        <ele>1488</ele>
        <time>2015-07-01T11:57:47Z</time>
      </trkpt>
      <trkpt lat="44.68277" lon="5.93305">
        <ele>1486.9</ele>
        <time>2015-07-01T11:57:52Z</time>
      </trkpt>
      <trkpt lat="44.68278" lon="5.93314">
        <ele>1486</ele>
        <time>2015-07-01T11:57:57Z</time>
      </trkpt>
      <trkpt lat="44.68279" lon="5.93324">
        <ele>1483.6</ele>
        <time>2015-07-01T11:58:02Z</time>
      </trkpt>
      <trkpt lat="44.68284" lon="5.93333">
        <ele>1486.3</ele>
        <time>2015-07-01T11:58:07Z</time>
      </trkpt>
      <trkpt lat="44.68285" lon="5.93341">
        <ele>1480.7</ele>
        <time>2015-07-01T11:58:12Z</time>
      </trkpt>
      <trkpt lat="44.68285" lon="5.9335">
        <ele>1480.7</ele>
        <time>2015-07-01T11:58:17Z</time>
      </trkpt>
      <trkpt lat="44.68284" lon="5.93359">
        <ele>1479.8</ele>
        <time>2015-07-01T11:58:22Z</time>
      </trkpt>
      <trkpt lat="44.68285" lon="5.93369">
        <ele>1477.4</ele>
        <time>2015-07-01T11:58:27Z</time>
      </trkpt>
      <trkpt lat="44.68285" lon="5.93382">
        <ele>1479.5</ele>
        <time>2015-07-01T11:58:32Z</time>
      </trkpt>
      <trkpt lat="44.68287" lon="5.93393">
        <ele>1479.5</ele>
        <time>2015-07-01T11:58:37Z</time>
      </trkpt>
      <trkpt lat="44.68288" lon="5.93402">
        <ele>1474.7</ele>
        <time>2015-07-01T11:58:42Z</time>
      </trkpt>
      <trkpt lat="44.68289" lon="5.93413">
        <ele>1474</ele>
        <time>2015-07-01T11:58:47Z</time>
      </trkpt>
      <trkpt lat="44.68292" lon="5.93422">
        <ele>1472.6</ele>
        <time>2015-07-01T11:58:52Z</time>
      </trkpt>
      <trkpt lat="44.68293" lon="5.93431">
        <ele>1471.6</ele>
        <time>2015-07-01T11:58:57Z</time>
      </trkpt>
      <trkpt lat="44.68296" lon="5.93439">
        <ele>1467.7</ele>
        <time>2015-07-01T11:59:02Z</time>
      </trkpt>
      <trkpt lat="44.68298" lon="5.93448">
        <ele>1465.7</ele>
        <time>2015-07-01T11:59:07Z</time>
      </trkpt>
      <trkpt lat="44.68299" lon="5.93456">
        <ele>1466.1</ele>
        <time>2015-07-01T11:59:12Z</time>
      </trkpt>
      <trkpt lat="44.68303" lon="5.93462">
        <ele>1464.6</ele>
        <time>2015-07-01T11:59:17Z</time>
      </trkpt>
      <trkpt lat="44.68307" lon="5.93469">
        <ele>1464.6</ele>
        <time>2015-07-01T11:59:22Z</time>
      </trkpt>
      <trkpt lat="44.68311" lon="5.93475">
        <ele>1464.9</ele>
        <time>2015-07-01T11:59:27Z</time>
      </trkpt>
      <trkpt lat="44.68318" lon="5.93486">
        <ele>1465.3</ele>
        <time>2015-07-01T11:59:34Z</time>
      </trkpt>
      <trkpt lat="44.68318" lon="5.93492">
        <ele>1461.1</ele>
        <time>2015-07-01T11:59:39Z</time>
      </trkpt>
      <trkpt lat="44.68319" lon="5.93499">
        <ele>1457.5</ele>
        <time>2015-07-01T11:59:44Z</time>
      </trkpt>
      <trkpt lat="44.68321" lon="5.93506">
        <ele>1455.3</ele>
        <time>2015-07-01T11:59:49Z</time>
      </trkpt>
      <trkpt lat="44.6832" lon="5.93514">
        <ele>1452.7</ele>
        <time>2015-07-01T11:59:54Z</time>
      </trkpt>
      <trkpt lat="44.68321" lon="5.93522">
        <ele>1449.8</ele>
        <time>2015-07-01T11:59:59Z</time>
      </trkpt>
      <trkpt lat="44.68322" lon="5.9353">
        <ele>1446.6</ele>
        <time>2015-07-01T12:00:04Z</time>
      </trkpt>
      <trkpt lat="44.68323" lon="5.93539">
        <ele>1445.6</ele>
        <time>2015-07-01T12:00:09Z</time>
      </trkpt>
      <trkpt lat="44.68322" lon="5.93551">
        <ele>1450.2</ele>
        <time>2015-07-01T12:00:14Z</time>
      </trkpt>
      <trkpt lat="44.68324" lon="5.93561">
        <ele>1449.3</ele>
        <time>2015-07-01T12:00:19Z</time>
      </trkpt>
      <trkpt lat="44.68319" lon="5.93573">
        <ele>1446.9</ele>
        <time>2015-07-01T12:00:24Z</time>
      </trkpt>
      <trkpt lat="44.68321" lon="5.93579">
        <ele>1451.9</ele>
        <time>2015-07-01T12:00:29Z</time>
      </trkpt>
      <trkpt lat="44.68321" lon="5.9358">
        <ele>1454.6</ele>
        <time>2015-07-01T12:00:34Z</time>
      </trkpt>
      <trkpt lat="44.68321" lon="5.9358">
        <ele>1457.8</ele>
        <time>2015-07-01T12:00:39Z</time>
      </trkpt>
      <trkpt lat="44.68325" lon="5.93581">
        <ele>1454.5</ele>
        <time>2015-07-01T12:00:44Z</time>
      </trkpt>
      <trkpt lat="44.68328" lon="5.93588">
        <ele>1450.6</ele>
        <time>2015-07-01T12:00:49Z</time>
      </trkpt>
      <trkpt lat="44.68337" lon="5.93592">
        <ele>1445.5</ele>
        <time>2015-07-01T12:00:54Z</time>
      </trkpt>
      <trkpt lat="44.68343" lon="5.93596">
        <ele>1441.3</ele>
        <time>2015-07-01T12:00:59Z</time>
      </trkpt>
      <trkpt lat="44.68346" lon="5.93598">
        <ele>1442.1</ele>
        <time>2015-07-01T12:01:04Z</time>
      </trkpt>
      <trkpt lat="44.6835" lon="5.93595">
        <ele>1437</ele>
        <time>2015-07-01T12:01:09Z</time>
      </trkpt>
      <trkpt lat="44.6835" lon="5.93597">
        <ele>1434.5</ele>
        <time>2015-07-01T12:01:14Z</time>
      </trkpt>
      <trkpt lat="44.68348" lon="5.93599">
        <ele>1438.6</ele>
        <time>2015-07-01T12:01:19Z</time>
      </trkpt>
      <trkpt lat="44.6835" lon="5.93602">
        <ele>1436.9</ele>
        <time>2015-07-01T12:01:24Z</time>
      </trkpt>
      <trkpt lat="44.68352" lon="5.93604">
        <ele>1439</ele>
        <time>2015-07-01T12:01:29Z</time>
      </trkpt>
      <trkpt lat="44.68354" lon="5.936">
        <ele>1441.5</ele>
        <time>2015-07-01T12:01:34Z</time>
      </trkpt>
      <trkpt lat="44.68354" lon="5.93599">
        <ele>1443</ele>
        <time>2015-07-01T12:01:39Z</time>
      </trkpt>
      <trkpt lat="44.68356" lon="5.93606">
        <ele>1439.9</ele>
        <time>2015-07-01T12:01:44Z</time>
      </trkpt>
      <trkpt lat="44.68362" lon="5.93613">
        <ele>1441.8</ele>
        <time>2015-07-01T12:01:49Z</time>
      </trkpt>
      <trkpt lat="44.68364" lon="5.9362">
        <ele>1443.2</ele>
        <time>2015-07-01T12:01:54Z</time>
      </trkpt>
      <trkpt lat="44.68369" lon="5.93626">
        <ele>1442.6</ele>
        <time>2015-07-01T12:01:59Z</time>
      </trkpt>
      <trkpt lat="44.68375" lon="5.93629">
        <ele>1438</ele>
        <time>2015-07-01T12:02:04Z</time>
      </trkpt>
      <trkpt lat="44.68379" lon="5.93635">
        <ele>1441.3</ele>
        <time>2015-07-01T12:02:09Z</time>
      </trkpt>
      <trkpt lat="44.68382" lon="5.93638">
        <ele>1433.5</ele>
        <time>2015-07-01T12:02:14Z</time>
      </trkpt>
      <trkpt lat="44.68388" lon="5.9364">
        <ele>1426.5</ele>
        <time>2015-07-01T12:02:19Z</time>
      </trkpt>
      <trkpt lat="44.68394" lon="5.93643">
        <ele>1423.8</ele>
        <time>2015-07-01T12:02:24Z</time>
      </trkpt>
      <trkpt lat="44.68401" lon="5.9365">
        <ele>1421.9</ele>
        <time>2015-07-01T12:02:29Z</time>
      </trkpt>
      <trkpt lat="44.68407" lon="5.93654">
        <ele>1420.1</ele>
        <time>2015-07-01T12:02:34Z</time>
      </trkpt>
      <trkpt lat="44.68412" lon="5.93658">
        <ele>1415.8</ele>
        <time>2015-07-01T12:02:39Z</time>
      </trkpt>
      <trkpt lat="44.68417" lon="5.93662">
        <ele>1411</ele>
        <time>2015-07-01T12:02:44Z</time>
      </trkpt>
      <trkpt lat="44.68419" lon="5.93668">
        <ele>1412.3</ele>
        <time>2015-07-01T12:02:49Z</time>
      </trkpt>
      <trkpt lat="44.68421" lon="5.93673">
        <ele>1416.5</ele>
        <time>2015-07-01T12:02:54Z</time>
      </trkpt>
      <trkpt lat="44.68427" lon="5.93674">
        <ele>1414.3</ele>
        <time>2015-07-01T12:02:59Z</time>
      </trkpt>
      <trkpt lat="44.68432" lon="5.93678">
        <ele>1415</ele>
        <time>2015-07-01T12:03:04Z</time>
      </trkpt>
      <trkpt lat="44.68435" lon="5.93684">
        <ele>1415.3</ele>
        <time>2015-07-01T12:03:09Z</time>
      </trkpt>
      <trkpt lat="44.68438" lon="5.93692">
        <ele>1415.4</ele>
        <time>2015-07-01T12:03:14Z</time>
      </trkpt>
      <trkpt lat="44.68441" lon="5.937">
        <ele>1413.5</ele>
        <time>2015-07-01T12:03:19Z</time>
      </trkpt>
      <trkpt lat="44.68443" lon="5.93704">
        <ele>1407.7</ele>
        <time>2015-07-01T12:03:24Z</time>
      </trkpt>
      <trkpt lat="44.68447" lon="5.93709">
        <ele>1410.1</ele>
        <time>2015-07-01T12:03:29Z</time>
      </trkpt>
      <trkpt lat="44.68451" lon="5.93712">
        <ele>1406.1</ele>
        <time>2015-07-01T12:03:34Z</time>
      </trkpt>
      <trkpt lat="44.68452" lon="5.93715">
        <ele>1405</ele>
        <time>2015-07-01T12:03:39Z</time>
      </trkpt>
      <trkpt lat="44.68461" lon="5.93716">
        <ele>1404.6</ele>
        <time>2015-07-01T12:03:44Z</time>
      </trkpt>
      <trkpt lat="44.68465" lon="5.93719">
        <ele>1405.8</ele>
        <time>2015-07-01T12:03:49Z</time>
      </trkpt>
      <trkpt lat="44.68471" lon="5.93724">
        <ele>1402.1</ele>
        <time>2015-07-01T12:03:54Z</time>
      </trkpt>
      <trkpt lat="44.68473" lon="5.93727">
        <ele>1397.9</ele>
        <time>2015-07-01T12:03:59Z</time>
      </trkpt>
      <trkpt lat="44.68482" lon="5.93731">
        <ele>1400.8</ele>
        <time>2015-07-01T12:04:04Z</time>
      </trkpt>
      <trkpt lat="44.68489" lon="5.93737">
        <ele>1401.4</ele>
        <time>2015-07-01T12:04:09Z</time>
      </trkpt>
      <trkpt lat="44.68496" lon="5.93738">
        <ele>1398.1</ele>
        <time>2015-07-01T12:04:14Z</time>
      </trkpt>
      <trkpt lat="44.68501" lon="5.9374">
        <ele>1393.7</ele>
        <time>2015-07-01T12:04:19Z</time>
      </trkpt>
      <trkpt lat="44.68509" lon="5.93747">
        <ele>1391.5</ele>
        <time>2015-07-01T12:04:26Z</time>
      </trkpt>
      <trkpt lat="44.68515" lon="5.93748">
        <ele>1396.1</ele>
        <time>2015-07-01T12:04:31Z</time>
      </trkpt>
      <trkpt lat="44.6852" lon="5.93755">
        <ele>1396.5</ele>
        <time>2015-07-01T12:04:36Z</time>
      </trkpt>
      <trkpt lat="44.68528" lon="5.93756">
        <ele>1391.5</ele>
        <time>2015-07-01T12:04:41Z</time>
      </trkpt>
      <trkpt lat="44.68539" lon="5.9376">
        <ele>1391.9</ele>
        <time>2015-07-01T12:04:47Z</time>
      </trkpt>
      <trkpt lat="44.68543" lon="5.93762">
        <ele>1390.2</ele>
        <time>2015-07-01T12:04:54Z</time>
      </trkpt>
      <trkpt lat="44.68546" lon="5.9376">
        <ele>1388.6</ele>
        <time>2015-07-01T12:04:59Z</time>
      </trkpt>
      <trkpt lat="44.68553" lon="5.93761">
        <ele>1387.8</ele>
        <time>2015-07-01T12:05:04Z</time>
      </trkpt>
      <trkpt lat="44.68557" lon="5.93764">
        <ele>1384.1</ele>
        <time>2015-07-01T12:05:09Z</time>
      </trkpt>
      <trkpt lat="44.68562" lon="5.9377">
        <ele>1379.2</ele>
        <time>2015-07-01T12:05:14Z</time>
      </trkpt>
      <trkpt lat="44.68567" lon="5.93773">
        <ele>1376.7</ele>
        <time>2015-07-01T12:05:19Z</time>
      </trkpt>
      <trkpt lat="44.68572" lon="5.93775">
        <ele>1376.1</ele>
        <time>2015-07-01T12:05:24Z</time>
      </trkpt>
      <trkpt lat="44.68578" lon="5.93778">
        <ele>1374</ele>
        <time>2015-07-01T12:05:29Z</time>
      </trkpt>
      <trkpt lat="44.68582" lon="5.93781">
        <ele>1370.4</ele>
        <time>2015-07-01T12:05:34Z</time>
      </trkpt>
      <trkpt lat="44.68584" lon="5.93785">
        <ele>1368.2</ele>
        <time>2015-07-01T12:05:39Z</time>
      </trkpt>
      <trkpt lat="44.68588" lon="5.93791">
        <ele>1366.6</ele>
        <time>2015-07-01T12:05:44Z</time>
      </trkpt>
      <trkpt lat="44.68588" lon="5.93794">
        <ele>1367.9</ele>
        <time>2015-07-01T12:05:49Z</time>
      </trkpt>
      <trkpt lat="44.68589" lon="5.93796">
        <ele>1366.6</ele>
        <time>2015-07-01T12:05:54Z</time>
      </trkpt>
      <trkpt lat="44.68592" lon="5.93802">
        <ele>1367.3</ele>
        <time>2015-07-01T12:05:59Z</time>
      </trkpt>
      <trkpt lat="44.68597" lon="5.93807">
        <ele>1367.9</ele>
        <time>2015-07-01T12:06:04Z</time>
      </trkpt>
      <trkpt lat="44.686" lon="5.93816">
        <ele>1366.8</ele>
        <time>2015-07-01T12:06:09Z</time>
      </trkpt>
      <trkpt lat="44.68608" lon="5.9382">
        <ele>1362.9</ele>
        <time>2015-07-01T12:06:14Z</time>
      </trkpt>
      <trkpt lat="44.68612" lon="5.93828">
        <ele>1361.8</ele>
        <time>2015-07-01T12:06:19Z</time>
      </trkpt>
      <trkpt lat="44.68614" lon="5.93836">
        <ele>1358.6</ele>
        <time>2015-07-01T12:06:24Z</time>
      </trkpt>
      <trkpt lat="44.68615" lon="5.93844">
        <ele>1354.5</ele>
        <time>2015-07-01T12:06:29Z</time>
      </trkpt>
      <trkpt lat="44.68618" lon="5.93853">
        <ele>1355.3</ele>
        <time>2015-07-01T12:06:34Z</time>
      </trkpt>
      <trkpt lat="44.6862" lon="5.93861">
        <ele>1352</ele>
        <time>2015-07-01T12:06:39Z</time>
      </trkpt>
      <trkpt lat="44.68621" lon="5.93872">
        <ele>1351.7</ele>
        <time>2015-07-01T12:06:44Z</time>
      </trkpt>
      <trkpt lat="44.68629" lon="5.93874">
        <ele>1351</ele>
        <time>2015-07-01T12:06:49Z</time>
      </trkpt>
      <trkpt lat="44.68639" lon="5.93872">
        <ele>1350.3</ele>
        <time>2015-07-01T12:06:54Z</time>
      </trkpt>
      <trkpt lat="44.68646" lon="5.93869">
        <ele>1346</ele>
        <time>2015-07-01T12:06:59Z</time>
      </trkpt>
      <trkpt lat="44.6865" lon="5.93864">
        <ele>1344.6</ele>
        <time>2015-07-01T12:07:04Z</time>
      </trkpt>
      <trkpt lat="44.68658" lon="5.93863">
        <ele>1348</ele>
        <time>2015-07-01T12:07:09Z</time>
      </trkpt>
      <trkpt lat="44.68665" lon="5.93863">
        <ele>1345.1</ele>
        <time>2015-07-01T12:07:14Z</time>
      </trkpt>
      <trkpt lat="44.6867" lon="5.93868">
        <ele>1344.5</ele>
        <time>2015-07-01T12:07:19Z</time>
      </trkpt>
      <trkpt lat="44.68675" lon="5.93876">
        <ele>1342.1</ele>
        <time>2015-07-01T12:07:24Z</time>
      </trkpt>
      <trkpt lat="44.6868" lon="5.93883">
        <ele>1339.5</ele>
        <time>2015-07-01T12:07:29Z</time>
      </trkpt>
      <trkpt lat="44.68686" lon="5.93888">
        <ele>1335.7</ele>
        <time>2015-07-01T12:07:34Z</time>
      </trkpt>
      <trkpt lat="44.68692" lon="5.93889">
        <ele>1331.4</ele>
        <time>2015-07-01T12:07:39Z</time>
      </trkpt>
      <trkpt lat="44.68699" lon="5.93888">
        <ele>1330.1</ele>
        <time>2015-07-01T12:07:44Z</time>
      </trkpt>
      <trkpt lat="44.68705" lon="5.93892">
        <ele>1330.8</ele>
        <time>2015-07-01T12:07:49Z</time>
      </trkpt>
      <trkpt lat="44.6871" lon="5.93895">
        <ele>1330</ele>
        <time>2015-07-01T12:07:54Z</time>
      </trkpt>
      <trkpt lat="44.68715" lon="5.93899">
        <ele>1329.7</ele>
        <time>2015-07-01T12:07:59Z</time>
      </trkpt>
      <trkpt lat="44.68723" lon="5.939">
        <ele>1327.4</ele>
        <time>2015-07-01T12:08:04Z</time>
      </trkpt>
      <trkpt lat="44.68728" lon="5.93903">
        <ele>1327.4</ele>
        <time>2015-07-01T12:08:09Z</time>
      </trkpt>
      <trkpt lat="44.68727" lon="5.93909">
        <ele>1325.2</ele>
        <time>2015-07-01T12:08:14Z</time>
      </trkpt>
      <trkpt lat="44.68729" lon="5.93916">
        <ele>1323.9</ele>
        <time>2015-07-01T12:08:19Z</time>
      </trkpt>
      <trkpt lat="44.68735" lon="5.9392">
        <ele>1320.4</ele>
        <time>2015-07-01T12:08:24Z</time>
      </trkpt>
      <trkpt lat="44.68739" lon="5.93929">
        <ele>1318</ele>
        <time>2015-07-01T12:08:29Z</time>
      </trkpt>
      <trkpt lat="44.6874" lon="5.93939">
        <ele>1316</ele>
        <time>2015-07-01T12:08:34Z</time>
      </trkpt>
      <trkpt lat="44.68743" lon="5.93947">
        <ele>1315.8</ele>
        <time>2015-07-01T12:08:39Z</time>
      </trkpt>
      <trkpt lat="44.68749" lon="5.93954">
        <ele>1313.5</ele>
        <time>2015-07-01T12:08:44Z</time>
      </trkpt>
      <trkpt lat="44.68754" lon="5.9396">
        <ele>1313</ele>
        <time>2015-07-01T12:08:49Z</time>
      </trkpt>
      <trkpt lat="44.6876" lon="5.93969">
        <ele>1311.6</ele>
        <time>2015-07-01T12:08:54Z</time>
      </trkpt>
      <trkpt lat="44.68762" lon="5.93977">
        <ele>1311.1</ele>
        <time>2015-07-01T12:08:59Z</time>
      </trkpt>
      <trkpt lat="44.68764" lon="5.93985">
        <ele>1310.8</ele>
        <time>2015-07-01T12:09:04Z</time>
      </trkpt>
      <trkpt lat="44.6877" lon="5.93989">
        <ele>1308.9</ele>
        <time>2015-07-01T12:09:09Z</time>
      </trkpt>
      <trkpt lat="44.68778" lon="5.9399">
        <ele>1304.7</ele>
        <time>2015-07-01T12:09:14Z</time>
      </trkpt>
      <trkpt lat="44.68786" lon="5.93987">
        <ele>1300.7</ele>
        <time>2015-07-01T12:09:19Z</time>
      </trkpt>
      <trkpt lat="44.68793" lon="5.93985">
        <ele>1302</ele>
        <time>2015-07-01T12:09:24Z</time>
      </trkpt>
      <trkpt lat="44.68802" lon="5.93983">
        <ele>1298.9</ele>
        <time>2015-07-01T12:09:29Z</time>
      </trkpt>
      <trkpt lat="44.6881" lon="5.93984">
        <ele>1295.8</ele>
        <time>2015-07-01T12:09:34Z</time>
      </trkpt>
      <trkpt lat="44.68817" lon="5.93986">
        <ele>1293.8</ele>
        <time>2015-07-01T12:09:39Z</time>
      </trkpt>
      <trkpt lat="44.6882" lon="5.93993">
        <ele>1297.4</ele>
        <time>2015-07-01T12:09:44Z</time>
      </trkpt>
      <trkpt lat="44.68824" lon="5.94">
        <ele>1296.4</ele>
        <time>2015-07-01T12:09:49Z</time>
      </trkpt>
      <trkpt lat="44.68828" lon="5.94009">
        <ele>1295.1</ele>
        <time>2015-07-01T12:09:54Z</time>
      </trkpt>
      <trkpt lat="44.68831" lon="5.94018">
        <ele>1295.1</ele>
        <time>2015-07-01T12:09:59Z</time>
      </trkpt>
      <trkpt lat="44.68836" lon="5.94026">
        <ele>1294.3</ele>
        <time>2015-07-01T12:10:04Z</time>
      </trkpt>
      <trkpt lat="44.68841" lon="5.94033">
        <ele>1293.5</ele>
        <time>2015-07-01T12:10:09Z</time>
      </trkpt>
      <trkpt lat="44.68845" lon="5.94041">
        <ele>1292.9</ele>
        <time>2015-07-01T12:10:14Z</time>
      </trkpt>
      <trkpt lat="44.6885" lon="5.94048">
        <ele>1292.2</ele>
        <time>2015-07-01T12:10:19Z</time>
      </trkpt>
      <trkpt lat="44.68855" lon="5.94054">
        <ele>1291.2</ele>
        <time>2015-07-01T12:10:24Z</time>
      </trkpt>
      <trkpt lat="44.68862" lon="5.9406">
        <ele>1288.2</ele>
        <time>2015-07-01T12:10:29Z</time>
      </trkpt>
      <trkpt lat="44.68867" lon="5.94066">
        <ele>1285.4</ele>
        <time>2015-07-01T12:10:34Z</time>
      </trkpt>
      <trkpt lat="44.68873" lon="5.94074">
        <ele>1284.2</ele>
        <time>2015-07-01T12:10:39Z</time>
      </trkpt>
      <trkpt lat="44.68879" lon="5.9408">
        <ele>1280.1</ele>
        <time>2015-07-01T12:10:44Z</time>
      </trkpt>
      <trkpt lat="44.68886" lon="5.94086">
        <ele>1278.9</ele>
        <time>2015-07-01T12:10:49Z</time>
      </trkpt>
      <trkpt lat="44.68893" lon="5.94089">
        <ele>1277.4</ele>
        <time>2015-07-01T12:10:54Z</time>
      </trkpt>
      <trkpt lat="44.68902" lon="5.94091">
        <ele>1275.7</ele>
        <time>2015-07-01T12:10:59Z</time>
      </trkpt>
      <trkpt lat="44.68908" lon="5.94093">
        <ele>1276.2</ele>
        <time>2015-07-01T12:11:04Z</time>
      </trkpt>
      <trkpt lat="44.68914" lon="5.941">
        <ele>1275.7</ele>
        <time>2015-07-01T12:11:09Z</time>
      </trkpt>
      <trkpt lat="44.68919" lon="5.94107">
        <ele>1274.1</ele>
        <time>2015-07-01T12:11:14Z</time>
      </trkpt>
      <trkpt lat="44.68924" lon="5.94115">
        <ele>1273.3</ele>
        <time>2015-07-01T12:11:19Z</time>
      </trkpt>
      <trkpt lat="44.68928" lon="5.94123">
        <ele>1272.6</ele>
        <time>2015-07-01T12:11:24Z</time>
      </trkpt>
      <trkpt lat="44.6893" lon="5.94131">
        <ele>1273.3</ele>
        <time>2015-07-01T12:11:29Z</time>
      </trkpt>
      <trkpt lat="44.68933" lon="5.9414">
        <ele>1272.8</ele>
        <time>2015-07-01T12:11:34Z</time>
      </trkpt>
      <trkpt lat="44.68936" lon="5.94146">
        <ele>1271.2</ele>
        <time>2015-07-01T12:11:39Z</time>
      </trkpt>
      <trkpt lat="44.6894" lon="5.94154">
        <ele>1269.3</ele>
        <time>2015-07-01T12:11:44Z</time>
      </trkpt>
      <trkpt lat="44.6894" lon="5.94165">
        <ele>1272.2</ele>
        <time>2015-07-01T12:11:49Z</time>
      </trkpt>
      <trkpt lat="44.68944" lon="5.94173">
        <ele>1271.1</ele>
        <time>2015-07-01T12:11:54Z</time>
      </trkpt>
      <trkpt lat="44.6895" lon="5.9418">
        <ele>1268.1</ele>
        <time>2015-07-01T12:11:59Z</time>
      </trkpt>
      <trkpt lat="44.68954" lon="5.94187">
        <ele>1267.6</ele>
        <time>2015-07-01T12:12:04Z</time>
      </trkpt>
      <trkpt lat="44.68955" lon="5.94194">
        <ele>1264.4</ele>
        <time>2015-07-01T12:12:09Z</time>
      </trkpt>
      <trkpt lat="44.68955" lon="5.94205">
        <ele>1264.8</ele>
        <time>2015-07-01T12:12:14Z</time>
      </trkpt>
      <trkpt lat="44.68951" lon="5.94213">
        <ele>1264.7</ele>
        <time>2015-07-01T12:12:19Z</time>
      </trkpt>
      <trkpt lat="44.68948" lon="5.94223">
        <ele>1263.3</ele>
        <time>2015-07-01T12:12:24Z</time>
      </trkpt>
      <trkpt lat="44.68944" lon="5.94232">
        <ele>1262</ele>
        <time>2015-07-01T12:12:29Z</time>
      </trkpt>
      <trkpt lat="44.68941" lon="5.94242">
        <ele>1262.4</ele>
        <time>2015-07-01T12:12:34Z</time>
      </trkpt>
      <trkpt lat="44.68937" lon="5.9425">
        <ele>1261.3</ele>
        <time>2015-07-01T12:12:39Z</time>
      </trkpt>
      <trkpt lat="44.68934" lon="5.94258">
        <ele>1261.3</ele>
        <time>2015-07-01T12:12:44Z</time>
      </trkpt>
      <trkpt lat="44.68939" lon="5.94255">
        <ele>1261.7</ele>
        <time>2015-07-01T12:12:49Z</time>
      </trkpt>
      <trkpt lat="44.68944" lon="5.94247">
        <ele>1261</ele>
        <time>2015-07-01T12:12:54Z</time>
      </trkpt>
      <trkpt lat="44.68947" lon="5.94238">
        <ele>1260</ele>
        <time>2015-07-01T12:12:59Z</time>
      </trkpt>
      <trkpt lat="44.68952" lon="5.94232">
        <ele>1261.4</ele>
        <time>2015-07-01T12:13:04Z</time>
      </trkpt>
      <trkpt lat="44.68951" lon="5.9424">
        <ele>1261.8</ele>
        <time>2015-07-01T12:13:09Z</time>
      </trkpt>
      <trkpt lat="44.68945" lon="5.94248">
        <ele>1264.5</ele>
        <time>2015-07-01T12:13:14Z</time>
      </trkpt>
      <trkpt lat="44.6894" lon="5.94256">
        <ele>1265.5</ele>
        <time>2015-07-01T12:13:19Z</time>
      </trkpt>
      <trkpt lat="44.68938" lon="5.94265">
        <ele>1267.7</ele>
        <time>2015-07-01T12:13:24Z</time>
      </trkpt>
      <trkpt lat="44.68936" lon="5.94271">
        <ele>1264.5</ele>
        <time>2015-07-01T12:13:29Z</time>
      </trkpt>
      <trkpt lat="44.68937" lon="5.94273">
        <ele>1264.7</ele>
        <time>2015-07-01T12:13:34Z</time>
      </trkpt>
      <trkpt lat="44.68935" lon="5.94273">
        <ele>1262.7</ele>
        <time>2015-07-01T12:13:39Z</time>
      </trkpt>
      <trkpt lat="44.68934" lon="5.94274">
        <ele>1262.9</ele>
        <time>2015-07-01T12:13:44Z</time>
      </trkpt>
      <trkpt lat="44.68935" lon="5.94274">
        <ele>1262</ele>
        <time>2015-07-01T12:13:49Z</time>
      </trkpt>
      <trkpt lat="44.68933" lon="5.94275">
        <ele>1261</ele>
        <time>2015-07-01T12:13:54Z</time>
      </trkpt>
      <trkpt lat="44.68932" lon="5.94277">
        <ele>1262.6</ele>
        <time>2015-07-01T12:13:59Z</time>
      </trkpt>
      <trkpt lat="44.68933" lon="5.94277">
        <ele>1265.6</ele>
        <time>2015-07-01T12:14:04Z</time>
      </trkpt>
      <trkpt lat="44.68931" lon="5.94279">
        <ele>1267.4</ele>
        <time>2015-07-01T12:14:09Z</time>
      </trkpt>
      <trkpt lat="44.68931" lon="5.94278">
        <ele>1268</ele>
        <time>2015-07-01T12:14:14Z</time>
      </trkpt>
      <trkpt lat="44.68932" lon="5.94279">
        <ele>1267.9</ele>
        <time>2015-07-01T12:14:19Z</time>
      </trkpt>
      <trkpt lat="44.68933" lon="5.94279">
        <ele>1269.4</ele>
        <time>2015-07-01T12:14:24Z</time>
      </trkpt>
      <trkpt lat="44.68932" lon="5.94281">
        <ele>1270</ele>
        <time>2015-07-01T12:14:29Z</time>
      </trkpt>
      <trkpt lat="44.68934" lon="5.94278">
        <ele>1267.2</ele>
        <time>2015-07-01T12:14:34Z</time>
      </trkpt>
      <trkpt lat="44.68934" lon="5.94277">
        <ele>1263.9</ele>
        <time>2015-07-01T12:14:39Z</time>
      </trkpt>
      <trkpt lat="44.68937" lon="5.94276">
        <ele>1265.2</ele>
        <time>2015-07-01T12:14:44Z</time>
      </trkpt>
      <trkpt lat="44.68937" lon="5.94276">
        <ele>1266.1</ele>
        <time>2015-07-01T12:14:49Z</time>
      </trkpt>
      <trkpt lat="44.68939" lon="5.94269">
        <ele>1266.8</ele>
        <time>2015-07-01T12:14:55Z</time>
      </trkpt>
      <trkpt lat="44.68937" lon="5.94263">
        <ele>1267.1</ele>
        <time>2015-07-01T12:15:00Z</time>
      </trkpt>
      <trkpt lat="44.68931" lon="5.94267">
        <ele>1267.2</ele>
        <time>2015-07-01T12:15:05Z</time>
      </trkpt>
      <trkpt lat="44.68925" lon="5.94271">
        <ele>1269.9</ele>
        <time>2015-07-01T12:15:10Z</time>
      </trkpt>
      <trkpt lat="44.6892" lon="5.94272">
        <ele>1269</ele>
        <time>2015-07-01T12:15:15Z</time>
      </trkpt>
      <trkpt lat="44.68914" lon="5.94271">
        <ele>1266</ele>
        <time>2015-07-01T12:15:20Z</time>
      </trkpt>
      <trkpt lat="44.68907" lon="5.94273">
        <ele>1266.1</ele>
        <time>2015-07-01T12:15:25Z</time>
      </trkpt>
      <trkpt lat="44.689" lon="5.94276">
        <ele>1267.3</ele>
        <time>2015-07-01T12:15:30Z</time>
      </trkpt>
      <trkpt lat="44.68893" lon="5.94281">
        <ele>1268.5</ele>
        <time>2015-07-01T12:15:35Z</time>
      </trkpt>
      <trkpt lat="44.68886" lon="5.94286">
        <ele>1268.9</ele>
        <time>2015-07-01T12:15:40Z</time>
      </trkpt>
      <trkpt lat="44.68881" lon="5.94292">
        <ele>1268.4</ele>
        <time>2015-07-01T12:15:45Z</time>
      </trkpt>
      <trkpt lat="44.68875" lon="5.94298">
        <ele>1268.8</ele>
        <time>2015-07-01T12:15:50Z</time>
      </trkpt>
      <trkpt lat="44.68868" lon="5.943">
        <ele>1264.4</ele>
        <time>2015-07-01T12:15:55Z</time>
      </trkpt>
      <trkpt lat="44.68863" lon="5.94303">
        <ele>1263.7</ele>
        <time>2015-07-01T12:16:00Z</time>
      </trkpt>
      <trkpt lat="44.68858" lon="5.94304">
        <ele>1264.5</ele>
        <time>2015-07-01T12:16:05Z</time>
      </trkpt>
      <trkpt lat="44.68853" lon="5.94306">
        <ele>1265.4</ele>
        <time>2015-07-01T12:16:10Z</time>
      </trkpt>
      <trkpt lat="44.68846" lon="5.94306">
        <ele>1268.5</ele>
        <time>2015-07-01T12:16:15Z</time>
      </trkpt>
      <trkpt lat="44.68841" lon="5.9431">
        <ele>1267.9</ele>
        <time>2015-07-01T12:16:20Z</time>
      </trkpt>
      <trkpt lat="44.68837" lon="5.94313">
        <ele>1266.6</ele>
        <time>2015-07-01T12:16:25Z</time>
      </trkpt>
      <trkpt lat="44.68836" lon="5.94317">
        <ele>1266.3</ele>
        <time>2015-07-01T12:16:30Z</time>
      </trkpt>
      <trkpt lat="44.68833" lon="5.9432">
        <ele>1266.4</ele>
        <time>2015-07-01T12:16:35Z</time>
      </trkpt>
      <trkpt lat="44.68831" lon="5.9432">
        <ele>1266.4</ele>
        <time>2015-07-01T12:16:40Z</time>
      </trkpt>
      <trkpt lat="44.68825" lon="5.94324">
        <ele>1268.4</ele>
        <time>2015-07-01T12:16:45Z</time>
      </trkpt>
      <trkpt lat="44.68818" lon="5.94329">
        <ele>1271.1</ele>
        <time>2015-07-01T12:16:50Z</time>
      </trkpt>
      <trkpt lat="44.68812" lon="5.94331">
        <ele>1271.1</ele>
        <time>2015-07-01T12:16:55Z</time>
      </trkpt>
      <trkpt lat="44.68807" lon="5.94335">
        <ele>1271.6</ele>
        <time>2015-07-01T12:17:00Z</time>
      </trkpt>
      <trkpt lat="44.68802" lon="5.94339">
        <ele>1270.8</ele>
        <time>2015-07-01T12:17:05Z</time>
      </trkpt>
      <trkpt lat="44.68796" lon="5.94343">
        <ele>1270.6</ele>
        <time>2015-07-01T12:17:10Z</time>
      </trkpt>
      <trkpt lat="44.68791" lon="5.94348">
        <ele>1269.1</ele>
        <time>2015-07-01T12:17:15Z</time>
      </trkpt>
      <trkpt lat="44.68784" lon="5.94352">
        <ele>1270.6</ele>
        <time>2015-07-01T12:17:20Z</time>
      </trkpt>
      <trkpt lat="44.68779" lon="5.94358">
        <ele>1271.1</ele>
        <time>2015-07-01T12:17:25Z</time>
      </trkpt>
      <trkpt lat="44.68773" lon="5.94365">
        <ele>1271.8</ele>
        <time>2015-07-01T12:17:30Z</time>
      </trkpt>
      <trkpt lat="44.68769" lon="5.94375">
        <ele>1272.4</ele>
        <time>2015-07-01T12:17:35Z</time>
      </trkpt>
      <trkpt lat="44.68764" lon="5.94382">
        <ele>1271.9</ele>
        <time>2015-07-01T12:17:40Z</time>
      </trkpt>
      <trkpt lat="44.6876" lon="5.94388">
        <ele>1272.7</ele>
        <time>2015-07-01T12:17:45Z</time>
      </trkpt>
      <trkpt lat="44.68755" lon="5.94395">
        <ele>1272.5</ele>
        <time>2015-07-01T12:17:50Z</time>
      </trkpt>
      <trkpt lat="44.6875" lon="5.94403">
        <ele>1272.3</ele>
        <time>2015-07-01T12:17:55Z</time>
      </trkpt>
      <trkpt lat="44.68745" lon="5.94411">
        <ele>1275.6</ele>
        <time>2015-07-01T12:18:00Z</time>
      </trkpt>
      <trkpt lat="44.68742" lon="5.94416">
        <ele>1272.7</ele>
        <time>2015-07-01T12:18:05Z</time>
      </trkpt>
      <trkpt lat="44.68736" lon="5.94422">
        <ele>1273.5</ele>
        <time>2015-07-01T12:18:10Z</time>
      </trkpt>
      <trkpt lat="44.68729" lon="5.94429">
        <ele>1275.3</ele>
        <time>2015-07-01T12:18:15Z</time>
      </trkpt>
      <trkpt lat="44.68723" lon="5.94434">
        <ele>1273.9</ele>
        <time>2015-07-01T12:18:20Z</time>
      </trkpt>
      <trkpt lat="44.68718" lon="5.94439">
        <ele>1273.2</ele>
        <time>2015-07-01T12:18:25Z</time>
      </trkpt>
      <trkpt lat="44.68713" lon="5.94445">
        <ele>1271.2</ele>
        <time>2015-07-01T12:18:30Z</time>
      </trkpt>
      <trkpt lat="44.68709" lon="5.94452">
        <ele>1270.4</ele>
        <time>2015-07-01T12:18:35Z</time>
      </trkpt>
      <trkpt lat="44.68703" lon="5.94457">
        <ele>1271.7</ele>
        <time>2015-07-01T12:18:40Z</time>
      </trkpt>
      <trkpt lat="44.68697" lon="5.94462">
        <ele>1272</ele>
        <time>2015-07-01T12:18:45Z</time>
      </trkpt>
      <trkpt lat="44.6869" lon="5.94463">
        <ele>1277.3</ele>
        <time>2015-07-01T12:18:50Z</time>
      </trkpt>
      <trkpt lat="44.68684" lon="5.94468">
        <ele>1280.9</ele>
        <time>2015-07-01T12:18:55Z</time>
      </trkpt>
      <trkpt lat="44.68681" lon="5.9447">
        <ele>1281.9</ele>
        <time>2015-07-01T12:19:00Z</time>
      </trkpt>
      <trkpt lat="44.68674" lon="5.9447">
        <ele>1283.3</ele>
        <time>2015-07-01T12:19:05Z</time>
      </trkpt>
      <trkpt lat="44.68669" lon="5.94471">
        <ele>1281.4</ele>
        <time>2015-07-01T12:19:10Z</time>
      </trkpt>
      <trkpt lat="44.68664" lon="5.94476">
        <ele>1281.9</ele>
        <time>2015-07-01T12:19:15Z</time>
      </trkpt>
      <trkpt lat="44.6866" lon="5.94483">
        <ele>1279.9</ele>
        <time>2015-07-01T12:19:20Z</time>
      </trkpt>
      <trkpt lat="44.68662" lon="5.94494">
        <ele>1275.7</ele>
        <time>2015-07-01T12:19:25Z</time>
      </trkpt>
      <trkpt lat="44.68663" lon="5.94504">
        <ele>1275.2</ele>
        <time>2015-07-01T12:19:30Z</time>
      </trkpt>
      <trkpt lat="44.68664" lon="5.94514">
        <ele>1277.4</ele>
        <time>2015-07-01T12:19:35Z</time>
      </trkpt>
      <trkpt lat="44.68666" lon="5.94523">
        <ele>1278.7</ele>
        <time>2015-07-01T12:19:40Z</time>
      </trkpt>
      <trkpt lat="44.68667" lon="5.94533">
        <ele>1277.9</ele>
        <time>2015-07-01T12:19:45Z</time>
      </trkpt>
      <trkpt lat="44.68667" lon="5.94542">
        <ele>1278</ele>
        <time>2015-07-01T12:19:50Z</time>
      </trkpt>
      <trkpt lat="44.68669" lon="5.94551">
        <ele>1279.5</ele>
        <time>2015-07-01T12:19:55Z</time>
      </trkpt>
      <trkpt lat="44.68671" lon="5.9456">
        <ele>1277.1</ele>
        <time>2015-07-01T12:20:00Z</time>
      </trkpt>
      <trkpt lat="44.68676" lon="5.94567">
        <ele>1275.9</ele>
        <time>2015-07-01T12:20:05Z</time>
      </trkpt>
      <trkpt lat="44.6868" lon="5.94576">
        <ele>1279</ele>
        <time>2015-07-01T12:20:10Z</time>
      </trkpt>
      <trkpt lat="44.68683" lon="5.94584">
        <ele>1280.9</ele>
        <time>2015-07-01T12:20:15Z</time>
      </trkpt>
      <trkpt lat="44.68686" lon="5.94592">
        <ele>1281.9</ele>
        <time>2015-07-01T12:20:20Z</time>
      </trkpt>
      <trkpt lat="44.68689" lon="5.94601">
        <ele>1283.2</ele>
        <time>2015-07-01T12:20:25Z</time>
      </trkpt>
      <trkpt lat="44.68693" lon="5.94608">
        <ele>1285.2</ele>
        <time>2015-07-01T12:20:30Z</time>
      </trkpt>
      <trkpt lat="44.68693" lon="5.94616">
        <ele>1285.7</ele>
        <time>2015-07-01T12:20:35Z</time>
      </trkpt>
      <trkpt lat="44.68694" lon="5.94624">
        <ele>1283.6</ele>
        <time>2015-07-01T12:20:40Z</time>
      </trkpt>
      <trkpt lat="44.68693" lon="5.94631">
        <ele>1283</ele>
        <time>2015-07-01T12:20:45Z</time>
      </trkpt>
      <trkpt lat="44.68689" lon="5.94636">
        <ele>1282</ele>
        <time>2015-07-01T12:20:50Z</time>
      </trkpt>
      <trkpt lat="44.68684" lon="5.9464">
        <ele>1281.6</ele>
        <time>2015-07-01T12:20:55Z</time>
      </trkpt>
      <trkpt lat="44.68678" lon="5.94645">
        <ele>1284.8</ele>
        <time>2015-07-01T12:21:00Z</time>
      </trkpt>
      <trkpt lat="44.68673" lon="5.94649">
        <ele>1287.3</ele>
        <time>2015-07-01T12:21:05Z</time>
      </trkpt>
      <trkpt lat="44.68667" lon="5.94653">
        <ele>1288.3</ele>
        <time>2015-07-01T12:21:10Z</time>
      </trkpt>
      <trkpt lat="44.68662" lon="5.94658">
        <ele>1288.3</ele>
        <time>2015-07-01T12:21:15Z</time>
      </trkpt>
      <trkpt lat="44.68659" lon="5.94663">
        <ele>1285.1</ele>
        <time>2015-07-01T12:21:20Z</time>
      </trkpt>
      <trkpt lat="44.68654" lon="5.94668">
        <ele>1285.6</ele>
        <time>2015-07-01T12:21:25Z</time>
      </trkpt>
      <trkpt lat="44.68646" lon="5.94673">
        <ele>1286.3</ele>
        <time>2015-07-01T12:21:30Z</time>
      </trkpt>
      <trkpt lat="44.68642" lon="5.94677">
        <ele>1282</ele>
        <time>2015-07-01T12:21:35Z</time>
      </trkpt>
      <trkpt lat="44.68637" lon="5.94681">
        <ele>1281.8</ele>
        <time>2015-07-01T12:21:40Z</time>
      </trkpt>
      <trkpt lat="44.6863" lon="5.94685">
        <ele>1284.8</ele>
        <time>2015-07-01T12:21:45Z</time>
      </trkpt>
      <trkpt lat="44.68627" lon="5.9469">
        <ele>1281.4</ele>
        <time>2015-07-01T12:21:50Z</time>
      </trkpt>
      <trkpt lat="44.68623" lon="5.94695">
        <ele>1281</ele>
        <time>2015-07-01T12:21:55Z</time>
      </trkpt>
      <trkpt lat="44.68618" lon="5.947">
        <ele>1282.2</ele>
        <time>2015-07-01T12:22:00Z</time>
      </trkpt>
      <trkpt lat="44.68612" lon="5.94703">
        <ele>1286.3</ele>
        <time>2015-07-01T12:22:05Z</time>
      </trkpt>
      <trkpt lat="44.68607" lon="5.94707">
        <ele>1287.1</ele>
        <time>2015-07-01T12:22:10Z</time>
      </trkpt>
      <trkpt lat="44.68602" lon="5.9471">
        <ele>1283</ele>
        <time>2015-07-01T12:22:15Z</time>
      </trkpt>
      <trkpt lat="44.68597" lon="5.94715">
        <ele>1284.4</ele>
        <time>2015-07-01T12:22:20Z</time>
      </trkpt>
      <trkpt lat="44.68591" lon="5.94719">
        <ele>1286.5</ele>
        <time>2015-07-01T12:22:25Z</time>
      </trkpt>
      <trkpt lat="44.68586" lon="5.94724">
        <ele>1287.2</ele>
        <time>2015-07-01T12:22:30Z</time>
      </trkpt>
      <trkpt lat="44.6858" lon="5.94729">
        <ele>1290.4</ele>
        <time>2015-07-01T12:22:35Z</time>
      </trkpt>
      <trkpt lat="44.68575" lon="5.94734">
        <ele>1292.4</ele>
        <time>2015-07-01T12:22:40Z</time>
      </trkpt>
      <trkpt lat="44.68569" lon="5.94738">
        <ele>1294</ele>
        <time>2015-07-01T12:22:45Z</time>
      </trkpt>
      <trkpt lat="44.68565" lon="5.94743">
        <ele>1290.2</ele>
        <time>2015-07-01T12:22:50Z</time>
      </trkpt>
      <trkpt lat="44.6856" lon="5.94749">
        <ele>1290.4</ele>
        <time>2015-07-01T12:22:55Z</time>
      </trkpt>
      <trkpt lat="44.68556" lon="5.94754">
        <ele>1289.5</ele>
        <time>2015-07-01T12:23:00Z</time>
      </trkpt>
      <trkpt lat="44.68551" lon="5.94759">
        <ele>1288.8</ele>
        <time>2015-07-01T12:23:05Z</time>
      </trkpt>
      <trkpt lat="44.68546" lon="5.94764">
        <ele>1289.3</ele>
        <time>2015-07-01T12:23:10Z</time>
      </trkpt>
      <trkpt lat="44.68541" lon="5.94768">
        <ele>1287.2</ele>
        <time>2015-07-01T12:23:15Z</time>
      </trkpt>
      <trkpt lat="44.68535" lon="5.94771">
        <ele>1288.2</ele>
        <time>2015-07-01T12:23:20Z</time>
      </trkpt>
      <trkpt lat="44.6853" lon="5.94776">
        <ele>1288.2</ele>
        <time>2015-07-01T12:23:25Z</time>
      </trkpt>
      <trkpt lat="44.68523" lon="5.94779">
        <ele>1289.1</ele>
        <time>2015-07-01T12:23:30Z</time>
      </trkpt>
      <trkpt lat="44.68519" lon="5.94785">
        <ele>1289.7</ele>
        <time>2015-07-01T12:23:35Z</time>
      </trkpt>
      <trkpt lat="44.68512" lon="5.9479">
        <ele>1291.9</ele>
        <time>2015-07-01T12:23:40Z</time>
      </trkpt>
      <trkpt lat="44.68507" lon="5.94796">
        <ele>1294.7</ele>
        <time>2015-07-01T12:23:45Z</time>
      </trkpt>
      <trkpt lat="44.68504" lon="5.94801">
        <ele>1290.8</ele>
        <time>2015-07-01T12:23:50Z</time>
      </trkpt>
      <trkpt lat="44.685" lon="5.94806">
        <ele>1287.1</ele>
        <time>2015-07-01T12:23:55Z</time>
      </trkpt>
      <trkpt lat="44.68494" lon="5.9481">
        <ele>1288.9</ele>
        <time>2015-07-01T12:24:00Z</time>
      </trkpt>
      <trkpt lat="44.68489" lon="5.94814">
        <ele>1288.7</ele>
        <time>2015-07-01T12:24:05Z</time>
      </trkpt>
      <trkpt lat="44.68482" lon="5.94817">
        <ele>1290.7</ele>
        <time>2015-07-01T12:24:10Z</time>
      </trkpt>
      <trkpt lat="44.68477" lon="5.9482">
        <ele>1291.6</ele>
        <time>2015-07-01T12:24:15Z</time>
      </trkpt>
      <trkpt lat="44.6847" lon="5.94823">
        <ele>1293.4</ele>
        <time>2015-07-01T12:24:20Z</time>
      </trkpt>
      <trkpt lat="44.68463" lon="5.94821">
        <ele>1295.9</ele>
        <time>2015-07-01T12:24:25Z</time>
      </trkpt>
      <trkpt lat="44.68455" lon="5.94822">
        <ele>1301.7</ele>
        <time>2015-07-01T12:24:30Z</time>
      </trkpt>
      <trkpt lat="44.68451" lon="5.94827">
        <ele>1298.6</ele>
        <time>2015-07-01T12:24:35Z</time>
      </trkpt>
      <trkpt lat="44.68449" lon="5.94832">
        <ele>1293</ele>
        <time>2015-07-01T12:24:40Z</time>
      </trkpt>
      <trkpt lat="44.68443" lon="5.94836">
        <ele>1291.9</ele>
        <time>2015-07-01T12:24:45Z</time>
      </trkpt>
      <trkpt lat="44.68438" lon="5.9484">
        <ele>1292.4</ele>
        <time>2015-07-01T12:24:50Z</time>
      </trkpt>
      <trkpt lat="44.68433" lon="5.94844">
        <ele>1289.1</ele>
        <time>2015-07-01T12:24:55Z</time>
      </trkpt>
      <trkpt lat="44.68427" lon="5.94848">
        <ele>1287.7</ele>
        <time>2015-07-01T12:25:00Z</time>
      </trkpt>
      <trkpt lat="44.68422" lon="5.94851">
        <ele>1288</ele>
        <time>2015-07-01T12:25:06Z</time>
      </trkpt>
      <trkpt lat="44.68417" lon="5.94854">
        <ele>1288.8</ele>
        <time>2015-07-01T12:25:11Z</time>
      </trkpt>
      <trkpt lat="44.68412" lon="5.94855">
        <ele>1288</ele>
        <time>2015-07-01T12:25:16Z</time>
      </trkpt>
      <trkpt lat="44.68406" lon="5.94858">
        <ele>1288.9</ele>
        <time>2015-07-01T12:25:21Z</time>
      </trkpt>
      <trkpt lat="44.684" lon="5.94863">
        <ele>1289.6</ele>
        <time>2015-07-01T12:25:26Z</time>
      </trkpt>
      <trkpt lat="44.68395" lon="5.94865">
        <ele>1289.8</ele>
        <time>2015-07-01T12:25:31Z</time>
      </trkpt>
      <trkpt lat="44.68388" lon="5.94867">
        <ele>1291.4</ele>
        <time>2015-07-01T12:25:36Z</time>
      </trkpt>
      <trkpt lat="44.68383" lon="5.94869">
        <ele>1289.5</ele>
        <time>2015-07-01T12:25:41Z</time>
      </trkpt>
      <trkpt lat="44.68377" lon="5.94869">
        <ele>1289.1</ele>
        <time>2015-07-01T12:25:46Z</time>
      </trkpt>
      <trkpt lat="44.68371" lon="5.9487">
        <ele>1289</ele>
        <time>2015-07-01T12:25:51Z</time>
      </trkpt>
      <trkpt lat="44.68363" lon="5.94871">
        <ele>1293.2</ele>
        <time>2015-07-01T12:25:56Z</time>
      </trkpt>
      <trkpt lat="44.68358" lon="5.94871">
        <ele>1294.9</ele>
        <time>2015-07-01T12:26:01Z</time>
      </trkpt>
      <trkpt lat="44.68353" lon="5.94871">
        <ele>1294.2</ele>
        <time>2015-07-01T12:26:06Z</time>
      </trkpt>
      <trkpt lat="44.68348" lon="5.94873">
        <ele>1295.2</ele>
        <time>2015-07-01T12:26:11Z</time>
      </trkpt>
      <trkpt lat="44.68342" lon="5.94872">
        <ele>1295.2</ele>
        <time>2015-07-01T12:26:16Z</time>
      </trkpt>
      <trkpt lat="44.68338" lon="5.94872">
        <ele>1291.5</ele>
        <time>2015-07-01T12:26:21Z</time>
      </trkpt>
      <trkpt lat="44.68332" lon="5.94875">
        <ele>1294.6</ele>
        <time>2015-07-01T12:26:26Z</time>
      </trkpt>
      <trkpt lat="44.68332" lon="5.94877">
        <ele>1293.1</ele>
        <time>2015-07-01T12:26:31Z</time>
      </trkpt>
      <trkpt lat="44.68331" lon="5.94879">
        <ele>1290.9</ele>
        <time>2015-07-01T12:26:36Z</time>
      </trkpt>
      <trkpt lat="44.68327" lon="5.94879">
        <ele>1289.2</ele>
        <time>2015-07-01T12:26:41Z</time>
      </trkpt>
      <trkpt lat="44.68321" lon="5.94879">
        <ele>1288.1</ele>
        <time>2015-07-01T12:26:46Z</time>
      </trkpt>
      <trkpt lat="44.68314" lon="5.94876">
        <ele>1291.4</ele>
        <time>2015-07-01T12:26:51Z</time>
      </trkpt>
      <trkpt lat="44.68308" lon="5.94872">
        <ele>1293.4</ele>
        <time>2015-07-01T12:26:56Z</time>
      </trkpt>
      <trkpt lat="44.68301" lon="5.94866">
        <ele>1296.7</ele>
        <time>2015-07-01T12:27:01Z</time>
      </trkpt>
      <trkpt lat="44.68295" lon="5.94858">
        <ele>1299.7</ele>
        <time>2015-07-01T12:27:06Z</time>
      </trkpt>
      <trkpt lat="44.68293" lon="5.94851">
        <ele>1299.1</ele>
        <time>2015-07-01T12:27:11Z</time>
      </trkpt>
      <trkpt lat="44.68295" lon="5.94847">
        <ele>1296.5</ele>
        <time>2015-07-01T12:27:16Z</time>
      </trkpt>
      <trkpt lat="44.68299" lon="5.94847">
        <ele>1292.9</ele>
        <time>2015-07-01T12:27:21Z</time>
      </trkpt>
      <trkpt lat="44.68298" lon="5.94847">
        <ele>1290.4</ele>
        <time>2015-07-01T12:27:26Z</time>
      </trkpt>
      <trkpt lat="44.68298" lon="5.94848">
        <ele>1285</ele>
        <time>2015-07-01T12:27:31Z</time>
      </trkpt>
      <trkpt lat="44.68299" lon="5.94849">
        <ele>1282.7</ele>
        <time>2015-07-01T12:27:36Z</time>
      </trkpt>
      <trkpt lat="44.683" lon="5.94849">
        <ele>1284.4</ele>
        <time>2015-07-01T12:27:41Z</time>
      </trkpt>
      <trkpt lat="44.683" lon="5.94849">
        <ele>1285</ele>
        <time>2015-07-01T12:27:46Z</time>
      </trkpt>
      <trkpt lat="44.68301" lon="5.94849">
        <ele>1284.1</ele>
        <time>2015-07-01T12:27:51Z</time>
      </trkpt>
      <trkpt lat="44.68301" lon="5.94849">
        <ele>1283.6</ele>
        <time>2015-07-01T12:27:56Z</time>
      </trkpt>
      <trkpt lat="44.683" lon="5.94851">
        <ele>1286.2</ele>
        <time>2015-07-01T12:28:01Z</time>
      </trkpt>
      <trkpt lat="44.683" lon="5.94852">
        <ele>1288.6</ele>
        <time>2015-07-01T12:28:06Z</time>
      </trkpt>
      <trkpt lat="44.683" lon="5.94853">
        <ele>1283.1</ele>
        <time>2015-07-01T12:28:11Z</time>
      </trkpt>
      <trkpt lat="44.68301" lon="5.94852">
        <ele>1283</ele>
        <time>2015-07-01T12:28:16Z</time>
      </trkpt>
      <trkpt lat="44.68302" lon="5.94851">
        <ele>1281.8</ele>
        <time>2015-07-01T12:28:21Z</time>
      </trkpt>
      <trkpt lat="44.68301" lon="5.9485">
        <ele>1284.7</ele>
        <time>2015-07-01T12:28:26Z</time>
      </trkpt>
      <trkpt lat="44.683" lon="5.9485">
        <ele>1288</ele>
        <time>2015-07-01T12:28:31Z</time>
      </trkpt>
      <trkpt lat="44.68298" lon="5.94852">
        <ele>1292</ele>
        <time>2015-07-01T12:28:36Z</time>
      </trkpt>
      <trkpt lat="44.68295" lon="5.94853">
        <ele>1295.6</ele>
        <time>2015-07-01T12:28:41Z</time>
      </trkpt>
      <trkpt lat="44.68296" lon="5.94852">
        <ele>1294.4</ele>
        <time>2015-07-01T12:28:46Z</time>
      </trkpt>
      <trkpt lat="44.68297" lon="5.94851">
        <ele>1293.3</ele>
        <time>2015-07-01T12:28:51Z</time>
      </trkpt>
      <trkpt lat="44.68295" lon="5.94852">
        <ele>1294.1</ele>
        <time>2015-07-01T12:28:56Z</time>
      </trkpt>
      <trkpt lat="44.68293" lon="5.94853">
        <ele>1294.9</ele>
        <time>2015-07-01T12:29:01Z</time>
      </trkpt>
      <trkpt lat="44.68292" lon="5.94854">
        <ele>1297</ele>
        <time>2015-07-01T12:29:06Z</time>
      </trkpt>
      <trkpt lat="44.68295" lon="5.94854">
        <ele>1292.7</ele>
        <time>2015-07-01T12:29:11Z</time>
      </trkpt>
      <trkpt lat="44.68296" lon="5.94853">
        <ele>1291.7</ele>
        <time>2015-07-01T12:29:16Z</time>
      </trkpt>
      <trkpt lat="44.68298" lon="5.94853">
        <ele>1289.8</ele>
        <time>2015-07-01T12:29:21Z</time>
      </trkpt>
      <trkpt lat="44.68299" lon="5.94852">
        <ele>1289.1</ele>
        <time>2015-07-01T12:29:26Z</time>
      </trkpt>
      <trkpt lat="44.68298" lon="5.94853">
        <ele>1291.5</ele>
        <time>2015-07-01T12:29:31Z</time>
      </trkpt>
      <trkpt lat="44.68299" lon="5.94853">
        <ele>1291.5</ele>
        <time>2015-07-01T12:29:36Z</time>
      </trkpt>
      <trkpt lat="44.683" lon="5.94853">
        <ele>1293</ele>
        <time>2015-07-01T12:29:41Z</time>
      </trkpt>
      <trkpt lat="44.68298" lon="5.94854">
        <ele>1294.2</ele>
        <time>2015-07-01T12:29:46Z</time>
      </trkpt>
      <trkpt lat="44.68298" lon="5.94854">
        <ele>1291.6</ele>
        <time>2015-07-01T12:29:51Z</time>
      </trkpt>
      <trkpt lat="44.68299" lon="5.94854">
        <ele>1290.8</ele>
        <time>2015-07-01T12:29:56Z</time>
      </trkpt>
      <trkpt lat="44.68296" lon="5.94856">
        <ele>1293.3</ele>
        <time>2015-07-01T12:30:01Z</time>
      </trkpt>
      <trkpt lat="44.68295" lon="5.94856">
        <ele>1295.1</ele>
        <time>2015-07-01T12:30:06Z</time>
      </trkpt>
      <trkpt lat="44.68297" lon="5.94853">
        <ele>1294.6</ele>
        <time>2015-07-01T12:30:11Z</time>
      </trkpt>
      <trkpt lat="44.68301" lon="5.94851">
        <ele>1292.2</ele>
        <time>2015-07-01T12:30:16Z</time>
      </trkpt>
      <trkpt lat="44.68299" lon="5.94849">
        <ele>1292.7</ele>
        <time>2015-07-01T12:30:21Z</time>
      </trkpt>
      <trkpt lat="44.68299" lon="5.9485">
        <ele>1291</ele>
        <time>2015-07-01T12:30:26Z</time>
      </trkpt>
      <trkpt lat="44.68303" lon="5.94848">
        <ele>1289.9</ele>
        <time>2015-07-01T12:30:31Z</time>
      </trkpt>
      <trkpt lat="44.68305" lon="5.94845">
        <ele>1288.8</ele>
        <time>2015-07-01T12:30:36Z</time>
      </trkpt>
      <trkpt lat="44.68306" lon="5.94843">
        <ele>1293.5</ele>
        <time>2015-07-01T12:30:41Z</time>
      </trkpt>
      <trkpt lat="44.68305" lon="5.94842">
        <ele>1299.9</ele>
        <time>2015-07-01T12:30:46Z</time>
      </trkpt>
      <trkpt lat="44.68305" lon="5.9484">
        <ele>1306.4</ele>
        <time>2015-07-01T12:30:51Z</time>
      </trkpt>
      <trkpt lat="44.68307" lon="5.94838">
        <ele>1308.1</ele>
        <time>2015-07-01T12:30:56Z</time>
      </trkpt>
      <trkpt lat="44.68308" lon="5.94841">
        <ele>1304.7</ele>
        <time>2015-07-01T12:31:01Z</time>
      </trkpt>
      <trkpt lat="44.68308" lon="5.94839">
        <ele>1308.3</ele>
        <time>2015-07-01T12:31:06Z</time>
      </trkpt>
      <trkpt lat="44.68308" lon="5.94836">
        <ele>1313.9</ele>
        <time>2015-07-01T12:31:11Z</time>
      </trkpt>
      <trkpt lat="44.68308" lon="5.94835">
        <ele>1315.8</ele>
        <time>2015-07-01T12:31:16Z</time>
      </trkpt>
      <trkpt lat="44.68309" lon="5.94832">
        <ele>1314.4</ele>
        <time>2015-07-01T12:31:21Z</time>
      </trkpt>
      <trkpt lat="44.68308" lon="5.9483">
        <ele>1314.9</ele>
        <time>2015-07-01T12:31:26Z</time>
      </trkpt>
      <trkpt lat="44.68308" lon="5.94827">
        <ele>1315.6</ele>
        <time>2015-07-01T12:31:31Z</time>
      </trkpt>
      <trkpt lat="44.6831" lon="5.94826">
        <ele>1307.8</ele>
        <time>2015-07-01T12:31:36Z</time>
      </trkpt>
      <trkpt lat="44.68307" lon="5.9483">
        <ele>1304.2</ele>
        <time>2015-07-01T12:31:41Z</time>
      </trkpt>
      <trkpt lat="44.68303" lon="5.94839">
        <ele>1297.7</ele>
        <time>2015-07-01T12:31:46Z</time>
      </trkpt>
      <trkpt lat="44.68297" lon="5.94843">
        <ele>1297.5</ele>
        <time>2015-07-01T12:31:51Z</time>
      </trkpt>
      <trkpt lat="44.68293" lon="5.94844">
        <ele>1299.4</ele>
        <time>2015-07-01T12:31:56Z</time>
      </trkpt>
      <trkpt lat="44.68293" lon="5.94842">
        <ele>1296.3</ele>
        <time>2015-07-01T12:32:01Z</time>
      </trkpt>
      <trkpt lat="44.68292" lon="5.94847">
        <ele>1295.4</ele>
        <time>2015-07-01T12:32:06Z</time>
      </trkpt>
      <trkpt lat="44.68291" lon="5.94849">
        <ele>1296.4</ele>
        <time>2015-07-01T12:32:11Z</time>
      </trkpt>
      <trkpt lat="44.68285" lon="5.94853">
        <ele>1299.3</ele>
        <time>2015-07-01T12:32:16Z</time>
      </trkpt>
      <trkpt lat="44.68287" lon="5.94861">
        <ele>1300.7</ele>
        <time>2015-07-01T12:32:21Z</time>
      </trkpt>
    </trkseg>
  </trk>
</gpx>